<?xml version='1.0' encoding='UTF-8'?><gpx version="1.1" creator="JPX - https://github.com/jenetics/jpx" xmlns="http://www.topografix.com/GPX/1/1"><trk><trkseg><trkpt lat="45.49507711576771" lon="9.136081246748532"><ele>135.0</ele><time>2026-04-12T08:20:10.568Z</time></trkpt><trkpt lat="45.49488494232192" lon="9.13632590078294"><ele>135.0</ele><time>2026-04-12T08:20:46.051Z</time></trkpt><trkpt lat="45.49484243582439" lon="9.13647946233175"><ele>135.0</ele><time>2026-04-12T08:22:44.058Z</time></trkpt><trkpt lat="45.49485387004074" lon="9.136571556960533"><ele>135.0</ele><time>2026-04-12T08:22:50.058Z</time></trkpt><trkpt lat="45.49479988850737" lon="9.136512158561427"><ele>135.0</ele><time>2026-04-12T08:23:06.058Z</time></trkpt><trkpt lat="45.49477050350568" lon="9.136432670842195"><ele>135.0</ele><time>2026-04-12T08:23:16.058Z</time></trkpt><trkpt lat="45.49471888594211" lon="9.136365007425313"><ele>135.0</ele><time>2026-04-12T08:23:28.058Z</time></trkpt><trkpt lat="45.49464167316177" lon="9.136349904525472"><ele>135.0</ele><time>2026-04-12T08:23:39.962Z</time></trkpt><trkpt lat="45.494684458572124" lon="9.136526966592571"><ele>135.0</ele><time>2026-04-12T08:23:51.963Z</time></trkpt><trkpt lat="45.494835726809704" lon="9.13655207528195"><ele>135.0</ele><time>2026-04-12T08:23:55.963Z</time></trkpt><trkpt lat="45.494946580206715" lon="9.13668054721184"><ele>135.0</ele><time>2026-04-12T08:23:58.963Z</time></trkpt><trkpt lat="45.49501011098299" lon="9.136643849467935"><ele>135.0</ele><time>2026-04-12T08:24:02.963Z</time></trkpt><trkpt lat="45.49506413054553" lon="9.13673451926134"><ele>135.0</ele><time>2026-04-12T08:24:41.997Z</time></trkpt><trkpt lat="45.495113585712666" lon="9.136795446908692"><ele>135.0</ele><time>2026-04-12T08:24:43.998Z</time></trkpt><trkpt lat="45.495181075003316" lon="9.136779595108365"><ele>135.0</ele><time>2026-04-12T08:24:46.998Z</time></trkpt><trkpt lat="45.495238442354754" lon="9.136729873351161"><ele>135.0</ele><time>2026-04-12T08:24:49.999Z</time></trkpt><trkpt lat="45.495284611816125" lon="9.136655662543795"><ele>135.0</ele><time>2026-04-12T08:24:55Z</time></trkpt><trkpt lat="45.49534620757969" lon="9.136606696118386"><ele>135.0</ele><time>2026-04-12T08:25:18.002Z</time></trkpt><trkpt lat="45.49541728114882" lon="9.136602103130276"><ele>135.0</ele><time>2026-04-12T08:25:26.002Z</time></trkpt><trkpt lat="45.49546533829415" lon="9.136475863170654"><ele>135.0</ele><time>2026-04-12T08:25:28.002Z</time></trkpt><trkpt lat="45.49550499886671" lon="9.136343449520659"><ele>135.0</ele><time>2026-04-12T08:25:30.002Z</time></trkpt><trkpt lat="45.49553753498137" lon="9.136217148980524"><ele>135.0</ele><time>2026-04-12T08:25:32.002Z</time></trkpt><trkpt lat="45.49557968126494" lon="9.136085710087519"><ele>135.0</ele><time>2026-04-12T08:25:34.002Z</time></trkpt><trkpt lat="45.49563270716276" lon="9.135938020063861"><ele>135.0</ele><time>2026-04-12T08:25:36.002Z</time></trkpt><trkpt lat="45.49565825878191" lon="9.135852851653073"><ele>135.0</ele><time>2026-04-12T08:25:37.002Z</time></trkpt><trkpt lat="45.49568848510612" lon="9.135770442580126"><ele>135.0</ele><time>2026-04-12T08:25:38.002Z</time></trkpt><trkpt lat="45.49571318394854" lon="9.135684079223806"><ele>135.0</ele><time>2026-04-12T08:25:39.002Z</time></trkpt><trkpt lat="45.49574134151014" lon="9.135592505303721"><ele>135.0</ele><time>2026-04-12T08:25:40.002Z</time></trkpt><trkpt lat="45.495769167255304" lon="9.135506274948122"><ele>135.0</ele><time>2026-04-12T08:25:41.002Z</time></trkpt><trkpt lat="45.49579406960353" lon="9.135419999142956"><ele>135.0</ele><time>2026-04-12T08:25:42.002Z</time></trkpt><trkpt lat="45.49582097963789" lon="9.13533570764193"><ele>135.0</ele><time>2026-04-12T08:25:43.002Z</time></trkpt><trkpt lat="45.495848989191664" lon="9.135252096892618"><ele>135.0</ele><time>2026-04-12T08:25:44.002Z</time></trkpt><trkpt lat="45.49589437403146" lon="9.135107742900118"><ele>135.0</ele><time>2026-04-12T08:25:46.002Z</time></trkpt><trkpt lat="45.49593578875004" lon="9.134964467847025"><ele>135.14285714285714</ele><time>2026-04-12T08:25:48.002Z</time></trkpt><trkpt lat="45.49597091870048" lon="9.13486123860375"><ele>135.28571428571428</ele><time>2026-04-12T08:25:50.002Z</time></trkpt><trkpt lat="45.495999098579354" lon="9.134773973134012"><ele>135.42857142857142</ele><time>2026-04-12T08:25:52.003Z</time></trkpt><trkpt lat="45.49602983194755" lon="9.13468906420969"><ele>135.57142857142856</ele><time>2026-04-12T08:25:54.003Z</time></trkpt><trkpt lat="45.496052638860135" lon="9.134604381490126"><ele>135.71428571428572</ele><time>2026-04-12T08:25:56.003Z</time></trkpt><trkpt lat="45.49609361254753" lon="9.134490788028337"><ele>135.85714285714283</ele><time>2026-04-12T08:25:59.003Z</time></trkpt><trkpt lat="45.49612528031147" lon="9.134395331273947"><ele>136.0</ele><time>2026-04-12T08:26:02.003Z</time></trkpt><trkpt lat="45.49615151049284" lon="9.134297348679729"><ele>136.0</ele><time>2026-04-12T08:26:06.003Z</time></trkpt><trkpt lat="45.49620829140687" lon="9.134188323795682"><ele>136.0</ele><time>2026-04-12T08:26:10.003Z</time></trkpt><trkpt lat="45.49630416449678" lon="9.134159771163059"><ele>136.0</ele><time>2026-04-12T08:26:12.003Z</time></trkpt><trkpt lat="45.496399189728095" lon="9.134158652240192"><ele>136.0</ele><time>2026-04-12T08:26:14.003Z</time></trkpt><trkpt lat="45.49648440809647" lon="9.134148974108935"><ele>136.0</ele><time>2026-04-12T08:26:16.003Z</time></trkpt><trkpt lat="45.49653385049686" lon="9.134214422568641"><ele>136.0</ele><time>2026-04-12T08:26:18.003Z</time></trkpt><trkpt lat="45.49654715167244" lon="9.134332541785204"><ele>135.66666666666669</ele><time>2026-04-12T08:26:21.003Z</time></trkpt><trkpt lat="45.49655275548115" lon="9.13445198795946"><ele>135.33333333333334</ele><time>2026-04-12T08:26:23.002Z</time></trkpt><trkpt lat="45.496554287011996" lon="9.134552575446799"><ele>135.0</ele><time>2026-04-12T08:26:25.002Z</time></trkpt><trkpt lat="45.496589592944204" lon="9.134648441466263"><ele>134.66666666666666</ele><time>2026-04-12T08:26:27.002Z</time></trkpt><trkpt lat="45.49666361787877" lon="9.134705493139442"><ele>134.33333333333331</ele><time>2026-04-12T08:26:29.002Z</time></trkpt><trkpt lat="45.496767341751735" lon="9.134700632193104"><ele>134.0</ele><time>2026-04-12T08:26:31.002Z</time></trkpt><trkpt lat="45.49687729991001" lon="9.134723567430212"><ele>134.0</ele><time>2026-04-12T08:26:33.002Z</time></trkpt><trkpt lat="45.49698076919612" lon="9.1347310446309"><ele>134.0</ele><time>2026-04-12T08:26:35.002Z</time></trkpt><trkpt lat="45.497066616553305" lon="9.13474602742704"><ele>134.0</ele><time>2026-04-12T08:26:36.002Z</time></trkpt><trkpt lat="45.497137952779" lon="9.134750535389124"><ele>134.0</ele><time>2026-04-12T08:26:37.001Z</time></trkpt><trkpt lat="45.49720946877675" lon="9.13475892861232"><ele>134.0</ele><time>2026-04-12T08:26:38.001Z</time></trkpt><trkpt lat="45.49727278040966" lon="9.134769749863636"><ele>134.0</ele><time>2026-04-12T08:26:39.001Z</time></trkpt><trkpt lat="45.497368260587756" lon="9.1348010971433"><ele>134.2</ele><time>2026-04-12T08:26:41.001Z</time></trkpt><trkpt lat="45.497430763062006" lon="9.134815923500977"><ele>134.4</ele><time>2026-04-12T08:26:43.001Z</time></trkpt><trkpt lat="45.49744246916011" lon="9.134958803353639"><ele>134.6</ele><time>2026-04-12T08:27:08.001Z</time></trkpt><trkpt lat="45.497357505329234" lon="9.135099738394985"><ele>134.8</ele><time>2026-04-12T08:27:10.001Z</time></trkpt><trkpt lat="45.497319643684406" lon="9.135195627357454"><ele>135.0</ele><time>2026-04-12T08:27:11.001Z</time></trkpt><trkpt lat="45.4972768212782" lon="9.135294661356308"><ele>135.0</ele><time>2026-04-12T08:27:12.001Z</time></trkpt><trkpt lat="45.497230381594" lon="9.135399045378975"><ele>135.0</ele><time>2026-04-12T08:27:13.001Z</time></trkpt><trkpt lat="45.49717993870799" lon="9.135511902512754"><ele>135.0</ele><time>2026-04-12T08:27:14.001Z</time></trkpt><trkpt lat="45.49712427807373" lon="9.13562968429476"><ele>135.0</ele><time>2026-04-12T08:27:15.001Z</time></trkpt><trkpt lat="45.49707021918026" lon="9.135751483042709"><ele>135.0</ele><time>2026-04-12T08:27:16.001Z</time></trkpt><trkpt lat="45.497012921632184" lon="9.135884755851507"><ele>134.8</ele><time>2026-04-12T08:27:17.001Z</time></trkpt><trkpt lat="45.49695668180996" lon="9.136014578237988"><ele>134.6</ele><time>2026-04-12T08:27:18.001Z</time></trkpt><trkpt lat="45.49689842078783" lon="9.136143398912093"><ele>134.4</ele><time>2026-04-12T08:27:19.001Z</time></trkpt><trkpt lat="45.4968366605261" lon="9.13627763828888"><ele>134.2</ele><time>2026-04-12T08:27:20.001Z</time></trkpt><trkpt lat="45.496778654632855" lon="9.136407638902595"><ele>134.0</ele><time>2026-04-12T08:27:21.001Z</time></trkpt><trkpt lat="45.496723176216726" lon="9.136533405640288"><ele>133.8</ele><time>2026-04-12T08:27:22.001Z</time></trkpt><trkpt lat="45.496667760724435" lon="9.136656899277096"><ele>133.60000000000002</ele><time>2026-04-12T08:27:23.001Z</time></trkpt><trkpt lat="45.496611444499464" lon="9.136778830725667"><ele>133.4</ele><time>2026-04-12T08:27:24.001Z</time></trkpt><trkpt lat="45.49655571976853" lon="9.136897409728567"><ele>133.20000000000002</ele><time>2026-04-12T08:27:25.001Z</time></trkpt><trkpt lat="45.49650613541274" lon="9.137009576629836"><ele>133.0</ele><time>2026-04-12T08:27:26.001Z</time></trkpt><trkpt lat="45.49645335741202" lon="9.137108708849393"><ele>133.0</ele><time>2026-04-12T08:27:27.001Z</time></trkpt><trkpt lat="45.49639918355284" lon="9.137208767988708"><ele>133.0</ele><time>2026-04-12T08:27:28.001Z</time></trkpt><trkpt lat="45.49635177546558" lon="9.137312778111871"><ele>133.0</ele><time>2026-04-12T08:27:29.001Z</time></trkpt><trkpt lat="45.49630411338755" lon="9.137418946718045"><ele>133.0</ele><time>2026-04-12T08:27:30.001Z</time></trkpt><trkpt lat="45.49625869730523" lon="9.13751837840856"><ele>133.0</ele><time>2026-04-12T08:27:31.001Z</time></trkpt><trkpt lat="45.496218295546065" lon="9.137615309435736"><ele>133.0</ele><time>2026-04-12T08:27:32.001Z</time></trkpt><trkpt lat="45.49617756025597" lon="9.137706667454747"><ele>133.16666666666669</ele><time>2026-04-12T08:27:33.001Z</time></trkpt><trkpt lat="45.4961388934332" lon="9.137796922298373"><ele>133.33333333333334</ele><time>2026-04-12T08:27:34.001Z</time></trkpt><trkpt lat="45.49610484422843" lon="9.137896230460669"><ele>133.5</ele><time>2026-04-12T08:27:35.001Z</time></trkpt><trkpt lat="45.496062983273205" lon="9.13799860355472"><ele>133.66666666666666</ele><time>2026-04-12T08:27:36.001Z</time></trkpt><trkpt lat="45.496017079026004" lon="9.138103018958637"><ele>133.83333333333331</ele><time>2026-04-12T08:27:37.001Z</time></trkpt><trkpt lat="45.49596888061059" lon="9.138201726730893"><ele>134.0</ele><time>2026-04-12T08:27:38.001Z</time></trkpt><trkpt lat="45.49592223687502" lon="9.138297994251761"><ele>134.16666666666666</ele><time>2026-04-12T08:27:39.001Z</time></trkpt><trkpt lat="45.495875506732126" lon="9.138398409159894"><ele>134.33333333333331</ele><time>2026-04-12T08:27:40.001Z</time></trkpt><trkpt lat="45.49583433234975" lon="9.138495895215181"><ele>134.5</ele><time>2026-04-12T08:27:41.001Z</time></trkpt><trkpt lat="45.49579190795388" lon="9.13859214412457"><ele>134.66666666666666</ele><time>2026-04-12T08:27:42.001Z</time></trkpt><trkpt lat="45.49574650167272" lon="9.138681005514755"><ele>134.83333333333334</ele><time>2026-04-12T08:27:43.001Z</time></trkpt><trkpt lat="45.495707771771556" lon="9.138765428330936"><ele>135.0</ele><time>2026-04-12T08:27:44.001Z</time></trkpt><trkpt lat="45.49564980522978" lon="9.138894115908274"><ele>135.0</ele><time>2026-04-12T08:27:46.001Z</time></trkpt><trkpt lat="45.49561465301008" lon="9.138975341453172"><ele>135.0</ele><time>2026-04-12T08:27:48.001Z</time></trkpt><trkpt lat="45.49558156425087" lon="9.139067434737857"><ele>135.0</ele><time>2026-04-12T08:28:04.001Z</time></trkpt><trkpt lat="45.4955379070495" lon="9.13916684994689"><ele>135.0</ele><time>2026-04-12T08:28:09.001Z</time></trkpt><trkpt lat="45.49550478123252" lon="9.139243419539438"><ele>135.0</ele><time>2026-04-12T08:28:11.001Z</time></trkpt><trkpt lat="45.495443837165844" lon="9.13936542563519"><ele>135.0</ele><time>2026-04-12T08:28:13.001Z</time></trkpt><trkpt lat="45.49537974158731" lon="9.139498079932563"><ele>135.0</ele><time>2026-04-12T08:28:15.001Z</time></trkpt><trkpt lat="45.49535986470245" lon="9.139586903396822"><ele>135.0</ele><time>2026-04-12T08:28:17.001Z</time></trkpt><trkpt lat="45.49542236121636" lon="9.139660201578705"><ele>135.0</ele><time>2026-04-12T08:28:40.001Z</time></trkpt><trkpt lat="45.49549014981951" lon="9.13967867826396"><ele>135.0</ele><time>2026-04-12T08:28:42.001Z</time></trkpt><trkpt lat="45.49557104538399" lon="9.139672831937183"><ele>135.0</ele><time>2026-04-12T08:28:44.001Z</time></trkpt><trkpt lat="45.4956962397638" lon="9.139624902028654"><ele>135.0</ele><time>2026-04-12T08:28:47.001Z</time></trkpt><trkpt lat="45.495780575399806" lon="9.139609613863339"><ele>134.8</ele><time>2026-04-12T08:28:49.001Z</time></trkpt><trkpt lat="45.495869465306356" lon="9.139702617152174"><ele>134.6</ele><time>2026-04-12T08:28:54.001Z</time></trkpt><trkpt lat="45.49592895720423" lon="9.139846494257844"><ele>134.4</ele><time>2026-04-12T08:28:56.001Z</time></trkpt><trkpt lat="45.49597226167963" lon="9.139929415030764"><ele>134.2</ele><time>2026-04-12T08:28:57.001Z</time></trkpt><trkpt lat="45.49602687842681" lon="9.14001707273789"><ele>134.0</ele><time>2026-04-12T08:28:58.001Z</time></trkpt><trkpt lat="45.49609055594986" lon="9.140117216078515"><ele>134.0</ele><time>2026-04-12T08:28:59.001Z</time></trkpt><trkpt lat="45.496152010392734" lon="9.140226846826833"><ele>134.0</ele><time>2026-04-12T08:29:00.001Z</time></trkpt><trkpt lat="45.49621510637735" lon="9.140338859593982"><ele>134.0</ele><time>2026-04-12T08:29:01.001Z</time></trkpt><trkpt lat="45.49628375818128" lon="9.140458252515232"><ele>134.0</ele><time>2026-04-12T08:29:02.001Z</time></trkpt><trkpt lat="45.496356557264335" lon="9.140591612692592"><ele>134.0</ele><time>2026-04-12T08:29:03.001Z</time></trkpt><trkpt lat="45.4964361203127" lon="9.140723125918498"><ele>134.0</ele><time>2026-04-12T08:29:04.001Z</time></trkpt><trkpt lat="45.496510214271005" lon="9.140864442372076"><ele>134.0</ele><time>2026-04-12T08:29:05.001Z</time></trkpt><trkpt lat="45.496583243562995" lon="9.141004280548701"><ele>134.0</ele><time>2026-04-12T08:29:06.001Z</time></trkpt><trkpt lat="45.496652800981806" lon="9.141135094087463"><ele>134.0</ele><time>2026-04-12T08:29:07.001Z</time></trkpt><trkpt lat="45.49671777492192" lon="9.141264257155933"><ele>134.0</ele><time>2026-04-12T08:29:08.001Z</time></trkpt><trkpt lat="45.49678624006269" lon="9.141377300480919"><ele>134.0</ele><time>2026-04-12T08:29:09.001Z</time></trkpt><trkpt lat="45.496843224462864" lon="9.141501769584199"><ele>134.0</ele><time>2026-04-12T08:29:10.001Z</time></trkpt><trkpt lat="45.49690502997902" lon="9.141616514523141"><ele>134.0</ele><time>2026-04-12T08:29:11.001Z</time></trkpt><trkpt lat="45.49696308612687" lon="9.141733345250977"><ele>134.0</ele><time>2026-04-12T08:29:12.001Z</time></trkpt><trkpt lat="45.49702457245333" lon="9.141833837999917"><ele>134.0</ele><time>2026-04-12T08:29:13.001Z</time></trkpt><trkpt lat="45.497081169970755" lon="9.141927291410397"><ele>134.0</ele><time>2026-04-12T08:29:14.001Z</time></trkpt><trkpt lat="45.49712942766514" lon="9.142015515326696"><ele>134.0</ele><time>2026-04-12T08:29:15.001Z</time></trkpt><trkpt lat="45.497171619687" lon="9.142094192792259"><ele>134.0</ele><time>2026-04-12T08:29:16.001Z</time></trkpt><trkpt lat="45.497216705126135" lon="9.142188825413847"><ele>134.0</ele><time>2026-04-12T08:29:18.001Z</time></trkpt><trkpt lat="45.49733198479929" lon="9.142193066417803"><ele>134.0</ele><time>2026-04-12T08:29:25.001Z</time></trkpt><trkpt lat="45.497394001903345" lon="9.142161636476196"><ele>134.0</ele><time>2026-04-12T08:29:26.001Z</time></trkpt><trkpt lat="45.49746038650248" lon="9.142117504697596"><ele>134.0</ele><time>2026-04-12T08:29:27.001Z</time></trkpt><trkpt lat="45.49753048946013" lon="9.142066869116576"><ele>134.0</ele><time>2026-04-12T08:29:28.001Z</time></trkpt><trkpt lat="45.49760656869534" lon="9.142010226807491"><ele>134.0</ele><time>2026-04-12T08:29:29.001Z</time></trkpt><trkpt lat="45.49769451602396" lon="9.141945748711452"><ele>134.0</ele><time>2026-04-12T08:29:30.001Z</time></trkpt><trkpt lat="45.49779158850473" lon="9.14188020219164"><ele>134.0</ele><time>2026-04-12T08:29:31.001Z</time></trkpt><trkpt lat="45.49789215473744" lon="9.141810109345426"><ele>134.0</ele><time>2026-04-12T08:29:32.001Z</time></trkpt><trkpt lat="45.498000848084054" lon="9.141736105380605"><ele>134.0</ele><time>2026-04-12T08:29:33.001Z</time></trkpt><trkpt lat="45.49811523761423" lon="9.141656843867743"><ele>134.0</ele><time>2026-04-12T08:29:34.001Z</time></trkpt><trkpt lat="45.498229992645065" lon="9.141574161883636"><ele>134.0</ele><time>2026-04-12T08:29:35.001Z</time></trkpt><trkpt lat="45.498349320898434" lon="9.141493355825691"><ele>134.0</ele><time>2026-04-12T08:29:36.001Z</time></trkpt><trkpt lat="45.49846213737595" lon="9.141413623267901"><ele>134.0</ele><time>2026-04-12T08:29:37.001Z</time></trkpt><trkpt lat="45.49856826051476" lon="9.14134060644234"><ele>134.0</ele><time>2026-04-12T08:29:38.001Z</time></trkpt><trkpt lat="45.49866694959631" lon="9.141267682023496"><ele>134.0</ele><time>2026-04-12T08:29:39.001Z</time></trkpt><trkpt lat="45.49877019366891" lon="9.141200177342323"><ele>133.75</ele><time>2026-04-12T08:29:40.001Z</time></trkpt><trkpt lat="45.498871105261806" lon="9.141126884556156"><ele>133.5</ele><time>2026-04-12T08:29:41.001Z</time></trkpt><trkpt lat="45.49898171964107" lon="9.141048587893728"><ele>133.25</ele><time>2026-04-12T08:29:42.001Z</time></trkpt><trkpt lat="45.49909346502561" lon="9.140971717322293"><ele>133.0</ele><time>2026-04-12T08:29:43.001Z</time></trkpt><trkpt lat="45.499207105562014" lon="9.140891528179733"><ele>133.0</ele><time>2026-04-12T08:29:44.001Z</time></trkpt><trkpt lat="45.49932432969838" lon="9.140811313406797"><ele>133.0</ele><time>2026-04-12T08:29:45.001Z</time></trkpt><trkpt lat="45.4994471534191" lon="9.140724143474115"><ele>133.0</ele><time>2026-04-12T08:29:46.001Z</time></trkpt><trkpt lat="45.499567116310594" lon="9.14064339231187"><ele>133.0</ele><time>2026-04-12T08:29:47.001Z</time></trkpt><trkpt lat="45.49968612754014" lon="9.140558565395231"><ele>133.5</ele><time>2026-04-12T08:29:48.001Z</time></trkpt><trkpt lat="45.499808383850265" lon="9.140472931935898"><ele>134.0</ele><time>2026-04-12T08:29:49.001Z</time></trkpt><trkpt lat="45.49991630642002" lon="9.140396050794553"><ele>134.5</ele><time>2026-04-12T08:29:50.001Z</time></trkpt><trkpt lat="45.5000186343065" lon="9.140325237089153"><ele>135.0</ele><time>2026-04-12T08:29:51.001Z</time></trkpt><trkpt lat="45.50011994925584" lon="9.14025371244368"><ele>135.0</ele><time>2026-04-12T08:29:52.001Z</time></trkpt><trkpt lat="45.500215401551856" lon="9.140188042387155"><ele>135.0</ele><time>2026-04-12T08:29:53.001Z</time></trkpt><trkpt lat="45.50029492433869" lon="9.140133150992327"><ele>135.0</ele><time>2026-04-12T08:29:54.001Z</time></trkpt><trkpt lat="45.500360882972615" lon="9.140092751624225"><ele>135.0</ele><time>2026-04-12T08:29:55.001Z</time></trkpt><trkpt lat="45.500469602037256" lon="9.140068402513442"><ele>135.0</ele><time>2026-04-12T08:29:57.001Z</time></trkpt><trkpt lat="45.50055897792737" lon="9.140102449956721"><ele>134.66666666666666</ele><time>2026-04-12T08:29:59.001Z</time></trkpt><trkpt lat="45.50062230898504" lon="9.14014490158443"><ele>134.33333333333334</ele><time>2026-04-12T08:30:01.001Z</time></trkpt><trkpt lat="45.50070591046611" lon="9.14012842704127"><ele>134.0</ele><time>2026-04-12T08:30:21.001Z</time></trkpt><trkpt lat="45.500795546963786" lon="9.140095207069104"><ele>133.66666666666669</ele><time>2026-04-12T08:30:23.001Z</time></trkpt><trkpt lat="45.50083428223633" lon="9.140020587364422"><ele>133.33333333333334</ele><time>2026-04-12T08:30:24.001Z</time></trkpt><trkpt lat="45.500875475609185" lon="9.139913335127117"><ele>133.0</ele><time>2026-04-12T08:30:26.001Z</time></trkpt><trkpt lat="45.50088226018029" lon="9.139761919988379"><ele>132.75</ele><time>2026-04-12T08:30:29.001Z</time></trkpt><trkpt lat="45.500865127426" lon="9.139651900889628"><ele>132.5</ele><time>2026-04-12T08:30:31.001Z</time></trkpt><trkpt lat="45.50107944705953" lon="9.139575208002848"><ele>132.25</ele><time>2026-04-12T08:30:32.001Z</time></trkpt><trkpt lat="45.501176095736255" lon="9.139513324235036"><ele>132.0</ele><time>2026-04-12T08:30:33.001Z</time></trkpt><trkpt lat="45.501276362875906" lon="9.139441927202778"><ele>132.0</ele><time>2026-04-12T08:30:34.001Z</time></trkpt><trkpt lat="45.50137949772127" lon="9.139367915324177"><ele>132.0</ele><time>2026-04-12T08:30:35.001Z</time></trkpt><trkpt lat="45.50148606514687" lon="9.13929330905065"><ele>132.0</ele><time>2026-04-12T08:30:36.001Z</time></trkpt><trkpt lat="45.50158150369395" lon="9.13922652319768"><ele>132.0</ele><time>2026-04-12T08:30:37.001Z</time></trkpt><trkpt lat="45.501673361693825" lon="9.139165325365596"><ele>132.0</ele><time>2026-04-12T08:30:38.001Z</time></trkpt><trkpt lat="45.501757896683095" lon="9.139109779283777"><ele>132.0</ele><time>2026-04-12T08:30:39.001Z</time></trkpt><trkpt lat="45.5018303020473" lon="9.139064207174846"><ele>132.0</ele><time>2026-04-12T08:30:40.001Z</time></trkpt><trkpt lat="45.50189085868482" lon="9.139019814547115"><ele>132.0</ele><time>2026-04-12T08:30:41.001Z</time></trkpt><trkpt lat="45.50195449011544" lon="9.13897557279234"><ele>132.0</ele><time>2026-04-12T08:30:42.001Z</time></trkpt><trkpt lat="45.502019314383745" lon="9.13893016696251"><ele>132.0</ele><time>2026-04-12T08:30:43.001Z</time></trkpt><trkpt lat="45.50208427718029" lon="9.13888944405758"><ele>132.0</ele><time>2026-04-12T08:30:44.001Z</time></trkpt><trkpt lat="45.502142070152544" lon="9.138851378777867"><ele>132.0</ele><time>2026-04-12T08:30:45.001Z</time></trkpt><trkpt lat="45.502258249453796" lon="9.138774110033964"><ele>132.0</ele><time>2026-04-12T08:30:47.001Z</time></trkpt><trkpt lat="45.50236687584337" lon="9.138686297011574"><ele>132.0</ele><time>2026-04-12T08:30:49.001Z</time></trkpt><trkpt lat="45.50251731600527" lon="9.138799501512908"><ele>132.0</ele><time>2026-04-12T08:30:51.001Z</time></trkpt><trkpt lat="45.50259379562544" lon="9.13883608122695"><ele>132.0</ele><time>2026-04-12T08:30:52.001Z</time></trkpt><trkpt lat="45.50267568737999" lon="9.138901860348884"><ele>132.0</ele><time>2026-04-12T08:30:53.001Z</time></trkpt><trkpt lat="45.50279640120296" lon="9.138997232648064"><ele>132.0</ele><time>2026-04-12T08:30:55.001Z</time></trkpt><trkpt lat="45.502892176386695" lon="9.1390714819468"><ele>132.0</ele><time>2026-04-12T08:30:57.001Z</time></trkpt><trkpt lat="45.502997163413646" lon="9.139131021083303"><ele>132.0</ele><time>2026-04-12T08:31:44.001Z</time></trkpt><trkpt lat="45.50304613461073" lon="9.139188327713294"><ele>132.0</ele><time>2026-04-12T08:31:45.001Z</time></trkpt><trkpt lat="45.50313638520406" lon="9.139250319171282"><ele>132.75</ele><time>2026-04-12T08:31:46.001Z</time></trkpt><trkpt lat="45.503254621786205" lon="9.139301618772677"><ele>133.5</ele><time>2026-04-12T08:31:47.001Z</time></trkpt><trkpt lat="45.50338114018657" lon="9.13938894636351"><ele>134.25</ele><time>2026-04-12T08:31:48.001Z</time></trkpt><trkpt lat="45.50353345884496" lon="9.139450212348352"><ele>135.0</ele><time>2026-04-12T08:31:49.001Z</time></trkpt><trkpt lat="45.50368540859007" lon="9.13951579759036"><ele>134.66666666666666</ele><time>2026-04-12T08:31:50.001Z</time></trkpt><trkpt lat="45.5038392358668" lon="9.139582894066981"><ele>134.33333333333331</ele><time>2026-04-12T08:31:51.001Z</time></trkpt><trkpt lat="45.50399036825177" lon="9.139644328620658"><ele>134.0</ele><time>2026-04-12T08:31:52.001Z</time></trkpt><trkpt lat="45.504133563639456" lon="9.139706111401814"><ele>134.0</ele><time>2026-04-12T08:31:53.001Z</time></trkpt><trkpt lat="45.50427071280588" lon="9.13976510847069"><ele>134.0</ele><time>2026-04-12T08:31:54.001Z</time></trkpt><trkpt lat="45.50438020320321" lon="9.13982714749772"><ele>134.0</ele><time>2026-04-12T08:31:55.001Z</time></trkpt><trkpt lat="45.50446459679664" lon="9.139908513880767"><ele>134.0</ele><time>2026-04-12T08:31:56.001Z</time></trkpt><trkpt lat="45.504526251907684" lon="9.140011100680566"><ele>134.66666666666666</ele><time>2026-04-12T08:31:57.001Z</time></trkpt><trkpt lat="45.50458006776715" lon="9.140121480573999"><ele>135.33333333333331</ele><time>2026-04-12T08:31:58.001Z</time></trkpt><trkpt lat="45.50462607065229" lon="9.140229363523733"><ele>136.0</ele><time>2026-04-12T08:31:59.001Z</time></trkpt><trkpt lat="45.50466272983357" lon="9.140316466457287"><ele>136.66666666666666</ele><time>2026-04-12T08:32:00.001Z</time></trkpt><trkpt lat="45.50472398239087" lon="9.140404812444274"><ele>137.33333333333334</ele><time>2026-04-12T08:32:16.001Z</time></trkpt><trkpt lat="45.504771187405986" lon="9.140466411526134"><ele>138.0</ele><time>2026-04-12T08:32:17.001Z</time></trkpt><trkpt lat="45.50484603672858" lon="9.14050328538147"><ele>138.0</ele><time>2026-04-12T08:32:18.001Z</time></trkpt><trkpt lat="45.50492155754338" lon="9.140574499630493"><ele>138.0</ele><time>2026-04-12T08:32:19.001Z</time></trkpt><trkpt lat="45.50501232430048" lon="9.140606420075118"><ele>138.0</ele><time>2026-04-12T08:32:20.001Z</time></trkpt><trkpt lat="45.50510999277344" lon="9.14062781749732"><ele>138.0</ele><time>2026-04-12T08:32:21.001Z</time></trkpt><trkpt lat="45.505238834855305" lon="9.140642060733349"><ele>138.0</ele><time>2026-04-12T08:32:22.001Z</time></trkpt><trkpt lat="45.50536174212751" lon="9.140645668635678"><ele>137.75</ele><time>2026-04-12T08:32:23.001Z</time></trkpt><trkpt lat="45.50548964492469" lon="9.140650705825957"><ele>137.5</ele><time>2026-04-12T08:32:24.001Z</time></trkpt><trkpt lat="45.505622574025466" lon="9.14066123095297"><ele>137.25</ele><time>2026-04-12T08:32:25.001Z</time></trkpt><trkpt lat="45.5057478255229" lon="9.14068013945384"><ele>137.0</ele><time>2026-04-12T08:32:26.001Z</time></trkpt><trkpt lat="45.50588291499874" lon="9.140689171084524"><ele>137.0</ele><time>2026-04-12T08:32:27.001Z</time></trkpt><trkpt lat="45.50601843657117" lon="9.14070180563782"><ele>137.0</ele><time>2026-04-12T08:32:28.001Z</time></trkpt><trkpt lat="45.50615579188498" lon="9.140706716260114"><ele>137.0</ele><time>2026-04-12T08:32:29.001Z</time></trkpt><trkpt lat="45.50629859858961" lon="9.14069906488841"><ele>137.0</ele><time>2026-04-12T08:32:30.001Z</time></trkpt><trkpt lat="45.50644077182583" lon="9.140668521881947"><ele>137.0</ele><time>2026-04-12T08:32:31.001Z</time></trkpt><trkpt lat="45.50657480234807" lon="9.140579941179425"><ele>137.0</ele><time>2026-04-12T08:32:32.001Z</time></trkpt><trkpt lat="45.50671111969104" lon="9.140486320432691"><ele>137.0</ele><time>2026-04-12T08:32:33.001Z</time></trkpt><trkpt lat="45.50684372618481" lon="9.14038965262131"><ele>137.0</ele><time>2026-04-12T08:32:34.001Z</time></trkpt><trkpt lat="45.50695643366587" lon="9.140231921255113"><ele>137.0</ele><time>2026-04-12T08:32:35.001Z</time></trkpt><trkpt lat="45.50705323346159" lon="9.140056049597655"><ele>137.0</ele><time>2026-04-12T08:32:36.001Z</time></trkpt><trkpt lat="45.50714096627966" lon="9.139865689176748"><ele>137.0</ele><time>2026-04-12T08:32:37.001Z</time></trkpt><trkpt lat="45.507220905104596" lon="9.139662438607514"><ele>136.66666666666666</ele><time>2026-04-12T08:32:38.001Z</time></trkpt><trkpt lat="45.50729754157848" lon="9.139462211214607"><ele>136.33333333333334</ele><time>2026-04-12T08:32:39.001Z</time></trkpt><trkpt lat="45.507375856607815" lon="9.139269303896794"><ele>136.0</ele><time>2026-04-12T08:32:40.001Z</time></trkpt><trkpt lat="45.50745431048626" lon="9.13908472283692"><ele>135.5</ele><time>2026-04-12T08:32:41.001Z</time></trkpt><trkpt lat="45.507528953747304" lon="9.138908510026592"><ele>135.0</ele><time>2026-04-12T08:32:42.001Z</time></trkpt><trkpt lat="45.50759627118901" lon="9.13873271587832"><ele>134.5</ele><time>2026-04-12T08:32:43.001Z</time></trkpt><trkpt lat="45.50765619808449" lon="9.138560604286006"><ele>134.0</ele><time>2026-04-12T08:32:44.001Z</time></trkpt><trkpt lat="45.50770630214124" lon="9.13841716165552"><ele>134.0</ele><time>2026-04-12T08:32:45.001Z</time></trkpt><trkpt lat="45.507746880678035" lon="9.138319861678433"><ele>134.0</ele><time>2026-04-12T08:32:46.001Z</time></trkpt><trkpt lat="45.507845573409405" lon="9.138255370459358"><ele>134.0</ele><time>2026-04-12T08:32:48.001Z</time></trkpt><trkpt lat="45.50796668072297" lon="9.138321295656059"><ele>134.0</ele><time>2026-04-12T08:32:50.001Z</time></trkpt><trkpt lat="45.5080323397823" lon="9.138372640849651"><ele>134.0</ele><time>2026-04-12T08:32:51.001Z</time></trkpt><trkpt lat="45.508107646587135" lon="9.138399203244111"><ele>134.4</ele><time>2026-04-12T08:32:52.001Z</time></trkpt><trkpt lat="45.50819883900733" lon="9.138387410887338"><ele>134.8</ele><time>2026-04-12T08:32:53.001Z</time></trkpt><trkpt lat="45.5082948197189" lon="9.138339443737792"><ele>135.2</ele><time>2026-04-12T08:32:54.001Z</time></trkpt><trkpt lat="45.50839448861647" lon="9.138285734689843"><ele>135.6</ele><time>2026-04-12T08:32:55.001Z</time></trkpt><trkpt lat="45.50850422131908" lon="9.13824564395206"><ele>136.0</ele><time>2026-04-12T08:32:56.001Z</time></trkpt><trkpt lat="45.5086277682112" lon="9.138205580322198"><ele>136.33333333333334</ele><time>2026-04-12T08:32:57.001Z</time></trkpt><trkpt lat="45.508783709923385" lon="9.138159023151394"><ele>136.66666666666666</ele><time>2026-04-12T08:32:58.001Z</time></trkpt><trkpt lat="45.50895595821015" lon="9.13810390329336"><ele>137.0</ele><time>2026-04-12T08:32:59.001Z</time></trkpt><trkpt lat="45.5091382445156" lon="9.138052024227022"><ele>137.0</ele><time>2026-04-12T08:33:00.001Z</time></trkpt><trkpt lat="45.50931311657803" lon="9.138001814126353"><ele>137.0</ele><time>2026-04-12T08:33:01Z</time></trkpt><trkpt lat="45.50947821941945" lon="9.137956603019399"><ele>137.0</ele><time>2026-04-12T08:33:02Z</time></trkpt><trkpt lat="45.50963547262626" lon="9.13791406765227"><ele>137.25</ele><time>2026-04-12T08:33:03Z</time></trkpt><trkpt lat="45.50978477352395" lon="9.137882338871316"><ele>137.5</ele><time>2026-04-12T08:33:04Z</time></trkpt><trkpt lat="45.509929976872094" lon="9.137851194242597"><ele>137.75</ele><time>2026-04-12T08:33:05Z</time></trkpt><trkpt lat="45.510066616006775" lon="9.13782611188288"><ele>138.0</ele><time>2026-04-12T08:33:06Z</time></trkpt><trkpt lat="45.510193083580326" lon="9.137802841204993"><ele>138.0</ele><time>2026-04-12T08:33:07Z</time></trkpt><trkpt lat="45.510302210558486" lon="9.137782970003656"><ele>138.0</ele><time>2026-04-12T08:33:08Z</time></trkpt><trkpt lat="45.510394103068954" lon="9.137764004661914"><ele>138.0</ele><time>2026-04-12T08:33:09Z</time></trkpt><trkpt lat="45.51048469941904" lon="9.137743780125831"><ele>138.0</ele><time>2026-04-12T08:33:10Z</time></trkpt><trkpt lat="45.51057107054915" lon="9.13772242806459"><ele>138.0</ele><time>2026-04-12T08:33:11Z</time></trkpt><trkpt lat="45.5106584257709" lon="9.137699775903034"><ele>137.4</ele><time>2026-04-12T08:33:12Z</time></trkpt><trkpt lat="45.51074540239226" lon="9.137669858827"><ele>136.8</ele><time>2026-04-12T08:33:13Z</time></trkpt><trkpt lat="45.51083479346912" lon="9.137638246920233"><ele>136.2</ele><time>2026-04-12T08:33:14Z</time></trkpt><trkpt lat="45.51092500390128" lon="9.137612942861352"><ele>135.6</ele><time>2026-04-12T08:33:15Z</time></trkpt><trkpt lat="45.511012653402354" lon="9.137589860908049"><ele>135.0</ele><time>2026-04-12T08:33:16Z</time></trkpt><trkpt lat="45.511100500531725" lon="9.137565932872969"><ele>135.0</ele><time>2026-04-12T08:33:17Z</time></trkpt><trkpt lat="45.51118619285297" lon="9.137542377672634"><ele>135.0</ele><time>2026-04-12T08:33:18Z</time></trkpt><trkpt lat="45.51127082133164" lon="9.137518802614807"><ele>135.0</ele><time>2026-04-12T08:33:19Z</time></trkpt><trkpt lat="45.51135230762222" lon="9.13749073671199"><ele>135.0</ele><time>2026-04-12T08:33:20Z</time></trkpt><trkpt lat="45.51142266561752" lon="9.137455149802765"><ele>135.0</ele><time>2026-04-12T08:33:21Z</time></trkpt><trkpt lat="45.51148571577801" lon="9.137412465261182"><ele>135.0</ele><time>2026-04-12T08:33:22Z</time></trkpt><trkpt lat="45.51154459348596" lon="9.137369150030274"><ele>135.2</ele><time>2026-04-12T08:33:23Z</time></trkpt><trkpt lat="45.511652083134486" lon="9.13729762568489"><ele>135.4</ele><time>2026-04-12T08:33:25Z</time></trkpt><trkpt lat="45.511746532940684" lon="9.137270037450838"><ele>135.6</ele><time>2026-04-12T08:33:27Z</time></trkpt><trkpt lat="45.51181406494785" lon="9.137270822805133"><ele>135.8</ele><time>2026-04-12T08:33:30Z</time></trkpt><trkpt lat="45.51190513675478" lon="9.137190661617993"><ele>136.0</ele><time>2026-04-12T08:34:10Z</time></trkpt><trkpt lat="45.51203620257577" lon="9.137142360221377"><ele>136.4</ele><time>2026-04-12T08:34:12Z</time></trkpt><trkpt lat="45.51211682099474" lon="9.137114362504134"><ele>136.8</ele><time>2026-04-12T08:34:13Z</time></trkpt><trkpt lat="45.512201071838795" lon="9.137084706635283"><ele>137.20000000000002</ele><time>2026-04-12T08:34:14Z</time></trkpt><trkpt lat="45.512288392187834" lon="9.13705211355684"><ele>137.6</ele><time>2026-04-12T08:34:15Z</time></trkpt><trkpt lat="45.5123875940817" lon="9.137016149394611"><ele>138.0</ele><time>2026-04-12T08:34:16Z</time></trkpt><trkpt lat="45.51249323736419" lon="9.136974641815694"><ele>138.0</ele><time>2026-04-12T08:34:17Z</time></trkpt><trkpt lat="45.512606137890096" lon="9.136928591564944"><ele>138.0</ele><time>2026-04-12T08:34:18Z</time></trkpt><trkpt lat="45.51272525462868" lon="9.136885105370245"><ele>138.0</ele><time>2026-04-12T08:34:19Z</time></trkpt><trkpt lat="45.512852540189925" lon="9.136846290278813"><ele>138.0</ele><time>2026-04-12T08:34:20Z</time></trkpt><trkpt lat="45.5129814971647" lon="9.136809415575899"><ele>139.25</ele><time>2026-04-12T08:34:21Z</time></trkpt><trkpt lat="45.51310914089432" lon="9.136770319175929"><ele>140.5</ele><time>2026-04-12T08:34:22Z</time></trkpt><trkpt lat="45.513242028173345" lon="9.136736123820976"><ele>141.75</ele><time>2026-04-12T08:34:23Z</time></trkpt><trkpt lat="45.513370269800625" lon="9.136702968731836"><ele>143.0</ele><time>2026-04-12T08:34:24Z</time></trkpt><trkpt lat="45.513486731149705" lon="9.136674416607235"><ele>143.0</ele><time>2026-04-12T08:34:25Z</time></trkpt><trkpt lat="45.51359903325789" lon="9.136643583063812"><ele>143.0</ele><time>2026-04-12T08:34:26Z</time></trkpt><trkpt lat="45.51370388330939" lon="9.136617303375491"><ele>143.0</ele><time>2026-04-12T08:34:27Z</time></trkpt><trkpt lat="45.51380170530391" lon="9.136592212904892"><ele>143.0</ele><time>2026-04-12T08:34:28Z</time></trkpt><trkpt lat="45.513888722394455" lon="9.136567235781898"><ele>143.0</ele><time>2026-04-12T08:34:29Z</time></trkpt><trkpt lat="45.51396058239775" lon="9.136549748011038"><ele>142.33333333333331</ele><time>2026-04-12T08:34:30Z</time></trkpt><trkpt lat="45.51406066405513" lon="9.136529946100708"><ele>141.66666666666666</ele><time>2026-04-12T08:34:32Z</time></trkpt><trkpt lat="45.51412489717725" lon="9.136522896035942"><ele>141.0</ele><time>2026-04-12T08:34:35Z</time></trkpt><trkpt lat="45.5142203074096" lon="9.1365180806121"><ele>140.33333333333334</ele><time>2026-04-12T08:35:30Z</time></trkpt><trkpt lat="45.51429468722944" lon="9.136496254802584"><ele>139.66666666666669</ele><time>2026-04-12T08:35:31Z</time></trkpt><trkpt lat="45.514385336788564" lon="9.13646289995562"><ele>139.0</ele><time>2026-04-12T08:35:32Z</time></trkpt><trkpt lat="45.51448835287267" lon="9.136423989025912"><ele>138.5</ele><time>2026-04-12T08:35:33Z</time></trkpt><trkpt lat="45.514600460303676" lon="9.136388042655547"><ele>138.0</ele><time>2026-04-12T08:35:34Z</time></trkpt><trkpt lat="45.51472879391714" lon="9.136355554321767"><ele>137.5</ele><time>2026-04-12T08:35:35Z</time></trkpt><trkpt lat="45.51487233470304" lon="9.136315007055128"><ele>137.0</ele><time>2026-04-12T08:35:36Z</time></trkpt><trkpt lat="45.51502162426522" lon="9.136275624408182"><ele>137.0</ele><time>2026-04-12T08:35:37Z</time></trkpt><trkpt lat="45.51516889765694" lon="9.13623384139966"><ele>137.0</ele><time>2026-04-12T08:35:38Z</time></trkpt><trkpt lat="45.51532399571495" lon="9.13619117835405"><ele>137.0</ele><time>2026-04-12T08:35:39Z</time></trkpt><trkpt lat="45.51548220773918" lon="9.136149186743356"><ele>137.66666666666666</ele><time>2026-04-12T08:35:40Z</time></trkpt><trkpt lat="45.515640588223405" lon="9.136105666354439"><ele>138.33333333333334</ele><time>2026-04-12T08:35:41Z</time></trkpt><trkpt lat="45.515803560704605" lon="9.13606350295694"><ele>139.0</ele><time>2026-04-12T08:35:42Z</time></trkpt><trkpt lat="45.51596636627561" lon="9.136017648495322"><ele>139.0</ele><time>2026-04-12T08:35:43Z</time></trkpt><trkpt lat="45.51613016039647" lon="9.135973698540877"><ele>139.0</ele><time>2026-04-12T08:35:44Z</time></trkpt><trkpt lat="45.51628805010386" lon="9.135931677439423"><ele>139.0</ele><time>2026-04-12T08:35:45Z</time></trkpt><trkpt lat="45.51644469780333" lon="9.135892255076495"><ele>139.25</ele><time>2026-04-12T08:35:46Z</time></trkpt><trkpt lat="45.51659052956888" lon="9.135855693581101"><ele>139.5</ele><time>2026-04-12T08:35:47Z</time></trkpt><trkpt lat="45.51672996701954" lon="9.135821287547778"><ele>139.75</ele><time>2026-04-12T08:35:48Z</time></trkpt><trkpt lat="45.516857509511105" lon="9.135783612533691"><ele>140.0</ele><time>2026-04-12T08:35:49Z</time></trkpt><trkpt lat="45.51698210249117" lon="9.135744615098664"><ele>140.75</ele><time>2026-04-12T08:35:50Z</time></trkpt><trkpt lat="45.51709775787068" lon="9.135712408872102"><ele>141.5</ele><time>2026-04-12T08:35:51Z</time></trkpt><trkpt lat="45.51721381103879" lon="9.135681450209578"><ele>142.25</ele><time>2026-04-12T08:35:52Z</time></trkpt><trkpt lat="45.51733008366548" lon="9.135650948265472"><ele>143.0</ele><time>2026-04-12T08:35:53Z</time></trkpt><trkpt lat="45.51744528602566" lon="9.135620469748147"><ele>143.0</ele><time>2026-04-12T08:35:54Z</time></trkpt><trkpt lat="45.51755760794638" lon="9.135586619372232"><ele>143.0</ele><time>2026-04-12T08:35:55Z</time></trkpt><trkpt lat="45.51766935554048" lon="9.135557990293519"><ele>143.0</ele><time>2026-04-12T08:35:56Z</time></trkpt><trkpt lat="45.517775520037944" lon="9.135531675277115"><ele>143.0</ele><time>2026-04-12T08:35:57Z</time></trkpt><trkpt lat="45.51787440023337" lon="9.135507997516518"><ele>143.0</ele><time>2026-04-12T08:35:58Z</time></trkpt><trkpt lat="45.51797036235047" lon="9.135489035582532"><ele>143.0</ele><time>2026-04-12T08:35:59Z</time></trkpt><trkpt lat="45.518060015578406" lon="9.135469302844964"><ele>143.0</ele><time>2026-04-12T08:36:00Z</time></trkpt><trkpt lat="45.518141064320936" lon="9.13544688912066"><ele>143.0</ele><time>2026-04-12T08:36:01Z</time></trkpt><trkpt lat="45.51821766767374" lon="9.135423370913855"><ele>143.0</ele><time>2026-04-12T08:36:02Z</time></trkpt><trkpt lat="45.51829147865992" lon="9.135410929600383"><ele>143.0</ele><time>2026-04-12T08:36:03Z</time></trkpt><trkpt lat="45.51836355573994" lon="9.13539944176624"><ele>143.0</ele><time>2026-04-12T08:36:04Z</time></trkpt><trkpt lat="45.51842799649618" lon="9.135393075779612"><ele>143.0</ele><time>2026-04-12T08:36:05Z</time></trkpt><trkpt lat="45.51853604673982" lon="9.135417721071565"><ele>143.0</ele><time>2026-04-12T08:36:07Z</time></trkpt><trkpt lat="45.51858515539755" lon="9.135580983301105"><ele>143.0</ele><time>2026-04-12T08:36:09Z</time></trkpt><trkpt lat="45.51859061675692" lon="9.135671719010594"><ele>143.0</ele><time>2026-04-12T08:36:10Z</time></trkpt><trkpt lat="45.51860310831907" lon="9.135770272477117"><ele>143.0</ele><time>2026-04-12T08:36:11Z</time></trkpt><trkpt lat="45.51862133000735" lon="9.135870362727822"><ele>143.0</ele><time>2026-04-12T08:36:12Z</time></trkpt><trkpt lat="45.51863795434635" lon="9.135991320442317"><ele>142.8</ele><time>2026-04-12T08:36:13Z</time></trkpt><trkpt lat="45.51865035290445" lon="9.13612883680288"><ele>142.60000000000002</ele><time>2026-04-12T08:36:14Z</time></trkpt><trkpt lat="45.51867362103224" lon="9.13627585570311"><ele>142.39999999999998</ele><time>2026-04-12T08:36:15Z</time></trkpt><trkpt lat="45.51870172978934" lon="9.136432779992363"><ele>142.2</ele><time>2026-04-12T08:36:16Z</time></trkpt><trkpt lat="45.51872700720477" lon="9.136600121620821"><ele>142.0</ele><time>2026-04-12T08:36:17Z</time></trkpt><trkpt lat="45.51875008288092" lon="9.136773385083046"><ele>142.0</ele><time>2026-04-12T08:36:18Z</time></trkpt><trkpt lat="45.51877624135103" lon="9.136951764672697"><ele>142.0</ele><time>2026-04-12T08:36:19Z</time></trkpt><trkpt lat="45.518800516467834" lon="9.137130793581253"><ele>142.0</ele><time>2026-04-12T08:36:20Z</time></trkpt><trkpt lat="45.518817957358195" lon="9.137310218391528"><ele>142.0</ele><time>2026-04-12T08:36:21Z</time></trkpt><trkpt lat="45.51883660258693" lon="9.137481067200637"><ele>142.0</ele><time>2026-04-12T08:36:22Z</time></trkpt><trkpt lat="45.51885294029888" lon="9.137646072541255"><ele>142.0</ele><time>2026-04-12T08:36:23Z</time></trkpt><trkpt lat="45.51886942906261" lon="9.13779852091548"><ele>142.0</ele><time>2026-04-12T08:36:24Z</time></trkpt><trkpt lat="45.51888238467448" lon="9.137945109528028"><ele>142.0</ele><time>2026-04-12T08:36:25Z</time></trkpt><trkpt lat="45.51890194644332" lon="9.13808774896767"><ele>142.0</ele><time>2026-04-12T08:36:26Z</time></trkpt><trkpt lat="45.51892436252661" lon="9.138231560263941"><ele>141.79999999999998</ele><time>2026-04-12T08:36:27Z</time></trkpt><trkpt lat="45.51894801288061" lon="9.138384766816351"><ele>141.6</ele><time>2026-04-12T08:36:28Z</time></trkpt><trkpt lat="45.518970873086076" lon="9.138538769514566"><ele>141.39999999999998</ele><time>2026-04-12T08:36:29Z</time></trkpt><trkpt lat="45.51899270037511" lon="9.138696847734229"><ele>141.2</ele><time>2026-04-12T08:36:30Z</time></trkpt><trkpt lat="45.51901137102835" lon="9.138860351021364"><ele>141.0</ele><time>2026-04-12T08:36:31Z</time></trkpt><trkpt lat="45.51902953591061" lon="9.13902050310799"><ele>141.6</ele><time>2026-04-12T08:36:32Z</time></trkpt><trkpt lat="45.51905259593073" lon="9.139170863410792"><ele>142.2</ele><time>2026-04-12T08:36:33Z</time></trkpt><trkpt lat="45.51907017148212" lon="9.13931217404897"><ele>142.8</ele><time>2026-04-12T08:36:34Z</time></trkpt><trkpt lat="45.51908548533311" lon="9.13944603969977"><ele>143.4</ele><time>2026-04-12T08:36:35Z</time></trkpt><trkpt lat="45.51909931481662" lon="9.13956844176556"><ele>144.0</ele><time>2026-04-12T08:36:36Z</time></trkpt><trkpt lat="45.519111273084754" lon="9.139678670339912"><ele>144.0</ele><time>2026-04-12T08:36:37Z</time></trkpt><trkpt lat="45.519120993615154" lon="9.139783379980132"><ele>144.0</ele><time>2026-04-12T08:36:38Z</time></trkpt><trkpt lat="45.51913950043914" lon="9.13992874876588"><ele>144.0</ele><time>2026-04-12T08:36:40Z</time></trkpt><trkpt lat="45.5191515277661" lon="9.140030459313571"><ele>144.0</ele><time>2026-04-12T08:37:00Z</time></trkpt><trkpt lat="45.51917964634727" lon="9.140222418280574"><ele>144.0</ele><time>2026-04-12T08:37:02Z</time></trkpt><trkpt lat="45.519198157642556" lon="9.140342606667504"><ele>144.0</ele><time>2026-04-12T08:37:03Z</time></trkpt><trkpt lat="45.51921793833485" lon="9.140482095377743"><ele>144.0</ele><time>2026-04-12T08:37:04Z</time></trkpt><trkpt lat="45.51923826668553" lon="9.140634243397955"><ele>144.0</ele><time>2026-04-12T08:37:05Z</time></trkpt><trkpt lat="45.519259764460884" lon="9.140787986067771"><ele>144.0</ele><time>2026-04-12T08:37:06Z</time></trkpt><trkpt lat="45.519282233538014" lon="9.140957300528543"><ele>144.0</ele><time>2026-04-12T08:37:07Z</time></trkpt><trkpt lat="45.519304380895825" lon="9.14113166078683"><ele>144.0</ele><time>2026-04-12T08:37:08Z</time></trkpt><trkpt lat="45.5193266592963" lon="9.141301003431023"><ele>144.0</ele><time>2026-04-12T08:37:09Z</time></trkpt><trkpt lat="45.519351381861725" lon="9.141467782681712"><ele>144.0</ele><time>2026-04-12T08:37:10Z</time></trkpt><trkpt lat="45.51937524139727" lon="9.141638963683835"><ele>144.0</ele><time>2026-04-12T08:37:11Z</time></trkpt><trkpt lat="45.51939596651657" lon="9.14180952891172"><ele>143.5</ele><time>2026-04-12T08:37:12Z</time></trkpt><trkpt lat="45.51941407412716" lon="9.141986485019403"><ele>143.0</ele><time>2026-04-12T08:37:13Z</time></trkpt><trkpt lat="45.51942670531047" lon="9.142161579295548"><ele>142.5</ele><time>2026-04-12T08:37:14Z</time></trkpt><trkpt lat="45.51943227261136" lon="9.142346472428686"><ele>142.0</ele><time>2026-04-12T08:37:15Z</time></trkpt><trkpt lat="45.519434685608296" lon="9.142535911862407"><ele>142.0</ele><time>2026-04-12T08:37:16Z</time></trkpt><trkpt lat="45.51943918429723" lon="9.142728683220644"><ele>142.0</ele><time>2026-04-12T08:37:17Z</time></trkpt><trkpt lat="45.519447776324014" lon="9.142927759736189"><ele>142.0</ele><time>2026-04-12T08:37:18Z</time></trkpt><trkpt lat="45.51946372138609" lon="9.143127504231503"><ele>142.0</ele><time>2026-04-12T08:37:19Z</time></trkpt><trkpt lat="45.51948561112716" lon="9.143321641235298"><ele>141.5</ele><time>2026-04-12T08:37:20Z</time></trkpt><trkpt lat="45.51952203612749" lon="9.143510810596931"><ele>141.0</ele><time>2026-04-12T08:37:21Z</time></trkpt><trkpt lat="45.51956606349028" lon="9.143689746905194"><ele>140.5</ele><time>2026-04-12T08:37:22Z</time></trkpt><trkpt lat="45.519620602405936" lon="9.143864591096143"><ele>140.0</ele><time>2026-04-12T08:37:23Z</time></trkpt><trkpt lat="45.51968587419548" lon="9.144038802133617"><ele>140.25</ele><time>2026-04-12T08:37:24Z</time></trkpt><trkpt lat="45.51975451769831" lon="9.14421047856356"><ele>140.5</ele><time>2026-04-12T08:37:25Z</time></trkpt><trkpt lat="45.519828001626536" lon="9.144380472970104"><ele>140.75</ele><time>2026-04-12T08:37:26Z</time></trkpt><trkpt lat="45.51990766812564" lon="9.144555442340817"><ele>141.0</ele><time>2026-04-12T08:37:27Z</time></trkpt><trkpt lat="45.5199859968361" lon="9.14473214488968"><ele>140.33333333333334</ele><time>2026-04-12T08:37:28Z</time></trkpt><trkpt lat="45.52006809593952" lon="9.14491455274915"><ele>139.66666666666669</ele><time>2026-04-12T08:37:29Z</time></trkpt><trkpt lat="45.520145771895365" lon="9.14509617781404"><ele>139.0</ele><time>2026-04-12T08:37:30Z</time></trkpt><trkpt lat="45.52022919881533" lon="9.145288133053967"><ele>139.0</ele><time>2026-04-12T08:37:31Z</time></trkpt><trkpt lat="45.52030962762945" lon="9.1454813908266"><ele>139.0</ele><time>2026-04-12T08:37:32Z</time></trkpt><trkpt lat="45.52038346290121" lon="9.145675169026363"><ele>139.0</ele><time>2026-04-12T08:37:33Z</time></trkpt><trkpt lat="45.52045234824849" lon="9.145881711389272"><ele>139.33333333333334</ele><time>2026-04-12T08:37:34Z</time></trkpt><trkpt lat="45.52051454841724" lon="9.146099797938708"><ele>139.66666666666666</ele><time>2026-04-12T08:37:35Z</time></trkpt><trkpt lat="45.52057448004928" lon="9.146330217703072"><ele>140.0</ele><time>2026-04-12T08:37:36Z</time></trkpt><trkpt lat="45.52063058270414" lon="9.1465698590301"><ele>140.66666666666666</ele><time>2026-04-12T08:37:37Z</time></trkpt><trkpt lat="45.520679140519206" lon="9.146811982458868"><ele>141.33333333333334</ele><time>2026-04-12T08:37:38Z</time></trkpt><trkpt lat="45.52072177835903" lon="9.147056422043766"><ele>142.0</ele><time>2026-04-12T08:37:39Z</time></trkpt><trkpt lat="45.52075279388642" lon="9.147301280744799"><ele>142.0</ele><time>2026-04-12T08:37:40Z</time></trkpt><trkpt lat="45.520779937371785" lon="9.147542782638862"><ele>142.0</ele><time>2026-04-12T08:37:41Z</time></trkpt><trkpt lat="45.52080107559336" lon="9.14777466183266"><ele>142.0</ele><time>2026-04-12T08:37:42Z</time></trkpt><trkpt lat="45.520817986101534" lon="9.147992055110306"><ele>142.0</ele><time>2026-04-12T08:37:43Z</time></trkpt><trkpt lat="45.520834227722005" lon="9.148201215099176"><ele>142.0</ele><time>2026-04-12T08:37:44Z</time></trkpt><trkpt lat="45.52084772603086" lon="9.148396508678426"><ele>142.0</ele><time>2026-04-12T08:37:45Z</time></trkpt><trkpt lat="45.52086131617222" lon="9.148590711794073"><ele>142.0</ele><time>2026-04-12T08:37:46Z</time></trkpt><trkpt lat="45.52087639333144" lon="9.148770554413385"><ele>142.0</ele><time>2026-04-12T08:37:47Z</time></trkpt><trkpt lat="45.520892636141106" lon="9.148948132155505"><ele>142.0</ele><time>2026-04-12T08:37:48Z</time></trkpt><trkpt lat="45.52090282097115" lon="9.149120258962961"><ele>142.0</ele><time>2026-04-12T08:37:49Z</time></trkpt><trkpt lat="45.52090452895064" lon="9.149289694890847"><ele>142.0</ele><time>2026-04-12T08:37:50Z</time></trkpt><trkpt lat="45.5209050734311" lon="9.149453166432332"><ele>142.0</ele><time>2026-04-12T08:37:51Z</time></trkpt><trkpt lat="45.52090450530366" lon="9.14960502725212"><ele>142.0</ele><time>2026-04-12T08:37:52Z</time></trkpt><trkpt lat="45.52090956678211" lon="9.14975009481185"><ele>142.0</ele><time>2026-04-12T08:37:53Z</time></trkpt><trkpt lat="45.52091500904775" lon="9.149885888979696"><ele>142.0</ele><time>2026-04-12T08:37:54Z</time></trkpt><trkpt lat="45.520919568521876" lon="9.150014516857814"><ele>142.0</ele><time>2026-04-12T08:37:55Z</time></trkpt><trkpt lat="45.52092515668187" lon="9.150133939405"><ele>142.0</ele><time>2026-04-12T08:37:56Z</time></trkpt><trkpt lat="45.520934394894375" lon="9.150244836234018"><ele>142.0</ele><time>2026-04-12T08:37:57Z</time></trkpt><trkpt lat="45.52094265381362" lon="9.150341413530452"><ele>142.0</ele><time>2026-04-12T08:37:58Z</time></trkpt><trkpt lat="45.520959726286286" lon="9.150469694497435"><ele>142.0</ele><time>2026-04-12T08:38:00Z</time></trkpt><trkpt lat="45.52097873514198" lon="9.150572095612576"><ele>142.0</ele><time>2026-04-12T08:38:03Z</time></trkpt><trkpt lat="45.52099016068618" lon="9.150674392997105"><ele>142.0</ele><time>2026-04-12T08:38:30Z</time></trkpt><trkpt lat="45.521003982527716" lon="9.150790771739276"><ele>142.0</ele><time>2026-04-12T08:38:32Z</time></trkpt><trkpt lat="45.52106262324779" lon="9.150913299045287"><ele>142.0</ele><time>2026-04-12T08:38:34Z</time></trkpt><trkpt lat="45.52118437903457" lon="9.150930092297777"><ele>142.0</ele><time>2026-04-12T08:38:36Z</time></trkpt><trkpt lat="45.52125506299425" lon="9.150903306523626"><ele>142.0</ele><time>2026-04-12T08:38:37Z</time></trkpt><trkpt lat="45.52132849045012" lon="9.15084781474783"><ele>142.0</ele><time>2026-04-12T08:38:38Z</time></trkpt><trkpt lat="45.521409073842484" lon="9.150797465490422"><ele>141.79999999999998</ele><time>2026-04-12T08:38:39Z</time></trkpt><trkpt lat="45.521496608475225" lon="9.150752249125185"><ele>141.6</ele><time>2026-04-12T08:38:40Z</time></trkpt><trkpt lat="45.52159691964187" lon="9.150703554986348"><ele>141.39999999999998</ele><time>2026-04-12T08:38:41Z</time></trkpt><trkpt lat="45.521702199148784" lon="9.15065287495606"><ele>141.2</ele><time>2026-04-12T08:38:42Z</time></trkpt><trkpt lat="45.52181315212185" lon="9.150602795484412"><ele>141.0</ele><time>2026-04-12T08:38:43Z</time></trkpt><trkpt lat="45.52192019514301" lon="9.150549382031842"><ele>141.0</ele><time>2026-04-12T08:38:44Z</time></trkpt><trkpt lat="45.52201906502191" lon="9.150500041395922"><ele>141.0</ele><time>2026-04-12T08:38:45Z</time></trkpt><trkpt lat="45.52212120263185" lon="9.15045046327764"><ele>141.0</ele><time>2026-04-12T08:38:46Z</time></trkpt><trkpt lat="45.522228170548196" lon="9.15039819319275"><ele>141.0</ele><time>2026-04-12T08:38:47Z</time></trkpt><trkpt lat="45.522333042534285" lon="9.15033545290826"><ele>141.0</ele><time>2026-04-12T08:38:48Z</time></trkpt><trkpt lat="45.522433535577974" lon="9.150270936336259"><ele>141.0</ele><time>2026-04-12T08:38:49Z</time></trkpt><trkpt lat="45.522534491309386" lon="9.150215916466232"><ele>141.0</ele><time>2026-04-12T08:38:50Z</time></trkpt><trkpt lat="45.522638931092004" lon="9.150166399413452"><ele>141.0</ele><time>2026-04-12T08:38:51Z</time></trkpt><trkpt lat="45.522747300852366" lon="9.150124535429176"><ele>141.0</ele><time>2026-04-12T08:38:52Z</time></trkpt><trkpt lat="45.52285655732192" lon="9.15007853863473"><ele>141.0</ele><time>2026-04-12T08:38:53Z</time></trkpt><trkpt lat="45.52296728267612" lon="9.15002910320617"><ele>141.0</ele><time>2026-04-12T08:38:54Z</time></trkpt><trkpt lat="45.523068642084084" lon="9.149987014533133"><ele>141.0</ele><time>2026-04-12T08:38:55Z</time></trkpt><trkpt lat="45.5231722306792" lon="9.149942371428049"><ele>141.0</ele><time>2026-04-12T08:38:56Z</time></trkpt><trkpt lat="45.5232746520518" lon="9.149899261689333"><ele>141.0</ele><time>2026-04-12T08:38:57Z</time></trkpt><trkpt lat="45.52337262801577" lon="9.149859997803151"><ele>141.0</ele><time>2026-04-12T08:38:58Z</time></trkpt><trkpt lat="45.52348115479386" lon="9.149818528994306"><ele>141.2</ele><time>2026-04-12T08:38:59Z</time></trkpt><trkpt lat="45.523588211204256" lon="9.149773480084633"><ele>141.39999999999998</ele><time>2026-04-12T08:39:00Z</time></trkpt><trkpt lat="45.52369119877833" lon="9.149726147715313"><ele>141.6</ele><time>2026-04-12T08:39:01Z</time></trkpt><trkpt lat="45.523788435480135" lon="9.14968499924386"><ele>141.79999999999998</ele><time>2026-04-12T08:39:02Z</time></trkpt><trkpt lat="45.52389196992471" lon="9.149639467168615"><ele>142.0</ele><time>2026-04-12T08:39:03Z</time></trkpt><trkpt lat="45.524000371400646" lon="9.149597242902162"><ele>142.2</ele><time>2026-04-12T08:39:04Z</time></trkpt><trkpt lat="45.52410733154766" lon="9.149550761976068"><ele>142.39999999999998</ele><time>2026-04-12T08:39:05Z</time></trkpt><trkpt lat="45.52421351535563" lon="9.149505487608794"><ele>142.60000000000002</ele><time>2026-04-12T08:39:06Z</time></trkpt><trkpt lat="45.52432253579724" lon="9.14946363667086"><ele>142.8</ele><time>2026-04-12T08:39:07Z</time></trkpt><trkpt lat="45.52442774649966" lon="9.14942078287909"><ele>143.0</ele><time>2026-04-12T08:39:08Z</time></trkpt><trkpt lat="45.52452591772055" lon="9.149376886573961"><ele>143.16666666666666</ele><time>2026-04-12T08:39:09Z</time></trkpt><trkpt lat="45.52461787317354" lon="9.14934210027279"><ele>143.33333333333331</ele><time>2026-04-12T08:39:10Z</time></trkpt><trkpt lat="45.52470490089999" lon="9.149306902793553"><ele>143.5</ele><time>2026-04-12T08:39:11Z</time></trkpt><trkpt lat="45.52478665223521" lon="9.149272740196098"><ele>143.66666666666666</ele><time>2026-04-12T08:39:12Z</time></trkpt><trkpt lat="45.52486653170408" lon="9.149238746149203"><ele>143.83333333333334</ele><time>2026-04-12T08:39:13Z</time></trkpt><trkpt lat="45.524949110630715" lon="9.149206747247474"><ele>144.0</ele><time>2026-04-12T08:39:14Z</time></trkpt><trkpt lat="45.52503114998981" lon="9.149171920972934"><ele>144.0</ele><time>2026-04-12T08:39:15Z</time></trkpt><trkpt lat="45.52511339364357" lon="9.14914257560442"><ele>144.0</ele><time>2026-04-12T08:39:16Z</time></trkpt><trkpt lat="45.52519113370926" lon="9.149113049488276"><ele>144.0</ele><time>2026-04-12T08:39:17Z</time></trkpt><trkpt lat="45.525264728642206" lon="9.149082447567597"><ele>144.0</ele><time>2026-04-12T08:39:18Z</time></trkpt><trkpt lat="45.52534118212453" lon="9.149049753442785"><ele>144.0</ele><time>2026-04-12T08:39:19Z</time></trkpt><trkpt lat="45.52542076380217" lon="9.149015618557602"><ele>144.0</ele><time>2026-04-12T08:39:20Z</time></trkpt><trkpt lat="45.525503160337905" lon="9.148980641945105"><ele>144.0</ele><time>2026-04-12T08:39:21Z</time></trkpt><trkpt lat="45.52558733972196" lon="9.148946721371678"><ele>144.0</ele><time>2026-04-12T08:39:22Z</time></trkpt><trkpt lat="45.52567394132945" lon="9.148912458345876"><ele>144.0</ele><time>2026-04-12T08:39:23Z</time></trkpt><trkpt lat="45.525764347820875" lon="9.14887965645238"><ele>144.0</ele><time>2026-04-12T08:39:24Z</time></trkpt><trkpt lat="45.525856787443075" lon="9.148841754691842"><ele>144.0</ele><time>2026-04-12T08:39:25Z</time></trkpt><trkpt lat="45.525949446920166" lon="9.148805299695658"><ele>144.0</ele><time>2026-04-12T08:39:26Z</time></trkpt><trkpt lat="45.526045963579364" lon="9.148766193340915"><ele>144.0</ele><time>2026-04-12T08:39:27Z</time></trkpt><trkpt lat="45.52614368997984" lon="9.148728546156562"><ele>144.0</ele><time>2026-04-12T08:39:28Z</time></trkpt><trkpt lat="45.52623502889261" lon="9.148693059661447"><ele>144.0</ele><time>2026-04-12T08:39:29Z</time></trkpt><trkpt lat="45.526322868253175" lon="9.148660777520007"><ele>144.0</ele><time>2026-04-12T08:39:30Z</time></trkpt><trkpt lat="45.52641209128608" lon="9.148630050021085"><ele>144.0</ele><time>2026-04-12T08:39:31Z</time></trkpt><trkpt lat="45.52649917835721" lon="9.148592232164656"><ele>144.0</ele><time>2026-04-12T08:39:32Z</time></trkpt><trkpt lat="45.52658895087503" lon="9.148557837240562"><ele>144.0</ele><time>2026-04-12T08:39:33Z</time></trkpt><trkpt lat="45.52667877755582" lon="9.148521694728693"><ele>144.0</ele><time>2026-04-12T08:39:34Z</time></trkpt><trkpt lat="45.526771016937765" lon="9.148485569463963"><ele>144.0</ele><time>2026-04-12T08:39:35Z</time></trkpt><trkpt lat="45.526856419983815" lon="9.148441474819755"><ele>144.0</ele><time>2026-04-12T08:39:36Z</time></trkpt><trkpt lat="45.52693506666839" lon="9.148395975363748"><ele>144.0</ele><time>2026-04-12T08:39:37Z</time></trkpt><trkpt lat="45.52700755344373" lon="9.148346107569326"><ele>144.0</ele><time>2026-04-12T08:39:38Z</time></trkpt><trkpt lat="45.52708635793988" lon="9.14828791350154"><ele>144.0</ele><time>2026-04-12T08:39:39Z</time></trkpt><trkpt lat="45.5271601266816" lon="9.148221317397617"><ele>144.0</ele><time>2026-04-12T08:39:40Z</time></trkpt><trkpt lat="45.52722354025212" lon="9.148138484778965"><ele>144.0</ele><time>2026-04-12T08:39:41Z</time></trkpt><trkpt lat="45.52728276626875" lon="9.148053596283697"><ele>143.71428571428572</ele><time>2026-04-12T08:39:42Z</time></trkpt><trkpt lat="45.52734303002823" lon="9.147972594740219"><ele>143.42857142857144</ele><time>2026-04-12T08:39:43Z</time></trkpt><trkpt lat="45.52740449165905" lon="9.147897569252663"><ele>143.14285714285714</ele><time>2026-04-12T08:39:44Z</time></trkpt><trkpt lat="45.52746260188621" lon="9.147830754836065"><ele>142.85714285714286</ele><time>2026-04-12T08:39:45Z</time></trkpt><trkpt lat="45.527523010977724" lon="9.147778544450752"><ele>142.57142857142856</ele><time>2026-04-12T08:39:46Z</time></trkpt><trkpt lat="45.52758799180875" lon="9.147738818856686"><ele>142.28571428571428</ele><time>2026-04-12T08:39:47Z</time></trkpt><trkpt lat="45.52765600989596" lon="9.147723000241653"><ele>142.0</ele><time>2026-04-12T08:39:48Z</time></trkpt><trkpt lat="45.52772885590979" lon="9.147726729941136"><ele>142.0</ele><time>2026-04-12T08:39:49Z</time></trkpt><trkpt lat="45.52780548868828" lon="9.1477375747226"><ele>142.0</ele><time>2026-04-12T08:39:50Z</time></trkpt><trkpt lat="45.527877708464445" lon="9.147723484126002"><ele>142.0</ele><time>2026-04-12T08:39:51Z</time></trkpt><trkpt lat="45.52795540878466" lon="9.147773993699388"><ele>142.0</ele><time>2026-04-12T08:39:52Z</time></trkpt><trkpt lat="45.52802709159505" lon="9.147822229328805"><ele>142.0</ele><time>2026-04-12T08:39:53Z</time></trkpt><trkpt lat="45.5281018015786" lon="9.147885755134228"><ele>142.0</ele><time>2026-04-12T08:39:54Z</time></trkpt><trkpt lat="45.528144743794414" lon="9.148013473147971"><ele>142.2</ele><time>2026-04-12T08:39:55Z</time></trkpt><trkpt lat="45.528196010559746" lon="9.148137824387081"><ele>142.39999999999998</ele><time>2026-04-12T08:39:56Z</time></trkpt><trkpt lat="45.52824885054838" lon="9.148267685466962"><ele>142.60000000000002</ele><time>2026-04-12T08:39:57Z</time></trkpt><trkpt lat="45.5283056247729" lon="9.148401933151668"><ele>142.8</ele><time>2026-04-12T08:39:58Z</time></trkpt><trkpt lat="45.52836703140955" lon="9.148543131640745"><ele>143.0</ele><time>2026-04-12T08:39:59Z</time></trkpt><trkpt lat="45.52842950665206" lon="9.148677993013425"><ele>143.25</ele><time>2026-04-12T08:40:00Z</time></trkpt><trkpt lat="45.52849768315077" lon="9.14880988072374"><ele>143.5</ele><time>2026-04-12T08:40:01Z</time></trkpt><trkpt lat="45.52856880742626" lon="9.1489436838168"><ele>143.75</ele><time>2026-04-12T08:40:02Z</time></trkpt><trkpt lat="45.52863805105235" lon="9.149076230515428"><ele>144.0</ele><time>2026-04-12T08:40:03Z</time></trkpt><trkpt lat="45.52870740501845" lon="9.149212791711546"><ele>143.75</ele><time>2026-04-12T08:40:04Z</time></trkpt><trkpt lat="45.52877783168501" lon="9.149347148983663"><ele>143.5</ele><time>2026-04-12T08:40:05Z</time></trkpt><trkpt lat="45.52884655600691" lon="9.149478404118648"><ele>143.25</ele><time>2026-04-12T08:40:06Z</time></trkpt><trkpt lat="45.52891699283082" lon="9.149615727348456"><ele>143.0</ele><time>2026-04-12T08:40:07Z</time></trkpt><trkpt lat="45.528993202763175" lon="9.149755151991204"><ele>143.0</ele><time>2026-04-12T08:40:08Z</time></trkpt><trkpt lat="45.52906612655226" lon="9.149895343419194"><ele>143.0</ele><time>2026-04-12T08:40:09Z</time></trkpt><trkpt lat="45.529137869152" lon="9.150032461574751"><ele>143.0</ele><time>2026-04-12T08:40:10Z</time></trkpt><trkpt lat="45.529207754381225" lon="9.150166895994179"><ele>143.0</ele><time>2026-04-12T08:40:11Z</time></trkpt><trkpt lat="45.52927920933149" lon="9.150303915888218"><ele>143.0</ele><time>2026-04-12T08:40:12Z</time></trkpt><trkpt lat="45.529351148603354" lon="9.150439712984609"><ele>143.0</ele><time>2026-04-12T08:40:13Z</time></trkpt><trkpt lat="45.52942077540592" lon="9.150570731601242"><ele>143.0</ele><time>2026-04-12T08:40:14Z</time></trkpt><trkpt lat="45.529489118324214" lon="9.150707242086549"><ele>143.0</ele><time>2026-04-12T08:40:15Z</time></trkpt><trkpt lat="45.52955800825056" lon="9.150842949459141"><ele>143.0</ele><time>2026-04-12T08:40:16Z</time></trkpt><trkpt lat="45.52962407859092" lon="9.150972888839895"><ele>143.0</ele><time>2026-04-12T08:40:17Z</time></trkpt><trkpt lat="45.529693318913374" lon="9.151107491600914"><ele>143.0</ele><time>2026-04-12T08:40:18Z</time></trkpt><trkpt lat="45.5297624123315" lon="9.15124220994934"><ele>143.0</ele><time>2026-04-12T08:40:19Z</time></trkpt><trkpt lat="45.52983076449731" lon="9.151373794226112"><ele>143.0</ele><time>2026-04-12T08:40:20Z</time></trkpt><trkpt lat="45.52989951912864" lon="9.151503380271725"><ele>143.0</ele><time>2026-04-12T08:40:21Z</time></trkpt><trkpt lat="45.52996706160958" lon="9.151631835127649"><ele>143.0</ele><time>2026-04-12T08:40:22Z</time></trkpt><trkpt lat="45.53003421426146" lon="9.151758854682305"><ele>143.0</ele><time>2026-04-12T08:40:23Z</time></trkpt><trkpt lat="45.530100449967605" lon="9.151890322851633"><ele>143.20000000000002</ele><time>2026-04-12T08:40:24Z</time></trkpt><trkpt lat="45.53016495967681" lon="9.15202357255397"><ele>143.4</ele><time>2026-04-12T08:40:25Z</time></trkpt><trkpt lat="45.530225895086396" lon="9.152153314106958"><ele>143.60000000000002</ele><time>2026-04-12T08:40:26Z</time></trkpt><trkpt lat="45.53029360794271" lon="9.152283531930571"><ele>143.8</ele><time>2026-04-12T08:40:27Z</time></trkpt><trkpt lat="45.53036300372364" lon="9.152409573784238"><ele>144.0</ele><time>2026-04-12T08:40:28Z</time></trkpt><trkpt lat="45.53042811442274" lon="9.152533496901414"><ele>144.6</ele><time>2026-04-12T08:40:29Z</time></trkpt><trkpt lat="45.53048405801298" lon="9.152666233260215"><ele>145.2</ele><time>2026-04-12T08:40:30Z</time></trkpt><trkpt lat="45.530524010581416" lon="9.15280757924352"><ele>145.79999999999998</ele><time>2026-04-12T08:40:31Z</time></trkpt><trkpt lat="45.53055063105683" lon="9.152952887192077"><ele>146.4</ele><time>2026-04-12T08:40:32Z</time></trkpt><trkpt lat="45.53056714423875" lon="9.153098500518745"><ele>147.0</ele><time>2026-04-12T08:40:33Z</time></trkpt><trkpt lat="45.53058303798632" lon="9.153231779550016"><ele>147.0</ele><time>2026-04-12T08:40:34Z</time></trkpt><trkpt lat="45.53059838879214" lon="9.153357748644101"><ele>147.0</ele><time>2026-04-12T08:40:35Z</time></trkpt><trkpt lat="45.53061179388234" lon="9.153468259926825"><ele>147.0</ele><time>2026-04-12T08:40:36Z</time></trkpt><trkpt lat="45.53062175267689" lon="9.15355921251372"><ele>147.0</ele><time>2026-04-12T08:40:37Z</time></trkpt><trkpt lat="45.53063306008122" lon="9.153669888290832"><ele>147.0</ele><time>2026-04-12T08:40:39Z</time></trkpt><trkpt lat="45.53064990738823" lon="9.153759960489921"><ele>147.0</ele><time>2026-04-12T08:41:01.999Z</time></trkpt><trkpt lat="45.53066576652374" lon="9.15389486708728"><ele>146.79999999999998</ele><time>2026-04-12T08:41:04Z</time></trkpt><trkpt lat="45.53068615645702" lon="9.154069308532192"><ele>146.6</ele><time>2026-04-12T08:41:06Z</time></trkpt><trkpt lat="45.53070088280566" lon="9.154173744391706"><ele>146.39999999999998</ele><time>2026-04-12T08:41:07Z</time></trkpt><trkpt lat="45.53071854547586" lon="9.154290760273971"><ele>146.2</ele><time>2026-04-12T08:41:08Z</time></trkpt><trkpt lat="45.530736917014224" lon="9.154415515180059"><ele>146.0</ele><time>2026-04-12T08:41:09Z</time></trkpt><trkpt lat="45.53075143329148" lon="9.154547122406816"><ele>146.0</ele><time>2026-04-12T08:41:10Z</time></trkpt><trkpt lat="45.53076670956471" lon="9.15468901156859"><ele>146.0</ele><time>2026-04-12T08:41:11Z</time></trkpt><trkpt lat="45.530782717726055" lon="9.154837738592713"><ele>146.0</ele><time>2026-04-12T08:41:12Z</time></trkpt><trkpt lat="45.530799617240014" lon="9.154983357361903"><ele>146.0</ele><time>2026-04-12T08:41:13Z</time></trkpt><trkpt lat="45.53081836149302" lon="9.155118782806218"><ele>146.0</ele><time>2026-04-12T08:41:14Z</time></trkpt><trkpt lat="45.53083570492334" lon="9.155246281622254"><ele>146.0</ele><time>2026-04-12T08:41:15Z</time></trkpt><trkpt lat="45.530848615907956" lon="9.15535629649962"><ele>146.0</ele><time>2026-04-12T08:41:16Z</time></trkpt><trkpt lat="45.530864498478934" lon="9.155516296473849"><ele>146.0</ele><time>2026-04-12T08:41:18Z</time></trkpt><trkpt lat="45.53087238598219" lon="9.155619707308723"><ele>146.0</ele><time>2026-04-12T08:41:20Z</time></trkpt><trkpt lat="45.5308869148943" lon="9.155792519362503"><ele>146.0</ele><time>2026-04-12T08:41:22Z</time></trkpt><trkpt lat="45.53089694416074" lon="9.155901564509525"><ele>146.0</ele><time>2026-04-12T08:41:23Z</time></trkpt><trkpt lat="45.530911901188915" lon="9.15602047194441"><ele>146.0</ele><time>2026-04-12T08:41:24Z</time></trkpt><trkpt lat="45.530934822416754" lon="9.156145452568893"><ele>146.0</ele><time>2026-04-12T08:41:25Z</time></trkpt><trkpt lat="45.53095875342881" lon="9.15628605900024"><ele>146.0</ele><time>2026-04-12T08:41:26Z</time></trkpt><trkpt lat="45.530979887964435" lon="9.156436658414691"><ele>146.0</ele><time>2026-04-12T08:41:27Z</time></trkpt><trkpt lat="45.53099721135948" lon="9.156598908897623"><ele>146.0</ele><time>2026-04-12T08:41:28Z</time></trkpt><trkpt lat="45.5310145158936" lon="9.156775451789924"><ele>146.0</ele><time>2026-04-12T08:41:29Z</time></trkpt><trkpt lat="45.531036630290465" lon="9.156958436749068"><ele>146.0</ele><time>2026-04-12T08:41:30Z</time></trkpt><trkpt lat="45.53105820635672" lon="9.157150420814403"><ele>146.0</ele><time>2026-04-12T08:41:31Z</time></trkpt><trkpt lat="45.531080462048344" lon="9.157343888680657"><ele>145.5</ele><time>2026-04-12T08:41:32Z</time></trkpt><trkpt lat="45.5311072047533" lon="9.157548288100449"><ele>145.0</ele><time>2026-04-12T08:41:33Z</time></trkpt><trkpt lat="45.531130892938144" lon="9.157758487616293"><ele>144.5</ele><time>2026-04-12T08:41:34Z</time></trkpt><trkpt lat="45.53115959362201" lon="9.157975177767344"><ele>144.0</ele><time>2026-04-12T08:41:35Z</time></trkpt><trkpt lat="45.53118833273275" lon="9.158193354871115"><ele>144.33333333333334</ele><time>2026-04-12T08:41:36Z</time></trkpt><trkpt lat="45.53122237103835" lon="9.158412634534363"><ele>144.66666666666669</ele><time>2026-04-12T08:41:37Z</time></trkpt><trkpt lat="45.531252804989734" lon="9.158635874691688"><ele>145.0</ele><time>2026-04-12T08:41:38Z</time></trkpt><trkpt lat="45.53128754402367" lon="9.15886186579518"><ele>145.0</ele><time>2026-04-12T08:41:39Z</time></trkpt><trkpt lat="45.53132250592642" lon="9.15910105666364"><ele>145.0</ele><time>2026-04-12T08:41:40Z</time></trkpt><trkpt lat="45.5313569452265" lon="9.15933444750697"><ele>145.0</ele><time>2026-04-12T08:41:41Z</time></trkpt><trkpt lat="45.53139098330267" lon="9.159570997692558"><ele>145.0</ele><time>2026-04-12T08:41:42Z</time></trkpt><trkpt lat="45.53143043387428" lon="9.159813354619704"><ele>145.0</ele><time>2026-04-12T08:41:43Z</time></trkpt><trkpt lat="45.53146670112302" lon="9.16004442489551"><ele>145.0</ele><time>2026-04-12T08:41:44Z</time></trkpt><trkpt lat="45.53150009942498" lon="9.160254409281382"><ele>145.25</ele><time>2026-04-12T08:41:45Z</time></trkpt><trkpt lat="45.53153610458655" lon="9.160459922687725"><ele>145.5</ele><time>2026-04-12T08:41:46Z</time></trkpt><trkpt lat="45.531564559375596" lon="9.16065408647341"><ele>145.75</ele><time>2026-04-12T08:41:47Z</time></trkpt><trkpt lat="45.53159446250616" lon="9.160844374733983"><ele>146.0</ele><time>2026-04-12T08:41:48Z</time></trkpt><trkpt lat="45.53162185923289" lon="9.161024646290988"><ele>146.2</ele><time>2026-04-12T08:41:49Z</time></trkpt><trkpt lat="45.531644324675895" lon="9.161184329209267"><ele>146.39999999999998</ele><time>2026-04-12T08:41:50Z</time></trkpt><trkpt lat="45.53166216392875" lon="9.161319886853503"><ele>146.6</ele><time>2026-04-12T08:41:51Z</time></trkpt><trkpt lat="45.53167721886183" lon="9.161417206542104"><ele>146.79999999999998</ele><time>2026-04-12T08:41:52Z</time></trkpt><trkpt lat="45.531689429809326" lon="9.161551853463076"><ele>147.0</ele><time>2026-04-12T08:43:21Z</time></trkpt><trkpt lat="45.53173051064038" lon="9.161723389399521"><ele>146.6</ele><time>2026-04-12T08:43:23Z</time></trkpt><trkpt lat="45.531742349447384" lon="9.161814806248955"><ele>146.2</ele><time>2026-04-12T08:43:24Z</time></trkpt><trkpt lat="45.531763533860634" lon="9.161968623196504"><ele>145.8</ele><time>2026-04-12T08:43:26Z</time></trkpt><trkpt lat="45.5319170131914" lon="9.161975276485164"><ele>145.4</ele><time>2026-04-12T08:43:28Z</time></trkpt><trkpt lat="45.53198018014481" lon="9.161943243118113"><ele>145.0</ele><time>2026-04-12T08:43:29Z</time></trkpt><trkpt lat="45.5320450803887" lon="9.161886524904153"><ele>145.33333333333334</ele><time>2026-04-12T08:43:30Z</time></trkpt><trkpt lat="45.53212069128126" lon="9.161855619438834"><ele>145.66666666666669</ele><time>2026-04-12T08:43:31Z</time></trkpt><trkpt lat="45.53220405591129" lon="9.161826275519454"><ele>146.0</ele><time>2026-04-12T08:43:32Z</time></trkpt><trkpt lat="45.53229063544563" lon="9.16179163770942"><ele>146.33333333333334</ele><time>2026-04-12T08:43:33Z</time></trkpt><trkpt lat="45.53237738556317" lon="9.161760633998806"><ele>146.66666666666666</ele><time>2026-04-12T08:43:34Z</time></trkpt><trkpt lat="45.53247560771036" lon="9.161723526334264"><ele>147.0</ele><time>2026-04-12T08:43:35Z</time></trkpt><trkpt lat="45.53257786625846" lon="9.16167386226557"><ele>147.0</ele><time>2026-04-12T08:43:36Z</time></trkpt><trkpt lat="45.53267731452747" lon="9.16165025550751"><ele>147.0</ele><time>2026-04-12T08:43:37Z</time></trkpt><trkpt lat="45.53279858284459" lon="9.161731808160704"><ele>147.0</ele><time>2026-04-12T08:43:38Z</time></trkpt><trkpt lat="45.532914208743115" lon="9.16175555552564"><ele>147.0</ele><time>2026-04-12T08:43:39Z</time></trkpt><trkpt lat="45.533034523198786" lon="9.161760746156581"><ele>147.0</ele><time>2026-04-12T08:43:40Z</time></trkpt><trkpt lat="45.53316340056901" lon="9.161762569556272"><ele>147.0</ele><time>2026-04-12T08:43:41Z</time></trkpt><trkpt lat="45.53329665525858" lon="9.161765745063025"><ele>147.0</ele><time>2026-04-12T08:43:42Z</time></trkpt><trkpt lat="45.53343536465646" lon="9.161766351018517"><ele>147.0</ele><time>2026-04-12T08:43:43Z</time></trkpt><trkpt lat="45.533566044671744" lon="9.161766086647054"><ele>147.0</ele><time>2026-04-12T08:43:44Z</time></trkpt><trkpt lat="45.53369116397681" lon="9.161787774438318"><ele>147.0</ele><time>2026-04-12T08:43:45Z</time></trkpt><trkpt lat="45.53380682418393" lon="9.161808601255059"><ele>147.0</ele><time>2026-04-12T08:43:46Z</time></trkpt><trkpt lat="45.53392777998349" lon="9.161804818549497"><ele>147.0</ele><time>2026-04-12T08:43:47Z</time></trkpt><trkpt lat="45.534049898047535" lon="9.161822477208922"><ele>146.79999999999998</ele><time>2026-04-12T08:43:48Z</time></trkpt><trkpt lat="45.5341649641272" lon="9.16185015460997"><ele>146.6</ele><time>2026-04-12T08:43:49Z</time></trkpt><trkpt lat="45.53427748676516" lon="9.161894741563469"><ele>146.39999999999998</ele><time>2026-04-12T08:43:50Z</time></trkpt><trkpt lat="45.534362311775624" lon="9.161990617287893"><ele>146.2</ele><time>2026-04-12T08:43:51Z</time></trkpt><trkpt lat="45.53442701435913" lon="9.162087429027787"><ele>146.0</ele><time>2026-04-12T08:43:52Z</time></trkpt><trkpt lat="45.53446576868971" lon="9.162209224951882"><ele>146.0</ele><time>2026-04-12T08:43:53Z</time></trkpt><trkpt lat="45.53448724465064" lon="9.162343113064223"><ele>146.0</ele><time>2026-04-12T08:43:54Z</time></trkpt><trkpt lat="45.5344982660114" lon="9.162480256008893"><ele>146.0</ele><time>2026-04-12T08:43:55Z</time></trkpt><trkpt lat="45.5345004636571" lon="9.162625423268802"><ele>146.0</ele><time>2026-04-12T08:43:56Z</time></trkpt><trkpt lat="45.53450208710182" lon="9.162773017148927"><ele>146.0</ele><time>2026-04-12T08:43:57Z</time></trkpt><trkpt lat="45.534501861425284" lon="9.162930563962757"><ele>145.75</ele><time>2026-04-12T08:43:58Z</time></trkpt><trkpt lat="45.534496938116924" lon="9.163091012568495"><ele>145.5</ele><time>2026-04-12T08:43:59Z</time></trkpt><trkpt lat="45.53450004687568" lon="9.163263367613045"><ele>145.25</ele><time>2026-04-12T08:44:00Z</time></trkpt><trkpt lat="45.53450726114906" lon="9.163447544766171"><ele>145.0</ele><time>2026-04-12T08:44:01Z</time></trkpt><trkpt lat="45.53452187734335" lon="9.163636232822073"><ele>145.0</ele><time>2026-04-12T08:44:02Z</time></trkpt><trkpt lat="45.534542196855995" lon="9.163833900931849"><ele>145.0</ele><time>2026-04-12T08:44:03Z</time></trkpt><trkpt lat="45.534573790863845" lon="9.16404390531112"><ele>145.0</ele><time>2026-04-12T08:44:04Z</time></trkpt><trkpt lat="45.534614935281034" lon="9.164261621657749"><ele>145.0</ele><time>2026-04-12T08:44:05Z</time></trkpt><trkpt lat="45.53465980481383" lon="9.164482729255095"><ele>145.66666666666669</ele><time>2026-04-12T08:44:06Z</time></trkpt><trkpt lat="45.53470830374429" lon="9.164712764052101"><ele>146.33333333333334</ele><time>2026-04-12T08:44:07Z</time></trkpt><trkpt lat="45.53475723888537" lon="9.164945561467588"><ele>147.0</ele><time>2026-04-12T08:44:08Z</time></trkpt><trkpt lat="45.53480846735924" lon="9.165181691215336"><ele>147.0</ele><time>2026-04-12T08:44:09Z</time></trkpt><trkpt lat="45.53486021619333" lon="9.16541581617042"><ele>147.0</ele><time>2026-04-12T08:44:10Z</time></trkpt><trkpt lat="45.53491021760591" lon="9.165655336243987"><ele>147.0</ele><time>2026-04-12T08:44:11Z</time></trkpt><trkpt lat="45.53496525120398" lon="9.165893883517144"><ele>146.66666666666666</ele><time>2026-04-12T08:44:12Z</time></trkpt><trkpt lat="45.53501070283061" lon="9.166121676795544"><ele>146.33333333333331</ele><time>2026-04-12T08:44:13Z</time></trkpt><trkpt lat="45.535061667500145" lon="9.166353096742009"><ele>146.0</ele><time>2026-04-12T08:44:14Z</time></trkpt><trkpt lat="45.535104584725765" lon="9.166561228802717"><ele>146.5</ele><time>2026-04-12T08:44:15Z</time></trkpt><trkpt lat="45.53514763304531" lon="9.166766098697822"><ele>147.0</ele><time>2026-04-12T08:44:16Z</time></trkpt><trkpt lat="45.53518849291431" lon="9.166957558025908"><ele>147.5</ele><time>2026-04-12T08:44:17Z</time></trkpt><trkpt lat="45.53522885577027" lon="9.167147269189622"><ele>148.0</ele><time>2026-04-12T08:44:18Z</time></trkpt><trkpt lat="45.535268903185916" lon="9.167330078147945"><ele>147.75</ele><time>2026-04-12T08:44:19Z</time></trkpt><trkpt lat="45.53530931732922" lon="9.167517988198822"><ele>147.5</ele><time>2026-04-12T08:44:20Z</time></trkpt><trkpt lat="45.535350440450934" lon="9.167705902055056"><ele>147.25</ele><time>2026-04-12T08:44:21Z</time></trkpt><trkpt lat="45.53538934032494" lon="9.167892255608848"><ele>147.0</ele><time>2026-04-12T08:44:22Z</time></trkpt><trkpt lat="45.53542738722709" lon="9.168081123266717"><ele>146.75</ele><time>2026-04-12T08:44:23Z</time></trkpt><trkpt lat="45.5354626201757" lon="9.168271056831033"><ele>146.5</ele><time>2026-04-12T08:44:24Z</time></trkpt><trkpt lat="45.53550120905602" lon="9.168463462110342"><ele>146.25</ele><time>2026-04-12T08:44:25Z</time></trkpt><trkpt lat="45.53554248996754" lon="9.16865382886033"><ele>146.0</ele><time>2026-04-12T08:44:26Z</time></trkpt><trkpt lat="45.53558668184248" lon="9.168849704674674"><ele>146.0</ele><time>2026-04-12T08:44:27Z</time></trkpt><trkpt lat="45.5356301523514" lon="9.169042802326732"><ele>146.0</ele><time>2026-04-12T08:44:28Z</time></trkpt><trkpt lat="45.53567491160661" lon="9.169236898914258"><ele>146.0</ele><time>2026-04-12T08:44:29Z</time></trkpt><trkpt lat="45.53571721014933" lon="9.16943165596364"><ele>146.0</ele><time>2026-04-12T08:44:30Z</time></trkpt><trkpt lat="45.53575808736258" lon="9.169617530770015"><ele>146.0</ele><time>2026-04-12T08:44:31Z</time></trkpt><trkpt lat="45.53579342071902" lon="9.169793231454756"><ele>146.0</ele><time>2026-04-12T08:44:32Z</time></trkpt><trkpt lat="45.53582980147914" lon="9.169960059772507"><ele>146.0</ele><time>2026-04-12T08:44:33Z</time></trkpt><trkpt lat="45.53586686548151" lon="9.170126558324055"><ele>146.0</ele><time>2026-04-12T08:44:34Z</time></trkpt><trkpt lat="45.53590411452771" lon="9.170290711095852"><ele>146.0</ele><time>2026-04-12T08:44:35Z</time></trkpt><trkpt lat="45.53594544408024" lon="9.170464960771026"><ele>146.0</ele><time>2026-04-12T08:44:36Z</time></trkpt><trkpt lat="45.535987825014615" lon="9.170639058931126"><ele>146.0</ele><time>2026-04-12T08:44:37Z</time></trkpt><trkpt lat="45.536026698208296" lon="9.170813507330772"><ele>146.0</ele><time>2026-04-12T08:44:38Z</time></trkpt><trkpt lat="45.53606450313239" lon="9.170996290098966"><ele>146.0</ele><time>2026-04-12T08:44:39Z</time></trkpt><trkpt lat="45.53610134808314" lon="9.1711797231599"><ele>146.0</ele><time>2026-04-12T08:44:40Z</time></trkpt><trkpt lat="45.536136050281264" lon="9.171364984748184"><ele>146.0</ele><time>2026-04-12T08:44:41Z</time></trkpt><trkpt lat="45.53616663634886" lon="9.171549921215963"><ele>146.0</ele><time>2026-04-12T08:44:42Z</time></trkpt><trkpt lat="45.53619595752422" lon="9.171734646205547"><ele>146.0</ele><time>2026-04-12T08:44:43Z</time></trkpt><trkpt lat="45.53621997491228" lon="9.171928450180843"><ele>146.0</ele><time>2026-04-12T08:44:44Z</time></trkpt><trkpt lat="45.53624051161153" lon="9.172122026035483"><ele>146.0</ele><time>2026-04-12T08:44:45Z</time></trkpt><trkpt lat="45.53625648827627" lon="9.172317511052603"><ele>146.0</ele><time>2026-04-12T08:44:46Z</time></trkpt><trkpt lat="45.53626847753621" lon="9.172519478024137"><ele>146.0</ele><time>2026-04-12T08:44:47Z</time></trkpt><trkpt lat="45.53627516419863" lon="9.172725517575687"><ele>146.0</ele><time>2026-04-12T08:44:48Z</time></trkpt><trkpt lat="45.53627728386699" lon="9.172923026136559"><ele>146.0</ele><time>2026-04-12T08:44:49Z</time></trkpt><trkpt lat="45.53627485499674" lon="9.173103850573678"><ele>146.0</ele><time>2026-04-12T08:44:50Z</time></trkpt><trkpt lat="45.536272504762444" lon="9.173280671795121"><ele>146.25</ele><time>2026-04-12T08:44:51Z</time></trkpt><trkpt lat="45.5362698160898" lon="9.17345692881127"><ele>146.5</ele><time>2026-04-12T08:44:52Z</time></trkpt><trkpt lat="45.53626591564033" lon="9.17364874030064"><ele>146.75</ele><time>2026-04-12T08:44:53Z</time></trkpt><trkpt lat="45.53626216469163" lon="9.173844147352431"><ele>147.0</ele><time>2026-04-12T08:44:54Z</time></trkpt><trkpt lat="45.53626013535159" lon="9.174033985564783"><ele>147.0</ele><time>2026-04-12T08:44:55Z</time></trkpt><trkpt lat="45.53625583839642" lon="9.174221229959374"><ele>147.0</ele><time>2026-04-12T08:44:56Z</time></trkpt><trkpt lat="45.53625182898043" lon="9.174404877558963"><ele>147.0</ele><time>2026-04-12T08:44:57Z</time></trkpt><trkpt lat="45.536246465869496" lon="9.174588479156677"><ele>147.0</ele><time>2026-04-12T08:44:58Z</time></trkpt><trkpt lat="45.53624135776203" lon="9.174770688872318"><ele>146.75</ele><time>2026-04-12T08:44:59Z</time></trkpt><trkpt lat="45.53623630456836" lon="9.174947853708092"><ele>146.5</ele><time>2026-04-12T08:45:00Z</time></trkpt><trkpt lat="45.53623312290427" lon="9.175130222923343"><ele>146.25</ele><time>2026-04-12T08:45:01Z</time></trkpt><trkpt lat="45.536229366379395" lon="9.17531469829457"><ele>146.0</ele><time>2026-04-12T08:45:02Z</time></trkpt><trkpt lat="45.53622633523312" lon="9.175499504754432"><ele>146.0</ele><time>2026-04-12T08:45:03.001Z</time></trkpt><trkpt lat="45.5362217853655" lon="9.17567874255608"><ele>146.0</ele><time>2026-04-12T08:45:04.001Z</time></trkpt><trkpt lat="45.53622038140139" lon="9.175849458032028"><ele>146.0</ele><time>2026-04-12T08:45:05.001Z</time></trkpt><trkpt lat="45.536222419624686" lon="9.176007762990132"><ele>146.0</ele><time>2026-04-12T08:45:06.001Z</time></trkpt><trkpt lat="45.536224765757545" lon="9.176144462392605"><ele>146.16666666666666</ele><time>2026-04-12T08:45:07.001Z</time></trkpt><trkpt lat="45.536228376553304" lon="9.176263218006184"><ele>146.33333333333331</ele><time>2026-04-12T08:45:08.001Z</time></trkpt><trkpt lat="45.536231195278184" lon="9.176371337743701"><ele>146.5</ele><time>2026-04-12T08:45:09Z</time></trkpt><trkpt lat="45.53623442902518" lon="9.17647733541232"><ele>146.66666666666666</ele><time>2026-04-12T08:45:10Z</time></trkpt><trkpt lat="45.53624063902371" lon="9.176650971698045"><ele>146.83333333333334</ele><time>2026-04-12T08:45:12Z</time></trkpt><trkpt lat="45.53625106983659" lon="9.176780224404716"><ele>147.0</ele><time>2026-04-12T08:45:14Z</time></trkpt><trkpt lat="45.53625127667493" lon="9.176914208471048"><ele>147.0</ele><time>2026-04-12T08:45:16Z</time></trkpt><trkpt lat="45.536237161223916" lon="9.177055749512814"><ele>147.0</ele><time>2026-04-12T08:45:18Z</time></trkpt><trkpt lat="45.536224069837594" lon="9.177147155011358"><ele>147.0</ele><time>2026-04-12T08:45:20Z</time></trkpt><trkpt lat="45.53624727835008" lon="9.177269607458022"><ele>147.0</ele><time>2026-04-12T08:45:22Z</time></trkpt><trkpt lat="45.53632881129835" lon="9.177334933806039"><ele>147.0</ele><time>2026-04-12T08:45:24Z</time></trkpt><trkpt lat="45.536431844126504" lon="9.177303333791452"><ele>147.0</ele><time>2026-04-12T08:45:26Z</time></trkpt><trkpt lat="45.536484446454196" lon="9.17724672796103"><ele>147.0</ele><time>2026-04-12T08:45:27Z</time></trkpt><trkpt lat="45.53653171642679" lon="9.177187206716052"><ele>147.0</ele><time>2026-04-12T08:45:28Z</time></trkpt><trkpt lat="45.53658663115943" lon="9.177138777382787"><ele>147.0</ele><time>2026-04-12T08:45:29Z</time></trkpt><trkpt lat="45.5366465312052" lon="9.177102260308265"><ele>147.0</ele><time>2026-04-12T08:45:30Z</time></trkpt><trkpt lat="45.53672710313015" lon="9.177099290059976"><ele>147.0</ele><time>2026-04-12T08:45:31Z</time></trkpt><trkpt lat="45.53680576427797" lon="9.177098861272167"><ele>147.0</ele><time>2026-04-12T08:45:32Z</time></trkpt><trkpt lat="45.536893834577384" lon="9.177085366771864"><ele>147.0</ele><time>2026-04-12T08:45:33Z</time></trkpt><trkpt lat="45.53697748374143" lon="9.177083715877703"><ele>147.0</ele><time>2026-04-12T08:45:34Z</time></trkpt><trkpt lat="45.53707052980176" lon="9.177071081376813"><ele>147.0</ele><time>2026-04-12T08:45:35Z</time></trkpt><trkpt lat="45.53715862126889" lon="9.177057374037203"><ele>147.0</ele><time>2026-04-12T08:45:36Z</time></trkpt><trkpt lat="45.537237513737566" lon="9.17705301157176"><ele>147.0</ele><time>2026-04-12T08:45:37Z</time></trkpt><trkpt lat="45.53730725966617" lon="9.177043403393036"><ele>147.0</ele><time>2026-04-12T08:45:38Z</time></trkpt><trkpt lat="45.53737509406707" lon="9.177036424428971"><ele>147.0</ele><time>2026-04-12T08:45:39Z</time></trkpt><trkpt lat="45.53744602479168" lon="9.177029008447576"><ele>147.0</ele><time>2026-04-12T08:45:40Z</time></trkpt><trkpt lat="45.53750889598753" lon="9.177022301825753"><ele>147.0</ele><time>2026-04-12T08:45:41Z</time></trkpt><trkpt lat="45.537624591055845" lon="9.177016704302265"><ele>147.0</ele><time>2026-04-12T08:45:43Z</time></trkpt><trkpt lat="45.537734039036366" lon="9.17700548953281"><ele>147.0</ele><time>2026-04-12T08:45:45Z</time></trkpt><trkpt lat="45.53780134315206" lon="9.177002049357828"><ele>147.0</ele><time>2026-04-12T08:45:46Z</time></trkpt><trkpt lat="45.53787394618485" lon="9.17700033735612"><ele>147.0</ele><time>2026-04-12T08:45:47Z</time></trkpt><trkpt lat="45.53795093408603" lon="9.17700096661152"><ele>147.0</ele><time>2026-04-12T08:45:48Z</time></trkpt><trkpt lat="45.5380301603623" lon="9.177011067507937"><ele>147.0</ele><time>2026-04-12T08:45:49Z</time></trkpt><trkpt lat="45.538110733417085" lon="9.17702789337773"><ele>147.0</ele><time>2026-04-12T08:45:50Z</time></trkpt><trkpt lat="45.538198941258024" lon="9.177053115777523"><ele>147.0</ele><time>2026-04-12T08:45:51Z</time></trkpt><trkpt lat="45.53828492449562" lon="9.177079773665975"><ele>147.0</ele><time>2026-04-12T08:45:52Z</time></trkpt><trkpt lat="45.538369774423636" lon="9.177103000600003"><ele>147.0</ele><time>2026-04-12T08:45:53Z</time></trkpt><trkpt lat="45.53844622552638" lon="9.177118842267111"><ele>147.0</ele><time>2026-04-12T08:45:54Z</time></trkpt><trkpt lat="45.538521959540574" lon="9.177128864211253"><ele>147.0</ele><time>2026-04-12T08:45:55Z</time></trkpt><trkpt lat="45.538593645346026" lon="9.177120948006436"><ele>147.0</ele><time>2026-04-12T08:45:56Z</time></trkpt><trkpt lat="45.53866295275298" lon="9.177114858239488"><ele>147.0</ele><time>2026-04-12T08:45:57Z</time></trkpt><trkpt lat="45.53875274489727" lon="9.177087437802466"><ele>147.0</ele><time>2026-04-12T08:45:59Z</time></trkpt><trkpt lat="45.538815367949354" lon="9.177075781055972"><ele>147.16666666666666</ele><time>2026-04-12T08:46:02Z</time></trkpt><trkpt lat="45.538886332671844" lon="9.177057658018464"><ele>147.33333333333334</ele><time>2026-04-12T08:46:06Z</time></trkpt><trkpt lat="45.53896043050216" lon="9.177053645915166"><ele>147.5</ele><time>2026-04-12T08:46:08Z</time></trkpt><trkpt lat="45.539029305326046" lon="9.177034379766733"><ele>147.66666666666669</ele><time>2026-04-12T08:46:10Z</time></trkpt><trkpt lat="45.53911182499213" lon="9.177023081262815"><ele>147.83333333333334</ele><time>2026-04-12T08:46:12Z</time></trkpt><trkpt lat="45.539193617405985" lon="9.17701868864054"><ele>148.0</ele><time>2026-04-12T08:46:14Z</time></trkpt><trkpt lat="45.53928506786903" lon="9.17700189321788"><ele>148.0</ele><time>2026-04-12T08:46:16Z</time></trkpt><trkpt lat="45.53940193244579" lon="9.177005356974743"><ele>148.0</ele><time>2026-04-12T08:46:18Z</time></trkpt><trkpt lat="45.53953014079904" lon="9.176983211392667"><ele>148.0</ele><time>2026-04-12T08:46:20Z</time></trkpt><trkpt lat="45.53960048591123" lon="9.176967734402266"><ele>148.0</ele><time>2026-04-12T08:46:21Z</time></trkpt><trkpt lat="45.53966999071298" lon="9.176958051134275"><ele>148.0</ele><time>2026-04-12T08:46:22Z</time></trkpt><trkpt lat="45.5397432390291" lon="9.176948022744604"><ele>148.0</ele><time>2026-04-12T08:46:23Z</time></trkpt><trkpt lat="45.539818488653246" lon="9.176940961520403"><ele>148.0</ele><time>2026-04-12T08:46:24Z</time></trkpt><trkpt lat="45.53989786128929" lon="9.176931497883256"><ele>148.0</ele><time>2026-04-12T08:46:25Z</time></trkpt><trkpt lat="45.53997550723051" lon="9.176924382565996"><ele>148.0</ele><time>2026-04-12T08:46:26Z</time></trkpt><trkpt lat="45.540058584259036" lon="9.176915768633801"><ele>148.0</ele><time>2026-04-12T08:46:27Z</time></trkpt><trkpt lat="45.540140966859326" lon="9.176898753589734"><ele>148.0</ele><time>2026-04-12T08:46:28Z</time></trkpt><trkpt lat="45.54022266715776" lon="9.176889049271981"><ele>148.0</ele><time>2026-04-12T08:46:29Z</time></trkpt><trkpt lat="45.540295944269374" lon="9.176883768845789"><ele>148.0</ele><time>2026-04-12T08:46:30Z</time></trkpt><trkpt lat="45.54037381143046" lon="9.17687815974053"><ele>148.0</ele><time>2026-04-12T08:46:31.001Z</time></trkpt><trkpt lat="45.540452055727734" lon="9.17686908758114"><ele>148.0</ele><time>2026-04-12T08:46:32.001Z</time></trkpt><trkpt lat="45.54051652038815" lon="9.176865073395861"><ele>148.0</ele><time>2026-04-12T08:46:33.001Z</time></trkpt><trkpt lat="45.540588757004926" lon="9.176861470318487"><ele>148.0</ele><time>2026-04-12T08:46:34.001Z</time></trkpt><trkpt lat="45.54066590675639" lon="9.176848844407177"><ele>148.0</ele><time>2026-04-12T08:46:35.001Z</time></trkpt><trkpt lat="45.54073656749293" lon="9.17684084832879"><ele>148.0</ele><time>2026-04-12T08:46:36.001Z</time></trkpt><trkpt lat="45.540810279638556" lon="9.17682009606258"><ele>148.0</ele><time>2026-04-12T08:46:37.001Z</time></trkpt><trkpt lat="45.54092486868463" lon="9.176786386411933"><ele>148.0</ele><time>2026-04-12T08:46:39.001Z</time></trkpt><trkpt lat="45.54100508662455" lon="9.176781874757895"><ele>148.0</ele><time>2026-04-12T08:46:41.001Z</time></trkpt><trkpt lat="45.54108097830439" lon="9.17677476580863"><ele>148.0</ele><time>2026-04-12T08:46:44.001Z</time></trkpt><trkpt lat="45.541043606994336" lon="9.176421987891766"><ele>148.0</ele><time>2026-04-12T08:46:49.001Z</time></trkpt><trkpt lat="45.54101783764703" lon="9.17631840091824"><ele>148.0</ele><time>2026-04-12T08:46:50.001Z</time></trkpt><trkpt lat="45.540991216399206" lon="9.176206138621788"><ele>148.0</ele><time>2026-04-12T08:46:51.001Z</time></trkpt><trkpt lat="45.54096581782502" lon="9.176101566581943"><ele>148.0</ele><time>2026-04-12T08:46:52.001Z</time></trkpt><trkpt lat="45.54094103120602" lon="9.176001762390392"><ele>148.0</ele><time>2026-04-12T08:46:53.001Z</time></trkpt><trkpt lat="45.54091640465801" lon="9.17590408843202"><ele>148.0</ele><time>2026-04-12T08:46:54.001Z</time></trkpt><trkpt lat="45.54089257758017" lon="9.17581654371551"><ele>148.0</ele><time>2026-04-12T08:46:55.001Z</time></trkpt><trkpt lat="45.540868216806864" lon="9.175728927683133"><ele>148.0</ele><time>2026-04-12T08:46:56.001Z</time></trkpt><trkpt lat="45.540829444845" lon="9.175575820417981"><ele>148.0</ele><time>2026-04-12T08:46:58.001Z</time></trkpt><trkpt lat="45.54079380021179" lon="9.175451564235534"><ele>148.0</ele><time>2026-04-12T08:47:00.001Z</time></trkpt><trkpt lat="45.540768102739754" lon="9.175343705054646"><ele>148.0</ele><time>2026-04-12T08:47:02.001Z</time></trkpt><trkpt lat="45.54073799054909" lon="9.175228336203064"><ele>148.0</ele><time>2026-04-12T08:47:04.001Z</time></trkpt><trkpt lat="45.54072277983228" lon="9.175109296289387"><ele>148.0</ele><time>2026-04-12T08:47:06.001Z</time></trkpt><trkpt lat="45.54068764383157" lon="9.175032813448007"><ele>148.0</ele><time>2026-04-12T08:47:08.001Z</time></trkpt><trkpt lat="45.54083852675158" lon="9.17492570866667"><ele>148.0</ele><time>2026-04-12T08:47:09.001Z</time></trkpt><trkpt lat="45.54089828863346" lon="9.1748680215961"><ele>148.0</ele><time>2026-04-12T08:47:10.001Z</time></trkpt><trkpt lat="45.5409611634238" lon="9.174805497237399"><ele>148.0</ele><time>2026-04-12T08:47:11.001Z</time></trkpt><trkpt lat="45.54102512936211" lon="9.174734580656102"><ele>148.16666666666669</ele><time>2026-04-12T08:47:12.001Z</time></trkpt><trkpt lat="45.54109271698034" lon="9.174659945920837"><ele>148.33333333333334</ele><time>2026-04-12T08:47:13.001Z</time></trkpt><trkpt lat="45.54115754940412" lon="9.174601753124158"><ele>148.5</ele><time>2026-04-12T08:47:14.001Z</time></trkpt><trkpt lat="45.54122734071451" lon="9.174546386475097"><ele>148.66666666666666</ele><time>2026-04-12T08:47:15Z</time></trkpt><trkpt lat="45.54129085096469" lon="9.174497387925605"><ele>148.83333333333331</ele><time>2026-04-12T08:47:16Z</time></trkpt><trkpt lat="45.541341034654955" lon="9.174438486997978"><ele>149.0</ele><time>2026-04-12T08:47:17Z</time></trkpt><trkpt lat="45.54141459548752" lon="9.17436559266859"><ele>149.8</ele><time>2026-04-12T08:47:19Z</time></trkpt><trkpt lat="45.54147805074942" lon="9.174295942636219"><ele>150.60000000000002</ele><time>2026-04-12T08:47:22Z</time></trkpt><trkpt lat="45.54159566490097" lon="9.174456455419575"><ele>151.4</ele><time>2026-04-12T08:47:23Z</time></trkpt><trkpt lat="45.54170441252261" lon="9.174547574142272"><ele>152.20000000000002</ele><time>2026-04-12T08:47:25Z</time></trkpt><trkpt lat="45.541769148255156" lon="9.17460270397674"><ele>153.0</ele><time>2026-04-12T08:47:26Z</time></trkpt><trkpt lat="45.54183848336767" lon="9.174655668801067"><ele>153.0</ele><time>2026-04-12T08:47:27Z</time></trkpt><trkpt lat="45.541902848871224" lon="9.174719421773512"><ele>153.0</ele><time>2026-04-12T08:47:28Z</time></trkpt><trkpt lat="45.54197672287051" lon="9.174783167759434"><ele>153.0</ele><time>2026-04-12T08:47:29Z</time></trkpt><trkpt lat="45.54204685943024" lon="9.174839047182545"><ele>153.0</ele><time>2026-04-12T08:47:30Z</time></trkpt><trkpt lat="45.54211223056389" lon="9.17490002307987"><ele>153.0</ele><time>2026-04-12T08:47:31Z</time></trkpt><trkpt lat="45.54217311986994" lon="9.174954300518674"><ele>153.0</ele><time>2026-04-12T08:47:32Z</time></trkpt><trkpt lat="45.54223095486314" lon="9.175009306680419"><ele>153.0</ele><time>2026-04-12T08:47:33Z</time></trkpt><trkpt lat="45.5422872401219" lon="9.175056821924363"><ele>153.0</ele><time>2026-04-12T08:47:34Z</time></trkpt><trkpt lat="45.54234620727728" lon="9.175105617822938"><ele>153.0</ele><time>2026-04-12T08:47:35Z</time></trkpt><trkpt lat="45.54241276803383" lon="9.175164995701"><ele>153.0</ele><time>2026-04-12T08:47:36Z</time></trkpt><trkpt lat="45.542483906012215" lon="9.175217862347845"><ele>153.0</ele><time>2026-04-12T08:47:37Z</time></trkpt><trkpt lat="45.54254804199153" lon="9.175278287666188"><ele>153.0</ele><time>2026-04-12T08:47:38Z</time></trkpt><trkpt lat="45.54261413424582" lon="9.175337492835002"><ele>153.0</ele><time>2026-04-12T08:47:39Z</time></trkpt><trkpt lat="45.542680207924114" lon="9.175395128898224"><ele>153.0</ele><time>2026-04-12T08:47:40Z</time></trkpt><trkpt lat="45.54274216184052" lon="9.17544398164951"><ele>153.0</ele><time>2026-04-12T08:47:41Z</time></trkpt><trkpt lat="45.542833778385486" lon="9.175528953160255"><ele>153.0</ele><time>2026-04-12T08:47:43Z</time></trkpt><trkpt lat="45.542938830085006" lon="9.175606073449103"><ele>153.0</ele><time>2026-04-12T08:47:45Z</time></trkpt><trkpt lat="45.54298046587111" lon="9.175682102355418"><ele>153.0</ele><time>2026-04-12T08:47:46Z</time></trkpt><trkpt lat="45.54304188827655" lon="9.1757331676126"><ele>153.0</ele><time>2026-04-12T08:47:47Z</time></trkpt><trkpt lat="45.543114226286356" lon="9.175784902102944"><ele>152.83333333333334</ele><time>2026-04-12T08:47:48Z</time></trkpt><trkpt lat="45.54318459639543" lon="9.175846889320837"><ele>152.66666666666666</ele><time>2026-04-12T08:47:49Z</time></trkpt><trkpt lat="45.543262080476616" lon="9.175906148225112"><ele>152.5</ele><time>2026-04-12T08:47:50Z</time></trkpt><trkpt lat="45.543340792076556" lon="9.175977217520103"><ele>152.33333333333331</ele><time>2026-04-12T08:47:51Z</time></trkpt><trkpt lat="45.54341935378133" lon="9.176037854981638"><ele>152.16666666666666</ele><time>2026-04-12T08:47:52Z</time></trkpt><trkpt lat="45.54349226406418" lon="9.176096799815594"><ele>152.0</ele><time>2026-04-12T08:47:53Z</time></trkpt><trkpt lat="45.543558292550514" lon="9.176152111242484"><ele>152.0</ele><time>2026-04-12T08:47:54Z</time></trkpt><trkpt lat="45.543619362509965" lon="9.176205079222338"><ele>152.0</ele><time>2026-04-12T08:47:55Z</time></trkpt><trkpt lat="45.54370364398476" lon="9.176272755500126"><ele>152.0</ele><time>2026-04-12T08:47:57Z</time></trkpt><trkpt lat="45.543758956614326" lon="9.176319437962457"><ele>152.0</ele><time>2026-04-12T08:47:59Z</time></trkpt><trkpt lat="45.54381954507982" lon="9.176380043795739"><ele>152.0</ele><time>2026-04-12T08:48:01Z</time></trkpt><trkpt lat="45.54387266498648" lon="9.176429229874966"><ele>152.0</ele><time>2026-04-12T08:48:05Z</time></trkpt><trkpt lat="45.5439409484753" lon="9.176492671406544"><ele>152.0</ele><time>2026-04-12T08:48:07Z</time></trkpt><trkpt lat="45.544006545885395" lon="9.17648051725905"><ele>152.0</ele><time>2026-04-12T08:48:08Z</time></trkpt><trkpt lat="45.544071488874266" lon="9.176472359086619"><ele>152.0</ele><time>2026-04-12T08:48:09Z</time></trkpt><trkpt lat="45.54414546888428" lon="9.176459127831198"><ele>152.0</ele><time>2026-04-12T08:48:10Z</time></trkpt><trkpt lat="45.54422677385455" lon="9.176446322583507"><ele>152.0</ele><time>2026-04-12T08:48:11Z</time></trkpt><trkpt lat="45.54430440386768" lon="9.176436316869406"><ele>152.0</ele><time>2026-04-12T08:48:12Z</time></trkpt><trkpt lat="45.54439191989065" lon="9.176424069333649"><ele>152.0</ele><time>2026-04-12T08:48:13Z</time></trkpt><trkpt lat="45.54447756463293" lon="9.176415233502837"><ele>152.0</ele><time>2026-04-12T08:48:14Z</time></trkpt><trkpt lat="45.54456662831207" lon="9.17640750909166"><ele>152.0</ele><time>2026-04-12T08:48:15Z</time></trkpt><trkpt lat="45.54465349070648" lon="9.176393396869823"><ele>152.0</ele><time>2026-04-12T08:48:16Z</time></trkpt><trkpt lat="45.5447405790491" lon="9.176382014355857"><ele>152.0</ele><time>2026-04-12T08:48:17Z</time></trkpt><trkpt lat="45.54482671079588" lon="9.176373384896902"><ele>152.0</ele><time>2026-04-12T08:48:18Z</time></trkpt><trkpt lat="45.54491631194794" lon="9.17636500607278"><ele>151.79999999999998</ele><time>2026-04-12T08:48:19Z</time></trkpt><trkpt lat="45.5450089035899" lon="9.176352453626103"><ele>151.6</ele><time>2026-04-12T08:48:20Z</time></trkpt><trkpt lat="45.54510239004183" lon="9.176343322489835"><ele>151.39999999999998</ele><time>2026-04-12T08:48:21Z</time></trkpt><trkpt lat="45.54519635026835" lon="9.176332328993574"><ele>151.2</ele><time>2026-04-12T08:48:22Z</time></trkpt><trkpt lat="45.54528528849258" lon="9.176317867073497"><ele>151.0</ele><time>2026-04-12T08:48:23Z</time></trkpt><trkpt lat="45.545372800827074" lon="9.176309986566139"><ele>151.0</ele><time>2026-04-12T08:48:24Z</time></trkpt><trkpt lat="45.54546011338068" lon="9.176299522041635"><ele>151.0</ele><time>2026-04-12T08:48:25Z</time></trkpt><trkpt lat="45.54554611352178" lon="9.176291557270815"><ele>151.0</ele><time>2026-04-12T08:48:26.001Z</time></trkpt><trkpt lat="45.54563250515968" lon="9.176280620705379"><ele>151.0</ele><time>2026-04-12T08:48:27.001Z</time></trkpt><trkpt lat="45.54572404479265" lon="9.17626914086235"><ele>151.0</ele><time>2026-04-12T08:48:28.001Z</time></trkpt><trkpt lat="45.54581726962718" lon="9.176258908167801"><ele>151.0</ele><time>2026-04-12T08:48:29.001Z</time></trkpt><trkpt lat="45.54591021733384" lon="9.17625019445529"><ele>151.0</ele><time>2026-04-12T08:48:30.001Z</time></trkpt><trkpt lat="45.54600113401561" lon="9.176240588398109"><ele>151.0</ele><time>2026-04-12T08:48:31.001Z</time></trkpt><trkpt lat="45.54608715598126" lon="9.176234761822457"><ele>151.0</ele><time>2026-04-12T08:48:32.001Z</time></trkpt><trkpt lat="45.546164762259515" lon="9.176226069184935"><ele>151.0</ele><time>2026-04-12T08:48:33.001Z</time></trkpt><trkpt lat="45.54622779673589" lon="9.176214132872362"><ele>151.0</ele><time>2026-04-12T08:48:34.001Z</time></trkpt><trkpt lat="45.5463022697341" lon="9.17620697736562"><ele>151.0</ele><time>2026-04-12T08:48:37.001Z</time></trkpt><trkpt lat="45.54636908586201" lon="9.176227277036906"><ele>151.0</ele><time>2026-04-12T08:48:46.001Z</time></trkpt><trkpt lat="45.54643201350696" lon="9.176274661800889"><ele>151.0</ele><time>2026-04-12T08:48:48.001Z</time></trkpt><trkpt lat="45.54648460686195" lon="9.176412687638532"><ele>151.0</ele><time>2026-04-12T08:48:50.001Z</time></trkpt><trkpt lat="45.54650526687374" lon="9.17657489504329"><ele>151.0</ele><time>2026-04-12T08:48:52.001Z</time></trkpt><trkpt lat="45.54651815570284" lon="9.176677670322606"><ele>151.0</ele><time>2026-04-12T08:48:54.001Z</time></trkpt><trkpt lat="45.54653300991923" lon="9.176791437624146"><ele>150.83333333333334</ele><time>2026-04-12T08:48:56.001Z</time></trkpt><trkpt lat="45.54655176565353" lon="9.176877765280894"><ele>150.66666666666669</ele><time>2026-04-12T08:48:57.001Z</time></trkpt><trkpt lat="45.54657637055037" lon="9.176990304916295"><ele>150.5</ele><time>2026-04-12T08:48:58.001Z</time></trkpt><trkpt lat="45.54659906767215" lon="9.177106135714922"><ele>150.33333333333334</ele><time>2026-04-12T08:48:59.001Z</time></trkpt><trkpt lat="45.546621978594715" lon="9.177229415088169"><ele>150.16666666666666</ele><time>2026-04-12T08:49:00.001Z</time></trkpt><trkpt lat="45.546646895736366" lon="9.177360406790653"><ele>150.0</ele><time>2026-04-12T08:49:01.001Z</time></trkpt><trkpt lat="45.54667309104853" lon="9.177498838716591"><ele>150.0</ele><time>2026-04-12T08:49:02.001Z</time></trkpt><trkpt lat="45.54670192664929" lon="9.177647095061069"><ele>150.0</ele><time>2026-04-12T08:49:03.001Z</time></trkpt><trkpt lat="45.546732589306465" lon="9.177802963173836"><ele>150.0</ele><time>2026-04-12T08:49:04.001Z</time></trkpt><trkpt lat="45.546763320771205" lon="9.177966711624315"><ele>150.0</ele><time>2026-04-12T08:49:05.001Z</time></trkpt><trkpt lat="45.54679141559468" lon="9.17813238807372"><ele>150.25</ele><time>2026-04-12T08:49:06Z</time></trkpt><trkpt lat="45.54682361234839" lon="9.178305235103316"><ele>150.5</ele><time>2026-04-12T08:49:07Z</time></trkpt><trkpt lat="45.54685151913688" lon="9.178472842866514"><ele>150.75</ele><time>2026-04-12T08:49:08Z</time></trkpt><trkpt lat="45.5468813926025" lon="9.178639772577402"><ele>151.0</ele><time>2026-04-12T08:49:09Z</time></trkpt><trkpt lat="45.54691158157837" lon="9.178805578161294"><ele>151.0</ele><time>2026-04-12T08:49:10Z</time></trkpt><trkpt lat="45.54694075618884" lon="9.178964437763545"><ele>151.0</ele><time>2026-04-12T08:49:11Z</time></trkpt><trkpt lat="45.54696580700213" lon="9.179122289465752"><ele>151.0</ele><time>2026-04-12T08:49:12Z</time></trkpt><trkpt lat="45.546991290596516" lon="9.179290316330041"><ele>151.0</ele><time>2026-04-12T08:49:13Z</time></trkpt><trkpt lat="45.54701475186602" lon="9.17943881958708"><ele>151.0</ele><time>2026-04-12T08:49:14Z</time></trkpt><trkpt lat="45.547038330635864" lon="9.17958522557768"><ele>151.0</ele><time>2026-04-12T08:49:15Z</time></trkpt><trkpt lat="45.547064433221145" lon="9.17972420065286"><ele>151.0</ele><time>2026-04-12T08:49:16Z</time></trkpt><trkpt lat="45.54709266081249" lon="9.179859729233739"><ele>151.0</ele><time>2026-04-12T08:49:17Z</time></trkpt><trkpt lat="45.5471119217965" lon="9.179985426062784"><ele>151.0</ele><time>2026-04-12T08:49:18Z</time></trkpt><trkpt lat="45.54713073236317" lon="9.18010816147958"><ele>151.0</ele><time>2026-04-12T08:49:19Z</time></trkpt><trkpt lat="45.54715468789366" lon="9.180232221958926"><ele>151.0</ele><time>2026-04-12T08:49:20Z</time></trkpt><trkpt lat="45.5471758481385" lon="9.18035600328635"><ele>151.0</ele><time>2026-04-12T08:49:20.999Z</time></trkpt><trkpt lat="45.54719584699434" lon="9.180480866779687"><ele>151.0</ele><time>2026-04-12T08:49:21.999Z</time></trkpt><trkpt lat="45.547216737673004" lon="9.180607553646142"><ele>151.0</ele><time>2026-04-12T08:49:22.999Z</time></trkpt><trkpt lat="45.54723716754736" lon="9.18073137594397"><ele>151.0</ele><time>2026-04-12T08:49:23.999Z</time></trkpt><trkpt lat="45.547257310413656" lon="9.180849698401113"><ele>151.16666666666669</ele><time>2026-04-12T08:49:24.999Z</time></trkpt><trkpt lat="45.54727755897145" lon="9.180970716947268"><ele>151.33333333333334</ele><time>2026-04-12T08:49:25.999Z</time></trkpt><trkpt lat="45.54729431603554" lon="9.181090890493774"><ele>151.5</ele><time>2026-04-12T08:49:26.999Z</time></trkpt><trkpt lat="45.54731093071885" lon="9.181203923727878"><ele>151.66666666666666</ele><time>2026-04-12T08:49:27.999Z</time></trkpt><trkpt lat="45.54733153031606" lon="9.181311932656039"><ele>151.83333333333331</ele><time>2026-04-12T08:49:28.999Z</time></trkpt><trkpt lat="45.54735193882753" lon="9.181425544972125"><ele>152.0</ele><time>2026-04-12T08:49:29.999Z</time></trkpt><trkpt lat="45.54736670475659" lon="9.181536505996004"><ele>152.0</ele><time>2026-04-12T08:49:30.999Z</time></trkpt><trkpt lat="45.54738777593235" lon="9.18164981375983"><ele>152.0</ele><time>2026-04-12T08:49:31.999Z</time></trkpt><trkpt lat="45.54740704841794" lon="9.18176249972471"><ele>152.0</ele><time>2026-04-12T08:49:32.999Z</time></trkpt><trkpt lat="45.54742914797484" lon="9.181876420884313"><ele>152.0</ele><time>2026-04-12T08:49:33.999Z</time></trkpt><trkpt lat="45.54744813764065" lon="9.181994748199868"><ele>152.0</ele><time>2026-04-12T08:49:34.999Z</time></trkpt><trkpt lat="45.5474674046654" lon="9.182116536265902"><ele>152.0</ele><time>2026-04-12T08:49:35.999Z</time></trkpt><trkpt lat="45.54748772296054" lon="9.182235730789392"><ele>152.0</ele><time>2026-04-12T08:49:36.999Z</time></trkpt><trkpt lat="45.547504863184784" lon="9.182344380908992"><ele>152.0</ele><time>2026-04-12T08:49:37.999Z</time></trkpt><trkpt lat="45.54752112859852" lon="9.182450925749269"><ele>152.0</ele><time>2026-04-12T08:49:38.999Z</time></trkpt><trkpt lat="45.547536896252254" lon="9.182544541767639"><ele>152.0</ele><time>2026-04-12T08:49:39.999Z</time></trkpt><trkpt lat="45.54755889509591" lon="9.182681021826657"><ele>152.0</ele><time>2026-04-12T08:49:41.999Z</time></trkpt><trkpt lat="45.54756636263513" lon="9.182777428142025"><ele>152.0</ele><time>2026-04-12T08:49:43.999Z</time></trkpt><trkpt lat="45.54755725717323" lon="9.18289993209945"><ele>152.4</ele><time>2026-04-12T08:49:45.999Z</time></trkpt><trkpt lat="45.54759265776437" lon="9.18306208314277"><ele>152.79999999999998</ele><time>2026-04-12T08:49:47.999Z</time></trkpt><trkpt lat="45.54764025323552" lon="9.1831425477896"><ele>153.2</ele><time>2026-04-12T08:49:49.999Z</time></trkpt><trkpt lat="45.547662191604914" lon="9.183256247630093"><ele>153.6</ele><time>2026-04-12T08:49:52.999Z</time></trkpt><trkpt lat="45.547693373110505" lon="9.183440790119723"><ele>154.0</ele><time>2026-04-12T08:49:54.999Z</time></trkpt><trkpt lat="45.54771436519672" lon="9.18355917075035"><ele>154.6</ele><time>2026-04-12T08:49:55.999Z</time></trkpt><trkpt lat="45.54773871902326" lon="9.183683825123246"><ele>155.2</ele><time>2026-04-12T08:49:56.999Z</time></trkpt><trkpt lat="45.54776353416068" lon="9.1838246102364"><ele>155.79999999999998</ele><time>2026-04-12T08:49:57.999Z</time></trkpt><trkpt lat="45.54778848372658" lon="9.183974036334746"><ele>156.4</ele><time>2026-04-12T08:49:58.999Z</time></trkpt><trkpt lat="45.547811075750516" lon="9.18410871871193"><ele>157.0</ele><time>2026-04-12T08:49:59.999Z</time></trkpt><trkpt lat="45.54783281033288" lon="9.184231544471377"><ele>156.33333333333334</ele><time>2026-04-12T08:50:00.999Z</time></trkpt><trkpt lat="45.547852570806455" lon="9.184344875910604"><ele>155.66666666666669</ele><time>2026-04-12T08:50:01.999Z</time></trkpt><trkpt lat="45.54787120719571" lon="9.184450566611833"><ele>155.0</ele><time>2026-04-12T08:50:02.999Z</time></trkpt><trkpt lat="45.54789173863405" lon="9.184550814540945"><ele>154.33333333333334</ele><time>2026-04-12T08:50:03.999Z</time></trkpt><trkpt lat="45.54791026567631" lon="9.18464630269106"><ele>153.66666666666666</ele><time>2026-04-12T08:50:04.999Z</time></trkpt><trkpt lat="45.547928786464965" lon="9.18473734211946"><ele>153.0</ele><time>2026-04-12T08:50:05.999Z</time></trkpt><trkpt lat="45.54794693193085" lon="9.184867421432548"><ele>153.0</ele><time>2026-04-12T08:50:07.999Z</time></trkpt><trkpt lat="45.547967852735326" lon="9.184978402664372"><ele>153.0</ele><time>2026-04-12T08:50:16.999Z</time></trkpt><trkpt lat="45.547993042907954" lon="9.185132619343847"><ele>153.0</ele><time>2026-04-12T08:50:18.999Z</time></trkpt><trkpt lat="45.54800927534064" lon="9.185286791771405"><ele>153.0</ele><time>2026-04-12T08:50:20.999Z</time></trkpt><trkpt lat="45.548031440065586" lon="9.185416538210598"><ele>153.0</ele><time>2026-04-12T08:50:23Z</time></trkpt><trkpt lat="45.54807499458196" lon="9.185573706384856"><ele>153.20000000000002</ele><time>2026-04-12T08:50:25Z</time></trkpt><trkpt lat="45.548099443643295" lon="9.185719201289658"><ele>153.4</ele><time>2026-04-12T08:50:27Z</time></trkpt><trkpt lat="45.5481113356577" lon="9.185823321225996"><ele>153.60000000000002</ele><time>2026-04-12T08:50:30Z</time></trkpt><trkpt lat="45.548103020841886" lon="9.185935065599532"><ele>153.8</ele><time>2026-04-12T08:51:43.999Z</time></trkpt><trkpt lat="45.5481133539113" lon="9.18604520237112"><ele>154.0</ele><time>2026-04-12T08:51:45.999Z</time></trkpt><trkpt lat="45.54821979624131" lon="9.186116238359824"><ele>154.0</ele><time>2026-04-12T08:51:47.999Z</time></trkpt><trkpt lat="45.54829356989996" lon="9.186119547448019"><ele>154.0</ele><time>2026-04-12T08:51:48.999Z</time></trkpt><trkpt lat="45.54837001851966" lon="9.186121246148748"><ele>154.0</ele><time>2026-04-12T08:51:49.999Z</time></trkpt><trkpt lat="45.54845460198783" lon="9.186123958003689"><ele>154.0</ele><time>2026-04-12T08:51:50.999Z</time></trkpt><trkpt lat="45.54855218377634" lon="9.1861251460693"><ele>154.0</ele><time>2026-04-12T08:51:51.999Z</time></trkpt><trkpt lat="45.548656814665875" lon="9.186125402843809"><ele>154.0</ele><time>2026-04-12T08:51:52.999Z</time></trkpt><trkpt lat="45.54876628448295" lon="9.186121373208763"><ele>153.75</ele><time>2026-04-12T08:51:53.999Z</time></trkpt><trkpt lat="45.54888367589582" lon="9.186122510438723"><ele>153.5</ele><time>2026-04-12T08:51:54.999Z</time></trkpt><trkpt lat="45.54900405144045" lon="9.18612084643425"><ele>153.25</ele><time>2026-04-12T08:51:55.999Z</time></trkpt><trkpt lat="45.54912749155135" lon="9.18611885450415"><ele>153.0</ele><time>2026-04-12T08:51:56.999Z</time></trkpt><trkpt lat="45.54925426570448" lon="9.18612196185002"><ele>153.0</ele><time>2026-04-12T08:51:57.999Z</time></trkpt><trkpt lat="45.549382353608586" lon="9.186122631720263"><ele>153.0</ele><time>2026-04-12T08:51:58.999Z</time></trkpt><trkpt lat="45.549510023767475" lon="9.186117280499026"><ele>153.0</ele><time>2026-04-12T08:51:59.999Z</time></trkpt><trkpt lat="45.54963075078022" lon="9.186109200091678"><ele>153.0</ele><time>2026-04-12T08:52:00.999Z</time></trkpt><trkpt lat="45.549757767021276" lon="9.186135367182796"><ele>153.25</ele><time>2026-04-12T08:52:01.999Z</time></trkpt><trkpt lat="45.54987365257624" lon="9.186120419671916"><ele>153.5</ele><time>2026-04-12T08:52:02.999Z</time></trkpt><trkpt lat="45.549999721713995" lon="9.186124221528203"><ele>153.75</ele><time>2026-04-12T08:52:03.999Z</time></trkpt><trkpt lat="45.55012764990382" lon="9.18611562930862"><ele>154.0</ele><time>2026-04-12T08:52:04.999Z</time></trkpt><trkpt lat="45.55024916075465" lon="9.186103911502185"><ele>154.0</ele><time>2026-04-12T08:52:05.999Z</time></trkpt><trkpt lat="45.55038203739819" lon="9.186107480058773"><ele>154.0</ele><time>2026-04-12T08:52:06.999Z</time></trkpt><trkpt lat="45.550513079786086" lon="9.186112450435935"><ele>154.0</ele><time>2026-04-12T08:52:07.999Z</time></trkpt><trkpt lat="45.55063937985063" lon="9.186135703838428"><ele>154.0</ele><time>2026-04-12T08:52:08.999Z</time></trkpt><trkpt lat="45.550765206486254" lon="9.186118414217646"><ele>154.0</ele><time>2026-04-12T08:52:09.999Z</time></trkpt><trkpt lat="45.55087671114671" lon="9.186119179024576"><ele>154.0</ele><time>2026-04-12T08:52:10.999Z</time></trkpt><trkpt lat="45.55095596584268" lon="9.186128935597969"><ele>154.0</ele><time>2026-04-12T08:52:11.999Z</time></trkpt><trkpt lat="45.5510520728307" lon="9.186136646538312"><ele>154.0</ele><time>2026-04-12T08:52:13.999Z</time></trkpt><trkpt lat="45.551133307797976" lon="9.186133689091502"><ele>154.0</ele><time>2026-04-12T08:52:52Z</time></trkpt><trkpt lat="45.55119662610119" lon="9.186133485303097"><ele>154.0</ele><time>2026-04-12T08:52:53Z</time></trkpt><trkpt lat="45.551272229265535" lon="9.186135772787027"><ele>154.4</ele><time>2026-04-12T08:52:54Z</time></trkpt><trkpt lat="45.55135561444928" lon="9.18613694219413"><ele>154.8</ele><time>2026-04-12T08:52:55Z</time></trkpt><trkpt lat="45.55145402559477" lon="9.186134707565168"><ele>155.2</ele><time>2026-04-12T08:52:56Z</time></trkpt><trkpt lat="45.5515532948787" lon="9.186133313228433"><ele>155.6</ele><time>2026-04-12T08:52:57Z</time></trkpt><trkpt lat="45.55166081083715" lon="9.186130174862534"><ele>156.0</ele><time>2026-04-12T08:52:58Z</time></trkpt><trkpt lat="45.551767310801765" lon="9.186126965689478"><ele>156.0</ele><time>2026-04-12T08:52:59Z</time></trkpt><trkpt lat="45.55186524747576" lon="9.186126439481402"><ele>156.0</ele><time>2026-04-12T08:53:00Z</time></trkpt><trkpt lat="45.55195657455305" lon="9.186130748615795"><ele>156.0</ele><time>2026-04-12T08:53:01Z</time></trkpt><trkpt lat="45.552041870214566" lon="9.186131866210557"><ele>156.0</ele><time>2026-04-12T08:53:02Z</time></trkpt><trkpt lat="45.55211862675377" lon="9.186134555831133"><ele>156.0</ele><time>2026-04-12T08:53:03Z</time></trkpt><trkpt lat="45.55219046929626" lon="9.186137358077954"><ele>156.0</ele><time>2026-04-12T08:53:04Z</time></trkpt><trkpt lat="45.55225906913556" lon="9.186138636881411"><ele>155.85714285714286</ele><time>2026-04-12T08:53:05Z</time></trkpt><trkpt lat="45.5523317012939" lon="9.186145676321226"><ele>155.7142857142857</ele><time>2026-04-12T08:53:06Z</time></trkpt><trkpt lat="45.55240956840811" lon="9.186151307011798"><ele>155.57142857142856</ele><time>2026-04-12T08:53:07Z</time></trkpt><trkpt lat="45.55248343561725" lon="9.186152956648895"><ele>155.42857142857144</ele><time>2026-04-12T08:53:08Z</time></trkpt><trkpt lat="45.552555024508756" lon="9.186151748681388"><ele>155.28571428571428</ele><time>2026-04-12T08:53:09Z</time></trkpt><trkpt lat="45.55262615655622" lon="9.186144916292472"><ele>155.14285714285714</ele><time>2026-04-12T08:53:10Z</time></trkpt><trkpt lat="45.552699396905425" lon="9.186139013525723"><ele>155.0</ele><time>2026-04-12T08:53:11Z</time></trkpt><trkpt lat="45.5527773376191" lon="9.186128836001158"><ele>155.0</ele><time>2026-04-12T08:53:12Z</time></trkpt><trkpt lat="45.5528564672359" lon="9.186141207002283"><ele>155.0</ele><time>2026-04-12T08:53:13Z</time></trkpt><trkpt lat="45.552942694740466" lon="9.186126572574759"><ele>155.0</ele><time>2026-04-12T08:53:14Z</time></trkpt><trkpt lat="45.55302792625501" lon="9.186134936748267"><ele>155.0</ele><time>2026-04-12T08:53:15Z</time></trkpt><trkpt lat="45.55311772913657" lon="9.18613725031395"><ele>155.0</ele><time>2026-04-12T08:53:16Z</time></trkpt><trkpt lat="45.55320653740094" lon="9.18613815096494"><ele>155.0</ele><time>2026-04-12T08:53:17Z</time></trkpt><trkpt lat="45.553296293258825" lon="9.18613916189609"><ele>155.0</ele><time>2026-04-12T08:53:18Z</time></trkpt><trkpt lat="45.55337963516102" lon="9.1861418759431"><ele>155.0</ele><time>2026-04-12T08:53:19Z</time></trkpt><trkpt lat="45.5534607415335" lon="9.18614292094983"><ele>155.0</ele><time>2026-04-12T08:53:20Z</time></trkpt><trkpt lat="45.55354579670383" lon="9.186143773673145"><ele>155.0</ele><time>2026-04-12T08:53:21Z</time></trkpt><trkpt lat="45.55363658319218" lon="9.186145134651316"><ele>155.0</ele><time>2026-04-12T08:53:22Z</time></trkpt><trkpt lat="45.55372562134572" lon="9.186143140112502"><ele>155.0</ele><time>2026-04-12T08:53:23Z</time></trkpt><trkpt lat="45.5538199761422" lon="9.186141108882715"><ele>154.6</ele><time>2026-04-12T08:53:24Z</time></trkpt><trkpt lat="45.55391743809768" lon="9.18613856432348"><ele>154.2</ele><time>2026-04-12T08:53:25Z</time></trkpt><trkpt lat="45.55401543118378" lon="9.186137848238948"><ele>153.8</ele><time>2026-04-12T08:53:26Z</time></trkpt><trkpt lat="45.554113159818556" lon="9.186136162484862"><ele>153.4</ele><time>2026-04-12T08:53:27Z</time></trkpt><trkpt lat="45.55421497267562" lon="9.186130957233264"><ele>153.0</ele><time>2026-04-12T08:53:28Z</time></trkpt><trkpt lat="45.55431350947195" lon="9.186122656833355"><ele>153.0</ele><time>2026-04-12T08:53:29Z</time></trkpt><trkpt lat="45.554408956151676" lon="9.186121627848756"><ele>153.0</ele><time>2026-04-12T08:53:30Z</time></trkpt><trkpt lat="45.55450354537397" lon="9.186121537364297"><ele>153.0</ele><time>2026-04-12T08:53:31Z</time></trkpt><trkpt lat="45.55460436718409" lon="9.186124918197248"><ele>153.0</ele><time>2026-04-12T08:53:32Z</time></trkpt><trkpt lat="45.55470337240141" lon="9.18614595627205"><ele>153.0</ele><time>2026-04-12T08:53:32.999Z</time></trkpt><trkpt lat="45.55480697122055" lon="9.186147047211223"><ele>153.4</ele><time>2026-04-12T08:53:33.999Z</time></trkpt><trkpt lat="45.5549081408752" lon="9.186148026270041"><ele>153.8</ele><time>2026-04-12T08:53:34.999Z</time></trkpt><trkpt lat="45.55500856939636" lon="9.18614833933404"><ele>154.2</ele><time>2026-04-12T08:53:35.999Z</time></trkpt><trkpt lat="45.555100826980954" lon="9.18614806820295"><ele>154.6</ele><time>2026-04-12T08:53:36.999Z</time></trkpt><trkpt lat="45.55518080015873" lon="9.186124181689737"><ele>155.0</ele><time>2026-04-12T08:53:37.999Z</time></trkpt><trkpt lat="45.555255570827185" lon="9.1861476134326"><ele>155.0</ele><time>2026-04-12T08:53:38.999Z</time></trkpt><trkpt lat="45.55533257571427" lon="9.186147387126876"><ele>155.0</ele><time>2026-04-12T08:53:39.999Z</time></trkpt><trkpt lat="45.55540745925538" lon="9.186147167054997"><ele>155.0</ele><time>2026-04-12T08:53:40.999Z</time></trkpt><trkpt lat="45.555473328073205" lon="9.186146973475642"><ele>155.0</ele><time>2026-04-12T08:53:41.999Z</time></trkpt><trkpt lat="45.55554536704713" lon="9.186146761761693"><ele>155.0</ele><time>2026-04-12T08:53:42.999Z</time></trkpt><trkpt lat="45.5556287648981" lon="9.186123150591298"><ele>155.0</ele><time>2026-04-12T08:53:43.999Z</time></trkpt><trkpt lat="45.55571852805352" lon="9.186146252866347"><ele>155.25</ele><time>2026-04-12T08:53:44.999Z</time></trkpt><trkpt lat="45.555819960526215" lon="9.186145954772016"><ele>155.5</ele><time>2026-04-12T08:53:45.999Z</time></trkpt><trkpt lat="45.55593969850004" lon="9.18614589112488"><ele>155.75</ele><time>2026-04-12T08:53:46.999Z</time></trkpt><trkpt lat="45.55607637121565" lon="9.186145891123738"><ele>156.0</ele><time>2026-04-12T08:53:47.999Z</time></trkpt><trkpt lat="45.55621858627417" lon="9.186145893108131"><ele>156.0</ele><time>2026-04-12T08:53:48.999Z</time></trkpt><trkpt lat="45.55636285851412" lon="9.186144746418927"><ele>156.0</ele><time>2026-04-12T08:53:49.999Z</time></trkpt><trkpt lat="45.55650779415592" lon="9.186144493110517"><ele>156.0</ele><time>2026-04-12T08:53:50.999Z</time></trkpt><trkpt lat="45.55665527593206" lon="9.18614449311138"><ele>156.0</ele><time>2026-04-12T08:53:51.999Z</time></trkpt><trkpt lat="45.55679502486613" lon="9.18612333024786"><ele>156.0</ele><time>2026-04-12T08:53:53Z</time></trkpt><trkpt lat="45.55692759987494" lon="9.18613405489152"><ele>156.0</ele><time>2026-04-12T08:53:54Z</time></trkpt><trkpt lat="45.5570564855518" lon="9.186136575903493"><ele>156.0</ele><time>2026-04-12T08:53:55Z</time></trkpt><trkpt lat="45.55718179814821" lon="9.186129346399191"><ele>156.0</ele><time>2026-04-12T08:53:56Z</time></trkpt><trkpt lat="45.55731366449194" lon="9.186130009411487"><ele>155.5</ele><time>2026-04-12T08:53:57Z</time></trkpt><trkpt lat="45.55744719538919" lon="9.186127493083402"><ele>155.0</ele><time>2026-04-12T08:53:58Z</time></trkpt><trkpt lat="45.557577030850986" lon="9.18612790340599"><ele>154.5</ele><time>2026-04-12T08:53:59Z</time></trkpt><trkpt lat="45.55770452729235" lon="9.186126933782463"><ele>154.0</ele><time>2026-04-12T08:54:00Z</time></trkpt><trkpt lat="45.55782912085326" lon="9.186129439874307"><ele>154.25</ele><time>2026-04-12T08:54:01Z</time></trkpt><trkpt lat="45.557953271886056" lon="9.18613027790166"><ele>154.5</ele><time>2026-04-12T08:54:02Z</time></trkpt><trkpt lat="45.558073580999164" lon="9.186131319720818"><ele>154.75</ele><time>2026-04-12T08:54:03Z</time></trkpt><trkpt lat="45.55819328772215" lon="9.186130933907"><ele>155.0</ele><time>2026-04-12T08:54:04Z</time></trkpt><trkpt lat="45.55830844929971" lon="9.186128850052357"><ele>155.0</ele><time>2026-04-12T08:54:05Z</time></trkpt><trkpt lat="45.55841437670621" lon="9.18612946342211"><ele>155.0</ele><time>2026-04-12T08:54:06Z</time></trkpt><trkpt lat="45.558520961777255" lon="9.186130409966278"><ele>155.0</ele><time>2026-04-12T08:54:07Z</time></trkpt><trkpt lat="45.55862889899392" lon="9.186131840592308"><ele>155.0</ele><time>2026-04-12T08:54:08Z</time></trkpt><trkpt lat="45.558739045556976" lon="9.186131804652877"><ele>155.0</ele><time>2026-04-12T08:54:09Z</time></trkpt><trkpt lat="45.55885124928132" lon="9.186133852494004"><ele>155.6</ele><time>2026-04-12T08:54:10Z</time></trkpt><trkpt lat="45.558968918804624" lon="9.18613658344375"><ele>156.2</ele><time>2026-04-12T08:54:11Z</time></trkpt><trkpt lat="45.55908328287237" lon="9.186142571859483"><ele>156.8</ele><time>2026-04-12T08:54:12Z</time></trkpt><trkpt lat="45.559190253198445" lon="9.186148168178315"><ele>157.4</ele><time>2026-04-12T08:54:13Z</time></trkpt><trkpt lat="45.559281754875926" lon="9.186155031480435"><ele>158.0</ele><time>2026-04-12T08:54:14Z</time></trkpt><trkpt lat="45.55935660981207" lon="9.186161225791517"><ele>158.0</ele><time>2026-04-12T08:54:15Z</time></trkpt><trkpt lat="45.55944948818047" lon="9.186184687886424"><ele>158.0</ele><time>2026-04-12T08:54:17Z</time></trkpt><trkpt lat="45.5595513909439" lon="9.186246612230395"><ele>158.0</ele><time>2026-04-12T08:54:19Z</time></trkpt><trkpt lat="45.55961301085068" lon="9.186282881079844"><ele>158.0</ele><time>2026-04-12T08:54:20Z</time></trkpt><trkpt lat="45.55968341701564" lon="9.186291984752172"><ele>158.0</ele><time>2026-04-12T08:54:21Z</time></trkpt><trkpt lat="45.559743726540454" lon="9.186323527858416"><ele>158.0</ele><time>2026-04-12T08:54:22Z</time></trkpt><trkpt lat="45.55981966054888" lon="9.186199314770873"><ele>157.83333333333331</ele><time>2026-04-12T08:54:23Z</time></trkpt><trkpt lat="45.559891993905566" lon="9.18616127862901"><ele>157.66666666666666</ele><time>2026-04-12T08:54:24Z</time></trkpt><trkpt lat="45.55997225022107" lon="9.186148768791767"><ele>157.5</ele><time>2026-04-12T08:54:25Z</time></trkpt><trkpt lat="45.56005705860081" lon="9.186140427486942"><ele>157.33333333333334</ele><time>2026-04-12T08:54:26Z</time></trkpt><trkpt lat="45.56014612008683" lon="9.186133930444976"><ele>157.16666666666669</ele><time>2026-04-12T08:54:27Z</time></trkpt><trkpt lat="45.5602389077853" lon="9.186135906289536"><ele>157.0</ele><time>2026-04-12T08:54:28Z</time></trkpt><trkpt lat="45.560344288369166" lon="9.186136996138703"><ele>157.0</ele><time>2026-04-12T08:54:29Z</time></trkpt><trkpt lat="45.56045301429294" lon="9.186135784389736"><ele>157.0</ele><time>2026-04-12T08:54:30Z</time></trkpt><trkpt lat="45.560564918423935" lon="9.18613470026329"><ele>157.0</ele><time>2026-04-12T08:54:31Z</time></trkpt><trkpt lat="45.560673321192745" lon="9.186132534261114"><ele>157.0</ele><time>2026-04-12T08:54:32Z</time></trkpt><trkpt lat="45.5607832912363" lon="9.18612978461966"><ele>157.0</ele><time>2026-04-12T08:54:33Z</time></trkpt><trkpt lat="45.56089234777255" lon="9.18613189663975"><ele>157.0</ele><time>2026-04-12T08:54:34Z</time></trkpt><trkpt lat="45.561003549723445" lon="9.186133594946595"><ele>157.0</ele><time>2026-04-12T08:54:35Z</time></trkpt><trkpt lat="45.56111421629375" lon="9.18613502240715"><ele>157.0</ele><time>2026-04-12T08:54:36Z</time></trkpt><trkpt lat="45.561221221292136" lon="9.186133282412193"><ele>157.0</ele><time>2026-04-12T08:54:37Z</time></trkpt><trkpt lat="45.56132396363419" lon="9.18613298283921"><ele>157.0</ele><time>2026-04-12T08:54:38Z</time></trkpt><trkpt lat="45.561426930799364" lon="9.186132512846056"><ele>158.0</ele><time>2026-04-12T08:54:39Z</time></trkpt><trkpt lat="45.561531580250836" lon="9.186128819192708"><ele>159.0</ele><time>2026-04-12T08:54:40Z</time></trkpt><trkpt lat="45.56163618931014" lon="9.18612586279646"><ele>160.0</ele><time>2026-04-12T08:54:41Z</time></trkpt><trkpt lat="45.561742224165734" lon="9.186127005575988"><ele>161.0</ele><time>2026-04-12T08:54:42Z</time></trkpt><trkpt lat="45.56185114324083" lon="9.186131212541634"><ele>162.0</ele><time>2026-04-12T08:54:43Z</time></trkpt><trkpt lat="45.561960283847924" lon="9.18613730385804"><ele>161.5</ele><time>2026-04-12T08:54:44Z</time></trkpt><trkpt lat="45.56207125820128" lon="9.186144860125538"><ele>161.0</ele><time>2026-04-12T08:54:45Z</time></trkpt><trkpt lat="45.56218351481991" lon="9.186161737410862"><ele>160.5</ele><time>2026-04-12T08:54:46Z</time></trkpt><trkpt lat="45.562298664285116" lon="9.186191204633737"><ele>160.0</ele><time>2026-04-12T08:54:47Z</time></trkpt><trkpt lat="45.56241393515048" lon="9.186230904235783"><ele>160.0</ele><time>2026-04-12T08:54:48Z</time></trkpt><trkpt lat="45.562520692688636" lon="9.186313382650617"><ele>160.0</ele><time>2026-04-12T08:54:49Z</time></trkpt><trkpt lat="45.56263306540898" lon="9.186365299514067"><ele>160.0</ele><time>2026-04-12T08:54:50Z</time></trkpt><trkpt lat="45.56273647533713" lon="9.186456092658538"><ele>160.0</ele><time>2026-04-12T08:54:51Z</time></trkpt><trkpt lat="45.56283610139601" lon="9.18655662661613"><ele>160.0</ele><time>2026-04-12T08:54:52Z</time></trkpt><trkpt lat="45.56293145250546" lon="9.186660942346542"><ele>160.0</ele><time>2026-04-12T08:54:53Z</time></trkpt><trkpt lat="45.56302658916205" lon="9.186769891747916"><ele>160.0</ele><time>2026-04-12T08:54:54Z</time></trkpt><trkpt lat="45.56312246541794" lon="9.18687587632383"><ele>160.0</ele><time>2026-04-12T08:54:55Z</time></trkpt><trkpt lat="45.56321792614296" lon="9.186978184957638"><ele>160.0</ele><time>2026-04-12T08:54:56Z</time></trkpt><trkpt lat="45.56330890470006" lon="9.187081601429561"><ele>160.0</ele><time>2026-04-12T08:54:57Z</time></trkpt><trkpt lat="45.56339484143719" lon="9.187175549514166"><ele>160.0</ele><time>2026-04-12T08:54:58Z</time></trkpt><trkpt lat="45.56348063180767" lon="9.187272250683348"><ele>160.0</ele><time>2026-04-12T08:54:59Z</time></trkpt><trkpt lat="45.56356351960399" lon="9.187364305791283"><ele>160.0</ele><time>2026-04-12T08:55:00Z</time></trkpt><trkpt lat="45.56364877322067" lon="9.187462747319843"><ele>159.75</ele><time>2026-04-12T08:55:01Z</time></trkpt><trkpt lat="45.56373777584952" lon="9.187558125196807"><ele>159.5</ele><time>2026-04-12T08:55:02Z</time></trkpt><trkpt lat="45.56383265172344" lon="9.187657952758377"><ele>159.25</ele><time>2026-04-12T08:55:03Z</time></trkpt><trkpt lat="45.563928881158205" lon="9.187785684182645"><ele>159.0</ele><time>2026-04-12T08:55:04Z</time></trkpt><trkpt lat="45.56405739269587" lon="9.187927281428852"><ele>159.0</ele><time>2026-04-12T08:55:05Z</time></trkpt><trkpt lat="45.564193369012386" lon="9.18807673466208"><ele>159.0</ele><time>2026-04-12T08:55:06Z</time></trkpt><trkpt lat="45.564334137846515" lon="9.188231455454128"><ele>159.0</ele><time>2026-04-12T08:55:07Z</time></trkpt><trkpt lat="45.5644678012178" lon="9.188360667287924"><ele>159.0</ele><time>2026-04-12T08:55:08Z</time></trkpt><trkpt lat="45.56458288444625" lon="9.188493538272043"><ele>159.0</ele><time>2026-04-12T08:55:09Z</time></trkpt><trkpt lat="45.56469892175742" lon="9.188625362409175"><ele>159.0</ele><time>2026-04-12T08:55:10Z</time></trkpt><trkpt lat="45.56480461614263" lon="9.188727807379534"><ele>159.0</ele><time>2026-04-12T08:55:11Z</time></trkpt><trkpt lat="45.56491745993843" lon="9.188822207367888"><ele>159.0</ele><time>2026-04-12T08:55:12Z</time></trkpt><trkpt lat="45.565024874055815" lon="9.188894102334533"><ele>159.0</ele><time>2026-04-12T08:55:13Z</time></trkpt><trkpt lat="45.56513327650918" lon="9.188948977443058"><ele>159.0</ele><time>2026-04-12T08:55:14Z</time></trkpt><trkpt lat="45.56524417262068" lon="9.188999250890005"><ele>159.0</ele><time>2026-04-12T08:55:15Z</time></trkpt><trkpt lat="45.565359280783206" lon="9.189039788491254"><ele>159.4</ele><time>2026-04-12T08:55:16Z</time></trkpt><trkpt lat="45.56547434452598" lon="9.189077694963997"><ele>159.8</ele><time>2026-04-12T08:55:17Z</time></trkpt><trkpt lat="45.56558197161041" lon="9.189111935148372"><ele>160.20000000000002</ele><time>2026-04-12T08:55:18Z</time></trkpt><trkpt lat="45.565688210042914" lon="9.18914471371762"><ele>160.60000000000002</ele><time>2026-04-12T08:55:19Z</time></trkpt><trkpt lat="45.56579175900611" lon="9.18917699070795"><ele>161.0</ele><time>2026-04-12T08:55:20Z</time></trkpt><trkpt lat="45.565888832101" lon="9.189210119433193"><ele>161.0</ele><time>2026-04-12T08:55:21Z</time></trkpt><trkpt lat="45.56598467553434" lon="9.189240723153137"><ele>161.0</ele><time>2026-04-12T08:55:22Z</time></trkpt><trkpt lat="45.56608336158206" lon="9.189273261551566"><ele>161.0</ele><time>2026-04-12T08:55:23Z</time></trkpt><trkpt lat="45.566183547994136" lon="9.18930467190429"><ele>161.0</ele><time>2026-04-12T08:55:24Z</time></trkpt><trkpt lat="45.566283110591336" lon="9.18933795770662"><ele>161.0</ele><time>2026-04-12T08:55:25Z</time></trkpt><trkpt lat="45.56638111287191" lon="9.189370773883374"><ele>161.4</ele><time>2026-04-12T08:55:26Z</time></trkpt><trkpt lat="45.56647435751257" lon="9.18940053804507"><ele>161.8</ele><time>2026-04-12T08:55:27Z</time></trkpt><trkpt lat="45.5665629107322" lon="9.18942801758534"><ele>162.20000000000002</ele><time>2026-04-12T08:55:28Z</time></trkpt><trkpt lat="45.56665122225563" lon="9.189454870500512"><ele>162.60000000000002</ele><time>2026-04-12T08:55:29Z</time></trkpt><trkpt lat="45.56673899170693" lon="9.189483825812191"><ele>163.0</ele><time>2026-04-12T08:55:30.001Z</time></trkpt><trkpt lat="45.566829549652844" lon="9.189511448229103"><ele>163.0</ele><time>2026-04-12T08:55:31.001Z</time></trkpt><trkpt lat="45.56692367321534" lon="9.189540505824397"><ele>163.0</ele><time>2026-04-12T08:55:32.001Z</time></trkpt><trkpt lat="45.56702293034927" lon="9.189572096734596"><ele>163.0</ele><time>2026-04-12T08:55:33.001Z</time></trkpt><trkpt lat="45.567124266483766" lon="9.189604730807448"><ele>163.0</ele><time>2026-04-12T08:55:34.001Z</time></trkpt><trkpt lat="45.56722912944033" lon="9.18963902390023"><ele>163.0</ele><time>2026-04-12T08:55:35.001Z</time></trkpt><trkpt lat="45.567338711755234" lon="9.189674642770578"><ele>162.5</ele><time>2026-04-12T08:55:36.001Z</time></trkpt><trkpt lat="45.56745567820652" lon="9.189709927262982"><ele>162.0</ele><time>2026-04-12T08:55:37.001Z</time></trkpt><trkpt lat="45.567582161661555" lon="9.189752322924775"><ele>161.5</ele><time>2026-04-12T08:55:38.001Z</time></trkpt><trkpt lat="45.567707327004975" lon="9.189791771568931"><ele>161.0</ele><time>2026-04-12T08:55:39Z</time></trkpt><trkpt lat="45.56783825435244" lon="9.18983404727821"><ele>161.5</ele><time>2026-04-12T08:55:40Z</time></trkpt><trkpt lat="45.56796920979736" lon="9.189873858957593"><ele>162.0</ele><time>2026-04-12T08:55:41Z</time></trkpt><trkpt lat="45.56810587378902" lon="9.189916244489032"><ele>162.5</ele><time>2026-04-12T08:55:42Z</time></trkpt><trkpt lat="45.56823934817293" lon="9.189957585035541"><ele>163.0</ele><time>2026-04-12T08:55:43Z</time></trkpt><trkpt lat="45.56837237528434" lon="9.18999979511381"><ele>163.0</ele><time>2026-04-12T08:55:44Z</time></trkpt><trkpt lat="45.56850224691049" lon="9.190041836264214"><ele>163.0</ele><time>2026-04-12T08:55:45Z</time></trkpt><trkpt lat="45.568632985584856" lon="9.190081439222958"><ele>163.0</ele><time>2026-04-12T08:55:46Z</time></trkpt><trkpt lat="45.568754619362316" lon="9.190119071313152"><ele>163.0</ele><time>2026-04-12T08:55:47Z</time></trkpt><trkpt lat="45.56887099440892" lon="9.190155200706034"><ele>163.0</ele><time>2026-04-12T08:55:48Z</time></trkpt><trkpt lat="45.568981929094" lon="9.19018972896185"><ele>163.0</ele><time>2026-04-12T08:55:49Z</time></trkpt><trkpt lat="45.56908562655455" lon="9.190220247254157"><ele>163.0</ele><time>2026-04-12T08:55:50Z</time></trkpt><trkpt lat="45.56917938370539" lon="9.190248501989867"><ele>163.0</ele><time>2026-04-12T08:55:51Z</time></trkpt><trkpt lat="45.5692684098168" lon="9.19027836972654"><ele>163.0</ele><time>2026-04-12T08:55:52Z</time></trkpt><trkpt lat="45.56935423842317" lon="9.190305307051448"><ele>163.0</ele><time>2026-04-12T08:55:53Z</time></trkpt><trkpt lat="45.56943565314845" lon="9.19033190410648"><ele>163.0</ele><time>2026-04-12T08:55:54Z</time></trkpt><trkpt lat="45.56952314665167" lon="9.190359208606404"><ele>163.0</ele><time>2026-04-12T08:55:55Z</time></trkpt><trkpt lat="45.56961383360242" lon="9.19038960661865"><ele>163.0</ele><time>2026-04-12T08:55:56Z</time></trkpt><trkpt lat="45.56971332788704" lon="9.190424110691554"><ele>163.0</ele><time>2026-04-12T08:55:57Z</time></trkpt><trkpt lat="45.56982256104264" lon="9.190456845721693"><ele>163.0</ele><time>2026-04-12T08:55:58Z</time></trkpt><trkpt lat="45.569939588162015" lon="9.190493054445511"><ele>163.0</ele><time>2026-04-12T08:55:59Z</time></trkpt><trkpt lat="45.57006474204315" lon="9.190532663788048"><ele>163.0</ele><time>2026-04-12T08:56:00Z</time></trkpt><trkpt lat="45.57020353266683" lon="9.190575539051148"><ele>163.0</ele><time>2026-04-12T08:56:01Z</time></trkpt><trkpt lat="45.57035185658908" lon="9.190616684982443"><ele>163.0</ele><time>2026-04-12T08:56:02Z</time></trkpt><trkpt lat="45.570500084172814" lon="9.190664073083195"><ele>163.0</ele><time>2026-04-12T08:56:03Z</time></trkpt><trkpt lat="45.57065842853383" lon="9.190711640480341"><ele>163.0</ele><time>2026-04-12T08:56:04Z</time></trkpt><trkpt lat="45.57081971175567" lon="9.190763722114433"><ele>163.0</ele><time>2026-04-12T08:56:05Z</time></trkpt><trkpt lat="45.57098373977731" lon="9.190814786413915"><ele>163.0</ele><time>2026-04-12T08:56:06Z</time></trkpt><trkpt lat="45.57113851784315" lon="9.190864470928103"><ele>163.0</ele><time>2026-04-12T08:56:07Z</time></trkpt><trkpt lat="45.57128584449995" lon="9.190914168250151"><ele>163.75</ele><time>2026-04-12T08:56:08Z</time></trkpt><trkpt lat="45.571428141350765" lon="9.190953903773648"><ele>164.5</ele><time>2026-04-12T08:56:09Z</time></trkpt><trkpt lat="45.57156222643017" lon="9.190994909928873"><ele>165.25</ele><time>2026-04-12T08:56:10Z</time></trkpt><trkpt lat="45.57168143703699" lon="9.191031451319498"><ele>166.0</ele><time>2026-04-12T08:56:11Z</time></trkpt><trkpt lat="45.57178529480455" lon="9.191066299834237"><ele>166.0</ele><time>2026-04-12T08:56:12Z</time></trkpt><trkpt lat="45.57187739916481" lon="9.1910949848443"><ele>166.0</ele><time>2026-04-12T08:56:13Z</time></trkpt><trkpt lat="45.57195937317121" lon="9.191119255961718"><ele>166.0</ele><time>2026-04-12T08:56:14Z</time></trkpt><trkpt lat="45.57203259799376" lon="9.191141761550671"><ele>166.0</ele><time>2026-04-12T08:56:15Z</time></trkpt><trkpt lat="45.57209880123674" lon="9.19116041735148"><ele>166.0</ele><time>2026-04-12T08:56:16Z</time></trkpt><trkpt lat="45.57216471411523" lon="9.191181915869173"><ele>166.0</ele><time>2026-04-12T08:56:17Z</time></trkpt><trkpt lat="45.57223280011179" lon="9.19120622381163"><ele>166.0</ele><time>2026-04-12T08:56:18Z</time></trkpt><trkpt lat="45.572302497590854" lon="9.191237137422895"><ele>166.0</ele><time>2026-04-12T08:56:19Z</time></trkpt><trkpt lat="45.57238377080976" lon="9.191264940460753"><ele>166.0</ele><time>2026-04-12T08:56:20Z</time></trkpt><trkpt lat="45.57246715150246" lon="9.191291076589593"><ele>166.0</ele><time>2026-04-12T08:56:21Z</time></trkpt><trkpt lat="45.57255021474078" lon="9.191316783746473"><ele>166.0</ele><time>2026-04-12T08:56:22Z</time></trkpt><trkpt lat="45.57263473209324" lon="9.191343921393196"><ele>166.0</ele><time>2026-04-12T08:56:23Z</time></trkpt><trkpt lat="45.5727118875755" lon="9.19136396379536"><ele>166.0</ele><time>2026-04-12T08:56:24Z</time></trkpt><trkpt lat="45.57278050620438" lon="9.19138668346004"><ele>166.0</ele><time>2026-04-12T08:56:25Z</time></trkpt><trkpt lat="45.57284392211727" lon="9.191408174410071"><ele>166.0</ele><time>2026-04-12T08:56:26Z</time></trkpt><trkpt lat="45.572938745552975" lon="9.19143845513966"><ele>166.0</ele><time>2026-04-12T08:56:28Z</time></trkpt><trkpt lat="45.57301135259205" lon="9.191461355196472"><ele>166.0</ele><time>2026-04-12T08:56:31Z</time></trkpt><trkpt lat="45.57310213798332" lon="9.191494247249501"><ele>166.0</ele><time>2026-04-12T08:56:36Z</time></trkpt><trkpt lat="45.57319154355651" lon="9.191526880749379"><ele>165.83333333333334</ele><time>2026-04-12T08:56:38Z</time></trkpt><trkpt lat="45.57330751531335" lon="9.191556251080634"><ele>165.66666666666669</ele><time>2026-04-12T08:56:40Z</time></trkpt><trkpt lat="45.57337371106172" lon="9.191571567966994"><ele>165.5</ele><time>2026-04-12T08:56:41Z</time></trkpt><trkpt lat="45.57344542476697" lon="9.191591661619624"><ele>165.33333333333334</ele><time>2026-04-12T08:56:42Z</time></trkpt><trkpt lat="45.573522775486474" lon="9.191614172471287"><ele>165.16666666666666</ele><time>2026-04-12T08:56:43Z</time></trkpt><trkpt lat="45.57360367594117" lon="9.191638970019415"><ele>165.0</ele><time>2026-04-12T08:56:44Z</time></trkpt><trkpt lat="45.573688588266194" lon="9.191670085877917"><ele>164.8</ele><time>2026-04-12T08:56:45Z</time></trkpt><trkpt lat="45.57377760813381" lon="9.191706807523875"><ele>164.6</ele><time>2026-04-12T08:56:46Z</time></trkpt><trkpt lat="45.57386842572516" lon="9.191745426168982"><ele>164.39999999999998</ele><time>2026-04-12T08:56:47Z</time></trkpt><trkpt lat="45.57396418814646" lon="9.191780443995464"><ele>164.2</ele><time>2026-04-12T08:56:48Z</time></trkpt><trkpt lat="45.5740585489704" lon="9.191813098093094"><ele>164.0</ele><time>2026-04-12T08:56:49Z</time></trkpt><trkpt lat="45.574146053472134" lon="9.191843790314243"><ele>164.0</ele><time>2026-04-12T08:56:50Z</time></trkpt><trkpt lat="45.574229192058944" lon="9.191874422865908"><ele>164.0</ele><time>2026-04-12T08:56:51Z</time></trkpt><trkpt lat="45.57431673703902" lon="9.191904138824386"><ele>164.0</ele><time>2026-04-12T08:56:52Z</time></trkpt><trkpt lat="45.57440627276087" lon="9.191933318175439"><ele>164.0</ele><time>2026-04-12T08:56:53Z</time></trkpt><trkpt lat="45.57450261886081" lon="9.191960464009203"><ele>164.0</ele><time>2026-04-12T08:56:54Z</time></trkpt><trkpt lat="45.57460122362494" lon="9.191991424172532"><ele>164.0</ele><time>2026-04-12T08:56:55Z</time></trkpt><trkpt lat="45.57470083518141" lon="9.192027606994609"><ele>164.0</ele><time>2026-04-12T08:56:56Z</time></trkpt><trkpt lat="45.57480411888226" lon="9.192062121808064"><ele>164.0</ele><time>2026-04-12T08:56:57Z</time></trkpt><trkpt lat="45.57490852626284" lon="9.192101441329518"><ele>164.0</ele><time>2026-04-12T08:56:58Z</time></trkpt><trkpt lat="45.57501728835586" lon="9.19213860648863"><ele>164.0</ele><time>2026-04-12T08:56:59Z</time></trkpt><trkpt lat="45.575134230453884" lon="9.192179205480047"><ele>164.0</ele><time>2026-04-12T08:57:00Z</time></trkpt><trkpt lat="45.57525644577568" lon="9.192221120594972"><ele>164.0</ele><time>2026-04-12T08:57:01Z</time></trkpt><trkpt lat="45.57538448722845" lon="9.19226715043609"><ele>164.0</ele><time>2026-04-12T08:57:02Z</time></trkpt><trkpt lat="45.5755200221897" lon="9.19231371398985"><ele>164.0</ele><time>2026-04-12T08:57:03Z</time></trkpt><trkpt lat="45.57565439414717" lon="9.19235960204078"><ele>164.0</ele><time>2026-04-12T08:57:04Z</time></trkpt><trkpt lat="45.57578017285015" lon="9.192403335582183"><ele>164.0</ele><time>2026-04-12T08:57:05Z</time></trkpt><trkpt lat="45.57590103429785" lon="9.192444346682873"><ele>164.0</ele><time>2026-04-12T08:57:06Z</time></trkpt><trkpt lat="45.57602194567175" lon="9.192485691197735"><ele>164.0</ele><time>2026-04-12T08:57:07Z</time></trkpt><trkpt lat="45.576143372145616" lon="9.192526586104757"><ele>164.5</ele><time>2026-04-12T08:57:08Z</time></trkpt><trkpt lat="45.576267673766985" lon="9.192571172954603"><ele>165.0</ele><time>2026-04-12T08:57:09Z</time></trkpt><trkpt lat="45.576392372453874" lon="9.192613328300896"><ele>165.5</ele><time>2026-04-12T08:57:10Z</time></trkpt><trkpt lat="45.57650877555863" lon="9.192650132795452"><ele>166.0</ele><time>2026-04-12T08:57:11Z</time></trkpt><trkpt lat="45.57662101822464" lon="9.192688107479917"><ele>166.0</ele><time>2026-04-12T08:57:12Z</time></trkpt><trkpt lat="45.57672877537008" lon="9.192726420011857"><ele>166.0</ele><time>2026-04-12T08:57:13Z</time></trkpt><trkpt lat="45.5768397801075" lon="9.192766841993173"><ele>166.0</ele><time>2026-04-12T08:57:14Z</time></trkpt><trkpt lat="45.576954859920484" lon="9.192806495129949"><ele>166.0</ele><time>2026-04-12T08:57:15Z</time></trkpt><trkpt lat="45.57707057601126" lon="9.19284993593459"><ele>166.25</ele><time>2026-04-12T08:57:16Z</time></trkpt><trkpt lat="45.577184461416365" lon="9.192887472356858"><ele>166.5</ele><time>2026-04-12T08:57:17Z</time></trkpt><trkpt lat="45.57729654166636" lon="9.192927764097721"><ele>166.75</ele><time>2026-04-12T08:57:18Z</time></trkpt><trkpt lat="45.57740832946425" lon="9.19296659691451"><ele>167.0</ele><time>2026-04-12T08:57:19Z</time></trkpt><trkpt lat="45.57752327671573" lon="9.193010376957123"><ele>167.0</ele><time>2026-04-12T08:57:20Z</time></trkpt><trkpt lat="45.57763809283056" lon="9.193049189486972"><ele>167.0</ele><time>2026-04-12T08:57:21Z</time></trkpt><trkpt lat="45.57775481340627" lon="9.193087580626418"><ele>167.0</ele><time>2026-04-12T08:57:22Z</time></trkpt><trkpt lat="45.577879475653454" lon="9.193129207236057"><ele>167.0</ele><time>2026-04-12T08:57:23.001Z</time></trkpt><trkpt lat="45.57800199726564" lon="9.19317165769069"><ele>167.25</ele><time>2026-04-12T08:57:24.001Z</time></trkpt><trkpt lat="45.57812766292451" lon="9.193210886325126"><ele>167.5</ele><time>2026-04-12T08:57:25.001Z</time></trkpt><trkpt lat="45.57825434753434" lon="9.193256524125482"><ele>167.75</ele><time>2026-04-12T08:57:26.001Z</time></trkpt><trkpt lat="45.57838213464629" lon="9.193301692832062"><ele>168.0</ele><time>2026-04-12T08:57:27.001Z</time></trkpt><trkpt lat="45.57850042403067" lon="9.193342870980961"><ele>168.0</ele><time>2026-04-12T08:57:28.001Z</time></trkpt><trkpt lat="45.57861175560827" lon="9.193384063979444"><ele>168.0</ele><time>2026-04-12T08:57:29.001Z</time></trkpt><trkpt lat="45.57871894246762" lon="9.193423397019327"><ele>168.0</ele><time>2026-04-12T08:57:30.001Z</time></trkpt><trkpt lat="45.578821083632334" lon="9.193461285872306"><ele>168.0</ele><time>2026-04-12T08:57:31.001Z</time></trkpt><trkpt lat="45.57892583241499" lon="9.19349601889469"><ele>168.0</ele><time>2026-04-12T08:57:32.001Z</time></trkpt><trkpt lat="45.57902820088019" lon="9.193528818860196"><ele>168.0</ele><time>2026-04-12T08:57:33.001Z</time></trkpt><trkpt lat="45.57913851076352" lon="9.193566528819897"><ele>168.0</ele><time>2026-04-12T08:57:34.001Z</time></trkpt><trkpt lat="45.57924874641276" lon="9.193605380420584"><ele>168.0</ele><time>2026-04-12T08:57:35.001Z</time></trkpt><trkpt lat="45.57936305899702" lon="9.193645281803638"><ele>168.0</ele><time>2026-04-12T08:57:36.001Z</time></trkpt><trkpt lat="45.57948159614378" lon="9.193683738220345"><ele>168.75</ele><time>2026-04-12T08:57:37.001Z</time></trkpt><trkpt lat="45.57960284042574" lon="9.193725917495785"><ele>169.5</ele><time>2026-04-12T08:57:38.001Z</time></trkpt><trkpt lat="45.57972702463844" lon="9.19376597072578"><ele>170.25</ele><time>2026-04-12T08:57:39.001Z</time></trkpt><trkpt lat="45.57985309272004" lon="9.193807873771016"><ele>171.0</ele><time>2026-04-12T08:57:40.001Z</time></trkpt><trkpt lat="45.57998550745242" lon="9.193851920063056"><ele>171.0</ele><time>2026-04-12T08:57:41.001Z</time></trkpt><trkpt lat="45.58011558242972" lon="9.193896647148406"><ele>171.0</ele><time>2026-04-12T08:57:42.001Z</time></trkpt><trkpt lat="45.58024795518212" lon="9.193945683902447"><ele>171.0</ele><time>2026-04-12T08:57:43.001Z</time></trkpt><trkpt lat="45.58038443629796" lon="9.193991251627613"><ele>171.0</ele><time>2026-04-12T08:57:44.001Z</time></trkpt><trkpt lat="45.58052178213034" lon="9.194037318725202"><ele>170.66666666666666</ele><time>2026-04-12T08:57:45Z</time></trkpt><trkpt lat="45.58066283036272" lon="9.194085941688186"><ele>170.33333333333331</ele><time>2026-04-12T08:57:46Z</time></trkpt><trkpt lat="45.58080815338947" lon="9.194134455393218"><ele>170.0</ele><time>2026-04-12T08:57:47Z</time></trkpt><trkpt lat="45.580960226395746" lon="9.194187515534756"><ele>170.0</ele><time>2026-04-12T08:57:48Z</time></trkpt><trkpt lat="45.58111050546867" lon="9.194238807803616"><ele>170.0</ele><time>2026-04-12T08:57:49Z</time></trkpt><trkpt lat="45.581261667356635" lon="9.194291016154631"><ele>170.0</ele><time>2026-04-12T08:57:50Z</time></trkpt><trkpt lat="45.581409160182034" lon="9.194340299166383"><ele>170.25</ele><time>2026-04-12T08:57:51Z</time></trkpt><trkpt lat="45.5815487751244" lon="9.194390967110612"><ele>170.5</ele><time>2026-04-12T08:57:52Z</time></trkpt><trkpt lat="45.5816821955001" lon="9.194439257860742"><ele>170.75</ele><time>2026-04-12T08:57:53Z</time></trkpt><trkpt lat="45.58180938955951" lon="9.194483028770112"><ele>171.0</ele><time>2026-04-12T08:57:54Z</time></trkpt><trkpt lat="45.5819380754307" lon="9.194525944916112"><ele>171.25</ele><time>2026-04-12T08:57:55Z</time></trkpt><trkpt lat="45.58206686525555" lon="9.194564142385016"><ele>171.5</ele><time>2026-04-12T08:57:56Z</time></trkpt><trkpt lat="45.58218845946339" lon="9.194602526780287"><ele>171.75</ele><time>2026-04-12T08:57:57Z</time></trkpt><trkpt lat="45.58230340410735" lon="9.194638231656112"><ele>172.0</ele><time>2026-04-12T08:57:58Z</time></trkpt><trkpt lat="45.582420758018564" lon="9.194679653478183"><ele>172.0</ele><time>2026-04-12T08:57:59Z</time></trkpt><trkpt lat="45.58254046317254" lon="9.19471802169825"><ele>172.0</ele><time>2026-04-12T08:58:00Z</time></trkpt><trkpt lat="45.58265471948195" lon="9.194755910997594"><ele>172.0</ele><time>2026-04-12T08:58:01Z</time></trkpt><trkpt lat="45.582766634251286" lon="9.194800634682286"><ele>172.0</ele><time>2026-04-12T08:58:02Z</time></trkpt><trkpt lat="45.58287653319725" lon="9.19483508391641"><ele>171.8</ele><time>2026-04-12T08:58:03Z</time></trkpt><trkpt lat="45.582984318507336" lon="9.194872912665879"><ele>171.6</ele><time>2026-04-12T08:58:04Z</time></trkpt><trkpt lat="45.58308087292465" lon="9.194901311600086"><ele>171.4</ele><time>2026-04-12T08:58:05Z</time></trkpt><trkpt lat="45.5831565451045" lon="9.194918845846269"><ele>171.20000000000002</ele><time>2026-04-12T08:58:06Z</time></trkpt><trkpt lat="45.58325740980928" lon="9.194961202856387"><ele>171.0</ele><time>2026-04-12T08:58:08Z</time></trkpt><trkpt lat="45.58332074868762" lon="9.194984798919586"><ele>171.0</ele><time>2026-04-12T08:58:09Z</time></trkpt><trkpt lat="45.58341235608037" lon="9.195012098855441"><ele>171.0</ele><time>2026-04-12T08:58:10Z</time></trkpt><trkpt lat="45.5835240811282" lon="9.195045849435823"><ele>171.0</ele><time>2026-04-12T08:58:11Z</time></trkpt><trkpt lat="45.583655055031876" lon="9.19509425102871"><ele>171.0</ele><time>2026-04-12T08:58:12Z</time></trkpt><trkpt lat="45.58379892688613" lon="9.19514672925836"><ele>171.33333333333334</ele><time>2026-04-12T08:58:13Z</time></trkpt><trkpt lat="45.5839476137649" lon="9.19520019037433"><ele>171.66666666666669</ele><time>2026-04-12T08:58:14Z</time></trkpt><trkpt lat="45.584103842085604" lon="9.195250165738287"><ele>172.0</ele><time>2026-04-12T08:58:15Z</time></trkpt><trkpt lat="45.5842628875304" lon="9.195307837844135"><ele>172.0</ele><time>2026-04-12T08:58:16Z</time></trkpt><trkpt lat="45.58442445691865" lon="9.195369261311885"><ele>172.0</ele><time>2026-04-12T08:58:17Z</time></trkpt><trkpt lat="45.58459155790521" lon="9.195428883394948"><ele>172.0</ele><time>2026-04-12T08:58:18Z</time></trkpt><trkpt lat="45.58476174373318" lon="9.195482987695849"><ele>172.0</ele><time>2026-04-12T08:58:19Z</time></trkpt><trkpt lat="45.584926452647224" lon="9.195533489158548"><ele>172.0</ele><time>2026-04-12T08:58:20Z</time></trkpt><trkpt lat="45.58509178366129" lon="9.195592251472645"><ele>172.0</ele><time>2026-04-12T08:58:21Z</time></trkpt><trkpt lat="45.58525386218394" lon="9.195646823067941"><ele>171.75</ele><time>2026-04-12T08:58:22Z</time></trkpt><trkpt lat="45.58540558341184" lon="9.195698778903738"><ele>171.5</ele><time>2026-04-12T08:58:23Z</time></trkpt><trkpt lat="45.58554871817156" lon="9.195748180377754"><ele>171.25</ele><time>2026-04-12T08:58:24Z</time></trkpt><trkpt lat="45.58568837357264" lon="9.195797613916548"><ele>171.0</ele><time>2026-04-12T08:58:25Z</time></trkpt><trkpt lat="45.58581954646683" lon="9.195843711185304"><ele>171.0</ele><time>2026-04-12T08:58:26Z</time></trkpt><trkpt lat="45.58594212076165" lon="9.195884837155338"><ele>171.0</ele><time>2026-04-12T08:58:27Z</time></trkpt><trkpt lat="45.58605358254348" lon="9.195923075240104"><ele>171.0</ele><time>2026-04-12T08:58:28Z</time></trkpt><trkpt lat="45.58615027131006" lon="9.195958671460643"><ele>171.0</ele><time>2026-04-12T08:58:29Z</time></trkpt><trkpt lat="45.58623612979944" lon="9.195992026945346"><ele>171.0</ele><time>2026-04-12T08:58:30Z</time></trkpt><trkpt lat="45.58631101708226" lon="9.196018640794938"><ele>171.33333333333334</ele><time>2026-04-12T08:58:31Z</time></trkpt><trkpt lat="45.586374726587316" lon="9.196041473409318"><ele>171.66666666666666</ele><time>2026-04-12T08:58:32Z</time></trkpt><trkpt lat="45.5864637366678" lon="9.196072616794469"><ele>172.0</ele><time>2026-04-12T08:58:34Z</time></trkpt><trkpt lat="45.58653180843534" lon="9.196098183717876"><ele>172.33333333333331</ele><time>2026-04-12T08:58:37Z</time></trkpt><trkpt lat="45.586623115790516" lon="9.196137770332854"><ele>172.66666666666666</ele><time>2026-04-12T08:59:03Z</time></trkpt><trkpt lat="45.5866889491899" lon="9.196160437776545"><ele>173.0</ele><time>2026-04-12T08:59:04Z</time></trkpt><trkpt lat="45.58676578629887" lon="9.196188730616043"><ele>173.0</ele><time>2026-04-12T08:59:05Z</time></trkpt><trkpt lat="45.58685026977276" lon="9.196217727350636"><ele>173.0</ele><time>2026-04-12T08:59:06Z</time></trkpt><trkpt lat="45.586935981147086" lon="9.196245313192515"><ele>173.0</ele><time>2026-04-12T08:59:07Z</time></trkpt><trkpt lat="45.58702831525188" lon="9.196277037187867"><ele>173.0</ele><time>2026-04-12T08:59:08Z</time></trkpt><trkpt lat="45.587122948844865" lon="9.196307126550082"><ele>173.0</ele><time>2026-04-12T08:59:09Z</time></trkpt><trkpt lat="45.587226197533724" lon="9.196337088263071"><ele>174.0</ele><time>2026-04-12T08:59:10Z</time></trkpt><trkpt lat="45.58733076660026" lon="9.196367453446696"><ele>175.0</ele><time>2026-04-12T08:59:11Z</time></trkpt><trkpt lat="45.58743374308509" lon="9.196398273256335"><ele>176.0</ele><time>2026-04-12T08:59:12Z</time></trkpt><trkpt lat="45.587536099698895" lon="9.196429875904654"><ele>177.0</ele><time>2026-04-12T08:59:13Z</time></trkpt><trkpt lat="45.58763927544336" lon="9.196460355579175"><ele>178.0</ele><time>2026-04-12T08:59:14Z</time></trkpt><trkpt lat="45.587742646522265" lon="9.196497217694496"><ele>177.8</ele><time>2026-04-12T08:59:15Z</time></trkpt><trkpt lat="45.58784435709787" lon="9.196528306506915"><ele>177.60000000000002</ele><time>2026-04-12T08:59:16Z</time></trkpt><trkpt lat="45.5879501534818" lon="9.196562932580123"><ele>177.39999999999998</ele><time>2026-04-12T08:59:17Z</time></trkpt><trkpt lat="45.588052025603744" lon="9.19659832284443"><ele>177.2</ele><time>2026-04-12T08:59:18Z</time></trkpt><trkpt lat="45.588148251655916" lon="9.196633667647866"><ele>177.0</ele><time>2026-04-12T08:59:19Z</time></trkpt><trkpt lat="45.58823869712775" lon="9.196663352339378"><ele>177.0</ele><time>2026-04-12T08:59:20Z</time></trkpt><trkpt lat="45.58833099976812" lon="9.196694380470595"><ele>177.0</ele><time>2026-04-12T08:59:21Z</time></trkpt><trkpt lat="45.58842830482403" lon="9.196725467775362"><ele>177.0</ele><time>2026-04-12T08:59:22Z</time></trkpt><trkpt lat="45.5885315533437" lon="9.196764856487887"><ele>177.0</ele><time>2026-04-12T08:59:23Z</time></trkpt><trkpt lat="45.588632194759704" lon="9.196800721923088"><ele>177.0</ele><time>2026-04-12T08:59:24Z</time></trkpt><trkpt lat="45.5887388439338" lon="9.196839333109425"><ele>177.0</ele><time>2026-04-12T08:59:25.001Z</time></trkpt><trkpt lat="45.588845810656316" lon="9.196867981536723"><ele>177.0</ele><time>2026-04-12T08:59:26.001Z</time></trkpt><trkpt lat="45.58895716433287" lon="9.196896253535416"><ele>177.0</ele><time>2026-04-12T08:59:27.001Z</time></trkpt><trkpt lat="45.5890671556012" lon="9.196926910631648"><ele>177.0</ele><time>2026-04-12T08:59:28.001Z</time></trkpt><trkpt lat="45.5891822032119" lon="9.196961658629437"><ele>177.0</ele><time>2026-04-12T08:59:29.001Z</time></trkpt><trkpt lat="45.58929468240085" lon="9.196995761301903"><ele>177.0</ele><time>2026-04-12T08:59:30.001Z</time></trkpt><trkpt lat="45.58938765607153" lon="9.197032125243288"><ele>177.0</ele><time>2026-04-12T08:59:31.001Z</time></trkpt><trkpt lat="45.589455982430636" lon="9.197058811518527"><ele>177.0</ele><time>2026-04-12T08:59:32.001Z</time></trkpt><trkpt lat="45.58953036103591" lon="9.197088131572182"><ele>177.0</ele><time>2026-04-12T08:59:34.001Z</time></trkpt><trkpt lat="45.58960898983532" lon="9.197113549963182"><ele>177.0</ele><time>2026-04-12T08:59:41.001Z</time></trkpt><trkpt lat="45.58970301055199" lon="9.197137206816727"><ele>177.0</ele><time>2026-04-12T08:59:43.001Z</time></trkpt><trkpt lat="45.589829726873525" lon="9.197180650771648"><ele>177.0</ele><time>2026-04-12T08:59:45.001Z</time></trkpt><trkpt lat="45.58990284162303" lon="9.19721026166323"><ele>177.0</ele><time>2026-04-12T08:59:46.001Z</time></trkpt><trkpt lat="45.58998217428818" lon="9.197245136096528"><ele>177.0</ele><time>2026-04-12T08:59:47.001Z</time></trkpt><trkpt lat="45.59007282466383" lon="9.19727464913165"><ele>177.0</ele><time>2026-04-12T08:59:48.001Z</time></trkpt><trkpt lat="45.590163580580125" lon="9.197310022114427"><ele>177.0</ele><time>2026-04-12T08:59:49.001Z</time></trkpt><trkpt lat="45.59025993828273" lon="9.19734818318008"><ele>177.0</ele><time>2026-04-12T08:59:50.001Z</time></trkpt><trkpt lat="45.590365589074736" lon="9.197386320253463"><ele>177.0</ele><time>2026-04-12T08:59:51Z</time></trkpt><trkpt lat="45.5904795111159" lon="9.197429288871811"><ele>177.0</ele><time>2026-04-12T08:59:52Z</time></trkpt><trkpt lat="45.59059871649203" lon="9.197473535257926"><ele>177.25</ele><time>2026-04-12T08:59:53Z</time></trkpt><trkpt lat="45.590726297216605" lon="9.19751946605596"><ele>177.5</ele><time>2026-04-12T08:59:54Z</time></trkpt><trkpt lat="45.59085584822657" lon="9.197566022678288"><ele>177.75</ele><time>2026-04-12T08:59:55Z</time></trkpt><trkpt lat="45.5909893266933" lon="9.19761023051815"><ele>178.0</ele><time>2026-04-12T08:59:56Z</time></trkpt><trkpt lat="45.59112486739473" lon="9.197657895036505"><ele>178.0</ele><time>2026-04-12T08:59:57Z</time></trkpt><trkpt lat="45.591256782739656" lon="9.197703168567708"><ele>178.0</ele><time>2026-04-12T08:59:58Z</time></trkpt><trkpt lat="45.591381518880844" lon="9.197744010952533"><ele>178.0</ele><time>2026-04-12T08:59:59Z</time></trkpt><trkpt lat="45.5914986506964" lon="9.197787488686608"><ele>178.0</ele><time>2026-04-12T09:00:00Z</time></trkpt><trkpt lat="45.59160970110791" lon="9.19782991842143"><ele>178.0</ele><time>2026-04-12T09:00:01Z</time></trkpt><trkpt lat="45.591705698719885" lon="9.197869320914299"><ele>178.0</ele><time>2026-04-12T09:00:02Z</time></trkpt><trkpt lat="45.59178746361609" lon="9.19790968748692"><ele>178.0</ele><time>2026-04-12T09:00:03Z</time></trkpt><trkpt lat="45.5918483044744" lon="9.197942585147269"><ele>178.0</ele><time>2026-04-12T09:00:04Z</time></trkpt><trkpt lat="45.5919129567528" lon="9.197973739607988"><ele>178.0</ele><time>2026-04-12T09:00:21Z</time></trkpt><trkpt lat="45.59204169362784" lon="9.198019693310583"><ele>177.8</ele><time>2026-04-12T09:00:23Z</time></trkpt><trkpt lat="45.59212863089734" lon="9.198036915054734"><ele>177.60000000000002</ele><time>2026-04-12T09:00:24Z</time></trkpt><trkpt lat="45.59221613859116" lon="9.198054033596273"><ele>177.39999999999998</ele><time>2026-04-12T09:00:25Z</time></trkpt><trkpt lat="45.592334708677136" lon="9.198075381619725"><ele>177.2</ele><time>2026-04-12T09:00:26Z</time></trkpt><trkpt lat="45.59246228329525" lon="9.19811467200595"><ele>177.0</ele><time>2026-04-12T09:00:27Z</time></trkpt><trkpt lat="45.59259039350087" lon="9.198156815218587"><ele>177.0</ele><time>2026-04-12T09:00:28Z</time></trkpt><trkpt lat="45.59271989201781" lon="9.198196330597652"><ele>177.0</ele><time>2026-04-12T09:00:29Z</time></trkpt><trkpt lat="45.592855555156625" lon="9.198238120154015"><ele>177.0</ele><time>2026-04-12T09:00:30Z</time></trkpt><trkpt lat="45.592990184195486" lon="9.1982813964754"><ele>177.0</ele><time>2026-04-12T09:00:31Z</time></trkpt><trkpt lat="45.593130318483134" lon="9.198323658726363"><ele>177.0</ele><time>2026-04-12T09:00:32Z</time></trkpt><trkpt lat="45.59327928106704" lon="9.198371812801634"><ele>177.0</ele><time>2026-04-12T09:00:33Z</time></trkpt><trkpt lat="45.59341395939326" lon="9.198418452272643"><ele>177.0</ele><time>2026-04-12T09:00:34Z</time></trkpt><trkpt lat="45.59354165067078" lon="9.198465879992728"><ele>177.0</ele><time>2026-04-12T09:00:35Z</time></trkpt><trkpt lat="45.59366250382792" lon="9.198509964036402"><ele>177.75</ele><time>2026-04-12T09:00:36Z</time></trkpt><trkpt lat="45.59379199415357" lon="9.198550351735584"><ele>178.5</ele><time>2026-04-12T09:00:37Z</time></trkpt><trkpt lat="45.593919945640586" lon="9.198593326456994"><ele>179.25</ele><time>2026-04-12T09:00:38Z</time></trkpt><trkpt lat="45.594053970783875" lon="9.198636809337504"><ele>180.0</ele><time>2026-04-12T09:00:39Z</time></trkpt><trkpt lat="45.594188192208385" lon="9.198674085855147"><ele>180.0</ele><time>2026-04-12T09:00:40Z</time></trkpt><trkpt lat="45.59432657170989" lon="9.198713696539999"><ele>180.0</ele><time>2026-04-12T09:00:41Z</time></trkpt><trkpt lat="45.59446253210666" lon="9.198752174774402"><ele>180.0</ele><time>2026-04-12T09:00:42Z</time></trkpt><trkpt lat="45.59457907208182" lon="9.198787329469981"><ele>180.0</ele><time>2026-04-12T09:00:43Z</time></trkpt><trkpt lat="45.594683415359725" lon="9.198817895816877"><ele>179.83333333333334</ele><time>2026-04-12T09:00:44Z</time></trkpt><trkpt lat="45.59476825668802" lon="9.198842352109745"><ele>179.66666666666666</ele><time>2026-04-12T09:00:45Z</time></trkpt><trkpt lat="45.59484849553209" lon="9.198861235209039"><ele>179.5</ele><time>2026-04-12T09:00:46Z</time></trkpt><trkpt lat="45.5949228906586" lon="9.198885781155065"><ele>179.33333333333331</ele><time>2026-04-12T09:00:47Z</time></trkpt><trkpt lat="45.59499132165157" lon="9.198912743159843"><ele>179.16666666666666</ele><time>2026-04-12T09:00:48Z</time></trkpt><trkpt lat="45.595053818316025" lon="9.198951066748489"><ele>179.0</ele><time>2026-04-12T09:00:49Z</time></trkpt><trkpt lat="45.59511760406993" lon="9.198983509067432"><ele>179.39999999999998</ele><time>2026-04-12T09:00:50Z</time></trkpt><trkpt lat="45.595187692536705" lon="9.199014707030026"><ele>179.8</ele><time>2026-04-12T09:00:51Z</time></trkpt><trkpt lat="45.595294636508385" lon="9.19903736861993"><ele>180.2</ele><time>2026-04-12T09:00:53Z</time></trkpt><trkpt lat="45.59536561519495" lon="9.199066892615976"><ele>180.60000000000002</ele><time>2026-04-12T09:00:55Z</time></trkpt><trkpt lat="45.595470349310695" lon="9.199091557559793"><ele>181.0</ele><time>2026-04-12T09:01:03Z</time></trkpt><trkpt lat="45.59555994773819" lon="9.199112110033145"><ele>181.0</ele><time>2026-04-12T09:01:04Z</time></trkpt><trkpt lat="45.59566747711309" lon="9.199143477053322"><ele>181.0</ele><time>2026-04-12T09:01:05Z</time></trkpt><trkpt lat="45.59578818370442" lon="9.199175107450245"><ele>181.0</ele><time>2026-04-12T09:01:06Z</time></trkpt><trkpt lat="45.59591782076268" lon="9.199223583827843"><ele>181.0</ele><time>2026-04-12T09:01:07Z</time></trkpt><trkpt lat="45.596058476140286" lon="9.199261456715185"><ele>181.0</ele><time>2026-04-12T09:01:08Z</time></trkpt><trkpt lat="45.596203379547916" lon="9.199303501425524"><ele>181.0</ele><time>2026-04-12T09:01:09Z</time></trkpt><trkpt lat="45.596362215564824" lon="9.199353203493393"><ele>181.0</ele><time>2026-04-12T09:01:10Z</time></trkpt><trkpt lat="45.59652328292091" lon="9.199406022824158"><ele>181.0</ele><time>2026-04-12T09:01:11Z</time></trkpt><trkpt lat="45.5966710043639" lon="9.199459604821017"><ele>181.0</ele><time>2026-04-12T09:01:12Z</time></trkpt><trkpt lat="45.59678653064791" lon="9.199503851643248"><ele>181.0</ele><time>2026-04-12T09:01:13.001Z</time></trkpt><trkpt lat="45.59689356904134" lon="9.199541803196263"><ele>181.0</ele><time>2026-04-12T09:01:14.001Z</time></trkpt><trkpt lat="45.59700770798148" lon="9.199578888594658"><ele>181.0</ele><time>2026-04-12T09:01:15.001Z</time></trkpt><trkpt lat="45.597129605428684" lon="9.199613531670979"><ele>181.0</ele><time>2026-04-12T09:01:16.001Z</time></trkpt><trkpt lat="45.59725767278351" lon="9.199656791637125"><ele>181.0</ele><time>2026-04-12T09:01:17.001Z</time></trkpt><trkpt lat="45.597370560049164" lon="9.199693345639494"><ele>181.0</ele><time>2026-04-12T09:01:18.001Z</time></trkpt><trkpt lat="45.597483932592176" lon="9.199723387774405"><ele>181.0</ele><time>2026-04-12T09:01:19.001Z</time></trkpt><trkpt lat="45.597595889054595" lon="9.199738600697076"><ele>181.0</ele><time>2026-04-12T09:01:20.001Z</time></trkpt><trkpt lat="45.59770916011889" lon="9.199751150070863"><ele>181.0</ele><time>2026-04-12T09:01:21.001Z</time></trkpt><trkpt lat="45.597815959853456" lon="9.199806446968614"><ele>181.0</ele><time>2026-04-12T09:01:22.001Z</time></trkpt><trkpt lat="45.59791955099097" lon="9.199840673303468"><ele>181.0</ele><time>2026-04-12T09:01:23.001Z</time></trkpt><trkpt lat="45.59802328105958" lon="9.199851812645939"><ele>181.0</ele><time>2026-04-12T09:01:24.001Z</time></trkpt><trkpt lat="45.5981178373904" lon="9.199885782752888"><ele>181.0</ele><time>2026-04-12T09:01:25.001Z</time></trkpt><trkpt lat="45.598204795880804" lon="9.19991825253404"><ele>181.0</ele><time>2026-04-12T09:01:26.001Z</time></trkpt><trkpt lat="45.59828657527247" lon="9.199950509297322"><ele>181.0</ele><time>2026-04-12T09:01:27.001Z</time></trkpt><trkpt lat="45.59836439228645" lon="9.199978665360511"><ele>181.0</ele><time>2026-04-12T09:01:28.001Z</time></trkpt><trkpt lat="45.59843629529555" lon="9.200004402107444"><ele>181.0</ele><time>2026-04-12T09:01:29.001Z</time></trkpt><trkpt lat="45.59851203450258" lon="9.200029848712688"><ele>181.0</ele><time>2026-04-12T09:01:30.001Z</time></trkpt><trkpt lat="45.59859438007623" lon="9.200052973894204"><ele>181.0</ele><time>2026-04-12T09:01:31.001Z</time></trkpt><trkpt lat="45.59867891369684" lon="9.200079704083356"><ele>181.0</ele><time>2026-04-12T09:01:32.001Z</time></trkpt><trkpt lat="45.5987679524214" lon="9.200108630372606"><ele>181.0</ele><time>2026-04-12T09:01:33.001Z</time></trkpt><trkpt lat="45.59886073611817" lon="9.20013858068128"><ele>181.0</ele><time>2026-04-12T09:01:34.001Z</time></trkpt><trkpt lat="45.59895784256741" lon="9.200169146734584"><ele>181.4</ele><time>2026-04-12T09:01:35.001Z</time></trkpt><trkpt lat="45.599058567555105" lon="9.200199307890092"><ele>181.8</ele><time>2026-04-12T09:01:36.001Z</time></trkpt><trkpt lat="45.59916089994375" lon="9.200231777372059"><ele>182.20000000000002</ele><time>2026-04-12T09:01:37.001Z</time></trkpt><trkpt lat="45.59926710509776" lon="9.200264995160436"><ele>182.60000000000002</ele><time>2026-04-12T09:01:38.001Z</time></trkpt><trkpt lat="45.59937120383207" lon="9.200292823018183"><ele>183.0</ele><time>2026-04-12T09:01:39.001Z</time></trkpt><trkpt lat="45.59946311334719" lon="9.200342191295507"><ele>183.0</ele><time>2026-04-12T09:01:40.001Z</time></trkpt><trkpt lat="45.59955084435388" lon="9.200370373536897"><ele>183.0</ele><time>2026-04-12T09:01:41.001Z</time></trkpt><trkpt lat="45.599641318330654" lon="9.20039985509591"><ele>183.0</ele><time>2026-04-12T09:01:43.001Z</time></trkpt><trkpt lat="45.59970783507557" lon="9.200421283591876"><ele>183.0</ele><time>2026-04-12T09:02:09Z</time></trkpt><trkpt lat="45.599808540463705" lon="9.200453541700673"><ele>183.0</ele><time>2026-04-12T09:02:11Z</time></trkpt><trkpt lat="45.599870455945315" lon="9.200473374557701"><ele>183.0</ele><time>2026-04-12T09:02:12Z</time></trkpt><trkpt lat="45.59994638514681" lon="9.200497696249736"><ele>183.0</ele><time>2026-04-12T09:02:13Z</time></trkpt><trkpt lat="45.6000193967539" lon="9.200521083497218"><ele>183.0</ele><time>2026-04-12T09:02:14Z</time></trkpt><trkpt lat="45.600096652140984" lon="9.200545830081124"><ele>183.0</ele><time>2026-04-12T09:02:15Z</time></trkpt><trkpt lat="45.6001742376417" lon="9.200569223853687"><ele>183.0</ele><time>2026-04-12T09:02:16Z</time></trkpt><trkpt lat="45.60024241956486" lon="9.200588680432586"><ele>183.0</ele><time>2026-04-12T09:02:17Z</time></trkpt><trkpt lat="45.60030771517173" lon="9.200607152941117"><ele>183.0</ele><time>2026-04-12T09:02:18Z</time></trkpt><trkpt lat="45.60042799506993" lon="9.20061490712573"><ele>183.0</ele><time>2026-04-12T09:02:20Z</time></trkpt><trkpt lat="45.6005457530317" lon="9.200655352642173"><ele>183.0</ele><time>2026-04-12T09:02:22Z</time></trkpt><trkpt lat="45.60060696997135" lon="9.20068190293303"><ele>183.0</ele><time>2026-04-12T09:02:23Z</time></trkpt><trkpt lat="45.60067625163829" lon="9.200717742080592"><ele>183.0</ele><time>2026-04-12T09:02:24Z</time></trkpt><trkpt lat="45.60077680623044" lon="9.200768595595608"><ele>183.0</ele><time>2026-04-12T09:02:25Z</time></trkpt><trkpt lat="45.60091682340138" lon="9.20082502089342"><ele>183.33333333333334</ele><time>2026-04-12T09:02:26Z</time></trkpt><trkpt lat="45.60108087170748" lon="9.200875198731042"><ele>183.66666666666669</ele><time>2026-04-12T09:02:27Z</time></trkpt><trkpt lat="45.60125927538551" lon="9.200923333418526"><ele>184.0</ele><time>2026-04-12T09:02:28Z</time></trkpt><trkpt lat="45.601421403438415" lon="9.200965200521255"><ele>184.5</ele><time>2026-04-12T09:02:29Z</time></trkpt><trkpt lat="45.60156167971224" lon="9.200991237066264"><ele>185.0</ele><time>2026-04-12T09:02:30Z</time></trkpt><trkpt lat="45.60170863954774" lon="9.201043783237688"><ele>185.5</ele><time>2026-04-12T09:02:31Z</time></trkpt><trkpt lat="45.60184375581447" lon="9.201088696432254"><ele>186.0</ele><time>2026-04-12T09:02:32Z</time></trkpt><trkpt lat="45.60198105266158" lon="9.201134877770588"><ele>185.75</ele><time>2026-04-12T09:02:33Z</time></trkpt><trkpt lat="45.602121772098165" lon="9.201168945563253"><ele>185.5</ele><time>2026-04-12T09:02:34Z</time></trkpt><trkpt lat="45.602262810319885" lon="9.201239542061245"><ele>185.25</ele><time>2026-04-12T09:02:35Z</time></trkpt><trkpt lat="45.602405380316426" lon="9.201302074400157"><ele>185.0</ele><time>2026-04-12T09:02:36Z</time></trkpt><trkpt lat="45.60254919486932" lon="9.201345167669373"><ele>185.0</ele><time>2026-04-12T09:02:37Z</time></trkpt><trkpt lat="45.60267841129938" lon="9.201380916540513"><ele>185.0</ele><time>2026-04-12T09:02:38Z</time></trkpt><trkpt lat="45.60280444689156" lon="9.201418594556888"><ele>185.0</ele><time>2026-04-12T09:02:39Z</time></trkpt><trkpt lat="45.60291061965236" lon="9.201453637669141"><ele>185.0</ele><time>2026-04-12T09:02:40Z</time></trkpt><trkpt lat="45.60300145241004" lon="9.201482005539269"><ele>185.16666666666666</ele><time>2026-04-12T09:02:41Z</time></trkpt><trkpt lat="45.60308306889406" lon="9.201508296590806"><ele>185.33333333333331</ele><time>2026-04-12T09:02:42Z</time></trkpt><trkpt lat="45.60315373589454" lon="9.201531995173397"><ele>185.5</ele><time>2026-04-12T09:02:43Z</time></trkpt><trkpt lat="45.603215450771636" lon="9.201551781395134"><ele>185.66666666666666</ele><time>2026-04-12T09:02:44Z</time></trkpt><trkpt lat="45.6033066069903" lon="9.201581248136446"><ele>185.83333333333334</ele><time>2026-04-12T09:02:46Z</time></trkpt><trkpt lat="45.60340954014375" lon="9.201592487191771"><ele>186.0</ele><time>2026-04-12T09:02:49.001Z</time></trkpt><trkpt lat="45.603526028683085" lon="9.20161340231795"><ele>186.00000000000003</ele><time>2026-04-12T09:02:51.001Z</time></trkpt><trkpt lat="45.60359508007651" lon="9.2016387201049"><ele>186.0</ele><time>2026-04-12T09:02:52.001Z</time></trkpt><trkpt lat="45.60366777000939" lon="9.20166477909557"><ele>186.0</ele><time>2026-04-12T09:02:53.001Z</time></trkpt><trkpt lat="45.603743656100086" lon="9.201688760839358"><ele>186.0</ele><time>2026-04-12T09:02:54.001Z</time></trkpt><trkpt lat="45.603808824044336" lon="9.201710020725901"><ele>186.0</ele><time>2026-04-12T09:02:55.001Z</time></trkpt><trkpt lat="45.603871746574164" lon="9.20173097925043"><ele>186.00000000000003</ele><time>2026-04-12T09:02:56.001Z</time></trkpt><trkpt lat="45.60394110813551" lon="9.201768840093251"><ele>186.0</ele><time>2026-04-12T09:02:58.001Z</time></trkpt><trkpt lat="45.60404418984168" lon="9.201803496550896"><ele>185.75</ele><time>2026-04-12T09:03:15.001Z</time></trkpt><trkpt lat="45.60413044335381" lon="9.201830559499447"><ele>185.5</ele><time>2026-04-12T09:03:16.001Z</time></trkpt><trkpt lat="45.60422935219767" lon="9.201865902539675"><ele>185.25</ele><time>2026-04-12T09:03:17.001Z</time></trkpt><trkpt lat="45.60435890838687" lon="9.201908775707567"><ele>185.0</ele><time>2026-04-12T09:03:18.001Z</time></trkpt><trkpt lat="45.604491938524475" lon="9.201947313902561"><ele>185.66666666666666</ele><time>2026-04-12T09:03:19.001Z</time></trkpt><trkpt lat="45.604647526788476" lon="9.201994689423639"><ele>186.33333333333334</ele><time>2026-04-12T09:03:20.001Z</time></trkpt><trkpt lat="45.6048062726331" lon="9.202046837799484"><ele>187.0</ele><time>2026-04-12T09:03:21.001Z</time></trkpt><trkpt lat="45.60497095872621" lon="9.20210812776758"><ele>187.0</ele><time>2026-04-12T09:03:22.001Z</time></trkpt><trkpt lat="45.605146128623176" lon="9.20216090813366"><ele>187.0</ele><time>2026-04-12T09:03:23.001Z</time></trkpt><trkpt lat="45.605321882065276" lon="9.202217677668093"><ele>187.0</ele><time>2026-04-12T09:03:24.001Z</time></trkpt><trkpt lat="45.60549951441144" lon="9.202272334289242"><ele>187.33333333333334</ele><time>2026-04-12T09:03:25.001Z</time></trkpt><trkpt lat="45.605680222583274" lon="9.202332539708513"><ele>187.66666666666666</ele><time>2026-04-12T09:03:26.001Z</time></trkpt><trkpt lat="45.6058554592715" lon="9.202390808076439"><ele>188.0</ele><time>2026-04-12T09:03:27.001Z</time></trkpt><trkpt lat="45.606026373276386" lon="9.202438658541837"><ele>188.0</ele><time>2026-04-12T09:03:28.001Z</time></trkpt><trkpt lat="45.60619556415104" lon="9.202469750522548"><ele>188.0</ele><time>2026-04-12T09:03:29.001Z</time></trkpt><trkpt lat="45.60636784016585" lon="9.20247144505723"><ele>188.0</ele><time>2026-04-12T09:03:30.001Z</time></trkpt><trkpt lat="45.606538894671175" lon="9.202442291986335"><ele>188.0</ele><time>2026-04-12T09:03:31.001Z</time></trkpt><trkpt lat="45.606708509660194" lon="9.202399405262796"><ele>188.0</ele><time>2026-04-12T09:03:32.001Z</time></trkpt><trkpt lat="45.60688305663912" lon="9.202353777637443"><ele>188.0</ele><time>2026-04-12T09:03:33.001Z</time></trkpt><trkpt lat="45.60705661241317" lon="9.202316321636383"><ele>188.66666666666666</ele><time>2026-04-12T09:03:34.001Z</time></trkpt><trkpt lat="45.60722962172545" lon="9.202283781481563"><ele>189.33333333333334</ele><time>2026-04-12T09:03:35.001Z</time></trkpt><trkpt lat="45.60740341617794" lon="9.20225235001813"><ele>190.0</ele><time>2026-04-12T09:03:36.001Z</time></trkpt><trkpt lat="45.60757016655322" lon="9.202219561065974"><ele>190.0</ele><time>2026-04-12T09:03:37.001Z</time></trkpt><trkpt lat="45.60772599265381" lon="9.202184765617396"><ele>190.0</ele><time>2026-04-12T09:03:38.001Z</time></trkpt><trkpt lat="45.60787478252274" lon="9.202153216545314"><ele>190.0</ele><time>2026-04-12T09:03:39.001Z</time></trkpt><trkpt lat="45.60801935249312" lon="9.202125174588778"><ele>190.4</ele><time>2026-04-12T09:03:40.001Z</time></trkpt><trkpt lat="45.60815885259679" lon="9.202099946330542"><ele>190.8</ele><time>2026-04-12T09:03:41.001Z</time></trkpt><trkpt lat="45.60827045784107" lon="9.202078648529445"><ele>191.2</ele><time>2026-04-12T09:03:42.001Z</time></trkpt><trkpt lat="45.608349486927985" lon="9.202062190887032"><ele>191.6</ele><time>2026-04-12T09:03:43.001Z</time></trkpt><trkpt lat="45.60844393276071" lon="9.202025713895154"><ele>192.0</ele><time>2026-04-12T09:03:45.001Z</time></trkpt><trkpt lat="45.60856413794971" lon="9.202024730313251"><ele>191.99999999999997</ele><time>2026-04-12T09:03:47.001Z</time></trkpt><trkpt lat="45.60863891653042" lon="9.202009445402329"><ele>192.0</ele><time>2026-04-12T09:03:48.001Z</time></trkpt><trkpt lat="45.60871203657564" lon="9.201994499552335"><ele>192.0</ele><time>2026-04-12T09:03:49.001Z</time></trkpt><trkpt lat="45.608777155694014" lon="9.201981320447576"><ele>192.0</ele><time>2026-04-12T09:03:50.001Z</time></trkpt><trkpt lat="45.60884180884636" lon="9.201968227691058"><ele>192.0</ele><time>2026-04-12T09:03:51.001Z</time></trkpt><trkpt lat="45.60890186131297" lon="9.201935684613977"><ele>191.99999999999997</ele><time>2026-04-12T09:03:52.001Z</time></trkpt><trkpt lat="45.60900470881801" lon="9.201922837152821"><ele>192.0</ele><time>2026-04-12T09:03:54.001Z</time></trkpt><trkpt lat="45.609099854532495" lon="9.20191202933407"><ele>192.0</ele><time>2026-04-12T09:03:56.001Z</time></trkpt><trkpt lat="45.60922433232294" lon="9.201905396663053"><ele>192.0</ele><time>2026-04-12T09:03:58.001Z</time></trkpt><trkpt lat="45.60929769780435" lon="9.201888799192618"><ele>192.0</ele><time>2026-04-12T09:03:59.001Z</time></trkpt><trkpt lat="45.60937309713296" lon="9.201861424051675"><ele>192.0</ele><time>2026-04-12T09:04:00.001Z</time></trkpt><trkpt lat="45.60945582539673" lon="9.201835182522714"><ele>192.0</ele><time>2026-04-12T09:04:01.001Z</time></trkpt><trkpt lat="45.60954580439805" lon="9.201813853520434"><ele>191.8</ele><time>2026-04-12T09:04:02.001Z</time></trkpt><trkpt lat="45.60963827974463" lon="9.201791861931026"><ele>191.6</ele><time>2026-04-12T09:04:03.001Z</time></trkpt><trkpt lat="45.609732739941734" lon="9.201770544678231"><ele>191.4</ele><time>2026-04-12T09:04:04.001Z</time></trkpt><trkpt lat="45.60983340744163" lon="9.201749603906405"><ele>191.20000000000002</ele><time>2026-04-12T09:04:05.001Z</time></trkpt><trkpt lat="45.60993488544319" lon="9.20172856952082"><ele>191.0</ele><time>2026-04-12T09:04:06.001Z</time></trkpt><trkpt lat="45.61003863545293" lon="9.201707022848254"><ele>191.0</ele><time>2026-04-12T09:04:07.001Z</time></trkpt><trkpt lat="45.610147733461446" lon="9.201686257857547"><ele>191.0</ele><time>2026-04-12T09:04:08.001Z</time></trkpt><trkpt lat="45.61025065737607" lon="9.201663837378083"><ele>191.0</ele><time>2026-04-12T09:04:09.001Z</time></trkpt><trkpt lat="45.61034754077611" lon="9.201641787993488"><ele>191.0</ele><time>2026-04-12T09:04:10.001Z</time></trkpt><trkpt lat="45.61044644377123" lon="9.201622116987888"><ele>191.0</ele><time>2026-04-12T09:04:11.001Z</time></trkpt><trkpt lat="45.61054679626866" lon="9.201600784396996"><ele>191.4</ele><time>2026-04-12T09:04:12.001Z</time></trkpt><trkpt lat="45.610646798365146" lon="9.201580374209344"><ele>191.8</ele><time>2026-04-12T09:04:13.001Z</time></trkpt><trkpt lat="45.610741921479814" lon="9.20156213495618"><ele>192.20000000000002</ele><time>2026-04-12T09:04:14.001Z</time></trkpt><trkpt lat="45.61083797853168" lon="9.201537683229564"><ele>192.60000000000002</ele><time>2026-04-12T09:04:15.001Z</time></trkpt><trkpt lat="45.610925315610366" lon="9.201520487474507"><ele>193.0</ele><time>2026-04-12T09:04:16.001Z</time></trkpt><trkpt lat="45.61100160066148" lon="9.201506844348302"><ele>192.99999999999997</ele><time>2026-04-12T09:04:17.001Z</time></trkpt><trkpt lat="45.61110738123752" lon="9.201483314859132"><ele>193.0</ele><time>2026-04-12T09:04:19Z</time></trkpt><trkpt lat="45.611191294039735" lon="9.201467540894791"><ele>193.0</ele><time>2026-04-12T09:04:21Z</time></trkpt><trkpt lat="45.61130644964865" lon="9.20144649958149"><ele>193.0</ele><time>2026-04-12T09:04:23Z</time></trkpt><trkpt lat="45.61136988250987" lon="9.201440203775817"><ele>192.99999999999997</ele><time>2026-04-12T09:04:24Z</time></trkpt><trkpt lat="45.61143525675492" lon="9.201424545078822"><ele>193.0</ele><time>2026-04-12T09:04:25Z</time></trkpt><trkpt lat="45.61150235940324" lon="9.201407294758711"><ele>192.99999999999997</ele><time>2026-04-12T09:04:26Z</time></trkpt><trkpt lat="45.61156953197163" lon="9.201394029385224"><ele>193.0</ele><time>2026-04-12T09:04:27Z</time></trkpt><trkpt lat="45.61163950279967" lon="9.201381644563012"><ele>193.0</ele><time>2026-04-12T09:04:28Z</time></trkpt><trkpt lat="45.61171680293384" lon="9.201366310918235"><ele>193.0</ele><time>2026-04-12T09:04:29Z</time></trkpt><trkpt lat="45.61179576228962" lon="9.20134531459707"><ele>192.99999999999997</ele><time>2026-04-12T09:04:30Z</time></trkpt><trkpt lat="45.61188866091146" lon="9.201322964753121"><ele>193.0</ele><time>2026-04-12T09:04:31Z</time></trkpt><trkpt lat="45.611982141179276" lon="9.201303991477458"><ele>192.8</ele><time>2026-04-12T09:04:32Z</time></trkpt><trkpt lat="45.61207780035268" lon="9.201283166176779"><ele>192.60000000000002</ele><time>2026-04-12T09:04:33Z</time></trkpt><trkpt lat="45.612178959503424" lon="9.201264323044287"><ele>192.39999999999998</ele><time>2026-04-12T09:04:34Z</time></trkpt><trkpt lat="45.61228177438606" lon="9.201250295252292"><ele>192.2</ele><time>2026-04-12T09:04:35Z</time></trkpt><trkpt lat="45.61238676419587" lon="9.201239995508946"><ele>192.0</ele><time>2026-04-12T09:04:36Z</time></trkpt><trkpt lat="45.61249570921421" lon="9.201224943956257"><ele>192.0</ele><time>2026-04-12T09:04:37Z</time></trkpt><trkpt lat="45.612603381514404" lon="9.201210383508224"><ele>192.0</ele><time>2026-04-12T09:04:38Z</time></trkpt><trkpt lat="45.61271487767436" lon="9.201189083350751"><ele>192.0</ele><time>2026-04-12T09:04:39Z</time></trkpt><trkpt lat="45.61282615598241" lon="9.201169086013747"><ele>192.0</ele><time>2026-04-12T09:04:40Z</time></trkpt><trkpt lat="45.61293894424508" lon="9.201144686148355"><ele>192.0</ele><time>2026-04-12T09:04:41Z</time></trkpt><trkpt lat="45.613049455916354" lon="9.201122216153228"><ele>192.5</ele><time>2026-04-12T09:04:42Z</time></trkpt><trkpt lat="45.613163478941296" lon="9.201098330414876"><ele>193.0</ele><time>2026-04-12T09:04:43Z</time></trkpt><trkpt lat="45.61327745214854" lon="9.201074243833702"><ele>193.5</ele><time>2026-04-12T09:04:44Z</time></trkpt><trkpt lat="45.61339434865767" lon="9.201050223261593"><ele>194.0</ele><time>2026-04-12T09:04:45Z</time></trkpt><trkpt lat="45.613508230126186" lon="9.201029740436807"><ele>194.0</ele><time>2026-04-12T09:04:46Z</time></trkpt><trkpt lat="45.61361974752315" lon="9.201004828409861"><ele>194.0</ele><time>2026-04-12T09:04:47Z</time></trkpt><trkpt lat="45.61373170635824" lon="9.200980884505102"><ele>194.0</ele><time>2026-04-12T09:04:48Z</time></trkpt><trkpt lat="45.613837372409826" lon="9.200956908482734"><ele>194.0</ele><time>2026-04-12T09:04:49Z</time></trkpt><trkpt lat="45.61393466073506" lon="9.200938720358405"><ele>194.0</ele><time>2026-04-12T09:04:50Z</time></trkpt><trkpt lat="45.614016031935854" lon="9.200929669564273"><ele>194.2</ele><time>2026-04-12T09:04:51Z</time></trkpt><trkpt lat="45.614126323740365" lon="9.2009089706165"><ele>194.39999999999998</ele><time>2026-04-12T09:04:53Z</time></trkpt><trkpt lat="45.61421789102858" lon="9.200900746465145"><ele>194.6</ele><time>2026-04-12T09:04:55.001Z</time></trkpt><trkpt lat="45.61428111730933" lon="9.200906384376045"><ele>194.8</ele><time>2026-04-12T09:04:56.001Z</time></trkpt><trkpt lat="45.61443764910804" lon="9.200906151713616"><ele>195.0</ele><time>2026-04-12T09:04:58.001Z</time></trkpt><trkpt lat="45.61452720361289" lon="9.200868132813877"><ele>195.0</ele><time>2026-04-12T09:04:59.001Z</time></trkpt><trkpt lat="45.61462375055063" lon="9.200828540174697"><ele>195.0</ele><time>2026-04-12T09:05:00.001Z</time></trkpt><trkpt lat="45.61472377333016" lon="9.200798919963198"><ele>195.0</ele><time>2026-04-12T09:05:01.001Z</time></trkpt><trkpt lat="45.614830439611005" lon="9.200773460594633"><ele>195.0</ele><time>2026-04-12T09:05:02.001Z</time></trkpt><trkpt lat="45.61494280104649" lon="9.200747304250802"><ele>195.0</ele><time>2026-04-12T09:05:03.001Z</time></trkpt><trkpt lat="45.61505403537429" lon="9.20072102327961"><ele>195.0</ele><time>2026-04-12T09:05:04.001Z</time></trkpt><trkpt lat="45.615155266680084" lon="9.200698318902585"><ele>195.0</ele><time>2026-04-12T09:05:05.001Z</time></trkpt><trkpt lat="45.61525007403744" lon="9.20068096591648"><ele>195.0</ele><time>2026-04-12T09:05:06.001Z</time></trkpt><trkpt lat="45.61534605996052" lon="9.200662324216852"><ele>195.0</ele><time>2026-04-12T09:05:07.001Z</time></trkpt><trkpt lat="45.61543028953943" lon="9.20064446883085"><ele>195.0</ele><time>2026-04-12T09:05:08.001Z</time></trkpt><trkpt lat="45.615510751677924" lon="9.200625283240043"><ele>195.16666666666666</ele><time>2026-04-12T09:05:09.001Z</time></trkpt><trkpt lat="45.61559102040217" lon="9.20060612331986"><ele>195.33333333333331</ele><time>2026-04-12T09:05:10.001Z</time></trkpt><trkpt lat="45.615664778298374" lon="9.200592202250327"><ele>195.5</ele><time>2026-04-12T09:05:11.001Z</time></trkpt><trkpt lat="45.61573710236332" lon="9.200580701635543"><ele>195.66666666666666</ele><time>2026-04-12T09:05:12.001Z</time></trkpt><trkpt lat="45.615802464156765" lon="9.200574056100917"><ele>195.83333333333331</ele><time>2026-04-12T09:05:13.001Z</time></trkpt><trkpt lat="45.61591729254553" lon="9.200555225638016"><ele>196.0</ele><time>2026-04-12T09:05:15.001Z</time></trkpt><trkpt lat="45.61601173945477" lon="9.200544470159192"><ele>195.99999999999997</ele><time>2026-04-12T09:05:17.001Z</time></trkpt><trkpt lat="45.61611618869804" lon="9.200531458533945"><ele>196.0</ele><time>2026-04-12T09:05:19.001Z</time></trkpt><trkpt lat="45.61617830344053" lon="9.200508885111184"><ele>196.0</ele><time>2026-04-12T09:05:20.001Z</time></trkpt><trkpt lat="45.6162466716978" lon="9.200476206446558"><ele>196.0</ele><time>2026-04-12T09:05:21.001Z</time></trkpt><trkpt lat="45.61631674078636" lon="9.200439657275146"><ele>195.99999999999997</ele><time>2026-04-12T09:05:22.001Z</time></trkpt><trkpt lat="45.616393893621485" lon="9.200412320125373"><ele>196.0</ele><time>2026-04-12T09:05:23.001Z</time></trkpt><trkpt lat="45.6164781456048" lon="9.200393282389497"><ele>196.0</ele><time>2026-04-12T09:05:24.001Z</time></trkpt><trkpt lat="45.616561257721244" lon="9.200380256578308"><ele>196.0</ele><time>2026-04-12T09:05:25.001Z</time></trkpt><trkpt lat="45.616712391961016" lon="9.200346535324126"><ele>196.0</ele><time>2026-04-12T09:05:27.001Z</time></trkpt><trkpt lat="45.616784230941846" lon="9.200326173386982"><ele>196.0</ele><time>2026-04-12T09:05:28.001Z</time></trkpt><trkpt lat="45.61686321008272" lon="9.200303022580872"><ele>196.0</ele><time>2026-04-12T09:05:29.001Z</time></trkpt><trkpt lat="45.616948887085115" lon="9.200276438939424"><ele>196.16666666666666</ele><time>2026-04-12T09:05:30.001Z</time></trkpt><trkpt lat="45.617038178916665" lon="9.200251625268546"><ele>196.33333333333331</ele><time>2026-04-12T09:05:31.001Z</time></trkpt><trkpt lat="45.617124403606866" lon="9.200231913599328"><ele>196.5</ele><time>2026-04-12T09:05:32.001Z</time></trkpt><trkpt lat="45.61720992551936" lon="9.200217193020407"><ele>196.66666666666669</ele><time>2026-04-12T09:05:33.001Z</time></trkpt><trkpt lat="45.6172914634921" lon="9.200201536148091"><ele>196.83333333333334</ele><time>2026-04-12T09:05:34.001Z</time></trkpt><trkpt lat="45.6173712242432" lon="9.200181651561651"><ele>197.0</ele><time>2026-04-12T09:05:35.001Z</time></trkpt><trkpt lat="45.61745052573349" lon="9.200159206164622"><ele>197.0</ele><time>2026-04-12T09:05:36.001Z</time></trkpt><trkpt lat="45.617539516574276" lon="9.20013493034257"><ele>197.0</ele><time>2026-04-12T09:05:37.001Z</time></trkpt><trkpt lat="45.61763658167838" lon="9.200109445804905"><ele>197.0</ele><time>2026-04-12T09:05:38.001Z</time></trkpt><trkpt lat="45.617731441056236" lon="9.200089316534733"><ele>197.0</ele><time>2026-04-12T09:05:39.001Z</time></trkpt><trkpt lat="45.617820389998556" lon="9.200104039005163"><ele>197.0</ele><time>2026-04-12T09:05:40.001Z</time></trkpt><trkpt lat="45.61790200496492" lon="9.200086821223966"><ele>197.0</ele><time>2026-04-12T09:05:41.001Z</time></trkpt><trkpt lat="45.617964313081266" lon="9.200050308372937"><ele>197.0</ele><time>2026-04-12T09:05:42.001Z</time></trkpt><trkpt lat="45.61806300932112" lon="9.200036356945954"><ele>197.0</ele><time>2026-04-12T09:05:44.001Z</time></trkpt><trkpt lat="45.61815023218943" lon="9.200018700340271"><ele>197.0</ele><time>2026-04-12T09:05:46.001Z</time></trkpt><trkpt lat="45.618247839922645" lon="9.200000552888799"><ele>197.0</ele><time>2026-04-12T09:05:48.001Z</time></trkpt><trkpt lat="45.618378053744436" lon="9.19997901026017"><ele>197.0</ele><time>2026-04-12T09:05:50.001Z</time></trkpt><trkpt lat="45.61846526942527" lon="9.199961562559636"><ele>197.0</ele><time>2026-04-12T09:05:51.001Z</time></trkpt><trkpt lat="45.618565270628245" lon="9.199939876405317"><ele>197.0</ele><time>2026-04-12T09:05:52.001Z</time></trkpt><trkpt lat="45.61867228413705" lon="9.199916044038757"><ele>197.0</ele><time>2026-04-12T09:05:53.001Z</time></trkpt><trkpt lat="45.61879194474474" lon="9.199886786134005"><ele>197.0</ele><time>2026-04-12T09:05:54.001Z</time></trkpt><trkpt lat="45.61892008706975" lon="9.199853711285657"><ele>197.25</ele><time>2026-04-12T09:05:55.001Z</time></trkpt><trkpt lat="45.619064853939534" lon="9.199826852268526"><ele>197.5</ele><time>2026-04-12T09:05:56.001Z</time></trkpt><trkpt lat="45.61920972506246" lon="9.199800496364595"><ele>197.75</ele><time>2026-04-12T09:05:57.001Z</time></trkpt><trkpt lat="45.61935091213564" lon="9.199773239337453"><ele>198.0</ele><time>2026-04-12T09:05:58.001Z</time></trkpt><trkpt lat="45.61948534850741" lon="9.199745957066142"><ele>198.0</ele><time>2026-04-12T09:05:59.001Z</time></trkpt><trkpt lat="45.61961069124682" lon="9.199722003297888"><ele>198.0</ele><time>2026-04-12T09:06:00.001Z</time></trkpt><trkpt lat="45.61972972753407" lon="9.199700522403752"><ele>198.0</ele><time>2026-04-12T09:06:01.001Z</time></trkpt><trkpt lat="45.619844393936894" lon="9.199677949356806"><ele>198.0</ele><time>2026-04-12T09:06:02.001Z</time></trkpt><trkpt lat="45.619958778175594" lon="9.19965416263356"><ele>198.0</ele><time>2026-04-12T09:06:03.001Z</time></trkpt><trkpt lat="45.62007292828594" lon="9.199626148985596"><ele>198.0</ele><time>2026-04-12T09:06:04.001Z</time></trkpt><trkpt lat="45.62018053492902" lon="9.199604459472493"><ele>198.0</ele><time>2026-04-12T09:06:05.001Z</time></trkpt><trkpt lat="45.620284131146214" lon="9.199585128238633"><ele>198.0</ele><time>2026-04-12T09:06:06.001Z</time></trkpt><trkpt lat="45.620382668887515" lon="9.199565497156204"><ele>198.0</ele><time>2026-04-12T09:06:07.001Z</time></trkpt><trkpt lat="45.620483088835755" lon="9.199544332035444"><ele>198.0</ele><time>2026-04-12T09:06:08Z</time></trkpt><trkpt lat="45.62059077853532" lon="9.19952406726271"><ele>198.0</ele><time>2026-04-12T09:06:09Z</time></trkpt><trkpt lat="45.6207008053415" lon="9.199500664324587"><ele>198.0</ele><time>2026-04-12T09:06:10Z</time></trkpt><trkpt lat="45.62081162689473" lon="9.199474938635928"><ele>198.0</ele><time>2026-04-12T09:06:11Z</time></trkpt><trkpt lat="45.620923028704325" lon="9.199448843249545"><ele>198.0</ele><time>2026-04-12T09:06:12Z</time></trkpt><trkpt lat="45.621035857671856" lon="9.199424195093505"><ele>198.0</ele><time>2026-04-12T09:06:13Z</time></trkpt><trkpt lat="45.62114625390283" lon="9.199403661667327"><ele>198.0</ele><time>2026-04-12T09:06:14Z</time></trkpt><trkpt lat="45.62125894543706" lon="9.19937793809052"><ele>198.0</ele><time>2026-04-12T09:06:15Z</time></trkpt><trkpt lat="45.62137251102543" lon="9.19935210247822"><ele>198.0</ele><time>2026-04-12T09:06:16Z</time></trkpt><trkpt lat="45.6214853759958" lon="9.199326833189568"><ele>198.0</ele><time>2026-04-12T09:06:17Z</time></trkpt><trkpt lat="45.621589018830456" lon="9.199309134428121"><ele>198.0</ele><time>2026-04-12T09:06:18Z</time></trkpt><trkpt lat="45.62169763848441" lon="9.199286628541149"><ele>198.0</ele><time>2026-04-12T09:06:19Z</time></trkpt><trkpt lat="45.62180840034833" lon="9.199261042447406"><ele>198.0</ele><time>2026-04-12T09:06:20Z</time></trkpt><trkpt lat="45.62191532512468" lon="9.199236130851435"><ele>198.0</ele><time>2026-04-12T09:06:21Z</time></trkpt><trkpt lat="45.62202058390081" lon="9.199214411841638"><ele>198.0</ele><time>2026-04-12T09:06:22Z</time></trkpt><trkpt lat="45.62212558563153" lon="9.199192224004138"><ele>198.0</ele><time>2026-04-12T09:06:23Z</time></trkpt><trkpt lat="45.62222473185709" lon="9.199173079864874"><ele>198.0</ele><time>2026-04-12T09:06:24Z</time></trkpt><trkpt lat="45.62231937393903" lon="9.199156925594318"><ele>198.0</ele><time>2026-04-12T09:06:25Z</time></trkpt><trkpt lat="45.622408030297" lon="9.199139037675746"><ele>198.0</ele><time>2026-04-12T09:06:26Z</time></trkpt><trkpt lat="45.622494961585204" lon="9.199118888929009"><ele>198.0</ele><time>2026-04-12T09:06:27Z</time></trkpt><trkpt lat="45.622573399099295" lon="9.199100507873329"><ele>198.0</ele><time>2026-04-12T09:06:28Z</time></trkpt><trkpt lat="45.62264859237959" lon="9.199081688492658"><ele>198.0</ele><time>2026-04-12T09:06:29Z</time></trkpt><trkpt lat="45.62271804584663" lon="9.199064869046538"><ele>198.0</ele><time>2026-04-12T09:06:30Z</time></trkpt><trkpt lat="45.62282711808544" lon="9.19904927197713"><ele>198.0</ele><time>2026-04-12T09:06:32Z</time></trkpt><trkpt lat="45.62289114093327" lon="9.199050228634368"><ele>198.0</ele><time>2026-04-12T09:06:37Z</time></trkpt><trkpt lat="45.622961264264056" lon="9.199063554047177"><ele>198.4</ele><time>2026-04-12T09:06:39Z</time></trkpt><trkpt lat="45.62305497488077" lon="9.199136654911017"><ele>198.8</ele><time>2026-04-12T09:06:41Z</time></trkpt><trkpt lat="45.62313914722048" lon="9.19908027843717"><ele>199.2</ele><time>2026-04-12T09:06:42Z</time></trkpt><trkpt lat="45.62321151041979" lon="9.199033432273655"><ele>199.6</ele><time>2026-04-12T09:06:43Z</time></trkpt><trkpt lat="45.62328819387724" lon="9.19899271881949"><ele>200.0</ele><time>2026-04-12T09:06:44Z</time></trkpt><trkpt lat="45.62338235903599" lon="9.198959594657007"><ele>200.0</ele><time>2026-04-12T09:06:45Z</time></trkpt><trkpt lat="45.62348534543311" lon="9.198942729293089"><ele>200.0</ele><time>2026-04-12T09:06:46Z</time></trkpt><trkpt lat="45.623597412870744" lon="9.198934807314599"><ele>200.0</ele><time>2026-04-12T09:06:47Z</time></trkpt><trkpt lat="45.62371446048697" lon="9.198942980645212"><ele>200.0</ele><time>2026-04-12T09:06:48Z</time></trkpt><trkpt lat="45.623832606425125" lon="9.198970856624657"><ele>200.25</ele><time>2026-04-12T09:06:49Z</time></trkpt><trkpt lat="45.623963828893366" lon="9.19901916737953"><ele>200.5</ele><time>2026-04-12T09:06:50Z</time></trkpt><trkpt lat="45.62409702163176" lon="9.199084465608362"><ele>200.75</ele><time>2026-04-12T09:06:51Z</time></trkpt><trkpt lat="45.62422267852528" lon="9.199168446637294"><ele>201.0</ele><time>2026-04-12T09:06:52Z</time></trkpt><trkpt lat="45.62433468758141" lon="9.199263770956344"><ele>201.0</ele><time>2026-04-12T09:06:53Z</time></trkpt><trkpt lat="45.624435395901855" lon="9.199362736636456"><ele>201.0</ele><time>2026-04-12T09:06:54Z</time></trkpt><trkpt lat="45.62452292499886" lon="9.199463911252153"><ele>201.0</ele><time>2026-04-12T09:06:55Z</time></trkpt><trkpt lat="45.62461772452884" lon="9.19958167381299"><ele>201.0</ele><time>2026-04-12T09:06:56Z</time></trkpt><trkpt lat="45.62470405258562" lon="9.199711784019026"><ele>201.5</ele><time>2026-04-12T09:06:57Z</time></trkpt><trkpt lat="45.62478129721076" lon="9.199851449298178"><ele>202.0</ele><time>2026-04-12T09:06:58Z</time></trkpt><trkpt lat="45.624853056360394" lon="9.200006120089416"><ele>202.5</ele><time>2026-04-12T09:06:59Z</time></trkpt><trkpt lat="45.62491374628534" lon="9.200163456442999"><ele>203.0</ele><time>2026-04-12T09:07:00Z</time></trkpt><trkpt lat="45.62496285291926" lon="9.200327479102057"><ele>203.0</ele><time>2026-04-12T09:07:01Z</time></trkpt><trkpt lat="45.62500456166342" lon="9.20049065109891"><ele>203.0</ele><time>2026-04-12T09:07:02Z</time></trkpt><trkpt lat="45.62503858492482" lon="9.200661264556365"><ele>203.0</ele><time>2026-04-12T09:07:03Z</time></trkpt><trkpt lat="45.625069389794476" lon="9.200830949604764"><ele>203.0</ele><time>2026-04-12T09:07:04Z</time></trkpt><trkpt lat="45.62510003789261" lon="9.201000106919327"><ele>203.0</ele><time>2026-04-12T09:07:05Z</time></trkpt><trkpt lat="45.62513370076401" lon="9.201168960903267"><ele>203.0</ele><time>2026-04-12T09:07:06Z</time></trkpt><trkpt lat="45.62516918856394" lon="9.201341004555166"><ele>203.0</ele><time>2026-04-12T09:07:07Z</time></trkpt><trkpt lat="45.62520308716748" lon="9.20151791475448"><ele>203.0</ele><time>2026-04-12T09:07:08Z</time></trkpt><trkpt lat="45.625237223057525" lon="9.201695258649606"><ele>203.0</ele><time>2026-04-12T09:07:09Z</time></trkpt><trkpt lat="45.625270648545104" lon="9.201866847759804"><ele>203.0</ele><time>2026-04-12T09:07:10Z</time></trkpt><trkpt lat="45.62530156324819" lon="9.202046480872166"><ele>203.0</ele><time>2026-04-12T09:07:11Z</time></trkpt><trkpt lat="45.625336501099355" lon="9.202221622225581"><ele>203.0</ele><time>2026-04-12T09:07:12Z</time></trkpt><trkpt lat="45.62537066951157" lon="9.202396356574123"><ele>203.0</ele><time>2026-04-12T09:07:13Z</time></trkpt><trkpt lat="45.62540826006085" lon="9.202582660543918"><ele>203.0</ele><time>2026-04-12T09:07:14Z</time></trkpt><trkpt lat="45.62544121403723" lon="9.202768305831643"><ele>203.0</ele><time>2026-04-12T09:07:15Z</time></trkpt><trkpt lat="45.62547161318829" lon="9.202953947386593"><ele>203.0</ele><time>2026-04-12T09:07:16Z</time></trkpt><trkpt lat="45.625508960495196" lon="9.203135764409332"><ele>202.75</ele><time>2026-04-12T09:07:17Z</time></trkpt><trkpt lat="45.625543894537614" lon="9.203304413259731"><ele>202.5</ele><time>2026-04-12T09:07:18Z</time></trkpt><trkpt lat="45.62557581643603" lon="9.203471594028263"><ele>202.25</ele><time>2026-04-12T09:07:19Z</time></trkpt><trkpt lat="45.62560476222265" lon="9.203624698355341"><ele>202.0</ele><time>2026-04-12T09:07:20Z</time></trkpt><trkpt lat="45.62563081715959" lon="9.203778400212538"><ele>202.0</ele><time>2026-04-12T09:07:21Z</time></trkpt><trkpt lat="45.625663323372585" lon="9.203924415730674"><ele>202.0</ele><time>2026-04-12T09:07:22Z</time></trkpt><trkpt lat="45.62569119725846" lon="9.204065636647586"><ele>202.0</ele><time>2026-04-12T09:07:23Z</time></trkpt><trkpt lat="45.62571960236427" lon="9.20421124175287"><ele>202.0</ele><time>2026-04-12T09:07:24.001Z</time></trkpt><trkpt lat="45.62574967470583" lon="9.204356693317106"><ele>202.0</ele><time>2026-04-12T09:07:25.001Z</time></trkpt><trkpt lat="45.62578055423481" lon="9.204499618812246"><ele>202.2</ele><time>2026-04-12T09:07:26.001Z</time></trkpt><trkpt lat="45.62580881816522" lon="9.204640174676703"><ele>202.39999999999998</ele><time>2026-04-12T09:07:27.001Z</time></trkpt><trkpt lat="45.62584043241001" lon="9.204780477116264"><ele>202.60000000000002</ele><time>2026-04-12T09:07:28.001Z</time></trkpt><trkpt lat="45.62586721365763" lon="9.20491929843488"><ele>202.8</ele><time>2026-04-12T09:07:29.001Z</time></trkpt><trkpt lat="45.6258950460676" lon="9.205047465419533"><ele>203.0</ele><time>2026-04-12T09:07:30.001Z</time></trkpt><trkpt lat="45.62592194829005" lon="9.20516545566557"><ele>203.0</ele><time>2026-04-12T09:07:31.001Z</time></trkpt><trkpt lat="45.62594372329253" lon="9.205285796536408"><ele>203.0</ele><time>2026-04-12T09:07:32.001Z</time></trkpt><trkpt lat="45.62596755772959" lon="9.205407071161114"><ele>203.0</ele><time>2026-04-12T09:07:33.001Z</time></trkpt><trkpt lat="45.625986309347596" lon="9.205534907644267"><ele>203.0</ele><time>2026-04-12T09:07:34.001Z</time></trkpt><trkpt lat="45.62600767822421" lon="9.205659658477526"><ele>203.0</ele><time>2026-04-12T09:07:35.001Z</time></trkpt><trkpt lat="45.62603332585206" lon="9.205794973487958"><ele>203.00000000000003</ele><time>2026-04-12T09:07:36.001Z</time></trkpt><trkpt lat="45.626059212657246" lon="9.205919227022045"><ele>203.0</ele><time>2026-04-12T09:07:37.001Z</time></trkpt><trkpt lat="45.62608440304627" lon="9.206035933035139"><ele>203.0</ele><time>2026-04-12T09:07:38.001Z</time></trkpt><trkpt lat="45.62611188715615" lon="9.20614819328358"><ele>203.0</ele><time>2026-04-12T09:07:39.001Z</time></trkpt><trkpt lat="45.62613892461895" lon="9.206246386473797"><ele>203.00000000000003</ele><time>2026-04-12T09:07:40.001Z</time></trkpt><trkpt lat="45.62616420519083" lon="9.206335449121513"><ele>203.0</ele><time>2026-04-12T09:07:41.001Z</time></trkpt><trkpt lat="45.62626040119676" lon="9.20647762991656"><ele>203.16666666666669</ele><time>2026-04-12T09:07:43.001Z</time></trkpt><trkpt lat="45.626287389081355" lon="9.206582840824565"><ele>203.33333333333334</ele><time>2026-04-12T09:07:44.001Z</time></trkpt><trkpt lat="45.626349807045436" lon="9.20665379000899"><ele>203.5</ele><time>2026-04-12T09:07:45.001Z</time></trkpt><trkpt lat="45.626428258310185" lon="9.206705588593485"><ele>203.66666666666669</ele><time>2026-04-12T09:07:46.001Z</time></trkpt><trkpt lat="45.62651085897837" lon="9.206716556128823"><ele>203.83333333333334</ele><time>2026-04-12T09:07:47.001Z</time></trkpt><trkpt lat="45.62659469477669" lon="9.206665297504797"><ele>204.0</ele><time>2026-04-12T09:07:48.001Z</time></trkpt><trkpt lat="45.626672550325296" lon="9.20660380709747"><ele>204.0</ele><time>2026-04-12T09:07:49.001Z</time></trkpt><trkpt lat="45.626773083062666" lon="9.206620990061252"><ele>204.0</ele><time>2026-04-12T09:07:50.001Z</time></trkpt><trkpt lat="45.6268629402409" lon="9.206590667175659"><ele>204.0</ele><time>2026-04-12T09:07:51.001Z</time></trkpt><trkpt lat="45.626949836115585" lon="9.206554323285713"><ele>204.0</ele><time>2026-04-12T09:07:52.001Z</time></trkpt><trkpt lat="45.627039309405994" lon="9.206516384788598"><ele>204.0</ele><time>2026-04-12T09:07:53.001Z</time></trkpt><trkpt lat="45.62713558355321" lon="9.206480161474758"><ele>203.79999999999998</ele><time>2026-04-12T09:07:54.001Z</time></trkpt><trkpt lat="45.62723137481659" lon="9.206444880632954"><ele>203.6</ele><time>2026-04-12T09:07:55.001Z</time></trkpt><trkpt lat="45.6273274035869" lon="9.20640907661783"><ele>203.4</ele><time>2026-04-12T09:07:56.001Z</time></trkpt><trkpt lat="45.627405392233555" lon="9.206345087036825"><ele>203.2</ele><time>2026-04-12T09:07:57.001Z</time></trkpt><trkpt lat="45.627508863690935" lon="9.20633889741397"><ele>203.0</ele><time>2026-04-12T09:07:58.001Z</time></trkpt><trkpt lat="45.627595075432104" lon="9.206301241368816"><ele>203.0</ele><time>2026-04-12T09:07:59.001Z</time></trkpt><trkpt lat="45.62768233328339" lon="9.20626351333382"><ele>203.0</ele><time>2026-04-12T09:08:00.001Z</time></trkpt><trkpt lat="45.62777219588639" lon="9.2062256228021"><ele>203.0</ele><time>2026-04-12T09:08:01.001Z</time></trkpt><trkpt lat="45.62786382599642" lon="9.206181264793438"><ele>203.0</ele><time>2026-04-12T09:08:02.001Z</time></trkpt><trkpt lat="45.62795838672547" lon="9.206141165504196"><ele>203.0</ele><time>2026-04-12T09:08:03.001Z</time></trkpt><trkpt lat="45.62805650297412" lon="9.206105576377835"><ele>203.2</ele><time>2026-04-12T09:08:04.001Z</time></trkpt><trkpt lat="45.628156517727916" lon="9.206064307307972"><ele>203.4</ele><time>2026-04-12T09:08:05.001Z</time></trkpt><trkpt lat="45.62825622032051" lon="9.20601840938285"><ele>203.6</ele><time>2026-04-12T09:08:06.001Z</time></trkpt><trkpt lat="45.62835755189017" lon="9.205975437130432"><ele>203.79999999999998</ele><time>2026-04-12T09:08:07.001Z</time></trkpt><trkpt lat="45.62846084664645" lon="9.205930658654598"><ele>204.0</ele><time>2026-04-12T09:08:08.001Z</time></trkpt><trkpt lat="45.62856521159999" lon="9.20588949958114"><ele>204.39999999999998</ele><time>2026-04-12T09:08:09.001Z</time></trkpt><trkpt lat="45.62866955842629" lon="9.205845458460042"><ele>204.8</ele><time>2026-04-12T09:08:10.001Z</time></trkpt><trkpt lat="45.62877491359635" lon="9.205800922246038"><ele>205.2</ele><time>2026-04-12T09:08:11.001Z</time></trkpt><trkpt lat="45.62886883419253" lon="9.20575502034768"><ele>205.60000000000002</ele><time>2026-04-12T09:08:12.001Z</time></trkpt><trkpt lat="45.62896089956485" lon="9.205716755329695"><ele>206.0</ele><time>2026-04-12T09:08:13.001Z</time></trkpt><trkpt lat="45.629049067877" lon="9.205680771946488"><ele>206.00000000000003</ele><time>2026-04-12T09:08:14Z</time></trkpt><trkpt lat="45.62913108777194" lon="9.20564397235794"><ele>206.0</ele><time>2026-04-12T09:08:15Z</time></trkpt><trkpt lat="45.62921082820018" lon="9.205606825776758"><ele>206.0</ele><time>2026-04-12T09:08:16Z</time></trkpt><trkpt lat="45.62928735071339" lon="9.20557520766355"><ele>206.0</ele><time>2026-04-12T09:08:17Z</time></trkpt><trkpt lat="45.629360299879814" lon="9.205542820864231"><ele>206.00000000000003</ele><time>2026-04-12T09:08:18Z</time></trkpt><trkpt lat="45.629439827239416" lon="9.205508232180422"><ele>206.0</ele><time>2026-04-12T09:08:19Z</time></trkpt><trkpt lat="45.62952246383833" lon="9.205473243352323"><ele>206.4</ele><time>2026-04-12T09:08:20Z</time></trkpt><trkpt lat="45.62960851340346" lon="9.205436981015213"><ele>206.8</ele><time>2026-04-12T09:08:21Z</time></trkpt><trkpt lat="45.62969762633868" lon="9.205396578634423"><ele>207.20000000000002</ele><time>2026-04-12T09:08:22Z</time></trkpt><trkpt lat="45.62979154978256" lon="9.205354016463048"><ele>207.60000000000002</ele><time>2026-04-12T09:08:23Z</time></trkpt><trkpt lat="45.62988826259245" lon="9.205315447301924"><ele>208.0</ele><time>2026-04-12T09:08:24Z</time></trkpt><trkpt lat="45.62998983109344" lon="9.205272733469775"><ele>208.0</ele><time>2026-04-12T09:08:25Z</time></trkpt><trkpt lat="45.63009546740688" lon="9.205228425311049"><ele>208.0</ele><time>2026-04-12T09:08:26Z</time></trkpt><trkpt lat="45.63021428730551" lon="9.20518110130019"><ele>208.0</ele><time>2026-04-12T09:08:27Z</time></trkpt><trkpt lat="45.63033477522338" lon="9.205130890071231"><ele>208.0</ele><time>2026-04-12T09:08:28Z</time></trkpt><trkpt lat="45.63044539090635" lon="9.205084482875783"><ele>208.0</ele><time>2026-04-12T09:08:29Z</time></trkpt><trkpt lat="45.63055045963369" lon="9.205043035903149"><ele>208.0</ele><time>2026-04-12T09:08:30Z</time></trkpt><trkpt lat="45.63065094046372" lon="9.205006891234977"><ele>208.0</ele><time>2026-04-12T09:08:31Z</time></trkpt><trkpt lat="45.630742487220274" lon="9.204965540917419"><ele>208.0</ele><time>2026-04-12T09:08:32Z</time></trkpt><trkpt lat="45.63083261498057" lon="9.204926722461646"><ele>208.0</ele><time>2026-04-12T09:08:33Z</time></trkpt><trkpt lat="45.63091918163139" lon="9.204887511865468"><ele>208.0</ele><time>2026-04-12T09:08:34Z</time></trkpt><trkpt lat="45.63100829674661" lon="9.20485274726851"><ele>208.0</ele><time>2026-04-12T09:08:35Z</time></trkpt><trkpt lat="45.63110142889947" lon="9.204809780676543"><ele>208.0</ele><time>2026-04-12T09:08:36Z</time></trkpt><trkpt lat="45.631193016150334" lon="9.2047624585277"><ele>208.0</ele><time>2026-04-12T09:08:37Z</time></trkpt><trkpt lat="45.63128734474407" lon="9.204721332236836"><ele>208.0</ele><time>2026-04-12T09:08:38Z</time></trkpt><trkpt lat="45.63137989064855" lon="9.204685489468014"><ele>207.66666666666666</ele><time>2026-04-12T09:08:39Z</time></trkpt><trkpt lat="45.63147023751791" lon="9.204653749476586"><ele>207.33333333333331</ele><time>2026-04-12T09:08:40Z</time></trkpt><trkpt lat="45.63155639374592" lon="9.20462052576776"><ele>207.0</ele><time>2026-04-12T09:08:41Z</time></trkpt><trkpt lat="45.63163666414326" lon="9.204582886629321"><ele>206.66666666666669</ele><time>2026-04-12T09:08:42Z</time></trkpt><trkpt lat="45.631709681000466" lon="9.204553340148362"><ele>206.33333333333334</ele><time>2026-04-12T09:08:43Z</time></trkpt><trkpt lat="45.63177867624961" lon="9.204527839129677"><ele>206.0</ele><time>2026-04-12T09:08:44Z</time></trkpt><trkpt lat="45.63189904388737" lon="9.204536783187676"><ele>206.00000000000003</ele><time>2026-04-12T09:08:46Z</time></trkpt><trkpt lat="45.63196375145116" lon="9.204568636299756"><ele>206.0</ele><time>2026-04-12T09:08:47Z</time></trkpt><trkpt lat="45.632032917511545" lon="9.204617425410516"><ele>206.0</ele><time>2026-04-12T09:08:48Z</time></trkpt><trkpt lat="45.6321042477414" lon="9.204650293514506"><ele>206.0</ele><time>2026-04-12T09:08:49Z</time></trkpt><trkpt lat="45.632178456183034" lon="9.204618912449277"><ele>206.00000000000003</ele><time>2026-04-12T09:08:50Z</time></trkpt><trkpt lat="45.632250607670564" lon="9.20453759571539"><ele>206.0</ele><time>2026-04-12T09:08:51Z</time></trkpt><trkpt lat="45.63231494095631" lon="9.204443497719511"><ele>206.0</ele><time>2026-04-12T09:08:52Z</time></trkpt><trkpt lat="45.63236942198715" lon="9.20435418990321"><ele>206.0</ele><time>2026-04-12T09:08:53Z</time></trkpt><trkpt lat="45.63249913798254" lon="9.20438269798208"><ele>206.0</ele><time>2026-04-12T09:08:54Z</time></trkpt><trkpt lat="45.63260936491016" lon="9.204409263552208"><ele>206.0</ele><time>2026-04-12T09:08:55Z</time></trkpt><trkpt lat="45.63272868736284" lon="9.204438929952035"><ele>206.0</ele><time>2026-04-12T09:08:56Z</time></trkpt><trkpt lat="45.63285915150522" lon="9.204463641273747"><ele>207.0</ele><time>2026-04-12T09:08:57Z</time></trkpt><trkpt lat="45.633001755664566" lon="9.204490304715303"><ele>208.0</ele><time>2026-04-12T09:08:58Z</time></trkpt><trkpt lat="45.63315524178008" lon="9.204524013034012"><ele>209.0</ele><time>2026-04-12T09:08:59Z</time></trkpt><trkpt lat="45.63331819237639" lon="9.204559178928688"><ele>209.0</ele><time>2026-04-12T09:09:00Z</time></trkpt><trkpt lat="45.63348826505066" lon="9.204593507964193"><ele>209.0</ele><time>2026-04-12T09:09:01Z</time></trkpt><trkpt lat="45.63366775599893" lon="9.204633199704451"><ele>209.0</ele><time>2026-04-12T09:09:02Z</time></trkpt><trkpt lat="45.63385471183388" lon="9.204675056511766"><ele>209.33333333333334</ele><time>2026-04-12T09:09:03Z</time></trkpt><trkpt lat="45.63404802793541" lon="9.204714874519379"><ele>209.66666666666669</ele><time>2026-04-12T09:09:04Z</time></trkpt><trkpt lat="45.63423939366557" lon="9.204760184552812"><ele>210.0</ele><time>2026-04-12T09:09:05Z</time></trkpt><trkpt lat="45.63443103257785" lon="9.204802167171541"><ele>210.0</ele><time>2026-04-12T09:09:06Z</time></trkpt><trkpt lat="45.63460625004467" lon="9.204844554964275"><ele>210.0</ele><time>2026-04-12T09:09:07Z</time></trkpt><trkpt lat="45.634775228245545" lon="9.204876966433693"><ele>210.0</ele><time>2026-04-12T09:09:08Z</time></trkpt><trkpt lat="45.63493660043525" lon="9.204913895752217"><ele>210.0</ele><time>2026-04-12T09:09:09Z</time></trkpt><trkpt lat="45.63522658613465" lon="9.204978790550669"><ele>210.0</ele><time>2026-04-12T09:09:11Z</time></trkpt><trkpt lat="45.63534862367901" lon="9.205006990776448"><ele>210.0</ele><time>2026-04-12T09:09:12Z</time></trkpt><trkpt lat="45.6354560836989" lon="9.205030394682616"><ele>210.5</ele><time>2026-04-12T09:09:13Z</time></trkpt><trkpt lat="45.63555430943192" lon="9.205052221023315"><ele>211.0</ele><time>2026-04-12T09:09:14Z</time></trkpt><trkpt lat="45.63564111031811" lon="9.205070514627243"><ele>211.5</ele><time>2026-04-12T09:09:15Z</time></trkpt><trkpt lat="45.63571509568841" lon="9.205086653924923"><ele>212.0</ele><time>2026-04-12T09:09:16Z</time></trkpt><trkpt lat="45.6357825934011" lon="9.205094865384476"><ele>212.5</ele><time>2026-04-12T09:09:17Z</time></trkpt><trkpt lat="45.63590017761812" lon="9.205105035974011"><ele>213.0</ele><time>2026-04-12T09:09:19Z</time></trkpt><trkpt lat="45.636000917870426" lon="9.205120780731152"><ele>213.0</ele><time>2026-04-12T09:09:21Z</time></trkpt><trkpt lat="45.63611702876268" lon="9.20515775075109"><ele>213.0</ele><time>2026-04-12T09:09:23Z</time></trkpt><trkpt lat="45.63619088434285" lon="9.205169952433765"><ele>213.0</ele><time>2026-04-12T09:09:24Z</time></trkpt><trkpt lat="45.63628599937051" lon="9.205186604207402"><ele>213.0</ele><time>2026-04-12T09:09:25Z</time></trkpt><trkpt lat="45.636405903516724" lon="9.205222092867077"><ele>213.0</ele><time>2026-04-12T09:09:26Z</time></trkpt><trkpt lat="45.63653984846975" lon="9.205263279952932"><ele>213.0</ele><time>2026-04-12T09:09:27Z</time></trkpt><trkpt lat="45.63667959464633" lon="9.205302140110756"><ele>213.0</ele><time>2026-04-12T09:09:28Z</time></trkpt><trkpt lat="45.63683294406398" lon="9.2053325786777"><ele>213.0</ele><time>2026-04-12T09:09:29Z</time></trkpt><trkpt lat="45.63698303277593" lon="9.205358995940495"><ele>213.0</ele><time>2026-04-12T09:09:30Z</time></trkpt><trkpt lat="45.63712260692655" lon="9.205389649811213"><ele>213.25</ele><time>2026-04-12T09:09:31Z</time></trkpt><trkpt lat="45.63725089184982" lon="9.205420474396131"><ele>213.5</ele><time>2026-04-12T09:09:32Z</time></trkpt><trkpt lat="45.637376005913275" lon="9.205453785746158"><ele>213.75</ele><time>2026-04-12T09:09:33Z</time></trkpt><trkpt lat="45.63749238722742" lon="9.205479083940235"><ele>214.0</ele><time>2026-04-12T09:09:34Z</time></trkpt><trkpt lat="45.637606184733436" lon="9.205501976428797"><ele>214.0</ele><time>2026-04-12T09:09:35Z</time></trkpt><trkpt lat="45.63771453458853" lon="9.205525425911478"><ele>213.99999999999997</ele><time>2026-04-12T09:09:36Z</time></trkpt><trkpt lat="45.637815718791536" lon="9.20554758761257"><ele>213.99999999999997</ele><time>2026-04-12T09:09:37Z</time></trkpt><trkpt lat="45.637903001188995" lon="9.205568538205098"><ele>214.0</ele><time>2026-04-12T09:09:38Z</time></trkpt><trkpt lat="45.637978825754786" lon="9.205586479907758"><ele>214.0</ele><time>2026-04-12T09:09:39Z</time></trkpt><trkpt lat="45.638052315149515" lon="9.205603046127841"><ele>214.00000000000003</ele><time>2026-04-12T09:09:40Z</time></trkpt><trkpt lat="45.638118152943775" lon="9.205616059841596"><ele>214.0</ele><time>2026-04-12T09:09:41Z</time></trkpt><trkpt lat="45.638184460397525" lon="9.20563341347615"><ele>214.0</ele><time>2026-04-12T09:09:42Z</time></trkpt><trkpt lat="45.63825514352767" lon="9.20564560390427"><ele>214.0</ele><time>2026-04-12T09:09:43Z</time></trkpt><trkpt lat="45.63832446517103" lon="9.205658182119109"><ele>214.0</ele><time>2026-04-12T09:09:44Z</time></trkpt><trkpt lat="45.63839929152808" lon="9.20567898449253"><ele>214.00000000000003</ele><time>2026-04-12T09:09:45Z</time></trkpt><trkpt lat="45.63847559296007" lon="9.20570225619639"><ele>214.0</ele><time>2026-04-12T09:09:46Z</time></trkpt><trkpt lat="45.63855940206192" lon="9.205725921159463"><ele>214.39999999999998</ele><time>2026-04-12T09:09:47Z</time></trkpt><trkpt lat="45.63864685431804" lon="9.205752023620663"><ele>214.79999999999998</ele><time>2026-04-12T09:09:48Z</time></trkpt><trkpt lat="45.638733961097664" lon="9.205783712808179"><ele>215.20000000000002</ele><time>2026-04-12T09:09:49Z</time></trkpt><trkpt lat="45.63882652921027" lon="9.205818366464078"><ele>215.60000000000002</ele><time>2026-04-12T09:09:50Z</time></trkpt><trkpt lat="45.63892336010772" lon="9.205855457577364"><ele>216.0</ele><time>2026-04-12T09:09:51Z</time></trkpt><trkpt lat="45.63902512604138" lon="9.205899787746997"><ele>216.0</ele><time>2026-04-12T09:09:52Z</time></trkpt><trkpt lat="45.63913108482529" lon="9.205951624878603"><ele>216.0</ele><time>2026-04-12T09:09:53Z</time></trkpt><trkpt lat="45.63923782726125" lon="9.205999128886349"><ele>216.0</ele><time>2026-04-12T09:09:54Z</time></trkpt><trkpt lat="45.63934399706808" lon="9.206048913922615"><ele>216.0</ele><time>2026-04-12T09:09:55Z</time></trkpt><trkpt lat="45.63945601309183" lon="9.206107774632756"><ele>215.60000000000002</ele><time>2026-04-12T09:09:56Z</time></trkpt><trkpt lat="45.639564279096916" lon="9.206168684263748"><ele>215.20000000000002</ele><time>2026-04-12T09:09:57Z</time></trkpt><trkpt lat="45.6396678044415" lon="9.206231710755832"><ele>214.79999999999998</ele><time>2026-04-12T09:09:58Z</time></trkpt><trkpt lat="45.639766370987644" lon="9.20628750702216"><ele>214.39999999999998</ele><time>2026-04-12T09:09:59Z</time></trkpt><trkpt lat="45.639858047434004" lon="9.206336071687378"><ele>214.0</ele><time>2026-04-12T09:10:00Z</time></trkpt><trkpt lat="45.63994555908951" lon="9.20638759163871"><ele>213.99999999999997</ele><time>2026-04-12T09:10:01Z</time></trkpt><trkpt lat="45.64003004055706" lon="9.206439822014845"><ele>214.0</ele><time>2026-04-12T09:10:02.001Z</time></trkpt><trkpt lat="45.640110156298434" lon="9.206486045012026"><ele>214.0</ele><time>2026-04-12T09:10:03.001Z</time></trkpt><trkpt lat="45.640187049643245" lon="9.206526624098595"><ele>214.0</ele><time>2026-04-12T09:10:04.001Z</time></trkpt><trkpt lat="45.640263160902464" lon="9.206566530289576"><ele>213.99999999999997</ele><time>2026-04-12T09:10:05.001Z</time></trkpt><trkpt lat="45.64032653286105" lon="9.20660093674669"><ele>214.0</ele><time>2026-04-12T09:10:06.001Z</time></trkpt><trkpt lat="45.64040377028248" lon="9.206667865903754"><ele>214.79999999999998</ele><time>2026-04-12T09:10:08.001Z</time></trkpt><trkpt lat="45.64049522232575" lon="9.206708080517707"><ele>215.59999999999997</ele><time>2026-04-12T09:10:34Z</time></trkpt><trkpt lat="45.64055990879794" lon="9.206747844214977"><ele>216.4</ele><time>2026-04-12T09:10:35Z</time></trkpt><trkpt lat="45.64064025460935" lon="9.206799898375147"><ele>217.2</ele><time>2026-04-12T09:10:36Z</time></trkpt><trkpt lat="45.64073506088303" lon="9.20685983147897"><ele>218.0</ele><time>2026-04-12T09:10:37Z</time></trkpt><trkpt lat="45.640836751901865" lon="9.206923394582269"><ele>218.0</ele><time>2026-04-12T09:10:38Z</time></trkpt><trkpt lat="45.64095681151148" lon="9.20699218119069"><ele>218.0</ele><time>2026-04-12T09:10:39Z</time></trkpt><trkpt lat="45.641095961085895" lon="9.207070285375984"><ele>218.0</ele><time>2026-04-12T09:10:40Z</time></trkpt><trkpt lat="45.64124377481063" lon="9.207155892684812"><ele>218.0</ele><time>2026-04-12T09:10:41Z</time></trkpt><trkpt lat="45.64139416439739" lon="9.207244579377514"><ele>217.66666666666669</ele><time>2026-04-12T09:10:42Z</time></trkpt><trkpt lat="45.64156035975326" lon="9.207347004316384"><ele>217.33333333333331</ele><time>2026-04-12T09:10:43Z</time></trkpt><trkpt lat="45.64172860601719" lon="9.207449539033224"><ele>217.0</ele><time>2026-04-12T09:10:44Z</time></trkpt><trkpt lat="45.64190119760741" lon="9.207547108112403"><ele>217.0</ele><time>2026-04-12T09:10:45Z</time></trkpt><trkpt lat="45.64207150360696" lon="9.207641519148913"><ele>217.0</ele><time>2026-04-12T09:10:46Z</time></trkpt><trkpt lat="45.642245590524496" lon="9.207740629333816"><ele>217.0</ele><time>2026-04-12T09:10:47Z</time></trkpt><trkpt lat="45.64241716688081" lon="9.20783862283255"><ele>217.0</ele><time>2026-04-12T09:10:48Z</time></trkpt><trkpt lat="45.6425830651839" lon="9.207929725730398"><ele>217.0</ele><time>2026-04-12T09:10:49Z</time></trkpt><trkpt lat="45.642753893907596" lon="9.208038985901219"><ele>217.0</ele><time>2026-04-12T09:10:50Z</time></trkpt><trkpt lat="45.64291887872819" lon="9.20813946489145"><ele>217.33333333333331</ele><time>2026-04-12T09:10:51Z</time></trkpt><trkpt lat="45.64308572679786" lon="9.208240079627894"><ele>217.66666666666669</ele><time>2026-04-12T09:10:52Z</time></trkpt><trkpt lat="45.64325202508851" lon="9.208335224537358"><ele>218.0</ele><time>2026-04-12T09:10:53Z</time></trkpt><trkpt lat="45.64341647341776" lon="9.208420992471144"><ele>218.0</ele><time>2026-04-12T09:10:54Z</time></trkpt><trkpt lat="45.64357897584574" lon="9.208495220652061"><ele>218.0</ele><time>2026-04-12T09:10:55Z</time></trkpt><trkpt lat="45.64374204570075" lon="9.208555392308163"><ele>218.0</ele><time>2026-04-12T09:10:56Z</time></trkpt><trkpt lat="45.64390105906055" lon="9.20859731995989"><ele>217.75</ele><time>2026-04-12T09:10:57Z</time></trkpt><trkpt lat="45.64405851407528" lon="9.208625937820893"><ele>217.5</ele><time>2026-04-12T09:10:58Z</time></trkpt><trkpt lat="45.64420720637867" lon="9.20864460397807"><ele>217.25</ele><time>2026-04-12T09:10:59Z</time></trkpt><trkpt lat="45.64434274956367" lon="9.208652965031408"><ele>217.0</ele><time>2026-04-12T09:11:00Z</time></trkpt><trkpt lat="45.64444923289283" lon="9.20865564768436"><ele>217.66666666666666</ele><time>2026-04-12T09:11:01Z</time></trkpt><trkpt lat="45.64452429047573" lon="9.208643526336797"><ele>218.33333333333331</ele><time>2026-04-12T09:11:02Z</time></trkpt><trkpt lat="45.64462789264145" lon="9.20861304031861"><ele>219.0</ele><time>2026-04-12T09:11:04Z</time></trkpt><trkpt lat="45.64472011968102" lon="9.208630803929328"><ele>219.66666666666669</ele><time>2026-04-12T09:11:06Z</time></trkpt><trkpt lat="45.6447834029985" lon="9.208656291056307"><ele>220.33333333333334</ele><time>2026-04-12T09:11:07Z</time></trkpt><trkpt lat="45.64486028027538" lon="9.208666298501884"><ele>221.0</ele><time>2026-04-12T09:11:08Z</time></trkpt><trkpt lat="45.64494778095746" lon="9.208664457214242"><ele>221.0</ele><time>2026-04-12T09:11:09Z</time></trkpt><trkpt lat="45.64504490484053" lon="9.208661880997395"><ele>221.00000000000003</ele><time>2026-04-12T09:11:10Z</time></trkpt><trkpt lat="45.64515139526815" lon="9.208650727588633"><ele>221.00000000000003</ele><time>2026-04-12T09:11:11Z</time></trkpt><trkpt lat="45.64526915837473" lon="9.208637083629215"><ele>221.0</ele><time>2026-04-12T09:11:12Z</time></trkpt><trkpt lat="45.645390696096925" lon="9.20862444775167"><ele>221.0</ele><time>2026-04-12T09:11:13Z</time></trkpt><trkpt lat="45.64551797957868" lon="9.208611825576876"><ele>221.0</ele><time>2026-04-12T09:11:14Z</time></trkpt><trkpt lat="45.64563654720314" lon="9.208572911784934"><ele>221.00000000000003</ele><time>2026-04-12T09:11:15Z</time></trkpt><trkpt lat="45.64575416176534" lon="9.208590385914343"><ele>221.00000000000003</ele><time>2026-04-12T09:11:16Z</time></trkpt><trkpt lat="45.645860886005224" lon="9.208582468311258"><ele>221.0</ele><time>2026-04-12T09:11:17Z</time></trkpt><trkpt lat="45.64596008419219" lon="9.208578479746802"><ele>221.0</ele><time>2026-04-12T09:11:18Z</time></trkpt><trkpt lat="45.64605302169868" lon="9.208574672633189"><ele>221.33333333333334</ele><time>2026-04-12T09:11:19Z</time></trkpt><trkpt lat="45.6461392848091" lon="9.208568755468104"><ele>221.66666666666669</ele><time>2026-04-12T09:11:20Z</time></trkpt><trkpt lat="45.64622343028653" lon="9.20856409436378"><ele>222.0</ele><time>2026-04-12T09:11:21Z</time></trkpt><trkpt lat="45.64630027817985" lon="9.208558550623897"><ele>222.33333333333331</ele><time>2026-04-12T09:11:22Z</time></trkpt><trkpt lat="45.64636707649398" lon="9.208554836805952"><ele>222.66666666666666</ele><time>2026-04-12T09:11:23Z</time></trkpt><trkpt lat="45.64646551432778" lon="9.208555603091973"><ele>223.0</ele><time>2026-04-12T09:11:25Z</time></trkpt><trkpt lat="45.64653732568285" lon="9.208542903048702"><ele>223.0</ele><time>2026-04-12T09:11:43Z</time></trkpt><trkpt lat="45.64664490023456" lon="9.208524683507637"><ele>223.0</ele><time>2026-04-12T09:11:45Z</time></trkpt><trkpt lat="45.646722401694234" lon="9.208517653158507"><ele>223.0</ele><time>2026-04-12T09:11:46Z</time></trkpt><trkpt lat="45.6468085784285" lon="9.208509003554942"><ele>223.0</ele><time>2026-04-12T09:11:47Z</time></trkpt><trkpt lat="45.646900469678656" lon="9.208501439680239"><ele>223.0</ele><time>2026-04-12T09:11:48Z</time></trkpt><trkpt lat="45.6470006409017" lon="9.208491913408395"><ele>223.2</ele><time>2026-04-12T09:11:49Z</time></trkpt><trkpt lat="45.64710503824359" lon="9.208484474294854"><ele>223.4</ele><time>2026-04-12T09:11:50Z</time></trkpt><trkpt lat="45.64721423235921" lon="9.208482496781103"><ele>223.59999999999997</ele><time>2026-04-12T09:11:51Z</time></trkpt><trkpt lat="45.64732789439116" lon="9.208488442232245"><ele>223.79999999999998</ele><time>2026-04-12T09:11:52Z</time></trkpt><trkpt lat="45.647444407480904" lon="9.208496023315135"><ele>224.0</ele><time>2026-04-12T09:11:53Z</time></trkpt><trkpt lat="45.64755608734841" lon="9.208497908192625"><ele>224.0</ele><time>2026-04-12T09:11:54Z</time></trkpt><trkpt lat="45.64766420329388" lon="9.208497627076447"><ele>223.99999999999997</ele><time>2026-04-12T09:11:55Z</time></trkpt><trkpt lat="45.647767905202805" lon="9.208498482456887"><ele>223.99999999999997</ele><time>2026-04-12T09:11:56Z</time></trkpt><trkpt lat="45.64786442041719" lon="9.208503495286779"><ele>224.0</ele><time>2026-04-12T09:11:57Z</time></trkpt><trkpt lat="45.64795722491813" lon="9.208508627391303"><ele>224.0</ele><time>2026-04-12T09:11:58Z</time></trkpt><trkpt lat="45.64804244752337" lon="9.208516186843303"><ele>224.66666666666669</ele><time>2026-04-12T09:11:59Z</time></trkpt><trkpt lat="45.648126945319255" lon="9.208525071388882"><ele>225.33333333333334</ele><time>2026-04-12T09:12:00Z</time></trkpt><trkpt lat="45.64820585303724" lon="9.208526249543363"><ele>226.0</ele><time>2026-04-12T09:12:01Z</time></trkpt><trkpt lat="45.648280904117385" lon="9.208530016380823"><ele>226.66666666666669</ele><time>2026-04-12T09:12:02Z</time></trkpt><trkpt lat="45.64835440689424" lon="9.208533048491601"><ele>227.33333333333334</ele><time>2026-04-12T09:12:03Z</time></trkpt><trkpt lat="45.64842690692218" lon="9.208541627230554"><ele>228.0</ele><time>2026-04-12T09:12:04Z</time></trkpt><trkpt lat="45.64850282807193" lon="9.208547962775155"><ele>228.0</ele><time>2026-04-12T09:12:05Z</time></trkpt><trkpt lat="45.648584321097495" lon="9.208551546650483"><ele>228.0</ele><time>2026-04-12T09:12:06Z</time></trkpt><trkpt lat="45.64866647367972" lon="9.208559197183046"><ele>228.0</ele><time>2026-04-12T09:12:07Z</time></trkpt><trkpt lat="45.648750298515324" lon="9.20855975250949"><ele>228.0</ele><time>2026-04-12T09:12:08Z</time></trkpt><trkpt lat="45.648840430125894" lon="9.208565797663459"><ele>228.0</ele><time>2026-04-12T09:12:09Z</time></trkpt><trkpt lat="45.64892851905396" lon="9.20857754364182"><ele>228.0</ele><time>2026-04-12T09:12:10Z</time></trkpt><trkpt lat="45.6490143595937" lon="9.208580614642607"><ele>228.0</ele><time>2026-04-12T09:12:11Z</time></trkpt><trkpt lat="45.649088641571446" lon="9.208583930163162"><ele>228.0</ele><time>2026-04-12T09:12:12Z</time></trkpt><trkpt lat="45.64916010556088" lon="9.208583631737465"><ele>228.0</ele><time>2026-04-12T09:12:13Z</time></trkpt><trkpt lat="45.6492760275056" lon="9.208592881147666"><ele>228.0</ele><time>2026-04-12T09:12:15Z</time></trkpt><trkpt lat="45.64935143962241" lon="9.208603838886289"><ele>228.0</ele><time>2026-04-12T09:12:17Z</time></trkpt><trkpt lat="45.6494145785356" lon="9.208604981338764"><ele>228.0</ele><time>2026-04-12T09:12:20Z</time></trkpt><trkpt lat="45.649482796209455" lon="9.208608837407715"><ele>228.0</ele><time>2026-04-12T09:12:28Z</time></trkpt><trkpt lat="45.64959350366366" lon="9.20863366312832"><ele>228.0</ele><time>2026-04-12T09:12:30Z</time></trkpt><trkpt lat="45.64966444350458" lon="9.208629358857893"><ele>228.0</ele><time>2026-04-12T09:12:31Z</time></trkpt><trkpt lat="45.64974257228443" lon="9.208623538267878"><ele>228.0</ele><time>2026-04-12T09:12:32Z</time></trkpt><trkpt lat="45.6498219918851" lon="9.208623134580778"><ele>228.0</ele><time>2026-04-12T09:12:33Z</time></trkpt><trkpt lat="45.64990631858826" lon="9.20862750932387"><ele>228.0</ele><time>2026-04-12T09:12:34Z</time></trkpt><trkpt lat="45.64999345942003" lon="9.20863426158824"><ele>228.0</ele><time>2026-04-12T09:12:35Z</time></trkpt><trkpt lat="45.65008032151384" lon="9.208643290229979"><ele>228.0</ele><time>2026-04-12T09:12:36Z</time></trkpt><trkpt lat="45.650169460122136" lon="9.208655853244261"><ele>228.0</ele><time>2026-04-12T09:12:37Z</time></trkpt><trkpt lat="45.65026221421254" lon="9.208664140169619"><ele>228.0</ele><time>2026-04-12T09:12:38Z</time></trkpt><trkpt lat="45.650357817523556" lon="9.208668760780673"><ele>228.0</ele><time>2026-04-12T09:12:39Z</time></trkpt><trkpt lat="45.65045144762122" lon="9.208668532987115"><ele>228.4</ele><time>2026-04-12T09:12:40Z</time></trkpt><trkpt lat="45.65054904536684" lon="9.208673984569051"><ele>228.8</ele><time>2026-04-12T09:12:41Z</time></trkpt><trkpt lat="45.65064876048351" lon="9.208686758818613"><ele>229.2</ele><time>2026-04-12T09:12:42Z</time></trkpt><trkpt lat="45.65074724735348" lon="9.20870058712568"><ele>229.6</ele><time>2026-04-12T09:12:43Z</time></trkpt><trkpt lat="45.65084904375169" lon="9.208714373151158"><ele>230.0</ele><time>2026-04-12T09:12:44Z</time></trkpt><trkpt lat="45.65095241004255" lon="9.208717537934758"><ele>230.0</ele><time>2026-04-12T09:12:45Z</time></trkpt><trkpt lat="45.651059189537804" lon="9.20872792307508"><ele>230.0</ele><time>2026-04-12T09:12:46Z</time></trkpt><trkpt lat="45.6511671136" lon="9.208737927415115"><ele>230.0</ele><time>2026-04-12T09:12:47Z</time></trkpt><trkpt lat="45.65127158248401" lon="9.208747555773085"><ele>230.0</ele><time>2026-04-12T09:12:48Z</time></trkpt><trkpt lat="45.65137039870799" lon="9.208753746080399"><ele>230.0</ele><time>2026-04-12T09:12:49Z</time></trkpt><trkpt lat="45.651463628523" lon="9.208763797748745"><ele>229.8</ele><time>2026-04-12T09:12:50Z</time></trkpt><trkpt lat="45.65155650207111" lon="9.208775485530024"><ele>229.6</ele><time>2026-04-12T09:12:51Z</time></trkpt><trkpt lat="45.65164939048173" lon="9.208783355211049"><ele>229.39999999999998</ele><time>2026-04-12T09:12:52Z</time></trkpt><trkpt lat="45.65174389406518" lon="9.208790263253439"><ele>229.2</ele><time>2026-04-12T09:12:53Z</time></trkpt><trkpt lat="45.65184188617878" lon="9.208795805465767"><ele>229.0</ele><time>2026-04-12T09:12:54Z</time></trkpt><trkpt lat="45.651941057232634" lon="9.208807936634201"><ele>228.83333333333331</ele><time>2026-04-12T09:12:55Z</time></trkpt><trkpt lat="45.65202932562578" lon="9.208812215822272"><ele>228.66666666666666</ele><time>2026-04-12T09:12:56Z</time></trkpt><trkpt lat="45.652115850432935" lon="9.208820951965498"><ele>228.5</ele><time>2026-04-12T09:12:57Z</time></trkpt><trkpt lat="45.65219848431763" lon="9.208829084485007"><ele>228.33333333333331</ele><time>2026-04-12T09:12:58Z</time></trkpt><trkpt lat="45.652271351034194" lon="9.208833130197478"><ele>228.16666666666666</ele><time>2026-04-12T09:12:59Z</time></trkpt><trkpt lat="45.65234304416407" lon="9.208842046091608"><ele>228.0</ele><time>2026-04-12T09:13:00Z</time></trkpt><trkpt lat="45.65240954406116" lon="9.208848930026711"><ele>228.0</ele><time>2026-04-12T09:13:01Z</time></trkpt><trkpt lat="45.652523274234646" lon="9.208858891104851"><ele>228.0</ele><time>2026-04-12T09:13:03Z</time></trkpt><trkpt lat="45.65262060908511" lon="9.208870225225967"><ele>228.0</ele><time>2026-04-12T09:13:05Z</time></trkpt><trkpt lat="45.652693411103854" lon="9.208873663048752"><ele>228.0</ele><time>2026-04-12T09:13:07Z</time></trkpt><trkpt lat="45.65275834156045" lon="9.208874833540328"><ele>228.0</ele><time>2026-04-12T09:13:10Z</time></trkpt><trkpt lat="45.65283738099188" lon="9.208894074587901"><ele>228.0</ele><time>2026-04-12T09:13:14Z</time></trkpt><trkpt lat="45.65290966702349" lon="9.208878896243602"><ele>228.0</ele><time>2026-04-12T09:13:16Z</time></trkpt><trkpt lat="45.65297169846105" lon="9.208895593192365"><ele>228.0</ele><time>2026-04-12T09:13:24Z</time></trkpt><trkpt lat="45.6530918623116" lon="9.208897160127846"><ele>228.0</ele><time>2026-04-12T09:13:27Z</time></trkpt><trkpt lat="45.65316127881828" lon="9.208901188978654"><ele>228.0</ele><time>2026-04-12T09:13:28Z</time></trkpt><trkpt lat="45.653240803262925" lon="9.208904016068596"><ele>228.0</ele><time>2026-04-12T09:13:29Z</time></trkpt><trkpt lat="45.65332887191096" lon="9.208909036246347"><ele>228.0</ele><time>2026-04-12T09:13:30Z</time></trkpt><trkpt lat="45.65342510455504" lon="9.208914446852905"><ele>228.0</ele><time>2026-04-12T09:13:31Z</time></trkpt><trkpt lat="45.65352338227924" lon="9.2089205400389"><ele>228.0</ele><time>2026-04-12T09:13:32Z</time></trkpt><trkpt lat="45.653622503125504" lon="9.208925626805609"><ele>228.0</ele><time>2026-04-12T09:13:33Z</time></trkpt><trkpt lat="45.65372793746199" lon="9.208923243732738"><ele>228.0</ele><time>2026-04-12T09:13:34Z</time></trkpt><trkpt lat="45.653839317924934" lon="9.20892298487456"><ele>228.0</ele><time>2026-04-12T09:13:35Z</time></trkpt><trkpt lat="45.653956181186274" lon="9.208926599964345"><ele>228.5</ele><time>2026-04-12T09:13:36Z</time></trkpt><trkpt lat="45.65407826165715" lon="9.208929835195205"><ele>229.0</ele><time>2026-04-12T09:13:37Z</time></trkpt><trkpt lat="45.654204487748366" lon="9.208933096252784"><ele>229.5</ele><time>2026-04-12T09:13:38Z</time></trkpt><trkpt lat="45.65433406733271" lon="9.208934806852797"><ele>230.0</ele><time>2026-04-12T09:13:39Z</time></trkpt><trkpt lat="45.65446492607679" lon="9.208942783819095"><ele>230.25</ele><time>2026-04-12T09:13:40Z</time></trkpt><trkpt lat="45.6546037309352" lon="9.20894503760817"><ele>230.5</ele><time>2026-04-12T09:13:41Z</time></trkpt><trkpt lat="45.65473918648952" lon="9.208948269092334"><ele>230.75</ele><time>2026-04-12T09:13:42Z</time></trkpt><trkpt lat="45.65487757023289" lon="9.208943727004833"><ele>231.0</ele><time>2026-04-12T09:13:43Z</time></trkpt><trkpt lat="45.65501058398737" lon="9.20895304665821"><ele>231.0</ele><time>2026-04-12T09:13:44Z</time></trkpt><trkpt lat="45.65513812409821" lon="9.208947138583389"><ele>231.00000000000003</ele><time>2026-04-12T09:13:45Z</time></trkpt><trkpt lat="45.65525407050207" lon="9.208953696786537"><ele>231.00000000000003</ele><time>2026-04-12T09:13:46Z</time></trkpt><trkpt lat="45.65536294590754" lon="9.208952267937038"><ele>231.0</ele><time>2026-04-12T09:13:47Z</time></trkpt><trkpt lat="45.65544781041733" lon="9.208957178150545"><ele>231.0</ele><time>2026-04-12T09:13:48Z</time></trkpt><trkpt lat="45.655523565688696" lon="9.208973777525348"><ele>230.83333333333334</ele><time>2026-04-12T09:13:49Z</time></trkpt><trkpt lat="45.655598520562485" lon="9.20895946407807"><ele>230.66666666666669</ele><time>2026-04-12T09:13:50Z</time></trkpt><trkpt lat="45.65566798291171" lon="9.20895961338213"><ele>230.5</ele><time>2026-04-12T09:13:51Z</time></trkpt><trkpt lat="45.65577782235933" lon="9.208967100606818"><ele>230.33333333333334</ele><time>2026-04-12T09:13:53Z</time></trkpt><trkpt lat="45.65584998016124" lon="9.208979379143255"><ele>230.16666666666669</ele><time>2026-04-12T09:13:59Z</time></trkpt><trkpt lat="45.6559153314792" lon="9.209003695503366"><ele>230.0</ele><time>2026-04-12T09:14:01Z</time></trkpt><trkpt lat="45.65602944130982" lon="9.209079772805183"><ele>230.0</ele><time>2026-04-12T09:14:03Z</time></trkpt><trkpt lat="45.656101779732566" lon="9.20908791770387"><ele>230.0</ele><time>2026-04-12T09:14:04Z</time></trkpt><trkpt lat="45.65619013138553" lon="9.209076055252568"><ele>230.0</ele><time>2026-04-12T09:14:05Z</time></trkpt><trkpt lat="45.65628790157411" lon="9.209070103173357"><ele>230.0</ele><time>2026-04-12T09:14:06Z</time></trkpt><trkpt lat="45.656388685743714" lon="9.209082654675457"><ele>230.0</ele><time>2026-04-12T09:14:07Z</time></trkpt><trkpt lat="45.65649755243458" lon="9.20910046017052"><ele>230.0</ele><time>2026-04-12T09:14:08Z</time></trkpt><trkpt lat="45.656610461706975" lon="9.209120891190873"><ele>230.0</ele><time>2026-04-12T09:14:09Z</time></trkpt><trkpt lat="45.656718234723456" lon="9.20914793385616"><ele>230.0</ele><time>2026-04-12T09:14:10Z</time></trkpt><trkpt lat="45.65681273449911" lon="9.209181138743519"><ele>230.0</ele><time>2026-04-12T09:14:11Z</time></trkpt><trkpt lat="45.65689137810885" lon="9.209213705063567"><ele>230.0</ele><time>2026-04-12T09:14:12Z</time></trkpt><trkpt lat="45.65696318949684" lon="9.20923393677719"><ele>230.4</ele><time>2026-04-12T09:14:13Z</time></trkpt><trkpt lat="45.6570343579711" lon="9.209263112512792"><ele>230.8</ele><time>2026-04-12T09:14:15Z</time></trkpt><trkpt lat="45.65704987557792" lon="9.209087299369255"><ele>231.2</ele><time>2026-04-12T09:14:17Z</time></trkpt><trkpt lat="45.65697359988272" lon="9.20900261322173"><ele>231.6</ele><time>2026-04-12T09:14:19Z</time></trkpt><trkpt lat="45.65688184265188" lon="9.208965511392178"><ele>232.0</ele><time>2026-04-12T09:14:21Z</time></trkpt><trkpt lat="45.65681059098665" lon="9.208964442616558"><ele>231.99999999999997</ele><time>2026-04-12T09:14:23Z</time></trkpt><trkpt lat="45.65671666703765" lon="9.209020602634515"><ele>232.0</ele><time>2026-04-12T09:14:25Z</time></trkpt><trkpt lat="45.65659450919354" lon="9.208991558858958"><ele>232.0</ele><time>2026-04-12T09:14:27Z</time></trkpt><trkpt lat="45.65652371571082" lon="9.20898039190603"><ele>232.0</ele><time>2026-04-12T09:14:28Z</time></trkpt><trkpt lat="45.65644950930379" lon="9.2089727654113"><ele>231.99999999999997</ele><time>2026-04-12T09:14:29Z</time></trkpt><trkpt lat="45.656385291648064" lon="9.208963312742705"><ele>232.0</ele><time>2026-04-12T09:14:30Z</time></trkpt><trkpt lat="45.656267458988246" lon="9.208941822585583"><ele>231.99999999999997</ele><time>2026-04-12T09:14:32Z</time></trkpt><trkpt lat="45.65615416997675" lon="9.208906269294335"><ele>232.0</ele><time>2026-04-12T09:14:34Z</time></trkpt><trkpt lat="45.65609921218108" lon="9.208843642665311"><ele>232.0</ele><time>2026-04-12T09:14:35Z</time></trkpt><trkpt lat="45.65605703199349" lon="9.208754878859828"><ele>232.0</ele><time>2026-04-12T09:14:36Z</time></trkpt><trkpt lat="45.65603337611274" lon="9.208648542925529"><ele>231.99999999999997</ele><time>2026-04-12T09:14:37Z</time></trkpt><trkpt lat="45.656030758529" lon="9.208532403502955"><ele>232.0</ele><time>2026-04-12T09:14:38Z</time></trkpt><trkpt lat="45.656038359661665" lon="9.20840538398577"><ele>231.99999999999997</ele><time>2026-04-12T09:14:39Z</time></trkpt><trkpt lat="45.656049611306706" lon="9.208283445162069"><ele>232.0</ele><time>2026-04-12T09:14:40Z</time></trkpt><trkpt lat="45.656056088722565" lon="9.208158311589795"><ele>232.0</ele><time>2026-04-12T09:14:41Z</time></trkpt><trkpt lat="45.65605873670908" lon="9.208033604547147"><ele>232.0</ele><time>2026-04-12T09:14:42Z</time></trkpt><trkpt lat="45.656064356367175" lon="9.207903389331218"><ele>231.99999999999997</ele><time>2026-04-12T09:14:43Z</time></trkpt><trkpt lat="45.65607503908649" lon="9.207769512931545"><ele>232.0</ele><time>2026-04-12T09:14:44Z</time></trkpt><trkpt lat="45.65608669035766" lon="9.207627888790219"><ele>232.0</ele><time>2026-04-12T09:14:45Z</time></trkpt><trkpt lat="45.65609727650935" lon="9.207481882473084"><ele>232.0</ele><time>2026-04-12T09:14:46Z</time></trkpt><trkpt lat="45.65610948727418" lon="9.20733250707065"><ele>232.0</ele><time>2026-04-12T09:14:47Z</time></trkpt><trkpt lat="45.656123899374364" lon="9.207175533191357"><ele>232.0</ele><time>2026-04-12T09:14:48Z</time></trkpt><trkpt lat="45.65613640240781" lon="9.207018232304398"><ele>232.0</ele><time>2026-04-12T09:14:49Z</time></trkpt><trkpt lat="45.65614847007856" lon="9.206873566500088"><ele>231.8</ele><time>2026-04-12T09:14:50Z</time></trkpt><trkpt lat="45.65616616772643" lon="9.206724399649945"><ele>231.6</ele><time>2026-04-12T09:14:51Z</time></trkpt><trkpt lat="45.656176571531745" lon="9.206593429306462"><ele>231.40000000000003</ele><time>2026-04-12T09:14:52Z</time></trkpt><trkpt lat="45.6561893137977" lon="9.20646051840991"><ele>231.20000000000002</ele><time>2026-04-12T09:14:53Z</time></trkpt><trkpt lat="45.65619963487175" lon="9.206330158777728"><ele>231.0</ele><time>2026-04-12T09:14:54Z</time></trkpt><trkpt lat="45.656210622468905" lon="9.206201430664475"><ele>231.0</ele><time>2026-04-12T09:14:55Z</time></trkpt><trkpt lat="45.65621900466889" lon="9.206090655525001"><ele>231.0</ele><time>2026-04-12T09:14:56Z</time></trkpt><trkpt lat="45.65622508881589" lon="9.205997853865247"><ele>231.0</ele><time>2026-04-12T09:14:57Z</time></trkpt><trkpt lat="45.65623508326915" lon="9.205906871738806"><ele>231.0</ele><time>2026-04-12T09:14:58Z</time></trkpt><trkpt lat="45.656245344887814" lon="9.205719334158005"><ele>231.0</ele><time>2026-04-12T09:15:00Z</time></trkpt><trkpt lat="45.65625741231413" lon="9.205618803196732"><ele>231.0</ele><time>2026-04-12T09:15:01Z</time></trkpt><trkpt lat="45.65626638968844" lon="9.205505724322531"><ele>231.0</ele><time>2026-04-12T09:15:02Z</time></trkpt><trkpt lat="45.65627816149402" lon="9.205386167699984"><ele>231.0</ele><time>2026-04-12T09:15:03Z</time></trkpt><trkpt lat="45.65629250225316" lon="9.205268132368262"><ele>231.0</ele><time>2026-04-12T09:15:04Z</time></trkpt><trkpt lat="45.65630691660356" lon="9.205156131988709"><ele>231.0</ele><time>2026-04-12T09:15:05Z</time></trkpt><trkpt lat="45.65631727060998" lon="9.205060545986159"><ele>231.0</ele><time>2026-04-12T09:15:06Z</time></trkpt><trkpt lat="45.65634138841666" lon="9.204914026253181"><ele>231.0</ele><time>2026-04-12T09:15:08Z</time></trkpt><trkpt lat="45.656356225584425" lon="9.204824875465702"><ele>231.33333333333334</ele><time>2026-04-12T09:15:11Z</time></trkpt><trkpt lat="45.656367085415056" lon="9.204718710622977"><ele>231.66666666666669</ele><time>2026-04-12T09:15:49Z</time></trkpt><trkpt lat="45.65637248961358" lon="9.204628122114121"><ele>232.0</ele><time>2026-04-12T09:15:50Z</time></trkpt><trkpt lat="45.65637814414186" lon="9.204531533176882"><ele>232.33333333333334</ele><time>2026-04-12T09:15:51Z</time></trkpt><trkpt lat="45.65639336982564" lon="9.204382665532748"><ele>232.66666666666669</ele><time>2026-04-12T09:15:53Z</time></trkpt><trkpt lat="45.65651093744878" lon="9.204347103945697"><ele>233.0</ele><time>2026-04-12T09:15:54Z</time></trkpt><trkpt lat="45.65658523468951" lon="9.204336553226542"><ele>233.0</ele><time>2026-04-12T09:15:55Z</time></trkpt><trkpt lat="45.656674174921456" lon="9.204340909582806"><ele>233.0</ele><time>2026-04-12T09:15:56Z</time></trkpt><trkpt lat="45.656765316734344" lon="9.204334326421144"><ele>233.0</ele><time>2026-04-12T09:15:57Z</time></trkpt><trkpt lat="45.656868878239344" lon="9.20431944951065"><ele>233.0</ele><time>2026-04-12T09:15:58Z</time></trkpt><trkpt lat="45.656979828371085" lon="9.204303211830341"><ele>233.0</ele><time>2026-04-12T09:15:59Z</time></trkpt><trkpt lat="45.65709436403796" lon="9.204290548002167"><ele>232.5</ele><time>2026-04-12T09:16:00Z</time></trkpt><trkpt lat="45.65721064578123" lon="9.204274478808909"><ele>232.0</ele><time>2026-04-12T09:16:01Z</time></trkpt><trkpt lat="45.65733186543754" lon="9.204255195489308"><ele>231.5</ele><time>2026-04-12T09:16:02Z</time></trkpt><trkpt lat="45.657451855435006" lon="9.204238262133893"><ele>231.0</ele><time>2026-04-12T09:16:03Z</time></trkpt><trkpt lat="45.657565038411455" lon="9.204220944744886"><ele>231.0</ele><time>2026-04-12T09:16:04Z</time></trkpt><trkpt lat="45.657667252033505" lon="9.204190641195003"><ele>231.00000000000003</ele><time>2026-04-12T09:16:05Z</time></trkpt><trkpt lat="45.65776258442435" lon="9.204174183022777"><ele>231.00000000000003</ele><time>2026-04-12T09:16:06Z</time></trkpt><trkpt lat="45.65786755441378" lon="9.204144712248556"><ele>231.0</ele><time>2026-04-12T09:16:07Z</time></trkpt><trkpt lat="45.65797591884042" lon="9.204109280110567"><ele>231.0</ele><time>2026-04-12T09:16:08Z</time></trkpt><trkpt lat="45.65808166357191" lon="9.204078061237448"><ele>231.25</ele><time>2026-04-12T09:16:09Z</time></trkpt><trkpt lat="45.658195591989156" lon="9.20404973542207"><ele>231.5</ele><time>2026-04-12T09:16:10Z</time></trkpt><trkpt lat="45.65831144098743" lon="9.204021380755988"><ele>231.75</ele><time>2026-04-12T09:16:11Z</time></trkpt><trkpt lat="45.65843372079089" lon="9.20399436380276"><ele>232.0</ele><time>2026-04-12T09:16:12Z</time></trkpt><trkpt lat="45.65855063270817" lon="9.203964190230092"><ele>232.0</ele><time>2026-04-12T09:16:13Z</time></trkpt><trkpt lat="45.65867374515154" lon="9.203933770308256"><ele>232.0</ele><time>2026-04-12T09:16:14Z</time></trkpt><trkpt lat="45.65880005010429" lon="9.203904554581344"><ele>232.0</ele><time>2026-04-12T09:16:15Z</time></trkpt><trkpt lat="45.658926004399326" lon="9.203869613126999"><ele>232.0</ele><time>2026-04-12T09:16:16Z</time></trkpt><trkpt lat="45.659056031688166" lon="9.203837557244793"><ele>232.0</ele><time>2026-04-12T09:16:17Z</time></trkpt><trkpt lat="45.65918711425275" lon="9.203804326237192"><ele>232.0</ele><time>2026-04-12T09:16:18Z</time></trkpt><trkpt lat="45.659326127410424" lon="9.203771916736397"><ele>232.0</ele><time>2026-04-12T09:16:19Z</time></trkpt><trkpt lat="45.6594646766403" lon="9.203735025956012"><ele>232.0</ele><time>2026-04-12T09:16:20Z</time></trkpt><trkpt lat="45.659604114039404" lon="9.203698511674578"><ele>232.25</ele><time>2026-04-12T09:16:21Z</time></trkpt><trkpt lat="45.65973709239352" lon="9.2036667950176"><ele>232.5</ele><time>2026-04-12T09:16:22Z</time></trkpt><trkpt lat="45.65987196383265" lon="9.203632500541248"><ele>232.75</ele><time>2026-04-12T09:16:23Z</time></trkpt><trkpt lat="45.65999835681916" lon="9.203600803604942"><ele>233.0</ele><time>2026-04-12T09:16:24Z</time></trkpt><trkpt lat="45.66011572474167" lon="9.203575277507378"><ele>233.0</ele><time>2026-04-12T09:16:25Z</time></trkpt><trkpt lat="45.66023826200937" lon="9.203547551187514"><ele>233.0</ele><time>2026-04-12T09:16:26Z</time></trkpt><trkpt lat="45.66035867261967" lon="9.203518726843592"><ele>233.0</ele><time>2026-04-12T09:16:27Z</time></trkpt><trkpt lat="45.66048088191633" lon="9.203488330426977"><ele>233.0</ele><time>2026-04-12T09:16:28Z</time></trkpt><trkpt lat="45.660606376103885" lon="9.203454349158035"><ele>233.2</ele><time>2026-04-12T09:16:29Z</time></trkpt><trkpt lat="45.660724719450975" lon="9.203426576049749"><ele>233.4</ele><time>2026-04-12T09:16:30Z</time></trkpt><trkpt lat="45.66083942075793" lon="9.203398035488783"><ele>233.59999999999997</ele><time>2026-04-12T09:16:31Z</time></trkpt><trkpt lat="45.660935448029925" lon="9.203368030520556"><ele>233.79999999999998</ele><time>2026-04-12T09:16:32Z</time></trkpt><trkpt lat="45.66102901931685" lon="9.203338399617893"><ele>234.0</ele><time>2026-04-12T09:16:33Z</time></trkpt><trkpt lat="45.66112656367007" lon="9.203310174590122"><ele>234.25</ele><time>2026-04-12T09:16:34Z</time></trkpt><trkpt lat="45.661233861917424" lon="9.203283890710013"><ele>234.5</ele><time>2026-04-12T09:16:35Z</time></trkpt><trkpt lat="45.66134690250421" lon="9.203256057899836"><ele>234.75</ele><time>2026-04-12T09:16:36.001Z</time></trkpt><trkpt lat="45.6614668780029" lon="9.203226561100971"><ele>235.0</ele><time>2026-04-12T09:16:37.001Z</time></trkpt><trkpt lat="45.66159762998037" lon="9.20319592019895"><ele>235.0</ele><time>2026-04-12T09:16:38Z</time></trkpt><trkpt lat="45.66173114468105" lon="9.20316243049736"><ele>235.0</ele><time>2026-04-12T09:16:39Z</time></trkpt><trkpt lat="45.661867992448904" lon="9.203126219725222"><ele>235.0</ele><time>2026-04-12T09:16:40Z</time></trkpt><trkpt lat="45.66200758061994" lon="9.20309269595774"><ele>235.0</ele><time>2026-04-12T09:16:41Z</time></trkpt><trkpt lat="45.66214203419376" lon="9.203059360090933"><ele>235.0</ele><time>2026-04-12T09:16:42Z</time></trkpt><trkpt lat="45.66226833537628" lon="9.203028789519735"><ele>235.0</ele><time>2026-04-12T09:16:43Z</time></trkpt><trkpt lat="45.66238997120354" lon="9.202998946765879"><ele>235.0</ele><time>2026-04-12T09:16:44Z</time></trkpt><trkpt lat="45.66250063120514" lon="9.202973833929846"><ele>235.0</ele><time>2026-04-12T09:16:45Z</time></trkpt><trkpt lat="45.66259984738582" lon="9.202944718230633"><ele>235.0</ele><time>2026-04-12T09:16:46Z</time></trkpt><trkpt lat="45.66268275360687" lon="9.202925109440464"><ele>235.0</ele><time>2026-04-12T09:16:47Z</time></trkpt><trkpt lat="45.66278845846795" lon="9.202952095706598"><ele>235.0</ele><time>2026-04-12T09:16:49Z</time></trkpt><trkpt lat="45.66284653118489" lon="9.203039679094877"><ele>235.0</ele><time>2026-04-12T09:17:00Z</time></trkpt><trkpt lat="45.662932415973394" lon="9.20314756088847"><ele>235.0</ele><time>2026-04-12T09:17:02Z</time></trkpt><trkpt lat="45.66300365953965" lon="9.203163374326982"><ele>235.2</ele><time>2026-04-12T09:17:03Z</time></trkpt><trkpt lat="45.66308596953905" lon="9.203117606459012"><ele>235.4</ele><time>2026-04-12T09:17:04Z</time></trkpt><trkpt lat="45.663171964666994" lon="9.203042730539241"><ele>235.60000000000002</ele><time>2026-04-12T09:17:05Z</time></trkpt><trkpt lat="45.66325987458191" lon="9.202971513604217"><ele>235.8</ele><time>2026-04-12T09:17:06Z</time></trkpt><trkpt lat="45.66335871282976" lon="9.202908544535857"><ele>236.0</ele><time>2026-04-12T09:17:07Z</time></trkpt><trkpt lat="45.66347263454473" lon="9.202857711997"><ele>236.0</ele><time>2026-04-12T09:17:08Z</time></trkpt><trkpt lat="45.66358799289684" lon="9.202808554951083"><ele>236.0</ele><time>2026-04-12T09:17:09Z</time></trkpt><trkpt lat="45.66371153115067" lon="9.202757665833156"><ele>236.0</ele><time>2026-04-12T09:17:10Z</time></trkpt><trkpt lat="45.66384530807633" lon="9.202700536619002"><ele>236.0</ele><time>2026-04-12T09:17:11Z</time></trkpt><trkpt lat="45.66398968880427" lon="9.202649075050246"><ele>236.33333333333334</ele><time>2026-04-12T09:17:12Z</time></trkpt><trkpt lat="45.664140328972806" lon="9.202608578027709"><ele>236.66666666666669</ele><time>2026-04-12T09:17:13Z</time></trkpt><trkpt lat="45.664291857924475" lon="9.202577718288044"><ele>237.0</ele><time>2026-04-12T09:17:14Z</time></trkpt><trkpt lat="45.66445168787029" lon="9.202547196478974"><ele>237.33333333333331</ele><time>2026-04-12T09:17:15Z</time></trkpt><trkpt lat="45.664606539697886" lon="9.202509108310876"><ele>237.66666666666666</ele><time>2026-04-12T09:17:16Z</time></trkpt><trkpt lat="45.66475681630604" lon="9.202463897200559"><ele>238.0</ele><time>2026-04-12T09:17:17Z</time></trkpt><trkpt lat="45.664904029557206" lon="9.202418674070453"><ele>238.0</ele><time>2026-04-12T09:17:18Z</time></trkpt><trkpt lat="45.66505390656915" lon="9.20238192705068"><ele>238.0</ele><time>2026-04-12T09:17:19Z</time></trkpt><trkpt lat="45.66520659099434" lon="9.202345760287326"><ele>238.0</ele><time>2026-04-12T09:17:20Z</time></trkpt><trkpt lat="45.66535833011959" lon="9.202304515487825"><ele>237.75</ele><time>2026-04-12T09:17:21Z</time></trkpt><trkpt lat="45.665505551169844" lon="9.20226567926302"><ele>237.5</ele><time>2026-04-12T09:17:22Z</time></trkpt><trkpt lat="45.665644915121014" lon="9.202232634331533"><ele>237.25</ele><time>2026-04-12T09:17:23Z</time></trkpt><trkpt lat="45.66577769637183" lon="9.20220180608608"><ele>237.0</ele><time>2026-04-12T09:17:24Z</time></trkpt><trkpt lat="45.66590862448699" lon="9.202179682470044"><ele>237.0</ele><time>2026-04-12T09:17:25Z</time></trkpt><trkpt lat="45.66604277430346" lon="9.20216830612014"><ele>237.0</ele><time>2026-04-12T09:17:26Z</time></trkpt><trkpt lat="45.666180752141976" lon="9.202173371111519"><ele>237.0</ele><time>2026-04-12T09:17:27Z</time></trkpt><trkpt lat="45.666319364807386" lon="9.20220387066539"><ele>237.0</ele><time>2026-04-12T09:17:28Z</time></trkpt><trkpt lat="45.66645882767857" lon="9.202233645426036"><ele>237.5</ele><time>2026-04-12T09:17:29Z</time></trkpt><trkpt lat="45.666597888777794" lon="9.202258316426317"><ele>238.0</ele><time>2026-04-12T09:17:30Z</time></trkpt><trkpt lat="45.666743326597754" lon="9.20227744597829"><ele>238.5</ele><time>2026-04-12T09:17:31Z</time></trkpt><trkpt lat="45.66688417323079" lon="9.20229559836364"><ele>239.0</ele><time>2026-04-12T09:17:32Z</time></trkpt><trkpt lat="45.66702710184343" lon="9.202320167868386"><ele>239.0</ele><time>2026-04-12T09:17:33Z</time></trkpt><trkpt lat="45.66716945144694" lon="9.202351416664227"><ele>239.0</ele><time>2026-04-12T09:17:34Z</time></trkpt><trkpt lat="45.6673140438717" lon="9.20238004583307"><ele>239.0</ele><time>2026-04-12T09:17:35Z</time></trkpt><trkpt lat="45.6674578811105" lon="9.20239924597459"><ele>239.0</ele><time>2026-04-12T09:17:36Z</time></trkpt><trkpt lat="45.66760629522671" lon="9.202423338452542"><ele>239.0</ele><time>2026-04-12T09:17:37Z</time></trkpt><trkpt lat="45.6677552804873" lon="9.202452785395668"><ele>239.0</ele><time>2026-04-12T09:17:38Z</time></trkpt><trkpt lat="45.66790372597283" lon="9.20248561673917"><ele>239.0</ele><time>2026-04-12T09:17:39Z</time></trkpt><trkpt lat="45.668053513555556" lon="9.202507967493267"><ele>239.5</ele><time>2026-04-12T09:17:40Z</time></trkpt><trkpt lat="45.66819837643367" lon="9.20252908577364"><ele>240.0</ele><time>2026-04-12T09:17:41Z</time></trkpt><trkpt lat="45.66834046527021" lon="9.202548888073897"><ele>240.5</ele><time>2026-04-12T09:17:42Z</time></trkpt><trkpt lat="45.668470952385334" lon="9.20256815210065"><ele>241.0</ele><time>2026-04-12T09:17:43Z</time></trkpt><trkpt lat="45.66859873164401" lon="9.202590803203577"><ele>241.25</ele><time>2026-04-12T09:17:44Z</time></trkpt><trkpt lat="45.66872373285639" lon="9.202612419930903"><ele>241.5</ele><time>2026-04-12T09:17:45Z</time></trkpt><trkpt lat="45.66884316665246" lon="9.202633853625805"><ele>241.75</ele><time>2026-04-12T09:17:46Z</time></trkpt><trkpt lat="45.66895490974413" lon="9.202655383336523"><ele>242.0</ele><time>2026-04-12T09:17:47Z</time></trkpt><trkpt lat="45.66906325953555" lon="9.202673466828212"><ele>242.0</ele><time>2026-04-12T09:17:48Z</time></trkpt><trkpt lat="45.66916614309778" lon="9.202688943987997"><ele>242.0</ele><time>2026-04-12T09:17:49Z</time></trkpt><trkpt lat="45.6692680943229" lon="9.202706900545223"><ele>242.0</ele><time>2026-04-12T09:17:50Z</time></trkpt><trkpt lat="45.66936566262807" lon="9.202725652993097"><ele>242.0</ele><time>2026-04-12T09:17:51Z</time></trkpt><trkpt lat="45.66945971298974" lon="9.202739388373825"><ele>242.0</ele><time>2026-04-12T09:17:52Z</time></trkpt><trkpt lat="45.66956145099504" lon="9.202754636429948"><ele>242.16666666666669</ele><time>2026-04-12T09:17:53Z</time></trkpt><trkpt lat="45.6696567709493" lon="9.20277149508897"><ele>242.33333333333334</ele><time>2026-04-12T09:17:54Z</time></trkpt><trkpt lat="45.66974422606917" lon="9.202787697264194"><ele>242.5</ele><time>2026-04-12T09:17:55Z</time></trkpt><trkpt lat="45.66983056435823" lon="9.202798810919953"><ele>242.66666666666669</ele><time>2026-04-12T09:17:56Z</time></trkpt><trkpt lat="45.66991180298585" lon="9.202808855861441"><ele>242.83333333333334</ele><time>2026-04-12T09:17:57Z</time></trkpt><trkpt lat="45.669985721824055" lon="9.202820544757474"><ele>243.0</ele><time>2026-04-12T09:17:58Z</time></trkpt><trkpt lat="45.670057999085984" lon="9.20282842818391"><ele>243.0</ele><time>2026-04-12T09:17:59Z</time></trkpt><trkpt lat="45.670125337592346" lon="9.202838170957344"><ele>243.0</ele><time>2026-04-12T09:18:00Z</time></trkpt><trkpt lat="45.6702415250437" lon="9.202854717874441"><ele>243.0</ele><time>2026-04-12T09:18:02Z</time></trkpt><trkpt lat="45.67033645855276" lon="9.202870108217406"><ele>243.0</ele><time>2026-04-12T09:18:04Z</time></trkpt><trkpt lat="45.67040533231894" lon="9.202886739706836"><ele>243.0</ele><time>2026-04-12T09:18:06Z</time></trkpt><trkpt lat="45.670517932563214" lon="9.202915162693765"><ele>243.2</ele><time>2026-04-12T09:18:22Z</time></trkpt><trkpt lat="45.67059629108112" lon="9.20292996260376"><ele>243.4</ele><time>2026-04-12T09:18:23Z</time></trkpt><trkpt lat="45.67069473164815" lon="9.20294719398355"><ele>243.59999999999997</ele><time>2026-04-12T09:18:24Z</time></trkpt><trkpt lat="45.670802560769395" lon="9.202967607959296"><ele>243.79999999999998</ele><time>2026-04-12T09:18:25Z</time></trkpt><trkpt lat="45.67091558855869" lon="9.2029876177191"><ele>244.0</ele><time>2026-04-12T09:18:26Z</time></trkpt><trkpt lat="45.67104354794036" lon="9.203011963232145"><ele>244.0</ele><time>2026-04-12T09:18:27Z</time></trkpt><trkpt lat="45.67118636129952" lon="9.20304000402002"><ele>244.0</ele><time>2026-04-12T09:18:28Z</time></trkpt><trkpt lat="45.67132917159545" lon="9.203064849262066"><ele>244.0</ele><time>2026-04-12T09:18:29Z</time></trkpt><trkpt lat="45.671476183765975" lon="9.20309230468835"><ele>244.0</ele><time>2026-04-12T09:18:30Z</time></trkpt><trkpt lat="45.671626155611555" lon="9.203119342639457"><ele>244.0</ele><time>2026-04-12T09:18:31Z</time></trkpt><trkpt lat="45.671774760062185" lon="9.203147921837479"><ele>244.0</ele><time>2026-04-12T09:18:32Z</time></trkpt><trkpt lat="45.67192294041185" lon="9.20317180882677"><ele>244.0</ele><time>2026-04-12T09:18:33Z</time></trkpt><trkpt lat="45.672069452459475" lon="9.203195002113812"><ele>244.0</ele><time>2026-04-12T09:18:34Z</time></trkpt><trkpt lat="45.67221300283825" lon="9.203218625163414"><ele>244.75</ele><time>2026-04-12T09:18:35Z</time></trkpt><trkpt lat="45.672346959436716" lon="9.203245457462375"><ele>245.5</ele><time>2026-04-12T09:18:36Z</time></trkpt><trkpt lat="45.672475111863136" lon="9.2032679114011"><ele>246.25</ele><time>2026-04-12T09:18:37.001Z</time></trkpt><trkpt lat="45.672593912114024" lon="9.203291416298756"><ele>247.0</ele><time>2026-04-12T09:18:38.001Z</time></trkpt><trkpt lat="45.67271305822615" lon="9.203314888402101"><ele>246.75</ele><time>2026-04-12T09:18:39.001Z</time></trkpt><trkpt lat="45.6728356091301" lon="9.203335198066496"><ele>246.5</ele><time>2026-04-12T09:18:40.001Z</time></trkpt><trkpt lat="45.672958751606416" lon="9.203356252977025"><ele>246.25</ele><time>2026-04-12T09:18:41.001Z</time></trkpt><trkpt lat="45.67308103057414" lon="9.203381341668218"><ele>246.0</ele><time>2026-04-12T09:18:42.001Z</time></trkpt><trkpt lat="45.67320082635467" lon="9.20340702368528"><ele>246.0</ele><time>2026-04-12T09:18:43Z</time></trkpt><trkpt lat="45.67331367154016" lon="9.203444865625027"><ele>246.0</ele><time>2026-04-12T09:18:44Z</time></trkpt><trkpt lat="45.673425039176784" lon="9.20349798684582"><ele>246.0</ele><time>2026-04-12T09:18:45Z</time></trkpt><trkpt lat="45.67354286195923" lon="9.20357116199557"><ele>246.0</ele><time>2026-04-12T09:18:46Z</time></trkpt><trkpt lat="45.67365744900774" lon="9.203649469204317"><ele>246.25</ele><time>2026-04-12T09:18:47Z</time></trkpt><trkpt lat="45.673778075989816" lon="9.203732585170007"><ele>246.5</ele><time>2026-04-12T09:18:48Z</time></trkpt><trkpt lat="45.67389835002642" lon="9.20382089567973"><ele>246.75</ele><time>2026-04-12T09:18:49Z</time></trkpt><trkpt lat="45.67402398817366" lon="9.20391223251406"><ele>247.0</ele><time>2026-04-12T09:18:50Z</time></trkpt><trkpt lat="45.67414949887095" lon="9.204003565542374"><ele>247.0</ele><time>2026-04-12T09:18:51Z</time></trkpt><trkpt lat="45.67427871579681" lon="9.20409503786807"><ele>247.0</ele><time>2026-04-12T09:18:52Z</time></trkpt><trkpt lat="45.674410732173754" lon="9.204188100577746"><ele>247.0</ele><time>2026-04-12T09:18:53Z</time></trkpt><trkpt lat="45.674545221822555" lon="9.204277550074192"><ele>247.0</ele><time>2026-04-12T09:18:54Z</time></trkpt><trkpt lat="45.67468327361268" lon="9.204364406084466"><ele>247.0</ele><time>2026-04-12T09:18:55Z</time></trkpt><trkpt lat="45.674823726840074" lon="9.204446597610055"><ele>247.0</ele><time>2026-04-12T09:18:56Z</time></trkpt><trkpt lat="45.67497120883052" lon="9.20452063245229"><ele>247.0</ele><time>2026-04-12T09:18:57Z</time></trkpt><trkpt lat="45.67510992385575" lon="9.204585452593971"><ele>247.0</ele><time>2026-04-12T09:18:58Z</time></trkpt><trkpt lat="45.67524250394243" lon="9.204639259216401"><ele>247.0</ele><time>2026-04-12T09:18:59Z</time></trkpt><trkpt lat="45.67537034406262" lon="9.204682951375174"><ele>247.0</ele><time>2026-04-12T09:19:00Z</time></trkpt><trkpt lat="45.67549623792929" lon="9.204721654178844"><ele>247.0</ele><time>2026-04-12T09:19:01Z</time></trkpt><trkpt lat="45.675616754227185" lon="9.20475643030054"><ele>247.2</ele><time>2026-04-12T09:19:02Z</time></trkpt><trkpt lat="45.675730097099965" lon="9.204785926129555"><ele>247.39999999999998</ele><time>2026-04-12T09:19:03Z</time></trkpt><trkpt lat="45.67584054509332" lon="9.204809955357362"><ele>247.60000000000002</ele><time>2026-04-12T09:19:04Z</time></trkpt><trkpt lat="45.67594259034587" lon="9.204826424904175"><ele>247.8</ele><time>2026-04-12T09:19:05Z</time></trkpt><trkpt lat="45.676030903295086" lon="9.20484083703829"><ele>248.0</ele><time>2026-04-12T09:19:06Z</time></trkpt><trkpt lat="45.67610413737984" lon="9.204854696760894"><ele>248.00000000000003</ele><time>2026-04-12T09:19:07Z</time></trkpt><trkpt lat="45.67616667394328" lon="9.204868827311522"><ele>248.0</ele><time>2026-04-12T09:19:08Z</time></trkpt><trkpt lat="45.676258013069614" lon="9.204887000571613"><ele>248.0</ele><time>2026-04-12T09:19:10Z</time></trkpt><trkpt lat="45.676332945888525" lon="9.204900850022806"><ele>248.0</ele><time>2026-04-12T09:22:05.001Z</time></trkpt><trkpt lat="45.67643923789507" lon="9.204914273958787"><ele>248.00000000000003</ele><time>2026-04-12T09:22:08.001Z</time></trkpt><trkpt lat="45.676534455681725" lon="9.204933125310141"><ele>248.0</ele><time>2026-04-12T09:22:10.001Z</time></trkpt><trkpt lat="45.67661509402323" lon="9.204943251600612"><ele>248.00000000000003</ele><time>2026-04-12T09:22:12.001Z</time></trkpt><trkpt lat="45.676696423268" lon="9.204952328662115"><ele>248.0</ele><time>2026-04-12T09:22:14.001Z</time></trkpt><trkpt lat="45.676787998983194" lon="9.204978560011709"><ele>248.0</ele><time>2026-04-12T09:22:17.001Z</time></trkpt><trkpt lat="45.67685200695827" lon="9.205043945279664"><ele>248.0</ele><time>2026-04-12T09:22:19.001Z</time></trkpt><trkpt lat="45.67690161689124" lon="9.205161708746774"><ele>248.00000000000003</ele><time>2026-04-12T09:22:21.001Z</time></trkpt><trkpt lat="45.67694040761775" lon="9.205287521693672"><ele>248.0</ele><time>2026-04-12T09:22:23.001Z</time></trkpt><trkpt lat="45.6769880250921" lon="9.205202519962137"><ele>248.2</ele><time>2026-04-12T09:22:26.001Z</time></trkpt><trkpt lat="45.67709296110941" lon="9.205195502930017"><ele>248.4</ele><time>2026-04-12T09:22:28.001Z</time></trkpt><trkpt lat="45.67715421113258" lon="9.205140332154311"><ele>248.59999999999997</ele><time>2026-04-12T09:22:29.001Z</time></trkpt><trkpt lat="45.67722123172426" lon="9.205095697917445"><ele>248.79999999999998</ele><time>2026-04-12T09:22:30.001Z</time></trkpt><trkpt lat="45.677281794038244" lon="9.205015649817955"><ele>249.0</ele><time>2026-04-12T09:22:31.001Z</time></trkpt><trkpt lat="45.677411066226995" lon="9.205056463452426"><ele>249.0</ele><time>2026-04-12T09:22:32.001Z</time></trkpt><trkpt lat="45.677486452055135" lon="9.20507131738701"><ele>248.99999999999997</ele><time>2026-04-12T09:22:33.001Z</time></trkpt><trkpt lat="45.67758658369797" lon="9.205113629340103"><ele>248.99999999999997</ele><time>2026-04-12T09:22:34.001Z</time></trkpt><trkpt lat="45.67769159463126" lon="9.205155790949407"><ele>249.0</ele><time>2026-04-12T09:22:35.001Z</time></trkpt><trkpt lat="45.67780135541834" lon="9.205190532921357"><ele>249.0</ele><time>2026-04-12T09:22:36.001Z</time></trkpt><trkpt lat="45.67791704603105" lon="9.205221206438324"><ele>248.5</ele><time>2026-04-12T09:22:37.001Z</time></trkpt><trkpt lat="45.678037586868236" lon="9.205250301064398"><ele>248.0</ele><time>2026-04-12T09:22:38.001Z</time></trkpt><trkpt lat="45.67816493636592" lon="9.205287531107725"><ele>247.5</ele><time>2026-04-12T09:22:39.001Z</time></trkpt><trkpt lat="45.67829162737637" lon="9.205325531759089"><ele>247.0</ele><time>2026-04-12T09:22:40.001Z</time></trkpt><trkpt lat="45.67842460706601" lon="9.205366199706392"><ele>247.0</ele><time>2026-04-12T09:22:41.001Z</time></trkpt><trkpt lat="45.6785631517635" lon="9.205405518829618"><ele>247.0</ele><time>2026-04-12T09:22:42.001Z</time></trkpt><trkpt lat="45.67870500051232" lon="9.205447651579165"><ele>247.0</ele><time>2026-04-12T09:22:43.001Z</time></trkpt><trkpt lat="45.67884867873969" lon="9.205483893108308"><ele>247.0</ele><time>2026-04-12T09:22:44.001Z</time></trkpt><trkpt lat="45.67898918914054" lon="9.205518638908414"><ele>247.5</ele><time>2026-04-12T09:22:45.001Z</time></trkpt><trkpt lat="45.67912731492762" lon="9.205550563966181"><ele>248.0</ele><time>2026-04-12T09:22:46.001Z</time></trkpt><trkpt lat="45.679265359236965" lon="9.205576433144559"><ele>248.5</ele><time>2026-04-12T09:22:47.001Z</time></trkpt><trkpt lat="45.67939836538562" lon="9.205595472674048"><ele>249.0</ele><time>2026-04-12T09:22:48.001Z</time></trkpt><trkpt lat="45.6795235530329" lon="9.205602911085437"><ele>249.75</ele><time>2026-04-12T09:22:49.001Z</time></trkpt><trkpt lat="45.6796431141624" lon="9.205599370744961"><ele>250.5</ele><time>2026-04-12T09:22:50.001Z</time></trkpt><trkpt lat="45.67975744286338" lon="9.205588544467986"><ele>251.25</ele><time>2026-04-12T09:22:51.001Z</time></trkpt><trkpt lat="45.67987779670912" lon="9.205576021149005"><ele>252.0</ele><time>2026-04-12T09:22:52.001Z</time></trkpt><trkpt lat="45.68000092174786" lon="9.205562476108161"><ele>252.0</ele><time>2026-04-12T09:22:53.001Z</time></trkpt><trkpt lat="45.68012906761845" lon="9.205548596120085"><ele>252.0</ele><time>2026-04-12T09:22:54.001Z</time></trkpt><trkpt lat="45.680263413278674" lon="9.205534815316577"><ele>252.0</ele><time>2026-04-12T09:22:55.001Z</time></trkpt><trkpt lat="45.68040205095858" lon="9.205520082388889"><ele>252.0</ele><time>2026-04-12T09:22:56.001Z</time></trkpt><trkpt lat="45.68054467440567" lon="9.205507289220844"><ele>252.0</ele><time>2026-04-12T09:22:57.001Z</time></trkpt><trkpt lat="45.68068811627155" lon="9.205493305594539"><ele>252.0</ele><time>2026-04-12T09:22:58.001Z</time></trkpt><trkpt lat="45.680829953502645" lon="9.205478207103209"><ele>252.0</ele><time>2026-04-12T09:22:59.001Z</time></trkpt><trkpt lat="45.680966556493544" lon="9.205463315707318"><ele>252.0</ele><time>2026-04-12T09:23:00.001Z</time></trkpt><trkpt lat="45.68110685860669" lon="9.205444354817448"><ele>251.75</ele><time>2026-04-12T09:23:01.001Z</time></trkpt><trkpt lat="45.68124826922884" lon="9.205429542137292"><ele>251.5</ele><time>2026-04-12T09:23:02.001Z</time></trkpt><trkpt lat="45.681391640088144" lon="9.205415958925279"><ele>251.25</ele><time>2026-04-12T09:23:03.001Z</time></trkpt><trkpt lat="45.68153620628892" lon="9.205405262791016"><ele>251.0</ele><time>2026-04-12T09:23:04.001Z</time></trkpt><trkpt lat="45.681678281709154" lon="9.205391051291592"><ele>251.0</ele><time>2026-04-12T09:23:05.001Z</time></trkpt><trkpt lat="45.68182576877073" lon="9.205375633667169"><ele>251.0</ele><time>2026-04-12T09:23:06.001Z</time></trkpt><trkpt lat="45.68197281589666" lon="9.205360501970983"><ele>251.0</ele><time>2026-04-12T09:23:07.001Z</time></trkpt><trkpt lat="45.682119543979866" lon="9.205343571699308"><ele>251.0</ele><time>2026-04-12T09:23:08.001Z</time></trkpt><trkpt lat="45.682269474404585" lon="9.205329392051233"><ele>251.33333333333334</ele><time>2026-04-12T09:23:09.001Z</time></trkpt><trkpt lat="45.682419691207805" lon="9.205311251337289"><ele>251.66666666666669</ele><time>2026-04-12T09:23:10.001Z</time></trkpt><trkpt lat="45.68257309647899" lon="9.205297149117733"><ele>252.0</ele><time>2026-04-12T09:23:11.001Z</time></trkpt><trkpt lat="45.68271954771419" lon="9.205280032517097"><ele>252.33333333333331</ele><time>2026-04-12T09:23:12.001Z</time></trkpt><trkpt lat="45.68287370303223" lon="9.205262248108946"><ele>252.66666666666666</ele><time>2026-04-12T09:23:13.001Z</time></trkpt><trkpt lat="45.68301658614703" lon="9.205262292291636"><ele>253.0</ele><time>2026-04-12T09:23:14.001Z</time></trkpt><trkpt lat="45.68317143058189" lon="9.205253750254245"><ele>253.0</ele><time>2026-04-12T09:23:15.001Z</time></trkpt><trkpt lat="45.6833241678162" lon="9.205239852013044"><ele>253.0</ele><time>2026-04-12T09:23:16.001Z</time></trkpt><trkpt lat="45.68348296902873" lon="9.205224383523749"><ele>253.0</ele><time>2026-04-12T09:23:17.001Z</time></trkpt><trkpt lat="45.683644315002134" lon="9.205208650283529"><ele>253.66666666666666</ele><time>2026-04-12T09:23:18.001Z</time></trkpt><trkpt lat="45.68380986654656" lon="9.205194391688423"><ele>254.33333333333331</ele><time>2026-04-12T09:23:19.001Z</time></trkpt><trkpt lat="45.68397647971941" lon="9.205176810485607"><ele>255.0</ele><time>2026-04-12T09:23:20.001Z</time></trkpt><trkpt lat="45.68414590073792" lon="9.20515757593735"><ele>255.0</ele><time>2026-04-12T09:23:21.001Z</time></trkpt><trkpt lat="45.68431751411888" lon="9.205136147379216"><ele>255.0</ele><time>2026-04-12T09:23:22.001Z</time></trkpt><trkpt lat="45.68448016343768" lon="9.205118407809705"><ele>255.0</ele><time>2026-04-12T09:23:23.001Z</time></trkpt><trkpt lat="45.684639682675545" lon="9.205101237530405"><ele>255.33333333333331</ele><time>2026-04-12T09:23:24.001Z</time></trkpt><trkpt lat="45.684793533111865" lon="9.205083625848559"><ele>255.66666666666666</ele><time>2026-04-12T09:23:25.001Z</time></trkpt><trkpt lat="45.68494322724461" lon="9.205070456844373"><ele>256.0</ele><time>2026-04-12T09:23:26.001Z</time></trkpt><trkpt lat="45.68509269374102" lon="9.205050043175463"><ele>256.0</ele><time>2026-04-12T09:23:27.001Z</time></trkpt><trkpt lat="45.68524024835614" lon="9.205030661734709"><ele>256.0</ele><time>2026-04-12T09:23:28.001Z</time></trkpt><trkpt lat="45.68538778463651" lon="9.205014933335852"><ele>256.0</ele><time>2026-04-12T09:23:29.001Z</time></trkpt><trkpt lat="45.68553997471343" lon="9.204997887265398"><ele>256.0</ele><time>2026-04-12T09:23:30.001Z</time></trkpt><trkpt lat="45.68568601029404" lon="9.204981822353801"><ele>256.0</ele><time>2026-04-12T09:23:31.001Z</time></trkpt><trkpt lat="45.68582440752671" lon="9.204970255505687"><ele>256.0</ele><time>2026-04-12T09:23:32.001Z</time></trkpt><trkpt lat="45.685958993216154" lon="9.204955142592917"><ele>256.0</ele><time>2026-04-12T09:23:33.001Z</time></trkpt><trkpt lat="45.686086351801855" lon="9.204942154033628"><ele>256.0</ele><time>2026-04-12T09:23:34.001Z</time></trkpt><trkpt lat="45.68620726886592" lon="9.204932996649514"><ele>256.0</ele><time>2026-04-12T09:23:35.001Z</time></trkpt><trkpt lat="45.686323618942545" lon="9.204923016731714"><ele>256.0</ele><time>2026-04-12T09:23:36.001Z</time></trkpt><trkpt lat="45.686437674253604" lon="9.204915250837498"><ele>256.0</ele><time>2026-04-12T09:23:37.001Z</time></trkpt><trkpt lat="45.68655263761601" lon="9.204904677473388"><ele>256.0</ele><time>2026-04-12T09:23:38.001Z</time></trkpt><trkpt lat="45.6866710910692" lon="9.204896084149802"><ele>256.0</ele><time>2026-04-12T09:23:39.001Z</time></trkpt><trkpt lat="45.686784251918304" lon="9.204887717687587"><ele>256.0</ele><time>2026-04-12T09:23:40.001Z</time></trkpt><trkpt lat="45.686896387827375" lon="9.204878523542506"><ele>256.0</ele><time>2026-04-12T09:23:41.001Z</time></trkpt><trkpt lat="45.68700253189962" lon="9.204866839201394"><ele>256.0</ele><time>2026-04-12T09:23:42.001Z</time></trkpt><trkpt lat="45.68710894074386" lon="9.204856470717301"><ele>256.0</ele><time>2026-04-12T09:23:43.001Z</time></trkpt><trkpt lat="45.687205001083626" lon="9.20485006771468"><ele>256.40000000000003</ele><time>2026-04-12T09:23:44.001Z</time></trkpt><trkpt lat="45.687293401894216" lon="9.204850421759254"><ele>256.8</ele><time>2026-04-12T09:23:45.001Z</time></trkpt><trkpt lat="45.68737325007354" lon="9.20484945674455"><ele>257.20000000000005</ele><time>2026-04-12T09:23:46.001Z</time></trkpt><trkpt lat="45.68743846416514" lon="9.204843840542367"><ele>257.6</ele><time>2026-04-12T09:23:47.001Z</time></trkpt><trkpt lat="45.687505902371605" lon="9.205032412930864"><ele>258.0</ele><time>2026-04-12T09:23:48.001Z</time></trkpt><trkpt lat="45.687563952738984" lon="9.205140662906059"><ele>258.0</ele><time>2026-04-12T09:23:49.001Z</time></trkpt><trkpt lat="45.68761973553619" lon="9.20525194776763"><ele>258.0</ele><time>2026-04-12T09:23:50.001Z</time></trkpt><trkpt lat="45.687672757894035" lon="9.20537078735911"><ele>258.0</ele><time>2026-04-12T09:23:51.001Z</time></trkpt><trkpt lat="45.68774605181251" lon="9.205465529312876"><ele>258.0</ele><time>2026-04-12T09:23:52.001Z</time></trkpt><trkpt lat="45.68777882114154" lon="9.205619871980332"><ele>258.0</ele><time>2026-04-12T09:23:53.001Z</time></trkpt><trkpt lat="45.687837194947534" lon="9.20574631640615"><ele>258.2</ele><time>2026-04-12T09:23:54.001Z</time></trkpt><trkpt lat="45.68789591674296" lon="9.205869998367994"><ele>258.4</ele><time>2026-04-12T09:23:55.001Z</time></trkpt><trkpt lat="45.68795149714848" lon="9.206000608232529"><ele>258.59999999999997</ele><time>2026-04-12T09:23:56.001Z</time></trkpt><trkpt lat="45.688014677472076" lon="9.206124009938014"><ele>258.8</ele><time>2026-04-12T09:23:57.001Z</time></trkpt><trkpt lat="45.68806934365606" lon="9.206251372799295"><ele>259.0</ele><time>2026-04-12T09:23:58.001Z</time></trkpt><trkpt lat="45.68812528906041" lon="9.206377932668246"><ele>259.0</ele><time>2026-04-12T09:23:59.001Z</time></trkpt><trkpt lat="45.68818165694345" lon="9.206496294879534"><ele>259.0</ele><time>2026-04-12T09:24:00.001Z</time></trkpt><trkpt lat="45.68823693200368" lon="9.206610783430905"><ele>259.0</ele><time>2026-04-12T09:24:01.001Z</time></trkpt><trkpt lat="45.68828745924324" lon="9.206722250610765"><ele>259.0</ele><time>2026-04-12T09:24:02.001Z</time></trkpt><trkpt lat="45.68833380964462" lon="9.206828925297962"><ele>259.0</ele><time>2026-04-12T09:24:03.001Z</time></trkpt><trkpt lat="45.68837892836178" lon="9.206929420919906"><ele>259.0</ele><time>2026-04-12T09:24:04.001Z</time></trkpt><trkpt lat="45.688418060664134" lon="9.207022328486518"><ele>259.0</ele><time>2026-04-12T09:24:05.001Z</time></trkpt><trkpt lat="45.688460202795135" lon="9.207110605299846"><ele>259.0</ele><time>2026-04-12T09:24:06.001Z</time></trkpt><trkpt lat="45.68850094975075" lon="9.207196232193443"><ele>259.0</ele><time>2026-04-12T09:24:07.001Z</time></trkpt><trkpt lat="45.68853889663691" lon="9.207280191458478"><ele>259.0</ele><time>2026-04-12T09:24:08.001Z</time></trkpt><trkpt lat="45.68857973483745" lon="9.207368585423602"><ele>259.0</ele><time>2026-04-12T09:24:09.001Z</time></trkpt><trkpt lat="45.68862122678187" lon="9.207451888445522"><ele>259.0</ele><time>2026-04-12T09:24:10.001Z</time></trkpt><trkpt lat="45.68866193762248" lon="9.207532319116243"><ele>259.2</ele><time>2026-04-12T09:24:11.001Z</time></trkpt><trkpt lat="45.688704595924975" lon="9.207613483468318"><ele>259.4</ele><time>2026-04-12T09:24:12.001Z</time></trkpt><trkpt lat="45.688745614562364" lon="9.207695592930818"><ele>259.6</ele><time>2026-04-12T09:24:13.001Z</time></trkpt><trkpt lat="45.68880728534406" lon="9.20784142626039"><ele>259.8</ele><time>2026-04-12T09:24:15.001Z</time></trkpt><trkpt lat="45.6888708960078" lon="9.20798933452694"><ele>260.0</ele><time>2026-04-12T09:24:17.001Z</time></trkpt><trkpt lat="45.688940632047455" lon="9.208144853971643"><ele>260.00000000000006</ele><time>2026-04-12T09:24:19.001Z</time></trkpt><trkpt lat="45.688976002799336" lon="9.208229425858034"><ele>260.0</ele><time>2026-04-12T09:24:20.001Z</time></trkpt><trkpt lat="45.689014767612406" lon="9.208311370608826"><ele>260.0</ele><time>2026-04-12T09:24:21.001Z</time></trkpt><trkpt lat="45.689056764584016" lon="9.20838842425951"><ele>260.0</ele><time>2026-04-12T09:24:22.001Z</time></trkpt><trkpt lat="45.68909076573531" lon="9.208479465413268"><ele>260.0</ele><time>2026-04-12T09:24:23.001Z</time></trkpt><trkpt lat="45.68914646834039" lon="9.208555695689409"><ele>260.00000000000006</ele><time>2026-04-12T09:24:24.001Z</time></trkpt><trkpt lat="45.68916854024201" lon="9.208659950908498"><ele>260.0</ele><time>2026-04-12T09:24:25.001Z</time></trkpt><trkpt lat="45.68921671307048" lon="9.208724413601553"><ele>260.0</ele><time>2026-04-12T09:24:26.001Z</time></trkpt><trkpt lat="45.68926418887141" lon="9.208858175643444"><ele>260.0</ele><time>2026-04-12T09:24:28.001Z</time></trkpt><trkpt lat="45.68930483800922" lon="9.208928966181336"><ele>260.0</ele><time>2026-04-12T09:24:30.001Z</time></trkpt><trkpt lat="45.68936960370416" lon="9.209041333081428"><ele>260.0</ele><time>2026-04-12T09:24:32.001Z</time></trkpt><trkpt lat="45.68940896148943" lon="9.209126395923521"><ele>260.0</ele><time>2026-04-12T09:24:33.001Z</time></trkpt><trkpt lat="45.68944258378623" lon="9.209208085647614"><ele>260.0</ele><time>2026-04-12T09:24:34.001Z</time></trkpt><trkpt lat="45.68948215224855" lon="9.209310575522503"><ele>259.8</ele><time>2026-04-12T09:24:35.001Z</time></trkpt><trkpt lat="45.68952575707386" lon="9.209420713037222"><ele>259.6</ele><time>2026-04-12T09:24:36.001Z</time></trkpt><trkpt lat="45.68958045079587" lon="9.20954037098695"><ele>259.4</ele><time>2026-04-12T09:24:37.001Z</time></trkpt><trkpt lat="45.68964234453108" lon="9.209678579607"><ele>259.2</ele><time>2026-04-12T09:24:38.001Z</time></trkpt><trkpt lat="45.68971408467438" lon="9.20983115514169"><ele>259.0</ele><time>2026-04-12T09:24:39.001Z</time></trkpt><trkpt lat="45.68978988130755" lon="9.209993542468682"><ele>259.0</ele><time>2026-04-12T09:24:40.001Z</time></trkpt><trkpt lat="45.689951201400085" lon="9.210341435744585"><ele>259.0</ele><time>2026-04-12T09:24:42.001Z</time></trkpt><trkpt lat="45.690037367839544" lon="9.210522683907051"><ele>259.0</ele><time>2026-04-12T09:24:43.001Z</time></trkpt><trkpt lat="45.69012452418889" lon="9.210713761772631"><ele>259.3333333333333</ele><time>2026-04-12T09:24:44.001Z</time></trkpt><trkpt lat="45.69021370065623" lon="9.210902179736589"><ele>259.6666666666667</ele><time>2026-04-12T09:24:45.001Z</time></trkpt><trkpt lat="45.69030872991883" lon="9.211099658813234"><ele>260.0</ele><time>2026-04-12T09:24:46.001Z</time></trkpt><trkpt lat="45.690397577675675" lon="9.211287522856297"><ele>260.0</ele><time>2026-04-12T09:24:47.001Z</time></trkpt><trkpt lat="45.69048832020691" lon="9.211485976462352"><ele>260.0</ele><time>2026-04-12T09:24:48.001Z</time></trkpt><trkpt lat="45.69056822839099" lon="9.211667359703672"><ele>260.0</ele><time>2026-04-12T09:24:49.001Z</time></trkpt><trkpt lat="45.690645539574206" lon="9.211842204037346"><ele>260.0</ele><time>2026-04-12T09:24:50.001Z</time></trkpt><trkpt lat="45.690721090677826" lon="9.212013356947867"><ele>260.0</ele><time>2026-04-12T09:24:51.001Z</time></trkpt><trkpt lat="45.69079411954621" lon="9.212170860528527"><ele>260.0</ele><time>2026-04-12T09:24:52.001Z</time></trkpt><trkpt lat="45.690863669230524" lon="9.212313096896542"><ele>260.0</ele><time>2026-04-12T09:24:53.001Z</time></trkpt><trkpt lat="45.69092985062716" lon="9.212450535622006"><ele>260.0</ele><time>2026-04-12T09:24:54.001Z</time></trkpt><trkpt lat="45.690983939784026" lon="9.21257309463985"><ele>260.0</ele><time>2026-04-12T09:24:55.001Z</time></trkpt><trkpt lat="45.69102689793673" lon="9.212686544245518"><ele>260.0</ele><time>2026-04-12T09:24:56.001Z</time></trkpt><trkpt lat="45.69105692815709" lon="9.212780865494622"><ele>260.0</ele><time>2026-04-12T09:24:57.001Z</time></trkpt><trkpt lat="45.6910906315795" lon="9.212921036732407"><ele>260.0</ele><time>2026-04-12T09:24:59.001Z</time></trkpt><trkpt lat="45.691107307888664" lon="9.213024678628067"><ele>260.0</ele><time>2026-04-12T09:25:01Z</time></trkpt><trkpt lat="45.69111794605937" lon="9.213123758663693"><ele>260.0</ele><time>2026-04-12T09:25:04Z</time></trkpt><trkpt lat="45.691103403329016" lon="9.213265949435298"><ele>260.0</ele><time>2026-04-12T09:25:06Z</time></trkpt><trkpt lat="45.691086520212195" lon="9.21336342133031"><ele>260.0</ele><time>2026-04-12T09:25:07Z</time></trkpt><trkpt lat="45.69107202369168" lon="9.213475361078803"><ele>260.0</ele><time>2026-04-12T09:25:08Z</time></trkpt><trkpt lat="45.69107559889642" lon="9.213596089887691"><ele>260.0</ele><time>2026-04-12T09:25:09Z</time></trkpt><trkpt lat="45.69110233045018" lon="9.213703814974759"><ele>260.0</ele><time>2026-04-12T09:25:10Z</time></trkpt><trkpt lat="45.691152848020884" lon="9.213799193797303"><ele>260.0</ele><time>2026-04-12T09:25:11Z</time></trkpt><trkpt lat="45.69121970725845" lon="9.213873119929534"><ele>260.0</ele><time>2026-04-12T09:25:12Z</time></trkpt><trkpt lat="45.69130311577842" lon="9.213910119272063"><ele>260.0</ele><time>2026-04-12T09:25:13Z</time></trkpt><trkpt lat="45.69138965864683" lon="9.213909508373554"><ele>260.0</ele><time>2026-04-12T09:25:14Z</time></trkpt><trkpt lat="45.69147618122331" lon="9.213884351320111"><ele>260.0</ele><time>2026-04-12T09:25:15Z</time></trkpt><trkpt lat="45.69155445310032" lon="9.213825535181739"><ele>260.0</ele><time>2026-04-12T09:25:16Z</time></trkpt><trkpt lat="45.691623740021136" lon="9.213746430420194"><ele>260.0</ele><time>2026-04-12T09:25:17Z</time></trkpt><trkpt lat="45.69169122356027" lon="9.213665670146993"><ele>260.0</ele><time>2026-04-12T09:25:18Z</time></trkpt><trkpt lat="45.69176860552505" lon="9.213600825150928"><ele>260.0</ele><time>2026-04-12T09:25:19Z</time></trkpt><trkpt lat="45.69185439287455" lon="9.213566505424554"><ele>260.0</ele><time>2026-04-12T09:25:20Z</time></trkpt><trkpt lat="45.69195234817618" lon="9.213548172638257"><ele>260.0</ele><time>2026-04-12T09:25:21Z</time></trkpt><trkpt lat="45.692051208810824" lon="9.213536578387355"><ele>261.0</ele><time>2026-04-12T09:25:22Z</time></trkpt><trkpt lat="45.69215564333898" lon="9.213525550546862"><ele>262.0</ele><time>2026-04-12T09:25:23Z</time></trkpt><trkpt lat="45.69226635764082" lon="9.213513070527044"><ele>263.0</ele><time>2026-04-12T09:25:24Z</time></trkpt><trkpt lat="45.69237610462191" lon="9.213503173251754"><ele>264.0</ele><time>2026-04-12T09:25:25Z</time></trkpt><trkpt lat="45.69250230708442" lon="9.213496662078118"><ele>264.0</ele><time>2026-04-12T09:25:26Z</time></trkpt><trkpt lat="45.692625871870746" lon="9.213491072857103"><ele>264.0</ele><time>2026-04-12T09:25:27Z</time></trkpt><trkpt lat="45.69275781269089" lon="9.213486972708006"><ele>264.0</ele><time>2026-04-12T09:25:28Z</time></trkpt><trkpt lat="45.692889372592624" lon="9.213489260253647"><ele>264.0</ele><time>2026-04-12T09:25:29Z</time></trkpt><trkpt lat="45.69302531836648" lon="9.213499932574601"><ele>264.25</ele><time>2026-04-12T09:25:30Z</time></trkpt><trkpt lat="45.69316924992611" lon="9.213517173052146"><ele>264.5</ele><time>2026-04-12T09:25:31Z</time></trkpt><trkpt lat="45.69331031804173" lon="9.21353912781063"><ele>264.75</ele><time>2026-04-12T09:25:32Z</time></trkpt><trkpt lat="45.69345724040023" lon="9.21356942588416"><ele>265.0</ele><time>2026-04-12T09:25:33Z</time></trkpt><trkpt lat="45.693606350499266" lon="9.2136106801165"><ele>266.0</ele><time>2026-04-12T09:25:34Z</time></trkpt><trkpt lat="45.69375853916796" lon="9.21365954175464"><ele>267.0</ele><time>2026-04-12T09:25:35Z</time></trkpt><trkpt lat="45.69391424433312" lon="9.213716281504196"><ele>268.0</ele><time>2026-04-12T09:25:36Z</time></trkpt><trkpt lat="45.694069663385726" lon="9.213779546758555"><ele>268.0</ele><time>2026-04-12T09:25:37Z</time></trkpt><trkpt lat="45.694226964086994" lon="9.213849597008481"><ele>268.0</ele><time>2026-04-12T09:25:38Z</time></trkpt><trkpt lat="45.69438411522012" lon="9.21392447430494"><ele>268.0</ele><time>2026-04-12T09:25:39Z</time></trkpt><trkpt lat="45.69453342639773" lon="9.21399937690608"><ele>268.25</ele><time>2026-04-12T09:25:40Z</time></trkpt><trkpt lat="45.69468038568052" lon="9.214071066771798"><ele>268.5</ele><time>2026-04-12T09:25:41Z</time></trkpt><trkpt lat="45.694819430980154" lon="9.214137870610909"><ele>268.75</ele><time>2026-04-12T09:25:42Z</time></trkpt><trkpt lat="45.69495073553685" lon="9.214201285675736"><ele>269.0</ele><time>2026-04-12T09:25:43Z</time></trkpt><trkpt lat="45.6950864577899" lon="9.214266734204848"><ele>269.0</ele><time>2026-04-12T09:25:44Z</time></trkpt><trkpt lat="45.69522257552513" lon="9.214333326738215"><ele>269.0</ele><time>2026-04-12T09:25:45Z</time></trkpt><trkpt lat="45.695352479850975" lon="9.214394374184868"><ele>269.0</ele><time>2026-04-12T09:25:46Z</time></trkpt><trkpt lat="45.695477337450974" lon="9.214450582787213"><ele>269.0</ele><time>2026-04-12T09:25:47Z</time></trkpt><trkpt lat="45.69559499170335" lon="9.214506601862267"><ele>269.0</ele><time>2026-04-12T09:25:48Z</time></trkpt><trkpt lat="45.69570791588764" lon="9.21455968681516"><ele>269.0</ele><time>2026-04-12T09:25:49Z</time></trkpt><trkpt lat="45.695812992975725" lon="9.21461264912907"><ele>269.0</ele><time>2026-04-12T09:25:50Z</time></trkpt><trkpt lat="45.695909203941476" lon="9.214658170918844"><ele>269.0</ele><time>2026-04-12T09:25:51Z</time></trkpt><trkpt lat="45.69598814462645" lon="9.214695008446512"><ele>269.0</ele><time>2026-04-12T09:25:52Z</time></trkpt><trkpt lat="45.696058144107774" lon="9.214726605131775"><ele>269.2</ele><time>2026-04-12T09:25:53Z</time></trkpt><trkpt lat="45.6961695415469" lon="9.214789636643092"><ele>269.4</ele><time>2026-04-12T09:25:55Z</time></trkpt><trkpt lat="45.69623706345364" lon="9.214872310490247"><ele>269.6</ele><time>2026-04-12T09:25:57Z</time></trkpt><trkpt lat="45.69628949379294" lon="9.21497386276836"><ele>269.8</ele><time>2026-04-12T09:25:59Z</time></trkpt><trkpt lat="45.69637534365219" lon="9.21503464291999"><ele>270.0</ele><time>2026-04-12T09:26:01Z</time></trkpt><trkpt lat="45.696484192012" lon="9.215013164828697"><ele>270.0</ele><time>2026-04-12T09:26:03Z</time></trkpt><trkpt lat="45.69658521806022" lon="9.214980280497366"><ele>270.0</ele><time>2026-04-12T09:26:05Z</time></trkpt><trkpt lat="45.6967055069216" lon="9.214990805872347"><ele>270.0</ele><time>2026-04-12T09:26:07Z</time></trkpt><trkpt lat="45.696773599253405" lon="9.215012998511346"><ele>270.0</ele><time>2026-04-12T09:26:08Z</time></trkpt><trkpt lat="45.696840869797235" lon="9.215037255959738"><ele>270.0</ele><time>2026-04-12T09:26:09Z</time></trkpt><trkpt lat="45.69690887293249" lon="9.215062806305454"><ele>270.0</ele><time>2026-04-12T09:26:10Z</time></trkpt><trkpt lat="45.69697851890636" lon="9.215088577492882"><ele>270.6666666666667</ele><time>2026-04-12T09:26:11Z</time></trkpt><trkpt lat="45.69704748567451" lon="9.215117168547504"><ele>271.3333333333333</ele><time>2026-04-12T09:26:12Z</time></trkpt><trkpt lat="45.69710994045638" lon="9.215148532531455"><ele>272.0</ele><time>2026-04-12T09:26:13Z</time></trkpt><trkpt lat="45.69717434826317" lon="9.21518320898662"><ele>272.66666666666663</ele><time>2026-04-12T09:26:14Z</time></trkpt><trkpt lat="45.69724502330718" lon="9.215220309323014"><ele>273.3333333333333</ele><time>2026-04-12T09:26:15Z</time></trkpt><trkpt lat="45.697324981808855" lon="9.21525956392829"><ele>274.0</ele><time>2026-04-12T09:26:16Z</time></trkpt><trkpt lat="45.69741324463536" lon="9.215299646229829"><ele>274.0</ele><time>2026-04-12T09:26:17Z</time></trkpt><trkpt lat="45.697521607603576" lon="9.21534569506372"><ele>274.0</ele><time>2026-04-12T09:26:18Z</time></trkpt><trkpt lat="45.697631998195575" lon="9.215390216592658"><ele>274.0</ele><time>2026-04-12T09:26:19Z</time></trkpt><trkpt lat="45.697746311042636" lon="9.215439576623103"><ele>274.0</ele><time>2026-04-12T09:26:20Z</time></trkpt><trkpt lat="45.69785318040786" lon="9.215488265920012"><ele>274.0</ele><time>2026-04-12T09:26:21Z</time></trkpt><trkpt lat="45.69795091217252" lon="9.2155323598005"><ele>274.0</ele><time>2026-04-12T09:26:22Z</time></trkpt><trkpt lat="45.69804564321469" lon="9.215572771305384"><ele>274.0</ele><time>2026-04-12T09:26:23Z</time></trkpt><trkpt lat="45.698130037585436" lon="9.215613180083212"><ele>274.0</ele><time>2026-04-12T09:26:24Z</time></trkpt><trkpt lat="45.69821008452052" lon="9.21565239952321"><ele>274.0</ele><time>2026-04-12T09:26:25Z</time></trkpt><trkpt lat="45.69828504255353" lon="9.215695202756585"><ele>273.8571428571429</ele><time>2026-04-12T09:26:26Z</time></trkpt><trkpt lat="45.69835081377939" lon="9.215741253936173"><ele>273.7142857142857</ele><time>2026-04-12T09:26:27Z</time></trkpt><trkpt lat="45.69840669272097" lon="9.215796022234553"><ele>273.57142857142856</ele><time>2026-04-12T09:26:28Z</time></trkpt><trkpt lat="45.69845416700754" lon="9.215860018420896"><ele>273.42857142857144</ele><time>2026-04-12T09:26:29Z</time></trkpt><trkpt lat="45.698504671084024" lon="9.215923302442018"><ele>273.2857142857143</ele><time>2026-04-12T09:26:30Z</time></trkpt><trkpt lat="45.69857704419155" lon="9.215959340179127"><ele>273.14285714285717</ele><time>2026-04-12T09:26:31Z</time></trkpt><trkpt lat="45.698656761181354" lon="9.215950333536897"><ele>273.0</ele><time>2026-04-12T09:26:32Z</time></trkpt><trkpt lat="45.698744381336375" lon="9.215926930571895"><ele>273.6</ele><time>2026-04-12T09:26:33Z</time></trkpt><trkpt lat="45.69883237911064" lon="9.215922819954823"><ele>274.20000000000005</ele><time>2026-04-12T09:26:34Z</time></trkpt><trkpt lat="45.69892547096019" lon="9.215959236058223"><ele>274.8</ele><time>2026-04-12T09:26:35Z</time></trkpt><trkpt lat="45.69901812919922" lon="9.216014231443399"><ele>275.40000000000003</ele><time>2026-04-12T09:26:36Z</time></trkpt><trkpt lat="45.69912240551133" lon="9.216013871936445"><ele>276.0</ele><time>2026-04-12T09:26:37Z</time></trkpt><trkpt lat="45.69923297488941" lon="9.216110558230273"><ele>276.0</ele><time>2026-04-12T09:26:38Z</time></trkpt><trkpt lat="45.699355336852705" lon="9.21615762136173"><ele>276.0</ele><time>2026-04-12T09:26:39Z</time></trkpt><trkpt lat="45.69949129424186" lon="9.21621050092819"><ele>276.0</ele><time>2026-04-12T09:26:40Z</time></trkpt><trkpt lat="45.69963230147883" lon="9.216261008945578"><ele>276.0</ele><time>2026-04-12T09:26:41Z</time></trkpt><trkpt lat="45.69977487348202" lon="9.216303666912237"><ele>276.25</ele><time>2026-04-12T09:26:42Z</time></trkpt><trkpt lat="45.69992215638223" lon="9.216341221931136"><ele>276.5</ele><time>2026-04-12T09:26:43Z</time></trkpt><trkpt lat="45.70007006078826" lon="9.216368180662641"><ele>276.75</ele><time>2026-04-12T09:26:44Z</time></trkpt><trkpt lat="45.700216447238226" lon="9.216381354842417"><ele>277.0</ele><time>2026-04-12T09:26:45Z</time></trkpt><trkpt lat="45.70036460884373" lon="9.216372552598477"><ele>277.75</ele><time>2026-04-12T09:26:46Z</time></trkpt><trkpt lat="45.70051132847928" lon="9.216348417859042"><ele>278.5</ele><time>2026-04-12T09:26:47Z</time></trkpt><trkpt lat="45.70065395918963" lon="9.216320601556165"><ele>279.25</ele><time>2026-04-12T09:26:48Z</time></trkpt><trkpt lat="45.700794585630305" lon="9.216297476611363"><ele>280.0</ele><time>2026-04-12T09:26:49Z</time></trkpt><trkpt lat="45.700935204410285" lon="9.2162782840919"><ele>280.0</ele><time>2026-04-12T09:26:50Z</time></trkpt><trkpt lat="45.70107648450429" lon="9.216257696403801"><ele>280.0</ele><time>2026-04-12T09:26:51.001Z</time></trkpt><trkpt lat="45.701219346880684" lon="9.216238419886349"><ele>280.0</ele><time>2026-04-12T09:26:52.001Z</time></trkpt><trkpt lat="45.7013524087513" lon="9.216220832374647"><ele>280.0</ele><time>2026-04-12T09:26:53.001Z</time></trkpt><trkpt lat="45.70148004239039" lon="9.216204722271799"><ele>280.2</ele><time>2026-04-12T09:26:54.001Z</time></trkpt><trkpt lat="45.70159846643508" lon="9.216186752813181"><ele>280.4</ele><time>2026-04-12T09:26:55.001Z</time></trkpt><trkpt lat="45.70171335723464" lon="9.216169965359086"><ele>280.6</ele><time>2026-04-12T09:26:56.001Z</time></trkpt><trkpt lat="45.70181895876893" lon="9.216154794280758"><ele>280.8</ele><time>2026-04-12T09:26:57.001Z</time></trkpt><trkpt lat="45.70191066752472" lon="9.216142573562777"><ele>281.0</ele><time>2026-04-12T09:26:58.001Z</time></trkpt><trkpt lat="45.70199510353288" lon="9.216130627959085"><ele>281.28571428571433</ele><time>2026-04-12T09:26:59.001Z</time></trkpt><trkpt lat="45.702071345077925" lon="9.216125436390119"><ele>281.57142857142856</ele><time>2026-04-12T09:27:00.001Z</time></trkpt><trkpt lat="45.7021424723251" lon="9.216131929284552"><ele>281.8571428571429</ele><time>2026-04-12T09:27:01.001Z</time></trkpt><trkpt lat="45.70220663017358" lon="9.21615017686742"><ele>282.14285714285717</ele><time>2026-04-12T09:27:02.001Z</time></trkpt><trkpt lat="45.70227143546339" lon="9.216189431551928"><ele>282.42857142857144</ele><time>2026-04-12T09:27:03.001Z</time></trkpt><trkpt lat="45.702340728793" lon="9.216246705665194"><ele>282.7142857142857</ele><time>2026-04-12T09:27:04.001Z</time></trkpt><trkpt lat="45.70241009228452" lon="9.21631118856245"><ele>283.0</ele><time>2026-04-12T09:27:05.001Z</time></trkpt><trkpt lat="45.70248285429766" lon="9.216331080242702"><ele>283.0</ele><time>2026-04-12T09:27:06.001Z</time></trkpt><trkpt lat="45.70256819862127" lon="9.216304076165128"><ele>283.0</ele><time>2026-04-12T09:27:07Z</time></trkpt><trkpt lat="45.70265018741602" lon="9.216237339820811"><ele>283.0</ele><time>2026-04-12T09:27:08Z</time></trkpt><trkpt lat="45.70272357915152" lon="9.21614730602892"><ele>283.0</ele><time>2026-04-12T09:27:09Z</time></trkpt><trkpt lat="45.70279346128679" lon="9.2160398099021"><ele>283.0</ele><time>2026-04-12T09:27:10Z</time></trkpt><trkpt lat="45.70291377690232" lon="9.216001257436524"><ele>283.5</ele><time>2026-04-12T09:27:11Z</time></trkpt><trkpt lat="45.70303320754488" lon="9.215970007271036"><ele>284.0</ele><time>2026-04-12T09:27:12Z</time></trkpt><trkpt lat="45.70316207025414" lon="9.215950314556475"><ele>284.5</ele><time>2026-04-12T09:27:13Z</time></trkpt><trkpt lat="45.703293661285166" lon="9.215930489593807"><ele>285.0</ele><time>2026-04-12T09:27:14Z</time></trkpt><trkpt lat="45.703430370585195" lon="9.215905418008965"><ele>285.0</ele><time>2026-04-12T09:27:15Z</time></trkpt><trkpt lat="45.70356602404001" lon="9.21588368191167"><ele>285.0</ele><time>2026-04-12T09:27:16Z</time></trkpt><trkpt lat="45.70370568893013" lon="9.215865722909234"><ele>285.0</ele><time>2026-04-12T09:27:17Z</time></trkpt><trkpt lat="45.703843750699754" lon="9.215852441128204"><ele>285.0</ele><time>2026-04-12T09:27:18Z</time></trkpt><trkpt lat="45.70398330575138" lon="9.215835425882837"><ele>285.75</ele><time>2026-04-12T09:27:19Z</time></trkpt><trkpt lat="45.704122469226235" lon="9.21581613203006"><ele>286.5</ele><time>2026-04-12T09:27:20Z</time></trkpt><trkpt lat="45.704258870910195" lon="9.21579333267271"><ele>287.25</ele><time>2026-04-12T09:27:21Z</time></trkpt><trkpt lat="45.70439649160022" lon="9.215771384418073"><ele>288.0</ele><time>2026-04-12T09:27:22Z</time></trkpt><trkpt lat="45.704532167591694" lon="9.215749539468556"><ele>288.25</ele><time>2026-04-12T09:27:23Z</time></trkpt><trkpt lat="45.70467119972319" lon="9.215728554670045"><ele>288.5</ele><time>2026-04-12T09:27:24Z</time></trkpt><trkpt lat="45.70480657168517" lon="9.21571084967282"><ele>288.75</ele><time>2026-04-12T09:27:25Z</time></trkpt><trkpt lat="45.70494004238782" lon="9.215692834298302"><ele>289.0</ele><time>2026-04-12T09:27:26Z</time></trkpt><trkpt lat="45.7050674631537" lon="9.215676837744045"><ele>289.0</ele><time>2026-04-12T09:27:27Z</time></trkpt><trkpt lat="45.705184742616844" lon="9.215659138055587"><ele>289.0</ele><time>2026-04-12T09:27:28Z</time></trkpt><trkpt lat="45.70529905828402" lon="9.21564026081439"><ele>289.0</ele><time>2026-04-12T09:27:29Z</time></trkpt><trkpt lat="45.705406201564784" lon="9.215625466558082"><ele>289.0</ele><time>2026-04-12T09:27:30Z</time></trkpt><trkpt lat="45.70551038276519" lon="9.215610064933422"><ele>289.0</ele><time>2026-04-12T09:27:31Z</time></trkpt><trkpt lat="45.70560994479938" lon="9.215593762315134"><ele>289.0</ele><time>2026-04-12T09:27:32Z</time></trkpt><trkpt lat="45.705704335061775" lon="9.215578705397979"><ele>289.0</ele><time>2026-04-12T09:27:33Z</time></trkpt><trkpt lat="45.705793218429726" lon="9.21556415091745"><ele>289.0</ele><time>2026-04-12T09:27:34Z</time></trkpt><trkpt lat="45.70588139260626" lon="9.215551977292758"><ele>289.0</ele><time>2026-04-12T09:27:35Z</time></trkpt><trkpt lat="45.70597088730091" lon="9.215537125052474"><ele>289.0</ele><time>2026-04-12T09:27:36Z</time></trkpt><trkpt lat="45.70605230407002" lon="9.215527531672004"><ele>289.0</ele><time>2026-04-12T09:27:37Z</time></trkpt><trkpt lat="45.70612672838893" lon="9.215512804160266"><ele>288.8</ele><time>2026-04-12T09:27:38Z</time></trkpt><trkpt lat="45.70619736126806" lon="9.215499162618169"><ele>288.59999999999997</ele><time>2026-04-12T09:27:39Z</time></trkpt><trkpt lat="45.706263956649124" lon="9.215483482800837"><ele>288.4</ele><time>2026-04-12T09:27:40Z</time></trkpt><trkpt lat="45.706379270495425" lon="9.215480253320559"><ele>288.2</ele><time>2026-04-12T09:27:42Z</time></trkpt><trkpt lat="45.70648420938226" lon="9.215465127720206"><ele>288.0</ele><time>2026-04-12T09:27:44Z</time></trkpt><trkpt lat="45.706577288593095" lon="9.215451653283145"><ele>288.0</ele><time>2026-04-12T09:27:46Z</time></trkpt><trkpt lat="45.70664759033494" lon="9.215420558767153"><ele>288.0</ele><time>2026-04-12T09:27:48Z</time></trkpt><trkpt lat="45.7067623942614" lon="9.215411519130289"><ele>288.0</ele><time>2026-04-12T09:28:07Z</time></trkpt><trkpt lat="45.706856301925775" lon="9.21540330575042"><ele>288.0</ele><time>2026-04-12T09:28:08Z</time></trkpt><trkpt lat="45.70697087579647" lon="9.215388474382207"><ele>288.0</ele><time>2026-04-12T09:28:09Z</time></trkpt><trkpt lat="45.70706465377278" lon="9.21538128677247"><ele>288.3333333333333</ele><time>2026-04-12T09:28:10Z</time></trkpt><trkpt lat="45.707208140527285" lon="9.215365003382233"><ele>288.66666666666663</ele><time>2026-04-12T09:28:11Z</time></trkpt><trkpt lat="45.7073628897144" lon="9.215337795707027"><ele>289.0</ele><time>2026-04-12T09:28:12Z</time></trkpt><trkpt lat="45.70752249397678" lon="9.215308737639905"><ele>289.0</ele><time>2026-04-12T09:28:13Z</time></trkpt><trkpt lat="45.70768144395157" lon="9.215283681048408"><ele>289.0</ele><time>2026-04-12T09:28:14Z</time></trkpt><trkpt lat="45.70784651288321" lon="9.215262122426621"><ele>289.0</ele><time>2026-04-12T09:28:15Z</time></trkpt><trkpt lat="45.70801200107123" lon="9.215242292622547"><ele>289.3333333333333</ele><time>2026-04-12T09:28:16Z</time></trkpt><trkpt lat="45.70817239460079" lon="9.215211996485218"><ele>289.6666666666667</ele><time>2026-04-12T09:28:17Z</time></trkpt><trkpt lat="45.7083350595199" lon="9.215186325908356"><ele>290.0</ele><time>2026-04-12T09:28:18Z</time></trkpt><trkpt lat="45.70849946147054" lon="9.215160541775793"><ele>290.6666666666667</ele><time>2026-04-12T09:28:19Z</time></trkpt><trkpt lat="45.708673567199945" lon="9.215136317825497"><ele>291.3333333333333</ele><time>2026-04-12T09:28:20Z</time></trkpt><trkpt lat="45.70884736178979" lon="9.215108230958412"><ele>292.0</ele><time>2026-04-12T09:28:21Z</time></trkpt><trkpt lat="45.70902408694384" lon="9.21508783146534"><ele>292.0</ele><time>2026-04-12T09:28:22Z</time></trkpt><trkpt lat="45.70920131948472" lon="9.215059554935118"><ele>292.0</ele><time>2026-04-12T09:28:23Z</time></trkpt><trkpt lat="45.709383465058835" lon="9.215038834604508"><ele>292.0</ele><time>2026-04-12T09:28:24Z</time></trkpt><trkpt lat="45.70956996471094" lon="9.215013419409095"><ele>292.0</ele><time>2026-04-12T09:28:25Z</time></trkpt><trkpt lat="45.70975674264803" lon="9.214979587617524"><ele>292.0</ele><time>2026-04-12T09:28:26Z</time></trkpt><trkpt lat="45.70994331228701" lon="9.214958454466549"><ele>292.0</ele><time>2026-04-12T09:28:27Z</time></trkpt><trkpt lat="45.710134159111476" lon="9.214934319886682"><ele>291.3333333333333</ele><time>2026-04-12T09:28:28Z</time></trkpt><trkpt lat="45.710321593179074" lon="9.214900985002963"><ele>290.6666666666667</ele><time>2026-04-12T09:28:29Z</time></trkpt><trkpt lat="45.71050957747404" lon="9.214865022854285"><ele>290.0</ele><time>2026-04-12T09:28:30Z</time></trkpt><trkpt lat="45.71068158342507" lon="9.214843383410427"><ele>290.0</ele><time>2026-04-12T09:28:31Z</time></trkpt><trkpt lat="45.71084853451499" lon="9.214829408786656"><ele>290.0</ele><time>2026-04-12T09:28:32Z</time></trkpt><trkpt lat="45.71101572719985" lon="9.214829711803267"><ele>290.0</ele><time>2026-04-12T09:28:33Z</time></trkpt><trkpt lat="45.711183569865675" lon="9.214842933719016"><ele>290.0</ele><time>2026-04-12T09:28:34Z</time></trkpt><trkpt lat="45.71135544911274" lon="9.214868797276582"><ele>290.0</ele><time>2026-04-12T09:28:35Z</time></trkpt><trkpt lat="45.71151973750763" lon="9.21489982388274"><ele>290.0</ele><time>2026-04-12T09:28:36Z</time></trkpt><trkpt lat="45.71168898650702" lon="9.214940884033256"><ele>290.0</ele><time>2026-04-12T09:28:37Z</time></trkpt><trkpt lat="45.7118532683794" lon="9.214986147457372"><ele>290.0</ele><time>2026-04-12T09:28:38Z</time></trkpt><trkpt lat="45.712012021193374" lon="9.21503569671624"><ele>290.0</ele><time>2026-04-12T09:28:39Z</time></trkpt><trkpt lat="45.71217469708186" lon="9.215097409564807"><ele>290.33333333333337</ele><time>2026-04-12T09:28:40Z</time></trkpt><trkpt lat="45.71233090340119" lon="9.21516317300363"><ele>290.6666666666667</ele><time>2026-04-12T09:28:41Z</time></trkpt><trkpt lat="45.71249020597049" lon="9.215232525792013"><ele>291.0</ele><time>2026-04-12T09:28:42Z</time></trkpt><trkpt lat="45.712651425198096" lon="9.215296592792535"><ele>291.0</ele><time>2026-04-12T09:28:43Z</time></trkpt><trkpt lat="45.71281469626801" lon="9.2153591316674"><ele>291.0</ele><time>2026-04-12T09:28:44Z</time></trkpt><trkpt lat="45.71297610281909" lon="9.215422872264956"><ele>291.0</ele><time>2026-04-12T09:28:45Z</time></trkpt><trkpt lat="45.71313733068476" lon="9.21548650208035"><ele>291.0</ele><time>2026-04-12T09:28:46Z</time></trkpt><trkpt lat="45.71329565796611" lon="9.21554900825536"><ele>291.0</ele><time>2026-04-12T09:28:47Z</time></trkpt><trkpt lat="45.713447122068416" lon="9.215610154623857"><ele>291.0</ele><time>2026-04-12T09:28:48Z</time></trkpt><trkpt lat="45.71359252446921" lon="9.215669047948085"><ele>292.5</ele><time>2026-04-12T09:28:49Z</time></trkpt><trkpt lat="45.713727343650596" lon="9.215724717352106"><ele>294.0</ele><time>2026-04-12T09:28:50Z</time></trkpt><trkpt lat="45.71385755264601" lon="9.215777635964455"><ele>295.5</ele><time>2026-04-12T09:28:51Z</time></trkpt><trkpt lat="45.713982248586376" lon="9.215829507373366"><ele>297.0</ele><time>2026-04-12T09:28:52Z</time></trkpt><trkpt lat="45.714102300779444" lon="9.215879584708144"><ele>297.0</ele><time>2026-04-12T09:28:53Z</time></trkpt><trkpt lat="45.714219980522856" lon="9.215924519598051"><ele>297.0</ele><time>2026-04-12T09:28:54Z</time></trkpt><trkpt lat="45.71434260924115" lon="9.215972388142289"><ele>297.0</ele><time>2026-04-12T09:28:55Z</time></trkpt><trkpt lat="45.7144639844104" lon="9.216024435447142"><ele>297.0</ele><time>2026-04-12T09:28:56Z</time></trkpt><trkpt lat="45.71458702190488" lon="9.216075366231964"><ele>297.5</ele><time>2026-04-12T09:28:57Z</time></trkpt><trkpt lat="45.71470818065588" lon="9.216124822711413"><ele>298.0</ele><time>2026-04-12T09:28:58Z</time></trkpt><trkpt lat="45.71482455702283" lon="9.216139384503364"><ele>298.5</ele><time>2026-04-12T09:28:59Z</time></trkpt><trkpt lat="45.714937417165345" lon="9.216187286209138"><ele>299.0</ele><time>2026-04-12T09:29:00Z</time></trkpt><trkpt lat="45.715032601231044" lon="9.216225983808851"><ele>299.0</ele><time>2026-04-12T09:29:01Z</time></trkpt><trkpt lat="45.715128601372754" lon="9.216248399403536"><ele>299.0</ele><time>2026-04-12T09:29:02Z</time></trkpt><trkpt lat="45.71521563384037" lon="9.216261980418986"><ele>299.0</ele><time>2026-04-12T09:29:03Z</time></trkpt><trkpt lat="45.715299337913" lon="9.21626747794133"><ele>299.0</ele><time>2026-04-12T09:29:04Z</time></trkpt><trkpt lat="45.71537623509709" lon="9.216267392447017"><ele>299.0</ele><time>2026-04-12T09:29:05Z</time></trkpt><trkpt lat="45.715448348885744" lon="9.216271157177234"><ele>299.0</ele><time>2026-04-12T09:29:06Z</time></trkpt><trkpt lat="45.71552323397877" lon="9.216282111159142"><ele>298.8</ele><time>2026-04-12T09:29:07Z</time></trkpt><trkpt lat="45.71560472088061" lon="9.216305665898506"><ele>298.59999999999997</ele><time>2026-04-12T09:29:08Z</time></trkpt><trkpt lat="45.71568732980035" lon="9.216313862458923"><ele>298.4</ele><time>2026-04-12T09:29:09.001Z</time></trkpt><trkpt lat="45.71577506199733" lon="9.216285098650356"><ele>298.2</ele><time>2026-04-12T09:29:10.001Z</time></trkpt><trkpt lat="45.71586481937942" lon="9.216233217952334"><ele>298.0</ele><time>2026-04-12T09:29:11.001Z</time></trkpt><trkpt lat="45.71595740598883" lon="9.216191688737139"><ele>298.0</ele><time>2026-04-12T09:29:12.001Z</time></trkpt><trkpt lat="45.71606088556477" lon="9.216186180607927"><ele>298.0</ele><time>2026-04-12T09:29:13Z</time></trkpt><trkpt lat="45.716166327045656" lon="9.21619027260992"><ele>298.0</ele><time>2026-04-12T09:29:14Z</time></trkpt><trkpt lat="45.71627293173968" lon="9.216181045396095"><ele>298.0</ele><time>2026-04-12T09:29:15Z</time></trkpt><trkpt lat="45.716372182142415" lon="9.216168952031218"><ele>298.0</ele><time>2026-04-12T09:29:16Z</time></trkpt><trkpt lat="45.7164715290744" lon="9.216158134992654"><ele>298.8</ele><time>2026-04-12T09:29:17Z</time></trkpt><trkpt lat="45.71657589047516" lon="9.21614552086146"><ele>299.6</ele><time>2026-04-12T09:29:18Z</time></trkpt><trkpt lat="45.71668284469474" lon="9.21613135992267"><ele>300.4</ele><time>2026-04-12T09:29:19Z</time></trkpt><trkpt lat="45.71679346893802" lon="9.216116568986056"><ele>301.2</ele><time>2026-04-12T09:29:20Z</time></trkpt><trkpt lat="45.716904993082466" lon="9.216101214656451"><ele>302.0</ele><time>2026-04-12T09:29:21Z</time></trkpt><trkpt lat="45.71702015203566" lon="9.216085417058126"><ele>302.0</ele><time>2026-04-12T09:29:22Z</time></trkpt><trkpt lat="45.71713148495771" lon="9.21606802653925"><ele>302.0</ele><time>2026-04-12T09:29:23Z</time></trkpt><trkpt lat="45.717236164113544" lon="9.216052782521547"><ele>302.0</ele><time>2026-04-12T09:29:24Z</time></trkpt><trkpt lat="45.71734106419803" lon="9.216040864572532"><ele>302.0</ele><time>2026-04-12T09:29:25Z</time></trkpt><trkpt lat="45.717452424944256" lon="9.216031139856115"><ele>302.0</ele><time>2026-04-12T09:29:26Z</time></trkpt><trkpt lat="45.71756648279467" lon="9.21601909454376"><ele>302.0</ele><time>2026-04-12T09:29:27Z</time></trkpt><trkpt lat="45.717684076345805" lon="9.216007701407895"><ele>302.0</ele><time>2026-04-12T09:29:28Z</time></trkpt><trkpt lat="45.717798379134415" lon="9.215995531622642"><ele>302.0</ele><time>2026-04-12T09:29:29Z</time></trkpt><trkpt lat="45.717911679143796" lon="9.215980317288965"><ele>302.0</ele><time>2026-04-12T09:29:30Z</time></trkpt><trkpt lat="45.71800841457956" lon="9.215964258523545"><ele>302.0</ele><time>2026-04-12T09:29:31Z</time></trkpt><trkpt lat="45.718107375871256" lon="9.215951532604834"><ele>301.83333333333337</ele><time>2026-04-12T09:29:32Z</time></trkpt><trkpt lat="45.718201973499916" lon="9.21594103427046"><ele>301.6666666666667</ele><time>2026-04-12T09:29:33Z</time></trkpt><trkpt lat="45.71828030562268" lon="9.21593093665937"><ele>301.5</ele><time>2026-04-12T09:29:34Z</time></trkpt><trkpt lat="45.71834742812482" lon="9.21592835451032"><ele>301.3333333333333</ele><time>2026-04-12T09:29:35Z</time></trkpt><trkpt lat="45.71841329313477" lon="9.21592645844803"><ele>301.16666666666663</ele><time>2026-04-12T09:29:36Z</time></trkpt><trkpt lat="45.71852354104753" lon="9.215930468123332"><ele>301.0</ele><time>2026-04-12T09:29:38Z</time></trkpt><trkpt lat="45.71859553250283" lon="9.215952403286305"><ele>301.0</ele><time>2026-04-12T09:29:40Z</time></trkpt><trkpt lat="45.718662142310265" lon="9.215975742933328"><ele>301.0</ele><time>2026-04-12T09:29:42Z</time></trkpt><trkpt lat="45.71876390711255" lon="9.216049925074158"><ele>301.0</ele><time>2026-04-12T09:29:44Z</time></trkpt><trkpt lat="45.718867807772284" lon="9.216051227648105"><ele>301.0</ele><time>2026-04-12T09:29:46Z</time></trkpt><trkpt lat="45.718950557279214" lon="9.21595711908544"><ele>301.0</ele><time>2026-04-12T09:29:48Z</time></trkpt><trkpt lat="45.71900740002775" lon="9.21589540370795"><ele>301.0</ele><time>2026-04-12T09:29:49Z</time></trkpt><trkpt lat="45.71908695352575" lon="9.215843675448614"><ele>301.0</ele><time>2026-04-12T09:29:50Z</time></trkpt><trkpt lat="45.719181447264646" lon="9.215814397568023"><ele>301.0</ele><time>2026-04-12T09:29:51Z</time></trkpt><trkpt lat="45.71927632730678" lon="9.215786593224195"><ele>301.0</ele><time>2026-04-12T09:29:52Z</time></trkpt><trkpt lat="45.7193914284925" lon="9.21576699947634"><ele>301.0</ele><time>2026-04-12T09:29:53Z</time></trkpt><trkpt lat="45.71951236710564" lon="9.21575107792145"><ele>301.75</ele><time>2026-04-12T09:29:54Z</time></trkpt><trkpt lat="45.719640097854736" lon="9.21574202531217"><ele>302.5</ele><time>2026-04-12T09:29:55Z</time></trkpt><trkpt lat="45.71977394080499" lon="9.215733111453549"><ele>303.25</ele><time>2026-04-12T09:29:56Z</time></trkpt><trkpt lat="45.71991681184131" lon="9.215717558538037"><ele>304.0</ele><time>2026-04-12T09:29:57Z</time></trkpt><trkpt lat="45.72006313316738" lon="9.215702516498435"><ele>304.0</ele><time>2026-04-12T09:29:58Z</time></trkpt><trkpt lat="45.720213662066264" lon="9.215682971679657"><ele>304.0</ele><time>2026-04-12T09:29:59Z</time></trkpt><trkpt lat="45.72036817360116" lon="9.21566279737711"><ele>304.0</ele><time>2026-04-12T09:30:00Z</time></trkpt><trkpt lat="45.72052493732051" lon="9.215641122549528"><ele>304.66666666666663</ele><time>2026-04-12T09:30:01Z</time></trkpt><trkpt lat="45.72068222442111" lon="9.21561867018787"><ele>305.3333333333333</ele><time>2026-04-12T09:30:02Z</time></trkpt><trkpt lat="45.72084092101674" lon="9.215595276414346"><ele>306.0</ele><time>2026-04-12T09:30:03Z</time></trkpt><trkpt lat="45.72100285160073" lon="9.215575807887605"><ele>305.6666666666667</ele><time>2026-04-12T09:30:04Z</time></trkpt><trkpt lat="45.72116433092208" lon="9.215556087661843"><ele>305.33333333333337</ele><time>2026-04-12T09:30:05Z</time></trkpt><trkpt lat="45.721330479243335" lon="9.215535818530194"><ele>305.0</ele><time>2026-04-12T09:30:06Z</time></trkpt><trkpt lat="45.721495641836825" lon="9.215513439301075"><ele>305.0</ele><time>2026-04-12T09:30:07Z</time></trkpt><trkpt lat="45.721664824047565" lon="9.21549059546977"><ele>305.0</ele><time>2026-04-12T09:30:08Z</time></trkpt><trkpt lat="45.721832336976526" lon="9.215471402219029"><ele>305.0</ele><time>2026-04-12T09:30:09Z</time></trkpt><trkpt lat="45.72199495586915" lon="9.215452739218751"><ele>306.6666666666667</ele><time>2026-04-12T09:30:10Z</time></trkpt><trkpt lat="45.722159475389184" lon="9.215431070281337"><ele>308.3333333333333</ele><time>2026-04-12T09:30:11Z</time></trkpt><trkpt lat="45.722318091410806" lon="9.215411107416926"><ele>310.0</ele><time>2026-04-12T09:30:12Z</time></trkpt><trkpt lat="45.7224717006619" lon="9.215388977641085"><ele>310.0</ele><time>2026-04-12T09:30:13Z</time></trkpt><trkpt lat="45.72262175298281" lon="9.215370464233574"><ele>310.0</ele><time>2026-04-12T09:30:14Z</time></trkpt><trkpt lat="45.72276929509982" lon="9.215350280207824"><ele>310.0</ele><time>2026-04-12T09:30:15Z</time></trkpt><trkpt lat="45.722918763938374" lon="9.215333879581141"><ele>310.0</ele><time>2026-04-12T09:30:16Z</time></trkpt><trkpt lat="45.72306571466628" lon="9.2153208614054"><ele>310.5</ele><time>2026-04-12T09:30:17Z</time></trkpt><trkpt lat="45.723217835558565" lon="9.215303561508083"><ele>311.0</ele><time>2026-04-12T09:30:18Z</time></trkpt><trkpt lat="45.72352014376489" lon="9.215263372016704"><ele>311.25</ele><time>2026-04-12T09:30:20Z</time></trkpt><trkpt lat="45.72367145870226" lon="9.215245259416154"><ele>311.5</ele><time>2026-04-12T09:30:21Z</time></trkpt><trkpt lat="45.72381544067349" lon="9.21522743318695"><ele>311.75</ele><time>2026-04-12T09:30:22Z</time></trkpt><trkpt lat="45.7239500518051" lon="9.215206744654692"><ele>312.0</ele><time>2026-04-12T09:30:23Z</time></trkpt><trkpt lat="45.724079163717036" lon="9.215187235231921"><ele>312.0</ele><time>2026-04-12T09:30:24Z</time></trkpt><trkpt lat="45.72419839489292" lon="9.215171278911013"><ele>312.0</ele><time>2026-04-12T09:30:25Z</time></trkpt><trkpt lat="45.72431472999146" lon="9.215156685351074"><ele>312.0</ele><time>2026-04-12T09:30:26Z</time></trkpt><trkpt lat="45.72442642547238" lon="9.215144692745483"><ele>312.0</ele><time>2026-04-12T09:30:27Z</time></trkpt><trkpt lat="45.724531312981796" lon="9.215131560617543"><ele>312.2</ele><time>2026-04-12T09:30:28Z</time></trkpt><trkpt lat="45.72463151941769" lon="9.215119434820137"><ele>312.4</ele><time>2026-04-12T09:30:29Z</time></trkpt><trkpt lat="45.72472469936909" lon="9.21510590606202"><ele>312.6</ele><time>2026-04-12T09:30:30Z</time></trkpt><trkpt lat="45.72481485534657" lon="9.215096462634254"><ele>312.8</ele><time>2026-04-12T09:30:31Z</time></trkpt><trkpt lat="45.72490856657554" lon="9.215089210815071"><ele>313.0</ele><time>2026-04-12T09:30:32Z</time></trkpt><trkpt lat="45.72500302923527" lon="9.215082528367041"><ele>313.0</ele><time>2026-04-12T09:30:33Z</time></trkpt><trkpt lat="45.72509114911251" lon="9.215072191026795"><ele>313.0</ele><time>2026-04-12T09:30:34Z</time></trkpt><trkpt lat="45.72517299382379" lon="9.215063209497101"><ele>313.0</ele><time>2026-04-12T09:30:35Z</time></trkpt><trkpt lat="45.72525266597532" lon="9.215052114250911"><ele>313.0</ele><time>2026-04-12T09:30:36Z</time></trkpt><trkpt lat="45.7253278418717" lon="9.215043008023693"><ele>313.0</ele><time>2026-04-12T09:30:37Z</time></trkpt><trkpt lat="45.72539061484885" lon="9.215031032144013"><ele>313.0</ele><time>2026-04-12T09:30:38Z</time></trkpt><trkpt lat="45.72546616558331" lon="9.215014076390995"><ele>313.5</ele><time>2026-04-12T09:30:40Z</time></trkpt><trkpt lat="45.72553213552583" lon="9.215020860601753"><ele>314.0</ele><time>2026-04-12T09:30:43Z</time></trkpt><trkpt lat="45.72560988428886" lon="9.215049761776795"><ele>314.5</ele><time>2026-04-12T09:30:45Z</time></trkpt><trkpt lat="45.72567389165936" lon="9.215072822348866"><ele>315.0</ele><time>2026-04-12T09:30:46Z</time></trkpt><trkpt lat="45.725763319714545" lon="9.215064173867614"><ele>315.5</ele><time>2026-04-12T09:30:47Z</time></trkpt><trkpt lat="45.72586209380759" lon="9.21503149704289"><ele>316.0</ele><time>2026-04-12T09:30:48Z</time></trkpt><trkpt lat="45.725972210964706" lon="9.2149940443095"><ele>317.0</ele><time>2026-04-12T09:30:49Z</time></trkpt><trkpt lat="45.726090675013616" lon="9.214963694150079"><ele>318.0</ele><time>2026-04-12T09:30:50Z</time></trkpt><trkpt lat="45.726213486206305" lon="9.214933811651136"><ele>319.0</ele><time>2026-04-12T09:30:51Z</time></trkpt><trkpt lat="45.726335899248475" lon="9.214913635167148"><ele>320.0</ele><time>2026-04-12T09:30:52Z</time></trkpt><trkpt lat="45.726462922918635" lon="9.214897625341083"><ele>320.0</ele><time>2026-04-12T09:30:53Z</time></trkpt><trkpt lat="45.72658921009682" lon="9.214882812370442"><ele>320.0</ele><time>2026-04-12T09:30:54Z</time></trkpt><trkpt lat="45.72671566877501" lon="9.214865652430769"><ele>320.0</ele><time>2026-04-12T09:30:55Z</time></trkpt><trkpt lat="45.72684250069499" lon="9.214845292969096"><ele>320.0</ele><time>2026-04-12T09:30:56Z</time></trkpt><trkpt lat="45.7269675952122" lon="9.21482848010056"><ele>321.0</ele><time>2026-04-12T09:30:57Z</time></trkpt><trkpt lat="45.72709521027543" lon="9.214810655601605"><ele>322.0</ele><time>2026-04-12T09:30:58Z</time></trkpt><trkpt lat="45.727218871454276" lon="9.21479674808424"><ele>323.0</ele><time>2026-04-12T09:30:59.001Z</time></trkpt><trkpt lat="45.72734477154153" lon="9.214782667337804"><ele>324.0</ele><time>2026-04-12T09:31:00.001Z</time></trkpt><trkpt lat="45.727467966525204" lon="9.214761685138475"><ele>324.0</ele><time>2026-04-12T09:31:01.001Z</time></trkpt><trkpt lat="45.727588176959514" lon="9.214748864581642"><ele>324.0</ele><time>2026-04-12T09:31:02.001Z</time></trkpt><trkpt lat="45.727705364824914" lon="9.214738528891562"><ele>324.0</ele><time>2026-04-12T09:31:03.001Z</time></trkpt><trkpt lat="45.7278187898361" lon="9.214722049058949"><ele>324.0</ele><time>2026-04-12T09:31:04.001Z</time></trkpt><trkpt lat="45.7279282608823" lon="9.21470530923926"><ele>324.4</ele><time>2026-04-12T09:31:05.001Z</time></trkpt><trkpt lat="45.728035070225275" lon="9.21469429946736"><ele>324.79999999999995</ele><time>2026-04-12T09:31:06.001Z</time></trkpt><trkpt lat="45.728143315861914" lon="9.21468603488588"><ele>325.20000000000005</ele><time>2026-04-12T09:31:07.001Z</time></trkpt><trkpt lat="45.72825187261948" lon="9.21467053888199"><ele>325.6</ele><time>2026-04-12T09:31:08.001Z</time></trkpt><trkpt lat="45.72836062941274" lon="9.214655962017966"><ele>326.0</ele><time>2026-04-12T09:31:09.001Z</time></trkpt><trkpt lat="45.72846983568443" lon="9.214643052823865"><ele>325.5</ele><time>2026-04-12T09:31:10.001Z</time></trkpt><trkpt lat="45.72858063091079" lon="9.214627749406818"><ele>325.0</ele><time>2026-04-12T09:31:11.001Z</time></trkpt><trkpt lat="45.72869602134718" lon="9.214610701769212"><ele>324.5</ele><time>2026-04-12T09:31:12.001Z</time></trkpt><trkpt lat="45.72880936876869" lon="9.214595000282696"><ele>324.0</ele><time>2026-04-12T09:31:13.001Z</time></trkpt><trkpt lat="45.728922638367074" lon="9.214583157681878"><ele>324.0</ele><time>2026-04-12T09:31:14.001Z</time></trkpt><trkpt lat="45.72903977551107" lon="9.21457188990627"><ele>324.0</ele><time>2026-04-12T09:31:15.001Z</time></trkpt><trkpt lat="45.729162726457155" lon="9.214557061534052"><ele>324.0</ele><time>2026-04-12T09:31:16.001Z</time></trkpt><trkpt lat="45.72929180102463" lon="9.214538326510729"><ele>324.0</ele><time>2026-04-12T09:31:17.001Z</time></trkpt><trkpt lat="45.729425699119844" lon="9.214519009883041"><ele>323.25</ele><time>2026-04-12T09:31:18.001Z</time></trkpt><trkpt lat="45.729564276953475" lon="9.214495968558337"><ele>322.5</ele><time>2026-04-12T09:31:19Z</time></trkpt><trkpt lat="45.7297025688569" lon="9.214477798935626"><ele>321.75</ele><time>2026-04-12T09:31:20Z</time></trkpt><trkpt lat="45.72983561189133" lon="9.214460618615151"><ele>321.0</ele><time>2026-04-12T09:31:21Z</time></trkpt><trkpt lat="45.72996220785502" lon="9.214447404107398"><ele>321.0</ele><time>2026-04-12T09:31:22Z</time></trkpt><trkpt lat="45.73008296111284" lon="9.214434283086948"><ele>321.0</ele><time>2026-04-12T09:31:23Z</time></trkpt><trkpt lat="45.73019247760566" lon="9.214419130468029"><ele>321.0</ele><time>2026-04-12T09:31:24Z</time></trkpt><trkpt lat="45.73029787723703" lon="9.214403635059114"><ele>321.0</ele><time>2026-04-12T09:31:25Z</time></trkpt><trkpt lat="45.730396685782495" lon="9.214388243300004"><ele>321.0</ele><time>2026-04-12T09:31:26Z</time></trkpt><trkpt lat="45.7304932165867" lon="9.214374397834062"><ele>321.20000000000005</ele><time>2026-04-12T09:31:27Z</time></trkpt><trkpt lat="45.73059111029955" lon="9.21436073017363"><ele>321.40000000000003</ele><time>2026-04-12T09:31:28Z</time></trkpt><trkpt lat="45.730691042011344" lon="9.214347572061719"><ele>321.6</ele><time>2026-04-12T09:31:29Z</time></trkpt><trkpt lat="45.73078955777897" lon="9.21433152120516"><ele>321.8</ele><time>2026-04-12T09:31:30Z</time></trkpt><trkpt lat="45.730880329291374" lon="9.214315562014665"><ele>322.0</ele><time>2026-04-12T09:31:31Z</time></trkpt><trkpt lat="45.73096896809557" lon="9.214300887051849"><ele>322.0</ele><time>2026-04-12T09:31:32Z</time></trkpt><trkpt lat="45.73105035304888" lon="9.214288972966685"><ele>322.0</ele><time>2026-04-12T09:31:33Z</time></trkpt><trkpt lat="45.73112693528535" lon="9.214279704321418"><ele>322.0</ele><time>2026-04-12T09:31:34Z</time></trkpt><trkpt lat="45.731203216895786" lon="9.21427934767907"><ele>322.0</ele><time>2026-04-12T09:31:35Z</time></trkpt><trkpt lat="45.731282109648994" lon="9.214305326059822"><ele>322.0</ele><time>2026-04-12T09:31:36Z</time></trkpt><trkpt lat="45.73136590335822" lon="9.214353998778536"><ele>322.0</ele><time>2026-04-12T09:31:37Z</time></trkpt><trkpt lat="45.73145444391639" lon="9.214366052442607"><ele>323.25</ele><time>2026-04-12T09:31:38Z</time></trkpt><trkpt lat="45.73154220358451" lon="9.214474678541768"><ele>324.5</ele><time>2026-04-12T09:31:39Z</time></trkpt><trkpt lat="45.73164269725664" lon="9.214542640063925"><ele>325.75</ele><time>2026-04-12T09:31:40Z</time></trkpt><trkpt lat="45.73174647774343" lon="9.214613195980519"><ele>327.0</ele><time>2026-04-12T09:31:41Z</time></trkpt><trkpt lat="45.731862517691965" lon="9.214688389432737"><ele>327.0</ele><time>2026-04-12T09:31:42Z</time></trkpt><trkpt lat="45.73198368641208" lon="9.21476431320466"><ele>327.0</ele><time>2026-04-12T09:31:43Z</time></trkpt><trkpt lat="45.732108380274234" lon="9.214846440611025"><ele>327.0</ele><time>2026-04-12T09:31:44Z</time></trkpt><trkpt lat="45.732235374535406" lon="9.214933637603837"><ele>327.0</ele><time>2026-04-12T09:31:45Z</time></trkpt><trkpt lat="45.73236385048808" lon="9.215020933252429"><ele>326.6666666666667</ele><time>2026-04-12T09:31:46Z</time></trkpt><trkpt lat="45.73249568515606" lon="9.215109728824135"><ele>326.33333333333337</ele><time>2026-04-12T09:31:47Z</time></trkpt><trkpt lat="45.732634308503776" lon="9.215204674870744"><ele>326.0</ele><time>2026-04-12T09:31:48Z</time></trkpt><trkpt lat="45.7327738439343" lon="9.215300694735452"><ele>326.0</ele><time>2026-04-12T09:31:49Z</time></trkpt><trkpt lat="45.73291415808771" lon="9.215399586109198"><ele>326.0</ele><time>2026-04-12T09:31:50Z</time></trkpt><trkpt lat="45.73305405578129" lon="9.215492417306848"><ele>326.0</ele><time>2026-04-12T09:31:51Z</time></trkpt><trkpt lat="45.73320126524055" lon="9.215589108293077"><ele>325.33333333333337</ele><time>2026-04-12T09:31:52Z</time></trkpt><trkpt lat="45.73334947289233" lon="9.215685373050519"><ele>324.6666666666667</ele><time>2026-04-12T09:31:53Z</time></trkpt><trkpt lat="45.733499725275344" lon="9.215787531268397"><ele>324.0</ele><time>2026-04-12T09:31:54Z</time></trkpt><trkpt lat="45.733651179068445" lon="9.215888815244059"><ele>324.0</ele><time>2026-04-12T09:31:55Z</time></trkpt><trkpt lat="45.7338055785963" lon="9.215995127885455"><ele>324.0</ele><time>2026-04-12T09:31:56Z</time></trkpt><trkpt lat="45.733958277757594" lon="9.21609295304456"><ele>324.0</ele><time>2026-04-12T09:31:57Z</time></trkpt><trkpt lat="45.734113366011165" lon="9.21619641181797"><ele>324.0</ele><time>2026-04-12T09:31:58Z</time></trkpt><trkpt lat="45.734262611712865" lon="9.216300200054032"><ele>324.0</ele><time>2026-04-12T09:31:59Z</time></trkpt><trkpt lat="45.734398753973124" lon="9.216395622404981"><ele>324.0</ele><time>2026-04-12T09:32:00Z</time></trkpt><trkpt lat="45.73451332336812" lon="9.216474505278438"><ele>324.0</ele><time>2026-04-12T09:32:01Z</time></trkpt><trkpt lat="45.73460474683761" lon="9.216537446787932"><ele>324.3333333333333</ele><time>2026-04-12T09:32:02Z</time></trkpt><trkpt lat="45.73468358018688" lon="9.216588902022558"><ele>324.6666666666667</ele><time>2026-04-12T09:32:03Z</time></trkpt><trkpt lat="45.73476542844824" lon="9.216643929903276"><ele>325.0</ele><time>2026-04-12T09:32:04Z</time></trkpt><trkpt lat="45.734846399954534" lon="9.21669630673892"><ele>325.33333333333337</ele><time>2026-04-12T09:32:05Z</time></trkpt><trkpt lat="45.7349225631163" lon="9.216745601804869"><ele>325.6666666666667</ele><time>2026-04-12T09:32:06Z</time></trkpt><trkpt lat="45.73499933229065" lon="9.216799218778617"><ele>326.0</ele><time>2026-04-12T09:32:07Z</time></trkpt><trkpt lat="45.73508098083938" lon="9.216858175646259"><ele>326.0</ele><time>2026-04-12T09:32:08Z</time></trkpt><trkpt lat="45.7351670394769" lon="9.216921471332563"><ele>326.0</ele><time>2026-04-12T09:32:09Z</time></trkpt><trkpt lat="45.73525870090641" lon="9.216979920323894"><ele>326.0</ele><time>2026-04-12T09:32:10Z</time></trkpt><trkpt lat="45.73534582388182" lon="9.217033324219365"><ele>326.0</ele><time>2026-04-12T09:32:11Z</time></trkpt><trkpt lat="45.73542774857147" lon="9.21708588759746"><ele>326.0</ele><time>2026-04-12T09:32:12Z</time></trkpt><trkpt lat="45.73550361536482" lon="9.217141864175668"><ele>326.1666666666667</ele><time>2026-04-12T09:32:13Z</time></trkpt><trkpt lat="45.735575967264154" lon="9.21719112742724"><ele>326.33333333333337</ele><time>2026-04-12T09:32:14Z</time></trkpt><trkpt lat="45.73564333397837" lon="9.217236820934458"><ele>326.5</ele><time>2026-04-12T09:32:15Z</time></trkpt><trkpt lat="45.735708044142676" lon="9.217278426531461"><ele>326.6666666666667</ele><time>2026-04-12T09:32:16Z</time></trkpt><trkpt lat="45.73580001830021" lon="9.217340500171398"><ele>326.8333333333333</ele><time>2026-04-12T09:32:18Z</time></trkpt><trkpt lat="45.73591008269515" lon="9.217401435624938"><ele>327.0</ele><time>2026-04-12T09:32:20Z</time></trkpt><trkpt lat="45.73597847622722" lon="9.217448294914773"><ele>326.20000000000005</ele><time>2026-04-12T09:32:21Z</time></trkpt><trkpt lat="45.736051987774694" lon="9.217502587725555"><ele>325.4</ele><time>2026-04-12T09:32:22Z</time></trkpt><trkpt lat="45.73613738531901" lon="9.217563676083634"><ele>324.6</ele><time>2026-04-12T09:32:23Z</time></trkpt><trkpt lat="45.73622879998138" lon="9.217626079138686"><ele>323.79999999999995</ele><time>2026-04-12T09:32:24Z</time></trkpt><trkpt lat="45.73632689837357" lon="9.217692664813304"><ele>323.0</ele><time>2026-04-12T09:32:25Z</time></trkpt><trkpt lat="45.7364330954801" lon="9.21776431347102"><ele>323.0</ele><time>2026-04-12T09:32:26Z</time></trkpt><trkpt lat="45.73654175255758" lon="9.217835455559468"><ele>323.0</ele><time>2026-04-12T09:32:27Z</time></trkpt><trkpt lat="45.73665989531726" lon="9.217915949292015"><ele>323.0</ele><time>2026-04-12T09:32:28Z</time></trkpt><trkpt lat="45.73678301533791" lon="9.217999218284852"><ele>323.0</ele><time>2026-04-12T09:32:29Z</time></trkpt><trkpt lat="45.73691000545847" lon="9.218089049057584"><ele>322.6666666666667</ele><time>2026-04-12T09:32:30Z</time></trkpt><trkpt lat="45.737046846330685" lon="9.21818009396714"><ele>322.3333333333333</ele><time>2026-04-12T09:32:31Z</time></trkpt><trkpt lat="45.737192106490916" lon="9.218280203560603"><ele>322.0</ele><time>2026-04-12T09:32:32Z</time></trkpt><trkpt lat="45.7373370539831" lon="9.21837701984636"><ele>322.0</ele><time>2026-04-12T09:32:33Z</time></trkpt><trkpt lat="45.737488221634926" lon="9.218480269955805"><ele>322.0</ele><time>2026-04-12T09:32:34Z</time></trkpt><trkpt lat="45.73764025116412" lon="9.218590418780733"><ele>322.0</ele><time>2026-04-12T09:32:35Z</time></trkpt><trkpt lat="45.737787010256596" lon="9.21870761979628"><ele>323.0</ele><time>2026-04-12T09:32:36Z</time></trkpt><trkpt lat="45.737925507258005" lon="9.218838164649728"><ele>324.0</ele><time>2026-04-12T09:32:37Z</time></trkpt><trkpt lat="45.738054582121855" lon="9.2189883773196"><ele>325.0</ele><time>2026-04-12T09:32:38Z</time></trkpt><trkpt lat="45.73817631088943" lon="9.219151868580422"><ele>325.0</ele><time>2026-04-12T09:32:39Z</time></trkpt><trkpt lat="45.738289896697154" lon="9.219332575112906"><ele>325.0</ele><time>2026-04-12T09:32:40Z</time></trkpt><trkpt lat="45.738393236377306" lon="9.219528497146896"><ele>325.0</ele><time>2026-04-12T09:32:41Z</time></trkpt><trkpt lat="45.738490362384184" lon="9.21973180137468"><ele>327.3333333333333</ele><time>2026-04-12T09:32:42Z</time></trkpt><trkpt lat="45.738585116695575" lon="9.219939695335528"><ele>329.6666666666667</ele><time>2026-04-12T09:32:43Z</time></trkpt><trkpt lat="45.73868142228964" lon="9.220142378304136"><ele>332.0</ele><time>2026-04-12T09:32:44Z</time></trkpt><trkpt lat="45.73878170075473" lon="9.220347136626327"><ele>332.0</ele><time>2026-04-12T09:32:45Z</time></trkpt><trkpt lat="45.738881845620085" lon="9.220556330777683"><ele>332.0</ele><time>2026-04-12T09:32:46Z</time></trkpt><trkpt lat="45.73898078283081" lon="9.220760447611289"><ele>332.0</ele><time>2026-04-12T09:32:47Z</time></trkpt><trkpt lat="45.73908476020955" lon="9.220969934357527"><ele>331.0</ele><time>2026-04-12T09:32:48Z</time></trkpt><trkpt lat="45.739188101147576" lon="9.221184047237582"><ele>330.0</ele><time>2026-04-12T09:32:49Z</time></trkpt><trkpt lat="45.73929107376156" lon="9.221401819632831"><ele>329.0</ele><time>2026-04-12T09:32:50Z</time></trkpt><trkpt lat="45.73939142209007" lon="9.221615639682257"><ele>335.33333333333337</ele><time>2026-04-12T09:32:51Z</time></trkpt><trkpt lat="45.73949351383432" lon="9.22182796944132"><ele>341.6666666666667</ele><time>2026-04-12T09:32:52Z</time></trkpt><trkpt lat="45.73959300910615" lon="9.222034407716318"><ele>348.0</ele><time>2026-04-12T09:32:53Z</time></trkpt><trkpt lat="45.73969106759519" lon="9.222232658025002"><ele>344.25</ele><time>2026-04-12T09:32:54Z</time></trkpt><trkpt lat="45.739781313967626" lon="9.222416358560524"><ele>340.5</ele><time>2026-04-12T09:32:55Z</time></trkpt><trkpt lat="45.739870188845835" lon="9.222591064648872"><ele>336.75</ele><time>2026-04-12T09:32:56Z</time></trkpt><trkpt lat="45.73995200289255" lon="9.22275298035785"><ele>333.0</ele><time>2026-04-12T09:32:57Z</time></trkpt><trkpt lat="45.740024538709" lon="9.222901562512856"><ele>333.0</ele><time>2026-04-12T09:32:58Z</time></trkpt><trkpt lat="45.740101069177655" lon="9.22301925767353"><ele>333.0</ele><time>2026-04-12T09:32:59Z</time></trkpt><trkpt lat="45.740169624890285" lon="9.223124592622163"><ele>333.0</ele><time>2026-04-12T09:33:00Z</time></trkpt><trkpt lat="45.740230129019444" lon="9.22321735822001"><ele>333.0</ele><time>2026-04-12T09:33:01Z</time></trkpt><trkpt lat="45.74028416127456" lon="9.223306606026883"><ele>333.0</ele><time>2026-04-12T09:33:02Z</time></trkpt><trkpt lat="45.7403347760411" lon="9.223392805018156"><ele>334.0</ele><time>2026-04-12T09:33:03Z</time></trkpt><trkpt lat="45.74038041671554" lon="9.223475077709853"><ele>335.0</ele><time>2026-04-12T09:33:04Z</time></trkpt><trkpt lat="45.74042917759346" lon="9.223555052821785"><ele>336.0</ele><time>2026-04-12T09:33:05Z</time></trkpt><trkpt lat="45.74047892340439" lon="9.2236118261821"><ele>337.0</ele><time>2026-04-12T09:33:06Z</time></trkpt><trkpt lat="45.740607818336684" lon="9.223613588546945"><ele>338.0</ele><time>2026-04-12T09:33:08Z</time></trkpt><trkpt lat="45.74066975713954" lon="9.223574272561462"><ele>339.0</ele><time>2026-04-12T09:33:09Z</time></trkpt><trkpt lat="45.74074547601136" lon="9.22354382324558"><ele>339.0</ele><time>2026-04-12T09:33:10Z</time></trkpt><trkpt lat="45.740823337096" lon="9.223519863678138"><ele>339.0</ele><time>2026-04-12T09:33:11Z</time></trkpt><trkpt lat="45.74089941060322" lon="9.223481802772495"><ele>339.0</ele><time>2026-04-12T09:33:12Z</time></trkpt><trkpt lat="45.74097815092556" lon="9.223444176430991"><ele>339.0</ele><time>2026-04-12T09:33:13Z</time></trkpt><trkpt lat="45.74106316244063" lon="9.22339890902467"><ele>339.0</ele><time>2026-04-12T09:33:14Z</time></trkpt><trkpt lat="45.741141265884934" lon="9.223352232630095"><ele>339.0</ele><time>2026-04-12T09:33:15Z</time></trkpt><trkpt lat="45.74122945703001" lon="9.223322700491645"><ele>339.79999999999995</ele><time>2026-04-12T09:33:16Z</time></trkpt><trkpt lat="45.74132583769119" lon="9.223311338201313"><ele>340.59999999999997</ele><time>2026-04-12T09:33:17Z</time></trkpt><trkpt lat="45.74142088128442" lon="9.223305586153554"><ele>341.4</ele><time>2026-04-12T09:33:18Z</time></trkpt><trkpt lat="45.74152716820618" lon="9.223298965810569"><ele>342.2</ele><time>2026-04-12T09:33:19Z</time></trkpt><trkpt lat="45.741641586350966" lon="9.223303749707291"><ele>343.0</ele><time>2026-04-12T09:33:20Z</time></trkpt><trkpt lat="45.741750260444455" lon="9.223300106291065"><ele>343.0</ele><time>2026-04-12T09:33:21Z</time></trkpt><trkpt lat="45.741863319479535" lon="9.223277158919116"><ele>343.0</ele><time>2026-04-12T09:33:22Z</time></trkpt><trkpt lat="45.7419835993187" lon="9.223257810611475"><ele>343.0</ele><time>2026-04-12T09:33:23Z</time></trkpt><trkpt lat="45.742105095211436" lon="9.2232061026355"><ele>343.0</ele><time>2026-04-12T09:33:24Z</time></trkpt><trkpt lat="45.74222609017184" lon="9.223152177621003"><ele>345.25</ele><time>2026-04-12T09:33:25Z</time></trkpt><trkpt lat="45.7423565620318" lon="9.223100322124903"><ele>347.5</ele><time>2026-04-12T09:33:26Z</time></trkpt><trkpt lat="45.742487295375604" lon="9.223055521924616"><ele>349.75</ele><time>2026-04-12T09:33:27Z</time></trkpt><trkpt lat="45.74261594397893" lon="9.223009639421468"><ele>352.0</ele><time>2026-04-12T09:33:28Z</time></trkpt><trkpt lat="45.74273895468754" lon="9.22294918071494"><ele>352.0</ele><time>2026-04-12T09:33:29Z</time></trkpt><trkpt lat="45.742863853036596" lon="9.22286755479465"><ele>352.0</ele><time>2026-04-12T09:33:30Z</time></trkpt><trkpt lat="45.74299259779683" lon="9.222776259486608"><ele>352.0</ele><time>2026-04-12T09:33:31Z</time></trkpt><trkpt lat="45.743125256581095" lon="9.222681292368467"><ele>352.0</ele><time>2026-04-12T09:33:32Z</time></trkpt><trkpt lat="45.743257626325324" lon="9.222595254071864"><ele>352.0</ele><time>2026-04-12T09:33:33Z</time></trkpt><trkpt lat="45.74339286383065" lon="9.222509238458507"><ele>352.0</ele><time>2026-04-12T09:33:34Z</time></trkpt><trkpt lat="45.7435299205553" lon="9.222419748780315"><ele>352.0</ele><time>2026-04-12T09:33:35Z</time></trkpt><trkpt lat="45.74366003439773" lon="9.222336941008523"><ele>352.0</ele><time>2026-04-12T09:33:36Z</time></trkpt><trkpt lat="45.743786480955386" lon="9.222255602631737"><ele>351.25</ele><time>2026-04-12T09:33:37Z</time></trkpt><trkpt lat="45.743909729509184" lon="9.222176615753108"><ele>350.5</ele><time>2026-04-12T09:33:38Z</time></trkpt><trkpt lat="45.744031336969435" lon="9.222102496836701"><ele>349.75</ele><time>2026-04-12T09:33:39Z</time></trkpt><trkpt lat="45.74414542356747" lon="9.222024571145777"><ele>349.0</ele><time>2026-04-12T09:33:40Z</time></trkpt><trkpt lat="45.74426482462991" lon="9.221946246500124"><ele>349.0</ele><time>2026-04-12T09:33:41Z</time></trkpt><trkpt lat="45.74436580336296" lon="9.22187599856707"><ele>349.0</ele><time>2026-04-12T09:33:42Z</time></trkpt><trkpt lat="45.74446281560206" lon="9.221817848621457"><ele>349.0</ele><time>2026-04-12T09:33:43Z</time></trkpt><trkpt lat="45.744548855011416" lon="9.22177491504246"><ele>349.0</ele><time>2026-04-12T09:33:44Z</time></trkpt><trkpt lat="45.744632548623244" lon="9.221738126776268"><ele>349.0</ele><time>2026-04-12T09:33:45Z</time></trkpt><trkpt lat="45.744714589661896" lon="9.221695953835164"><ele>347.2</ele><time>2026-04-12T09:33:46Z</time></trkpt><trkpt lat="45.74480562559495" lon="9.221656434224407"><ele>345.4</ele><time>2026-04-12T09:33:47Z</time></trkpt><trkpt lat="45.74490143563164" lon="9.22162385495358"><ele>343.6</ele><time>2026-04-12T09:33:48Z</time></trkpt><trkpt lat="45.745000442664654" lon="9.221594866712032"><ele>341.8</ele><time>2026-04-12T09:33:49Z</time></trkpt><trkpt lat="45.74510906222592" lon="9.221561898085975"><ele>340.0</ele><time>2026-04-12T09:33:50Z</time></trkpt><trkpt lat="45.745225233530796" lon="9.221526591855978"><ele>339.5</ele><time>2026-04-12T09:33:51Z</time></trkpt><trkpt lat="45.745342396115156" lon="9.22148678408088"><ele>339.0</ele><time>2026-04-12T09:33:52Z</time></trkpt><trkpt lat="45.74546691028784" lon="9.22144892535018"><ele>338.5</ele><time>2026-04-12T09:33:53Z</time></trkpt><trkpt lat="45.745591054223354" lon="9.22141087412645"><ele>338.0</ele><time>2026-04-12T09:33:54Z</time></trkpt><trkpt lat="45.74572393737056" lon="9.221373387515921"><ele>338.0</ele><time>2026-04-12T09:33:55Z</time></trkpt><trkpt lat="45.74585907370098" lon="9.221337118926499"><ele>338.0</ele><time>2026-04-12T09:33:56Z</time></trkpt><trkpt lat="45.74599464626626" lon="9.22130185562455"><ele>338.0</ele><time>2026-04-12T09:33:57Z</time></trkpt><trkpt lat="45.74613242059035" lon="9.22126116012674"><ele>338.0</ele><time>2026-04-12T09:33:58Z</time></trkpt><trkpt lat="45.746271711202525" lon="9.221218808956436"><ele>338.0</ele><time>2026-04-12T09:33:59Z</time></trkpt><trkpt lat="45.746411167481774" lon="9.221176015850368"><ele>338.0</ele><time>2026-04-12T09:34:00Z</time></trkpt><trkpt lat="45.746557521176584" lon="9.221133325832195"><ele>338.0</ele><time>2026-04-12T09:34:01Z</time></trkpt><trkpt lat="45.746705596743624" lon="9.22108904659045"><ele>338.0</ele><time>2026-04-12T09:34:02Z</time></trkpt><trkpt lat="45.746856350338085" lon="9.22104737206601"><ele>338.0</ele><time>2026-04-12T09:34:03Z</time></trkpt><trkpt lat="45.74700830597478" lon="9.221001668746052"><ele>338.0</ele><time>2026-04-12T09:34:04Z</time></trkpt><trkpt lat="45.74715820806971" lon="9.220956637728465"><ele>338.0</ele><time>2026-04-12T09:34:05Z</time></trkpt><trkpt lat="45.74730232752552" lon="9.220913302679694"><ele>338.0</ele><time>2026-04-12T09:34:06Z</time></trkpt><trkpt lat="45.747440899505975" lon="9.220873873661699"><ele>338.0</ele><time>2026-04-12T09:34:07Z</time></trkpt><trkpt lat="45.747577445503886" lon="9.22084118055393"><ele>338.0</ele><time>2026-04-12T09:34:08Z</time></trkpt><trkpt lat="45.74770205706774" lon="9.220801649905582"><ele>338.0</ele><time>2026-04-12T09:34:09Z</time></trkpt><trkpt lat="45.747811071860966" lon="9.220770715944438"><ele>338.0</ele><time>2026-04-12T09:34:10Z</time></trkpt><trkpt lat="45.74790785342461" lon="9.220743695666654"><ele>338.0</ele><time>2026-04-12T09:34:11Z</time></trkpt><trkpt lat="45.74799555404136" lon="9.220719874310822"><ele>338.0</ele><time>2026-04-12T09:34:12Z</time></trkpt><trkpt lat="45.74808028763712" lon="9.22068995545091"><ele>338.0</ele><time>2026-04-12T09:34:13Z</time></trkpt><trkpt lat="45.74815308407761" lon="9.220653659800634"><ele>338.0</ele><time>2026-04-12T09:34:14Z</time></trkpt><trkpt lat="45.748220599281744" lon="9.220616333870355"><ele>338.0</ele><time>2026-04-12T09:34:15Z</time></trkpt><trkpt lat="45.74828156482556" lon="9.220579482292335"><ele>338.0</ele><time>2026-04-12T09:34:16Z</time></trkpt><trkpt lat="45.74837003370749" lon="9.220531188255904"><ele>338.0</ele><time>2026-04-12T09:34:18Z</time></trkpt><trkpt lat="45.748434858348915" lon="9.220522790439345"><ele>338.0</ele><time>2026-04-12T09:34:20Z</time></trkpt><trkpt lat="45.74853372867782" lon="9.220487889508199"><ele>338.0</ele><time>2026-04-12T09:34:22Z</time></trkpt><trkpt lat="45.74860777514056" lon="9.220462158330001"><ele>338.0</ele><time>2026-04-12T09:34:23Z</time></trkpt><trkpt lat="45.74868841523289" lon="9.22044827282087"><ele>338.0</ele><time>2026-04-12T09:34:24Z</time></trkpt><trkpt lat="45.74877519755479" lon="9.220443404385225"><ele>338.0</ele><time>2026-04-12T09:34:25.001Z</time></trkpt><trkpt lat="45.74887049785143" lon="9.220444250838359"><ele>338.0</ele><time>2026-04-12T09:34:26.001Z</time></trkpt><trkpt lat="45.7489697898858" lon="9.220452124378813"><ele>338.0</ele><time>2026-04-12T09:34:27.001Z</time></trkpt><trkpt lat="45.749075539673086" lon="9.22046164913009"><ele>338.0</ele><time>2026-04-12T09:34:28.001Z</time></trkpt><trkpt lat="45.74918448781059" lon="9.220471521151808"><ele>338.0</ele><time>2026-04-12T09:34:29.001Z</time></trkpt><trkpt lat="45.749294875626084" lon="9.220485802870318"><ele>338.25</ele><time>2026-04-12T09:34:30.001Z</time></trkpt><trkpt lat="45.749408307020914" lon="9.220516657465042"><ele>338.5</ele><time>2026-04-12T09:34:31.001Z</time></trkpt><trkpt lat="45.74952282820642" lon="9.220561532482956"><ele>338.75</ele><time>2026-04-12T09:34:32.001Z</time></trkpt><trkpt lat="45.74963610261604" lon="9.220617616135868"><ele>339.0</ele><time>2026-04-12T09:34:33.001Z</time></trkpt><trkpt lat="45.74973815457154" lon="9.220681384657183"><ele>338.0</ele><time>2026-04-12T09:34:34.001Z</time></trkpt><trkpt lat="45.749838914896316" lon="9.220751389448225"><ele>337.0</ele><time>2026-04-12T09:34:35.001Z</time></trkpt><trkpt lat="45.74994442139172" lon="9.220826048982302"><ele>336.0</ele><time>2026-04-12T09:34:36.001Z</time></trkpt><trkpt lat="45.75005112506848" lon="9.220902466079638"><ele>335.0</ele><time>2026-04-12T09:34:37.001Z</time></trkpt><trkpt lat="45.75015939712375" lon="9.220976634029984"><ele>335.75</ele><time>2026-04-12T09:34:38.001Z</time></trkpt><trkpt lat="45.75027158271116" lon="9.221052935971247"><ele>336.5</ele><time>2026-04-12T09:34:39.001Z</time></trkpt><trkpt lat="45.750380982621635" lon="9.221127530516032"><ele>337.25</ele><time>2026-04-12T09:34:40.001Z</time></trkpt><trkpt lat="45.75048882302248" lon="9.221205598456606"><ele>338.0</ele><time>2026-04-12T09:34:41.001Z</time></trkpt><trkpt lat="45.750595488781315" lon="9.221282986842429"><ele>338.0</ele><time>2026-04-12T09:34:42.001Z</time></trkpt><trkpt lat="45.750694781947765" lon="9.221350088312812"><ele>338.0</ele><time>2026-04-12T09:34:43.001Z</time></trkpt><trkpt lat="45.75079338020529" lon="9.221415801410288"><ele>338.0</ele><time>2026-04-12T09:34:44.001Z</time></trkpt><trkpt lat="45.75088750354096" lon="9.221484298095502"><ele>338.0</ele><time>2026-04-12T09:34:45.001Z</time></trkpt><trkpt lat="45.750985371774654" lon="9.2215536636044"><ele>338.0</ele><time>2026-04-12T09:34:46.001Z</time></trkpt><trkpt lat="45.75108546926803" lon="9.221624583092392"><ele>337.75</ele><time>2026-04-12T09:34:47.001Z</time></trkpt><trkpt lat="45.75118511400451" lon="9.221695405796618"><ele>337.5</ele><time>2026-04-12T09:34:48.001Z</time></trkpt><trkpt lat="45.75128963645134" lon="9.22177043051789"><ele>337.25</ele><time>2026-04-12T09:34:49.001Z</time></trkpt><trkpt lat="45.75139529304298" lon="9.221846658751392"><ele>337.0</ele><time>2026-04-12T09:34:50.001Z</time></trkpt><trkpt lat="45.75150298700272" lon="9.221918671725637"><ele>337.0</ele><time>2026-04-12T09:34:51.001Z</time></trkpt><trkpt lat="45.751613197831695" lon="9.221992969564404"><ele>337.0</ele><time>2026-04-12T09:34:52.001Z</time></trkpt><trkpt lat="45.75172096450578" lon="9.222072110035974"><ele>337.0</ele><time>2026-04-12T09:34:53.001Z</time></trkpt><trkpt lat="45.75182854333909" lon="9.22215177803639"><ele>337.0</ele><time>2026-04-12T09:34:54.001Z</time></trkpt><trkpt lat="45.75193726882245" lon="9.222228509406003"><ele>336.75</ele><time>2026-04-12T09:34:55.001Z</time></trkpt><trkpt lat="45.75204719771409" lon="9.222304701942145"><ele>336.5</ele><time>2026-04-12T09:34:56.001Z</time></trkpt><trkpt lat="45.75216068484953" lon="9.222379000179604"><ele>336.25</ele><time>2026-04-12T09:34:57.001Z</time></trkpt><trkpt lat="45.75227734742981" lon="9.222453117062743"><ele>336.0</ele><time>2026-04-12T09:34:58.001Z</time></trkpt><trkpt lat="45.75239555934605" lon="9.222530944821361"><ele>336.25</ele><time>2026-04-12T09:34:59.001Z</time></trkpt><trkpt lat="45.752512392160085" lon="9.222608441737687"><ele>336.5</ele><time>2026-04-12T09:35:00.001Z</time></trkpt><trkpt lat="45.75262514405684" lon="9.222679132012955"><ele>336.75</ele><time>2026-04-12T09:35:01.001Z</time></trkpt><trkpt lat="45.75273246723118" lon="9.22275344935568"><ele>337.0</ele><time>2026-04-12T09:35:02.001Z</time></trkpt><trkpt lat="45.75283353021611" lon="9.22282142762803"><ele>337.0</ele><time>2026-04-12T09:35:03.001Z</time></trkpt><trkpt lat="45.75293221140301" lon="9.222887170425205"><ele>337.0</ele><time>2026-04-12T09:35:04.001Z</time></trkpt><trkpt lat="45.75302461282195" lon="9.222947016621372"><ele>337.0</ele><time>2026-04-12T09:35:05.001Z</time></trkpt><trkpt lat="45.75310456928873" lon="9.223004499751655"><ele>337.0</ele><time>2026-04-12T09:35:06.001Z</time></trkpt><trkpt lat="45.75317635250853" lon="9.223066068422003"><ele>337.0</ele><time>2026-04-12T09:35:07.001Z</time></trkpt><trkpt lat="45.75324173376218" lon="9.223130304432727"><ele>336.8</ele><time>2026-04-12T09:35:08.001Z</time></trkpt><trkpt lat="45.7533405719636" lon="9.223245730499045"><ele>336.6</ele><time>2026-04-12T09:35:10.001Z</time></trkpt><trkpt lat="45.75342592628553" lon="9.22335722056007"><ele>336.40000000000003</ele><time>2026-04-12T09:35:12.001Z</time></trkpt><trkpt lat="45.75348593151766" lon="9.223408172158008"><ele>336.20000000000005</ele><time>2026-04-12T09:35:13.001Z</time></trkpt><trkpt lat="45.7535605317169" lon="9.223435849424916"><ele>336.0</ele><time>2026-04-12T09:35:14.001Z</time></trkpt><trkpt lat="45.753647762326366" lon="9.22343652389405"><ele>336.0</ele><time>2026-04-12T09:35:15.001Z</time></trkpt><trkpt lat="45.75374275390434" lon="9.223438193927317"><ele>336.0</ele><time>2026-04-12T09:35:16.001Z</time></trkpt><trkpt lat="45.753844561228114" lon="9.22346379495141"><ele>336.0</ele><time>2026-04-12T09:35:17.001Z</time></trkpt><trkpt lat="45.75395064675249" lon="9.223516768360213"><ele>336.0</ele><time>2026-04-12T09:35:18.001Z</time></trkpt><trkpt lat="45.7540578978815" lon="9.223590452504961"><ele>336.0</ele><time>2026-04-12T09:35:19.001Z</time></trkpt><trkpt lat="45.754168968665745" lon="9.22366493957549"><ele>336.0</ele><time>2026-04-12T09:35:20.001Z</time></trkpt><trkpt lat="45.75428293304687" lon="9.223740177623203"><ele>336.0</ele><time>2026-04-12T09:35:21.001Z</time></trkpt><trkpt lat="45.754402506077824" lon="9.223817337809958"><ele>336.0</ele><time>2026-04-12T09:35:22.001Z</time></trkpt><trkpt lat="45.75453028407246" lon="9.22389551348326"><ele>336.0</ele><time>2026-04-12T09:35:23.001Z</time></trkpt><trkpt lat="45.75466239306286" lon="9.223974606250524"><ele>336.3333333333333</ele><time>2026-04-12T09:35:24.001Z</time></trkpt><trkpt lat="45.75479866186078" lon="9.224059335008842"><ele>336.66666666666663</ele><time>2026-04-12T09:35:25.001Z</time></trkpt><trkpt lat="45.754940562339584" lon="9.22414885498047"><ele>337.0</ele><time>2026-04-12T09:35:26.001Z</time></trkpt><trkpt lat="45.75508284611134" lon="9.224239563470801"><ele>335.66666666666663</ele><time>2026-04-12T09:35:27.001Z</time></trkpt><trkpt lat="45.75523245142986" lon="9.224331542208942"><ele>334.3333333333333</ele><time>2026-04-12T09:35:28.001Z</time></trkpt><trkpt lat="45.755379273436134" lon="9.224424688387256"><ele>333.0</ele><time>2026-04-12T09:35:29.001Z</time></trkpt><trkpt lat="45.75552085260866" lon="9.224513718738958"><ele>333.0</ele><time>2026-04-12T09:35:30Z</time></trkpt><trkpt lat="45.755655709227874" lon="9.224599644011635"><ele>333.0</ele><time>2026-04-12T09:35:31Z</time></trkpt><trkpt lat="45.755784021273364" lon="9.2246859100499"><ele>333.0</ele><time>2026-04-12T09:35:32Z</time></trkpt><trkpt lat="45.75591309327509" lon="9.224766183606013"><ele>333.0</ele><time>2026-04-12T09:35:33Z</time></trkpt><trkpt lat="45.75602941139504" lon="9.224838062682698"><ele>332.4</ele><time>2026-04-12T09:35:34Z</time></trkpt><trkpt lat="45.756134026939" lon="9.22490394788708"><ele>331.79999999999995</ele><time>2026-04-12T09:35:35Z</time></trkpt><trkpt lat="45.7562301335893" lon="9.22496471955231"><ele>331.2</ele><time>2026-04-12T09:35:36Z</time></trkpt><trkpt lat="45.75631863563864" lon="9.225020325345913"><ele>330.6</ele><time>2026-04-12T09:35:37Z</time></trkpt><trkpt lat="45.756397691469544" lon="9.225070115719312"><ele>330.0</ele><time>2026-04-12T09:35:38Z</time></trkpt><trkpt lat="45.75647325422454" lon="9.225116927052712"><ele>330.0</ele><time>2026-04-12T09:35:39Z</time></trkpt><trkpt lat="45.75653872959602" lon="9.225161830341973"><ele>330.0</ele><time>2026-04-12T09:35:40Z</time></trkpt><trkpt lat="45.75660019881466" lon="9.225206593277429"><ele>330.0</ele><time>2026-04-12T09:35:41Z</time></trkpt><trkpt lat="45.75665616179957" lon="9.225258430672143"><ele>330.0</ele><time>2026-04-12T09:35:42Z</time></trkpt><trkpt lat="45.75670548945572" lon="9.225317574436932"><ele>330.0</ele><time>2026-04-12T09:35:43Z</time></trkpt><trkpt lat="45.75676729394595" lon="9.225371986919644"><ele>330.0</ele><time>2026-04-12T09:35:44Z</time></trkpt><trkpt lat="45.756937988679326" lon="9.225416214625248"><ele>329.5</ele><time>2026-04-12T09:35:46Z</time></trkpt><trkpt lat="45.757026899894356" lon="9.225423618587971"><ele>329.0</ele><time>2026-04-12T09:35:47Z</time></trkpt><trkpt lat="45.75711040858571" lon="9.225443138073402"><ele>328.5</ele><time>2026-04-12T09:35:48Z</time></trkpt><trkpt lat="45.75719127431834" lon="9.22546288443069"><ele>328.0</ele><time>2026-04-12T09:35:49Z</time></trkpt><trkpt lat="45.75726907163351" lon="9.225485288846214"><ele>327.5</ele><time>2026-04-12T09:35:50Z</time></trkpt><trkpt lat="45.75734534951988" lon="9.225511420974042"><ele>327.0</ele><time>2026-04-12T09:35:51Z</time></trkpt><trkpt lat="45.7574171038258" lon="9.22554085919428"><ele>327.0</ele><time>2026-04-12T09:35:52Z</time></trkpt><trkpt lat="45.75748786356472" lon="9.225581753455414"><ele>327.0</ele><time>2026-04-12T09:35:53Z</time></trkpt><trkpt lat="45.75755229176095" lon="9.225653527816396"><ele>327.0</ele><time>2026-04-12T09:35:54Z</time></trkpt><trkpt lat="45.757608896810524" lon="9.225731404291533"><ele>327.0</ele><time>2026-04-12T09:35:55Z</time></trkpt><trkpt lat="45.757678638442364" lon="9.225789013538437"><ele>327.0</ele><time>2026-04-12T09:35:56Z</time></trkpt><trkpt lat="45.757765607375276" lon="9.225788033155109"><ele>327.0</ele><time>2026-04-12T09:35:57Z</time></trkpt><trkpt lat="45.757855281369295" lon="9.225753868393465"><ele>326.20000000000005</ele><time>2026-04-12T09:35:58Z</time></trkpt><trkpt lat="45.75793239795865" lon="9.225677604536509"><ele>325.4</ele><time>2026-04-12T09:35:59Z</time></trkpt><trkpt lat="45.75804154120448" lon="9.22566986290532"><ele>324.6</ele><time>2026-04-12T09:36:00Z</time></trkpt><trkpt lat="45.75814700882106" lon="9.225689253026252"><ele>323.79999999999995</ele><time>2026-04-12T09:36:01Z</time></trkpt><trkpt lat="45.75825584651755" lon="9.225733980059868"><ele>323.0</ele><time>2026-04-12T09:36:02Z</time></trkpt><trkpt lat="45.75836710120409" lon="9.225771772626668"><ele>323.0</ele><time>2026-04-12T09:36:03Z</time></trkpt><trkpt lat="45.75848479207557" lon="9.225809646766782"><ele>323.0</ele><time>2026-04-12T09:36:04Z</time></trkpt><trkpt lat="45.75860624667093" lon="9.225847300823695"><ele>323.0</ele><time>2026-04-12T09:36:05Z</time></trkpt><trkpt lat="45.75873181940373" lon="9.22588473566819"><ele>323.0</ele><time>2026-04-12T09:36:06Z</time></trkpt><trkpt lat="45.75886259933842" lon="9.225924252872836"><ele>323.0</ele><time>2026-04-12T09:36:07Z</time></trkpt><trkpt lat="45.75900141580872" lon="9.225963562284925"><ele>323.0</ele><time>2026-04-12T09:36:08Z</time></trkpt><trkpt lat="45.759139191108204" lon="9.226001571454411"><ele>323.0</ele><time>2026-04-12T09:36:09Z</time></trkpt><trkpt lat="45.759281844424436" lon="9.226043034572807"><ele>323.0</ele><time>2026-04-12T09:36:10Z</time></trkpt><trkpt lat="45.759425745862956" lon="9.226088865806515"><ele>324.6666666666667</ele><time>2026-04-12T09:36:11Z</time></trkpt><trkpt lat="45.75957278059349" lon="9.226136437023275"><ele>326.3333333333333</ele><time>2026-04-12T09:36:12Z</time></trkpt><trkpt lat="45.75972358810633" lon="9.226177236650043"><ele>328.0</ele><time>2026-04-12T09:36:13Z</time></trkpt><trkpt lat="45.75987458551499" lon="9.226219525852741"><ele>328.0</ele><time>2026-04-12T09:36:14Z</time></trkpt><trkpt lat="45.760029603920536" lon="9.226265908304821"><ele>328.0</ele><time>2026-04-12T09:36:15Z</time></trkpt><trkpt lat="45.760187698805794" lon="9.226315553455375"><ele>328.0</ele><time>2026-04-12T09:36:16Z</time></trkpt><trkpt lat="45.76035054415617" lon="9.226367231088302"><ele>326.0</ele><time>2026-04-12T09:36:17Z</time></trkpt><trkpt lat="45.760508519704636" lon="9.22642361022151"><ele>324.0</ele><time>2026-04-12T09:36:18Z</time></trkpt><trkpt lat="45.76065930763194" lon="9.22649532342367"><ele>322.0</ele><time>2026-04-12T09:36:19Z</time></trkpt><trkpt lat="45.760809894597315" lon="9.226591140356286"><ele>322.0</ele><time>2026-04-12T09:36:20Z</time></trkpt><trkpt lat="45.76095838666336" lon="9.22670820324473"><ele>322.0</ele><time>2026-04-12T09:36:21Z</time></trkpt><trkpt lat="45.761107159643764" lon="9.226840314811257"><ele>322.0</ele><time>2026-04-12T09:36:22Z</time></trkpt><trkpt lat="45.76125349569766" lon="9.226978343228275"><ele>320.3333333333333</ele><time>2026-04-12T09:36:23Z</time></trkpt><trkpt lat="45.76140830095914" lon="9.227124951758993"><ele>318.6666666666667</ele><time>2026-04-12T09:36:24Z</time></trkpt><trkpt lat="45.76156367513716" lon="9.227268395139752"><ele>317.0</ele><time>2026-04-12T09:36:25Z</time></trkpt><trkpt lat="45.76172083718538" lon="9.227414403346197"><ele>312.6666666666667</ele><time>2026-04-12T09:36:26Z</time></trkpt><trkpt lat="45.76187610250599" lon="9.22755605242092"><ele>308.3333333333333</ele><time>2026-04-12T09:36:27Z</time></trkpt><trkpt lat="45.762023029037074" lon="9.227693836495769"><ele>304.0</ele><time>2026-04-12T09:36:28Z</time></trkpt><trkpt lat="45.7621640181609" lon="9.227829702935589"><ele>304.0</ele><time>2026-04-12T09:36:29Z</time></trkpt><trkpt lat="45.76229797325236" lon="9.227957420400966"><ele>304.0</ele><time>2026-04-12T09:36:30Z</time></trkpt><trkpt lat="45.76243037941978" lon="9.22807945847792"><ele>304.0</ele><time>2026-04-12T09:36:31Z</time></trkpt><trkpt lat="45.76256634287925" lon="9.22818952133434"><ele>304.0</ele><time>2026-04-12T09:36:32Z</time></trkpt><trkpt lat="45.762706670576584" lon="9.228282280181151"><ele>304.0</ele><time>2026-04-12T09:36:33Z</time></trkpt><trkpt lat="45.762849528439794" lon="9.228356755198083"><ele>304.0</ele><time>2026-04-12T09:36:34Z</time></trkpt><trkpt lat="45.762993779959636" lon="9.228416953810251"><ele>304.0</ele><time>2026-04-12T09:36:35Z</time></trkpt><trkpt lat="45.763133170104126" lon="9.228463195171258"><ele>304.0</ele><time>2026-04-12T09:36:36Z</time></trkpt><trkpt lat="45.763272488468" lon="9.22849521594428"><ele>304.0</ele><time>2026-04-12T09:36:37Z</time></trkpt><trkpt lat="45.76340779720144" lon="9.228524873389548"><ele>304.0</ele><time>2026-04-12T09:36:38Z</time></trkpt><trkpt lat="45.763536333748426" lon="9.228546771141131"><ele>304.0</ele><time>2026-04-12T09:36:39.001Z</time></trkpt><trkpt lat="45.76366472407775" lon="9.228568819275317"><ele>304.0</ele><time>2026-04-12T09:36:40.001Z</time></trkpt><trkpt lat="45.763789004009176" lon="9.228592641682832"><ele>304.0</ele><time>2026-04-12T09:36:41.001Z</time></trkpt><trkpt lat="45.76391608366265" lon="9.228620305713896"><ele>304.0</ele><time>2026-04-12T09:36:42.001Z</time></trkpt><trkpt lat="45.764042859350845" lon="9.228648355812972"><ele>304.0</ele><time>2026-04-12T09:36:43.001Z</time></trkpt><trkpt lat="45.764173849011904" lon="9.228678577309445"><ele>304.0</ele><time>2026-04-12T09:36:44.001Z</time></trkpt><trkpt lat="45.764303883142574" lon="9.22870725478648"><ele>304.0</ele><time>2026-04-12T09:36:45.001Z</time></trkpt><trkpt lat="45.764433947054975" lon="9.22873121400056"><ele>304.0</ele><time>2026-04-12T09:36:46.001Z</time></trkpt><trkpt lat="45.764565650998776" lon="9.228753038461544"><ele>303.75</ele><time>2026-04-12T09:36:47.001Z</time></trkpt><trkpt lat="45.76469862670014" lon="9.2287771773785"><ele>303.5</ele><time>2026-04-12T09:36:48.001Z</time></trkpt><trkpt lat="45.764826541947976" lon="9.22880213815475"><ele>303.25</ele><time>2026-04-12T09:36:49.001Z</time></trkpt><trkpt lat="45.764952726385864" lon="9.228827016202583"><ele>303.0</ele><time>2026-04-12T09:36:50.001Z</time></trkpt><trkpt lat="45.76507186777324" lon="9.22885133230187"><ele>303.0</ele><time>2026-04-12T09:36:51.001Z</time></trkpt><trkpt lat="45.7651864016236" lon="9.228877410997049"><ele>303.0</ele><time>2026-04-12T09:36:52.001Z</time></trkpt><trkpt lat="45.76530155325864" lon="9.228902219620434"><ele>303.0</ele><time>2026-04-12T09:36:53.001Z</time></trkpt><trkpt lat="45.765398626113544" lon="9.22892610957904"><ele>303.0</ele><time>2026-04-12T09:36:54.001Z</time></trkpt><trkpt lat="45.76548274231869" lon="9.228956180969512"><ele>303.0</ele><time>2026-04-12T09:36:55.001Z</time></trkpt><trkpt lat="45.76555086577249" lon="9.229006230136859"><ele>303.0</ele><time>2026-04-12T09:36:56.001Z</time></trkpt><trkpt lat="45.765608295039485" lon="9.22907825474419"><ele>303.0</ele><time>2026-04-12T09:36:57.001Z</time></trkpt><trkpt lat="45.765668136175414" lon="9.229129812284873"><ele>303.0</ele><time>2026-04-12T09:36:58.001Z</time></trkpt><trkpt lat="45.76574750764123" lon="9.229135301354606"><ele>303.0</ele><time>2026-04-12T09:36:59.001Z</time></trkpt><trkpt lat="45.765834889008424" lon="9.229098162047373"><ele>303.0</ele><time>2026-04-12T09:37:00.001Z</time></trkpt><trkpt lat="45.76593133112211" lon="9.22905259478663"><ele>303.0</ele><time>2026-04-12T09:37:01.001Z</time></trkpt><trkpt lat="45.76603522158234" lon="9.229043697963586"><ele>302.75</ele><time>2026-04-12T09:37:02.001Z</time></trkpt><trkpt lat="45.766147387821434" lon="9.22906951188929"><ele>302.5</ele><time>2026-04-12T09:37:03.001Z</time></trkpt><trkpt lat="45.76626291848632" lon="9.229100755890602"><ele>302.25</ele><time>2026-04-12T09:37:04.001Z</time></trkpt><trkpt lat="45.766388287552154" lon="9.22912896111692"><ele>302.0</ele><time>2026-04-12T09:37:05.001Z</time></trkpt><trkpt lat="45.766520141814006" lon="9.229159927067268"><ele>302.0</ele><time>2026-04-12T09:37:06.001Z</time></trkpt><trkpt lat="45.76666378726648" lon="9.22918742781496"><ele>302.0</ele><time>2026-04-12T09:37:07.001Z</time></trkpt><trkpt lat="45.76681802272318" lon="9.229214706639302"><ele>302.0</ele><time>2026-04-12T09:37:08.001Z</time></trkpt><trkpt lat="45.76697977285179" lon="9.229247397759732"><ele>301.6666666666667</ele><time>2026-04-12T09:37:09.001Z</time></trkpt><trkpt lat="45.76714852910231" lon="9.229283790741897"><ele>301.3333333333333</ele><time>2026-04-12T09:37:10.001Z</time></trkpt><trkpt lat="45.76731665492955" lon="9.229317305888143"><ele>301.0</ele><time>2026-04-12T09:37:11.001Z</time></trkpt><trkpt lat="45.76748930728921" lon="9.229348345199602"><ele>301.0</ele><time>2026-04-12T09:37:12.001Z</time></trkpt><trkpt lat="45.7676577528621" lon="9.229378896715618"><ele>301.0</ele><time>2026-04-12T09:37:13.001Z</time></trkpt><trkpt lat="45.767817866017324" lon="9.229411575658938"><ele>301.0</ele><time>2026-04-12T09:37:14.001Z</time></trkpt><trkpt lat="45.76796810352845" lon="9.229447140685867"><ele>301.25</ele><time>2026-04-12T09:37:15.001Z</time></trkpt><trkpt lat="45.768118951416646" lon="9.229479092431824"><ele>301.5</ele><time>2026-04-12T09:37:16.001Z</time></trkpt><trkpt lat="45.7682634900463" lon="9.229508620642772"><ele>301.75</ele><time>2026-04-12T09:37:17.001Z</time></trkpt><trkpt lat="45.76840333839054" lon="9.229535761423602"><ele>302.0</ele><time>2026-04-12T09:37:18.001Z</time></trkpt><trkpt lat="45.76853220986121" lon="9.229564848406678"><ele>302.0</ele><time>2026-04-12T09:37:19.001Z</time></trkpt><trkpt lat="45.76864467807788" lon="9.229588030532241"><ele>302.0</ele><time>2026-04-12T09:37:20.001Z</time></trkpt><trkpt lat="45.76875347605359" lon="9.229608334143727"><ele>302.0</ele><time>2026-04-12T09:37:21.001Z</time></trkpt><trkpt lat="45.768848788694044" lon="9.229627469497581"><ele>302.0</ele><time>2026-04-12T09:37:22.001Z</time></trkpt><trkpt lat="45.76895011500609" lon="9.229647781043736"><ele>302.0</ele><time>2026-04-12T09:37:23.001Z</time></trkpt><trkpt lat="45.76904584393595" lon="9.22967113856384"><ele>302.0</ele><time>2026-04-12T09:37:24.001Z</time></trkpt><trkpt lat="45.769145521515206" lon="9.229690013241234"><ele>302.0</ele><time>2026-04-12T09:37:25.001Z</time></trkpt><trkpt lat="45.76924705056257" lon="9.2297107889205"><ele>302.0</ele><time>2026-04-12T09:37:26.001Z</time></trkpt><trkpt lat="45.769351316845" lon="9.22973280902448"><ele>302.0</ele><time>2026-04-12T09:37:27.001Z</time></trkpt><trkpt lat="45.76946334149438" lon="9.229754805600619"><ele>302.0</ele><time>2026-04-12T09:37:28.001Z</time></trkpt><trkpt lat="45.769581421236005" lon="9.229780083081414"><ele>302.5</ele><time>2026-04-12T09:37:29.001Z</time></trkpt><trkpt lat="45.76970626264931" lon="9.229808380448125"><ele>303.0</ele><time>2026-04-12T09:37:30.001Z</time></trkpt><trkpt lat="45.76983488066566" lon="9.229837545908108"><ele>303.5</ele><time>2026-04-12T09:37:31.001Z</time></trkpt><trkpt lat="45.769972788496084" lon="9.229866264735401"><ele>304.0</ele><time>2026-04-12T09:37:32.001Z</time></trkpt><trkpt lat="45.7701156053181" lon="9.229900373373189"><ele>304.66666666666663</ele><time>2026-04-12T09:37:33.001Z</time></trkpt><trkpt lat="45.77025907749911" lon="9.229932799514538"><ele>305.3333333333333</ele><time>2026-04-12T09:37:34.001Z</time></trkpt><trkpt lat="45.77040722830463" lon="9.229967151175178"><ele>306.0</ele><time>2026-04-12T09:37:35.001Z</time></trkpt><trkpt lat="45.77056546323305" lon="9.229997513082923"><ele>306.0</ele><time>2026-04-12T09:37:36Z</time></trkpt><trkpt lat="45.770727610588324" lon="9.230028499606206"><ele>306.0</ele><time>2026-04-12T09:37:37Z</time></trkpt><trkpt lat="45.77089761277591" lon="9.2300622217968"><ele>306.0</ele><time>2026-04-12T09:37:38Z</time></trkpt><trkpt lat="45.77106509833011" lon="9.230097651060513"><ele>307.6666666666667</ele><time>2026-04-12T09:37:39Z</time></trkpt><trkpt lat="45.771238987262095" lon="9.230131050256665"><ele>309.33333333333337</ele><time>2026-04-12T09:37:40Z</time></trkpt><trkpt lat="45.77141580121005" lon="9.230153934788614"><ele>311.0</ele><time>2026-04-12T09:37:41Z</time></trkpt><trkpt lat="45.77159916007138" lon="9.230168224294506"><ele>311.0</ele><time>2026-04-12T09:37:42Z</time></trkpt><trkpt lat="45.77178520516385" lon="9.23017676240292"><ele>311.0</ele><time>2026-04-12T09:37:43Z</time></trkpt><trkpt lat="45.771968612586655" lon="9.23018181664327"><ele>311.0</ele><time>2026-04-12T09:37:44Z</time></trkpt><trkpt lat="45.772143295196415" lon="9.230183398538827"><ele>310.75</ele><time>2026-04-12T09:37:45Z</time></trkpt><trkpt lat="45.77231133513301" lon="9.230188059273612"><ele>310.5</ele><time>2026-04-12T09:37:46Z</time></trkpt><trkpt lat="45.77245623312264" lon="9.230191005651925"><ele>310.25</ele><time>2026-04-12T09:37:47Z</time></trkpt><trkpt lat="45.77258303543264" lon="9.230192331637637"><ele>310.0</ele><time>2026-04-12T09:37:48Z</time></trkpt><trkpt lat="45.77269811216932" lon="9.230189737602975"><ele>309.5</ele><time>2026-04-12T09:37:49Z</time></trkpt><trkpt lat="45.77281680319306" lon="9.230182572711302"><ele>309.0</ele><time>2026-04-12T09:37:50Z</time></trkpt><trkpt lat="45.772934713923306" lon="9.230174809178445"><ele>308.5</ele><time>2026-04-12T09:37:51Z</time></trkpt><trkpt lat="45.77305384727183" lon="9.2301665179304"><ele>308.0</ele><time>2026-04-12T09:37:52Z</time></trkpt><trkpt lat="45.77317497471485" lon="9.230159014770836"><ele>308.0</ele><time>2026-04-12T09:37:53Z</time></trkpt><trkpt lat="45.773301900241805" lon="9.230157090190978"><ele>308.0</ele><time>2026-04-12T09:37:54Z</time></trkpt><trkpt lat="45.77343018725981" lon="9.230159874318444"><ele>308.0</ele><time>2026-04-12T09:37:55Z</time></trkpt><trkpt lat="45.77356225168604" lon="9.230163459536227"><ele>308.0</ele><time>2026-04-12T09:37:56Z</time></trkpt><trkpt lat="45.773698816808555" lon="9.230167731515387"><ele>308.0</ele><time>2026-04-12T09:37:57Z</time></trkpt><trkpt lat="45.77383886951162" lon="9.230171396195376"><ele>308.0</ele><time>2026-04-12T09:37:58Z</time></trkpt><trkpt lat="45.773982315182785" lon="9.230173394502787"><ele>308.0</ele><time>2026-04-12T09:37:59Z</time></trkpt><trkpt lat="45.77413012982264" lon="9.230174144894411"><ele>308.0</ele><time>2026-04-12T09:38:00Z</time></trkpt><trkpt lat="45.77428477190982" lon="9.230178201957782"><ele>308.0</ele><time>2026-04-12T09:38:01Z</time></trkpt><trkpt lat="45.774440517209605" lon="9.2301824048482"><ele>308.0</ele><time>2026-04-12T09:38:02Z</time></trkpt><trkpt lat="45.77460238819068" lon="9.230184402168142"><ele>308.0</ele><time>2026-04-12T09:38:03Z</time></trkpt><trkpt lat="45.77476570973874" lon="9.230185956700257"><ele>308.0</ele><time>2026-04-12T09:38:04Z</time></trkpt><trkpt lat="45.77493103013248" lon="9.230189969926846"><ele>308.0</ele><time>2026-04-12T09:38:05Z</time></trkpt><trkpt lat="45.775105924138416" lon="9.230195197412058"><ele>308.0</ele><time>2026-04-12T09:38:06Z</time></trkpt><trkpt lat="45.775281063925036" lon="9.230202789326766"><ele>307.6666666666667</ele><time>2026-04-12T09:38:07Z</time></trkpt><trkpt lat="45.775446965583114" lon="9.230204954759571"><ele>307.3333333333333</ele><time>2026-04-12T09:38:08Z</time></trkpt><trkpt lat="45.775608357066915" lon="9.230212985280872"><ele>307.0</ele><time>2026-04-12T09:38:09Z</time></trkpt><trkpt lat="45.77576452673633" lon="9.23022201523881"><ele>307.0</ele><time>2026-04-12T09:38:10Z</time></trkpt><trkpt lat="45.77591645445049" lon="9.23023863544491"><ele>307.0</ele><time>2026-04-12T09:38:11Z</time></trkpt><trkpt lat="45.7760671282473" lon="9.230272634445024"><ele>307.0</ele><time>2026-04-12T09:38:12Z</time></trkpt><trkpt lat="45.776217704078434" lon="9.230322033044262"><ele>309.66666666666663</ele><time>2026-04-12T09:38:13Z</time></trkpt><trkpt lat="45.77636734930349" lon="9.230391498507029"><ele>312.3333333333333</ele><time>2026-04-12T09:38:14Z</time></trkpt><trkpt lat="45.77651316761371" lon="9.230472347620855"><ele>315.0</ele><time>2026-04-12T09:38:15Z</time></trkpt><trkpt lat="45.77665524266441" lon="9.230571497412615"><ele>313.0</ele><time>2026-04-12T09:38:16Z</time></trkpt><trkpt lat="45.77679475088406" lon="9.230679302092387"><ele>311.0</ele><time>2026-04-12T09:38:17Z</time></trkpt><trkpt lat="45.77692934505092" lon="9.230797056050054"><ele>309.0</ele><time>2026-04-12T09:38:18Z</time></trkpt><trkpt lat="45.777061465090014" lon="9.230931555244213"><ele>309.0</ele><time>2026-04-12T09:38:19Z</time></trkpt><trkpt lat="45.777188790142844" lon="9.231089753010817"><ele>309.0</ele><time>2026-04-12T09:38:20Z</time></trkpt><trkpt lat="45.77730840466246" lon="9.231259578626918"><ele>309.0</ele><time>2026-04-12T09:38:21Z</time></trkpt><trkpt lat="45.7774207877927" lon="9.231432634282054"><ele>308.0</ele><time>2026-04-12T09:38:22Z</time></trkpt><trkpt lat="45.777520770993654" lon="9.23161349440413"><ele>307.0</ele><time>2026-04-12T09:38:23Z</time></trkpt><trkpt lat="45.77761030291481" lon="9.231794292720178"><ele>306.0</ele><time>2026-04-12T09:38:24Z</time></trkpt><trkpt lat="45.77769130402454" lon="9.231974684558867"><ele>306.0</ele><time>2026-04-12T09:38:25Z</time></trkpt><trkpt lat="45.777767252156806" lon="9.232156452885725"><ele>306.0</ele><time>2026-04-12T09:38:26Z</time></trkpt><trkpt lat="45.77783772132491" lon="9.232331196210628"><ele>306.0</ele><time>2026-04-12T09:38:27Z</time></trkpt><trkpt lat="45.77790342079417" lon="9.232504532684672"><ele>306.0</ele><time>2026-04-12T09:38:28Z</time></trkpt><trkpt lat="45.77796394036692" lon="9.232680234570108"><ele>305.0</ele><time>2026-04-12T09:38:29Z</time></trkpt><trkpt lat="45.77801825796019" lon="9.232860739540156"><ele>304.0</ele><time>2026-04-12T09:38:30Z</time></trkpt><trkpt lat="45.77807185809941" lon="9.233045636856561"><ele>303.0</ele><time>2026-04-12T09:38:31Z</time></trkpt><trkpt lat="45.7781323102224" lon="9.233228998560545"><ele>302.0</ele><time>2026-04-12T09:38:32Z</time></trkpt><trkpt lat="45.77820675301059" lon="9.233408950204344"><ele>301.33333333333337</ele><time>2026-04-12T09:38:33Z</time></trkpt><trkpt lat="45.778293970537725" lon="9.233582433178269"><ele>300.6666666666667</ele><time>2026-04-12T09:38:34Z</time></trkpt><trkpt lat="45.778384570685894" lon="9.23375802024837"><ele>300.0</ele><time>2026-04-12T09:38:35Z</time></trkpt><trkpt lat="45.77848011872488" lon="9.233943193257199"><ele>301.6666666666667</ele><time>2026-04-12T09:38:36Z</time></trkpt><trkpt lat="45.77857496162548" lon="9.234130743836106"><ele>303.33333333333337</ele><time>2026-04-12T09:38:37Z</time></trkpt><trkpt lat="45.77867125037202" lon="9.234328626522396"><ele>305.0</ele><time>2026-04-12T09:38:38Z</time></trkpt><trkpt lat="45.77876806404066" lon="9.234526209783272"><ele>305.0</ele><time>2026-04-12T09:38:39Z</time></trkpt><trkpt lat="45.7788663008276" lon="9.234739012494488"><ele>305.0</ele><time>2026-04-12T09:38:40Z</time></trkpt><trkpt lat="45.77896013833599" lon="9.23495910060177"><ele>305.0</ele><time>2026-04-12T09:38:41Z</time></trkpt><trkpt lat="45.77905042102678" lon="9.235178584548514"><ele>302.33333333333337</ele><time>2026-04-12T09:38:42Z</time></trkpt><trkpt lat="45.77914206873188" lon="9.235393763694809"><ele>299.6666666666667</ele><time>2026-04-12T09:38:43Z</time></trkpt><trkpt lat="45.77923778154855" lon="9.23559908489976"><ele>297.0</ele><time>2026-04-12T09:38:44Z</time></trkpt><trkpt lat="45.77933882809616" lon="9.235795392796701"><ele>292.6666666666667</ele><time>2026-04-12T09:38:45Z</time></trkpt><trkpt lat="45.779444209471706" lon="9.235985663861506"><ele>288.33333333333337</ele><time>2026-04-12T09:38:46Z</time></trkpt><trkpt lat="45.77955445591044" lon="9.236165383593345"><ele>284.0</ele><time>2026-04-12T09:38:47Z</time></trkpt><trkpt lat="45.77967294908987" lon="9.236326992271142"><ele>283.6666666666667</ele><time>2026-04-12T09:38:48Z</time></trkpt><trkpt lat="45.77980697495856" lon="9.236486430928574"><ele>283.3333333333333</ele><time>2026-04-12T09:38:49Z</time></trkpt><trkpt lat="45.77994342883278" lon="9.23663194429449"><ele>283.0</ele><time>2026-04-12T09:38:50Z</time></trkpt><trkpt lat="45.78009295694239" lon="9.236780495745851"><ele>283.0</ele><time>2026-04-12T09:38:51Z</time></trkpt><trkpt lat="45.78024558899639" lon="9.23691880054101"><ele>283.0</ele><time>2026-04-12T09:38:52Z</time></trkpt><trkpt lat="45.78041335383544" lon="9.237047856580963"><ele>283.0</ele><time>2026-04-12T09:38:53Z</time></trkpt><trkpt lat="45.780584941685376" lon="9.23715673564828"><ele>283.0</ele><time>2026-04-12T09:38:54Z</time></trkpt><trkpt lat="45.78076443148165" lon="9.237255278196827"><ele>283.0</ele><time>2026-04-12T09:38:55Z</time></trkpt><trkpt lat="45.78094775784966" lon="9.23735258697802"><ele>283.0</ele><time>2026-04-12T09:38:56Z</time></trkpt><trkpt lat="45.78113256379084" lon="9.23744976705233"><ele>282.3333333333333</ele><time>2026-04-12T09:38:57Z</time></trkpt><trkpt lat="45.78131643288511" lon="9.237548688666129"><ele>281.6666666666667</ele><time>2026-04-12T09:38:58Z</time></trkpt><trkpt lat="45.7815034420831" lon="9.237651964734205"><ele>281.0</ele><time>2026-04-12T09:38:59.001Z</time></trkpt><trkpt lat="45.78167874953411" lon="9.237754062788568"><ele>281.6666666666667</ele><time>2026-04-12T09:39:00.001Z</time></trkpt><trkpt lat="45.78185440701928" lon="9.237852786960243"><ele>282.3333333333333</ele><time>2026-04-12T09:39:01.001Z</time></trkpt><trkpt lat="45.78202341467289" lon="9.237940576062808"><ele>283.0</ele><time>2026-04-12T09:39:02.001Z</time></trkpt><trkpt lat="45.78218484661913" lon="9.238028854624881"><ele>283.0</ele><time>2026-04-12T09:39:03.001Z</time></trkpt><trkpt lat="45.78234648600395" lon="9.238119223199728"><ele>283.0</ele><time>2026-04-12T09:39:04.001Z</time></trkpt><trkpt lat="45.78250295272595" lon="9.238210294454925"><ele>283.0</ele><time>2026-04-12T09:39:05.001Z</time></trkpt><trkpt lat="45.78266122147374" lon="9.238300273222876"><ele>282.3333333333333</ele><time>2026-04-12T09:39:06.001Z</time></trkpt><trkpt lat="45.78281583830096" lon="9.238386003689843"><ele>281.6666666666667</ele><time>2026-04-12T09:39:07.001Z</time></trkpt><trkpt lat="45.78297160577768" lon="9.238472109225176"><ele>281.0</ele><time>2026-04-12T09:39:08.001Z</time></trkpt><trkpt lat="45.783130268952306" lon="9.238557974053915"><ele>281.0</ele><time>2026-04-12T09:39:09.001Z</time></trkpt><trkpt lat="45.78328757209932" lon="9.23864295834423"><ele>281.0</ele><time>2026-04-12T09:39:10.001Z</time></trkpt><trkpt lat="45.783442272329786" lon="9.238728862680071"><ele>281.0</ele><time>2026-04-12T09:39:11.001Z</time></trkpt><trkpt lat="45.783601483973996" lon="9.238820233245917"><ele>281.0</ele><time>2026-04-12T09:39:12.001Z</time></trkpt><trkpt lat="45.78375836960039" lon="9.238916885636016"><ele>281.0</ele><time>2026-04-12T09:39:13.001Z</time></trkpt><trkpt lat="45.783911735199545" lon="9.239018852062543"><ele>281.0</ele><time>2026-04-12T09:39:14.001Z</time></trkpt><trkpt lat="45.78405791858981" lon="9.239133460248896"><ele>281.0</ele><time>2026-04-12T09:39:15.001Z</time></trkpt><trkpt lat="45.784199523342984" lon="9.239256436143306"><ele>281.0</ele><time>2026-04-12T09:39:16.001Z</time></trkpt><trkpt lat="45.78433651348598" lon="9.239387389935784"><ele>281.0</ele><time>2026-04-12T09:39:17.001Z</time></trkpt><trkpt lat="45.784468922355344" lon="9.239528624747374"><ele>279.33333333333337</ele><time>2026-04-12T09:39:18.001Z</time></trkpt><trkpt lat="45.78459891898227" lon="9.23967490902828"><ele>277.6666666666667</ele><time>2026-04-12T09:39:19.001Z</time></trkpt><trkpt lat="45.78472388602121" lon="9.239823034969572"><ele>276.0</ele><time>2026-04-12T09:39:20.001Z</time></trkpt><trkpt lat="45.784842517551795" lon="9.239973323241705"><ele>275.6666666666667</ele><time>2026-04-12T09:39:21.001Z</time></trkpt><trkpt lat="45.78496347293046" lon="9.240130964787436"><ele>275.33333333333337</ele><time>2026-04-12T09:39:22.001Z</time></trkpt><trkpt lat="45.78508345909216" lon="9.240288926666656"><ele>275.0</ele><time>2026-04-12T09:39:23.001Z</time></trkpt><trkpt lat="45.785206621810424" lon="9.240448967833872"><ele>272.6666666666667</ele><time>2026-04-12T09:39:24.001Z</time></trkpt><trkpt lat="45.78532961255558" lon="9.240610256509212"><ele>270.3333333333333</ele><time>2026-04-12T09:39:25.001Z</time></trkpt><trkpt lat="45.78545709266022" lon="9.240778580600992"><ele>268.0</ele><time>2026-04-12T09:39:26.001Z</time></trkpt><trkpt lat="45.78558110060316" lon="9.240949425975126"><ele>267.66666666666663</ele><time>2026-04-12T09:39:27.001Z</time></trkpt><trkpt lat="45.785710489227036" lon="9.241124691561708"><ele>267.3333333333333</ele><time>2026-04-12T09:39:28.001Z</time></trkpt><trkpt lat="45.78584126657004" lon="9.241301613281577"><ele>267.0</ele><time>2026-04-12T09:39:29.001Z</time></trkpt><trkpt lat="45.78597898194088" lon="9.241479937120925"><ele>265.6666666666667</ele><time>2026-04-12T09:39:30.001Z</time></trkpt><trkpt lat="45.786114066757385" lon="9.241645445474946"><ele>264.33333333333337</ele><time>2026-04-12T09:39:31.001Z</time></trkpt><trkpt lat="45.78625263556419" lon="9.241794429002287"><ele>263.0</ele><time>2026-04-12T09:39:32.001Z</time></trkpt><trkpt lat="45.78640411035204" lon="9.241924703385003"><ele>263.0</ele><time>2026-04-12T09:39:33.001Z</time></trkpt><trkpt lat="45.78656356356172" lon="9.242038376220671"><ele>263.0</ele><time>2026-04-12T09:39:34.001Z</time></trkpt><trkpt lat="45.78671782392413" lon="9.242133825567334"><ele>263.0</ele><time>2026-04-12T09:39:35.001Z</time></trkpt><trkpt lat="45.786880650055075" lon="9.242223560555045"><ele>262.6666666666667</ele><time>2026-04-12T09:39:36.001Z</time></trkpt><trkpt lat="45.787039613061985" lon="9.242291268677581"><ele>262.3333333333333</ele><time>2026-04-12T09:39:37.001Z</time></trkpt><trkpt lat="45.78720348535727" lon="9.242350996830647"><ele>262.0</ele><time>2026-04-12T09:39:38.001Z</time></trkpt><trkpt lat="45.78736911505258" lon="9.242408525828068"><ele>262.0</ele><time>2026-04-12T09:39:39.001Z</time></trkpt><trkpt lat="45.787530412854075" lon="9.242467015724346"><ele>262.0</ele><time>2026-04-12T09:39:40.001Z</time></trkpt><trkpt lat="45.787687560560585" lon="9.24252766953035"><ele>262.0</ele><time>2026-04-12T09:39:41.001Z</time></trkpt><trkpt lat="45.78784304202712" lon="9.242585460178992"><ele>262.0</ele><time>2026-04-12T09:39:42.001Z</time></trkpt><trkpt lat="45.787998119427954" lon="9.24264451498356"><ele>262.0</ele><time>2026-04-12T09:39:43.001Z</time></trkpt><trkpt lat="45.78814998829065" lon="9.2427010385019"><ele>262.0</ele><time>2026-04-12T09:39:44.001Z</time></trkpt><trkpt lat="45.78831119180288" lon="9.242759501964407"><ele>262.0</ele><time>2026-04-12T09:39:45.001Z</time></trkpt><trkpt lat="45.7884685848798" lon="9.242811261569301"><ele>262.0</ele><time>2026-04-12T09:39:46Z</time></trkpt><trkpt lat="45.7886291907651" lon="9.242856818726013"><ele>262.0</ele><time>2026-04-12T09:39:47Z</time></trkpt><trkpt lat="45.78879365004932" lon="9.24290086581397"><ele>262.0</ele><time>2026-04-12T09:39:48Z</time></trkpt><trkpt lat="45.78896852491262" lon="9.242959480087812"><ele>262.0</ele><time>2026-04-12T09:39:49Z</time></trkpt><trkpt lat="45.78914071470809" lon="9.243023194474628"><ele>262.0</ele><time>2026-04-12T09:39:50Z</time></trkpt><trkpt lat="45.78932119584014" lon="9.243092351205869"><ele>261.3333333333333</ele><time>2026-04-12T09:39:51Z</time></trkpt><trkpt lat="45.78950904294392" lon="9.24316026083542"><ele>260.6666666666667</ele><time>2026-04-12T09:39:52Z</time></trkpt><trkpt lat="45.789698404526476" lon="9.243231615618905"><ele>260.0</ele><time>2026-04-12T09:39:53Z</time></trkpt><trkpt lat="45.78988455459021" lon="9.24330193765744"><ele>260.0</ele><time>2026-04-12T09:39:54Z</time></trkpt><trkpt lat="45.790071769684054" lon="9.243370065719207"><ele>260.0</ele><time>2026-04-12T09:39:55Z</time></trkpt><trkpt lat="45.79025650027616" lon="9.243438530526198"><ele>260.0</ele><time>2026-04-12T09:39:56Z</time></trkpt><trkpt lat="45.790442425492216" lon="9.243511681576203"><ele>259.33333333333337</ele><time>2026-04-12T09:39:57Z</time></trkpt><trkpt lat="45.790620866373956" lon="9.243589067815927"><ele>258.6666666666667</ele><time>2026-04-12T09:39:58Z</time></trkpt><trkpt lat="45.79079353508964" lon="9.243666411428812"><ele>258.0</ele><time>2026-04-12T09:39:59Z</time></trkpt><trkpt lat="45.7909639067118" lon="9.243736849712752"><ele>259.0</ele><time>2026-04-12T09:40:00Z</time></trkpt><trkpt lat="45.791129467362325" lon="9.243796111437426"><ele>260.0</ele><time>2026-04-12T09:40:01Z</time></trkpt><trkpt lat="45.79128617661667" lon="9.243833686377483"><ele>261.0</ele><time>2026-04-12T09:40:02Z</time></trkpt><trkpt lat="45.7914456413519" lon="9.2438476738403"><ele>261.0</ele><time>2026-04-12T09:40:03Z</time></trkpt><trkpt lat="45.79160038187423" lon="9.243843851740886"><ele>261.0</ele><time>2026-04-12T09:40:04Z</time></trkpt><trkpt lat="45.791757893075065" lon="9.243825242679724"><ele>261.0</ele><time>2026-04-12T09:40:05Z</time></trkpt><trkpt lat="45.79191356987876" lon="9.243787347657886"><ele>262.0</ele><time>2026-04-12T09:40:06Z</time></trkpt><trkpt lat="45.79206611036347" lon="9.243732355029715"><ele>263.0</ele><time>2026-04-12T09:40:07Z</time></trkpt><trkpt lat="45.792217347604165" lon="9.243658438703935"><ele>264.0</ele><time>2026-04-12T09:40:08Z</time></trkpt><trkpt lat="45.79236327006052" lon="9.243573633555874"><ele>264.0</ele><time>2026-04-12T09:40:09Z</time></trkpt><trkpt lat="45.79250367877799" lon="9.243477452580372"><ele>264.0</ele><time>2026-04-12T09:40:10Z</time></trkpt><trkpt lat="45.792646040771395" lon="9.243371629890099"><ele>264.0</ele><time>2026-04-12T09:40:11Z</time></trkpt><trkpt lat="45.79278746712742" lon="9.243267213134303"><ele>263.6666666666667</ele><time>2026-04-12T09:40:12Z</time></trkpt><trkpt lat="45.79292776135802" lon="9.243167337536285"><ele>263.33333333333337</ele><time>2026-04-12T09:40:13Z</time></trkpt><trkpt lat="45.793068592723984" lon="9.24307635298329"><ele>263.0</ele><time>2026-04-12T09:40:14Z</time></trkpt><trkpt lat="45.79321310508241" lon="9.242985279249183"><ele>263.0</ele><time>2026-04-12T09:40:15Z</time></trkpt><trkpt lat="45.79334669091566" lon="9.242899340579529"><ele>263.0</ele><time>2026-04-12T09:40:16Z</time></trkpt><trkpt lat="45.793473252857304" lon="9.242816740755153"><ele>263.0</ele><time>2026-04-12T09:40:17Z</time></trkpt><trkpt lat="45.793595780754586" lon="9.242736126370724"><ele>263.0</ele><time>2026-04-12T09:40:18Z</time></trkpt><trkpt lat="45.793711074483205" lon="9.24265639854547"><ele>262.75</ele><time>2026-04-12T09:40:19Z</time></trkpt><trkpt lat="45.79382495853093" lon="9.242580409256776"><ele>262.5</ele><time>2026-04-12T09:40:20Z</time></trkpt><trkpt lat="45.79393626115124" lon="9.242501382077984"><ele>262.25</ele><time>2026-04-12T09:40:21Z</time></trkpt><trkpt lat="45.794048908646786" lon="9.242421302490769"><ele>262.0</ele><time>2026-04-12T09:40:22Z</time></trkpt><trkpt lat="45.79416187947376" lon="9.242338348998416"><ele>262.25</ele><time>2026-04-12T09:40:23Z</time></trkpt><trkpt lat="45.794277375780005" lon="9.242261094134038"><ele>262.5</ele><time>2026-04-12T09:40:24Z</time></trkpt><trkpt lat="45.79438654825444" lon="9.242188174107843"><ele>262.75</ele><time>2026-04-12T09:40:25Z</time></trkpt><trkpt lat="45.794489393193196" lon="9.242118644186885"><ele>263.0</ele><time>2026-04-12T09:40:26Z</time></trkpt><trkpt lat="45.794587153630935" lon="9.242050257740518"><ele>263.2</ele><time>2026-04-12T09:40:27Z</time></trkpt><trkpt lat="45.79468207418836" lon="9.241981577132153"><ele>263.4</ele><time>2026-04-12T09:40:28Z</time></trkpt><trkpt lat="45.79477100797488" lon="9.241922314766008"><ele>263.59999999999997</ele><time>2026-04-12T09:40:29Z</time></trkpt><trkpt lat="45.79485750807059" lon="9.241869166437429"><ele>263.8</ele><time>2026-04-12T09:40:30Z</time></trkpt><trkpt lat="45.79493944645713" lon="9.241822557095066"><ele>264.0</ele><time>2026-04-12T09:40:31Z</time></trkpt><trkpt lat="45.79502070292311" lon="9.241778970228149"><ele>264.0</ele><time>2026-04-12T09:40:32Z</time></trkpt><trkpt lat="45.79510458819264" lon="9.24172986932939"><ele>264.0</ele><time>2026-04-12T09:40:33Z</time></trkpt><trkpt lat="45.79519399974503" lon="9.241669224480527"><ele>264.0</ele><time>2026-04-12T09:40:34Z</time></trkpt><trkpt lat="45.79528107130911" lon="9.241600529027089"><ele>264.0</ele><time>2026-04-12T09:40:35Z</time></trkpt><trkpt lat="45.79537226974159" lon="9.241523412157647"><ele>264.0</ele><time>2026-04-12T09:40:36Z</time></trkpt><trkpt lat="45.79547200570753" lon="9.241458579699534"><ele>264.25</ele><time>2026-04-12T09:40:37Z</time></trkpt><trkpt lat="45.79557707481144" lon="9.241410644672879"><ele>264.5</ele><time>2026-04-12T09:40:38Z</time></trkpt><trkpt lat="45.795680580219084" lon="9.241350814280578"><ele>264.75</ele><time>2026-04-12T09:40:39Z</time></trkpt><trkpt lat="45.79577874080599" lon="9.24125540679934"><ele>265.0</ele><time>2026-04-12T09:40:40Z</time></trkpt><trkpt lat="45.7958720175657" lon="9.241149037452528"><ele>265.0</ele><time>2026-04-12T09:40:41Z</time></trkpt><trkpt lat="45.79597957980665" lon="9.241056711927714"><ele>265.0</ele><time>2026-04-12T09:40:42Z</time></trkpt><trkpt lat="45.79610075739728" lon="9.240976366851221"><ele>265.0</ele><time>2026-04-12T09:40:43Z</time></trkpt><trkpt lat="45.79622513334171" lon="9.240895821870591"><ele>265.0</ele><time>2026-04-12T09:40:44Z</time></trkpt><trkpt lat="45.79635451388091" lon="9.240802506794111"><ele>265.3333333333333</ele><time>2026-04-12T09:40:45Z</time></trkpt><trkpt lat="45.79648754284266" lon="9.24071003442621"><ele>265.6666666666667</ele><time>2026-04-12T09:40:46Z</time></trkpt><trkpt lat="45.79662422949819" lon="9.240613150159055"><ele>266.0</ele><time>2026-04-12T09:40:47Z</time></trkpt><trkpt lat="45.79676331724509" lon="9.240519308999016"><ele>266.33333333333337</ele><time>2026-04-12T09:40:48Z</time></trkpt><trkpt lat="45.796906449430935" lon="9.240419886876747"><ele>266.6666666666667</ele><time>2026-04-12T09:40:49Z</time></trkpt><trkpt lat="45.7970521502956" lon="9.240318605833457"><ele>267.0</ele><time>2026-04-12T09:40:50Z</time></trkpt><trkpt lat="45.79719935345711" lon="9.240219698799205"><ele>267.0</ele><time>2026-04-12T09:40:51Z</time></trkpt><trkpt lat="45.79734756426542" lon="9.240118285639578"><ele>267.0</ele><time>2026-04-12T09:40:52.001Z</time></trkpt><trkpt lat="45.7974951513856" lon="9.2400185118503"><ele>267.0</ele><time>2026-04-12T09:40:53.001Z</time></trkpt><trkpt lat="45.79763917603422" lon="9.23991643692302"><ele>267.0</ele><time>2026-04-12T09:40:54.001Z</time></trkpt><trkpt lat="45.79778045006385" lon="9.2398129768078"><ele>267.0</ele><time>2026-04-12T09:40:55.001Z</time></trkpt><trkpt lat="45.79791910984611" lon="9.239714522652417"><ele>267.0</ele><time>2026-04-12T09:40:56.001Z</time></trkpt><trkpt lat="45.79805744705817" lon="9.239618958719596"><ele>267.0</ele><time>2026-04-12T09:40:57.001Z</time></trkpt><trkpt lat="45.79819675714864" lon="9.239528443228094"><ele>267.0</ele><time>2026-04-12T09:40:58.001Z</time></trkpt><trkpt lat="45.79833327273443" lon="9.239434429805279"><ele>267.0</ele><time>2026-04-12T09:40:59.001Z</time></trkpt><trkpt lat="45.79846523416453" lon="9.239342711153757"><ele>267.75</ele><time>2026-04-12T09:41:00.001Z</time></trkpt><trkpt lat="45.79859719304075" lon="9.239250937887746"><ele>268.5</ele><time>2026-04-12T09:41:01.001Z</time></trkpt><trkpt lat="45.79872566289965" lon="9.239163023619515"><ele>269.25</ele><time>2026-04-12T09:41:02.001Z</time></trkpt><trkpt lat="45.79885212132717" lon="9.239079102682005"><ele>270.0</ele><time>2026-04-12T09:41:03.001Z</time></trkpt><trkpt lat="45.7989766782236" lon="9.238994035734123"><ele>270.0</ele><time>2026-04-12T09:41:04.001Z</time></trkpt><trkpt lat="45.799100772681854" lon="9.23890819614247"><ele>270.0</ele><time>2026-04-12T09:41:05.001Z</time></trkpt><trkpt lat="45.799225511395036" lon="9.238822847420966"><ele>270.0</ele><time>2026-04-12T09:41:06.001Z</time></trkpt><trkpt lat="45.799348051650504" lon="9.23873885843855"><ele>270.0</ele><time>2026-04-12T09:41:07.001Z</time></trkpt><trkpt lat="45.799471297588724" lon="9.238651817421282"><ele>270.0</ele><time>2026-04-12T09:41:08.001Z</time></trkpt><trkpt lat="45.799594224354095" lon="9.23856654250206"><ele>270.0</ele><time>2026-04-12T09:41:09.001Z</time></trkpt><trkpt lat="45.79971710083863" lon="9.238480706071387"><ele>270.0</ele><time>2026-04-12T09:41:10.001Z</time></trkpt><trkpt lat="45.79984190794557" lon="9.238393466118165"><ele>270.0</ele><time>2026-04-12T09:41:11.001Z</time></trkpt><trkpt lat="45.799967621142905" lon="9.23831056679286"><ele>270.0</ele><time>2026-04-12T09:41:12.001Z</time></trkpt><trkpt lat="45.8000965347291" lon="9.238227741378573"><ele>270.0</ele><time>2026-04-12T09:41:13.001Z</time></trkpt><trkpt lat="45.80022498408631" lon="9.23814064977431"><ele>270.0</ele><time>2026-04-12T09:41:14.001Z</time></trkpt><trkpt lat="45.80034745831738" lon="9.238055467752048"><ele>270.0</ele><time>2026-04-12T09:41:15.001Z</time></trkpt><trkpt lat="45.80045976166299" lon="9.237977526793562"><ele>270.2</ele><time>2026-04-12T09:41:16.001Z</time></trkpt><trkpt lat="45.800566992143935" lon="9.237904282913536"><ele>270.4</ele><time>2026-04-12T09:41:17.001Z</time></trkpt><trkpt lat="45.80066641578719" lon="9.237837015608132"><ele>270.6</ele><time>2026-04-12T09:41:18.001Z</time></trkpt><trkpt lat="45.800757479719984" lon="9.237777306403663"><ele>270.8</ele><time>2026-04-12T09:41:19.001Z</time></trkpt><trkpt lat="45.80084487980915" lon="9.237719189734914"><ele>271.0</ele><time>2026-04-12T09:41:20.001Z</time></trkpt><trkpt lat="45.800925905166245" lon="9.23766386347945"><ele>271.0</ele><time>2026-04-12T09:41:21.001Z</time></trkpt><trkpt lat="45.80100444210753" lon="9.237609810424635"><ele>271.0</ele><time>2026-04-12T09:41:22.001Z</time></trkpt><trkpt lat="45.80107672879988" lon="9.23756229201457"><ele>271.0</ele><time>2026-04-12T09:41:23.001Z</time></trkpt><trkpt lat="45.80115186454971" lon="9.237513756765471"><ele>271.0</ele><time>2026-04-12T09:41:24.001Z</time></trkpt><trkpt lat="45.8012240302453" lon="9.237463379357083"><ele>271.0</ele><time>2026-04-12T09:41:25.001Z</time></trkpt><trkpt lat="45.80129699043316" lon="9.237416348630333"><ele>271.0</ele><time>2026-04-12T09:41:26.001Z</time></trkpt><trkpt lat="45.801381722263706" lon="9.237357418023219"><ele>271.2</ele><time>2026-04-12T09:41:27.001Z</time></trkpt><trkpt lat="45.80146941045353" lon="9.23729965811814"><ele>271.40000000000003</ele><time>2026-04-12T09:41:28.001Z</time></trkpt><trkpt lat="45.80155422804536" lon="9.23724248997266"><ele>271.6</ele><time>2026-04-12T09:41:29.001Z</time></trkpt><trkpt lat="45.801643740743096" lon="9.237182908646082"><ele>271.8</ele><time>2026-04-12T09:41:30.001Z</time></trkpt><trkpt lat="45.801733390656786" lon="9.23712780854496"><ele>272.0</ele><time>2026-04-12T09:41:31.001Z</time></trkpt><trkpt lat="45.80182128656987" lon="9.237076061617614"><ele>272.0</ele><time>2026-04-12T09:41:32.001Z</time></trkpt><trkpt lat="45.80191156648163" lon="9.237033938722085"><ele>272.0</ele><time>2026-04-12T09:41:33.001Z</time></trkpt><trkpt lat="45.80200768483787" lon="9.237002568409167"><ele>272.0</ele><time>2026-04-12T09:41:34.001Z</time></trkpt><trkpt lat="45.80210805264409" lon="9.23697586833129"><ele>272.0</ele><time>2026-04-12T09:41:35.001Z</time></trkpt><trkpt lat="45.80220598893326" lon="9.236916723260565"><ele>272.0</ele><time>2026-04-12T09:41:36.001Z</time></trkpt><trkpt lat="45.80229701849697" lon="9.236827855011107"><ele>272.0</ele><time>2026-04-12T09:41:37.001Z</time></trkpt><trkpt lat="45.802387032749955" lon="9.23672237778067"><ele>272.0</ele><time>2026-04-12T09:41:38.001Z</time></trkpt><trkpt lat="45.80248297694084" lon="9.23662997670947"><ele>272.0</ele><time>2026-04-12T09:41:39.001Z</time></trkpt><trkpt lat="45.8025860709534" lon="9.236551137143469"><ele>272.0</ele><time>2026-04-12T09:41:40.001Z</time></trkpt><trkpt lat="45.80269345790323" lon="9.236478488162321"><ele>272.4</ele><time>2026-04-12T09:41:41.001Z</time></trkpt><trkpt lat="45.80279694089473" lon="9.236404805025238"><ele>272.79999999999995</ele><time>2026-04-12T09:41:42.001Z</time></trkpt><trkpt lat="45.80289278918769" lon="9.236337593099794"><ele>273.2</ele><time>2026-04-12T09:41:43.001Z</time></trkpt><trkpt lat="45.802985941500744" lon="9.236275177034601"><ele>273.59999999999997</ele><time>2026-04-12T09:41:44.001Z</time></trkpt><trkpt lat="45.80308020790409" lon="9.236211036959691"><ele>274.0</ele><time>2026-04-12T09:41:45.001Z</time></trkpt><trkpt lat="45.80317048564278" lon="9.236155186580728"><ele>274.0</ele><time>2026-04-12T09:41:46.001Z</time></trkpt><trkpt lat="45.80325825403145" lon="9.2361027145779"><ele>274.0</ele><time>2026-04-12T09:41:47.001Z</time></trkpt><trkpt lat="45.80333553462764" lon="9.236052655669795"><ele>274.0</ele><time>2026-04-12T09:41:48Z</time></trkpt><trkpt lat="45.8034122257278" lon="9.235999441202914"><ele>274.0</ele><time>2026-04-12T09:41:49Z</time></trkpt><trkpt lat="45.803491254605234" lon="9.235947143386118"><ele>274.0</ele><time>2026-04-12T09:41:50Z</time></trkpt><trkpt lat="45.80357498923898" lon="9.235892281041187"><ele>274.0</ele><time>2026-04-12T09:41:51Z</time></trkpt><trkpt lat="45.803666796000584" lon="9.235832733889165"><ele>274.0</ele><time>2026-04-12T09:41:52Z</time></trkpt><trkpt lat="45.80376130996451" lon="9.235773304984141"><ele>274.0</ele><time>2026-04-12T09:41:53Z</time></trkpt><trkpt lat="45.80386068241545" lon="9.235709203286312"><ele>274.0</ele><time>2026-04-12T09:41:54Z</time></trkpt><trkpt lat="45.80395894519709" lon="9.23564053321775"><ele>274.0</ele><time>2026-04-12T09:41:55Z</time></trkpt><trkpt lat="45.80405841268799" lon="9.2355654950487"><ele>274.0</ele><time>2026-04-12T09:41:56Z</time></trkpt><trkpt lat="45.80415156608766" lon="9.235491101387872"><ele>274.16666666666663</ele><time>2026-04-12T09:41:57Z</time></trkpt><trkpt lat="45.80423783792683" lon="9.235424198140489"><ele>274.3333333333333</ele><time>2026-04-12T09:41:58Z</time></trkpt><trkpt lat="45.80431834578286" lon="9.235359560737768"><ele>274.5</ele><time>2026-04-12T09:41:59Z</time></trkpt><trkpt lat="45.80439118004579" lon="9.235294172843048"><ele>274.6666666666667</ele><time>2026-04-12T09:42:00Z</time></trkpt><trkpt lat="45.804458592608924" lon="9.235229433139457"><ele>274.83333333333337</ele><time>2026-04-12T09:42:01Z</time></trkpt><trkpt lat="45.80451828330175" lon="9.235169821422872"><ele>275.0</ele><time>2026-04-12T09:42:02Z</time></trkpt><trkpt lat="45.804577228629825" lon="9.235111712642556"><ele>275.1666666666667</ele><time>2026-04-12T09:42:03Z</time></trkpt><trkpt lat="45.8046295431589" lon="9.235058380136369"><ele>275.33333333333337</ele><time>2026-04-12T09:42:04Z</time></trkpt><trkpt lat="45.80471301193133" lon="9.234972515819223"><ele>275.5</ele><time>2026-04-12T09:42:06Z</time></trkpt><trkpt lat="45.804780816786625" lon="9.234908624646266"><ele>275.6666666666667</ele><time>2026-04-12T09:42:08Z</time></trkpt><trkpt lat="45.804854829359606" lon="9.234834750791787"><ele>275.8333333333333</ele><time>2026-04-12T09:42:10Z</time></trkpt><trkpt lat="45.80492330641213" lon="9.234766152980226"><ele>276.0</ele><time>2026-04-12T09:42:12Z</time></trkpt><trkpt lat="45.805021087774186" lon="9.234664561638018"><ele>276.1666666666667</ele><time>2026-04-12T09:42:14Z</time></trkpt><trkpt lat="45.805116170741684" lon="9.234609750408062"><ele>276.3333333333333</ele><time>2026-04-12T09:42:16Z</time></trkpt><trkpt lat="45.80520600655868" lon="9.234583960201622"><ele>276.5</ele><time>2026-04-12T09:42:19Z</time></trkpt><trkpt lat="45.805275342470196" lon="9.234593575948907"><ele>276.66666666666663</ele><time>2026-04-12T09:42:20Z</time></trkpt><trkpt lat="45.80535025031705" lon="9.23460463786486"><ele>276.8333333333333</ele><time>2026-04-12T09:42:21Z</time></trkpt><trkpt lat="45.80542606586679" lon="9.234578994801454"><ele>277.0</ele><time>2026-04-12T09:42:22Z</time></trkpt><trkpt lat="45.80550253982497" lon="9.234534959489277"><ele>277.75</ele><time>2026-04-12T09:42:23Z</time></trkpt><trkpt lat="45.80558950955893" lon="9.234485840291516"><ele>278.5</ele><time>2026-04-12T09:42:24Z</time></trkpt><trkpt lat="45.805693594851505" lon="9.234433751822626"><ele>279.25</ele><time>2026-04-12T09:42:25Z</time></trkpt><trkpt lat="45.80581741600274" lon="9.234392323746249"><ele>280.0</ele><time>2026-04-12T09:42:26Z</time></trkpt><trkpt lat="45.80594919564256" lon="9.234357775915987"><ele>279.5</ele><time>2026-04-12T09:42:27Z</time></trkpt><trkpt lat="45.80607391394811" lon="9.234326936683214"><ele>279.0</ele><time>2026-04-12T09:42:28Z</time></trkpt><trkpt lat="45.806198640267816" lon="9.23430463893331"><ele>278.5</ele><time>2026-04-12T09:42:29Z</time></trkpt><trkpt lat="45.806316105560214" lon="9.234280591918674"><ele>278.0</ele><time>2026-04-12T09:42:30Z</time></trkpt><trkpt lat="45.806441829963035" lon="9.234264110172878"><ele>278.0</ele><time>2026-04-12T09:42:31Z</time></trkpt><trkpt lat="45.80656836775636" lon="9.234252008608445"><ele>278.0</ele><time>2026-04-12T09:42:32Z</time></trkpt><trkpt lat="45.80669645729586" lon="9.234238644481788"><ele>278.0</ele><time>2026-04-12T09:42:33Z</time></trkpt><trkpt lat="45.80681495860308" lon="9.234222426615137"><ele>278.0</ele><time>2026-04-12T09:42:34Z</time></trkpt><trkpt lat="45.80692451524322" lon="9.234210198558749"><ele>278.2</ele><time>2026-04-12T09:42:35Z</time></trkpt><trkpt lat="45.80702913824336" lon="9.234199552775387"><ele>278.4</ele><time>2026-04-12T09:42:36Z</time></trkpt><trkpt lat="45.80713225570211" lon="9.234190702486075"><ele>278.59999999999997</ele><time>2026-04-12T09:42:37Z</time></trkpt><trkpt lat="45.80722654371671" lon="9.234180360985068"><ele>278.8</ele><time>2026-04-12T09:42:38Z</time></trkpt><trkpt lat="45.8073196152703" lon="9.234169934870998"><ele>279.0</ele><time>2026-04-12T09:42:39Z</time></trkpt><trkpt lat="45.8074096062745" lon="9.234158372002138"><ele>279.0</ele><time>2026-04-12T09:42:40Z</time></trkpt><trkpt lat="45.8074974751069" lon="9.23414861827559"><ele>279.0</ele><time>2026-04-12T09:42:41Z</time></trkpt><trkpt lat="45.80758616232741" lon="9.234139197825668"><ele>279.0</ele><time>2026-04-12T09:42:42Z</time></trkpt><trkpt lat="45.80767906319108" lon="9.234131388331196"><ele>279.0</ele><time>2026-04-12T09:42:43Z</time></trkpt><trkpt lat="45.80777185903822" lon="9.234123445264114"><ele>279.0</ele><time>2026-04-12T09:42:44Z</time></trkpt><trkpt lat="45.807867948742775" lon="9.23411317183634"><ele>279.2</ele><time>2026-04-12T09:42:45Z</time></trkpt><trkpt lat="45.80796718581374" lon="9.234103304139751"><ele>279.4</ele><time>2026-04-12T09:42:46Z</time></trkpt><trkpt lat="45.80806706663161" lon="9.234091662319443"><ele>279.6</ele><time>2026-04-12T09:42:47Z</time></trkpt><trkpt lat="45.80816856492299" lon="9.234078413621074"><ele>279.8</ele><time>2026-04-12T09:42:48Z</time></trkpt><trkpt lat="45.80827291354624" lon="9.234063296264736"><ele>280.0</ele><time>2026-04-12T09:42:49Z</time></trkpt><trkpt lat="45.80837118638393" lon="9.234054968060951"><ele>280.0</ele><time>2026-04-12T09:42:50Z</time></trkpt><trkpt lat="45.80846530171058" lon="9.234045322966043"><ele>280.0</ele><time>2026-04-12T09:42:51Z</time></trkpt><trkpt lat="45.808552456475866" lon="9.234033496948872"><ele>280.0</ele><time>2026-04-12T09:42:52Z</time></trkpt><trkpt lat="45.808634522869" lon="9.234017787586616"><ele>280.0</ele><time>2026-04-12T09:42:53Z</time></trkpt><trkpt lat="45.808711704929514" lon="9.23400564129149"><ele>280.0</ele><time>2026-04-12T09:42:54Z</time></trkpt><trkpt lat="45.80878428138894" lon="9.233991855702934"><ele>280.0</ele><time>2026-04-12T09:42:55Z</time></trkpt><trkpt lat="45.808855791449474" lon="9.233980263707494"><ele>280.3333333333333</ele><time>2026-04-12T09:42:56Z</time></trkpt><trkpt lat="45.808924484348246" lon="9.233967064818147"><ele>280.66666666666663</ele><time>2026-04-12T09:42:57Z</time></trkpt><trkpt lat="45.808999467513175" lon="9.233952192857085"><ele>281.0</ele><time>2026-04-12T09:42:58Z</time></trkpt><trkpt lat="45.80908006120571" lon="9.23393573587964"><ele>281.3333333333333</ele><time>2026-04-12T09:42:59Z</time></trkpt><trkpt lat="45.80915967721547" lon="9.233919520662132"><ele>281.6666666666667</ele><time>2026-04-12T09:43:00Z</time></trkpt><trkpt lat="45.809240891663734" lon="9.233902561233304"><ele>282.0</ele><time>2026-04-12T09:43:01Z</time></trkpt><trkpt lat="45.80931824596439" lon="9.23388427291252"><ele>282.1666666666667</ele><time>2026-04-12T09:43:02Z</time></trkpt><trkpt lat="45.809387247654904" lon="9.233867566919617"><ele>282.3333333333333</ele><time>2026-04-12T09:43:03Z</time></trkpt><trkpt lat="45.809450889618" lon="9.233850643811444"><ele>282.5</ele><time>2026-04-12T09:43:04Z</time></trkpt><trkpt lat="45.809540254426075" lon="9.233824407805262"><ele>282.66666666666663</ele><time>2026-04-12T09:43:06Z</time></trkpt><trkpt lat="45.80960333373556" lon="9.233808796763748"><ele>282.8333333333333</ele><time>2026-04-12T09:43:11Z</time></trkpt><trkpt lat="45.809684004032" lon="9.233785196214043"><ele>283.0</ele><time>2026-04-12T09:43:17Z</time></trkpt><trkpt lat="45.80978456703691" lon="9.233795973708766"><ele>283.0</ele><time>2026-04-12T09:43:19Z</time></trkpt><trkpt lat="45.8098640975861" lon="9.233877814683366"><ele>283.0</ele><time>2026-04-12T09:43:22.001Z</time></trkpt><trkpt lat="45.80992841904936" lon="9.233998838258003"><ele>283.0</ele><time>2026-04-12T09:43:24.001Z</time></trkpt><trkpt lat="45.81002025372093" lon="9.234100808143966"><ele>283.0</ele><time>2026-04-12T09:43:26.001Z</time></trkpt><trkpt lat="45.8101252534344" lon="9.234085195942443"><ele>283.0</ele><time>2026-04-12T09:43:28.001Z</time></trkpt><trkpt lat="45.81022627730006" lon="9.234027535809227"><ele>282.75</ele><time>2026-04-12T09:43:30.001Z</time></trkpt><trkpt lat="45.810368013502085" lon="9.234020655275664"><ele>282.5</ele><time>2026-04-12T09:43:38.001Z</time></trkpt><trkpt lat="45.81049117353082" lon="9.234024079707412"><ele>282.25</ele><time>2026-04-12T09:43:40.001Z</time></trkpt><trkpt lat="45.81055471540625" lon="9.234006235961141"><ele>282.0</ele><time>2026-04-12T09:43:41.001Z</time></trkpt><trkpt lat="45.81067500779566" lon="9.23396109940494"><ele>282.0</ele><time>2026-04-12T09:43:43.001Z</time></trkpt><trkpt lat="45.81073884252643" lon="9.233972176557547"><ele>282.0</ele><time>2026-04-12T09:43:44.001Z</time></trkpt><trkpt lat="45.81085002206043" lon="9.233982526759677"><ele>282.0</ele><time>2026-04-12T09:43:46.001Z</time></trkpt><trkpt lat="45.81095880913619" lon="9.233847163746583"><ele>282.0</ele><time>2026-04-12T09:43:48.001Z</time></trkpt><trkpt lat="45.81103428014134" lon="9.233778515113656"><ele>282.0</ele><time>2026-04-12T09:43:49.001Z</time></trkpt><trkpt lat="45.811131502085416" lon="9.233733726775661"><ele>282.5</ele><time>2026-04-12T09:43:50.001Z</time></trkpt><trkpt lat="45.811250172729395" lon="9.233702138228026"><ele>283.0</ele><time>2026-04-12T09:43:51.001Z</time></trkpt><trkpt lat="45.8113713563737" lon="9.233653515474632"><ele>283.5</ele><time>2026-04-12T09:43:52.001Z</time></trkpt><trkpt lat="45.811490632662" lon="9.233595769660505"><ele>284.0</ele><time>2026-04-12T09:43:53Z</time></trkpt><trkpt lat="45.81161296597915" lon="9.233538157255396"><ele>284.0</ele><time>2026-04-12T09:43:54Z</time></trkpt><trkpt lat="45.811737719214875" lon="9.233483060506877"><ele>284.0</ele><time>2026-04-12T09:43:55Z</time></trkpt><trkpt lat="45.81186358517934" lon="9.23343287776039"><ele>284.0</ele><time>2026-04-12T09:43:56Z</time></trkpt><trkpt lat="45.811986090618696" lon="9.233382219731475"><ele>284.0</ele><time>2026-04-12T09:43:57Z</time></trkpt><trkpt lat="45.812110210565535" lon="9.233338875731874"><ele>284.0</ele><time>2026-04-12T09:43:58Z</time></trkpt><trkpt lat="45.812241578706164" lon="9.233318292036898"><ele>284.0</ele><time>2026-04-12T09:43:59Z</time></trkpt><trkpt lat="45.812378522805005" lon="9.233318084471117"><ele>284.0</ele><time>2026-04-12T09:44:00Z</time></trkpt><trkpt lat="45.81251485685164" lon="9.233338751361885"><ele>284.0</ele><time>2026-04-12T09:44:01Z</time></trkpt><trkpt lat="45.81265552604493" lon="9.233356499205096"><ele>283.75</ele><time>2026-04-12T09:44:02Z</time></trkpt><trkpt lat="45.812799794700744" lon="9.233370213203372"><ele>283.5</ele><time>2026-04-12T09:44:03Z</time></trkpt><trkpt lat="45.81294458982312" lon="9.233377173508336"><ele>283.25</ele><time>2026-04-12T09:44:04Z</time></trkpt><trkpt lat="45.81308667563977" lon="9.23338493998047"><ele>283.0</ele><time>2026-04-12T09:44:05Z</time></trkpt><trkpt lat="45.81322757359002" lon="9.233394946720537"><ele>283.0</ele><time>2026-04-12T09:44:06Z</time></trkpt><trkpt lat="45.81335944524969" lon="9.233397168963739"><ele>283.0</ele><time>2026-04-12T09:44:07Z</time></trkpt><trkpt lat="45.813493477771004" lon="9.233378463376978"><ele>283.0</ele><time>2026-04-12T09:44:08Z</time></trkpt><trkpt lat="45.813613416451204" lon="9.233333389023954"><ele>283.0</ele><time>2026-04-12T09:44:09Z</time></trkpt><trkpt lat="45.81373708503877" lon="9.233259133519587"><ele>283.75</ele><time>2026-04-12T09:44:10Z</time></trkpt><trkpt lat="45.813856919009545" lon="9.233168424486262"><ele>284.5</ele><time>2026-04-12T09:44:11Z</time></trkpt><trkpt lat="45.81397069484758" lon="9.233067943992125"><ele>285.25</ele><time>2026-04-12T09:44:12Z</time></trkpt><trkpt lat="45.814079790074274" lon="9.232955796938423"><ele>286.0</ele><time>2026-04-12T09:44:13Z</time></trkpt><trkpt lat="45.81419090520825" lon="9.232843806100126"><ele>286.25</ele><time>2026-04-12T09:44:14Z</time></trkpt><trkpt lat="45.81430275659603" lon="9.232728104141684"><ele>286.5</ele><time>2026-04-12T09:44:15Z</time></trkpt><trkpt lat="45.81441219403299" lon="9.232600318335987"><ele>286.75</ele><time>2026-04-12T09:44:16Z</time></trkpt><trkpt lat="45.81451226392995" lon="9.232458684682175"><ele>287.0</ele><time>2026-04-12T09:44:17Z</time></trkpt><trkpt lat="45.814601465859674" lon="9.23231348129631"><ele>286.75</ele><time>2026-04-12T09:44:18Z</time></trkpt><trkpt lat="45.81468920850905" lon="9.232176753473917"><ele>286.5</ele><time>2026-04-12T09:44:19Z</time></trkpt><trkpt lat="45.81477080901015" lon="9.232051561238714"><ele>286.25</ele><time>2026-04-12T09:44:20Z</time></trkpt><trkpt lat="45.814850473234344" lon="9.231929517503707"><ele>286.0</ele><time>2026-04-12T09:44:21Z</time></trkpt><trkpt lat="45.81492699757749" lon="9.231813426435618"><ele>286.0</ele><time>2026-04-12T09:44:22Z</time></trkpt><trkpt lat="45.81499868865598" lon="9.231705912029831"><ele>286.0</ele><time>2026-04-12T09:44:23Z</time></trkpt><trkpt lat="45.81506778328565" lon="9.231602708664182"><ele>286.0</ele><time>2026-04-12T09:44:24Z</time></trkpt><trkpt lat="45.81513289218885" lon="9.231503700333219"><ele>286.0</ele><time>2026-04-12T09:44:25Z</time></trkpt><trkpt lat="45.81519209792704" lon="9.231418312663084"><ele>286.0</ele><time>2026-04-12T09:44:26Z</time></trkpt><trkpt lat="45.815240466787955" lon="9.231349334651407"><ele>286.0</ele><time>2026-04-12T09:44:27Z</time></trkpt><trkpt lat="45.81535131307874" lon="9.231275473224768"><ele>286.0</ele><time>2026-04-12T09:44:29Z</time></trkpt><trkpt lat="45.815431834995294" lon="9.231258728816517"><ele>286.0</ele><time>2026-04-12T09:44:30Z</time></trkpt><trkpt lat="45.815513865985395" lon="9.231273955978105"><ele>286.0</ele><time>2026-04-12T09:44:31Z</time></trkpt><trkpt lat="45.81559792789574" lon="9.231321892906779"><ele>286.0</ele><time>2026-04-12T09:44:32Z</time></trkpt><trkpt lat="45.81568424432532" lon="9.231403964667189"><ele>286.25</ele><time>2026-04-12T09:44:33Z</time></trkpt><trkpt lat="45.81577092099738" lon="9.231497091832793"><ele>286.5</ele><time>2026-04-12T09:44:34Z</time></trkpt><trkpt lat="45.81586172641643" lon="9.231593281409696"><ele>286.75</ele><time>2026-04-12T09:44:35Z</time></trkpt><trkpt lat="45.815958316372175" lon="9.231687155194615"><ele>287.0</ele><time>2026-04-12T09:44:36Z</time></trkpt><trkpt lat="45.81606025989265" lon="9.231781056619429"><ele>287.25</ele><time>2026-04-12T09:44:37Z</time></trkpt><trkpt lat="45.81616338309362" lon="9.23187761545128"><ele>287.5</ele><time>2026-04-12T09:44:38Z</time></trkpt><trkpt lat="45.81626165226223" lon="9.2319712080968"><ele>287.75</ele><time>2026-04-12T09:44:39Z</time></trkpt><trkpt lat="45.816354789722965" lon="9.232063732090333"><ele>288.0</ele><time>2026-04-12T09:44:40Z</time></trkpt><trkpt lat="45.816441859468924" lon="9.232146190339865"><ele>288.0</ele><time>2026-04-12T09:44:41Z</time></trkpt><trkpt lat="45.816521501420695" lon="9.232221440052957"><ele>288.0</ele><time>2026-04-12T09:44:42Z</time></trkpt><trkpt lat="45.81657726963362" lon="9.2322787758125"><ele>288.0</ele><time>2026-04-12T09:44:43Z</time></trkpt><trkpt lat="45.81667772389272" lon="9.232390061189735"><ele>288.0</ele><time>2026-04-12T09:44:45Z</time></trkpt><trkpt lat="45.816743183014395" lon="9.23252544568599"><ele>288.0</ele><time>2026-04-12T09:44:47Z</time></trkpt><trkpt lat="45.81678779320476" lon="9.232661829407999"><ele>288.2</ele><time>2026-04-12T09:44:49Z</time></trkpt><trkpt lat="45.81689296676009" lon="9.23263462353166"><ele>288.4</ele><time>2026-04-12T09:44:51Z</time></trkpt><trkpt lat="45.816944318088844" lon="9.23246550877458"><ele>288.59999999999997</ele><time>2026-04-12T09:44:53Z</time></trkpt><trkpt lat="45.81697649572693" lon="9.232372204649367"><ele>288.8</ele><time>2026-04-12T09:44:54Z</time></trkpt><trkpt lat="45.817033814314854" lon="9.232294434241847"><ele>289.0</ele><time>2026-04-12T09:44:55Z</time></trkpt><trkpt lat="45.81711152631087" lon="9.232225473564554"><ele>289.0</ele><time>2026-04-12T09:44:56Z</time></trkpt><trkpt lat="45.81718872972261" lon="9.232159550830573"><ele>289.0</ele><time>2026-04-12T09:44:57Z</time></trkpt><trkpt lat="45.817274310944896" lon="9.232087075613839"><ele>289.0</ele><time>2026-04-12T09:44:58Z</time></trkpt><trkpt lat="45.81736099380751" lon="9.232009658267117"><ele>289.0</ele><time>2026-04-12T09:44:59Z</time></trkpt><trkpt lat="45.81744593279992" lon="9.231918337547517"><ele>289.0</ele><time>2026-04-12T09:45:00Z</time></trkpt><trkpt lat="45.817524082129744" lon="9.231805340909276"><ele>289.0</ele><time>2026-04-12T09:45:01Z</time></trkpt><trkpt lat="45.81759610572969" lon="9.23166770604228"><ele>289.0</ele><time>2026-04-12T09:45:02Z</time></trkpt><trkpt lat="45.81765514525026" lon="9.231517923283624"><ele>289.0</ele><time>2026-04-12T09:45:03Z</time></trkpt><trkpt lat="45.81772012311049" lon="9.231365113228646"><ele>289.0</ele><time>2026-04-12T09:45:04Z</time></trkpt><trkpt lat="45.817786265616" lon="9.231208645211517"><ele>289.0</ele><time>2026-04-12T09:45:05Z</time></trkpt><trkpt lat="45.81784194929631" lon="9.231056531313428"><ele>289.0</ele><time>2026-04-12T09:45:06Z</time></trkpt><trkpt lat="45.81788986444361" lon="9.230906092275317"><ele>289.0</ele><time>2026-04-12T09:45:07Z</time></trkpt><trkpt lat="45.817929551501386" lon="9.230764487191262"><ele>289.0</ele><time>2026-04-12T09:45:08Z</time></trkpt><trkpt lat="45.817968531320524" lon="9.23064016410755"><ele>289.0</ele><time>2026-04-12T09:45:09Z</time></trkpt><trkpt lat="45.81800821452907" lon="9.230520568435015"><ele>289.59999999999997</ele><time>2026-04-12T09:45:10Z</time></trkpt><trkpt lat="45.818043599499255" lon="9.230407319504698"><ele>290.2</ele><time>2026-04-12T09:45:11Z</time></trkpt><trkpt lat="45.81808170481576" lon="9.230294923362948"><ele>290.79999999999995</ele><time>2026-04-12T09:45:12Z</time></trkpt><trkpt lat="45.8181217517829" lon="9.230168586660932"><ele>291.4</ele><time>2026-04-12T09:45:13Z</time></trkpt><trkpt lat="45.81816494868069" lon="9.230032937352565"><ele>292.0</ele><time>2026-04-12T09:45:14Z</time></trkpt><trkpt lat="45.818212385900864" lon="9.229891741269686"><ele>291.5</ele><time>2026-04-12T09:45:15Z</time></trkpt><trkpt lat="45.81826638988986" lon="9.22974525252595"><ele>291.0</ele><time>2026-04-12T09:45:16Z</time></trkpt><trkpt lat="45.818328786813424" lon="9.229593952225274"><ele>290.5</ele><time>2026-04-12T09:45:17Z</time></trkpt><trkpt lat="45.818402830630596" lon="9.22944253829407"><ele>290.0</ele><time>2026-04-12T09:45:18Z</time></trkpt><trkpt lat="45.81847615464867" lon="9.229299688920356"><ele>290.75</ele><time>2026-04-12T09:45:19Z</time></trkpt><trkpt lat="45.81855574402098" lon="9.22915277781998"><ele>291.5</ele><time>2026-04-12T09:45:20Z</time></trkpt><trkpt lat="45.81863332750072" lon="9.22900159901266"><ele>292.25</ele><time>2026-04-12T09:45:21Z</time></trkpt><trkpt lat="45.81870299111655" lon="9.228862223244057"><ele>293.0</ele><time>2026-04-12T09:45:22Z</time></trkpt><trkpt lat="45.81876655141322" lon="9.228728061565032"><ele>293.2</ele><time>2026-04-12T09:45:23Z</time></trkpt><trkpt lat="45.8188263528902" lon="9.228604413341447"><ele>293.4</ele><time>2026-04-12T09:45:24Z</time></trkpt><trkpt lat="45.818892601251534" lon="9.22849257832285"><ele>293.59999999999997</ele><time>2026-04-12T09:45:25Z</time></trkpt><trkpt lat="45.81897574167766" lon="9.228405342678572"><ele>293.8</ele><time>2026-04-12T09:45:26Z</time></trkpt><trkpt lat="45.819064575240766" lon="9.22834511649859"><ele>294.0</ele><time>2026-04-12T09:45:27Z</time></trkpt><trkpt lat="45.819144357867515" lon="9.228307244798613"><ele>294.0</ele><time>2026-04-12T09:45:28Z</time></trkpt><trkpt lat="45.819228636550946" lon="9.228277523266264"><ele>294.0</ele><time>2026-04-12T09:45:29Z</time></trkpt><trkpt lat="45.81930981936683" lon="9.228284733836727"><ele>294.0</ele><time>2026-04-12T09:45:30Z</time></trkpt><trkpt lat="45.81938992316858" lon="9.228331605754816"><ele>294.0</ele><time>2026-04-12T09:45:31Z</time></trkpt><trkpt lat="45.81945664089664" lon="9.228411019132079"><ele>294.0</ele><time>2026-04-12T09:45:32Z</time></trkpt><trkpt lat="45.81951513788498" lon="9.228510416694627"><ele>294.0</ele><time>2026-04-12T09:45:33Z</time></trkpt><trkpt lat="45.81957783497679" lon="9.228607244965824"><ele>295.59999999999997</ele><time>2026-04-12T09:45:34Z</time></trkpt><trkpt lat="45.81965272246386" lon="9.22869341322817"><ele>297.2</ele><time>2026-04-12T09:45:35Z</time></trkpt><trkpt lat="45.81974015416761" lon="9.228768522286943"><ele>298.79999999999995</ele><time>2026-04-12T09:45:36Z</time></trkpt><trkpt lat="45.81982932291073" lon="9.228848120420619"><ele>300.4</ele><time>2026-04-12T09:45:37Z</time></trkpt><trkpt lat="45.81992254682408" lon="9.228925997100614"><ele>302.0</ele><time>2026-04-12T09:45:38Z</time></trkpt><trkpt lat="45.820017861281414" lon="9.229009014393524"><ele>302.6666666666667</ele><time>2026-04-12T09:45:39Z</time></trkpt><trkpt lat="45.82010978975261" lon="9.22906946208801"><ele>303.33333333333337</ele><time>2026-04-12T09:45:40Z</time></trkpt><trkpt lat="45.82019404813385" lon="9.229101359490484"><ele>304.0</ele><time>2026-04-12T09:45:41Z</time></trkpt><trkpt lat="45.82027023127964" lon="9.229128395818577"><ele>304.6666666666667</ele><time>2026-04-12T09:45:42Z</time></trkpt><trkpt lat="45.820341610037524" lon="9.229149949892328"><ele>305.3333333333333</ele><time>2026-04-12T09:45:43Z</time></trkpt><trkpt lat="45.82044450981699" lon="9.229187408549171"><ele>306.0</ele><time>2026-04-12T09:45:45Z</time></trkpt><trkpt lat="45.820510866372814" lon="9.22918904042123"><ele>306.2</ele><time>2026-04-12T09:45:54Z</time></trkpt><trkpt lat="45.820592274662054" lon="9.229177922926702"><ele>306.40000000000003</ele><time>2026-04-12T09:45:56Z</time></trkpt><trkpt lat="45.82070531556512" lon="9.229150595074136"><ele>306.6</ele><time>2026-04-12T09:45:58.001Z</time></trkpt><trkpt lat="45.82080476524401" lon="9.229071589457316"><ele>306.8</ele><time>2026-04-12T09:46:00Z</time></trkpt><trkpt lat="45.82090712080116" lon="9.228985346273904"><ele>307.0</ele><time>2026-04-12T09:46:02Z</time></trkpt><trkpt lat="45.82096333202924" lon="9.228935734462357"><ele>306.16666666666663</ele><time>2026-04-12T09:46:03Z</time></trkpt><trkpt lat="45.821019900442415" lon="9.228889012784679"><ele>305.3333333333333</ele><time>2026-04-12T09:46:04Z</time></trkpt><trkpt lat="45.82107350927527" lon="9.228823124840286"><ele>304.5</ele><time>2026-04-12T09:46:05Z</time></trkpt><trkpt lat="45.821143848825805" lon="9.228810720691996"><ele>303.6666666666667</ele><time>2026-04-12T09:46:06Z</time></trkpt><trkpt lat="45.821215506745226" lon="9.228796162336867"><ele>302.83333333333337</ele><time>2026-04-12T09:46:07Z</time></trkpt><trkpt lat="45.821302925899296" lon="9.228806864440044"><ele>302.0</ele><time>2026-04-12T09:46:08Z</time></trkpt><trkpt lat="45.82139539347555" lon="9.228788009317189"><ele>302.0</ele><time>2026-04-12T09:46:09Z</time></trkpt><trkpt lat="45.821489993799204" lon="9.228779196219772"><ele>302.0</ele><time>2026-04-12T09:46:10Z</time></trkpt><trkpt lat="45.8215668249833" lon="9.228742837037029"><ele>302.0</ele><time>2026-04-12T09:46:11Z</time></trkpt><trkpt lat="45.82166862205006" lon="9.228719800074039"><ele>302.0</ele><time>2026-04-12T09:46:12Z</time></trkpt><trkpt lat="45.821774379378745" lon="9.22869920723613"><ele>302.0</ele><time>2026-04-12T09:46:13Z</time></trkpt><trkpt lat="45.82187141059267" lon="9.228678258654096"><ele>302.5</ele><time>2026-04-12T09:46:14Z</time></trkpt><trkpt lat="45.82197134063297" lon="9.228635866231633"><ele>303.0</ele><time>2026-04-12T09:46:15Z</time></trkpt><trkpt lat="45.82208213882357" lon="9.228578311437806"><ele>303.5</ele><time>2026-04-12T09:46:16Z</time></trkpt><trkpt lat="45.82219043130559" lon="9.228506339827662"><ele>304.0</ele><time>2026-04-12T09:46:17Z</time></trkpt><trkpt lat="45.82228863916692" lon="9.228438699900094"><ele>304.0</ele><time>2026-04-12T09:46:18Z</time></trkpt><trkpt lat="45.82238323375972" lon="9.228383126083099"><ele>304.0</ele><time>2026-04-12T09:46:19Z</time></trkpt><trkpt lat="45.822476420818276" lon="9.228339898645554"><ele>304.0</ele><time>2026-04-12T09:46:20Z</time></trkpt><trkpt lat="45.82256975100113" lon="9.228299758845427"><ele>304.0</ele><time>2026-04-12T09:46:21Z</time></trkpt><trkpt lat="45.822656249077454" lon="9.228271382490039"><ele>304.0</ele><time>2026-04-12T09:46:22Z</time></trkpt><trkpt lat="45.82274095792368" lon="9.228245659204156"><ele>303.66666666666663</ele><time>2026-04-12T09:46:23Z</time></trkpt><trkpt lat="45.822826034257375" lon="9.228235052971733"><ele>303.3333333333333</ele><time>2026-04-12T09:46:24Z</time></trkpt><trkpt lat="45.82292034404886" lon="9.228250472542785"><ele>303.0</ele><time>2026-04-12T09:46:25Z</time></trkpt><trkpt lat="45.823012235554515" lon="9.228275829642659"><ele>302.6666666666667</ele><time>2026-04-12T09:46:26Z</time></trkpt><trkpt lat="45.82309220541211" lon="9.228305113400951"><ele>302.33333333333337</ele><time>2026-04-12T09:46:27Z</time></trkpt><trkpt lat="45.82316690571123" lon="9.228352969177955"><ele>302.0</ele><time>2026-04-12T09:46:28Z</time></trkpt><trkpt lat="45.823230210670246" lon="9.228423362790728"><ele>302.0</ele><time>2026-04-12T09:46:29Z</time></trkpt><trkpt lat="45.82328990222722" lon="9.228506115848758"><ele>302.0</ele><time>2026-04-12T09:46:30Z</time></trkpt><trkpt lat="45.823349640725674" lon="9.228584377133625"><ele>302.0</ele><time>2026-04-12T09:46:31Z</time></trkpt><trkpt lat="45.82341688385488" lon="9.22864946484912"><ele>302.0</ele><time>2026-04-12T09:46:32Z</time></trkpt><trkpt lat="45.82347810329555" lon="9.228686582948432"><ele>302.0</ele><time>2026-04-12T09:46:33Z</time></trkpt><trkpt lat="45.82356192166288" lon="9.228706208983617"><ele>302.0</ele><time>2026-04-12T09:46:34Z</time></trkpt><trkpt lat="45.82366147286156" lon="9.228712195198007"><ele>302.0</ele><time>2026-04-12T09:46:35Z</time></trkpt><trkpt lat="45.823752438182574" lon="9.22871483659854"><ele>302.0</ele><time>2026-04-12T09:46:36Z</time></trkpt><trkpt lat="45.82384524414856" lon="9.228716474250994"><ele>302.0</ele><time>2026-04-12T09:46:37Z</time></trkpt><trkpt lat="45.82394078589817" lon="9.228710890382887"><ele>302.0</ele><time>2026-04-12T09:46:38Z</time></trkpt><trkpt lat="45.824034735848876" lon="9.22870627099809"><ele>302.0</ele><time>2026-04-12T09:46:39Z</time></trkpt><trkpt lat="45.82412741594068" lon="9.228699739138447"><ele>302.0</ele><time>2026-04-12T09:46:40Z</time></trkpt><trkpt lat="45.82421377006075" lon="9.228699372462197"><ele>302.0</ele><time>2026-04-12T09:46:41Z</time></trkpt><trkpt lat="45.82429826994197" lon="9.228708880248346"><ele>302.0</ele><time>2026-04-12T09:46:42Z</time></trkpt><trkpt lat="45.824385929300064" lon="9.22871405837054"><ele>302.0</ele><time>2026-04-12T09:46:43Z</time></trkpt><trkpt lat="45.82448287501771" lon="9.228723949424452"><ele>302.0</ele><time>2026-04-12T09:46:44Z</time></trkpt><trkpt lat="45.824595734693006" lon="9.228735706599707"><ele>301.5</ele><time>2026-04-12T09:46:45Z</time></trkpt><trkpt lat="45.82471921455499" lon="9.228747423939282"><ele>301.0</ele><time>2026-04-12T09:46:46Z</time></trkpt><trkpt lat="45.82484356194117" lon="9.228759832318081"><ele>300.5</ele><time>2026-04-12T09:46:47Z</time></trkpt><trkpt lat="45.824970879513195" lon="9.228774206335446"><ele>300.0</ele><time>2026-04-12T09:46:48Z</time></trkpt><trkpt lat="45.82509567675135" lon="9.228783053943886"><ele>300.25</ele><time>2026-04-12T09:46:49Z</time></trkpt><trkpt lat="45.82521248895714" lon="9.228787992798502"><ele>300.5</ele><time>2026-04-12T09:46:50Z</time></trkpt><trkpt lat="45.825322950809365" lon="9.228772543874799"><ele>300.75</ele><time>2026-04-12T09:46:51Z</time></trkpt><trkpt lat="45.825424344489456" lon="9.228721157834569"><ele>301.0</ele><time>2026-04-12T09:46:52Z</time></trkpt><trkpt lat="45.82552398244353" lon="9.228640561257093"><ele>301.0</ele><time>2026-04-12T09:46:53Z</time></trkpt><trkpt lat="45.825611293297214" lon="9.228537244778314"><ele>301.0</ele><time>2026-04-12T09:46:54Z</time></trkpt><trkpt lat="45.825698074995096" lon="9.228425187994453"><ele>301.0</ele><time>2026-04-12T09:46:55Z</time></trkpt><trkpt lat="45.82578384893676" lon="9.228314338112927"><ele>301.0</ele><time>2026-04-12T09:46:56Z</time></trkpt><trkpt lat="45.8258674764694" lon="9.22821214399417"><ele>301.0</ele><time>2026-04-12T09:46:57Z</time></trkpt><trkpt lat="45.82595220591077" lon="9.22810845960169"><ele>301.0</ele><time>2026-04-12T09:46:58Z</time></trkpt><trkpt lat="45.826041307201045" lon="9.22799973696193"><ele>301.0</ele><time>2026-04-12T09:46:59Z</time></trkpt><trkpt lat="45.826133260928195" lon="9.227891127389304"><ele>301.0</ele><time>2026-04-12T09:47:00Z</time></trkpt><trkpt lat="45.826225677250505" lon="9.227778151340567"><ele>301.0</ele><time>2026-04-12T09:47:01Z</time></trkpt><trkpt lat="45.82631116991413" lon="9.22766831698544"><ele>301.0</ele><time>2026-04-12T09:47:02Z</time></trkpt><trkpt lat="45.826391970126956" lon="9.22756898394381"><ele>301.0</ele><time>2026-04-12T09:47:03Z</time></trkpt><trkpt lat="45.82648068428708" lon="9.227490974669038"><ele>301.0</ele><time>2026-04-12T09:47:04Z</time></trkpt><trkpt lat="45.82654162479524" lon="9.22738637838961"><ele>301.0</ele><time>2026-04-12T09:47:05Z</time></trkpt><trkpt lat="45.826612915057254" lon="9.227305890584763"><ele>301.0</ele><time>2026-04-12T09:47:06Z</time></trkpt><trkpt lat="45.8266855184125" lon="9.227230081797105"><ele>301.0</ele><time>2026-04-12T09:47:07Z</time></trkpt><trkpt lat="45.826753313277905" lon="9.227167460720096"><ele>301.0</ele><time>2026-04-12T09:47:08Z</time></trkpt><trkpt lat="45.82682280504893" lon="9.227113022791654"><ele>301.0</ele><time>2026-04-12T09:47:09Z</time></trkpt><trkpt lat="45.8269188032688" lon="9.227049160243128"><ele>301.0</ele><time>2026-04-12T09:47:11Z</time></trkpt><trkpt lat="45.82697853056862" lon="9.227002248281604"><ele>301.0</ele><time>2026-04-12T09:47:14Z</time></trkpt><trkpt lat="45.827049959173024" lon="9.226942725448861"><ele>301.0</ele><time>2026-04-12T09:47:44Z</time></trkpt><trkpt lat="45.827157721376246" lon="9.22686369504631"><ele>301.0</ele><time>2026-04-12T09:47:46Z</time></trkpt><trkpt lat="45.827221819880556" lon="9.226825118037059"><ele>301.0</ele><time>2026-04-12T09:47:47Z</time></trkpt><trkpt lat="45.827297773701204" lon="9.226812175720497"><ele>301.0</ele><time>2026-04-12T09:47:48Z</time></trkpt><trkpt lat="45.82737717368167" lon="9.226814566106407"><ele>301.0</ele><time>2026-04-12T09:47:49Z</time></trkpt><trkpt lat="45.8274621332931" lon="9.22682076763477"><ele>301.0</ele><time>2026-04-12T09:47:50Z</time></trkpt><trkpt lat="45.82755692045154" lon="9.22682815152495"><ele>301.40000000000003</ele><time>2026-04-12T09:47:51Z</time></trkpt><trkpt lat="45.82765323151578" lon="9.226834740034496"><ele>301.8</ele><time>2026-04-12T09:47:52Z</time></trkpt><trkpt lat="45.82775504833233" lon="9.226843578795668"><ele>302.20000000000005</ele><time>2026-04-12T09:47:53Z</time></trkpt><trkpt lat="45.827856103676794" lon="9.226852896025411"><ele>302.6</ele><time>2026-04-12T09:47:54Z</time></trkpt><trkpt lat="45.827974405049886" lon="9.226867868656218"><ele>303.0</ele><time>2026-04-12T09:47:55Z</time></trkpt><trkpt lat="45.82809430924428" lon="9.226892725319933"><ele>303.0</ele><time>2026-04-12T09:47:56Z</time></trkpt><trkpt lat="45.828220011226" lon="9.226932919454788"><ele>303.0</ele><time>2026-04-12T09:47:57Z</time></trkpt><trkpt lat="45.82834674681373" lon="9.226972150494099"><ele>303.0</ele><time>2026-04-12T09:47:58Z</time></trkpt><trkpt lat="45.82847602849766" lon="9.227002985166699"><ele>303.0</ele><time>2026-04-12T09:47:59Z</time></trkpt><trkpt lat="45.82860246768615" lon="9.227029427275442"><ele>303.5</ele><time>2026-04-12T09:48:00Z</time></trkpt><trkpt lat="45.82872656131251" lon="9.227044663701507"><ele>304.0</ele><time>2026-04-12T09:48:01Z</time></trkpt><trkpt lat="45.828837728946" lon="9.227043426112804"><ele>304.5</ele><time>2026-04-12T09:48:02Z</time></trkpt><trkpt lat="45.82895216175027" lon="9.227029277988397"><ele>305.0</ele><time>2026-04-12T09:48:03Z</time></trkpt><trkpt lat="45.829066682801255" lon="9.227021764076634"><ele>305.0</ele><time>2026-04-12T09:48:04Z</time></trkpt><trkpt lat="45.82917320044283" lon="9.2270111635501"><ele>305.0</ele><time>2026-04-12T09:48:05Z</time></trkpt><trkpt lat="45.82927983848901" lon="9.22697760522685"><ele>305.0</ele><time>2026-04-12T09:48:06Z</time></trkpt><trkpt lat="45.82937872702159" lon="9.22691586025139"><ele>305.0</ele><time>2026-04-12T09:48:07Z</time></trkpt><trkpt lat="45.829471416171984" lon="9.226830695385315"><ele>305.0</ele><time>2026-04-12T09:48:08Z</time></trkpt><trkpt lat="45.82955427125659" lon="9.226730003129655"><ele>306.8</ele><time>2026-04-12T09:48:09Z</time></trkpt><trkpt lat="45.82963815432819" lon="9.226620447496872"><ele>308.6</ele><time>2026-04-12T09:48:10Z</time></trkpt><trkpt lat="45.829726529515455" lon="9.226524634928365"><ele>310.4</ele><time>2026-04-12T09:48:11Z</time></trkpt><trkpt lat="45.829819215285035" lon="9.226462277010683"><ele>312.2</ele><time>2026-04-12T09:48:12Z</time></trkpt><trkpt lat="45.82992219217933" lon="9.226429142300706"><ele>314.0</ele><time>2026-04-12T09:48:13Z</time></trkpt><trkpt lat="45.83002994177744" lon="9.226425794803992"><ele>315.25</ele><time>2026-04-12T09:48:14Z</time></trkpt><trkpt lat="45.83014544872306" lon="9.226439792427943"><ele>316.5</ele><time>2026-04-12T09:48:15Z</time></trkpt><trkpt lat="45.830276529205506" lon="9.226455511434876"><ele>317.75</ele><time>2026-04-12T09:48:16Z</time></trkpt><trkpt lat="45.830403717313736" lon="9.22646305865395"><ele>319.0</ele><time>2026-04-12T09:48:17Z</time></trkpt><trkpt lat="45.83052552771805" lon="9.226466742929537"><ele>319.0</ele><time>2026-04-12T09:48:18Z</time></trkpt><trkpt lat="45.83064454087618" lon="9.226470308011674"><ele>319.0</ele><time>2026-04-12T09:48:19Z</time></trkpt><trkpt lat="45.83087334416566" lon="9.226483629240624"><ele>319.0</ele><time>2026-04-12T09:48:21Z</time></trkpt><trkpt lat="45.83095121270108" lon="9.226472066682952"><ele>319.0</ele><time>2026-04-12T09:48:22Z</time></trkpt><trkpt lat="45.83104379611696" lon="9.226476931013451"><ele>319.79999999999995</ele><time>2026-04-12T09:48:23Z</time></trkpt><trkpt lat="45.83114706983726" lon="9.226497834124897"><ele>320.59999999999997</ele><time>2026-04-12T09:48:24Z</time></trkpt><trkpt lat="45.83124877181975" lon="9.2265484836116"><ele>321.4</ele><time>2026-04-12T09:48:25Z</time></trkpt><trkpt lat="45.831352146989495" lon="9.226615242775523"><ele>322.2</ele><time>2026-04-12T09:48:26Z</time></trkpt><trkpt lat="45.83146001864382" lon="9.226699357653066"><ele>323.0</ele><time>2026-04-12T09:48:27Z</time></trkpt><trkpt lat="45.83156544182832" lon="9.226786826660014"><ele>323.0</ele><time>2026-04-12T09:48:28Z</time></trkpt><trkpt lat="45.83166350644982" lon="9.226883862334626"><ele>323.0</ele><time>2026-04-12T09:48:29Z</time></trkpt><trkpt lat="45.83174714206622" lon="9.226977580066976"><ele>323.0</ele><time>2026-04-12T09:48:30Z</time></trkpt><trkpt lat="45.83182589915585" lon="9.227056602988938"><ele>323.0</ele><time>2026-04-12T09:48:31Z</time></trkpt><trkpt lat="45.83189010306612" lon="9.227124828060461"><ele>323.0</ele><time>2026-04-12T09:48:32Z</time></trkpt><trkpt lat="45.83195463998307" lon="9.227181402387435"><ele>324.4</ele><time>2026-04-12T09:48:33Z</time></trkpt><trkpt lat="45.83204748520417" lon="9.227275230364086"><ele>325.79999999999995</ele><time>2026-04-12T09:48:35Z</time></trkpt><trkpt lat="45.83210725189484" lon="9.227339805190438"><ele>327.2</ele><time>2026-04-12T09:48:37Z</time></trkpt><trkpt lat="45.83217862222606" lon="9.227393681878597"><ele>328.6</ele><time>2026-04-12T09:48:40Z</time></trkpt><trkpt lat="45.83226075538502" lon="9.227442235492736"><ele>330.0</ele><time>2026-04-12T09:48:43Z</time></trkpt><trkpt lat="45.83237249342059" lon="9.227349492554774"><ele>330.0</ele><time>2026-04-12T09:48:45Z</time></trkpt><trkpt lat="45.83242738458182" lon="9.227255900254361"><ele>330.0</ele><time>2026-04-12T09:48:46Z</time></trkpt><trkpt lat="45.83248702685556" lon="9.227147132063427"><ele>330.0</ele><time>2026-04-12T09:48:47Z</time></trkpt><trkpt lat="45.83254548209926" lon="9.22701974296776"><ele>330.0</ele><time>2026-04-12T09:48:48Z</time></trkpt><trkpt lat="45.83260263733419" lon="9.226887730699747"><ele>330.0</ele><time>2026-04-12T09:48:49Z</time></trkpt><trkpt lat="45.83266349071769" lon="9.22675293603406"><ele>331.6</ele><time>2026-04-12T09:48:50Z</time></trkpt><trkpt lat="45.83271131082607" lon="9.22664566238617"><ele>333.2</ele><time>2026-04-12T09:48:51Z</time></trkpt><trkpt lat="45.83277812842037" lon="9.226559554463817"><ele>334.79999999999995</ele><time>2026-04-12T09:48:52Z</time></trkpt><trkpt lat="45.832856036738924" lon="9.226497561158697"><ele>336.4</ele><time>2026-04-12T09:48:53Z</time></trkpt><trkpt lat="45.832946618713045" lon="9.226472259455363"><ele>338.0</ele><time>2026-04-12T09:48:54Z</time></trkpt><trkpt lat="45.83304599317124" lon="9.22645955010905"><ele>338.0</ele><time>2026-04-12T09:48:55Z</time></trkpt><trkpt lat="45.83314668551138" lon="9.226469032269073"><ele>338.0</ele><time>2026-04-12T09:48:56Z</time></trkpt><trkpt lat="45.83325675557945" lon="9.226506007661479"><ele>338.0</ele><time>2026-04-12T09:48:57Z</time></trkpt><trkpt lat="45.833365865824675" lon="9.226563620955327"><ele>338.0</ele><time>2026-04-12T09:48:58Z</time></trkpt><trkpt lat="45.83347846900981" lon="9.226626898770832"><ele>337.59999999999997</ele><time>2026-04-12T09:48:59Z</time></trkpt><trkpt lat="45.83358873633504" lon="9.226686499334507"><ele>337.2</ele><time>2026-04-12T09:49:00Z</time></trkpt><trkpt lat="45.83368876174621" lon="9.226736961381338"><ele>336.8</ele><time>2026-04-12T09:49:01Z</time></trkpt><trkpt lat="45.83377569813543" lon="9.226776285862094"><ele>336.4</ele><time>2026-04-12T09:49:02Z</time></trkpt><trkpt lat="45.83389784020851" lon="9.226831832190273"><ele>336.0</ele><time>2026-04-12T09:49:04Z</time></trkpt><trkpt lat="45.83398777511177" lon="9.226852745984074"><ele>336.0</ele><time>2026-04-12T09:49:06Z</time></trkpt><trkpt lat="45.83406751225919" lon="9.226812202012841"><ele>336.0</ele><time>2026-04-12T09:49:08Z</time></trkpt><trkpt lat="45.83412461602293" lon="9.227015362712944"><ele>336.0</ele><time>2026-04-12T09:49:09Z</time></trkpt><trkpt lat="45.8341708607046" lon="9.227121801989012"><ele>336.0</ele><time>2026-04-12T09:49:10.001Z</time></trkpt><trkpt lat="45.834219021094796" lon="9.227246873913536"><ele>336.0</ele><time>2026-04-12T09:49:11.001Z</time></trkpt><trkpt lat="45.83427324094953" lon="9.227388320168641"><ele>334.0</ele><time>2026-04-12T09:49:12.001Z</time></trkpt><trkpt lat="45.834329043971735" lon="9.227536742666476"><ele>332.0</ele><time>2026-04-12T09:49:13.001Z</time></trkpt><trkpt lat="45.83438462745683" lon="9.227693497248572"><ele>330.0</ele><time>2026-04-12T09:49:14.001Z</time></trkpt><trkpt lat="45.83443944076468" lon="9.227866354210596"><ele>328.0</ele><time>2026-04-12T09:49:15.001Z</time></trkpt><trkpt lat="45.834485298366424" lon="9.22805720500287"><ele>328.0</ele><time>2026-04-12T09:49:16.001Z</time></trkpt><trkpt lat="45.83452461453954" lon="9.228269502234832"><ele>328.0</ele><time>2026-04-12T09:49:17.001Z</time></trkpt><trkpt lat="45.834561018555384" lon="9.228485573444221"><ele>328.0</ele><time>2026-04-12T09:49:18.001Z</time></trkpt><trkpt lat="45.83459770503135" lon="9.228710322841595"><ele>328.0</ele><time>2026-04-12T09:49:19.001Z</time></trkpt><trkpt lat="45.83463835815078" lon="9.22894407176642"><ele>328.0</ele><time>2026-04-12T09:49:20.001Z</time></trkpt><trkpt lat="45.83468316359146" lon="9.22918477925275"><ele>328.0</ele><time>2026-04-12T09:49:21.001Z</time></trkpt><trkpt lat="45.83472998376059" lon="9.229430725208292"><ele>328.3333333333333</ele><time>2026-04-12T09:49:22.001Z</time></trkpt><trkpt lat="45.83477545121868" lon="9.229681913199869"><ele>328.6666666666667</ele><time>2026-04-12T09:49:23.001Z</time></trkpt><trkpt lat="45.834824400037405" lon="9.229938956367775"><ele>329.0</ele><time>2026-04-12T09:49:24.001Z</time></trkpt><trkpt lat="45.8348698241426" lon="9.230189306479176"><ele>331.6666666666667</ele><time>2026-04-12T09:49:25.001Z</time></trkpt><trkpt lat="45.834912667465744" lon="9.23042564621334"><ele>334.3333333333333</ele><time>2026-04-12T09:49:26.001Z</time></trkpt><trkpt lat="45.8349505716367" lon="9.23065180535547"><ele>337.0</ele><time>2026-04-12T09:49:27.001Z</time></trkpt><trkpt lat="45.83498676330359" lon="9.23086686424994"><ele>338.75</ele><time>2026-04-12T09:49:28.001Z</time></trkpt><trkpt lat="45.835022345108946" lon="9.231078100847999"><ele>340.5</ele><time>2026-04-12T09:49:29.001Z</time></trkpt><trkpt lat="45.835057850540906" lon="9.231273843664173"><ele>342.25</ele><time>2026-04-12T09:49:30.001Z</time></trkpt><trkpt lat="45.83509068467309" lon="9.23145320616461"><ele>344.0</ele><time>2026-04-12T09:49:31.001Z</time></trkpt><trkpt lat="45.83511927150654" lon="9.231610608677403"><ele>340.5</ele><time>2026-04-12T09:49:32.001Z</time></trkpt><trkpt lat="45.83514791168764" lon="9.231765609365754"><ele>337.0</ele><time>2026-04-12T09:49:33.001Z</time></trkpt><trkpt lat="45.83517704558177" lon="9.231919381696834"><ele>333.5</ele><time>2026-04-12T09:49:34.001Z</time></trkpt><trkpt lat="45.835206654640906" lon="9.232079535306317"><ele>330.0</ele><time>2026-04-12T09:49:35.001Z</time></trkpt><trkpt lat="45.835232474143226" lon="9.232246615171274"><ele>330.75</ele><time>2026-04-12T09:49:36.001Z</time></trkpt><trkpt lat="45.83525410353607" lon="9.232420134684606"><ele>331.5</ele><time>2026-04-12T09:49:37.001Z</time></trkpt><trkpt lat="45.835267418790615" lon="9.232598880191073"><ele>332.25</ele><time>2026-04-12T09:49:38.001Z</time></trkpt><trkpt lat="45.8352803026792" lon="9.232783180145722"><ele>333.0</ele><time>2026-04-12T09:49:39.001Z</time></trkpt><trkpt lat="45.83530064316164" lon="9.232976547077127"><ele>334.25</ele><time>2026-04-12T09:49:40.001Z</time></trkpt><trkpt lat="45.835327643526185" lon="9.233177768760562"><ele>335.5</ele><time>2026-04-12T09:49:41.001Z</time></trkpt><trkpt lat="45.835350805604946" lon="9.233388698490907"><ele>336.75</ele><time>2026-04-12T09:49:42.001Z</time></trkpt><trkpt lat="45.83537417822285" lon="9.233605598096984"><ele>338.0</ele><time>2026-04-12T09:49:43.001Z</time></trkpt><trkpt lat="45.83540061503731" lon="9.233837510791806"><ele>340.6666666666667</ele><time>2026-04-12T09:49:44.001Z</time></trkpt><trkpt lat="45.83543071444083" lon="9.234068366668371"><ele>343.3333333333333</ele><time>2026-04-12T09:49:45.001Z</time></trkpt><trkpt lat="45.83547216275522" lon="9.234314680521166"><ele>346.0</ele><time>2026-04-12T09:49:46.001Z</time></trkpt><trkpt lat="45.835514338452825" lon="9.234564096457316"><ele>346.0</ele><time>2026-04-12T09:49:47.001Z</time></trkpt><trkpt lat="45.83555666036955" lon="9.234815758492124"><ele>346.0</ele><time>2026-04-12T09:49:48.001Z</time></trkpt><trkpt lat="45.83559413409838" lon="9.235080584209705"><ele>346.0</ele><time>2026-04-12T09:49:49.001Z</time></trkpt><trkpt lat="45.835628770238735" lon="9.23535103244681"><ele>346.0</ele><time>2026-04-12T09:49:50.001Z</time></trkpt><trkpt lat="45.83566066810894" lon="9.235621762688915"><ele>346.0</ele><time>2026-04-12T09:49:51.001Z</time></trkpt><trkpt lat="45.83568713499192" lon="9.23588474681851"><ele>346.0</ele><time>2026-04-12T09:49:52.001Z</time></trkpt><trkpt lat="45.83571430173397" lon="9.236139012717096"><ele>346.3333333333333</ele><time>2026-04-12T09:49:53.001Z</time></trkpt><trkpt lat="45.83574612528471" lon="9.236380249634921"><ele>346.6666666666667</ele><time>2026-04-12T09:49:54.001Z</time></trkpt><trkpt lat="45.835793974182046" lon="9.23661254610832"><ele>347.0</ele><time>2026-04-12T09:49:55.001Z</time></trkpt><trkpt lat="45.835867224926055" lon="9.236830160242546"><ele>348.33333333333337</ele><time>2026-04-12T09:49:56.001Z</time></trkpt><trkpt lat="45.835954610176316" lon="9.23705017458638"><ele>349.6666666666667</ele><time>2026-04-12T09:49:57.001Z</time></trkpt><trkpt lat="45.83603986329788" lon="9.237269946519213"><ele>351.0</ele><time>2026-04-12T09:49:58.001Z</time></trkpt><trkpt lat="45.836122011726296" lon="9.237498555913827"><ele>351.0</ele><time>2026-04-12T09:49:59.001Z</time></trkpt><trkpt lat="45.83620424329858" lon="9.23772915504375"><ele>351.0</ele><time>2026-04-12T09:50:00.001Z</time></trkpt><trkpt lat="45.83628634131491" lon="9.237955236260195"><ele>351.0</ele><time>2026-04-12T09:50:01.001Z</time></trkpt><trkpt lat="45.836368243247186" lon="9.238184849027673"><ele>351.0</ele><time>2026-04-12T09:50:02.001Z</time></trkpt><trkpt lat="45.83645137356815" lon="9.238416684177519"><ele>351.0</ele><time>2026-04-12T09:50:03.001Z</time></trkpt><trkpt lat="45.83653917814484" lon="9.238646855033602"><ele>351.0</ele><time>2026-04-12T09:50:04.001Z</time></trkpt><trkpt lat="45.83662635543873" lon="9.238875238808811"><ele>349.6666666666667</ele><time>2026-04-12T09:50:05.001Z</time></trkpt><trkpt lat="45.836710313846126" lon="9.239107400103238"><ele>348.33333333333337</ele><time>2026-04-12T09:50:06.001Z</time></trkpt><trkpt lat="45.836785584257086" lon="9.23934525057008"><ele>347.0</ele><time>2026-04-12T09:50:07.001Z</time></trkpt><trkpt lat="45.836852568606666" lon="9.239585088375785"><ele>347.0</ele><time>2026-04-12T09:50:08.001Z</time></trkpt><trkpt lat="45.836909327366115" lon="9.239818720809874"><ele>347.0</ele><time>2026-04-12T09:50:09.001Z</time></trkpt><trkpt lat="45.836956522228725" lon="9.240035887813448"><ele>347.0</ele><time>2026-04-12T09:50:10.001Z</time></trkpt><trkpt lat="45.83700218506122" lon="9.240256525775335"><ele>347.0</ele><time>2026-04-12T09:50:11Z</time></trkpt><trkpt lat="45.83704528329509" lon="9.240460113815294"><ele>347.0</ele><time>2026-04-12T09:50:12Z</time></trkpt><trkpt lat="45.83708798758938" lon="9.240654899936587"><ele>347.0</ele><time>2026-04-12T09:50:13Z</time></trkpt><trkpt lat="45.837133863216664" lon="9.24084111031807"><ele>347.0</ele><time>2026-04-12T09:50:14Z</time></trkpt><trkpt lat="45.83718112573856" lon="9.241020436182982"><ele>345.5</ele><time>2026-04-12T09:50:15Z</time></trkpt><trkpt lat="45.83723447877136" lon="9.241199788411244"><ele>344.0</ele><time>2026-04-12T09:50:16Z</time></trkpt><trkpt lat="45.83729435760391" lon="9.241375069134076"><ele>342.5</ele><time>2026-04-12T09:50:17Z</time></trkpt><trkpt lat="45.83736111233121" lon="9.241547380962976"><ele>341.0</ele><time>2026-04-12T09:50:18Z</time></trkpt><trkpt lat="45.83743509072864" lon="9.241710975350207"><ele>341.0</ele><time>2026-04-12T09:50:19Z</time></trkpt><trkpt lat="45.83751108490839" lon="9.241873881158858"><ele>341.0</ele><time>2026-04-12T09:50:20Z</time></trkpt><trkpt lat="45.837590883254634" lon="9.242029822025758"><ele>341.0</ele><time>2026-04-12T09:50:21Z</time></trkpt><trkpt lat="45.83767366774876" lon="9.242188290101195"><ele>341.0</ele><time>2026-04-12T09:50:22Z</time></trkpt><trkpt lat="45.83776018053281" lon="9.242337427630952"><ele>341.25</ele><time>2026-04-12T09:50:23Z</time></trkpt><trkpt lat="45.83784902748554" lon="9.24247638730607"><ele>341.5</ele><time>2026-04-12T09:50:24Z</time></trkpt><trkpt lat="45.837940158362876" lon="9.242597376867044"><ele>341.75</ele><time>2026-04-12T09:50:25Z</time></trkpt><trkpt lat="45.83803658845201" lon="9.242702990040751"><ele>342.0</ele><time>2026-04-12T09:50:26Z</time></trkpt><trkpt lat="45.83813086421673" lon="9.242810437576779"><ele>342.0</ele><time>2026-04-12T09:50:27Z</time></trkpt><trkpt lat="45.838218188891524" lon="9.242927089170992"><ele>342.0</ele><time>2026-04-12T09:50:28Z</time></trkpt><trkpt lat="45.83830035997977" lon="9.24305098379537"><ele>342.0</ele><time>2026-04-12T09:50:29Z</time></trkpt><trkpt lat="45.838378422105926" lon="9.243184844967045"><ele>342.0</ele><time>2026-04-12T09:50:30Z</time></trkpt><trkpt lat="45.83844388558142" lon="9.243330151613277"><ele>342.25</ele><time>2026-04-12T09:50:31Z</time></trkpt><trkpt lat="45.83849330903804" lon="9.243495982197377"><ele>342.5</ele><time>2026-04-12T09:50:32Z</time></trkpt><trkpt lat="45.8385272379489" lon="9.243676692307938"><ele>342.75</ele><time>2026-04-12T09:50:33Z</time></trkpt><trkpt lat="45.83855334156114" lon="9.243867728451654"><ele>343.0</ele><time>2026-04-12T09:50:34Z</time></trkpt><trkpt lat="45.83857659858444" lon="9.244049310528347"><ele>343.0</ele><time>2026-04-12T09:50:35Z</time></trkpt><trkpt lat="45.83860645785781" lon="9.244239998990805"><ele>343.0</ele><time>2026-04-12T09:50:36Z</time></trkpt><trkpt lat="45.83863949778547" lon="9.24443887027341"><ele>343.0</ele><time>2026-04-12T09:50:37Z</time></trkpt><trkpt lat="45.83867664043081" lon="9.244641545217844"><ele>343.0</ele><time>2026-04-12T09:50:38Z</time></trkpt><trkpt lat="45.8387144757635" lon="9.244847523051336"><ele>343.66666666666663</ele><time>2026-04-12T09:50:39Z</time></trkpt><trkpt lat="45.83874838590823" lon="9.245058290406652"><ele>344.3333333333333</ele><time>2026-04-12T09:50:40Z</time></trkpt><trkpt lat="45.83878732053364" lon="9.245267071531394"><ele>345.0</ele><time>2026-04-12T09:50:41Z</time></trkpt><trkpt lat="45.838833855384436" lon="9.245477009918204"><ele>346.0</ele><time>2026-04-12T09:50:42Z</time></trkpt><trkpt lat="45.83888768759756" lon="9.245687301546761"><ele>347.0</ele><time>2026-04-12T09:50:43Z</time></trkpt><trkpt lat="45.8389475400127" lon="9.245898138007247"><ele>348.0</ele><time>2026-04-12T09:50:44Z</time></trkpt><trkpt lat="45.839016859017036" lon="9.24610701262405"><ele>348.0</ele><time>2026-04-12T09:50:45Z</time></trkpt><trkpt lat="45.83909013000204" lon="9.246313623280813"><ele>348.0</ele><time>2026-04-12T09:50:46Z</time></trkpt><trkpt lat="45.83917003790533" lon="9.246507489208167"><ele>348.0</ele><time>2026-04-12T09:50:47Z</time></trkpt><trkpt lat="45.839244894808765" lon="9.246687077304436"><ele>348.25</ele><time>2026-04-12T09:50:48Z</time></trkpt><trkpt lat="45.839317746225284" lon="9.246863064394445"><ele>348.5</ele><time>2026-04-12T09:50:49Z</time></trkpt><trkpt lat="45.83938146177512" lon="9.247031725850007"><ele>348.75</ele><time>2026-04-12T09:50:50Z</time></trkpt><trkpt lat="45.83944715918623" lon="9.24719253673625"><ele>349.0</ele><time>2026-04-12T09:50:51Z</time></trkpt><trkpt lat="45.83950690543556" lon="9.247341020213728"><ele>349.79999999999995</ele><time>2026-04-12T09:50:52.001Z</time></trkpt><trkpt lat="45.83956054623595" lon="9.247464174584925"><ele>350.59999999999997</ele><time>2026-04-12T09:50:53.001Z</time></trkpt><trkpt lat="45.83960987661408" lon="9.247587603064149"><ele>351.4</ele><time>2026-04-12T09:50:54.001Z</time></trkpt><trkpt lat="45.83965177262815" lon="9.247710563647605"><ele>352.2</ele><time>2026-04-12T09:50:55.001Z</time></trkpt><trkpt lat="45.83968593943898" lon="9.24783762711365"><ele>353.0</ele><time>2026-04-12T09:50:56.001Z</time></trkpt><trkpt lat="45.83972408000278" lon="9.247954511936538"><ele>353.0</ele><time>2026-04-12T09:50:57.001Z</time></trkpt><trkpt lat="45.839759597637155" lon="9.248065388709003"><ele>353.0</ele><time>2026-04-12T09:50:58.001Z</time></trkpt><trkpt lat="45.8397924693239" lon="9.248173921255415"><ele>353.0</ele><time>2026-04-12T09:50:59.001Z</time></trkpt><trkpt lat="45.83982695010676" lon="9.248279323121062"><ele>353.0</ele><time>2026-04-12T09:51:00.001Z</time></trkpt><trkpt lat="45.839868705043415" lon="9.248391541252785"><ele>353.0</ele><time>2026-04-12T09:51:01.001Z</time></trkpt><trkpt lat="45.83991791305421" lon="9.248507818564187"><ele>353.0</ele><time>2026-04-12T09:51:02.001Z</time></trkpt><trkpt lat="45.83997901398757" lon="9.248619489491041"><ele>353.0</ele><time>2026-04-12T09:51:03.001Z</time></trkpt><trkpt lat="45.840039608027475" lon="9.248733322884304"><ele>353.0</ele><time>2026-04-12T09:51:04.001Z</time></trkpt><trkpt lat="45.84009595538265" lon="9.248852854664328"><ele>353.0</ele><time>2026-04-12T09:51:05.001Z</time></trkpt><trkpt lat="45.84015262243036" lon="9.24897729499677"><ele>353.0</ele><time>2026-04-12T09:51:06.001Z</time></trkpt><trkpt lat="45.84020960760453" lon="9.249104913976687"><ele>353.0</ele><time>2026-04-12T09:51:07.001Z</time></trkpt><trkpt lat="45.84026437839762" lon="9.249233874047373"><ele>352.79999999999995</ele><time>2026-04-12T09:51:08.001Z</time></trkpt><trkpt lat="45.840320162419985" lon="9.249364577531942"><ele>352.6</ele><time>2026-04-12T09:51:09.001Z</time></trkpt><trkpt lat="45.84037578030066" lon="9.249499233014367"><ele>352.4</ele><time>2026-04-12T09:51:10.001Z</time></trkpt><trkpt lat="45.84042911995419" lon="9.249631797351276"><ele>352.20000000000005</ele><time>2026-04-12T09:51:11.001Z</time></trkpt><trkpt lat="45.8404819221965" lon="9.249766040178649"><ele>352.0</ele><time>2026-04-12T09:51:12.001Z</time></trkpt><trkpt lat="45.84053520666012" lon="9.249891796202341"><ele>352.0</ele><time>2026-04-12T09:51:13.001Z</time></trkpt><trkpt lat="45.84058549723459" lon="9.250009194080143"><ele>352.0</ele><time>2026-04-12T09:51:14.001Z</time></trkpt><trkpt lat="45.840632767284625" lon="9.25011950248269"><ele>352.0</ele><time>2026-04-12T09:51:15.001Z</time></trkpt><trkpt lat="45.84068112581854" lon="9.250232511918664"><ele>352.0</ele><time>2026-04-12T09:51:16.001Z</time></trkpt><trkpt lat="45.840729241144366" lon="9.250343566244084"><ele>352.0</ele><time>2026-04-12T09:51:17.001Z</time></trkpt><trkpt lat="45.84077900521578" lon="9.250453126016943"><ele>352.0</ele><time>2026-04-12T09:51:18.001Z</time></trkpt><trkpt lat="45.840832383168674" lon="9.250567241768163"><ele>352.0</ele><time>2026-04-12T09:51:19.001Z</time></trkpt><trkpt lat="45.840939174898544" lon="9.250806075371244"><ele>352.0</ele><time>2026-04-12T09:51:21.001Z</time></trkpt><trkpt lat="45.84099932016201" lon="9.250927903543243"><ele>352.0</ele><time>2026-04-12T09:51:22.001Z</time></trkpt><trkpt lat="45.84106622510751" lon="9.251047772635726"><ele>351.75</ele><time>2026-04-12T09:51:23.001Z</time></trkpt><trkpt lat="45.84114046692567" lon="9.251166916410314"><ele>351.5</ele><time>2026-04-12T09:51:24.001Z</time></trkpt><trkpt lat="45.84122277158166" lon="9.25128579218082"><ele>351.25</ele><time>2026-04-12T09:51:25.001Z</time></trkpt><trkpt lat="45.841310136758835" lon="9.251402969993961"><ele>351.0</ele><time>2026-04-12T09:51:26.001Z</time></trkpt><trkpt lat="45.84139774975918" lon="9.251519687698458"><ele>351.75</ele><time>2026-04-12T09:51:27.001Z</time></trkpt><trkpt lat="45.84148968113946" lon="9.251632289660987"><ele>352.5</ele><time>2026-04-12T09:51:28.001Z</time></trkpt><trkpt lat="45.84158335696235" lon="9.251748982542823"><ele>353.25</ele><time>2026-04-12T09:51:29.001Z</time></trkpt><trkpt lat="45.841677569311145" lon="9.251870823953197"><ele>354.0</ele><time>2026-04-12T09:51:30.001Z</time></trkpt><trkpt lat="45.84177062703129" lon="9.25198592772755"><ele>354.0</ele><time>2026-04-12T09:51:31.001Z</time></trkpt><trkpt lat="45.84185868698059" lon="9.252099729460738"><ele>354.0</ele><time>2026-04-12T09:51:32.001Z</time></trkpt><trkpt lat="45.8419409977183" lon="9.252207557854472"><ele>354.0</ele><time>2026-04-12T09:51:33.001Z</time></trkpt><trkpt lat="45.84202173365307" lon="9.25231004074356"><ele>354.0</ele><time>2026-04-12T09:51:34.001Z</time></trkpt><trkpt lat="45.84210241146679" lon="9.25241144015698"><ele>354.0</ele><time>2026-04-12T09:51:35.001Z</time></trkpt><trkpt lat="45.84218449958475" lon="9.252515668088165"><ele>353.79999999999995</ele><time>2026-04-12T09:51:36.001Z</time></trkpt><trkpt lat="45.842266795733394" lon="9.252614897106941"><ele>353.59999999999997</ele><time>2026-04-12T09:51:37.001Z</time></trkpt><trkpt lat="45.842349036131885" lon="9.25272275300237"><ele>353.4</ele><time>2026-04-12T09:51:38.001Z</time></trkpt><trkpt lat="45.84242727361341" lon="9.25284013213371"><ele>353.2</ele><time>2026-04-12T09:51:39.001Z</time></trkpt><trkpt lat="45.8425010483525" lon="9.252962517862956"><ele>353.0</ele><time>2026-04-12T09:51:40.001Z</time></trkpt><trkpt lat="45.84256572562957" lon="9.253088389186672"><ele>353.0</ele><time>2026-04-12T09:51:41.001Z</time></trkpt><trkpt lat="45.842627902305196" lon="9.253209419267156"><ele>353.0</ele><time>2026-04-12T09:51:42.001Z</time></trkpt><trkpt lat="45.84268724491178" lon="9.253329993029048"><ele>353.0</ele><time>2026-04-12T09:51:43.001Z</time></trkpt><trkpt lat="45.842748667007235" lon="9.253453939569077"><ele>353.0</ele><time>2026-04-12T09:51:44.001Z</time></trkpt><trkpt lat="45.84281885631674" lon="9.253571669203177"><ele>353.0</ele><time>2026-04-12T09:51:45.001Z</time></trkpt><trkpt lat="45.84290207531703" lon="9.253674116796189"><ele>354.0</ele><time>2026-04-12T09:51:46.001Z</time></trkpt><trkpt lat="45.84300614694299" lon="9.253761047859982"><ele>355.0</ele><time>2026-04-12T09:51:47.001Z</time></trkpt><trkpt lat="45.84311613251488" lon="9.253833765350509"><ele>356.0</ele><time>2026-04-12T09:51:48.001Z</time></trkpt><trkpt lat="45.84323197221317" lon="9.253919376502926"><ele>357.0</ele><time>2026-04-12T09:51:49.001Z</time></trkpt><trkpt lat="45.84335034994276" lon="9.25398651034457"><ele>357.0</ele><time>2026-04-12T09:51:50.001Z</time></trkpt><trkpt lat="45.84346091650047" lon="9.254108190413564"><ele>357.0</ele><time>2026-04-12T09:51:51.001Z</time></trkpt><trkpt lat="45.8435677711101" lon="9.254207663067449"><ele>357.0</ele><time>2026-04-12T09:51:52.001Z</time></trkpt><trkpt lat="45.84367869959177" lon="9.254316710922023"><ele>357.0</ele><time>2026-04-12T09:51:53.001Z</time></trkpt><trkpt lat="45.84379499376253" lon="9.254441049705594"><ele>357.0</ele><time>2026-04-12T09:51:54.001Z</time></trkpt><trkpt lat="45.84391272472219" lon="9.254566556869518"><ele>357.0</ele><time>2026-04-12T09:51:55.001Z</time></trkpt><trkpt lat="45.84402551216268" lon="9.25469611003864"><ele>357.0</ele><time>2026-04-12T09:51:56.001Z</time></trkpt><trkpt lat="45.844140374826104" lon="9.25482224277696"><ele>357.0</ele><time>2026-04-12T09:51:57.001Z</time></trkpt><trkpt lat="45.84424816329475" lon="9.254944261572927"><ele>357.75</ele><time>2026-04-12T09:51:58.001Z</time></trkpt><trkpt lat="45.84435399679151" lon="9.255058721942104"><ele>358.5</ele><time>2026-04-12T09:51:59.001Z</time></trkpt><trkpt lat="45.844456526854316" lon="9.25516922842934"><ele>359.25</ele><time>2026-04-12T09:52:00.001Z</time></trkpt><trkpt lat="45.844563039013266" lon="9.255280037504916"><ele>360.0</ele><time>2026-04-12T09:52:01.001Z</time></trkpt><trkpt lat="45.84466972161709" lon="9.255391468167645"><ele>360.0</ele><time>2026-04-12T09:52:02.001Z</time></trkpt><trkpt lat="45.844774028997605" lon="9.255505363907222"><ele>360.0</ele><time>2026-04-12T09:52:03.001Z</time></trkpt><trkpt lat="45.844879581237784" lon="9.255621813809357"><ele>360.0</ele><time>2026-04-12T09:52:04.001Z</time></trkpt><trkpt lat="45.844984569180326" lon="9.255733803978956"><ele>360.0</ele><time>2026-04-12T09:52:05.001Z</time></trkpt><trkpt lat="45.845088501567496" lon="9.255846402631155"><ele>360.0</ele><time>2026-04-12T09:52:06.001Z</time></trkpt><trkpt lat="45.8451858975668" lon="9.255953798501501"><ele>360.0</ele><time>2026-04-12T09:52:07.001Z</time></trkpt><trkpt lat="45.845275280190634" lon="9.256054765137025"><ele>360.0</ele><time>2026-04-12T09:52:08.001Z</time></trkpt><trkpt lat="45.8453497819709" lon="9.256136481305406"><ele>360.0</ele><time>2026-04-12T09:52:09.001Z</time></trkpt><trkpt lat="45.84541388203913" lon="9.256203985371352"><ele>360.0</ele><time>2026-04-12T09:52:10.001Z</time></trkpt><trkpt lat="45.845468564583264" lon="9.256261849432526"><ele>360.0</ele><time>2026-04-12T09:52:11.001Z</time></trkpt><trkpt lat="45.84551935039054" lon="9.256318205104426"><ele>360.0</ele><time>2026-04-12T09:52:12.001Z</time></trkpt><trkpt lat="45.84556466272036" lon="9.25638274228506"><ele>360.0</ele><time>2026-04-12T09:52:13.001Z</time></trkpt><trkpt lat="45.84560100236334" lon="9.256462769598464"><ele>360.0</ele><time>2026-04-12T09:52:14.001Z</time></trkpt><trkpt lat="45.845641039349886" lon="9.256533065848279"><ele>360.0</ele><time>2026-04-12T09:52:15.001Z</time></trkpt><trkpt lat="45.84570219800456" lon="9.256584278527004"><ele>360.0</ele><time>2026-04-12T09:52:16.001Z</time></trkpt><trkpt lat="45.845776848849454" lon="9.256629060078767"><ele>360.0</ele><time>2026-04-12T09:52:17.001Z</time></trkpt><trkpt lat="45.84585775710354" lon="9.256684986862535"><ele>360.2</ele><time>2026-04-12T09:52:18.001Z</time></trkpt><trkpt lat="45.845929512463734" lon="9.256758793442986"><ele>360.4</ele><time>2026-04-12T09:52:19.001Z</time></trkpt><trkpt lat="45.846003844120844" lon="9.25684642090803"><ele>360.6</ele><time>2026-04-12T09:52:20.001Z</time></trkpt><trkpt lat="45.846084138828786" lon="9.256939736900863"><ele>360.8</ele><time>2026-04-12T09:52:21.001Z</time></trkpt><trkpt lat="45.84616888018249" lon="9.257031477792339"><ele>361.0</ele><time>2026-04-12T09:52:22.001Z</time></trkpt><trkpt lat="45.8462580513037" lon="9.257125875536309"><ele>361.5</ele><time>2026-04-12T09:52:23.001Z</time></trkpt><trkpt lat="45.846350942726026" lon="9.257225663181941"><ele>362.0</ele><time>2026-04-12T09:52:24.001Z</time></trkpt><trkpt lat="45.846447361928675" lon="9.25732885933578"><ele>362.5</ele><time>2026-04-12T09:52:25.001Z</time></trkpt><trkpt lat="45.846542535783676" lon="9.257433984474392"><ele>363.0</ele><time>2026-04-12T09:52:26.001Z</time></trkpt><trkpt lat="45.84663526370132" lon="9.25754216793537"><ele>363.5</ele><time>2026-04-12T09:52:27.001Z</time></trkpt><trkpt lat="45.84672973805605" lon="9.257652184015825"><ele>364.0</ele><time>2026-04-12T09:52:28.001Z</time></trkpt><trkpt lat="45.846823449463514" lon="9.257769786673721"><ele>364.5</ele><time>2026-04-12T09:52:29.001Z</time></trkpt><trkpt lat="45.84691589656531" lon="9.257896635685707"><ele>365.0</ele><time>2026-04-12T09:52:30.001Z</time></trkpt><trkpt lat="45.84700210887378" lon="9.258030883369578"><ele>366.33333333333337</ele><time>2026-04-12T09:52:31.001Z</time></trkpt><trkpt lat="45.84707591135438" lon="9.258198336984579"><ele>367.6666666666667</ele><time>2026-04-12T09:52:32.001Z</time></trkpt><trkpt lat="45.84716805470714" lon="9.258376187169803"><ele>369.0</ele><time>2026-04-12T09:52:33.001Z</time></trkpt><trkpt lat="45.8472695292066" lon="9.258582911132399"><ele>369.0</ele><time>2026-04-12T09:52:34.001Z</time></trkpt><trkpt lat="45.84737771216678" lon="9.258811143683364"><ele>369.0</ele><time>2026-04-12T09:52:35.001Z</time></trkpt><trkpt lat="45.84749940627452" lon="9.25906720364206"><ele>369.0</ele><time>2026-04-12T09:52:36.001Z</time></trkpt><trkpt lat="45.847636269942996" lon="9.259354614547657"><ele>368.0</ele><time>2026-04-12T09:52:37.001Z</time></trkpt><trkpt lat="45.84778533365547" lon="9.259639887457325"><ele>367.0</ele><time>2026-04-12T09:52:38.001Z</time></trkpt><trkpt lat="45.847914890667816" lon="9.259932649379055"><ele>366.3333333333333</ele><time>2026-04-12T09:52:39.001Z</time></trkpt><trkpt lat="45.84803281120016" lon="9.26018846338944"><ele>365.6666666666667</ele><time>2026-04-12T09:52:40.001Z</time></trkpt><trkpt lat="45.84815348325245" lon="9.260437656191568"><ele>365.0</ele><time>2026-04-12T09:52:41.001Z</time></trkpt><trkpt lat="45.84826912048307" lon="9.260684034617373"><ele>367.0</ele><time>2026-04-12T09:52:42.001Z</time></trkpt><trkpt lat="45.84838022756435" lon="9.260919047272361"><ele>369.0</ele><time>2026-04-12T09:52:43.001Z</time></trkpt><trkpt lat="45.84849156207541" lon="9.261151770874973"><ele>371.0</ele><time>2026-04-12T09:52:44.001Z</time></trkpt><trkpt lat="45.84859801981596" lon="9.261378477485335"><ele>371.0</ele><time>2026-04-12T09:52:45.001Z</time></trkpt><trkpt lat="45.84870529998638" lon="9.261606387056986"><ele>371.0</ele><time>2026-04-12T09:52:46.001Z</time></trkpt><trkpt lat="45.84881034711889" lon="9.261822906111739"><ele>371.0</ele><time>2026-04-12T09:52:47.001Z</time></trkpt><trkpt lat="45.84891998664503" lon="9.262033720039138"><ele>371.0</ele><time>2026-04-12T09:52:48.001Z</time></trkpt><trkpt lat="45.849038580135435" lon="9.262239727740718"><ele>371.0</ele><time>2026-04-12T09:52:49.001Z</time></trkpt><trkpt lat="45.84916477432803" lon="9.262432319294879"><ele>371.0</ele><time>2026-04-12T09:52:50.001Z</time></trkpt><trkpt lat="45.84929804568566" lon="9.262612103270376"><ele>371.33333333333337</ele><time>2026-04-12T09:52:51.001Z</time></trkpt><trkpt lat="45.849435435969085" lon="9.262788454186504"><ele>371.6666666666667</ele><time>2026-04-12T09:52:52.001Z</time></trkpt><trkpt lat="45.84957496900866" lon="9.262967112991394"><ele>372.0</ele><time>2026-04-12T09:52:53.001Z</time></trkpt><trkpt lat="45.84971470459728" lon="9.263149487188441"><ele>374.6666666666667</ele><time>2026-04-12T09:52:54.001Z</time></trkpt><trkpt lat="45.849854675865444" lon="9.263336505923347"><ele>377.33333333333337</ele><time>2026-04-12T09:52:55.001Z</time></trkpt><trkpt lat="45.84999094338327" lon="9.263530976012337"><ele>380.0</ele><time>2026-04-12T09:52:56.001Z</time></trkpt><trkpt lat="45.850120606503566" lon="9.263729747218948"><ele>379.0</ele><time>2026-04-12T09:52:57.001Z</time></trkpt><trkpt lat="45.85024224414053" lon="9.263930121352107"><ele>378.0</ele><time>2026-04-12T09:52:58.001Z</time></trkpt><trkpt lat="45.850367349835075" lon="9.264139979709451"><ele>377.0</ele><time>2026-04-12T09:52:59.001Z</time></trkpt><trkpt lat="45.85049079912963" lon="9.26434079619774"><ele>377.0</ele><time>2026-04-12T09:53:00.001Z</time></trkpt><trkpt lat="45.85061618926113" lon="9.264545736128985"><ele>377.0</ele><time>2026-04-12T09:53:01.001Z</time></trkpt><trkpt lat="45.85074003832164" lon="9.264748905886869"><ele>377.0</ele><time>2026-04-12T09:53:02.001Z</time></trkpt><trkpt lat="45.850866435654694" lon="9.264951773883894"><ele>377.0</ele><time>2026-04-12T09:53:03.001Z</time></trkpt><trkpt lat="45.850988861473766" lon="9.265152496587955"><ele>377.0</ele><time>2026-04-12T09:53:04.001Z</time></trkpt><trkpt lat="45.85111361897926" lon="9.265358826302974"><ele>377.0</ele><time>2026-04-12T09:53:05.001Z</time></trkpt><trkpt lat="45.85123717284957" lon="9.265563977266153"><ele>378.0</ele><time>2026-04-12T09:53:06.001Z</time></trkpt><trkpt lat="45.85135901139735" lon="9.265769959471658"><ele>379.0</ele><time>2026-04-12T09:53:07.001Z</time></trkpt><trkpt lat="45.85148381465111" lon="9.265973908497745"><ele>380.0</ele><time>2026-04-12T09:53:08.001Z</time></trkpt><trkpt lat="45.85161200664255" lon="9.266184872165974"><ele>380.0</ele><time>2026-04-12T09:53:09.001Z</time></trkpt><trkpt lat="45.85174010165521" lon="9.26639415837206"><ele>380.0</ele><time>2026-04-12T09:53:10.001Z</time></trkpt><trkpt lat="45.851868065617445" lon="9.266604579707684"><ele>380.0</ele><time>2026-04-12T09:53:11.001Z</time></trkpt><trkpt lat="45.851992608746315" lon="9.266811992586401"><ele>380.0</ele><time>2026-04-12T09:53:12.001Z</time></trkpt><trkpt lat="45.852107064923686" lon="9.26701798113539"><ele>380.0</ele><time>2026-04-12T09:53:13.001Z</time></trkpt><trkpt lat="45.85220949873878" lon="9.267216493729046"><ele>380.0</ele><time>2026-04-12T09:53:14.001Z</time></trkpt><trkpt lat="45.852306533846296" lon="9.267408045942577"><ele>381.6666666666667</ele><time>2026-04-12T09:53:15.001Z</time></trkpt><trkpt lat="45.85240078136877" lon="9.267593693406013"><ele>383.33333333333337</ele><time>2026-04-12T09:53:16.001Z</time></trkpt><trkpt lat="45.85249528207068" lon="9.267778515438943"><ele>385.0</ele><time>2026-04-12T09:53:17.001Z</time></trkpt><trkpt lat="45.85259332556892" lon="9.267963603766383"><ele>384.75</ele><time>2026-04-12T09:53:18.001Z</time></trkpt><trkpt lat="45.85268388870787" lon="9.26814304641184"><ele>384.5</ele><time>2026-04-12T09:53:19.001Z</time></trkpt><trkpt lat="45.852770115560794" lon="9.268316838133254"><ele>384.25</ele><time>2026-04-12T09:53:20.001Z</time></trkpt><trkpt lat="45.852851345282176" lon="9.268481420894881"><ele>384.0</ele><time>2026-04-12T09:53:21.001Z</time></trkpt><trkpt lat="45.85292939001581" lon="9.268638060191426"><ele>384.0</ele><time>2026-04-12T09:53:22.001Z</time></trkpt><trkpt lat="45.853001811353266" lon="9.268786136092325"><ele>384.0</ele><time>2026-04-12T09:53:23.001Z</time></trkpt><trkpt lat="45.85306317623344" lon="9.268937201924578"><ele>384.0</ele><time>2026-04-12T09:53:24.001Z</time></trkpt><trkpt lat="45.85311588675326" lon="9.269090784968203"><ele>384.0</ele><time>2026-04-12T09:53:25.001Z</time></trkpt><trkpt lat="45.85315985841318" lon="9.269258251847521"><ele>384.5</ele><time>2026-04-12T09:53:26.001Z</time></trkpt><trkpt lat="45.85319285977624" lon="9.269422843845875"><ele>385.0</ele><time>2026-04-12T09:53:27.001Z</time></trkpt><trkpt lat="45.85321341219644" lon="9.269590882222255"><ele>385.5</ele><time>2026-04-12T09:53:28.001Z</time></trkpt><trkpt lat="45.85322379912317" lon="9.269763635782152"><ele>386.0</ele><time>2026-04-12T09:53:29.001Z</time></trkpt><trkpt lat="45.85322512242854" lon="9.26994101097713"><ele>387.25</ele><time>2026-04-12T09:53:30.001Z</time></trkpt><trkpt lat="45.85321683473855" lon="9.270118726434308"><ele>388.5</ele><time>2026-04-12T09:53:31.001Z</time></trkpt><trkpt lat="45.85319691487566" lon="9.270294955813746"><ele>389.75</ele><time>2026-04-12T09:53:32.001Z</time></trkpt><trkpt lat="45.85317268309347" lon="9.27047824024235"><ele>391.0</ele><time>2026-04-12T09:53:33.001Z</time></trkpt><trkpt lat="45.85313180542718" lon="9.270658155225403"><ele>391.25</ele><time>2026-04-12T09:53:34.001Z</time></trkpt><trkpt lat="45.85309150852309" lon="9.270845571307305"><ele>391.5</ele><time>2026-04-12T09:53:35.001Z</time></trkpt><trkpt lat="45.85305805522617" lon="9.271032697938168"><ele>391.75</ele><time>2026-04-12T09:53:36.001Z</time></trkpt><trkpt lat="45.85303518442762" lon="9.27121600185246"><ele>392.0</ele><time>2026-04-12T09:53:37.001Z</time></trkpt><trkpt lat="45.853024403852224" lon="9.271390024593275"><ele>391.6</ele><time>2026-04-12T09:53:38.001Z</time></trkpt><trkpt lat="45.85302631496068" lon="9.271552330996927"><ele>391.20000000000005</ele><time>2026-04-12T09:53:39.001Z</time></trkpt><trkpt lat="45.85303064343217" lon="9.271701769444014"><ele>390.8</ele><time>2026-04-12T09:53:40.001Z</time></trkpt><trkpt lat="45.853041829721064" lon="9.271817794833764"><ele>390.4</ele><time>2026-04-12T09:53:41.001Z</time></trkpt><trkpt lat="45.85305356907346" lon="9.271913237599344"><ele>390.0</ele><time>2026-04-12T09:53:42.001Z</time></trkpt><trkpt lat="45.85307662073744" lon="9.272070345656509"><ele>390.0</ele><time>2026-04-12T09:53:44.001Z</time></trkpt><trkpt lat="45.85309909816147" lon="9.272229317227481"><ele>390.0</ele><time>2026-04-12T09:53:46.001Z</time></trkpt><trkpt lat="45.853193277686145" lon="9.272286351080323"><ele>390.0</ele><time>2026-04-12T09:53:48.001Z</time></trkpt><trkpt lat="45.85325565705812" lon="9.272253900794226"><ele>390.0</ele><time>2026-04-12T09:53:49.001Z</time></trkpt><trkpt lat="45.85332761414501" lon="9.272184346760616"><ele>390.0</ele><time>2026-04-12T09:53:50.001Z</time></trkpt><trkpt lat="45.853403917663385" lon="9.27211364284663"><ele>389.4</ele><time>2026-04-12T09:53:51.001Z</time></trkpt><trkpt lat="45.853491389307045" lon="9.27205951046531"><ele>388.8</ele><time>2026-04-12T09:53:52.001Z</time></trkpt><trkpt lat="45.85358659335983" lon="9.272002079268361"><ele>388.20000000000005</ele><time>2026-04-12T09:53:53.001Z</time></trkpt><trkpt lat="45.85367906061322" lon="9.271935802119676"><ele>387.6</ele><time>2026-04-12T09:53:54.001Z</time></trkpt><trkpt lat="45.85377056356962" lon="9.271866110000667"><ele>387.0</ele><time>2026-04-12T09:53:55.001Z</time></trkpt><trkpt lat="45.853867832323914" lon="9.271791602124798"><ele>387.0</ele><time>2026-04-12T09:53:56.001Z</time></trkpt><trkpt lat="45.85396579301271" lon="9.271723016612263"><ele>387.0</ele><time>2026-04-12T09:53:57.001Z</time></trkpt><trkpt lat="45.854065726285484" lon="9.271650817539305"><ele>387.0</ele><time>2026-04-12T09:53:58.001Z</time></trkpt><trkpt lat="45.854159116581414" lon="9.271571134691136"><ele>387.0</ele><time>2026-04-12T09:53:59.001Z</time></trkpt><trkpt lat="45.85425416197537" lon="9.271474961165813"><ele>387.0</ele><time>2026-04-12T09:54:00.001Z</time></trkpt><trkpt lat="45.85434378463128" lon="9.27136120272929"><ele>388.25</ele><time>2026-04-12T09:54:01.001Z</time></trkpt><trkpt lat="45.85442876305604" lon="9.27124163766723"><ele>389.5</ele><time>2026-04-12T09:54:02.001Z</time></trkpt><trkpt lat="45.8545063576149" lon="9.271111720065727"><ele>390.75</ele><time>2026-04-12T09:54:03.001Z</time></trkpt><trkpt lat="45.854574250344015" lon="9.270973205718436"><ele>392.0</ele><time>2026-04-12T09:54:04.001Z</time></trkpt><trkpt lat="45.85463049976223" lon="9.270833240743952"><ele>392.0</ele><time>2026-04-12T09:54:05.001Z</time></trkpt><trkpt lat="45.85467900120191" lon="9.270695830676178"><ele>392.0</ele><time>2026-04-12T09:54:06.001Z</time></trkpt><trkpt lat="45.85472187650095" lon="9.270561037618107"><ele>392.0</ele><time>2026-04-12T09:54:07.001Z</time></trkpt><trkpt lat="45.85476043204005" lon="9.270433735651121"><ele>392.0</ele><time>2026-04-12T09:54:08.001Z</time></trkpt><trkpt lat="45.85481060143706" lon="9.270311987072752"><ele>392.0</ele><time>2026-04-12T09:54:09.001Z</time></trkpt><trkpt lat="45.85485727566696" lon="9.27019317807568"><ele>391.3333333333333</ele><time>2026-04-12T09:54:10.001Z</time></trkpt><trkpt lat="45.854903110167506" lon="9.270073210812125"><ele>390.66666666666663</ele><time>2026-04-12T09:54:11.001Z</time></trkpt><trkpt lat="45.854947512389955" lon="9.269957480775023"><ele>390.0</ele><time>2026-04-12T09:54:12.001Z</time></trkpt><trkpt lat="45.85498597356947" lon="9.269850879119161"><ele>389.33333333333337</ele><time>2026-04-12T09:54:13.001Z</time></trkpt><trkpt lat="45.85502469622668" lon="9.269751804877824"><ele>388.6666666666667</ele><time>2026-04-12T09:54:14.001Z</time></trkpt><trkpt lat="45.85506575677879" lon="9.269658457250651"><ele>388.0</ele><time>2026-04-12T09:54:15.001Z</time></trkpt><trkpt lat="45.85510615668179" lon="9.26958307061007"><ele>387.83333333333337</ele><time>2026-04-12T09:54:16.001Z</time></trkpt><trkpt lat="45.85515080664966" lon="9.269518295178147"><ele>387.6666666666667</ele><time>2026-04-12T09:54:17.001Z</time></trkpt><trkpt lat="45.85521378628413" lon="9.269459756859256"><ele>387.5</ele><time>2026-04-12T09:54:18.001Z</time></trkpt><trkpt lat="45.85528933262279" lon="9.269416486871277"><ele>387.33333333333337</ele><time>2026-04-12T09:54:19.001Z</time></trkpt><trkpt lat="45.8553750875335" lon="9.269387454812902"><ele>387.1666666666667</ele><time>2026-04-12T09:54:20.001Z</time></trkpt><trkpt lat="45.85546324257374" lon="9.269376316000947"><ele>387.0</ele><time>2026-04-12T09:54:21.001Z</time></trkpt><trkpt lat="45.85555764016219" lon="9.269386492618972"><ele>387.0</ele><time>2026-04-12T09:54:22.001Z</time></trkpt><trkpt lat="45.855652302796095" lon="9.2694112549968"><ele>387.0</ele><time>2026-04-12T09:54:23.001Z</time></trkpt><trkpt lat="45.8557480446272" lon="9.269435960090576"><ele>387.0</ele><time>2026-04-12T09:54:24.001Z</time></trkpt><trkpt lat="45.855847064414924" lon="9.269457000808213"><ele>387.0</ele><time>2026-04-12T09:54:25.001Z</time></trkpt><trkpt lat="45.85594952083041" lon="9.269472993341225"><ele>387.0</ele><time>2026-04-12T09:54:26.001Z</time></trkpt><trkpt lat="45.85604652620158" lon="9.269489437066916"><ele>387.5</ele><time>2026-04-12T09:54:27.001Z</time></trkpt><trkpt lat="45.856143637649375" lon="9.269520556845182"><ele>388.0</ele><time>2026-04-12T09:54:28.001Z</time></trkpt><trkpt lat="45.85623285287776" lon="9.269564187530781"><ele>388.5</ele><time>2026-04-12T09:54:29.001Z</time></trkpt><trkpt lat="45.856314213846225" lon="9.26960329780122"><ele>389.0</ele><time>2026-04-12T09:54:30.001Z</time></trkpt><trkpt lat="45.85638951542965" lon="9.269637134890859"><ele>389.5</ele><time>2026-04-12T09:54:31.001Z</time></trkpt><trkpt lat="45.85646521160859" lon="9.269674789531917"><ele>390.0</ele><time>2026-04-12T09:54:32.001Z</time></trkpt><trkpt lat="45.856535952430285" lon="9.269709128376538"><ele>390.0</ele><time>2026-04-12T09:54:33.001Z</time></trkpt><trkpt lat="45.85660586316566" lon="9.269731552381298"><ele>390.0</ele><time>2026-04-12T09:54:34.001Z</time></trkpt><trkpt lat="45.85666687796161" lon="9.269756543116332"><ele>390.0</ele><time>2026-04-12T09:54:35.001Z</time></trkpt><trkpt lat="45.85672870023304" lon="9.269779571740143"><ele>390.0</ele><time>2026-04-12T09:54:36.001Z</time></trkpt><trkpt lat="45.85679046644551" lon="9.26980345543611"><ele>390.0</ele><time>2026-04-12T09:54:39.001Z</time></trkpt><trkpt lat="45.856868270571006" lon="9.269828266754839"><ele>390.0</ele><time>2026-04-12T09:54:49Z</time></trkpt><trkpt lat="45.856955505274904" lon="9.269847394584012"><ele>390.0</ele><time>2026-04-12T09:54:51Z</time></trkpt><trkpt lat="45.85707927929607" lon="9.26982830510246"><ele>390.5</ele><time>2026-04-12T09:54:53Z</time></trkpt><trkpt lat="45.85714992063786" lon="9.269812468615752"><ele>391.0</ele><time>2026-04-12T09:54:54Z</time></trkpt><trkpt lat="45.85722384558241" lon="9.269799275283864"><ele>391.5</ele><time>2026-04-12T09:54:55Z</time></trkpt><trkpt lat="45.85730247798023" lon="9.26979031814245"><ele>392.0</ele><time>2026-04-12T09:54:56Z</time></trkpt><trkpt lat="45.85738470841029" lon="9.269779741944552"><ele>392.5</ele><time>2026-04-12T09:54:57Z</time></trkpt><trkpt lat="45.857471380427704" lon="9.26976432926175"><ele>393.0</ele><time>2026-04-12T09:54:58Z</time></trkpt><trkpt lat="45.85756739379239" lon="9.269745614422268"><ele>393.4</ele><time>2026-04-12T09:54:59Z</time></trkpt><trkpt lat="45.85766866265051" lon="9.269721198294993"><ele>393.79999999999995</ele><time>2026-04-12T09:55:00Z</time></trkpt><trkpt lat="45.857772439041895" lon="9.26970182117424"><ele>394.2</ele><time>2026-04-12T09:55:01Z</time></trkpt><trkpt lat="45.857886893578076" lon="9.269686286205811"><ele>394.6</ele><time>2026-04-12T09:55:02Z</time></trkpt><trkpt lat="45.858009083109415" lon="9.269678736823321"><ele>395.0</ele><time>2026-04-12T09:55:03Z</time></trkpt><trkpt lat="45.858131928673366" lon="9.269680095738526"><ele>395.0</ele><time>2026-04-12T09:55:04Z</time></trkpt><trkpt lat="45.85825800391749" lon="9.269694711903439"><ele>395.0</ele><time>2026-04-12T09:55:05Z</time></trkpt><trkpt lat="45.858387625908264" lon="9.269719328513535"><ele>395.0</ele><time>2026-04-12T09:55:06Z</time></trkpt><trkpt lat="45.85851304357496" lon="9.26975299839157"><ele>395.0</ele><time>2026-04-12T09:55:07Z</time></trkpt><trkpt lat="45.858633564624895" lon="9.269776913995058"><ele>396.5</ele><time>2026-04-12T09:55:08Z</time></trkpt><trkpt lat="45.85875238022664" lon="9.269784272037318"><ele>398.0</ele><time>2026-04-12T09:55:09Z</time></trkpt><trkpt lat="45.85886889815391" lon="9.26975624338202"><ele>399.5</ele><time>2026-04-12T09:55:10Z</time></trkpt><trkpt lat="45.85897577013323" lon="9.269713165322793"><ele>401.0</ele><time>2026-04-12T09:55:11Z</time></trkpt><trkpt lat="45.85907708545448" lon="9.269676043040894"><ele>401.0</ele><time>2026-04-12T09:55:12Z</time></trkpt><trkpt lat="45.85917134681768" lon="9.269612520354688"><ele>401.0</ele><time>2026-04-12T09:55:13Z</time></trkpt><trkpt lat="45.85926578792876" lon="9.269541566329336"><ele>401.0</ele><time>2026-04-12T09:55:14Z</time></trkpt><trkpt lat="45.85935214488195" lon="9.269476836136718"><ele>401.0</ele><time>2026-04-12T09:55:15Z</time></trkpt><trkpt lat="45.859434312085185" lon="9.269413716116066"><ele>401.0</ele><time>2026-04-12T09:55:16Z</time></trkpt><trkpt lat="45.859516554602955" lon="9.269360540103506"><ele>402.3333333333333</ele><time>2026-04-12T09:55:17Z</time></trkpt><trkpt lat="45.859594552622006" lon="9.269307511774947"><ele>403.66666666666663</ele><time>2026-04-12T09:55:18Z</time></trkpt><trkpt lat="45.85966446217777" lon="9.269245273881571"><ele>405.0</ele><time>2026-04-12T09:55:19Z</time></trkpt><trkpt lat="45.859716508942725" lon="9.269161537438746"><ele>406.33333333333337</ele><time>2026-04-12T09:55:20Z</time></trkpt><trkpt lat="45.859767614781646" lon="9.269086303804462"><ele>407.6666666666667</ele><time>2026-04-12T09:55:21Z</time></trkpt><trkpt lat="45.85981364623283" lon="9.269003454393594"><ele>409.0</ele><time>2026-04-12T09:55:22Z</time></trkpt><trkpt lat="45.8598620176172" lon="9.26892476534469"><ele>409.0</ele><time>2026-04-12T09:55:23Z</time></trkpt><trkpt lat="45.85990812915025" lon="9.268851491214452"><ele>409.0</ele><time>2026-04-12T09:55:24Z</time></trkpt><trkpt lat="45.85995854947064" lon="9.268794733297796"><ele>409.0</ele><time>2026-04-12T09:55:25Z</time></trkpt><trkpt lat="45.86002150131492" lon="9.268760717683232"><ele>409.0</ele><time>2026-04-12T09:55:26Z</time></trkpt><trkpt lat="45.860088315394265" lon="9.268788997851019"><ele>409.0</ele><time>2026-04-12T09:55:27Z</time></trkpt><trkpt lat="45.860153353871006" lon="9.268834312468087"><ele>409.0</ele><time>2026-04-12T09:55:28Z</time></trkpt><trkpt lat="45.86020167810639" lon="9.268906083787558"><ele>409.0</ele><time>2026-04-12T09:55:29Z</time></trkpt><trkpt lat="45.86023844942654" lon="9.268993422429984"><ele>409.2857142857143</ele><time>2026-04-12T09:55:30Z</time></trkpt><trkpt lat="45.860264085002285" lon="9.269086078515013"><ele>409.5714285714286</ele><time>2026-04-12T09:55:31Z</time></trkpt><trkpt lat="45.86028147584689" lon="9.269188427828503"><ele>409.8571428571429</ele><time>2026-04-12T09:55:32Z</time></trkpt><trkpt lat="45.86030486169383" lon="9.269276436503032"><ele>410.1428571428571</ele><time>2026-04-12T09:55:33Z</time></trkpt><trkpt lat="45.860337633578084" lon="9.26935761283383"><ele>410.42857142857144</ele><time>2026-04-12T09:55:34Z</time></trkpt><trkpt lat="45.86040344806694" lon="9.26939403249153"><ele>410.7142857142857</ele><time>2026-04-12T09:55:35Z</time></trkpt><trkpt lat="45.860471404735385" lon="9.269401822544888"><ele>411.0</ele><time>2026-04-12T09:55:36Z</time></trkpt><trkpt lat="45.860549419350455" lon="9.269382620450612"><ele>411.0</ele><time>2026-04-12T09:55:37Z</time></trkpt><trkpt lat="45.860622249002425" lon="9.269373517444542"><ele>411.0</ele><time>2026-04-12T09:55:38Z</time></trkpt><trkpt lat="45.86069923569391" lon="9.269384536387626"><ele>411.0</ele><time>2026-04-12T09:55:39Z</time></trkpt><trkpt lat="45.860778281213655" lon="9.26940328500477"><ele>411.0</ele><time>2026-04-12T09:55:40Z</time></trkpt><trkpt lat="45.860852841159655" lon="9.269432715104239"><ele>411.0</ele><time>2026-04-12T09:55:41Z</time></trkpt><trkpt lat="45.86092849059183" lon="9.269465537169834"><ele>411.0</ele><time>2026-04-12T09:55:42Z</time></trkpt><trkpt lat="45.86100931572408" lon="9.269504433965645"><ele>411.5</ele><time>2026-04-12T09:55:43Z</time></trkpt><trkpt lat="45.86109132423247" lon="9.26953759190664"><ele>412.0</ele><time>2026-04-12T09:55:44Z</time></trkpt><trkpt lat="45.861179657143005" lon="9.269570065614378"><ele>412.5</ele><time>2026-04-12T09:55:45Z</time></trkpt><trkpt lat="45.86126272932976" lon="9.269594312993142"><ele>413.0</ele><time>2026-04-12T09:55:46Z</time></trkpt><trkpt lat="45.86134029340027" lon="9.269613005213989"><ele>413.5</ele><time>2026-04-12T09:55:47Z</time></trkpt><trkpt lat="45.86140751338096" lon="9.269638181857431"><ele>414.0</ele><time>2026-04-12T09:55:48Z</time></trkpt><trkpt lat="45.86149941130598" lon="9.269714456145069"><ele>415.2</ele><time>2026-04-12T09:55:50Z</time></trkpt><trkpt lat="45.86156236397898" lon="9.269879565827258"><ele>416.4</ele><time>2026-04-12T09:55:52Z</time></trkpt><trkpt lat="45.86158985683543" lon="9.26999500062542"><ele>417.6</ele><time>2026-04-12T09:55:53Z</time></trkpt><trkpt lat="45.861619613068704" lon="9.270143077826711"><ele>418.8</ele><time>2026-04-12T09:55:54Z</time></trkpt><trkpt lat="45.861635290336494" lon="9.270285867712902"><ele>420.0</ele><time>2026-04-12T09:55:55Z</time></trkpt><trkpt lat="45.8616419506915" lon="9.270441638701534"><ele>420.0</ele><time>2026-04-12T09:55:56Z</time></trkpt><trkpt lat="45.861651144399836" lon="9.270596142492472"><ele>420.0</ele><time>2026-04-12T09:55:57Z</time></trkpt><trkpt lat="45.86166819708178" lon="9.270736705164476"><ele>420.0</ele><time>2026-04-12T09:55:58Z</time></trkpt><trkpt lat="45.86168366979179" lon="9.270867485771076"><ele>420.0</ele><time>2026-04-12T09:55:59Z</time></trkpt><trkpt lat="45.86170411599147" lon="9.270991089011636"><ele>420.0</ele><time>2026-04-12T09:56:00Z</time></trkpt><trkpt lat="45.86172555351442" lon="9.27111780325038"><ele>420.4</ele><time>2026-04-12T09:56:01Z</time></trkpt><trkpt lat="45.86174947823751" lon="9.27124912864808"><ele>420.8</ele><time>2026-04-12T09:56:02Z</time></trkpt><trkpt lat="45.861765810046045" lon="9.271387617680361"><ele>421.20000000000005</ele><time>2026-04-12T09:56:03Z</time></trkpt><trkpt lat="45.86178373481938" lon="9.271531443106264"><ele>421.6</ele><time>2026-04-12T09:56:04Z</time></trkpt><trkpt lat="45.86180152525467" lon="9.271682972331392"><ele>422.0</ele><time>2026-04-12T09:56:05Z</time></trkpt><trkpt lat="45.86181988261632" lon="9.27183811405449"><ele>421.5</ele><time>2026-04-12T09:56:06Z</time></trkpt><trkpt lat="45.86183474575565" lon="9.271998515144988"><ele>421.0</ele><time>2026-04-12T09:56:07Z</time></trkpt><trkpt lat="45.86184551093037" lon="9.272162910611202"><ele>420.5</ele><time>2026-04-12T09:56:08Z</time></trkpt><trkpt lat="45.861853024798926" lon="9.272334452043252"><ele>420.0</ele><time>2026-04-12T09:56:09Z</time></trkpt><trkpt lat="45.86185999089747" lon="9.272514810200288"><ele>420.0</ele><time>2026-04-12T09:56:10Z</time></trkpt><trkpt lat="45.86186378663511" lon="9.272707221687144"><ele>420.0</ele><time>2026-04-12T09:56:11Z</time></trkpt><trkpt lat="45.86186457421901" lon="9.272904121560194"><ele>420.0</ele><time>2026-04-12T09:56:12Z</time></trkpt><trkpt lat="45.86186499126712" lon="9.27310399918789"><ele>420.0</ele><time>2026-04-12T09:56:13Z</time></trkpt><trkpt lat="45.8618666043879" lon="9.273299942470052"><ele>421.0</ele><time>2026-04-12T09:56:14Z</time></trkpt><trkpt lat="45.86187026084621" lon="9.273498829155702"><ele>422.0</ele><time>2026-04-12T09:56:15Z</time></trkpt><trkpt lat="45.86187543927845" lon="9.273692184861108"><ele>423.0</ele><time>2026-04-12T09:56:16Z</time></trkpt><trkpt lat="45.86187973824821" lon="9.27387828774376"><ele>424.0</ele><time>2026-04-12T09:56:17Z</time></trkpt><trkpt lat="45.86187914518221" lon="9.274051378733315"><ele>425.0</ele><time>2026-04-12T09:56:18Z</time></trkpt><trkpt lat="45.86188106772655" lon="9.274213571370497"><ele>426.0</ele><time>2026-04-12T09:56:19Z</time></trkpt><trkpt lat="45.86188443755745" lon="9.274363038338286"><ele>427.0</ele><time>2026-04-12T09:56:20Z</time></trkpt><trkpt lat="45.861889366098914" lon="9.274510902053951"><ele>428.0</ele><time>2026-04-12T09:56:21Z</time></trkpt><trkpt lat="45.861898242339585" lon="9.274661494569473"><ele>429.0</ele><time>2026-04-12T09:56:22Z</time></trkpt><trkpt lat="45.86191602391391" lon="9.274810355985705"><ele>429.6</ele><time>2026-04-12T09:56:23Z</time></trkpt><trkpt lat="45.86194520275504" lon="9.274956979973261"><ele>430.2</ele><time>2026-04-12T09:56:24Z</time></trkpt><trkpt lat="45.861986402394145" lon="9.275101173236296"><ele>430.80000000000007</ele><time>2026-04-12T09:56:25Z</time></trkpt><trkpt lat="45.86203926541513" lon="9.27524248671787"><ele>431.40000000000003</ele><time>2026-04-12T09:56:26Z</time></trkpt><trkpt lat="45.86210673216417" lon="9.275385639002149"><ele>432.0</ele><time>2026-04-12T09:56:27Z</time></trkpt><trkpt lat="45.86218669219145" lon="9.275518600741314"><ele>434.0</ele><time>2026-04-12T09:56:28Z</time></trkpt><trkpt lat="45.86227871508743" lon="9.275643563934223"><ele>436.0</ele><time>2026-04-12T09:56:29Z</time></trkpt><trkpt lat="45.86237842249553" lon="9.27574706834677"><ele>438.0</ele><time>2026-04-12T09:56:30Z</time></trkpt><trkpt lat="45.86248709815922" lon="9.275835372722051"><ele>440.0</ele><time>2026-04-12T09:56:31Z</time></trkpt><trkpt lat="45.86260448439804" lon="9.275888601322887"><ele>442.0</ele><time>2026-04-12T09:56:32Z</time></trkpt><trkpt lat="45.86272455334852" lon="9.275945934205795"><ele>444.0</ele><time>2026-04-12T09:56:33Z</time></trkpt><trkpt lat="45.862848553398806" lon="9.2759758306927"><ele>446.0</ele><time>2026-04-12T09:56:34Z</time></trkpt><trkpt lat="45.86297496388248" lon="9.275990412021445"><ele>448.0</ele><time>2026-04-12T09:56:35Z</time></trkpt><trkpt lat="45.8631012220674" lon="9.275984066601541"><ele>448.0</ele><time>2026-04-12T09:56:36Z</time></trkpt><trkpt lat="45.86322892074078" lon="9.275963355851632"><ele>448.0</ele><time>2026-04-12T09:56:37Z</time></trkpt><trkpt lat="45.86335777766438" lon="9.27590763261445"><ele>448.0</ele><time>2026-04-12T09:56:38Z</time></trkpt><trkpt lat="45.86348036761841" lon="9.275828624841028"><ele>448.0</ele><time>2026-04-12T09:56:39Z</time></trkpt><trkpt lat="45.86360234605823" lon="9.275726964293964"><ele>454.5</ele><time>2026-04-12T09:56:40Z</time></trkpt><trkpt lat="45.86371474870331" lon="9.275606453013031"><ele>461.0</ele><time>2026-04-12T09:56:41Z</time></trkpt><trkpt lat="45.86381874602656" lon="9.275466708985778"><ele>467.5</ele><time>2026-04-12T09:56:42Z</time></trkpt><trkpt lat="45.863904694142256" lon="9.275313074156365"><ele>474.0</ele><time>2026-04-12T09:56:43Z</time></trkpt><trkpt lat="45.86396899878875" lon="9.275153195213564"><ele>474.0</ele><time>2026-04-12T09:56:44Z</time></trkpt><trkpt lat="45.864025654773585" lon="9.274982539664709"><ele>474.0</ele><time>2026-04-12T09:56:45Z</time></trkpt><trkpt lat="45.86406963893611" lon="9.274802190612753"><ele>474.0</ele><time>2026-04-12T09:56:46Z</time></trkpt><trkpt lat="45.86410004728566" lon="9.274617273566019"><ele>474.0</ele><time>2026-04-12T09:56:47Z</time></trkpt><trkpt lat="45.86412432056174" lon="9.274422505560787"><ele>472.0</ele><time>2026-04-12T09:56:48Z</time></trkpt><trkpt lat="45.86414729053751" lon="9.274219500731329"><ele>470.0</ele><time>2026-04-12T09:56:49Z</time></trkpt><trkpt lat="45.86417971392102" lon="9.27401483911959"><ele>468.0</ele><time>2026-04-12T09:56:50Z</time></trkpt><trkpt lat="45.8642187452232" lon="9.273800631754593"><ele>466.0</ele><time>2026-04-12T09:56:51Z</time></trkpt><trkpt lat="45.86425800307642" lon="9.273590485057102"><ele>476.75</ele><time>2026-04-12T09:56:52Z</time></trkpt><trkpt lat="45.864292374718126" lon="9.273388599536439"><ele>487.5</ele><time>2026-04-12T09:56:53Z</time></trkpt><trkpt lat="45.86433110956902" lon="9.27319106121517"><ele>498.25</ele><time>2026-04-12T09:56:54Z</time></trkpt><trkpt lat="45.864374714865335" lon="9.272997212995316"><ele>509.0</ele><time>2026-04-12T09:56:55Z</time></trkpt><trkpt lat="45.86442879127326" lon="9.272806426538168"><ele>509.0</ele><time>2026-04-12T09:56:56Z</time></trkpt><trkpt lat="45.86449054880302" lon="9.27261789345092"><ele>509.0</ele><time>2026-04-12T09:56:57Z</time></trkpt><trkpt lat="45.8645500506251" lon="9.272419263388576"><ele>509.0</ele><time>2026-04-12T09:56:58Z</time></trkpt><trkpt lat="45.86460794436373" lon="9.272225207929026"><ele>509.0</ele><time>2026-04-12T09:56:59Z</time></trkpt><trkpt lat="45.864666985820186" lon="9.272026713821061"><ele>505.75</ele><time>2026-04-12T09:57:00Z</time></trkpt><trkpt lat="45.86472793133599" lon="9.271832196387024"><ele>502.5</ele><time>2026-04-12T09:57:01Z</time></trkpt><trkpt lat="45.86478967775471" lon="9.271635876556804"><ele>499.25</ele><time>2026-04-12T09:57:02Z</time></trkpt><trkpt lat="45.864852315322594" lon="9.271440445330231"><ele>496.0</ele><time>2026-04-12T09:57:03Z</time></trkpt><trkpt lat="45.86491580041562" lon="9.271252843546517"><ele>493.25</ele><time>2026-04-12T09:57:04Z</time></trkpt><trkpt lat="45.86497781102736" lon="9.271071809649126"><ele>490.5</ele><time>2026-04-12T09:57:05Z</time></trkpt><trkpt lat="45.86504211660304" lon="9.270886600205863"><ele>487.75</ele><time>2026-04-12T09:57:06Z</time></trkpt><trkpt lat="45.86510350284279" lon="9.270705477120801"><ele>485.0</ele><time>2026-04-12T09:57:07Z</time></trkpt><trkpt lat="45.86516432022694" lon="9.270524755818398"><ele>493.66666666666663</ele><time>2026-04-12T09:57:08Z</time></trkpt><trkpt lat="45.865222230456204" lon="9.270260715355466"><ele>502.33333333333337</ele><time>2026-04-12T09:57:09Z</time></trkpt><trkpt lat="45.86527184279167" lon="9.270102314730527"><ele>511.0</ele><time>2026-04-12T09:57:10Z</time></trkpt><trkpt lat="45.865338206938084" lon="9.269888588961711"><ele>506.5</ele><time>2026-04-12T09:57:11Z</time></trkpt><trkpt lat="45.86538730257468" lon="9.269681460932832"><ele>502.0</ele><time>2026-04-12T09:57:12Z</time></trkpt><trkpt lat="45.86545302781688" lon="9.269492858389802"><ele>497.5</ele><time>2026-04-12T09:57:13Z</time></trkpt><trkpt lat="45.86551174752939" lon="9.269304602869976"><ele>493.0</ele><time>2026-04-12T09:57:14Z</time></trkpt><trkpt lat="45.86557325141196" lon="9.269117255339795"><ele>490.5</ele><time>2026-04-12T09:57:15Z</time></trkpt><trkpt lat="45.86563172651258" lon="9.268935762480123"><ele>488.0</ele><time>2026-04-12T09:57:16Z</time></trkpt><trkpt lat="45.86568461324094" lon="9.268766466483397"><ele>485.5</ele><time>2026-04-12T09:57:17Z</time></trkpt><trkpt lat="45.86573404002241" lon="9.268609312810877"><ele>483.0</ele><time>2026-04-12T09:57:18Z</time></trkpt><trkpt lat="45.86578345481099" lon="9.2684529728847"><ele>483.0</ele><time>2026-04-12T09:57:19Z</time></trkpt><trkpt lat="45.865834653742255" lon="9.26829431113609"><ele>483.0</ele><time>2026-04-12T09:57:20Z</time></trkpt><trkpt lat="45.86588921529351" lon="9.26812324226158"><ele>483.0</ele><time>2026-04-12T09:57:21Z</time></trkpt><trkpt lat="45.8659585600164" lon="9.267956561988031"><ele>483.0</ele><time>2026-04-12T09:57:22Z</time></trkpt><trkpt lat="45.86604378941963" lon="9.267791760459625"><ele>484.0</ele><time>2026-04-12T09:57:23Z</time></trkpt><trkpt lat="45.86613791056178" lon="9.267621663658375"><ele>485.0</ele><time>2026-04-12T09:57:24Z</time></trkpt><trkpt lat="45.866242229289774" lon="9.267441332509044"><ele>486.0</ele><time>2026-04-12T09:57:25Z</time></trkpt><trkpt lat="45.866344348355376" lon="9.267247808278954"><ele>486.0</ele><time>2026-04-12T09:57:26Z</time></trkpt><trkpt lat="45.866452999276234" lon="9.267040226423237"><ele>486.0</ele><time>2026-04-12T09:57:27Z</time></trkpt><trkpt lat="45.86655798225444" lon="9.266838199870977"><ele>486.0</ele><time>2026-04-12T09:57:28Z</time></trkpt><trkpt lat="45.86666064488637" lon="9.266645153160864"><ele>486.0</ele><time>2026-04-12T09:57:29Z</time></trkpt><trkpt lat="45.86675825093333" lon="9.266464836647145"><ele>486.0</ele><time>2026-04-12T09:57:30Z</time></trkpt><trkpt lat="45.86685151059933" lon="9.26629675625426"><ele>486.0</ele><time>2026-04-12T09:57:31Z</time></trkpt><trkpt lat="45.86694431333543" lon="9.266134675350893"><ele>486.5</ele><time>2026-04-12T09:57:32Z</time></trkpt><trkpt lat="45.86704352876404" lon="9.265989852392439"><ele>487.0</ele><time>2026-04-12T09:57:33Z</time></trkpt><trkpt lat="45.867151371079984" lon="9.265865602019815"><ele>487.5</ele><time>2026-04-12T09:57:34Z</time></trkpt><trkpt lat="45.86726922174412" lon="9.265762396398365"><ele>488.0</ele><time>2026-04-12T09:57:35Z</time></trkpt><trkpt lat="45.86739648197817" lon="9.265672964379045"><ele>486.5</ele><time>2026-04-12T09:57:36Z</time></trkpt><trkpt lat="45.86752752430537" lon="9.26560465634681"><ele>485.0</ele><time>2026-04-12T09:57:37Z</time></trkpt><trkpt lat="45.867660109515334" lon="9.265553591433308"><ele>483.5</ele><time>2026-04-12T09:57:38Z</time></trkpt><trkpt lat="45.86779317430115" lon="9.265514017555649"><ele>482.0</ele><time>2026-04-12T09:57:39Z</time></trkpt><trkpt lat="45.8679255353671" lon="9.265471194089454"><ele>482.0</ele><time>2026-04-12T09:57:40Z</time></trkpt><trkpt lat="45.868052622352565" lon="9.265429873434682"><ele>482.0</ele><time>2026-04-12T09:57:41Z</time></trkpt><trkpt lat="45.86817401722746" lon="9.265385720021651"><ele>482.0</ele><time>2026-04-12T09:57:42Z</time></trkpt><trkpt lat="45.86829208556627" lon="9.265344434318115"><ele>482.0</ele><time>2026-04-12T09:57:43Z</time></trkpt><trkpt lat="45.86840693857692" lon="9.265307334062905"><ele>486.25</ele><time>2026-04-12T09:57:44Z</time></trkpt><trkpt lat="45.868519500899936" lon="9.265268098579046"><ele>490.5</ele><time>2026-04-12T09:57:45Z</time></trkpt><trkpt lat="45.86863749087215" lon="9.265218832232845"><ele>494.75</ele><time>2026-04-12T09:57:46Z</time></trkpt><trkpt lat="45.86873552176881" lon="9.265144251631176"><ele>499.0</ele><time>2026-04-12T09:57:47Z</time></trkpt><trkpt lat="45.8688277229148" lon="9.265045169102729"><ele>499.0</ele><time>2026-04-12T09:57:48Z</time></trkpt><trkpt lat="45.86890162098955" lon="9.264918931451756"><ele>499.0</ele><time>2026-04-12T09:57:49Z</time></trkpt><trkpt lat="45.868962543242155" lon="9.264775633715852"><ele>499.0</ele><time>2026-04-12T09:57:50Z</time></trkpt><trkpt lat="45.86902113010371" lon="9.264629297333734"><ele>499.0</ele><time>2026-04-12T09:57:51Z</time></trkpt><trkpt lat="45.869097152022704" lon="9.264495795290069"><ele>496.25</ele><time>2026-04-12T09:57:52Z</time></trkpt><trkpt lat="45.869185192904496" lon="9.264360863940965"><ele>493.5</ele><time>2026-04-12T09:57:53Z</time></trkpt><trkpt lat="45.869273415896934" lon="9.264225525085589"><ele>490.75</ele><time>2026-04-12T09:57:54Z</time></trkpt><trkpt lat="45.86935090721922" lon="9.264095354834744"><ele>488.0</ele><time>2026-04-12T09:57:55Z</time></trkpt><trkpt lat="45.869421920401344" lon="9.263972763169017"><ele>491.0</ele><time>2026-04-12T09:57:56Z</time></trkpt><trkpt lat="45.869471182649185" lon="9.263839502862803"><ele>493.99999999999994</ele><time>2026-04-12T09:57:57Z</time></trkpt><trkpt lat="45.86950058316937" lon="9.263688147915255"><ele>496.99999999999994</ele><time>2026-04-12T09:57:58Z</time></trkpt><trkpt lat="45.86950620148334" lon="9.26352139018812"><ele>500.0</ele><time>2026-04-12T09:57:59Z</time></trkpt><trkpt lat="45.869511611417195" lon="9.263352593263802"><ele>503.0</ele><time>2026-04-12T09:58:00Z</time></trkpt><trkpt lat="45.86952843528678" lon="9.263200441499032"><ele>498.79999999999995</ele><time>2026-04-12T09:58:01Z</time></trkpt><trkpt lat="45.86956469315721" lon="9.263067340166845"><ele>494.59999999999997</ele><time>2026-04-12T09:58:02Z</time></trkpt><trkpt lat="45.86962024175293" lon="9.262941997459157"><ele>490.40000000000003</ele><time>2026-04-12T09:58:03Z</time></trkpt><trkpt lat="45.86970231467417" lon="9.262830947674338"><ele>486.20000000000005</ele><time>2026-04-12T09:58:04Z</time></trkpt><trkpt lat="45.869804230358234" lon="9.262750644888955"><ele>482.0</ele><time>2026-04-12T09:58:05Z</time></trkpt><trkpt lat="45.86992016267943" lon="9.262712180859317"><ele>482.0</ele><time>2026-04-12T09:58:06Z</time></trkpt><trkpt lat="45.870043458315074" lon="9.262710704079868"><ele>482.0</ele><time>2026-04-12T09:58:07Z</time></trkpt><trkpt lat="45.870171505299005" lon="9.262736830899541"><ele>482.0</ele><time>2026-04-12T09:58:08Z</time></trkpt><trkpt lat="45.8702962594672" lon="9.262771466764974"><ele>482.0</ele><time>2026-04-12T09:58:09Z</time></trkpt><trkpt lat="45.87042801983544" lon="9.262803955977356"><ele>484.0</ele><time>2026-04-12T09:58:10Z</time></trkpt><trkpt lat="45.870553579211524" lon="9.262824595425558"><ele>486.0</ele><time>2026-04-12T09:58:11Z</time></trkpt><trkpt lat="45.870673396670945" lon="9.262840676926098"><ele>488.0</ele><time>2026-04-12T09:58:12Z</time></trkpt><trkpt lat="45.87078629235376" lon="9.262849173223307"><ele>490.0</ele><time>2026-04-12T09:58:13Z</time></trkpt><trkpt lat="45.87089576435009" lon="9.262829727135264"><ele>493.5</ele><time>2026-04-12T09:58:14Z</time></trkpt><trkpt lat="45.87100483931292" lon="9.262767943228074"><ele>497.0</ele><time>2026-04-12T09:58:15Z</time></trkpt><trkpt lat="45.871108341869245" lon="9.262684097582177"><ele>500.5</ele><time>2026-04-12T09:58:16Z</time></trkpt><trkpt lat="45.87120750266619" lon="9.262592096890142"><ele>504.0</ele><time>2026-04-12T09:58:17Z</time></trkpt><trkpt lat="45.87130373738367" lon="9.262502047925599"><ele>504.0</ele><time>2026-04-12T09:58:18Z</time></trkpt><trkpt lat="45.87139076195573" lon="9.262396892902938"><ele>504.0</ele><time>2026-04-12T09:58:19Z</time></trkpt><trkpt lat="45.871492649179096" lon="9.26232315915916"><ele>504.0</ele><time>2026-04-12T09:58:20Z</time></trkpt><trkpt lat="45.87158817574306" lon="9.262229941152235"><ele>504.0</ele><time>2026-04-12T09:58:21Z</time></trkpt><trkpt lat="45.87167720563139" lon="9.262139279101623"><ele>505.5</ele><time>2026-04-12T09:58:22Z</time></trkpt><trkpt lat="45.871766681750884" lon="9.262042792722154"><ele>507.0</ele><time>2026-04-12T09:58:23Z</time></trkpt><trkpt lat="45.871860187330775" lon="9.26195154588434"><ele>508.5</ele><time>2026-04-12T09:58:24Z</time></trkpt><trkpt lat="45.87195794499554" lon="9.261861208214672"><ele>510.0</ele><time>2026-04-12T09:58:25Z</time></trkpt><trkpt lat="45.872057671182695" lon="9.261770742350796"><ele>510.0</ele><time>2026-04-12T09:58:26Z</time></trkpt><trkpt lat="45.872152432898346" lon="9.261674997144794"><ele>510.0</ele><time>2026-04-12T09:58:27Z</time></trkpt><trkpt lat="45.8722425890863" lon="9.26157633541212"><ele>510.0</ele><time>2026-04-12T09:58:28Z</time></trkpt><trkpt lat="45.872337938102916" lon="9.261484349261352"><ele>510.0</ele><time>2026-04-12T09:58:29Z</time></trkpt><trkpt lat="45.872436934868084" lon="9.26139418339975"><ele>508.4</ele><time>2026-04-12T09:58:30Z</time></trkpt><trkpt lat="45.87254012381049" lon="9.261309917130893"><ele>506.8</ele><time>2026-04-12T09:58:31Z</time></trkpt><trkpt lat="45.872643525519585" lon="9.261235921035292"><ele>505.20000000000005</ele><time>2026-04-12T09:58:32Z</time></trkpt><trkpt lat="45.87273998895007" lon="9.261166769694189"><ele>503.6</ele><time>2026-04-12T09:58:33Z</time></trkpt><trkpt lat="45.87283414388565" lon="9.261099402757607"><ele>502.0</ele><time>2026-04-12T09:58:34Z</time></trkpt><trkpt lat="45.8729359474242" lon="9.261028589455693"><ele>502.0</ele><time>2026-04-12T09:58:35Z</time></trkpt><trkpt lat="45.87303969750705" lon="9.260975231241225"><ele>502.0</ele><time>2026-04-12T09:58:36Z</time></trkpt><trkpt lat="45.87315555606938" lon="9.260953653911836"><ele>502.0</ele><time>2026-04-12T09:58:37Z</time></trkpt><trkpt lat="45.87327504979497" lon="9.260967787261745"><ele>502.0</ele><time>2026-04-12T09:58:38Z</time></trkpt><trkpt lat="45.873391109352276" lon="9.26102295056638"><ele>505.0</ele><time>2026-04-12T09:58:39Z</time></trkpt><trkpt lat="45.87350298194349" lon="9.261094142337278"><ele>508.0</ele><time>2026-04-12T09:58:40Z</time></trkpt><trkpt lat="45.87361292652483" lon="9.261175789757932"><ele>511.0</ele><time>2026-04-12T09:58:41Z</time></trkpt><trkpt lat="45.87372077118249" lon="9.261247116976865"><ele>514.0</ele><time>2026-04-12T09:58:42Z</time></trkpt><trkpt lat="45.87383027052373" lon="9.261289059194901"><ele>514.0</ele><time>2026-04-12T09:58:43Z</time></trkpt><trkpt lat="45.87394145444955" lon="9.261296543621246"><ele>514.0</ele><time>2026-04-12T09:58:44Z</time></trkpt><trkpt lat="45.874052692903376" lon="9.261278581293716"><ele>514.0</ele><time>2026-04-12T09:58:45Z</time></trkpt><trkpt lat="45.87416193363261" lon="9.261224648517661"><ele>514.0</ele><time>2026-04-12T09:58:46Z</time></trkpt><trkpt lat="45.87427339099961" lon="9.261164591053904"><ele>513.6</ele><time>2026-04-12T09:58:47Z</time></trkpt><trkpt lat="45.87437143191731" lon="9.261120923356485"><ele>513.2</ele><time>2026-04-12T09:58:48Z</time></trkpt><trkpt lat="45.87447450685593" lon="9.261071533825183"><ele>512.8000000000001</ele><time>2026-04-12T09:58:49Z</time></trkpt><trkpt lat="45.874573315308844" lon="9.260996803244817"><ele>512.4</ele><time>2026-04-12T09:58:50Z</time></trkpt><trkpt lat="45.8746710102831" lon="9.260906678132299"><ele>512.0</ele><time>2026-04-12T09:58:51Z</time></trkpt><trkpt lat="45.87477608084394" lon="9.260838671397027"><ele>512.0</ele><time>2026-04-12T09:58:52Z</time></trkpt><trkpt lat="45.87488556014643" lon="9.260810091373903"><ele>512.0</ele><time>2026-04-12T09:58:53Z</time></trkpt><trkpt lat="45.87498767320085" lon="9.260845384534825"><ele>512.0</ele><time>2026-04-12T09:58:54Z</time></trkpt><trkpt lat="45.875086905636394" lon="9.260910955498971"><ele>512.0</ele><time>2026-04-12T09:58:55Z</time></trkpt><trkpt lat="45.875192406459604" lon="9.260969250233895"><ele>512.0</ele><time>2026-04-12T09:58:56Z</time></trkpt><trkpt lat="45.87530412323141" lon="9.261047295156299"><ele>516.6666666666666</ele><time>2026-04-12T09:58:57Z</time></trkpt><trkpt lat="45.875449087378215" lon="9.261116102296226"><ele>521.3333333333334</ele><time>2026-04-12T09:58:58Z</time></trkpt><trkpt lat="45.875606196712454" lon="9.261238453495698"><ele>526.0</ele><time>2026-04-12T09:58:59Z</time></trkpt><trkpt lat="45.87580863756791" lon="9.261366571096428"><ele>524.0</ele><time>2026-04-12T09:59:00Z</time></trkpt><trkpt lat="45.876023921052344" lon="9.2614918689974"><ele>522.0</ele><time>2026-04-12T09:59:01Z</time></trkpt><trkpt lat="45.876208543138695" lon="9.261625897957586"><ele>520.0</ele><time>2026-04-12T09:59:02Z</time></trkpt><trkpt lat="45.876378725077345" lon="9.261734579730092"><ele>520.0</ele><time>2026-04-12T09:59:03Z</time></trkpt><trkpt lat="45.87653349169843" lon="9.26182855801785"><ele>520.0</ele><time>2026-04-12T09:59:04Z</time></trkpt><trkpt lat="45.87668604127248" lon="9.261918748347362"><ele>520.0</ele><time>2026-04-12T09:59:05Z</time></trkpt><trkpt lat="45.87684015054504" lon="9.261995814592273"><ele>525.0</ele><time>2026-04-12T09:59:06Z</time></trkpt><trkpt lat="45.87700290343757" lon="9.262051912304326"><ele>530.0</ele><time>2026-04-12T09:59:07Z</time></trkpt><trkpt lat="45.8771697815004" lon="9.26208226261563"><ele>535.0</ele><time>2026-04-12T09:59:08Z</time></trkpt><trkpt lat="45.877341404376324" lon="9.262095737901662"><ele>535.0</ele><time>2026-04-12T09:59:09Z</time></trkpt><trkpt lat="45.8775216165277" lon="9.262112126030269"><ele>535.0</ele><time>2026-04-12T09:59:10Z</time></trkpt><trkpt lat="45.877700217495196" lon="9.262140669026767"><ele>535.0</ele><time>2026-04-12T09:59:11Z</time></trkpt><trkpt lat="45.877884059889666" lon="9.262172371119885"><ele>538.3333333333334</ele><time>2026-04-12T09:59:12Z</time></trkpt><trkpt lat="45.87807088248811" lon="9.262196440645436"><ele>541.6666666666666</ele><time>2026-04-12T09:59:13Z</time></trkpt><trkpt lat="45.87826217456033" lon="9.262212023409658"><ele>545.0</ele><time>2026-04-12T09:59:14Z</time></trkpt><trkpt lat="45.8784510283297" lon="9.262240671608579"><ele>550.0</ele><time>2026-04-12T09:59:15Z</time></trkpt><trkpt lat="45.87862603168274" lon="9.262277627484167"><ele>555.0</ele><time>2026-04-12T09:59:16Z</time></trkpt><trkpt lat="45.878795158222374" lon="9.262328802344843"><ele>560.0</ele><time>2026-04-12T09:59:17Z</time></trkpt><trkpt lat="45.878958505691116" lon="9.26240290505521"><ele>554.6666666666666</ele><time>2026-04-12T09:59:18Z</time></trkpt><trkpt lat="45.879116748015306" lon="9.262485126700767"><ele>549.3333333333334</ele><time>2026-04-12T09:59:19Z</time></trkpt><trkpt lat="45.87926920692588" lon="9.262563032110643"><ele>544.0</ele><time>2026-04-12T09:59:20Z</time></trkpt><trkpt lat="45.87942738771002" lon="9.262612288199152"><ele>544.0</ele><time>2026-04-12T09:59:21Z</time></trkpt><trkpt lat="45.879599932538355" lon="9.262638363556594"><ele>544.0</ele><time>2026-04-12T09:59:22Z</time></trkpt><trkpt lat="45.87978094321927" lon="9.262667490719387"><ele>544.0</ele><time>2026-04-12T09:59:23Z</time></trkpt><trkpt lat="45.87995868024222" lon="9.262696741781314"><ele>545.0</ele><time>2026-04-12T09:59:24Z</time></trkpt><trkpt lat="45.88013616334897" lon="9.262732320832598"><ele>546.0</ele><time>2026-04-12T09:59:25Z</time></trkpt><trkpt lat="45.88030351754453" lon="9.262768468765007"><ele>547.0</ele><time>2026-04-12T09:59:26Z</time></trkpt><trkpt lat="45.88046588670165" lon="9.262802243233924"><ele>547.0</ele><time>2026-04-12T09:59:27Z</time></trkpt><trkpt lat="45.88062097542708" lon="9.262836500133613"><ele>547.0</ele><time>2026-04-12T09:59:28Z</time></trkpt><trkpt lat="45.8807666568084" lon="9.262876069212867"><ele>547.0</ele><time>2026-04-12T09:59:29Z</time></trkpt><trkpt lat="45.88090471416543" lon="9.26291462577511"><ele>547.0</ele><time>2026-04-12T09:59:30Z</time></trkpt><trkpt lat="45.88103310911622" lon="9.262952518589241"><ele>547.0</ele><time>2026-04-12T09:59:31Z</time></trkpt><trkpt lat="45.881148097033766" lon="9.262987111891336"><ele>547.0</ele><time>2026-04-12T09:59:32Z</time></trkpt><trkpt lat="45.88125778355232" lon="9.263018409598914"><ele>547.0</ele><time>2026-04-12T09:59:33Z</time></trkpt><trkpt lat="45.8813578990499" lon="9.26304694759957"><ele>547.0</ele><time>2026-04-12T09:59:34Z</time></trkpt><trkpt lat="45.881449437820514" lon="9.263074454738698"><ele>547.0</ele><time>2026-04-12T09:59:35Z</time></trkpt><trkpt lat="45.88152972973269" lon="9.263098098341645"><ele>544.7142857142857</ele><time>2026-04-12T09:59:36Z</time></trkpt><trkpt lat="45.881602326237626" lon="9.263119857849645"><ele>542.4285714285713</ele><time>2026-04-12T09:59:37Z</time></trkpt><trkpt lat="45.881664674065846" lon="9.26313681661693"><ele>540.1428571428571</ele><time>2026-04-12T09:59:38Z</time></trkpt><trkpt lat="45.88174045642541" lon="9.263158774324992"><ele>537.8571428571429</ele><time>2026-04-12T09:59:40Z</time></trkpt><trkpt lat="45.88181503663773" lon="9.263181600137981"><ele>535.5714285714287</ele><time>2026-04-12T09:59:43Z</time></trkpt><trkpt lat="45.8818797967442" lon="9.26320212475052"><ele>533.2857142857143</ele><time>2026-04-12T09:59:44Z</time></trkpt><trkpt lat="45.881963768488944" lon="9.263227266588233"><ele>531.0</ele><time>2026-04-12T09:59:45Z</time></trkpt><trkpt lat="45.88205868276963" lon="9.263253224427546"><ele>531.0</ele><time>2026-04-12T09:59:46Z</time></trkpt><trkpt lat="45.88216694276381" lon="9.263287588555256"><ele>531.0</ele><time>2026-04-12T09:59:47Z</time></trkpt><trkpt lat="45.88228896510577" lon="9.263325946680895"><ele>531.0</ele><time>2026-04-12T09:59:48Z</time></trkpt><trkpt lat="45.882421714890484" lon="9.263367275539382"><ele>531.0</ele><time>2026-04-12T09:59:49Z</time></trkpt><trkpt lat="45.882566032366185" lon="9.263408087070124"><ele>533.3333333333334</ele><time>2026-04-12T09:59:50Z</time></trkpt><trkpt lat="45.88271113268467" lon="9.263450698146839"><ele>535.6666666666667</ele><time>2026-04-12T09:59:51Z</time></trkpt><trkpt lat="45.882866256518206" lon="9.263495261357088"><ele>538.0</ele><time>2026-04-12T09:59:52Z</time></trkpt><trkpt lat="45.88303079204532" lon="9.263541879595715"><ele>538.0</ele><time>2026-04-12T09:59:53Z</time></trkpt><trkpt lat="45.883197744998824" lon="9.26359209167819"><ele>538.0</ele><time>2026-04-12T09:59:54Z</time></trkpt><trkpt lat="45.88336721276063" lon="9.263641818562308"><ele>538.0</ele><time>2026-04-12T09:59:55Z</time></trkpt><trkpt lat="45.88354577520558" lon="9.263692322111563"><ele>540.0</ele><time>2026-04-12T09:59:56Z</time></trkpt><trkpt lat="45.883709503969115" lon="9.263739196177116"><ele>542.0</ele><time>2026-04-12T09:59:57Z</time></trkpt><trkpt lat="45.88387640877459" lon="9.263787270946741"><ele>544.0</ele><time>2026-04-12T09:59:58Z</time></trkpt><trkpt lat="45.88404034708187" lon="9.263828160159127"><ele>544.0</ele><time>2026-04-12T09:59:59Z</time></trkpt><trkpt lat="45.884196688726355" lon="9.263867040377612"><ele>544.0</ele><time>2026-04-12T10:00:00Z</time></trkpt><trkpt lat="45.88434360520761" lon="9.263899108755043"><ele>544.0</ele><time>2026-04-12T10:00:01Z</time></trkpt><trkpt lat="45.88447240483695" lon="9.263924987236226"><ele>544.0</ele><time>2026-04-12T10:00:02Z</time></trkpt><trkpt lat="45.88459432549105" lon="9.263931658519759"><ele>544.2</ele><time>2026-04-12T10:00:03Z</time></trkpt><trkpt lat="45.884694747086776" lon="9.263907836660742"><ele>544.4</ele><time>2026-04-12T10:00:04Z</time></trkpt><trkpt lat="45.88478163606374" lon="9.263854347564077"><ele>544.6</ele><time>2026-04-12T10:00:05Z</time></trkpt><trkpt lat="45.88485616754022" lon="9.263756590965226"><ele>544.8</ele><time>2026-04-12T10:00:06Z</time></trkpt><trkpt lat="45.88492036241098" lon="9.263622518720979"><ele>545.0</ele><time>2026-04-12T10:00:07Z</time></trkpt><trkpt lat="45.88497697702324" lon="9.263473032525127"><ele>545.0</ele><time>2026-04-12T10:00:08Z</time></trkpt><trkpt lat="45.88503712357816" lon="9.26332350775313"><ele>545.0</ele><time>2026-04-12T10:00:09Z</time></trkpt><trkpt lat="45.88510573505868" lon="9.263173159652915"><ele>545.0</ele><time>2026-04-12T10:00:10Z</time></trkpt><trkpt lat="45.88517855056714" lon="9.263027426854542"><ele>545.0</ele><time>2026-04-12T10:00:11Z</time></trkpt><trkpt lat="45.88525299393408" lon="9.262889101873515"><ele>545.5</ele><time>2026-04-12T10:00:12Z</time></trkpt><trkpt lat="45.885341758118436" lon="9.262761200783144"><ele>546.0</ele><time>2026-04-12T10:00:13Z</time></trkpt><trkpt lat="45.88544530606867" lon="9.262647640113736"><ele>546.5</ele><time>2026-04-12T10:00:14Z</time></trkpt><trkpt lat="45.88556261914046" lon="9.262546566419037"><ele>547.0</ele><time>2026-04-12T10:00:15Z</time></trkpt><trkpt lat="45.88569478151592" lon="9.262466028998734"><ele>547.0</ele><time>2026-04-12T10:00:16Z</time></trkpt><trkpt lat="45.88583701025198" lon="9.262395418119477"><ele>547.0</ele><time>2026-04-12T10:00:17Z</time></trkpt><trkpt lat="45.8859837545223" lon="9.262318979281948"><ele>547.0</ele><time>2026-04-12T10:00:18Z</time></trkpt><trkpt lat="45.88613570824065" lon="9.262232836954654"><ele>546.6666666666667</ele><time>2026-04-12T10:00:19Z</time></trkpt><trkpt lat="45.88628713179699" lon="9.262145124291484"><ele>546.3333333333334</ele><time>2026-04-12T10:00:20Z</time></trkpt><trkpt lat="45.88644090174992" lon="9.262056074267894"><ele>546.0</ele><time>2026-04-12T10:00:21Z</time></trkpt><trkpt lat="45.88659644281168" lon="9.261970550559472"><ele>546.0</ele><time>2026-04-12T10:00:22Z</time></trkpt><trkpt lat="45.88675828429528" lon="9.261880328129815"><ele>546.0</ele><time>2026-04-12T10:00:23Z</time></trkpt><trkpt lat="45.886916131714955" lon="9.261792355814856"><ele>546.0</ele><time>2026-04-12T10:00:24Z</time></trkpt><trkpt lat="45.88707977616879" lon="9.26169220805588"><ele>548.3333333333334</ele><time>2026-04-12T10:00:25Z</time></trkpt><trkpt lat="45.8872440233058" lon="9.261597652713263"><ele>550.6666666666667</ele><time>2026-04-12T10:00:26Z</time></trkpt><trkpt lat="45.887410297706644" lon="9.261502372168446"><ele>553.0</ele><time>2026-04-12T10:00:27Z</time></trkpt><trkpt lat="45.88757690605013" lon="9.26140961716809"><ele>554.6666666666667</ele><time>2026-04-12T10:00:28Z</time></trkpt><trkpt lat="45.88774370782979" lon="9.26131106323968"><ele>556.3333333333334</ele><time>2026-04-12T10:00:29Z</time></trkpt><trkpt lat="45.88790790967365" lon="9.261216793953851"><ele>558.0</ele><time>2026-04-12T10:00:30Z</time></trkpt><trkpt lat="45.88806858155699" lon="9.261127620441856"><ele>558.0</ele><time>2026-04-12T10:00:31Z</time></trkpt><trkpt lat="45.88822596125739" lon="9.261042927202116"><ele>558.0</ele><time>2026-04-12T10:00:32Z</time></trkpt><trkpt lat="45.88837669626344" lon="9.260965436321099"><ele>558.0</ele><time>2026-04-12T10:00:33Z</time></trkpt><trkpt lat="45.88852423071475" lon="9.260899425144396"><ele>558.3333333333334</ele><time>2026-04-12T10:00:34Z</time></trkpt><trkpt lat="45.88867546052564" lon="9.260847839111406"><ele>558.6666666666667</ele><time>2026-04-12T10:00:35Z</time></trkpt><trkpt lat="45.88882730976407" lon="9.260806750473016"><ele>559.0</ele><time>2026-04-12T10:00:36Z</time></trkpt><trkpt lat="45.888987098010126" lon="9.260763829555431"><ele>559.0</ele><time>2026-04-12T10:00:37Z</time></trkpt><trkpt lat="45.88914424280998" lon="9.26071207023507"><ele>559.0</ele><time>2026-04-12T10:00:38Z</time></trkpt><trkpt lat="45.88930170810675" lon="9.26065474894594"><ele>559.0</ele><time>2026-04-12T10:00:39Z</time></trkpt><trkpt lat="45.889459348783355" lon="9.260604366405955"><ele>561.3333333333334</ele><time>2026-04-12T10:00:40Z</time></trkpt><trkpt lat="45.88962175207525" lon="9.260567992120757"><ele>563.6666666666666</ele><time>2026-04-12T10:00:41Z</time></trkpt><trkpt lat="45.88978873043426" lon="9.260556100061915"><ele>566.0</ele><time>2026-04-12T10:00:42Z</time></trkpt><trkpt lat="45.88995997075579" lon="9.260563146350176"><ele>567.3333333333333</ele><time>2026-04-12T10:00:43Z</time></trkpt><trkpt lat="45.890131205463696" lon="9.260573669357647"><ele>568.6666666666666</ele><time>2026-04-12T10:00:44Z</time></trkpt><trkpt lat="45.89030353965333" lon="9.260584592846492"><ele>570.0</ele><time>2026-04-12T10:00:45Z</time></trkpt><trkpt lat="45.89047563811925" lon="9.260592192070098"><ele>570.0</ele><time>2026-04-12T10:00:46Z</time></trkpt><trkpt lat="45.890657119445734" lon="9.260597529187631"><ele>570.0</ele><time>2026-04-12T10:00:47Z</time></trkpt><trkpt lat="45.890838620991" lon="9.260600959301263"><ele>570.0</ele><time>2026-04-12T10:00:48Z</time></trkpt><trkpt lat="45.8910155156069" lon="9.260605482084314"><ele>572.3333333333334</ele><time>2026-04-12T10:00:49Z</time></trkpt><trkpt lat="45.891183335403895" lon="9.260613031661856"><ele>574.6666666666667</ele><time>2026-04-12T10:00:50Z</time></trkpt><trkpt lat="45.89134874471917" lon="9.26062729829361"><ele>577.0</ele><time>2026-04-12T10:00:51Z</time></trkpt><trkpt lat="45.891515877651315" lon="9.260665723176288"><ele>576.3333333333334</ele><time>2026-04-12T10:00:52Z</time></trkpt><trkpt lat="45.891678054616094" lon="9.260741591017004"><ele>575.6666666666666</ele><time>2026-04-12T10:00:53Z</time></trkpt><trkpt lat="45.891836066276966" lon="9.260818144820183"><ele>575.0</ele><time>2026-04-12T10:00:54Z</time></trkpt><trkpt lat="45.89200302636305" lon="9.260885754700563"><ele>575.0</ele><time>2026-04-12T10:00:55Z</time></trkpt><trkpt lat="45.892175060113786" lon="9.260954012907922"><ele>575.0</ele><time>2026-04-12T10:00:56Z</time></trkpt><trkpt lat="45.89234743017715" lon="9.26101974175067"><ele>575.0</ele><time>2026-04-12T10:00:57Z</time></trkpt><trkpt lat="45.89252351418216" lon="9.26109068750258"><ele>578.3333333333333</ele><time>2026-04-12T10:00:58Z</time></trkpt><trkpt lat="45.892698716169164" lon="9.261160899050083"><ele>581.6666666666666</ele><time>2026-04-12T10:00:59Z</time></trkpt><trkpt lat="45.89287018502554" lon="9.261232226258024"><ele>585.0</ele><time>2026-04-12T10:01:00Z</time></trkpt><trkpt lat="45.89303462485018" lon="9.261300657551196"><ele>585.0</ele><time>2026-04-12T10:01:01Z</time></trkpt><trkpt lat="45.89318867932297" lon="9.26136473300844"><ele>585.0</ele><time>2026-04-12T10:01:02Z</time></trkpt><trkpt lat="45.89333415019106" lon="9.261415932961832"><ele>585.0</ele><time>2026-04-12T10:01:03Z</time></trkpt><trkpt lat="45.893486546713575" lon="9.261447663149779"><ele>582.3333333333334</ele><time>2026-04-12T10:01:04Z</time></trkpt><trkpt lat="45.89364315261776" lon="9.261459655501211"><ele>579.6666666666667</ele><time>2026-04-12T10:01:05Z</time></trkpt><trkpt lat="45.89380195120063" lon="9.261463807064688"><ele>577.0</ele><time>2026-04-12T10:01:06Z</time></trkpt><trkpt lat="45.8939672742613" lon="9.261473714194741"><ele>577.0</ele><time>2026-04-12T10:01:07Z</time></trkpt><trkpt lat="45.89413196209085" lon="9.261486920638646"><ele>577.0</ele><time>2026-04-12T10:01:08Z</time></trkpt><trkpt lat="45.89429725457361" lon="9.261506386659022"><ele>577.0</ele><time>2026-04-12T10:01:09Z</time></trkpt><trkpt lat="45.89446589450977" lon="9.261518506873134"><ele>580.6666666666667</ele><time>2026-04-12T10:01:10Z</time></trkpt><trkpt lat="45.89463713378491" lon="9.261535196776553"><ele>584.3333333333334</ele><time>2026-04-12T10:01:11Z</time></trkpt><trkpt lat="45.89480769280727" lon="9.26157007722294"><ele>588.0</ele><time>2026-04-12T10:01:12Z</time></trkpt><trkpt lat="45.89497303993962" lon="9.261628420744012"><ele>593.3333333333334</ele><time>2026-04-12T10:01:13Z</time></trkpt><trkpt lat="45.895139908286644" lon="9.261701446405485"><ele>598.6666666666667</ele><time>2026-04-12T10:01:14Z</time></trkpt><trkpt lat="45.89530352525926" lon="9.261771324512992"><ele>604.0</ele><time>2026-04-12T10:01:15Z</time></trkpt><trkpt lat="45.89546733605282" lon="9.261839564772933"><ele>604.0</ele><time>2026-04-12T10:01:16Z</time></trkpt><trkpt lat="45.8956254554995" lon="9.261897969926872"><ele>604.0</ele><time>2026-04-12T10:01:17Z</time></trkpt><trkpt lat="45.89576506435876" lon="9.261964065256851"><ele>604.0</ele><time>2026-04-12T10:01:18Z</time></trkpt><trkpt lat="45.89589570243335" lon="9.262052034151429"><ele>603.25</ele><time>2026-04-12T10:01:19Z</time></trkpt><trkpt lat="45.896017411190414" lon="9.262169474652355"><ele>602.5</ele><time>2026-04-12T10:01:20Z</time></trkpt><trkpt lat="45.896123120075586" lon="9.262310656100254"><ele>601.75</ele><time>2026-04-12T10:01:21Z</time></trkpt><trkpt lat="45.89622821527156" lon="9.262439903198784"><ele>601.0</ele><time>2026-04-12T10:01:22Z</time></trkpt><trkpt lat="45.896361392591444" lon="9.26254271988052"><ele>601.0</ele><time>2026-04-12T10:01:23Z</time></trkpt><trkpt lat="45.89649062034568" lon="9.262604094531788"><ele>601.0</ele><time>2026-04-12T10:01:24Z</time></trkpt><trkpt lat="45.89664584647202" lon="9.262648861641903"><ele>601.0</ele><time>2026-04-12T10:01:25Z</time></trkpt><trkpt lat="45.8967985937971" lon="9.26269701944393"><ele>607.3333333333334</ele><time>2026-04-12T10:01:26Z</time></trkpt><trkpt lat="45.89696087790999" lon="9.262776939113234"><ele>613.6666666666666</ele><time>2026-04-12T10:01:27Z</time></trkpt><trkpt lat="45.897115855968295" lon="9.262875379167054"><ele>620.0</ele><time>2026-04-12T10:01:28Z</time></trkpt><trkpt lat="45.89726945358582" lon="9.262982566165695"><ele>620.0</ele><time>2026-04-12T10:01:29Z</time></trkpt><trkpt lat="45.89742520652318" lon="9.26307980349034"><ele>620.0</ele><time>2026-04-12T10:01:30Z</time></trkpt><trkpt lat="45.897592313750906" lon="9.263156641556675"><ele>620.0</ele><time>2026-04-12T10:01:31Z</time></trkpt><trkpt lat="45.89776893524884" lon="9.263211931105472"><ele>614.6666666666666</ele><time>2026-04-12T10:01:32Z</time></trkpt><trkpt lat="45.89794294456017" lon="9.263266203532021"><ele>609.3333333333334</ele><time>2026-04-12T10:01:33Z</time></trkpt><trkpt lat="45.89810273006343" lon="9.26336260618661"><ele>604.0</ele><time>2026-04-12T10:01:34Z</time></trkpt><trkpt lat="45.898253352345776" lon="9.263491110964774"><ele>604.0</ele><time>2026-04-12T10:01:35Z</time></trkpt><trkpt lat="45.898394564598924" lon="9.263644735751551"><ele>604.0</ele><time>2026-04-12T10:01:36Z</time></trkpt><trkpt lat="45.89853302002677" lon="9.263792165540858"><ele>604.0</ele><time>2026-04-12T10:01:37Z</time></trkpt><trkpt lat="45.89867351890253" lon="9.263927728409024"><ele>602.3333333333334</ele><time>2026-04-12T10:01:38Z</time></trkpt><trkpt lat="45.89880996375557" lon="9.264046387896798"><ele>600.6666666666666</ele><time>2026-04-12T10:01:39Z</time></trkpt><trkpt lat="45.898951804861674" lon="9.264143020069428"><ele>599.0</ele><time>2026-04-12T10:01:40Z</time></trkpt><trkpt lat="45.899098274190784" lon="9.26420624192843"><ele>599.0</ele><time>2026-04-12T10:01:41Z</time></trkpt><trkpt lat="45.899250565482276" lon="9.264233077250767"><ele>599.0</ele><time>2026-04-12T10:01:42Z</time></trkpt><trkpt lat="45.89940746493525" lon="9.264216099452733"><ele>599.0</ele><time>2026-04-12T10:01:43Z</time></trkpt><trkpt lat="45.89956786192774" lon="9.264167439204627"><ele>601.0</ele><time>2026-04-12T10:01:44Z</time></trkpt><trkpt lat="45.89973249243715" lon="9.26416276124942"><ele>603.0</ele><time>2026-04-12T10:01:45Z</time></trkpt><trkpt lat="45.89989459372163" lon="9.264128009366198"><ele>605.0</ele><time>2026-04-12T10:01:46Z</time></trkpt><trkpt lat="45.90005601686978" lon="9.264130660015901"><ele>605.0</ele><time>2026-04-12T10:01:47Z</time></trkpt><trkpt lat="45.9002150453881" lon="9.264130191719854"><ele>605.0</ele><time>2026-04-12T10:01:48Z</time></trkpt><trkpt lat="45.900370489585164" lon="9.264111687698016"><ele>605.0</ele><time>2026-04-12T10:01:49Z</time></trkpt><trkpt lat="45.90051615630427" lon="9.26409260275341"><ele>605.0</ele><time>2026-04-12T10:01:50Z</time></trkpt><trkpt lat="45.90065881535862" lon="9.26407535761255"><ele>605.0</ele><time>2026-04-12T10:01:51Z</time></trkpt><trkpt lat="45.90079954613653" lon="9.264058786718492"><ele>605.0</ele><time>2026-04-12T10:01:52Z</time></trkpt><trkpt lat="45.90093677413376" lon="9.264057332933994"><ele>605.0</ele><time>2026-04-12T10:01:53Z</time></trkpt><trkpt lat="45.90107228869699" lon="9.264087843441258"><ele>607.75</ele><time>2026-04-12T10:01:54Z</time></trkpt><trkpt lat="45.90119902483392" lon="9.264184647145022"><ele>610.5</ele><time>2026-04-12T10:01:55Z</time></trkpt><trkpt lat="45.90133275688366" lon="9.264262459908219"><ele>613.25</ele><time>2026-04-12T10:01:56Z</time></trkpt><trkpt lat="45.90146318923459" lon="9.264372926869827"><ele>616.0</ele><time>2026-04-12T10:01:57Z</time></trkpt><trkpt lat="45.90159464358426" lon="9.264477192348586"><ele>616.0</ele><time>2026-04-12T10:01:58Z</time></trkpt><trkpt lat="45.90172310595552" lon="9.264600007043668"><ele>616.0</ele><time>2026-04-12T10:01:59Z</time></trkpt><trkpt lat="45.90184257372572" lon="9.264738329304667"><ele>616.0</ele><time>2026-04-12T10:02:00Z</time></trkpt><trkpt lat="45.901958650427375" lon="9.264898798050023"><ele>616.25</ele><time>2026-04-12T10:02:01Z</time></trkpt><trkpt lat="45.90206494314504" lon="9.265063272821763"><ele>616.5</ele><time>2026-04-12T10:02:02Z</time></trkpt><trkpt lat="45.902167215976206" lon="9.265221820298983"><ele>616.75</ele><time>2026-04-12T10:02:03Z</time></trkpt><trkpt lat="45.90227628880097" lon="9.26534455243681"><ele>617.0</ele><time>2026-04-12T10:02:04Z</time></trkpt><trkpt lat="45.902406426097144" lon="9.265440960719197"><ele>617.0</ele><time>2026-04-12T10:02:05Z</time></trkpt><trkpt lat="45.90254456736144" lon="9.265491724542773"><ele>617.0</ele><time>2026-04-12T10:02:06Z</time></trkpt><trkpt lat="45.90269044345558" lon="9.265523902202947"><ele>617.0</ele><time>2026-04-12T10:02:07Z</time></trkpt><trkpt lat="45.90283465327712" lon="9.265549026447799"><ele>617.0</ele><time>2026-04-12T10:02:08Z</time></trkpt><trkpt lat="45.90297003006012" lon="9.265589334283737"><ele>617.0</ele><time>2026-04-12T10:02:09Z</time></trkpt><trkpt lat="45.903097080042514" lon="9.265673850358572"><ele>617.0</ele><time>2026-04-12T10:02:10Z</time></trkpt><trkpt lat="45.903226174124924" lon="9.265762520051387"><ele>617.0</ele><time>2026-04-12T10:02:11Z</time></trkpt><trkpt lat="45.903367443801606" lon="9.265823844882245"><ele>617.0</ele><time>2026-04-12T10:02:12Z</time></trkpt><trkpt lat="45.90350110535646" lon="9.26590171291531"><ele>617.0</ele><time>2026-04-12T10:02:13Z</time></trkpt><trkpt lat="45.903636663337934" lon="9.265967446514871"><ele>617.0</ele><time>2026-04-12T10:02:14Z</time></trkpt><trkpt lat="45.903748086476995" lon="9.266087880298883"><ele>617.0</ele><time>2026-04-12T10:02:15Z</time></trkpt><trkpt lat="45.90386511230955" lon="9.266209037610164"><ele>617.0</ele><time>2026-04-12T10:02:16Z</time></trkpt><trkpt lat="45.90398977218574" lon="9.266325646447765"><ele>616.25</ele><time>2026-04-12T10:02:17Z</time></trkpt><trkpt lat="45.904101051257136" lon="9.266448981112786"><ele>615.5</ele><time>2026-04-12T10:02:18Z</time></trkpt><trkpt lat="45.90421200670531" lon="9.266555246326863"><ele>614.75</ele><time>2026-04-12T10:02:19Z</time></trkpt><trkpt lat="45.90432362793361" lon="9.266626317472497"><ele>614.0</ele><time>2026-04-12T10:02:20Z</time></trkpt><trkpt lat="45.90444314523507" lon="9.266648168430526"><ele>613.25</ele><time>2026-04-12T10:02:21Z</time></trkpt><trkpt lat="45.90456151657736" lon="9.26662703833128"><ele>612.5</ele><time>2026-04-12T10:02:22Z</time></trkpt><trkpt lat="45.90468237731561" lon="9.266562109219839"><ele>611.75</ele><time>2026-04-12T10:02:23Z</time></trkpt><trkpt lat="45.904799889173056" lon="9.266473400349755"><ele>611.0</ele><time>2026-04-12T10:02:24Z</time></trkpt><trkpt lat="45.90491644859858" lon="9.266381008023567"><ele>611.0</ele><time>2026-04-12T10:02:25Z</time></trkpt><trkpt lat="45.90503738317406" lon="9.26628845338197"><ele>611.0</ele><time>2026-04-12T10:02:26Z</time></trkpt><trkpt lat="45.90516360006903" lon="9.26620015502447"><ele>611.0</ele><time>2026-04-12T10:02:27Z</time></trkpt><trkpt lat="45.90528961289171" lon="9.266114906849372"><ele>611.0</ele><time>2026-04-12T10:02:28Z</time></trkpt><trkpt lat="45.905416892233404" lon="9.266026634915809"><ele>611.75</ele><time>2026-04-12T10:02:29Z</time></trkpt><trkpt lat="45.905546300276015" lon="9.265932134005272"><ele>612.5</ele><time>2026-04-12T10:02:30Z</time></trkpt><trkpt lat="45.90567698410703" lon="9.265839518271637"><ele>613.25</ele><time>2026-04-12T10:02:31Z</time></trkpt><trkpt lat="45.90580446127521" lon="9.26574822591147"><ele>614.0</ele><time>2026-04-12T10:02:32Z</time></trkpt><trkpt lat="45.90592472476757" lon="9.265655136213857"><ele>615.25</ele><time>2026-04-12T10:02:33Z</time></trkpt><trkpt lat="45.90604065329265" lon="9.26555238534531"><ele>616.5</ele><time>2026-04-12T10:02:34Z</time></trkpt><trkpt lat="45.906154488988065" lon="9.265436756969102"><ele>617.75</ele><time>2026-04-12T10:02:35Z</time></trkpt><trkpt lat="45.906273774602674" lon="9.265312521545692"><ele>619.0</ele><time>2026-04-12T10:02:36Z</time></trkpt><trkpt lat="45.90639217940848" lon="9.26518503511025"><ele>619.0</ele><time>2026-04-12T10:02:37Z</time></trkpt><trkpt lat="45.90650986753488" lon="9.265056394671134"><ele>619.0</ele><time>2026-04-12T10:02:38Z</time></trkpt><trkpt lat="45.906633826951" lon="9.264925706631683"><ele>619.0</ele><time>2026-04-12T10:02:39Z</time></trkpt><trkpt lat="45.906760087067646" lon="9.264797542202693"><ele>622.0</ele><time>2026-04-12T10:02:40Z</time></trkpt><trkpt lat="45.9068870403816" lon="9.264664583161585"><ele>625.0</ele><time>2026-04-12T10:02:41Z</time></trkpt><trkpt lat="45.907010001351054" lon="9.264530966294927"><ele>628.0</ele><time>2026-04-12T10:02:42Z</time></trkpt><trkpt lat="45.907133289131174" lon="9.264390872332113"><ele>628.0</ele><time>2026-04-12T10:02:43Z</time></trkpt><trkpt lat="45.90725487375002" lon="9.264254462233183"><ele>628.0</ele><time>2026-04-12T10:02:44Z</time></trkpt><trkpt lat="45.90738052936252" lon="9.264122154647463"><ele>628.0</ele><time>2026-04-12T10:02:45Z</time></trkpt><trkpt lat="45.907503214972756" lon="9.264003587403375"><ele>635.25</ele><time>2026-04-12T10:02:46Z</time></trkpt><trkpt lat="45.90762462810145" lon="9.263889485964219"><ele>642.5</ele><time>2026-04-12T10:02:47Z</time></trkpt><trkpt lat="45.90774888354884" lon="9.263809593360541"><ele>649.75</ele><time>2026-04-12T10:02:48Z</time></trkpt><trkpt lat="45.90787216211542" lon="9.263709240607543"><ele>657.0</ele><time>2026-04-12T10:02:49Z</time></trkpt><trkpt lat="45.908011693441495" lon="9.26365163019734"><ele>657.0</ele><time>2026-04-12T10:02:50Z</time></trkpt><trkpt lat="45.9081561547052" lon="9.263589476145501"><ele>657.0</ele><time>2026-04-12T10:02:51Z</time></trkpt><trkpt lat="45.90830393773842" lon="9.263513998604076"><ele>657.0</ele><time>2026-04-12T10:02:52Z</time></trkpt><trkpt lat="45.908447915796465" lon="9.263440472742179"><ele>651.0</ele><time>2026-04-12T10:02:53Z</time></trkpt><trkpt lat="45.90860171337083" lon="9.263350942081058"><ele>645.0</ele><time>2026-04-12T10:02:54Z</time></trkpt><trkpt lat="45.90875151879501" lon="9.263264829408156"><ele>639.0</ele><time>2026-04-12T10:02:55Z</time></trkpt><trkpt lat="45.90890176863034" lon="9.26317673210496"><ele>651.0</ele><time>2026-04-12T10:02:56Z</time></trkpt><trkpt lat="45.90905694559307" lon="9.263088913930517"><ele>663.0</ele><time>2026-04-12T10:02:57Z</time></trkpt><trkpt lat="45.90921308830948" lon="9.263004387171831"><ele>675.0</ele><time>2026-04-12T10:02:58Z</time></trkpt><trkpt lat="45.9093685395514" lon="9.262919603623063"><ele>675.0</ele><time>2026-04-12T10:02:59Z</time></trkpt><trkpt lat="45.90952058418065" lon="9.262839904441597"><ele>675.0</ele><time>2026-04-12T10:03:00Z</time></trkpt><trkpt lat="45.9096589278785" lon="9.26276487014777"><ele>675.0</ele><time>2026-04-12T10:03:01Z</time></trkpt><trkpt lat="45.90979135879161" lon="9.26269118918808"><ele>675.0</ele><time>2026-04-12T10:03:02Z</time></trkpt><trkpt lat="45.90991976994715" lon="9.262638869568873"><ele>675.0</ele><time>2026-04-12T10:03:03Z</time></trkpt><trkpt lat="45.91004255473814" lon="9.262603076544908"><ele>675.0</ele><time>2026-04-12T10:03:04Z</time></trkpt><trkpt lat="45.910170893084874" lon="9.262582658182238"><ele>675.0</ele><time>2026-04-12T10:03:05Z</time></trkpt><trkpt lat="45.910299896593465" lon="9.262582226861753"><ele>676.0</ele><time>2026-04-12T10:03:06Z</time></trkpt><trkpt lat="45.91042799293927" lon="9.26259880700724"><ele>677.0</ele><time>2026-04-12T10:03:07Z</time></trkpt><trkpt lat="45.910557893447276" lon="9.262618860173623"><ele>678.0</ele><time>2026-04-12T10:03:08Z</time></trkpt><trkpt lat="45.91067898518966" lon="9.262640865126407"><ele>679.0</ele><time>2026-04-12T10:03:09Z</time></trkpt><trkpt lat="45.91080662639261" lon="9.262653273711743"><ele>678.75</ele><time>2026-04-12T10:03:10Z</time></trkpt><trkpt lat="45.910931426249526" lon="9.262664690761348"><ele>678.5</ele><time>2026-04-12T10:03:11Z</time></trkpt><trkpt lat="45.9110596316704" lon="9.262680497694474"><ele>678.25</ele><time>2026-04-12T10:03:12Z</time></trkpt><trkpt lat="45.91117998645316" lon="9.262690103176043"><ele>678.0</ele><time>2026-04-12T10:03:13Z</time></trkpt><trkpt lat="45.91130646431871" lon="9.262682683998705"><ele>678.0</ele><time>2026-04-12T10:03:14Z</time></trkpt><trkpt lat="45.911429544013124" lon="9.26264463270606"><ele>678.0</ele><time>2026-04-12T10:03:15Z</time></trkpt><trkpt lat="45.91154788980152" lon="9.262578526964932"><ele>678.0</ele><time>2026-04-12T10:03:16Z</time></trkpt><trkpt lat="45.911660416703405" lon="9.26247986880002"><ele>678.0</ele><time>2026-04-12T10:03:17Z</time></trkpt><trkpt lat="45.91175910142209" lon="9.262366679259857"><ele>679.25</ele><time>2026-04-12T10:03:18Z</time></trkpt><trkpt lat="45.911845769502136" lon="9.262236749596482"><ele>680.5</ele><time>2026-04-12T10:03:19Z</time></trkpt><trkpt lat="45.9119173060268" lon="9.262073068462072"><ele>681.75</ele><time>2026-04-12T10:03:20Z</time></trkpt><trkpt lat="45.91198080555131" lon="9.261898912632484"><ele>683.0</ele><time>2026-04-12T10:03:21Z</time></trkpt><trkpt lat="45.91203834872518" lon="9.261723138423136"><ele>683.0</ele><time>2026-04-12T10:03:22Z</time></trkpt><trkpt lat="45.912102172476715" lon="9.261556299985726"><ele>683.0</ele><time>2026-04-12T10:03:23Z</time></trkpt><trkpt lat="45.912172962998646" lon="9.261390058483496"><ele>683.0</ele><time>2026-04-12T10:03:24Z</time></trkpt><trkpt lat="45.91224317643478" lon="9.261230150409654"><ele>683.0</ele><time>2026-04-12T10:03:25Z</time></trkpt><trkpt lat="45.912320615889506" lon="9.261077426125363"><ele>684.25</ele><time>2026-04-12T10:03:26Z</time></trkpt><trkpt lat="45.91241100086639" lon="9.26093515546283"><ele>685.5</ele><time>2026-04-12T10:03:27Z</time></trkpt><trkpt lat="45.91251285329422" lon="9.260804688172264"><ele>686.75</ele><time>2026-04-12T10:03:28Z</time></trkpt><trkpt lat="45.91262252813441" lon="9.260680487682222"><ele>688.0</ele><time>2026-04-12T10:03:29Z</time></trkpt><trkpt lat="45.912735109964856" lon="9.260564202854502"><ele>690.0</ele><time>2026-04-12T10:03:30Z</time></trkpt><trkpt lat="45.912852170746945" lon="9.260443511587034"><ele>692.0</ele><time>2026-04-12T10:03:31Z</time></trkpt><trkpt lat="45.91296539505764" lon="9.26032626781937"><ele>694.0</ele><time>2026-04-12T10:03:32Z</time></trkpt><trkpt lat="45.9130750556908" lon="9.260201967163491"><ele>696.0</ele><time>2026-04-12T10:03:33Z</time></trkpt><trkpt lat="45.91318214617268" lon="9.260087631262065"><ele>696.0</ele><time>2026-04-12T10:03:34Z</time></trkpt><trkpt lat="45.91328903309211" lon="9.25998860880577"><ele>696.0</ele><time>2026-04-12T10:03:35Z</time></trkpt><trkpt lat="45.91340171733968" lon="9.25991858331613"><ele>696.0</ele><time>2026-04-12T10:03:36Z</time></trkpt><trkpt lat="45.913524756491974" lon="9.259879808240273"><ele>696.0</ele><time>2026-04-12T10:03:37Z</time></trkpt><trkpt lat="45.913655697908524" lon="9.259861598886589"><ele>698.0</ele><time>2026-04-12T10:03:38Z</time></trkpt><trkpt lat="45.913789089002094" lon="9.259881217637405"><ele>700.0</ele><time>2026-04-12T10:03:39Z</time></trkpt><trkpt lat="45.91391162490806" lon="9.259927239783943"><ele>702.0</ele><time>2026-04-12T10:03:40Z</time></trkpt><trkpt lat="45.914035481985614" lon="9.259997699011409"><ele>704.0</ele><time>2026-04-12T10:03:41Z</time></trkpt><trkpt lat="45.914152710257454" lon="9.26009146954635"><ele>707.75</ele><time>2026-04-12T10:03:42Z</time></trkpt><trkpt lat="45.91427306263855" lon="9.260180351217306"><ele>711.5</ele><time>2026-04-12T10:03:43Z</time></trkpt><trkpt lat="45.91440563945549" lon="9.260249328906946"><ele>715.25</ele><time>2026-04-12T10:03:44Z</time></trkpt><trkpt lat="45.91454695317276" lon="9.260283322840651"><ele>719.0</ele><time>2026-04-12T10:03:45Z</time></trkpt><trkpt lat="45.91469721716586" lon="9.260296200155189"><ele>719.0</ele><time>2026-04-12T10:03:46Z</time></trkpt><trkpt lat="45.91485582006458" lon="9.260314006277367"><ele>719.0</ele><time>2026-04-12T10:03:47Z</time></trkpt><trkpt lat="45.915017281909556" lon="9.26032523036885"><ele>719.0</ele><time>2026-04-12T10:03:48Z</time></trkpt><trkpt lat="45.91518337308029" lon="9.260336388313506"><ele>723.0</ele><time>2026-04-12T10:03:49Z</time></trkpt><trkpt lat="45.91534834193364" lon="9.26035622119108"><ele>727.0</ele><time>2026-04-12T10:03:50Z</time></trkpt><trkpt lat="45.91551197030294" lon="9.260380696337787"><ele>731.0</ele><time>2026-04-12T10:03:51Z</time></trkpt><trkpt lat="45.915674770717274" lon="9.260402207151303"><ele>731.0</ele><time>2026-04-12T10:03:52Z</time></trkpt><trkpt lat="45.91583426705689" lon="9.260424290057415"><ele>731.0</ele><time>2026-04-12T10:03:53Z</time></trkpt><trkpt lat="45.91598557719817" lon="9.260459589003837"><ele>731.0</ele><time>2026-04-12T10:03:54Z</time></trkpt><trkpt lat="45.916133103094666" lon="9.260517677804213"><ele>730.6666666666666</ele><time>2026-04-12T10:03:55Z</time></trkpt><trkpt lat="45.91627712594061" lon="9.260601833420514"><ele>730.3333333333334</ele><time>2026-04-12T10:03:56Z</time></trkpt><trkpt lat="45.91642747905836" lon="9.260709120714859"><ele>730.0</ele><time>2026-04-12T10:03:57Z</time></trkpt><trkpt lat="45.91657447554655" lon="9.26081642774027"><ele>730.0</ele><time>2026-04-12T10:03:58Z</time></trkpt><trkpt lat="45.91672750548014" lon="9.260920047788495"><ele>730.0</ele><time>2026-04-12T10:03:59Z</time></trkpt><trkpt lat="45.916878214130804" lon="9.26101775923212"><ele>730.0</ele><time>2026-04-12T10:04:00Z</time></trkpt><trkpt lat="45.91702156523783" lon="9.261109941350888"><ele>734.0</ele><time>2026-04-12T10:04:01Z</time></trkpt><trkpt lat="45.91716582113173" lon="9.26118418435078"><ele>738.0</ele><time>2026-04-12T10:04:02Z</time></trkpt><trkpt lat="45.91732052080601" lon="9.261226961671246"><ele>742.0</ele><time>2026-04-12T10:04:03Z</time></trkpt><trkpt lat="45.917482939039765" lon="9.26125123278309"><ele>744.0</ele><time>2026-04-12T10:04:04Z</time></trkpt><trkpt lat="45.9176567616119" lon="9.26127479396018"><ele>746.0</ele><time>2026-04-12T10:04:05Z</time></trkpt><trkpt lat="45.91783135060263" lon="9.261313540796653"><ele>748.0</ele><time>2026-04-12T10:04:06Z</time></trkpt><trkpt lat="45.91800708803425" lon="9.261357673463317"><ele>748.0</ele><time>2026-04-12T10:04:07Z</time></trkpt><trkpt lat="45.918176649585696" lon="9.26139748443556"><ele>748.0</ele><time>2026-04-12T10:04:08Z</time></trkpt><trkpt lat="45.91833617498946" lon="9.261432604424298"><ele>748.0</ele><time>2026-04-12T10:04:09Z</time></trkpt><trkpt lat="45.918497114491416" lon="9.261466754371552"><ele>746.25</ele><time>2026-04-12T10:04:10Z</time></trkpt><trkpt lat="45.918654775454364" lon="9.26149314300005"><ele>744.5</ele><time>2026-04-12T10:04:11Z</time></trkpt><trkpt lat="45.91879839557571" lon="9.2615161596969"><ele>742.75</ele><time>2026-04-12T10:04:12Z</time></trkpt><trkpt lat="45.918928249234746" lon="9.261547215741073"><ele>741.0</ele><time>2026-04-12T10:04:13Z</time></trkpt><trkpt lat="45.9190518075858" lon="9.26156895172048"><ele>741.0</ele><time>2026-04-12T10:04:14Z</time></trkpt><trkpt lat="45.919161805423215" lon="9.2615900817044"><ele>741.0</ele><time>2026-04-12T10:04:15Z</time></trkpt><trkpt lat="45.919259105650106" lon="9.261610267813017"><ele>741.0</ele><time>2026-04-12T10:04:16Z</time></trkpt><trkpt lat="45.91934860265942" lon="9.261623501368224"><ele>741.0</ele><time>2026-04-12T10:04:17Z</time></trkpt><trkpt lat="45.919443615598176" lon="9.261645612419105"><ele>741.0</ele><time>2026-04-12T10:04:18Z</time></trkpt><trkpt lat="45.91953807398859" lon="9.261662619198113"><ele>741.5999999999999</ele><time>2026-04-12T10:04:19Z</time></trkpt><trkpt lat="45.91963386406329" lon="9.261670393473892"><ele>742.2</ele><time>2026-04-12T10:04:20Z</time></trkpt><trkpt lat="45.919738432219134" lon="9.261665391021202"><ele>742.8</ele><time>2026-04-12T10:04:21Z</time></trkpt><trkpt lat="45.91984368844278" lon="9.261651392915693"><ele>743.4000000000001</ele><time>2026-04-12T10:04:22Z</time></trkpt><trkpt lat="45.91995406483832" lon="9.261632531213767"><ele>744.0</ele><time>2026-04-12T10:04:23Z</time></trkpt><trkpt lat="45.9200568300024" lon="9.261616340760025"><ele>745.5</ele><time>2026-04-12T10:04:24Z</time></trkpt><trkpt lat="45.9201463411058" lon="9.261608216108243"><ele>747.0</ele><time>2026-04-12T10:04:25Z</time></trkpt><trkpt lat="45.92022133536239" lon="9.26160411076279"><ele>748.5</ele><time>2026-04-12T10:04:26Z</time></trkpt><trkpt lat="45.92028881263641" lon="9.261600263240476"><ele>750.0</ele><time>2026-04-12T10:04:27Z</time></trkpt><trkpt lat="45.92041626924894" lon="9.261639499857177"><ele>751.5</ele><time>2026-04-12T10:04:29Z</time></trkpt><trkpt lat="45.92048919609677" lon="9.261704101782025"><ele>753.0</ele><time>2026-04-12T10:04:30Z</time></trkpt><trkpt lat="45.920576172044996" lon="9.26178172240466"><ele>753.0</ele><time>2026-04-12T10:04:31Z</time></trkpt><trkpt lat="45.92067361876474" lon="9.261851595328931"><ele>753.0</ele><time>2026-04-12T10:04:32Z</time></trkpt><trkpt lat="45.920779586975875" lon="9.261924289672749"><ele>753.0</ele><time>2026-04-12T10:04:33Z</time></trkpt><trkpt lat="45.9208861776978" lon="9.261998281777508"><ele>753.0</ele><time>2026-04-12T10:04:34Z</time></trkpt><trkpt lat="45.920996021404925" lon="9.262072909064207"><ele>752.8</ele><time>2026-04-12T10:04:35Z</time></trkpt><trkpt lat="45.921108498320294" lon="9.262140689241095"><ele>752.5999999999999</ele><time>2026-04-12T10:04:36Z</time></trkpt><trkpt lat="45.921214437763815" lon="9.262194867022579"><ele>752.4000000000001</ele><time>2026-04-12T10:04:37Z</time></trkpt><trkpt lat="45.92131503909216" lon="9.262232528631147"><ele>752.2</ele><time>2026-04-12T10:04:38Z</time></trkpt><trkpt lat="45.92141458564614" lon="9.262263938865768"><ele>752.0</ele><time>2026-04-12T10:04:39Z</time></trkpt><trkpt lat="45.9215180651004" lon="9.262294992360127"><ele>752.0</ele><time>2026-04-12T10:04:40Z</time></trkpt><trkpt lat="45.92162281178423" lon="9.262331389446068"><ele>752.0</ele><time>2026-04-12T10:04:41Z</time></trkpt><trkpt lat="45.92173720029059" lon="9.262368864229574"><ele>752.0</ele><time>2026-04-12T10:04:42Z</time></trkpt><trkpt lat="45.92185551088412" lon="9.262416263409218"><ele>752.0</ele><time>2026-04-12T10:04:43Z</time></trkpt><trkpt lat="45.92197632050043" lon="9.262477681421275"><ele>753.0</ele><time>2026-04-12T10:04:44Z</time></trkpt><trkpt lat="45.92209698748617" lon="9.262544561652687"><ele>754.0</ele><time>2026-04-12T10:04:45Z</time></trkpt><trkpt lat="45.922218252171014" lon="9.262626422540455"><ele>755.0</ele><time>2026-04-12T10:04:46Z</time></trkpt><trkpt lat="45.92232987181675" lon="9.26271329668948"><ele>756.0</ele><time>2026-04-12T10:04:47Z</time></trkpt><trkpt lat="45.92242680063792" lon="9.262811339486891"><ele>756.0</ele><time>2026-04-12T10:04:48Z</time></trkpt><trkpt lat="45.92251367654803" lon="9.26292704345754"><ele>756.0</ele><time>2026-04-12T10:04:49Z</time></trkpt><trkpt lat="45.922600403934496" lon="9.263057325452467"><ele>756.0</ele><time>2026-04-12T10:04:50Z</time></trkpt><trkpt lat="45.9226748226013" lon="9.263197036981317"><ele>756.0</ele><time>2026-04-12T10:04:51Z</time></trkpt><trkpt lat="45.92274104711831" lon="9.263347167164628"><ele>757.25</ele><time>2026-04-12T10:04:52Z</time></trkpt><trkpt lat="45.92279354166258" lon="9.263503979262401"><ele>758.5</ele><time>2026-04-12T10:04:53Z</time></trkpt><trkpt lat="45.92283581794299" lon="9.263668772746678"><ele>759.75</ele><time>2026-04-12T10:04:54Z</time></trkpt><trkpt lat="45.92286531351221" lon="9.263847590530078"><ele>761.0</ele><time>2026-04-12T10:04:55Z</time></trkpt><trkpt lat="45.92288667074201" lon="9.264044452948768"><ele>761.0</ele><time>2026-04-12T10:04:56Z</time></trkpt><trkpt lat="45.92291190151789" lon="9.26425176914733"><ele>761.0</ele><time>2026-04-12T10:04:57Z</time></trkpt><trkpt lat="45.92294167076044" lon="9.264464078514633"><ele>761.0</ele><time>2026-04-12T10:04:58Z</time></trkpt><trkpt lat="45.92297187530367" lon="9.264686770685605"><ele>762.6666666666666</ele><time>2026-04-12T10:04:59Z</time></trkpt><trkpt lat="45.9229937183307" lon="9.26491734791269"><ele>764.3333333333334</ele><time>2026-04-12T10:05:00Z</time></trkpt><trkpt lat="45.923009253147384" lon="9.265136253537397"><ele>766.0</ele><time>2026-04-12T10:05:01Z</time></trkpt><trkpt lat="45.92302520059788" lon="9.265354662813039"><ele>766.0</ele><time>2026-04-12T10:05:02Z</time></trkpt><trkpt lat="45.92304460503283" lon="9.265564985678957"><ele>766.0</ele><time>2026-04-12T10:05:03Z</time></trkpt><trkpt lat="45.92306158945239" lon="9.265768565903684"><ele>766.0</ele><time>2026-04-12T10:05:04Z</time></trkpt><trkpt lat="45.92307723765723" lon="9.265959061413264"><ele>766.0</ele><time>2026-04-12T10:05:05Z</time></trkpt><trkpt lat="45.923091624110754" lon="9.266142697252512"><ele>766.0</ele><time>2026-04-12T10:05:06Z</time></trkpt><trkpt lat="45.92310848646598" lon="9.266319967660255"><ele>766.0</ele><time>2026-04-12T10:05:07Z</time></trkpt><trkpt lat="45.92312918078107" lon="9.266464866141169"><ele>766.0</ele><time>2026-04-12T10:05:08Z</time></trkpt><trkpt lat="45.923166663668844" lon="9.266589207260141"><ele>766.0</ele><time>2026-04-12T10:05:09Z</time></trkpt><trkpt lat="45.92321354867087" lon="9.266695928163474"><ele>766.0</ele><time>2026-04-12T10:05:10Z</time></trkpt><trkpt lat="45.923269437969864" lon="9.266785278022285"><ele>766.0</ele><time>2026-04-12T10:05:11Z</time></trkpt><trkpt lat="45.92335636171135" lon="9.266875719177136"><ele>766.0</ele><time>2026-04-12T10:05:13Z</time></trkpt><trkpt lat="45.923406621892475" lon="9.266948714329562"><ele>766.0</ele><time>2026-04-12T10:05:14Z</time></trkpt><trkpt lat="45.92348735484678" lon="9.267017208256098"><ele>766.0</ele><time>2026-04-12T10:05:16Z</time></trkpt><trkpt lat="45.92356581515203" lon="9.267082895146324"><ele>766.0</ele><time>2026-04-12T10:05:18Z</time></trkpt><trkpt lat="45.92361498751291" lon="9.267139739275178"><ele>766.0</ele><time>2026-04-12T10:05:20Z</time></trkpt><trkpt lat="45.923631864607785" lon="9.267255949501495"><ele>766.0</ele><time>2026-04-12T10:05:23Z</time></trkpt><trkpt lat="45.923597129312576" lon="9.267368056252659"><ele>756.0</ele><time>2026-04-12T10:05:26Z</time></trkpt><trkpt lat="45.92358427904076" lon="9.267464527574825"><ele>756.0</ele><time>2026-04-12T10:05:28Z</time></trkpt><trkpt lat="45.92354349621994" lon="9.267544006376596"><ele>756.0</ele><time>2026-04-12T10:05:50Z</time></trkpt></trkseg><trkseg><trkpt lat="45.92361702795291" lon="9.267402277857576"><ele>756.0</ele><time>2026-04-12T10:22:13.999Z</time></trkpt><trkpt lat="45.923656508246104" lon="9.267325490940166"><ele>756.0</ele><time>2026-04-12T10:22:15.999Z</time></trkpt><trkpt lat="45.923683124953214" lon="9.267218603676797"><ele>756.0</ele><time>2026-04-12T10:22:29.999Z</time></trkpt><trkpt lat="45.92370912149403" lon="9.267095758855467"><ele>756.0</ele><time>2026-04-12T10:22:31.999Z</time></trkpt><trkpt lat="45.92375747907907" lon="9.266955409927355"><ele>756.0</ele><time>2026-04-12T10:22:33.999Z</time></trkpt><trkpt lat="45.923862918944515" lon="9.266880201327625"><ele>757.6666666666666</ele><time>2026-04-12T10:22:35.999Z</time></trkpt><trkpt lat="45.92392845874429" lon="9.266908831950056"><ele>759.3333333333334</ele><time>2026-04-12T10:22:36.999Z</time></trkpt><trkpt lat="45.92398154463717" lon="9.26696186561083"><ele>761.0</ele><time>2026-04-12T10:22:37.999Z</time></trkpt><trkpt lat="45.92404389500453" lon="9.26701028096254"><ele>762.6666666666667</ele><time>2026-04-12T10:22:38.999Z</time></trkpt><trkpt lat="45.92410963180252" lon="9.267055991700417"><ele>764.3333333333334</ele><time>2026-04-12T10:22:39.999Z</time></trkpt><trkpt lat="45.924186931383794" lon="9.267100786615773"><ele>766.0</ele><time>2026-04-12T10:22:40.999Z</time></trkpt><trkpt lat="45.92426949053535" lon="9.267164757188894"><ele>765.6666666666667</ele><time>2026-04-12T10:22:41.999Z</time></trkpt><trkpt lat="45.92434882847028" lon="9.26722001470907"><ele>765.3333333333334</ele><time>2026-04-12T10:22:42.999Z</time></trkpt><trkpt lat="45.924421481439246" lon="9.267269796178958"><ele>765.0</ele><time>2026-04-12T10:22:43.999Z</time></trkpt><trkpt lat="45.924492047005835" lon="9.267312008849201"><ele>764.6666666666666</ele><time>2026-04-12T10:22:44.999Z</time></trkpt><trkpt lat="45.92457318956123" lon="9.267320449219307"><ele>764.3333333333333</ele><time>2026-04-12T10:22:45.999Z</time></trkpt><trkpt lat="45.92466495216532" lon="9.267296427176783"><ele>764.0</ele><time>2026-04-12T10:22:46.999Z</time></trkpt><trkpt lat="45.924753779074955" lon="9.267265095820424"><ele>770.8000000000001</ele><time>2026-04-12T10:22:48Z</time></trkpt><trkpt lat="45.92484888615459" lon="9.267245576828019"><ele>777.6</ele><time>2026-04-12T10:22:49Z</time></trkpt><trkpt lat="45.92494804387341" lon="9.267237524358654"><ele>784.4</ele><time>2026-04-12T10:22:50Z</time></trkpt><trkpt lat="45.92504827327898" lon="9.267241384762988"><ele>791.2</ele><time>2026-04-12T10:22:51Z</time></trkpt><trkpt lat="45.92515214292613" lon="9.267250947090453"><ele>798.0</ele><time>2026-04-12T10:22:52Z</time></trkpt><trkpt lat="45.92525460343163" lon="9.267259869632632"><ele>799.0</ele><time>2026-04-12T10:22:53Z</time></trkpt><trkpt lat="45.925352318187606" lon="9.267285338582083"><ele>800.0</ele><time>2026-04-12T10:22:54Z</time></trkpt><trkpt lat="45.92543893478847" lon="9.26729938091988"><ele>801.0</ele><time>2026-04-12T10:22:55Z</time></trkpt><trkpt lat="45.925518751097904" lon="9.267287103159617"><ele>802.0</ele><time>2026-04-12T10:22:56Z</time></trkpt><trkpt lat="45.92559370115443" lon="9.267233837184175"><ele>803.0</ele><time>2026-04-12T10:22:57Z</time></trkpt><trkpt lat="45.92566751101713" lon="9.2671734950519"><ele>804.0</ele><time>2026-04-12T10:22:58Z</time></trkpt><trkpt lat="45.925736276252806" lon="9.267116907542427"><ele>804.0</ele><time>2026-04-12T10:22:59Z</time></trkpt><trkpt lat="45.92584476047454" lon="9.267041208390426"><ele>804.0</ele><time>2026-04-12T10:23:01Z</time></trkpt><trkpt lat="45.92591035628866" lon="9.267013771949264"><ele>804.0</ele><time>2026-04-12T10:23:02Z</time></trkpt><trkpt lat="45.92599087380587" lon="9.266985453621595"><ele>804.0</ele><time>2026-04-12T10:23:03Z</time></trkpt><trkpt lat="45.926080711512164" lon="9.266974048018515"><ele>804.0</ele><time>2026-04-12T10:23:04Z</time></trkpt><trkpt lat="45.926179204911165" lon="9.266943648978762"><ele>799.8333333333334</ele><time>2026-04-12T10:23:05Z</time></trkpt><trkpt lat="45.9262648006498" lon="9.266937929768082"><ele>795.6666666666667</ele><time>2026-04-12T10:23:06Z</time></trkpt><trkpt lat="45.92634582479295" lon="9.266934837977526"><ele>791.5</ele><time>2026-04-12T10:23:07Z</time></trkpt><trkpt lat="45.926420903403724" lon="9.266915255026737"><ele>787.3333333333334</ele><time>2026-04-12T10:23:08Z</time></trkpt><trkpt lat="45.92648514000298" lon="9.266866272612475"><ele>783.1666666666667</ele><time>2026-04-12T10:23:09Z</time></trkpt><trkpt lat="45.92655089840268" lon="9.266778070456782"><ele>779.0</ele><time>2026-04-12T10:23:10Z</time></trkpt><trkpt lat="45.92662076632661" lon="9.266672690002766"><ele>779.0000000000001</ele><time>2026-04-12T10:23:11Z</time></trkpt><trkpt lat="45.926693037818396" lon="9.266580012978254"><ele>779.0</ele><time>2026-04-12T10:23:12Z</time></trkpt><trkpt lat="45.92676381142738" lon="9.266507110153642"><ele>779.0</ele><time>2026-04-12T10:23:13Z</time></trkpt><trkpt lat="45.926835654596" lon="9.266456004307015"><ele>779.0</ele><time>2026-04-12T10:23:14Z</time></trkpt><trkpt lat="45.926897780780926" lon="9.266411588463097"><ele>779.0000000000001</ele><time>2026-04-12T10:23:15Z</time></trkpt><trkpt lat="45.92697235481312" lon="9.266288374946848"><ele>779.0</ele><time>2026-04-12T10:23:17Z</time></trkpt><trkpt lat="45.926974443435505" lon="9.266180362915023"><ele>780.25</ele><time>2026-04-12T10:23:18Z</time></trkpt><trkpt lat="45.926992021187495" lon="9.266049821474882"><ele>781.5</ele><time>2026-04-12T10:23:19Z</time></trkpt><trkpt lat="45.927012917083786" lon="9.265780997810166"><ele>782.75</ele><time>2026-04-12T10:23:21Z</time></trkpt><trkpt lat="45.927024016955826" lon="9.265632288003765"><ele>784.0</ele><time>2026-04-12T10:23:22Z</time></trkpt><trkpt lat="45.9270273837002" lon="9.265476207438004"><ele>784.0</ele><time>2026-04-12T10:23:23Z</time></trkpt><trkpt lat="45.92703366080395" lon="9.265321569069378"><ele>784.0</ele><time>2026-04-12T10:23:24Z</time></trkpt><trkpt lat="45.92705053640209" lon="9.26516535426708"><ele>784.0</ele><time>2026-04-12T10:23:25Z</time></trkpt><trkpt lat="45.92705900637807" lon="9.265007512526475"><ele>784.0</ele><time>2026-04-12T10:23:26Z</time></trkpt><trkpt lat="45.92707315498073" lon="9.26485472836868"><ele>784.0</ele><time>2026-04-12T10:23:27Z</time></trkpt><trkpt lat="45.92708368601672" lon="9.264726979598619"><ele>787.0</ele><time>2026-04-12T10:23:28Z</time></trkpt><trkpt lat="45.92709230867436" lon="9.264621839744773"><ele>790.0</ele><time>2026-04-12T10:23:29Z</time></trkpt><trkpt lat="45.92710606961079" lon="9.264532992816296"><ele>793.0</ele><time>2026-04-12T10:23:30Z</time></trkpt><trkpt lat="45.92713979241911" lon="9.264452357410422"><ele>796.0</ele><time>2026-04-12T10:23:31Z</time></trkpt><trkpt lat="45.92719379210478" lon="9.264395796060406"><ele>799.0</ele><time>2026-04-12T10:23:32Z</time></trkpt><trkpt lat="45.92726329053993" lon="9.26437267993312"><ele>802.0</ele><time>2026-04-12T10:23:33Z</time></trkpt><trkpt lat="45.92734014074577" lon="9.264348719675088"><ele>805.0</ele><time>2026-04-12T10:23:34Z</time></trkpt><trkpt lat="45.927414822510485" lon="9.264299767182752"><ele>805.0</ele><time>2026-04-12T10:23:35Z</time></trkpt><trkpt lat="45.927493300988374" lon="9.264233978039647"><ele>805.0</ele><time>2026-04-12T10:23:36Z</time></trkpt><trkpt lat="45.92766764684124" lon="9.264064968533106"><ele>805.0</ele><time>2026-04-12T10:23:38Z</time></trkpt><trkpt lat="45.92776668313964" lon="9.263975856323919"><ele>805.0</ele><time>2026-04-12T10:23:39Z</time></trkpt><trkpt lat="45.9278695232373" lon="9.263881490412308"><ele>807.75</ele><time>2026-04-12T10:23:40Z</time></trkpt><trkpt lat="45.92797387484286" lon="9.263787262717342"><ele>810.5</ele><time>2026-04-12T10:23:41Z</time></trkpt><trkpt lat="45.928075622009096" lon="9.263693398842777"><ele>813.25</ele><time>2026-04-12T10:23:42Z</time></trkpt><trkpt lat="45.928165178918555" lon="9.26360858942022"><ele>816.0</ele><time>2026-04-12T10:23:43Z</time></trkpt><trkpt lat="45.92824812962468" lon="9.263525715923373"><ele>816.0</ele><time>2026-04-12T10:23:44Z</time></trkpt><trkpt lat="45.928318370416626" lon="9.263429663780835"><ele>816.0</ele><time>2026-04-12T10:23:45Z</time></trkpt><trkpt lat="45.92837218109117" lon="9.263311224266943"><ele>816.0</ele><time>2026-04-12T10:23:46Z</time></trkpt><trkpt lat="45.92842807371508" lon="9.263193836806845"><ele>816.0</ele><time>2026-04-12T10:23:47Z</time></trkpt><trkpt lat="45.9285064688504" lon="9.263113655415662"><ele>816.0</ele><time>2026-04-12T10:23:48Z</time></trkpt><trkpt lat="45.92856171807057" lon="9.263008553484207"><ele>814.4</ele><time>2026-04-12T10:23:49Z</time></trkpt><trkpt lat="45.92861231143485" lon="9.262902508191113"><ele>812.8</ele><time>2026-04-12T10:23:50Z</time></trkpt><trkpt lat="45.928659088887166" lon="9.262777319037879"><ele>811.1999999999999</ele><time>2026-04-12T10:23:51Z</time></trkpt><trkpt lat="45.92870069947802" lon="9.262653450992428"><ele>809.5999999999999</ele><time>2026-04-12T10:23:52Z</time></trkpt><trkpt lat="45.92873859527209" lon="9.262529049775944"><ele>808.0</ele><time>2026-04-12T10:23:53Z</time></trkpt><trkpt lat="45.928763809544506" lon="9.262405739470573"><ele>809.5999999999999</ele><time>2026-04-12T10:23:54Z</time></trkpt><trkpt lat="45.92877707501412" lon="9.262268399400924"><ele>811.1999999999999</ele><time>2026-04-12T10:23:55Z</time></trkpt><trkpt lat="45.928773378842514" lon="9.262121778330666"><ele>812.8</ele><time>2026-04-12T10:23:56Z</time></trkpt><trkpt lat="45.9287653263627" lon="9.261971518600344"><ele>814.4</ele><time>2026-04-12T10:23:57Z</time></trkpt><trkpt lat="45.92876324213727" lon="9.261810198975807"><ele>816.0</ele><time>2026-04-12T10:23:58Z</time></trkpt><trkpt lat="45.9287695163924" lon="9.261651234383208"><ele>816.0</ele><time>2026-04-12T10:23:59Z</time></trkpt><trkpt lat="45.928787600922064" lon="9.26148558358363"><ele>816.0</ele><time>2026-04-12T10:24:00Z</time></trkpt><trkpt lat="45.928807068826124" lon="9.261321453214915"><ele>816.0</ele><time>2026-04-12T10:24:01Z</time></trkpt><trkpt lat="45.92882527195732" lon="9.261175114470143"><ele>816.0</ele><time>2026-04-12T10:24:02Z</time></trkpt><trkpt lat="45.928848148684665" lon="9.26103590600367"><ele>816.0</ele><time>2026-04-12T10:24:03Z</time></trkpt><trkpt lat="45.92889204235011" lon="9.260907118038517"><ele>818.8</ele><time>2026-04-12T10:24:04Z</time></trkpt><trkpt lat="45.92896776348585" lon="9.260800149524629"><ele>821.5999999999999</ele><time>2026-04-12T10:24:05Z</time></trkpt><trkpt lat="45.92904590994947" lon="9.260704735025927"><ele>824.4</ele><time>2026-04-12T10:24:06Z</time></trkpt><trkpt lat="45.92914289194531" lon="9.260612439086886"><ele>827.2</ele><time>2026-04-12T10:24:07Z</time></trkpt><trkpt lat="45.929225895770294" lon="9.260497295505212"><ele>830.0</ele><time>2026-04-12T10:24:08Z</time></trkpt><trkpt lat="45.92929754125636" lon="9.260352844827649"><ele>830.0</ele><time>2026-04-12T10:24:09Z</time></trkpt><trkpt lat="45.929361321724166" lon="9.260185677337892"><ele>830.0</ele><time>2026-04-12T10:24:10Z</time></trkpt><trkpt lat="45.92943109261796" lon="9.260025959204535"><ele>830.0</ele><time>2026-04-12T10:24:11Z</time></trkpt><trkpt lat="45.92950336988166" lon="9.259865491292315"><ele>830.0</ele><time>2026-04-12T10:24:11.999Z</time></trkpt><trkpt lat="45.929577769382135" lon="9.25971419176433"><ele>833.25</ele><time>2026-04-12T10:24:12.999Z</time></trkpt><trkpt lat="45.929651655456034" lon="9.259561366791974"><ele>836.5</ele><time>2026-04-12T10:24:13.999Z</time></trkpt><trkpt lat="45.929721248411205" lon="9.259406203470864"><ele>839.75</ele><time>2026-04-12T10:24:14.999Z</time></trkpt><trkpt lat="45.92979253293466" lon="9.259261903777858"><ele>843.0</ele><time>2026-04-12T10:24:15.999Z</time></trkpt><trkpt lat="45.92985408683052" lon="9.259129105956921"><ele>843.0</ele><time>2026-04-12T10:24:16.999Z</time></trkpt><trkpt lat="45.92991051680818" lon="9.259004812606277"><ele>843.0</ele><time>2026-04-12T10:24:17.999Z</time></trkpt><trkpt lat="45.92997018260102" lon="9.258884386017476"><ele>843.0</ele><time>2026-04-12T10:24:18.999Z</time></trkpt><trkpt lat="45.9300251543093" lon="9.258761236663792"><ele>843.0</ele><time>2026-04-12T10:24:19.999Z</time></trkpt><trkpt lat="45.93007666445589" lon="9.258640556513123"><ele>843.0</ele><time>2026-04-12T10:24:20.999Z</time></trkpt><trkpt lat="45.930114446506934" lon="9.258514437799814"><ele>842.2</ele><time>2026-04-12T10:24:21.999Z</time></trkpt><trkpt lat="45.93012513540793" lon="9.258384882284643"><ele>841.4</ele><time>2026-04-12T10:24:22.999Z</time></trkpt><trkpt lat="45.93011252116081" lon="9.258247972602861"><ele>840.6</ele><time>2026-04-12T10:24:23.999Z</time></trkpt><trkpt lat="45.93008166173379" lon="9.258100755433128"><ele>839.8000000000001</ele><time>2026-04-12T10:24:24.999Z</time></trkpt><trkpt lat="45.9300360588815" lon="9.257950047188876"><ele>839.0</ele><time>2026-04-12T10:24:25.999Z</time></trkpt><trkpt lat="45.93001165971599" lon="9.257788929691285"><ele>840.75</ele><time>2026-04-12T10:24:26.999Z</time></trkpt><trkpt lat="45.92997075935973" lon="9.257628422804075"><ele>842.5</ele><time>2026-04-12T10:24:27.999Z</time></trkpt><trkpt lat="45.92992858869462" lon="9.25746293094497"><ele>844.25</ele><time>2026-04-12T10:24:28.999Z</time></trkpt><trkpt lat="45.92988042066638" lon="9.257307125915414"><ele>846.0</ele><time>2026-04-12T10:24:29.999Z</time></trkpt><trkpt lat="45.9298405858657" lon="9.257160045442253"><ele>846.0</ele><time>2026-04-12T10:24:30.999Z</time></trkpt><trkpt lat="45.929810864822095" lon="9.257039327437477"><ele>846.0</ele><time>2026-04-12T10:24:31.999Z</time></trkpt><trkpt lat="45.929786175031424" lon="9.256939987056372"><ele>846.0</ele><time>2026-04-12T10:24:32.999Z</time></trkpt><trkpt lat="45.929767882384084" lon="9.256851093634632"><ele>846.0</ele><time>2026-04-12T10:24:33.999Z</time></trkpt><trkpt lat="45.92971891952273" lon="9.256761393246826"><ele>846.0</ele><time>2026-04-12T10:24:35.999Z</time></trkpt><trkpt lat="45.92962769911999" lon="9.256796160440148"><ele>846.0</ele><time>2026-04-12T10:24:37.999Z</time></trkpt><trkpt lat="45.929610671224175" lon="9.25690437860904"><ele>846.0</ele><time>2026-04-12T10:24:38.999Z</time></trkpt><trkpt lat="45.92965007952689" lon="9.257017114270765"><ele>846.0</ele><time>2026-04-12T10:24:39.999Z</time></trkpt><trkpt lat="45.92966512597586" lon="9.257118875151326"><ele>846.0</ele><time>2026-04-12T10:24:40.999Z</time></trkpt><trkpt lat="45.929664442141345" lon="9.257232600074378"><ele>846.0</ele><time>2026-04-12T10:24:41.999Z</time></trkpt><trkpt lat="45.92965120447065" lon="9.257346680865737"><ele>846.0</ele><time>2026-04-12T10:24:42.999Z</time></trkpt><trkpt lat="45.929615127732596" lon="9.25746145607452"><ele>846.0</ele><time>2026-04-12T10:24:43.999Z</time></trkpt><trkpt lat="45.929551991461096" lon="9.25757628369227"><ele>847.0</ele><time>2026-04-12T10:24:44.999Z</time></trkpt><trkpt lat="45.92951175654447" lon="9.257719915100628"><ele>848.0</ele><time>2026-04-12T10:24:45.999Z</time></trkpt><trkpt lat="45.929457316376784" lon="9.257855501934765"><ele>849.0</ele><time>2026-04-12T10:24:46.999Z</time></trkpt><trkpt lat="45.929409857101994" lon="9.258000236398289"><ele>850.0</ele><time>2026-04-12T10:24:47.999Z</time></trkpt><trkpt lat="45.929361152500995" lon="9.258136775315805"><ele>851.0</ele><time>2026-04-12T10:24:48.999Z</time></trkpt><trkpt lat="45.92933030583205" lon="9.258251092572245"><ele>851.0000000000001</ele><time>2026-04-12T10:24:49.999Z</time></trkpt><trkpt lat="45.92932751147521" lon="9.258359728557284"><ele>851.0</ele><time>2026-04-12T10:24:50.999Z</time></trkpt><trkpt lat="45.929326047915026" lon="9.258468699188711"><ele>851.0</ele><time>2026-04-12T10:24:51.999Z</time></trkpt><trkpt lat="45.92928382712475" lon="9.258606225605373"><ele>851.0</ele><time>2026-04-12T10:24:53.999Z</time></trkpt><trkpt lat="45.92919247258959" lon="9.2585792343229"><ele>851.0000000000001</ele><time>2026-04-12T10:24:55.999Z</time></trkpt><trkpt lat="45.92920577950852" lon="9.258440948654298"><ele>851.0</ele><time>2026-04-12T10:24:57.999Z</time></trkpt><trkpt lat="45.92920451609996" lon="9.258350163974805"><ele>854.6666666666667</ele><time>2026-04-12T10:24:58.999Z</time></trkpt><trkpt lat="45.92919174939192" lon="9.258245672610915"><ele>858.3333333333334</ele><time>2026-04-12T10:24:59.999Z</time></trkpt><trkpt lat="45.92918726018041" lon="9.258142102487376"><ele>862.0</ele><time>2026-04-12T10:25:00.999Z</time></trkpt><trkpt lat="45.92917989720014" lon="9.258028227016693"><ele>865.6666666666667</ele><time>2026-04-12T10:25:01.999Z</time></trkpt><trkpt lat="45.92917257621767" lon="9.257900899835068"><ele>869.3333333333334</ele><time>2026-04-12T10:25:02.999Z</time></trkpt><trkpt lat="45.92916680606897" lon="9.257757052172032"><ele>873.0</ele><time>2026-04-12T10:25:03.999Z</time></trkpt><trkpt lat="45.92916095539079" lon="9.257620656859332"><ele>874.0</ele><time>2026-04-12T10:25:04.999Z</time></trkpt><trkpt lat="45.929147097735274" lon="9.257480063338322"><ele>875.0</ele><time>2026-04-12T10:25:05.999Z</time></trkpt><trkpt lat="45.92913492728998" lon="9.257350667631735"><ele>876.0</ele><time>2026-04-12T10:25:06.999Z</time></trkpt><trkpt lat="45.92912496788829" lon="9.257209345839517"><ele>877.0</ele><time>2026-04-12T10:25:07.999Z</time></trkpt><trkpt lat="45.92911989887253" lon="9.257085446563293"><ele>878.0</ele><time>2026-04-12T10:25:08.999Z</time></trkpt><trkpt lat="45.929116431573675" lon="9.25699093854713"><ele>879.0</ele><time>2026-04-12T10:25:09.999Z</time></trkpt><trkpt lat="45.92907641225057" lon="9.256855779536627"><ele>879.0</ele><time>2026-04-12T10:25:12Z</time></trkpt><trkpt lat="45.928951431092635" lon="9.256864442275088"><ele>879.0</ele><time>2026-04-12T10:25:14Z</time></trkpt><trkpt lat="45.92894469882873" lon="9.256993128426403"><ele>879.0</ele><time>2026-04-12T10:25:15Z</time></trkpt><trkpt lat="45.928932141879834" lon="9.257084489543853"><ele>879.0</ele><time>2026-04-12T10:25:16Z</time></trkpt><trkpt lat="45.92891871178414" lon="9.257177618583455"><ele>879.0</ele><time>2026-04-12T10:25:17Z</time></trkpt><trkpt lat="45.92890969734283" lon="9.2572755567453"><ele>879.0</ele><time>2026-04-12T10:25:18Z</time></trkpt><trkpt lat="45.92886193897146" lon="9.25734160203467"><ele>879.0</ele><time>2026-04-12T10:25:19Z</time></trkpt><trkpt lat="45.928818577292205" lon="9.257438051067316"><ele>879.0000000000001</ele><time>2026-04-12T10:25:20Z</time></trkpt><trkpt lat="45.92876836305224" lon="9.257543481849769"><ele>879.0000000000001</ele><time>2026-04-12T10:25:21Z</time></trkpt><trkpt lat="45.92871631214261" lon="9.257654239324749"><ele>879.0</ele><time>2026-04-12T10:25:22Z</time></trkpt><trkpt lat="45.92866351275462" lon="9.257769874960012"><ele>879.0</ele><time>2026-04-12T10:25:23Z</time></trkpt><trkpt lat="45.92860506881323" lon="9.257900208255624"><ele>879.0</ele><time>2026-04-12T10:25:24Z</time></trkpt><trkpt lat="45.92854525758612" lon="9.25803385298753"><ele>879.0000000000001</ele><time>2026-04-12T10:25:25Z</time></trkpt><trkpt lat="45.928485975566055" lon="9.258166315580064"><ele>879.0000000000001</ele><time>2026-04-12T10:25:26Z</time></trkpt><trkpt lat="45.92842595604657" lon="9.25830042580561"><ele>879.0</ele><time>2026-04-12T10:25:27Z</time></trkpt><trkpt lat="45.92837648811963" lon="9.25845196016811"><ele>879.0</ele><time>2026-04-12T10:25:28Z</time></trkpt><trkpt lat="45.9283182070982" lon="9.2585680387252"><ele>880.6666666666666</ele><time>2026-04-12T10:25:29Z</time></trkpt><trkpt lat="45.92828568142779" lon="9.258678715334431"><ele>882.3333333333333</ele><time>2026-04-12T10:25:30Z</time></trkpt><trkpt lat="45.9282544777889" lon="9.258776241763501"><ele>884.0</ele><time>2026-04-12T10:25:31Z</time></trkpt><trkpt lat="45.928231314672544" lon="9.258869022620871"><ele>885.6666666666666</ele><time>2026-04-12T10:25:32Z</time></trkpt><trkpt lat="45.92817899075041" lon="9.259001025256572"><ele>887.3333333333333</ele><time>2026-04-12T10:25:34Z</time></trkpt><trkpt lat="45.92809691869407" lon="9.258972192126121"><ele>889.0</ele><time>2026-04-12T10:25:36Z</time></trkpt><trkpt lat="45.92808884246864" lon="9.25882802232812"><ele>890.9999999999999</ele><time>2026-04-12T10:25:38Z</time></trkpt><trkpt lat="45.92812299984174" lon="9.258749722457445"><ele>893.0</ele><time>2026-04-12T10:25:39Z</time></trkpt><trkpt lat="45.92815218026679" lon="9.258663812332099"><ele>895.0</ele><time>2026-04-12T10:25:40Z</time></trkpt><trkpt lat="45.928173098435835" lon="9.258561597745194"><ele>897.0</ele><time>2026-04-12T10:25:41Z</time></trkpt><trkpt lat="45.928182409870594" lon="9.258441652426514"><ele>898.9999999999999</ele><time>2026-04-12T10:25:42Z</time></trkpt><trkpt lat="45.928183457408196" lon="9.258307897591818"><ele>901.0</ele><time>2026-04-12T10:25:43Z</time></trkpt><trkpt lat="45.928180744468804" lon="9.258162689853064"><ele>902.5</ele><time>2026-04-12T10:25:44Z</time></trkpt><trkpt lat="45.92817762194484" lon="9.25800830719055"><ele>904.0</ele><time>2026-04-12T10:25:45Z</time></trkpt><trkpt lat="45.92817149412737" lon="9.257846116983535"><ele>905.5</ele><time>2026-04-12T10:25:46Z</time></trkpt><trkpt lat="45.92816777246474" lon="9.257679625565132"><ele>907.0</ele><time>2026-04-12T10:25:47Z</time></trkpt><trkpt lat="45.928163870266154" lon="9.257504497143621"><ele>907.0</ele><time>2026-04-12T10:25:48Z</time></trkpt><trkpt lat="45.92815720429385" lon="9.257320846993805"><ele>907.0</ele><time>2026-04-12T10:25:49Z</time></trkpt><trkpt lat="45.92815524273572" lon="9.25713264726713"><ele>907.0</ele><time>2026-04-12T10:25:50Z</time></trkpt><trkpt lat="45.92815199797694" lon="9.256936831745701"><ele>907.0</ele><time>2026-04-12T10:25:51Z</time></trkpt><trkpt lat="45.92814855563125" lon="9.256744990146315"><ele>908.5</ele><time>2026-04-12T10:25:52Z</time></trkpt><trkpt lat="45.92814072352169" lon="9.256559383497793"><ele>910.0</ele><time>2026-04-12T10:25:53Z</time></trkpt><trkpt lat="45.928138105543894" lon="9.256373299309669"><ele>911.5</ele><time>2026-04-12T10:25:54Z</time></trkpt><trkpt lat="45.928130947021145" lon="9.256196601060557"><ele>913.0</ele><time>2026-04-12T10:25:55Z</time></trkpt><trkpt lat="45.92813263193163" lon="9.25603052674058"><ele>915.4</ele><time>2026-04-12T10:25:56Z</time></trkpt><trkpt lat="45.928145038387484" lon="9.255872167585329"><ele>917.8</ele><time>2026-04-12T10:25:57Z</time></trkpt><trkpt lat="45.9281814043173" lon="9.255722659562275"><ele>920.2</ele><time>2026-04-12T10:25:58Z</time></trkpt><trkpt lat="45.92823717658464" lon="9.255587432252069"><ele>922.6</ele><time>2026-04-12T10:25:59Z</time></trkpt><trkpt lat="45.928289006308674" lon="9.255441293545127"><ele>925.0</ele><time>2026-04-12T10:26:00Z</time></trkpt><trkpt lat="45.928337549110424" lon="9.255284817283336"><ele>920.75</ele><time>2026-04-12T10:26:01Z</time></trkpt><trkpt lat="45.92840133557893" lon="9.255133809862684"><ele>916.5</ele><time>2026-04-12T10:26:02Z</time></trkpt><trkpt lat="45.928456138315944" lon="9.254982257277737"><ele>912.25</ele><time>2026-04-12T10:26:03Z</time></trkpt><trkpt lat="45.92850490050622" lon="9.254833935645614"><ele>908.0</ele><time>2026-04-12T10:26:04Z</time></trkpt><trkpt lat="45.92853409781664" lon="9.254688084969686"><ele>908.0</ele><time>2026-04-12T10:26:05Z</time></trkpt><trkpt lat="45.92857103423103" lon="9.254551130653429"><ele>908.0</ele><time>2026-04-12T10:26:06Z</time></trkpt><trkpt lat="45.928606915315186" lon="9.25441879921953"><ele>908.0</ele><time>2026-04-12T10:26:07Z</time></trkpt><trkpt lat="45.92861086429174" lon="9.25428264949989"><ele>908.0</ele><time>2026-04-12T10:26:08Z</time></trkpt><trkpt lat="45.92858908659759" lon="9.254144595034777"><ele>908.0</ele><time>2026-04-12T10:26:09Z</time></trkpt><trkpt lat="45.92855135110716" lon="9.254000305497641"><ele>909.75</ele><time>2026-04-12T10:26:10Z</time></trkpt><trkpt lat="45.92852637090769" lon="9.25384530105951"><ele>911.5</ele><time>2026-04-12T10:26:11Z</time></trkpt><trkpt lat="45.928506724569054" lon="9.253670460433357"><ele>913.25</ele><time>2026-04-12T10:26:12Z</time></trkpt><trkpt lat="45.92847959319386" lon="9.253485188352643"><ele>915.0</ele><time>2026-04-12T10:26:13Z</time></trkpt><trkpt lat="45.92845517275022" lon="9.253298438383906"><ele>916.5</ele><time>2026-04-12T10:26:14Z</time></trkpt><trkpt lat="45.92842902617666" lon="9.25310756277475"><ele>918.0</ele><time>2026-04-12T10:26:15Z</time></trkpt><trkpt lat="45.92840433523992" lon="9.252919769699938"><ele>919.5</ele><time>2026-04-12T10:26:16Z</time></trkpt><trkpt lat="45.92837568223138" lon="9.252737456199014"><ele>921.0</ele><time>2026-04-12T10:26:17Z</time></trkpt><trkpt lat="45.928371492074014" lon="9.252563059545295"><ele>923.0</ele><time>2026-04-12T10:26:17.999Z</time></trkpt><trkpt lat="45.928369614459825" lon="9.252403453745917"><ele>924.9999999999999</ele><time>2026-04-12T10:26:18.999Z</time></trkpt><trkpt lat="45.92836848885129" lon="9.252246935643262"><ele>926.9999999999999</ele><time>2026-04-12T10:26:19.999Z</time></trkpt><trkpt lat="45.92837728997011" lon="9.252098848493544"><ele>929.0</ele><time>2026-04-12T10:26:20.999Z</time></trkpt><trkpt lat="45.92839772927202" lon="9.251962519725474"><ele>931.0</ele><time>2026-04-12T10:26:21.999Z</time></trkpt><trkpt lat="45.92840434108211" lon="9.25182989653116"><ele>936.0</ele><time>2026-04-12T10:26:22.999Z</time></trkpt><trkpt lat="45.9283718683376" lon="9.251702171232445"><ele>940.9999999999999</ele><time>2026-04-12T10:26:23.999Z</time></trkpt><trkpt lat="45.928337632357994" lon="9.25156058938163"><ele>945.9999999999999</ele><time>2026-04-12T10:26:24.999Z</time></trkpt><trkpt lat="45.92827865446031" lon="9.251425768576587"><ele>951.0</ele><time>2026-04-12T10:26:25.999Z</time></trkpt><trkpt lat="45.92821005501538" lon="9.251310023837368"><ele>956.0</ele><time>2026-04-12T10:26:26.999Z</time></trkpt><trkpt lat="45.92816054128048" lon="9.251173293331627"><ele>956.25</ele><time>2026-04-12T10:26:27.999Z</time></trkpt><trkpt lat="45.928110379462716" lon="9.251024439327534"><ele>956.5</ele><time>2026-04-12T10:26:28.999Z</time></trkpt><trkpt lat="45.92807225071418" lon="9.250867797334493"><ele>956.75</ele><time>2026-04-12T10:26:29.999Z</time></trkpt><trkpt lat="45.92803914875509" lon="9.250702124516385"><ele>957.0</ele><time>2026-04-12T10:26:30.999Z</time></trkpt><trkpt lat="45.928015305608724" lon="9.250531838617924"><ele>959.0</ele><time>2026-04-12T10:26:31.999Z</time></trkpt><trkpt lat="45.92798755002945" lon="9.250359321145002"><ele>961.0</ele><time>2026-04-12T10:26:32.999Z</time></trkpt><trkpt lat="45.92796208179121" lon="9.25018851180791"><ele>963.0</ele><time>2026-04-12T10:26:33.999Z</time></trkpt><trkpt lat="45.92793132543636" lon="9.25002205012806"><ele>965.0</ele><time>2026-04-12T10:26:34.999Z</time></trkpt><trkpt lat="45.92790646776732" lon="9.249865650225837"><ele>966.2</ele><time>2026-04-12T10:26:35.999Z</time></trkpt><trkpt lat="45.92788038564943" lon="9.24972731707232"><ele>967.4</ele><time>2026-04-12T10:26:36.999Z</time></trkpt><trkpt lat="45.927857277929974" lon="9.249594843554224"><ele>968.5999999999999</ele><time>2026-04-12T10:26:37.999Z</time></trkpt><trkpt lat="45.92783593595051" lon="9.24946892368988"><ele>969.8</ele><time>2026-04-12T10:26:38.999Z</time></trkpt><trkpt lat="45.92781321433807" lon="9.249341930740602"><ele>971.0</ele><time>2026-04-12T10:26:39.999Z</time></trkpt><trkpt lat="45.92779175864811" lon="9.249215735565093"><ele>971.0000000000001</ele><time>2026-04-12T10:26:40.999Z</time></trkpt><trkpt lat="45.927773407874945" lon="9.249090977342927"><ele>971.0</ele><time>2026-04-12T10:26:41.999Z</time></trkpt><trkpt lat="45.92775554705518" lon="9.248973407484025"><ele>971.0</ele><time>2026-04-12T10:26:42.999Z</time></trkpt><trkpt lat="45.92774762342319" lon="9.248862976375987"><ele>971.0</ele><time>2026-04-12T10:26:43.999Z</time></trkpt><trkpt lat="45.9277435831186" lon="9.24875939693294"><ele>971.0000000000001</ele><time>2026-04-12T10:26:44.999Z</time></trkpt><trkpt lat="45.92775015301758" lon="9.248663893590345"><ele>971.0</ele><time>2026-04-12T10:26:45.999Z</time></trkpt><trkpt lat="45.927770898525054" lon="9.248517482127431"><ele>970.8333333333334</ele><time>2026-04-12T10:26:47.999Z</time></trkpt><trkpt lat="45.927791621210226" lon="9.248407250528887"><ele>970.6666666666667</ele><time>2026-04-12T10:26:50Z</time></trkpt><trkpt lat="45.92781384868966" lon="9.248286220630705"><ele>970.5</ele><time>2026-04-12T10:26:53Z</time></trkpt><trkpt lat="45.92782654528598" lon="9.248193740834976"><ele>970.3333333333333</ele><time>2026-04-12T10:26:55Z</time></trkpt><trkpt lat="45.9278573284396" lon="9.248053498862319"><ele>970.1666666666666</ele><time>2026-04-12T10:26:57Z</time></trkpt><trkpt lat="45.92787721379877" lon="9.24796600277011"><ele>970.0</ele><time>2026-04-12T10:26:58Z</time></trkpt><trkpt lat="45.92789716693481" lon="9.247873114932133"><ele>969.9999999999999</ele><time>2026-04-12T10:26:59Z</time></trkpt><trkpt lat="45.927919448007415" lon="9.24777559695777"><ele>970.0</ele><time>2026-04-12T10:27:00Z</time></trkpt><trkpt lat="45.92794330292499" lon="9.24767488621874"><ele>970.0</ele><time>2026-04-12T10:27:01Z</time></trkpt><trkpt lat="45.92796750765146" lon="9.247567949765012"><ele>970.0</ele><time>2026-04-12T10:27:02Z</time></trkpt><trkpt lat="45.92799415313678" lon="9.24746786881321"><ele>969.9999999999999</ele><time>2026-04-12T10:27:03Z</time></trkpt><trkpt lat="45.92802355806718" lon="9.24736016800439"><ele>970.0</ele><time>2026-04-12T10:27:04Z</time></trkpt><trkpt lat="45.92805615323208" lon="9.247253344184086"><ele>969.8</ele><time>2026-04-12T10:27:05Z</time></trkpt><trkpt lat="45.928093437311055" lon="9.247139786610697"><ele>969.6</ele><time>2026-04-12T10:27:06Z</time></trkpt><trkpt lat="45.92813509497609" lon="9.247019339191125"><ele>969.4000000000001</ele><time>2026-04-12T10:27:07Z</time></trkpt><trkpt lat="45.92817379839986" lon="9.246892904723877"><ele>969.2</ele><time>2026-04-12T10:27:08Z</time></trkpt><trkpt lat="45.928212096620264" lon="9.246759764800313"><ele>969.0</ele><time>2026-04-12T10:27:09Z</time></trkpt><trkpt lat="45.92825008778671" lon="9.246622359409066"><ele>969.0</ele><time>2026-04-12T10:27:10Z</time></trkpt><trkpt lat="45.92828891872038" lon="9.246482816785281"><ele>969.0000000000001</ele><time>2026-04-12T10:27:11Z</time></trkpt><trkpt lat="45.92832917557632" lon="9.246335663028187"><ele>969.0000000000001</ele><time>2026-04-12T10:27:12Z</time></trkpt><trkpt lat="45.92836800581027" lon="9.246186500725774"><ele>969.0</ele><time>2026-04-12T10:27:13Z</time></trkpt><trkpt lat="45.92840659698831" lon="9.246036740600573"><ele>969.0</ele><time>2026-04-12T10:27:14Z</time></trkpt><trkpt lat="45.928448234387126" lon="9.245882910262958"><ele>969.25</ele><time>2026-04-12T10:27:15Z</time></trkpt><trkpt lat="45.92848952445307" lon="9.245725135653515"><ele>969.5</ele><time>2026-04-12T10:27:16Z</time></trkpt><trkpt lat="45.9285295237645" lon="9.24556844745759"><ele>969.75</ele><time>2026-04-12T10:27:17Z</time></trkpt><trkpt lat="45.92856281103761" lon="9.245416615135104"><ele>970.0</ele><time>2026-04-12T10:27:18Z</time></trkpt><trkpt lat="45.92859090768618" lon="9.245268680479757"><ele>970.0</ele><time>2026-04-12T10:27:19Z</time></trkpt><trkpt lat="45.92862027588055" lon="9.245108598216104"><ele>970.0</ele><time>2026-04-12T10:27:20Z</time></trkpt><trkpt lat="45.92864758911573" lon="9.244945115527646"><ele>970.0</ele><time>2026-04-12T10:27:21Z</time></trkpt><trkpt lat="45.928677679459035" lon="9.24477713184898"><ele>970.0</ele><time>2026-04-12T10:27:22Z</time></trkpt><trkpt lat="45.92870712088054" lon="9.244608938142404"><ele>971.5</ele><time>2026-04-12T10:27:23Z</time></trkpt><trkpt lat="45.92873894786432" lon="9.244438002569899"><ele>973.0</ele><time>2026-04-12T10:27:24Z</time></trkpt><trkpt lat="45.92876739692796" lon="9.244274074683652"><ele>974.5</ele><time>2026-04-12T10:27:25Z</time></trkpt><trkpt lat="45.92879781988079" lon="9.244106032061516"><ele>976.0</ele><time>2026-04-12T10:27:26Z</time></trkpt><trkpt lat="45.928827570931205" lon="9.243945017453843"><ele>976.1999999999999</ele><time>2026-04-12T10:27:27Z</time></trkpt><trkpt lat="45.92884990953199" lon="9.243797291178582"><ele>976.3999999999999</ele><time>2026-04-12T10:27:28Z</time></trkpt><trkpt lat="45.92887003630544" lon="9.243662102508218"><ele>976.6</ele><time>2026-04-12T10:27:29Z</time></trkpt><trkpt lat="45.928889963601" lon="9.243561856612587"><ele>976.8</ele><time>2026-04-12T10:27:30Z</time></trkpt><trkpt lat="45.92893645336215" lon="9.243425207758948"><ele>977.0</ele><time>2026-04-12T10:27:32Z</time></trkpt><trkpt lat="45.929014559021574" lon="9.24333941570574"><ele>977.0000000000001</ele><time>2026-04-12T10:27:34Z</time></trkpt><trkpt lat="45.92907380111288" lon="9.243246452716898"><ele>977.0</ele><time>2026-04-12T10:27:36Z</time></trkpt><trkpt lat="45.92912232645133" lon="9.243177040759203"><ele>977.0</ele><time>2026-04-12T10:27:38Z</time></trkpt><trkpt lat="45.929085100051154" lon="9.243047641812256"><ele>977.0</ele><time>2026-04-12T10:27:40Z</time></trkpt><trkpt lat="45.92904627502483" lon="9.242885482318362"><ele>977.0000000000001</ele><time>2026-04-12T10:27:42Z</time></trkpt><trkpt lat="45.92903911579036" lon="9.242792208548925"><ele>977.0</ele><time>2026-04-12T10:27:43Z</time></trkpt><trkpt lat="45.92902343894541" lon="9.242614443534226"><ele>977.5000000000001</ele><time>2026-04-12T10:27:45Z</time></trkpt><trkpt lat="45.92901309537982" lon="9.242508065522284"><ele>978.0</ele><time>2026-04-12T10:27:46Z</time></trkpt><trkpt lat="45.92900091516694" lon="9.242394789436196"><ele>978.5</ele><time>2026-04-12T10:27:47Z</time></trkpt><trkpt lat="45.92898906127566" lon="9.24227546917347"><ele>979.0</ele><time>2026-04-12T10:27:48Z</time></trkpt><trkpt lat="45.92898062742865" lon="9.242144952840896"><ele>979.5000000000001</ele><time>2026-04-12T10:27:49Z</time></trkpt><trkpt lat="45.9289721068827" lon="9.242013202644841"><ele>980.0</ele><time>2026-04-12T10:27:50Z</time></trkpt><trkpt lat="45.92896813294179" lon="9.24186915572397"><ele>980.4</ele><time>2026-04-12T10:27:51Z</time></trkpt><trkpt lat="45.92896628741643" lon="9.241723658130068"><ele>980.8</ele><time>2026-04-12T10:27:52Z</time></trkpt><trkpt lat="45.92896300615708" lon="9.241567823280592"><ele>981.2</ele><time>2026-04-12T10:27:53Z</time></trkpt><trkpt lat="45.92898237995042" lon="9.241403522020882"><ele>981.6</ele><time>2026-04-12T10:27:54Z</time></trkpt><trkpt lat="45.9289754936482" lon="9.241251227111398"><ele>982.0</ele><time>2026-04-12T10:27:55Z</time></trkpt><trkpt lat="45.92898686366294" lon="9.241104988056927"><ele>982.1666666666666</ele><time>2026-04-12T10:27:56Z</time></trkpt><trkpt lat="45.928974429012" lon="9.240958094842902"><ele>982.3333333333333</ele><time>2026-04-12T10:27:57Z</time></trkpt><trkpt lat="45.92894726216281" lon="9.24083019352342"><ele>982.5</ele><time>2026-04-12T10:27:58Z</time></trkpt><trkpt lat="45.92891959183684" lon="9.24071595066296"><ele>982.6666666666667</ele><time>2026-04-12T10:27:59Z</time></trkpt><trkpt lat="45.92887994639816" lon="9.240618862111022"><ele>982.8333333333334</ele><time>2026-04-12T10:28:00Z</time></trkpt><trkpt lat="45.92884122540152" lon="9.24052983271857"><ele>983.0</ele><time>2026-04-12T10:28:01Z</time></trkpt><trkpt lat="45.92881544236185" lon="9.240374219110215"><ele>985.1666666666667</ele><time>2026-04-12T10:28:03Z</time></trkpt><trkpt lat="45.92882798457734" lon="9.240281269190277"><ele>987.3333333333334</ele><time>2026-04-12T10:28:04Z</time></trkpt><trkpt lat="45.92885622755409" lon="9.240178357322856"><ele>989.5</ele><time>2026-04-12T10:28:05Z</time></trkpt><trkpt lat="45.92889457381535" lon="9.240076159370231"><ele>991.6666666666667</ele><time>2026-04-12T10:28:06Z</time></trkpt><trkpt lat="45.928943268648496" lon="9.239968754644815"><ele>993.8333333333334</ele><time>2026-04-12T10:28:07Z</time></trkpt><trkpt lat="45.92899585646145" lon="9.239855503219985"><ele>996.0</ele><time>2026-04-12T10:28:08Z</time></trkpt><trkpt lat="45.92905848925534" lon="9.23973268004036"><ele>996.1999999999999</ele><time>2026-04-12T10:28:09Z</time></trkpt><trkpt lat="45.92912089912426" lon="9.239614810138516"><ele>996.3999999999999</ele><time>2026-04-12T10:28:10Z</time></trkpt><trkpt lat="45.92918000180171" lon="9.239503025224044"><ele>996.6</ele><time>2026-04-12T10:28:11Z</time></trkpt><trkpt lat="45.92923836574879" lon="9.239397667442317"><ele>996.8</ele><time>2026-04-12T10:28:12Z</time></trkpt><trkpt lat="45.929301722970315" lon="9.239305753769573"><ele>997.0</ele><time>2026-04-12T10:28:13Z</time></trkpt><trkpt lat="45.92937928733224" lon="9.239218027776962"><ele>997.0</ele><time>2026-04-12T10:28:14Z</time></trkpt><trkpt lat="45.9294698272172" lon="9.239144202274844"><ele>997.0</ele><time>2026-04-12T10:28:15Z</time></trkpt><trkpt lat="45.92956606908563" lon="9.239064946018354"><ele>997.0</ele><time>2026-04-12T10:28:16Z</time></trkpt><trkpt lat="45.92966806837624" lon="9.238973849030128"><ele>997.0</ele><time>2026-04-12T10:28:17Z</time></trkpt><trkpt lat="45.92977251257731" lon="9.238876209323724"><ele>996.0</ele><time>2026-04-12T10:28:18Z</time></trkpt><trkpt lat="45.929880593002885" lon="9.238776768844629"><ele>995.0</ele><time>2026-04-12T10:28:19Z</time></trkpt><trkpt lat="45.929987675349196" lon="9.238678341945455"><ele>994.0</ele><time>2026-04-12T10:28:20Z</time></trkpt><trkpt lat="45.93009200933827" lon="9.238576951805005"><ele>993.0</ele><time>2026-04-12T10:28:21Z</time></trkpt><trkpt lat="45.93018442663006" lon="9.238461293683494"><ele>993.0</ele><time>2026-04-12T10:28:22Z</time></trkpt><trkpt lat="45.93027630764307" lon="9.238346458691858"><ele>993.0</ele><time>2026-04-12T10:28:23Z</time></trkpt><trkpt lat="45.93033670784226" lon="9.238229923173183"><ele>993.0</ele><time>2026-04-12T10:28:24Z</time></trkpt><trkpt lat="45.93039505355433" lon="9.238123893175482"><ele>993.0</ele><time>2026-04-12T10:28:25Z</time></trkpt><trkpt lat="45.93042937721109" lon="9.238024026729905"><ele>993.0</ele><time>2026-04-12T10:28:26Z</time></trkpt><trkpt lat="45.93045294793363" lon="9.237913201779053"><ele>995.0</ele><time>2026-04-12T10:28:27Z</time></trkpt><trkpt lat="45.93046335734961" lon="9.237778867520186"><ele>997.0</ele><time>2026-04-12T10:28:28Z</time></trkpt><trkpt lat="45.93048750918172" lon="9.23765981624984"><ele>999.0</ele><time>2026-04-12T10:28:29Z</time></trkpt><trkpt lat="45.9304950815425" lon="9.237528159922421"><ele>1001.0</ele><time>2026-04-12T10:28:30Z</time></trkpt><trkpt lat="45.930503659722596" lon="9.237393751349051"><ele>1003.0</ele><time>2026-04-12T10:28:31Z</time></trkpt><trkpt lat="45.930522317507716" lon="9.23727108793066"><ele>1002.9999999999999</ele><time>2026-04-12T10:28:32Z</time></trkpt><trkpt lat="45.93054977799557" lon="9.237146445918423"><ele>1003.0</ele><time>2026-04-12T10:28:33Z</time></trkpt><trkpt lat="45.93056500272401" lon="9.237020236190855"><ele>1003.0</ele><time>2026-04-12T10:28:34Z</time></trkpt><trkpt lat="45.93059092386338" lon="9.236894680201456"><ele>1003.0</ele><time>2026-04-12T10:28:35Z</time></trkpt><trkpt lat="45.930607208525124" lon="9.236766009997476"><ele>1002.9999999999999</ele><time>2026-04-12T10:28:36Z</time></trkpt><trkpt lat="45.93060602520771" lon="9.236640326871887"><ele>1003.0</ele><time>2026-04-12T10:28:37Z</time></trkpt><trkpt lat="45.93059356900693" lon="9.236511035188363"><ele>1001.8333333333333</ele><time>2026-04-12T10:28:38Z</time></trkpt><trkpt lat="45.93058484439999" lon="9.2363853135943"><ele>1000.6666666666666</ele><time>2026-04-12T10:28:39Z</time></trkpt><trkpt lat="45.93057021008411" lon="9.236259966937252"><ele>999.5</ele><time>2026-04-12T10:28:40Z</time></trkpt><trkpt lat="45.930544735059726" lon="9.236140341478418"><ele>998.3333333333333</ele><time>2026-04-12T10:28:41Z</time></trkpt><trkpt lat="45.93050923453949" lon="9.23603808606819"><ele>997.1666666666666</ele><time>2026-04-12T10:28:42Z</time></trkpt><trkpt lat="45.93046152803354" lon="9.235940673872879"><ele>996.0</ele><time>2026-04-12T10:28:43Z</time></trkpt><trkpt lat="45.93038656693005" lon="9.235848806182979"><ele>996.0</ele><time>2026-04-12T10:28:44Z</time></trkpt><trkpt lat="45.930326452753874" lon="9.235750791492316"><ele>996.0</ele><time>2026-04-12T10:28:45Z</time></trkpt><trkpt lat="45.9302753254773" lon="9.235651892861267"><ele>996.0</ele><time>2026-04-12T10:28:46Z</time></trkpt><trkpt lat="45.93024598272224" lon="9.23553146459107"><ele>996.0</ele><time>2026-04-12T10:28:47Z</time></trkpt><trkpt lat="45.93022890175097" lon="9.23541619023667"><ele>996.0</ele><time>2026-04-12T10:28:48Z</time></trkpt><trkpt lat="45.9302288974108" lon="9.235292687352034"><ele>996.0</ele><time>2026-04-12T10:28:49Z</time></trkpt><trkpt lat="45.930222582993274" lon="9.23516474531834"><ele>993.4</ele><time>2026-04-12T10:28:50Z</time></trkpt><trkpt lat="45.930207537843664" lon="9.235029630567169"><ele>990.8</ele><time>2026-04-12T10:28:51Z</time></trkpt><trkpt lat="45.930181160226425" lon="9.234891615710296"><ele>988.1999999999999</ele><time>2026-04-12T10:28:52Z</time></trkpt><trkpt lat="45.9301571643977" lon="9.234753528213137"><ele>985.5999999999999</ele><time>2026-04-12T10:28:53Z</time></trkpt><trkpt lat="45.930168581422805" lon="9.234621187285777"><ele>983.0</ele><time>2026-04-12T10:28:54Z</time></trkpt><trkpt lat="45.93017605072184" lon="9.234477532599898"><ele>982.4</ele><time>2026-04-12T10:28:55Z</time></trkpt><trkpt lat="45.93017914157367" lon="9.234328381410238"><ele>981.8</ele><time>2026-04-12T10:28:56Z</time></trkpt><trkpt lat="45.930158356940254" lon="9.234183805231922"><ele>981.2</ele><time>2026-04-12T10:28:57Z</time></trkpt><trkpt lat="45.9301286193564" lon="9.234049532570097"><ele>980.6</ele><time>2026-04-12T10:28:58Z</time></trkpt><trkpt lat="45.93009250187973" lon="9.233935616902297"><ele>980.0</ele><time>2026-04-12T10:28:59Z</time></trkpt><trkpt lat="45.93003780652853" lon="9.233844140147108"><ele>986.8</ele><time>2026-04-12T10:29:00Z</time></trkpt><trkpt lat="45.92997581981551" lon="9.233728832089676"><ele>993.6</ele><time>2026-04-12T10:29:01Z</time></trkpt><trkpt lat="45.929900369040325" lon="9.233627574506459"><ele>1000.4000000000001</ele><time>2026-04-12T10:29:02Z</time></trkpt><trkpt lat="45.92982943379728" lon="9.233532377285936"><ele>1007.2</ele><time>2026-04-12T10:29:03Z</time></trkpt><trkpt lat="45.92974340421755" lon="9.233448393553038"><ele>1014.0</ele><time>2026-04-12T10:29:04Z</time></trkpt><trkpt lat="45.92967502183504" lon="9.233322487331431"><ele>1014.0</ele><time>2026-04-12T10:29:05Z</time></trkpt><trkpt lat="45.92959683372806" lon="9.233192341064175"><ele>1014.0</ele><time>2026-04-12T10:29:06Z</time></trkpt><trkpt lat="45.92953383868005" lon="9.233058263308976"><ele>1014.0</ele><time>2026-04-12T10:29:07Z</time></trkpt><trkpt lat="45.92947701725923" lon="9.232919721560966"><ele>1014.0</ele><time>2026-04-12T10:29:08Z</time></trkpt><trkpt lat="45.92940187370599" lon="9.232798119358005"><ele>1015.8000000000001</ele><time>2026-04-12T10:29:09Z</time></trkpt><trkpt lat="45.929329543714985" lon="9.23268217939263"><ele>1017.6000000000001</ele><time>2026-04-12T10:29:10Z</time></trkpt><trkpt lat="45.92926430476291" lon="9.232568062002999"><ele>1019.4</ele><time>2026-04-12T10:29:11Z</time></trkpt><trkpt lat="45.9292089069671" lon="9.232456323724548"><ele>1021.2</ele><time>2026-04-12T10:29:12Z</time></trkpt><trkpt lat="45.92915928994294" lon="9.232371597714296"><ele>1023.0</ele><time>2026-04-12T10:29:13Z</time></trkpt><trkpt lat="45.929117393107596" lon="9.232276941920842"><ele>1023.0</ele><time>2026-04-12T10:29:14Z</time></trkpt><trkpt lat="45.92907012437074" lon="9.232201998671131"><ele>1023.0</ele><time>2026-04-12T10:29:15Z</time></trkpt><trkpt lat="45.92900956472052" lon="9.232149285509111"><ele>1023.0</ele><time>2026-04-12T10:29:16Z</time></trkpt><trkpt lat="45.92892634658242" lon="9.232135777885718"><ele>1023.0</ele><time>2026-04-12T10:29:17Z</time></trkpt><trkpt lat="45.92884145891739" lon="9.232126507043265"><ele>1023.0</ele><time>2026-04-12T10:29:18Z</time></trkpt><trkpt lat="45.92875471776979" lon="9.232125883188697"><ele>1023.0</ele><time>2026-04-12T10:29:19Z</time></trkpt><trkpt lat="45.92867799785786" lon="9.232109056907232"><ele>1023.0</ele><time>2026-04-12T10:29:20Z</time></trkpt><trkpt lat="45.92860377417802" lon="9.232055303127733"><ele>1023.0</ele><time>2026-04-12T10:29:21Z</time></trkpt><trkpt lat="45.92853409796413" lon="9.231961691146617"><ele>1023.0</ele><time>2026-04-12T10:29:22Z</time></trkpt><trkpt lat="45.928449134084445" lon="9.231892697435642"><ele>1023.0</ele><time>2026-04-12T10:29:23Z</time></trkpt><trkpt lat="45.92834413617984" lon="9.231849569510823"><ele>1023.0</ele><time>2026-04-12T10:29:24Z</time></trkpt><trkpt lat="45.928240956044085" lon="9.231807070590923"><ele>1023.0</ele><time>2026-04-12T10:29:25Z</time></trkpt><trkpt lat="45.92814426544642" lon="9.231741096906275"><ele>1023.0</ele><time>2026-04-12T10:29:26Z</time></trkpt><trkpt lat="45.92804967275341" lon="9.231679810784568"><ele>1023.0</ele><time>2026-04-12T10:29:27Z</time></trkpt><trkpt lat="45.92795310486545" lon="9.231600939180858"><ele>1023.0</ele><time>2026-04-12T10:29:28Z</time></trkpt><trkpt lat="45.927850005293045" lon="9.2315105189586"><ele>1023.0</ele><time>2026-04-12T10:29:29Z</time></trkpt><trkpt lat="45.927760839826355" lon="9.231401643823512"><ele>1023.0</ele><time>2026-04-12T10:29:30Z</time></trkpt><trkpt lat="45.927658684050115" lon="9.23128885384455"><ele>1023.0</ele><time>2026-04-12T10:29:31Z</time></trkpt><trkpt lat="45.92757033899781" lon="9.231177125034103"><ele>1023.0</ele><time>2026-04-12T10:29:32Z</time></trkpt><trkpt lat="45.92745248266388" lon="9.231085617800822"><ele>1023.0</ele><time>2026-04-12T10:29:33Z</time></trkpt><trkpt lat="45.9273256947471" lon="9.231001103518354"><ele>1024.75</ele><time>2026-04-12T10:29:34Z</time></trkpt><trkpt lat="45.927201703334944" lon="9.23092076707228"><ele>1026.5</ele><time>2026-04-12T10:29:35Z</time></trkpt><trkpt lat="45.927088098548886" lon="9.230836414952245"><ele>1028.25</ele><time>2026-04-12T10:29:36Z</time></trkpt><trkpt lat="45.92697020775643" lon="9.230725775167361"><ele>1030.0</ele><time>2026-04-12T10:29:37Z</time></trkpt><trkpt lat="45.926861120616906" lon="9.230611496101293"><ele>1030.0</ele><time>2026-04-12T10:29:38Z</time></trkpt><trkpt lat="45.92677984411858" lon="9.230464165226953"><ele>1030.0</ele><time>2026-04-12T10:29:39Z</time></trkpt><trkpt lat="45.926675557969915" lon="9.230372725796267"><ele>1030.0</ele><time>2026-04-12T10:29:40Z</time></trkpt><trkpt lat="45.92658577844392" lon="9.230249865418081"><ele>1030.0</ele><time>2026-04-12T10:29:41Z</time></trkpt><trkpt lat="45.92648645449792" lon="9.230137640672229"><ele>1032.6</ele><time>2026-04-12T10:29:42Z</time></trkpt><trkpt lat="45.92639735454819" lon="9.230031264249556"><ele>1035.2</ele><time>2026-04-12T10:29:43Z</time></trkpt><trkpt lat="45.926320134198605" lon="9.229945422608417"><ele>1037.8</ele><time>2026-04-12T10:29:44Z</time></trkpt><trkpt lat="45.926248503203496" lon="9.22984973578386"><ele>1040.4</ele><time>2026-04-12T10:29:45Z</time></trkpt><trkpt lat="45.926181827067005" lon="9.229730663358515"><ele>1043.0</ele><time>2026-04-12T10:29:46Z</time></trkpt><trkpt lat="45.92613072735239" lon="9.229604352757985"><ele>1043.0</ele><time>2026-04-12T10:29:47Z</time></trkpt><trkpt lat="45.92609382422818" lon="9.229481622395104"><ele>1043.0</ele><time>2026-04-12T10:29:48Z</time></trkpt><trkpt lat="45.92605777921942" lon="9.229381773860084"><ele>1043.0</ele><time>2026-04-12T10:29:49Z</time></trkpt><trkpt lat="45.92600019849896" lon="9.229269604023228"><ele>1043.0</ele><time>2026-04-12T10:29:51Z</time></trkpt><trkpt lat="45.9259150446982" lon="9.229275623466545"><ele>1043.0</ele><time>2026-04-12T10:29:52Z</time></trkpt><trkpt lat="45.92583762584897" lon="9.229330230481267"><ele>1043.0</ele><time>2026-04-12T10:29:53Z</time></trkpt><trkpt lat="45.925764789147294" lon="9.229366688534638"><ele>1048.6</ele><time>2026-04-12T10:29:54Z</time></trkpt><trkpt lat="45.92568565657993" lon="9.229406774882495"><ele>1054.1999999999998</ele><time>2026-04-12T10:29:55Z</time></trkpt><trkpt lat="45.92559685706156" lon="9.229439756221089"><ele>1059.8</ele><time>2026-04-12T10:29:56Z</time></trkpt><trkpt lat="45.92549907410123" lon="9.229469159974704"><ele>1065.3999999999999</ele><time>2026-04-12T10:29:57Z</time></trkpt><trkpt lat="45.925398241931774" lon="9.229507504922342"><ele>1071.0</ele><time>2026-04-12T10:29:58Z</time></trkpt><trkpt lat="45.925293997029186" lon="9.229541871979826"><ele>1071.0</ele><time>2026-04-12T10:29:59Z</time></trkpt><trkpt lat="45.92519025898151" lon="9.229572783101467"><ele>1071.0</ele><time>2026-04-12T10:30:00Z</time></trkpt><trkpt lat="45.92508998123452" lon="9.229595273729775"><ele>1071.0</ele><time>2026-04-12T10:30:01Z</time></trkpt><trkpt lat="45.92499535865756" lon="9.229628150322936"><ele>1071.0</ele><time>2026-04-12T10:30:02Z</time></trkpt><trkpt lat="45.9249120864965" lon="9.229631789583319"><ele>1071.0</ele><time>2026-04-12T10:30:03Z</time></trkpt><trkpt lat="45.92482835434535" lon="9.22963312722735"><ele>1074.0</ele><time>2026-04-12T10:30:04Z</time></trkpt><trkpt lat="45.9247410861899" lon="9.229597857067455"><ele>1077.0</ele><time>2026-04-12T10:30:05Z</time></trkpt><trkpt lat="45.92466259558327" lon="9.229565318557146"><ele>1080.0</ele><time>2026-04-12T10:30:06Z</time></trkpt><trkpt lat="45.92457903890528" lon="9.229527193030368"><ele>1083.0</ele><time>2026-04-12T10:30:07Z</time></trkpt><trkpt lat="45.92453049413222" lon="9.229405188881586"><ele>1086.0</ele><time>2026-04-12T10:30:08Z</time></trkpt><trkpt lat="45.92445344421665" lon="9.229304136784272"><ele>1086.0</ele><time>2026-04-12T10:30:09Z</time></trkpt><trkpt lat="45.92437558354803" lon="9.229207469586887"><ele>1086.0</ele><time>2026-04-12T10:30:10Z</time></trkpt><trkpt lat="45.92430638926784" lon="9.22907964208888"><ele>1086.0</ele><time>2026-04-12T10:30:11Z</time></trkpt><trkpt lat="45.92422613552336" lon="9.22897288959935"><ele>1086.0</ele><time>2026-04-12T10:30:12Z</time></trkpt><trkpt lat="45.92415313421736" lon="9.228883001446489"><ele>1086.0</ele><time>2026-04-12T10:30:13Z</time></trkpt><trkpt lat="45.92407413027779" lon="9.228811587907575"><ele>1085.6666666666667</ele><time>2026-04-12T10:30:14Z</time></trkpt><trkpt lat="45.92399803751998" lon="9.228771101570201"><ele>1085.3333333333333</ele><time>2026-04-12T10:30:15Z</time></trkpt><trkpt lat="45.92391510561016" lon="9.228754282837203"><ele>1085.0</ele><time>2026-04-12T10:30:16Z</time></trkpt><trkpt lat="45.92383171412826" lon="9.228771901555646"><ele>1084.6666666666665</ele><time>2026-04-12T10:30:17Z</time></trkpt><trkpt lat="45.923757696035594" lon="9.228799210389536"><ele>1084.3333333333333</ele><time>2026-04-12T10:30:18Z</time></trkpt><trkpt lat="45.92367833338308" lon="9.228839193559825"><ele>1084.0</ele><time>2026-04-12T10:30:19Z</time></trkpt><trkpt lat="45.923606165775695" lon="9.22889936152924"><ele>1086.0</ele><time>2026-04-12T10:30:20Z</time></trkpt><trkpt lat="45.923545540419795" lon="9.228981970595525"><ele>1088.0</ele><time>2026-04-12T10:30:21Z</time></trkpt><trkpt lat="45.923496720299994" lon="9.229087355305706"><ele>1090.0</ele><time>2026-04-12T10:30:22Z</time></trkpt><trkpt lat="45.923453061441556" lon="9.229189494314769"><ele>1092.0</ele><time>2026-04-12T10:30:23Z</time></trkpt><trkpt lat="45.92339626405047" lon="9.229287215894802"><ele>1094.0</ele><time>2026-04-12T10:30:24Z</time></trkpt><trkpt lat="45.92334132679609" lon="9.229393051394059"><ele>1096.0</ele><time>2026-04-12T10:30:25Z</time></trkpt><trkpt lat="45.923277668481816" lon="9.229491380716057"><ele>1097.0</ele><time>2026-04-12T10:30:26Z</time></trkpt><trkpt lat="45.9232232549642" lon="9.229596226606267"><ele>1098.0</ele><time>2026-04-12T10:30:27Z</time></trkpt><trkpt lat="45.923156808360865" lon="9.229664781295325"><ele>1099.0</ele><time>2026-04-12T10:30:28Z</time></trkpt><trkpt lat="45.92308812524603" lon="9.22971886553568"><ele>1100.0</ele><time>2026-04-12T10:30:29Z</time></trkpt><trkpt lat="45.92297295853901" lon="9.2297721387229"><ele>1101.0</ele><time>2026-04-12T10:30:31Z</time></trkpt><trkpt lat="45.92289661408957" lon="9.229798599153094"><ele>1103.6</ele><time>2026-04-12T10:30:33Z</time></trkpt><trkpt lat="45.922854273153526" lon="9.229938623991837"><ele>1106.1999999999998</ele><time>2026-04-12T10:30:38Z</time></trkpt><trkpt lat="45.92289536018285" lon="9.230062796835462"><ele>1108.8000000000002</ele><time>2026-04-12T10:30:40Z</time></trkpt><trkpt lat="45.92297930052429" lon="9.230161357725178"><ele>1111.4</ele><time>2026-04-12T10:30:42Z</time></trkpt><trkpt lat="45.92304436482301" lon="9.230185934294473"><ele>1114.0</ele><time>2026-04-12T10:30:43Z</time></trkpt><trkpt lat="45.92311551691082" lon="9.23024719705885"><ele>1114.0</ele><time>2026-04-12T10:30:44Z</time></trkpt><trkpt lat="45.92319015661013" lon="9.230275437337793"><ele>1114.0</ele><time>2026-04-12T10:30:45Z</time></trkpt><trkpt lat="45.923259036334414" lon="9.230316026145102"><ele>1114.0</ele><time>2026-04-12T10:30:46Z</time></trkpt><trkpt lat="45.92332536789245" lon="9.230363025970622"><ele>1114.0</ele><time>2026-04-12T10:30:47Z</time></trkpt><trkpt lat="45.923404165751144" lon="9.23042219002616"><ele>1114.0</ele><time>2026-04-12T10:30:48Z</time></trkpt><trkpt lat="45.92347558419354" lon="9.230477107253266"><ele>1114.0</ele><time>2026-04-12T10:30:49Z</time></trkpt><trkpt lat="45.92355450459711" lon="9.230534349050497"><ele>1114.0</ele><time>2026-04-12T10:30:50Z</time></trkpt><trkpt lat="45.92363965747857" lon="9.230605329472187"><ele>1114.0</ele><time>2026-04-12T10:30:52Z</time></trkpt><trkpt lat="45.92367417074243" lon="9.230685309368733"><ele>1114.0</ele><time>2026-04-12T10:30:57Z</time></trkpt><trkpt lat="45.92362865491261" lon="9.230601569545673"><ele>1114.0</ele><time>2026-04-12T10:31:21Z</time></trkpt><trkpt lat="45.92354583607826" lon="9.230529705766006"><ele>1114.0</ele><time>2026-04-12T10:31:24Z</time></trkpt><trkpt lat="45.92347546112925" lon="9.230468850835049"><ele>1114.0</ele><time>2026-04-12T10:31:26Z</time></trkpt><trkpt lat="45.923392895129744" lon="9.230410522360446"><ele>1114.0</ele><time>2026-04-12T10:31:28Z</time></trkpt><trkpt lat="45.923302500645654" lon="9.230345178856647"><ele>1114.0</ele><time>2026-04-12T10:31:30Z</time></trkpt><trkpt lat="45.923194371202975" lon="9.230295698071842"><ele>1114.0</ele><time>2026-04-12T10:31:32Z</time></trkpt><trkpt lat="45.923134238267146" lon="9.230260981863593"><ele>1114.0</ele><time>2026-04-12T10:31:33Z</time></trkpt><trkpt lat="45.92303331107378" lon="9.230197183825517"><ele>1114.0</ele><time>2026-04-12T10:31:35Z</time></trkpt><trkpt lat="45.92298205120949" lon="9.230142851334683"><ele>1114.0</ele><time>2026-04-12T10:31:36Z</time></trkpt><trkpt lat="45.9229017103299" lon="9.23010855096081"><ele>1114.0</ele><time>2026-04-12T10:31:38Z</time></trkpt><trkpt lat="45.92288997346618" lon="9.229891237696863"><ele>1114.0</ele><time>2026-04-12T10:31:40Z</time></trkpt><trkpt lat="45.92283312643048" lon="9.229787645743066"><ele>1114.0</ele><time>2026-04-12T10:31:42Z</time></trkpt><trkpt lat="45.92276745748848" lon="9.229754941110274"><ele>1114.0</ele><time>2026-04-12T10:31:43Z</time></trkpt><trkpt lat="45.922695836935766" lon="9.229749982670926"><ele>1112.8333333333333</ele><time>2026-04-12T10:31:44Z</time></trkpt><trkpt lat="45.92262259476259" lon="9.22974563802867"><ele>1111.6666666666665</ele><time>2026-04-12T10:31:45Z</time></trkpt><trkpt lat="45.92254551707225" lon="9.229734270551914"><ele>1110.5</ele><time>2026-04-12T10:31:46Z</time></trkpt><trkpt lat="45.92246897989171" lon="9.229719150707625"><ele>1109.3333333333333</ele><time>2026-04-12T10:31:47Z</time></trkpt><trkpt lat="45.92239382109105" lon="9.22970868075556"><ele>1108.1666666666667</ele><time>2026-04-12T10:31:48Z</time></trkpt><trkpt lat="45.922324583396765" lon="9.229710174353691"><ele>1107.0</ele><time>2026-04-12T10:31:49Z</time></trkpt><trkpt lat="45.922204995505645" lon="9.229733924964995"><ele>1107.0</ele><time>2026-04-12T10:31:51Z</time></trkpt><trkpt lat="45.92214361516615" lon="9.2297570433954"><ele>1107.0</ele><time>2026-04-12T10:31:52Z</time></trkpt><trkpt lat="45.92208022833638" lon="9.229789121678191"><ele>1107.0</ele><time>2026-04-12T10:31:53Z</time></trkpt><trkpt lat="45.92198795528098" lon="9.229862070820493"><ele>1107.0</ele><time>2026-04-12T10:31:55Z</time></trkpt><trkpt lat="45.92193984445546" lon="9.22992099977411"><ele>1107.0</ele><time>2026-04-12T10:31:57Z</time></trkpt><trkpt lat="45.92188520536602" lon="9.23000024563058"><ele>1107.0</ele><time>2026-04-12T10:32:18Z</time></trkpt><trkpt lat="45.9219530779153" lon="9.229916181242485"><ele>1107.0</ele><time>2026-04-12T10:32:37Z</time></trkpt><trkpt lat="45.92202566553505" lon="9.229838743780945"><ele>1107.0</ele><time>2026-04-12T10:32:39Z</time></trkpt><trkpt lat="45.92213313560754" lon="9.229776435726386"><ele>1107.0</ele><time>2026-04-12T10:32:41Z</time></trkpt><trkpt lat="45.92224094245495" lon="9.22973367775666"><ele>1107.0</ele><time>2026-04-12T10:32:42Z</time></trkpt><trkpt lat="45.92230975600131" lon="9.229720922839757"><ele>1107.0</ele><time>2026-04-12T10:32:43Z</time></trkpt><trkpt lat="45.9223811138311" lon="9.229715144422123"><ele>1107.0</ele><time>2026-04-12T10:32:44Z</time></trkpt><trkpt lat="45.92245273404749" lon="9.229722710044939"><ele>1107.0</ele><time>2026-04-12T10:32:45Z</time></trkpt><trkpt lat="45.92252455674479" lon="9.229740448289144"><ele>1107.0</ele><time>2026-04-12T10:32:46Z</time></trkpt><trkpt lat="45.9225953339802" lon="9.229758967023042"><ele>1107.0</ele><time>2026-04-12T10:32:47Z</time></trkpt><trkpt lat="45.9226651581303" lon="9.229778845373172"><ele>1107.0</ele><time>2026-04-12T10:32:48Z</time></trkpt><trkpt lat="45.92272912875476" lon="9.229795281177289"><ele>1107.0</ele><time>2026-04-12T10:32:49Z</time></trkpt><trkpt lat="45.92282876860837" lon="9.229821660242289"><ele>1106.0</ele><time>2026-04-12T10:32:51Z</time></trkpt><trkpt lat="45.92292316370072" lon="9.229820683784775"><ele>1105.0</ele><time>2026-04-12T10:32:54Z</time></trkpt><trkpt lat="45.92302539544133" lon="9.22977136363254"><ele>1104.0</ele><time>2026-04-12T10:32:56Z</time></trkpt><trkpt lat="45.9230834176699" lon="9.229732524791583"><ele>1103.0</ele><time>2026-04-12T10:32:57Z</time></trkpt><trkpt lat="45.92315251687609" lon="9.229690507506998"><ele>1102.0</ele><time>2026-04-12T10:32:58Z</time></trkpt><trkpt lat="45.923223308415906" lon="9.229653468912316"><ele>1101.0</ele><time>2026-04-12T10:32:59Z</time></trkpt><trkpt lat="45.92327712734558" lon="9.229590142789878"><ele>1101.0</ele><time>2026-04-12T10:33:00Z</time></trkpt><trkpt lat="45.923328058209336" lon="9.229501413581191"><ele>1101.0</ele><time>2026-04-12T10:33:01Z</time></trkpt><trkpt lat="45.9233812365732" lon="9.229403367791031"><ele>1101.0</ele><time>2026-04-12T10:33:02Z</time></trkpt><trkpt lat="45.923432430728575" lon="9.229291713219599"><ele>1101.0</ele><time>2026-04-12T10:33:03Z</time></trkpt><trkpt lat="45.92347760131023" lon="9.22917992454115"><ele>1101.0</ele><time>2026-04-12T10:33:04Z</time></trkpt><trkpt lat="45.92352853665586" lon="9.229076193470496"><ele>1101.0</ele><time>2026-04-12T10:33:05Z</time></trkpt><trkpt lat="45.92358402115372" lon="9.228973766758077"><ele>1098.1666666666667</ele><time>2026-04-12T10:33:06Z</time></trkpt><trkpt lat="45.92364037274078" lon="9.228899955913478"><ele>1095.3333333333333</ele><time>2026-04-12T10:33:07Z</time></trkpt><trkpt lat="45.92372104426688" lon="9.228862392494348"><ele>1092.5</ele><time>2026-04-12T10:33:08Z</time></trkpt><trkpt lat="45.92379601067733" lon="9.228809713703006"><ele>1089.6666666666665</ele><time>2026-04-12T10:33:09Z</time></trkpt><trkpt lat="45.92389031207843" lon="9.228793977348776"><ele>1086.8333333333333</ele><time>2026-04-12T10:33:10Z</time></trkpt><trkpt lat="45.92398131187599" lon="9.228801212670511"><ele>1084.0</ele><time>2026-04-12T10:33:11Z</time></trkpt><trkpt lat="45.92406745225735" lon="9.228832015541226"><ele>1084.0</ele><time>2026-04-12T10:33:12Z</time></trkpt><trkpt lat="45.92414180210332" lon="9.228902085834209"><ele>1084.0</ele><time>2026-04-12T10:33:13Z</time></trkpt><trkpt lat="45.92420691834323" lon="9.228999922796955"><ele>1084.0</ele><time>2026-04-12T10:33:14Z</time></trkpt><trkpt lat="45.92426957296017" lon="9.229108877140545"><ele>1084.0</ele><time>2026-04-12T10:33:15Z</time></trkpt><trkpt lat="45.92432850419006" lon="9.229210880065517"><ele>1084.0</ele><time>2026-04-12T10:33:16Z</time></trkpt><trkpt lat="45.924400141907185" lon="9.229327665571928"><ele>1084.4</ele><time>2026-04-12T10:33:17Z</time></trkpt><trkpt lat="45.924486248565586" lon="9.22944022013348"><ele>1084.8000000000002</ele><time>2026-04-12T10:33:18Z</time></trkpt><trkpt lat="45.924558718293625" lon="9.22952914577742"><ele>1085.1999999999998</ele><time>2026-04-12T10:33:19Z</time></trkpt><trkpt lat="45.924634425659555" lon="9.229602578450427"><ele>1085.6</ele><time>2026-04-12T10:33:20Z</time></trkpt><trkpt lat="45.92470176275771" lon="9.229665221737246"><ele>1086.0</ele><time>2026-04-12T10:33:21Z</time></trkpt><trkpt lat="45.924791507720556" lon="9.229683429379767"><ele>1086.0</ele><time>2026-04-12T10:33:22Z</time></trkpt><trkpt lat="45.92487878665721" lon="9.229678956454089"><ele>1086.0</ele><time>2026-04-12T10:33:23Z</time></trkpt><trkpt lat="45.92496907369732" lon="9.229661683307398"><ele>1086.0</ele><time>2026-04-12T10:33:24Z</time></trkpt><trkpt lat="45.925060759961646" lon="9.229640919752272"><ele>1086.0</ele><time>2026-04-12T10:33:25Z</time></trkpt><trkpt lat="45.92515347522208" lon="9.229624740164823"><ele>1086.0</ele><time>2026-04-12T10:33:26Z</time></trkpt><trkpt lat="45.92524659180035" lon="9.229587259166488"><ele>1083.0</ele><time>2026-04-12T10:33:27Z</time></trkpt><trkpt lat="45.92534074248378" lon="9.229553789003116"><ele>1080.0</ele><time>2026-04-12T10:33:28Z</time></trkpt><trkpt lat="45.92543977102058" lon="9.229520853008372"><ele>1077.0</ele><time>2026-04-12T10:33:29Z</time></trkpt><trkpt lat="45.925544641823286" lon="9.22948725401788"><ele>1074.0</ele><time>2026-04-12T10:33:30Z</time></trkpt><trkpt lat="45.92564631520297" lon="9.22944800788341"><ele>1071.0</ele><time>2026-04-12T10:33:31Z</time></trkpt><trkpt lat="45.92573846255724" lon="9.229415869101103"><ele>1071.0</ele><time>2026-04-12T10:33:32Z</time></trkpt><trkpt lat="45.92581551819819" lon="9.229385031365386"><ele>1071.0</ele><time>2026-04-12T10:33:33Z</time></trkpt><trkpt lat="45.92588313570548" lon="9.229358608131447"><ele>1071.0</ele><time>2026-04-12T10:33:34Z</time></trkpt><trkpt lat="45.92598419566837" lon="9.229342816686554"><ele>1071.0</ele><time>2026-04-12T10:33:36Z</time></trkpt><trkpt lat="45.92606492597868" lon="9.229450226274212"><ele>1071.0</ele><time>2026-04-12T10:33:38Z</time></trkpt><trkpt lat="45.9260903922678" lon="9.229533571479536"><ele>1071.0</ele><time>2026-04-12T10:33:39Z</time></trkpt><trkpt lat="45.92611313183994" lon="9.22963618635664"><ele>1069.2</ele><time>2026-04-12T10:33:40Z</time></trkpt><trkpt lat="45.92615115250938" lon="9.22975135010354"><ele>1067.3999999999999</ele><time>2026-04-12T10:33:41Z</time></trkpt><trkpt lat="45.926208128390265" lon="9.229869398172056"><ele>1065.6</ele><time>2026-04-12T10:33:42Z</time></trkpt><trkpt lat="45.926288626464626" lon="9.229984943527738"><ele>1063.8</ele><time>2026-04-12T10:33:43Z</time></trkpt><trkpt lat="45.92638210680967" lon="9.230098399952855"><ele>1062.0</ele><time>2026-04-12T10:33:44Z</time></trkpt><trkpt lat="45.92648237175347" lon="9.230208574222434"><ele>1062.0</ele><time>2026-04-12T10:33:45Z</time></trkpt><trkpt lat="45.92659210574368" lon="9.230312370237394"><ele>1062.0</ele><time>2026-04-12T10:33:46Z</time></trkpt><trkpt lat="45.92668690103929" lon="9.23044934733095"><ele>1062.0</ele><time>2026-04-12T10:33:47Z</time></trkpt><trkpt lat="45.926770942987034" lon="9.23058589390072"><ele>1062.0</ele><time>2026-04-12T10:33:48Z</time></trkpt><trkpt lat="45.92687184684466" lon="9.230707329373141"><ele>1060.0</ele><time>2026-04-12T10:33:49Z</time></trkpt><trkpt lat="45.92698750244312" lon="9.230799033598599"><ele>1058.0</ele><time>2026-04-12T10:33:50Z</time></trkpt><trkpt lat="45.927098969391054" lon="9.230897157678543"><ele>1056.0</ele><time>2026-04-12T10:33:51Z</time></trkpt><trkpt lat="45.927213270821866" lon="9.230984557520404"><ele>1054.0</ele><time>2026-04-12T10:33:52Z</time></trkpt><trkpt lat="45.92732842170453" lon="9.23107503197162"><ele>1054.0</ele><time>2026-04-12T10:33:53Z</time></trkpt><trkpt lat="45.92744616490986" lon="9.231154815808063"><ele>1054.0</ele><time>2026-04-12T10:33:54Z</time></trkpt><trkpt lat="45.92756690327796" lon="9.231245813666384"><ele>1054.0</ele><time>2026-04-12T10:33:55Z</time></trkpt><trkpt lat="45.92766127910681" lon="9.231344740217914"><ele>1054.0</ele><time>2026-04-12T10:33:56Z</time></trkpt><trkpt lat="45.92774257081212" lon="9.231454064465677"><ele>1052.4</ele><time>2026-04-12T10:33:57Z</time></trkpt><trkpt lat="45.92782199741947" lon="9.231554618767913"><ele>1050.8000000000002</ele><time>2026-04-12T10:33:58Z</time></trkpt><trkpt lat="45.927901723652276" lon="9.2316320370059"><ele>1049.1999999999998</ele><time>2026-04-12T10:33:59Z</time></trkpt><trkpt lat="45.92800997581054" lon="9.231727345427403"><ele>1047.6</ele><time>2026-04-12T10:34:00Z</time></trkpt><trkpt lat="45.92811118945893" lon="9.231791592788564"><ele>1046.0</ele><time>2026-04-12T10:34:01Z</time></trkpt><trkpt lat="45.92822075027517" lon="9.231839885428707"><ele>1046.0</ele><time>2026-04-12T10:34:02Z</time></trkpt><trkpt lat="45.9283329842954" lon="9.23188077662375"><ele>1046.0</ele><time>2026-04-12T10:34:03Z</time></trkpt><trkpt lat="45.92843817835376" lon="9.231925989768852"><ele>1046.0</ele><time>2026-04-12T10:34:04Z</time></trkpt><trkpt lat="45.92860233159632" lon="9.232064233109112"><ele>1046.0</ele><time>2026-04-12T10:34:06Z</time></trkpt><trkpt lat="45.92867085129853" lon="9.232129429275389"><ele>1044.6666666666667</ele><time>2026-04-12T10:34:07Z</time></trkpt><trkpt lat="45.92875814453902" lon="9.232172071427978"><ele>1043.3333333333335</ele><time>2026-04-12T10:34:08Z</time></trkpt><trkpt lat="45.92884614259338" lon="9.23217710303565"><ele>1042.0</ele><time>2026-04-12T10:34:09Z</time></trkpt><trkpt lat="45.9289304390628" lon="9.232175342145222"><ele>1040.6666666666667</ele><time>2026-04-12T10:34:10Z</time></trkpt><trkpt lat="45.92899769198684" lon="9.232196205858548"><ele>1039.3333333333333</ele><time>2026-04-12T10:34:11Z</time></trkpt><trkpt lat="45.92905746107576" lon="9.232241044081281"><ele>1038.0</ele><time>2026-04-12T10:34:12Z</time></trkpt><trkpt lat="45.929110123854855" lon="9.232324441351306"><ele>1038.0</ele><time>2026-04-12T10:34:13Z</time></trkpt><trkpt lat="45.92915793859808" lon="9.232433690385541"><ele>1038.0</ele><time>2026-04-12T10:34:14Z</time></trkpt><trkpt lat="45.92922031135688" lon="9.23255705183986"><ele>1038.0</ele><time>2026-04-12T10:34:15Z</time></trkpt><trkpt lat="45.92929408905998" lon="9.232683169992201"><ele>1038.0</ele><time>2026-04-12T10:34:16Z</time></trkpt><trkpt lat="45.92937664713208" lon="9.232819532433268"><ele>1038.0</ele><time>2026-04-12T10:34:17Z</time></trkpt><trkpt lat="45.9294606524044" lon="9.232960191319803"><ele>1032.0</ele><time>2026-04-12T10:34:18Z</time></trkpt><trkpt lat="45.92953701081012" lon="9.233111270550607"><ele>1026.0</ele><time>2026-04-12T10:34:19Z</time></trkpt><trkpt lat="45.92961030933704" lon="9.233259401003316"><ele>1020.0</ele><time>2026-04-12T10:34:20Z</time></trkpt><trkpt lat="45.92968250035711" lon="9.233399048313476"><ele>1014.0</ele><time>2026-04-12T10:34:21Z</time></trkpt><trkpt lat="45.929743265940665" lon="9.23353258994282"><ele>1014.0</ele><time>2026-04-12T10:34:22Z</time></trkpt><trkpt lat="45.92983803513109" lon="9.233655717766927"><ele>1014.0</ele><time>2026-04-12T10:34:23Z</time></trkpt><trkpt lat="45.929928002591595" lon="9.23377111559756"><ele>1014.0</ele><time>2026-04-12T10:34:24Z</time></trkpt><trkpt lat="45.93000752277698" lon="9.23387859441687"><ele>1014.0</ele><time>2026-04-12T10:34:25Z</time></trkpt><trkpt lat="45.93005655910777" lon="9.233993557961941"><ele>1007.2</ele><time>2026-04-12T10:34:26Z</time></trkpt><trkpt lat="45.930102837182545" lon="9.234126629800077"><ele>1000.4000000000001</ele><time>2026-04-12T10:34:27Z</time></trkpt><trkpt lat="45.930130271773486" lon="9.234271587065583"><ele>993.6</ele><time>2026-04-12T10:34:28Z</time></trkpt><trkpt lat="45.93015344663297" lon="9.234412793807076"><ele>986.8</ele><time>2026-04-12T10:34:29Z</time></trkpt><trkpt lat="45.930138539125345" lon="9.23455708297757"><ele>980.0</ele><time>2026-04-12T10:34:30Z</time></trkpt><trkpt lat="45.93013155852339" lon="9.23469133893594"><ele>980.6</ele><time>2026-04-12T10:34:31Z</time></trkpt><trkpt lat="45.93014917022674" lon="9.234822755594074"><ele>981.2</ele><time>2026-04-12T10:34:32Z</time></trkpt><trkpt lat="45.93016064941978" lon="9.234960855347067"><ele>981.8</ele><time>2026-04-12T10:34:33Z</time></trkpt><trkpt lat="45.93018992539708" lon="9.23510384811809"><ele>982.4</ele><time>2026-04-12T10:34:34Z</time></trkpt><trkpt lat="45.93020664229004" lon="9.23524172647637"><ele>983.0</ele><time>2026-04-12T10:34:35Z</time></trkpt><trkpt lat="45.93021057513595" lon="9.235389766106639"><ele>983.0</ele><time>2026-04-12T10:34:36Z</time></trkpt><trkpt lat="45.93022467657501" lon="9.235532271746122"><ele>983.0</ele><time>2026-04-12T10:34:37Z</time></trkpt><trkpt lat="45.930262864779124" lon="9.235667232007216"><ele>983.0</ele><time>2026-04-12T10:34:38Z</time></trkpt><trkpt lat="45.93032213737334" lon="9.235796282335727"><ele>983.0</ele><time>2026-04-12T10:34:39Z</time></trkpt><trkpt lat="45.93041273001588" lon="9.23591070293962"><ele>983.0</ele><time>2026-04-12T10:34:40Z</time></trkpt><trkpt lat="45.930478049403874" lon="9.236028291817917"><ele>985.5999999999999</ele><time>2026-04-12T10:34:41Z</time></trkpt><trkpt lat="45.93053348812889" lon="9.236149636253764"><ele>988.1999999999999</ele><time>2026-04-12T10:34:42Z</time></trkpt><trkpt lat="45.93054363434551" lon="9.236301038679121"><ele>990.8</ele><time>2026-04-12T10:34:43Z</time></trkpt><trkpt lat="45.93056461009277" lon="9.236457196499051"><ele>993.4</ele><time>2026-04-12T10:34:44Z</time></trkpt><trkpt lat="45.93057555379353" lon="9.236600034627047"><ele>996.0</ele><time>2026-04-12T10:34:45Z</time></trkpt><trkpt lat="45.930581140810965" lon="9.236752494048178"><ele>997.4</ele><time>2026-04-12T10:34:46Z</time></trkpt><trkpt lat="45.93056994442349" lon="9.236901250793002"><ele>998.8</ele><time>2026-04-12T10:34:47Z</time></trkpt><trkpt lat="45.930535673701236" lon="9.237051698491019"><ele>1000.1999999999999</ele><time>2026-04-12T10:34:48Z</time></trkpt><trkpt lat="45.93050392642211" lon="9.237196419466967"><ele>1001.5999999999999</ele><time>2026-04-12T10:34:49Z</time></trkpt><trkpt lat="45.930489981018866" lon="9.237349301117359"><ele>1003.0</ele><time>2026-04-12T10:34:50Z</time></trkpt><trkpt lat="45.93047767462438" lon="9.23749216298073"><ele>1003.2</ele><time>2026-04-12T10:34:51Z</time></trkpt><trkpt lat="45.930467091954085" lon="9.237637767112329"><ele>1003.4</ele><time>2026-04-12T10:34:52Z</time></trkpt><trkpt lat="45.930455943253634" lon="9.237775607185226"><ele>1003.6000000000001</ele><time>2026-04-12T10:34:53Z</time></trkpt><trkpt lat="45.930439180959965" lon="9.237906793689145"><ele>1003.8000000000001</ele><time>2026-04-12T10:34:54Z</time></trkpt><trkpt lat="45.93041308827753" lon="9.238028487170872"><ele>1004.0</ele><time>2026-04-12T10:34:55Z</time></trkpt><trkpt lat="45.93037102700755" lon="9.238145333504287"><ele>1001.25</ele><time>2026-04-12T10:34:56Z</time></trkpt><trkpt lat="45.93029951245937" lon="9.238246634196695"><ele>998.5</ele><time>2026-04-12T10:34:57Z</time></trkpt><trkpt lat="45.93021705743738" lon="9.23835221745395"><ele>995.75</ele><time>2026-04-12T10:34:58Z</time></trkpt><trkpt lat="45.93012563185485" lon="9.238468668606671"><ele>993.0</ele><time>2026-04-12T10:34:59Z</time></trkpt><trkpt lat="45.93002981921216" lon="9.23857375798808"><ele>1000.75</ele><time>2026-04-12T10:35:00Z</time></trkpt><trkpt lat="45.92992518393132" lon="9.238673310774567"><ele>1008.5</ele><time>2026-04-12T10:35:01Z</time></trkpt><trkpt lat="45.92981664404174" lon="9.238771577072853"><ele>1016.25</ele><time>2026-04-12T10:35:02Z</time></trkpt><trkpt lat="45.92971078965512" lon="9.238867932916564"><ele>1024.0</ele><time>2026-04-12T10:35:03Z</time></trkpt><trkpt lat="45.92960562010636" lon="9.238964375381297"><ele>1017.25</ele><time>2026-04-12T10:35:04Z</time></trkpt><trkpt lat="45.9295006629224" lon="9.239060623036124"><ele>1010.5</ele><time>2026-04-12T10:35:05Z</time></trkpt><trkpt lat="45.929401725325334" lon="9.239151350678473"><ele>1003.75</ele><time>2026-04-12T10:35:06Z</time></trkpt><trkpt lat="45.92930829543306" lon="9.239252025517784"><ele>997.0</ele><time>2026-04-12T10:35:07Z</time></trkpt><trkpt lat="45.92922612555686" lon="9.239355324070937"><ele>996.75</ele><time>2026-04-12T10:35:08Z</time></trkpt><trkpt lat="45.929150933487755" lon="9.239476110229218"><ele>996.5</ele><time>2026-04-12T10:35:09Z</time></trkpt><trkpt lat="45.92907931036361" lon="9.239602279885492"><ele>996.25</ele><time>2026-04-12T10:35:10Z</time></trkpt><trkpt lat="45.92902059826122" lon="9.239738134920316"><ele>996.0</ele><time>2026-04-12T10:35:11Z</time></trkpt><trkpt lat="45.9289550262271" lon="9.239869421767905"><ele>996.0</ele><time>2026-04-12T10:35:12Z</time></trkpt><trkpt lat="45.928889189519005" lon="9.239993113482747"><ele>995.9999999999999</ele><time>2026-04-12T10:35:13Z</time></trkpt><trkpt lat="45.928844197346116" lon="9.240122739318354"><ele>995.9999999999999</ele><time>2026-04-12T10:35:14Z</time></trkpt><trkpt lat="45.928806915993405" lon="9.240235242534421"><ele>996.0</ele><time>2026-04-12T10:35:15Z</time></trkpt><trkpt lat="45.92878543084897" lon="9.24032706143971"><ele>996.0</ele><time>2026-04-12T10:35:16Z</time></trkpt><trkpt lat="45.92880158172393" lon="9.24048640079853"><ele>996.0</ele><time>2026-04-12T10:35:18Z</time></trkpt><trkpt lat="45.92882614997549" lon="9.24057194887175"><ele>995.9999999999999</ele><time>2026-04-12T10:35:19Z</time></trkpt><trkpt lat="45.928852146092936" lon="9.240655602092115"><ele>996.0</ele><time>2026-04-12T10:35:20Z</time></trkpt><trkpt lat="45.92888161048674" lon="9.240736063797913"><ele>996.0</ele><time>2026-04-12T10:35:21Z</time></trkpt><trkpt lat="45.928911196653516" lon="9.240819651946941"><ele>995.9999999999999</ele><time>2026-04-12T10:35:22Z</time></trkpt><trkpt lat="45.928933990197336" lon="9.24090999760126"><ele>996.0</ele><time>2026-04-12T10:35:23Z</time></trkpt><trkpt lat="45.928944185901436" lon="9.24101211193475"><ele>996.0</ele><time>2026-04-12T10:35:24Z</time></trkpt><trkpt lat="45.92894768954354" lon="9.241116769201087"><ele>994.1428571428571</ele><time>2026-04-12T10:35:25Z</time></trkpt><trkpt lat="45.9289476935758" lon="9.241224460464656"><ele>992.2857142857142</ele><time>2026-04-12T10:35:26Z</time></trkpt><trkpt lat="45.92894456995797" lon="9.24132638439367"><ele>990.4285714285713</ele><time>2026-04-12T10:35:27Z</time></trkpt><trkpt lat="45.92894358325468" lon="9.241430003968452"><ele>988.5714285714284</ele><time>2026-04-12T10:35:28Z</time></trkpt><trkpt lat="45.92894349165143" lon="9.241530198834601"><ele>986.7142857142857</ele><time>2026-04-12T10:35:29Z</time></trkpt><trkpt lat="45.92894163366777" lon="9.241631271174818"><ele>984.8571428571427</ele><time>2026-04-12T10:35:30Z</time></trkpt><trkpt lat="45.92893930349036" lon="9.241730200385167"><ele>982.9999999999999</ele><time>2026-04-12T10:35:31Z</time></trkpt><trkpt lat="45.92894394449741" lon="9.241828010050032"><ele>982.8571428571427</ele><time>2026-04-12T10:35:32Z</time></trkpt><trkpt lat="45.92894747285412" lon="9.241938733959529"><ele>982.7142857142857</ele><time>2026-04-12T10:35:33Z</time></trkpt><trkpt lat="45.928949063835226" lon="9.242041106749703"><ele>982.5714285714284</ele><time>2026-04-12T10:35:34Z</time></trkpt><trkpt lat="45.92895483511581" lon="9.242148967531218"><ele>982.4285714285713</ele><time>2026-04-12T10:35:35Z</time></trkpt><trkpt lat="45.928964334601886" lon="9.242253959002076"><ele>982.2857142857142</ele><time>2026-04-12T10:35:36Z</time></trkpt><trkpt lat="45.928975491522074" lon="9.242362647180085"><ele>982.1428571428571</ele><time>2026-04-12T10:35:37Z</time></trkpt><trkpt lat="45.928983238375814" lon="9.242466702750185"><ele>982.0</ele><time>2026-04-12T10:35:38Z</time></trkpt><trkpt lat="45.92899487858158" lon="9.242569763667037"><ele>981.6666666666666</ele><time>2026-04-12T10:35:39Z</time></trkpt><trkpt lat="45.929002843613276" lon="9.242669986606966"><ele>981.3333333333333</ele><time>2026-04-12T10:35:40Z</time></trkpt><trkpt lat="45.92901388920576" lon="9.24276571275592"><ele>981.0</ele><time>2026-04-12T10:35:41Z</time></trkpt><trkpt lat="45.929033425092705" lon="9.242926672477424"><ele>980.6666666666667</ele><time>2026-04-12T10:35:43Z</time></trkpt><trkpt lat="45.92904375299402" lon="9.243044096590875"><ele>980.3333333333334</ele><time>2026-04-12T10:35:45Z</time></trkpt><trkpt lat="45.92903968196911" lon="9.243170364123737"><ele>980.0</ele><time>2026-04-12T10:35:48Z</time></trkpt><trkpt lat="45.92908494329929" lon="9.243267172794615"><ele>979.5000000000001</ele><time>2026-04-12T10:35:51Z</time></trkpt><trkpt lat="45.929145398057706" lon="9.243210325970276"><ele>979.0</ele><time>2026-04-12T10:35:52Z</time></trkpt><trkpt lat="45.92923727745391" lon="9.24317124079738"><ele>978.5</ele><time>2026-04-12T10:35:54Z</time></trkpt><trkpt lat="45.92931117365711" lon="9.243064272437229"><ele>978.0</ele><time>2026-04-12T10:35:56Z</time></trkpt><trkpt lat="45.92934578464142" lon="9.242975354999869"><ele>977.5000000000001</ele><time>2026-04-12T10:35:57Z</time></trkpt><trkpt lat="45.92936185660238" lon="9.242859801987256"><ele>977.0</ele><time>2026-04-12T10:35:58Z</time></trkpt><trkpt lat="45.92937435405971" lon="9.242743381069312"><ele>974.4000000000001</ele><time>2026-04-12T10:35:59Z</time></trkpt><trkpt lat="45.9293797425734" lon="9.242611088156595"><ele>971.8000000000001</ele><time>2026-04-12T10:36:00Z</time></trkpt><trkpt lat="45.92936094962462" lon="9.242469546242736"><ele>969.2</ele><time>2026-04-12T10:36:01Z</time></trkpt><trkpt lat="45.929363181638735" lon="9.242322919873942"><ele>966.6</ele><time>2026-04-12T10:36:02Z</time></trkpt><trkpt lat="45.92936647902937" lon="9.242174608866348"><ele>964.0</ele><time>2026-04-12T10:36:03Z</time></trkpt><trkpt lat="45.929373463365124" lon="9.242027194087145"><ele>962.8000000000001</ele><time>2026-04-12T10:36:04Z</time></trkpt><trkpt lat="45.92940423747323" lon="9.24188287460494"><ele>961.6000000000001</ele><time>2026-04-12T10:36:05Z</time></trkpt><trkpt lat="45.929412896405545" lon="9.241733373554442"><ele>960.4</ele><time>2026-04-12T10:36:06Z</time></trkpt><trkpt lat="45.92945887505605" lon="9.241594562056607"><ele>959.2</ele><time>2026-04-12T10:36:07Z</time></trkpt><trkpt lat="45.92948467917807" lon="9.241431589337523"><ele>958.0</ele><time>2026-04-12T10:36:08Z</time></trkpt><trkpt lat="45.929511301866825" lon="9.241276230312357"><ele>957.75</ele><time>2026-04-12T10:36:09Z</time></trkpt><trkpt lat="45.929564058524356" lon="9.24112876406121"><ele>957.5</ele><time>2026-04-12T10:36:10Z</time></trkpt><trkpt lat="45.9296128894576" lon="9.240980205011416"><ele>957.25</ele><time>2026-04-12T10:36:11Z</time></trkpt><trkpt lat="45.929682568412694" lon="9.240844717104922"><ele>957.0</ele><time>2026-04-12T10:36:12Z</time></trkpt><trkpt lat="45.92976490430028" lon="9.240713436274602"><ele>954.0</ele><time>2026-04-12T10:36:13Z</time></trkpt><trkpt lat="45.92985620712964" lon="9.240559202221668"><ele>951.0</ele><time>2026-04-12T10:36:14Z</time></trkpt><trkpt lat="45.92995476067083" lon="9.240425467620325"><ele>948.0</ele><time>2026-04-12T10:36:15Z</time></trkpt><trkpt lat="45.93005978277541" lon="9.240283920889595"><ele>945.0</ele><time>2026-04-12T10:36:16Z</time></trkpt><trkpt lat="45.93016832118479" lon="9.240142906300242"><ele>945.0</ele><time>2026-04-12T10:36:17Z</time></trkpt><trkpt lat="45.93027942317232" lon="9.24000664075705"><ele>945.0</ele><time>2026-04-12T10:36:18Z</time></trkpt><trkpt lat="45.930388785810095" lon="9.239884467286032"><ele>945.0</ele><time>2026-04-12T10:36:19Z</time></trkpt><trkpt lat="45.93050397171202" lon="9.239766787680484"><ele>945.0</ele><time>2026-04-12T10:36:20Z</time></trkpt><trkpt lat="45.93061852866148" lon="9.239660728240743"><ele>944.5</ele><time>2026-04-12T10:36:21Z</time></trkpt><trkpt lat="45.930748023727325" lon="9.239590610133906"><ele>944.0</ele><time>2026-04-12T10:36:22Z</time></trkpt><trkpt lat="45.930861109566614" lon="9.239483526154006"><ele>943.5</ele><time>2026-04-12T10:36:23Z</time></trkpt><trkpt lat="45.93097966648106" lon="9.23939820217341"><ele>943.0</ele><time>2026-04-12T10:36:24Z</time></trkpt><trkpt lat="45.93108362254305" lon="9.239296182753014"><ele>943.0</ele><time>2026-04-12T10:36:25Z</time></trkpt><trkpt lat="45.93118002380696" lon="9.239187957576918"><ele>943.0</ele><time>2026-04-12T10:36:26Z</time></trkpt><trkpt lat="45.931274937427915" lon="9.23909083538584"><ele>943.0</ele><time>2026-04-12T10:36:27Z</time></trkpt><trkpt lat="45.931363610762986" lon="9.23901398700836"><ele>943.0</ele><time>2026-04-12T10:36:28Z</time></trkpt><trkpt lat="45.93143779988785" lon="9.238904187987542"><ele>943.0</ele><time>2026-04-12T10:36:29Z</time></trkpt><trkpt lat="45.93149243486187" lon="9.238782193504582"><ele>940.8</ele><time>2026-04-12T10:36:30Z</time></trkpt><trkpt lat="45.93153896676471" lon="9.23865639045251"><ele>938.5999999999999</ele><time>2026-04-12T10:36:31Z</time></trkpt><trkpt lat="45.931592476237356" lon="9.23853869073088"><ele>936.4000000000001</ele><time>2026-04-12T10:36:32Z</time></trkpt><trkpt lat="45.931649494613055" lon="9.238430352607526"><ele>934.2</ele><time>2026-04-12T10:36:33Z</time></trkpt><trkpt lat="45.93171152169425" lon="9.238340079402615"><ele>932.0</ele><time>2026-04-12T10:36:34Z</time></trkpt><trkpt lat="45.931775816956055" lon="9.238250415745297"><ele>932.0</ele><time>2026-04-12T10:36:35Z</time></trkpt><trkpt lat="45.93183226629165" lon="9.2381570423391"><ele>932.0</ele><time>2026-04-12T10:36:36Z</time></trkpt><trkpt lat="45.93188129171699" lon="9.238052007022924"><ele>932.0</ele><time>2026-04-12T10:36:37Z</time></trkpt><trkpt lat="45.931920421669076" lon="9.23793289782299"><ele>932.0</ele><time>2026-04-12T10:36:38Z</time></trkpt><trkpt lat="45.93194043549917" lon="9.237798126842748"><ele>932.0</ele><time>2026-04-12T10:36:39Z</time></trkpt><trkpt lat="45.93197962625682" lon="9.237670765124568"><ele>931.3333333333334</ele><time>2026-04-12T10:36:40Z</time></trkpt><trkpt lat="45.932000548696465" lon="9.237554126505039"><ele>930.6666666666667</ele><time>2026-04-12T10:36:41Z</time></trkpt><trkpt lat="45.932006502115435" lon="9.237441237015801"><ele>930.0</ele><time>2026-04-12T10:36:42Z</time></trkpt><trkpt lat="45.93205261063742" lon="9.237355902723563"><ele>929.3333333333333</ele><time>2026-04-12T10:36:43Z</time></trkpt><trkpt lat="45.932066009616726" lon="9.237248294551291"><ele>928.6666666666666</ele><time>2026-04-12T10:36:44Z</time></trkpt><trkpt lat="45.932084058388135" lon="9.23713837076472"><ele>928.0</ele><time>2026-04-12T10:36:45Z</time></trkpt><trkpt lat="45.93208842225277" lon="9.23700000782402"><ele>928.0</ele><time>2026-04-12T10:36:46Z</time></trkpt><trkpt lat="45.93208555283638" lon="9.236838238540283"><ele>928.0</ele><time>2026-04-12T10:36:47Z</time></trkpt><trkpt lat="45.93208671308604" lon="9.236660063595412"><ele>928.0</ele><time>2026-04-12T10:36:48Z</time></trkpt><trkpt lat="45.93211201429189" lon="9.236473056340865"><ele>928.0</ele><time>2026-04-12T10:36:49Z</time></trkpt><trkpt lat="45.93211400377542" lon="9.236268128149616"><ele>927.0</ele><time>2026-04-12T10:36:50Z</time></trkpt><trkpt lat="45.932111750327664" lon="9.23606622053114"><ele>926.0</ele><time>2026-04-12T10:36:51Z</time></trkpt><trkpt lat="45.93210965257594" lon="9.235862587410626"><ele>925.0</ele><time>2026-04-12T10:36:52Z</time></trkpt><trkpt lat="45.93210710662455" lon="9.235691464679025"><ele>924.0</ele><time>2026-04-12T10:36:53Z</time></trkpt><trkpt lat="45.93210352001348" lon="9.235552294541474"><ele>921.8333333333334</ele><time>2026-04-12T10:36:54Z</time></trkpt><trkpt lat="45.932131443584666" lon="9.235455568905483"><ele>919.6666666666667</ele><time>2026-04-12T10:36:55Z</time></trkpt><trkpt lat="45.93214754213973" lon="9.235324479103168"><ele>917.5</ele><time>2026-04-12T10:36:57Z</time></trkpt><trkpt lat="45.93221459725386" lon="9.235307401712697"><ele>915.3333333333334</ele><time>2026-04-12T10:36:59Z</time></trkpt><trkpt lat="45.93226456389549" lon="9.235388223586718"><ele>913.1666666666667</ele><time>2026-04-12T10:37:01Z</time></trkpt><trkpt lat="45.93220520374169" lon="9.235522209076743"><ele>911.0</ele><time>2026-04-12T10:37:03Z</time></trkpt><trkpt lat="45.932195156279654" lon="9.235625734762047"><ele>913.5999999999999</ele><time>2026-04-12T10:37:04Z</time></trkpt><trkpt lat="45.93222202466351" lon="9.235755730598706"><ele>916.1999999999999</ele><time>2026-04-12T10:37:05Z</time></trkpt><trkpt lat="45.932243032325594" lon="9.235895314537176"><ele>918.8000000000001</ele><time>2026-04-12T10:37:06Z</time></trkpt><trkpt lat="45.93228330545792" lon="9.236042049355808"><ele>921.4000000000001</ele><time>2026-04-12T10:37:07Z</time></trkpt><trkpt lat="45.93232068337876" lon="9.236183381438549"><ele>924.0</ele><time>2026-04-12T10:37:08Z</time></trkpt><trkpt lat="45.93235722223216" lon="9.236321875553072"><ele>924.0</ele><time>2026-04-12T10:37:09Z</time></trkpt><trkpt lat="45.932414554512576" lon="9.236456687934854"><ele>924.0000000000001</ele><time>2026-04-12T10:37:10Z</time></trkpt><trkpt lat="45.93248114850181" lon="9.236574175294217"><ele>924.0000000000001</ele><time>2026-04-12T10:37:11Z</time></trkpt><trkpt lat="45.93256552387396" lon="9.236680029514114"><ele>924.0</ele><time>2026-04-12T10:37:12Z</time></trkpt><trkpt lat="45.932637746032235" lon="9.236770106342904"><ele>924.0</ele><time>2026-04-12T10:37:13Z</time></trkpt><trkpt lat="45.93269601376019" lon="9.236852049473967"><ele>922.3333333333334</ele><time>2026-04-12T10:37:14Z</time></trkpt><trkpt lat="45.93275742911656" lon="9.236913405218814"><ele>920.6666666666667</ele><time>2026-04-12T10:37:15Z</time></trkpt><trkpt lat="45.93282683491325" lon="9.236933687407712"><ele>919.0</ele><time>2026-04-12T10:37:16Z</time></trkpt><trkpt lat="45.932895177051435" lon="9.236915691387843"><ele>917.3333333333334</ele><time>2026-04-12T10:37:17Z</time></trkpt><trkpt lat="45.93294895545757" lon="9.23684900909358"><ele>915.6666666666667</ele><time>2026-04-12T10:37:18Z</time></trkpt><trkpt lat="45.93299088270143" lon="9.236754828460533"><ele>914.0</ele><time>2026-04-12T10:37:19Z</time></trkpt><trkpt lat="45.93300963283243" lon="9.236629899470941"><ele>914.0000000000001</ele><time>2026-04-12T10:37:20Z</time></trkpt><trkpt lat="45.93300207088411" lon="9.23649101964029"><ele>914.0</ele><time>2026-04-12T10:37:21Z</time></trkpt><trkpt lat="45.93302187639324" lon="9.236349790668266"><ele>914.0</ele><time>2026-04-12T10:37:22Z</time></trkpt><trkpt lat="45.933023053984385" lon="9.236226928792018"><ele>914.0</ele><time>2026-04-12T10:37:23Z</time></trkpt><trkpt lat="45.93302747612157" lon="9.236123695817094"><ele>914.0000000000001</ele><time>2026-04-12T10:37:24Z</time></trkpt><trkpt lat="45.933031514894324" lon="9.23602885221064"><ele>914.0</ele><time>2026-04-12T10:37:25Z</time></trkpt><trkpt lat="45.93314286254338" lon="9.235951400348393"><ele>910.6</ele><time>2026-04-12T10:37:27Z</time></trkpt><trkpt lat="45.933222520139694" lon="9.235957689170775"><ele>907.2</ele><time>2026-04-12T10:37:28Z</time></trkpt><trkpt lat="45.93330996167865" lon="9.235988596441443"><ele>903.8000000000001</ele><time>2026-04-12T10:37:29Z</time></trkpt><trkpt lat="45.933400016378755" lon="9.236011799096785"><ele>900.4000000000001</ele><time>2026-04-12T10:37:30Z</time></trkpt><trkpt lat="45.93350649392355" lon="9.236033915398066"><ele>897.0</ele><time>2026-04-12T10:37:31Z</time></trkpt><trkpt lat="45.933620596681855" lon="9.23604943790773"><ele>894.6</ele><time>2026-04-12T10:37:32Z</time></trkpt><trkpt lat="45.933731017643204" lon="9.236086190246407"><ele>892.2</ele><time>2026-04-12T10:37:33Z</time></trkpt><trkpt lat="45.93383505570665" lon="9.236126312644842"><ele>889.8</ele><time>2026-04-12T10:37:34Z</time></trkpt><trkpt lat="45.933930443169565" lon="9.23616011532498"><ele>887.4</ele><time>2026-04-12T10:37:35Z</time></trkpt><trkpt lat="45.93401654749769" lon="9.236185346109531"><ele>885.0</ele><time>2026-04-12T10:37:36Z</time></trkpt><trkpt lat="45.93408358707438" lon="9.236189044426368"><ele>885.0</ele><time>2026-04-12T10:37:37Z</time></trkpt><trkpt lat="45.934148012626444" lon="9.236167522362695"><ele>885.0</ele><time>2026-04-12T10:37:38Z</time></trkpt><trkpt lat="45.93421050552371" lon="9.2360722805221"><ele>885.0</ele><time>2026-04-12T10:37:40Z</time></trkpt><trkpt lat="45.93422372911879" lon="9.235923115890582"><ele>885.0</ele><time>2026-04-12T10:37:42Z</time></trkpt><trkpt lat="45.93420238721991" lon="9.235765751424118"><ele>885.0</ele><time>2026-04-12T10:37:44Z</time></trkpt><trkpt lat="45.934127768174854" lon="9.235622900761166"><ele>883.6666666666666</ele><time>2026-04-12T10:37:46Z</time></trkpt><trkpt lat="45.93408435304652" lon="9.235473998007683"><ele>882.3333333333333</ele><time>2026-04-12T10:37:48Z</time></trkpt><trkpt lat="45.93407743955456" lon="9.235307579280027"><ele>881.0</ele><time>2026-04-12T10:37:50Z</time></trkpt><trkpt lat="45.9341232466153" lon="9.235242163872599"><ele>879.6666666666666</ele><time>2026-04-12T10:37:51Z</time></trkpt><trkpt lat="45.934186080020325" lon="9.235191231089262"><ele>878.3333333333333</ele><time>2026-04-12T10:37:52Z</time></trkpt><trkpt lat="45.934261356735284" lon="9.235144776709014"><ele>877.0</ele><time>2026-04-12T10:37:53Z</time></trkpt><trkpt lat="45.93434132294145" lon="9.235100285329086"><ele>876.3333333333333</ele><time>2026-04-12T10:37:54Z</time></trkpt><trkpt lat="45.93442072667467" lon="9.23505316176458"><ele>875.6666666666666</ele><time>2026-04-12T10:37:55Z</time></trkpt><trkpt lat="45.934499906557505" lon="9.23500403762401"><ele>875.0</ele><time>2026-04-12T10:37:56Z</time></trkpt><trkpt lat="45.934577965921335" lon="9.234955493401207"><ele>874.3333333333333</ele><time>2026-04-12T10:37:57Z</time></trkpt><trkpt lat="45.93465248415864" lon="9.234912682419676"><ele>873.6666666666666</ele><time>2026-04-12T10:37:58Z</time></trkpt><trkpt lat="45.93471916311595" lon="9.234878767214685"><ele>873.0</ele><time>2026-04-12T10:37:59Z</time></trkpt><trkpt lat="45.93479553088733" lon="9.234880929498194"><ele>873.0</ele><time>2026-04-12T10:38:00Z</time></trkpt><trkpt lat="45.93487318625304" lon="9.234898831200718"><ele>873.0</ele><time>2026-04-12T10:38:01Z</time></trkpt><trkpt lat="45.93494166812274" lon="9.234934047637879"><ele>873.0</ele><time>2026-04-12T10:38:02Z</time></trkpt><trkpt lat="45.935000138286675" lon="9.234991441334298"><ele>873.0</ele><time>2026-04-12T10:38:03Z</time></trkpt><trkpt lat="45.93507668916615" lon="9.235133504918762"><ele>873.0</ele><time>2026-04-12T10:38:05Z</time></trkpt><trkpt lat="45.93510035601442" lon="9.235239939746288"><ele>873.0</ele><time>2026-04-12T10:38:06Z</time></trkpt><trkpt lat="45.93513073685562" lon="9.23534645369993"><ele>870.1666666666666</ele><time>2026-04-12T10:38:07Z</time></trkpt><trkpt lat="45.935174363627226" lon="9.235443803144573"><ele>867.3333333333333</ele><time>2026-04-12T10:38:08Z</time></trkpt><trkpt lat="45.93522498679886" lon="9.235527653636902"><ele>864.5</ele><time>2026-04-12T10:38:09Z</time></trkpt><trkpt lat="45.93527337992495" lon="9.235588489394734"><ele>861.6666666666666</ele><time>2026-04-12T10:38:10Z</time></trkpt><trkpt lat="45.9353850429595" lon="9.235602389544056"><ele>858.8333333333333</ele><time>2026-04-12T10:38:12Z</time></trkpt><trkpt lat="45.93544714946874" lon="9.235567640682515"><ele>856.0</ele><time>2026-04-12T10:38:13Z</time></trkpt><trkpt lat="45.93550515669297" lon="9.235513546887411"><ele>855.9999999999999</ele><time>2026-04-12T10:38:14Z</time></trkpt><trkpt lat="45.93556303959119" lon="9.235461275970373"><ele>856.0</ele><time>2026-04-12T10:38:15Z</time></trkpt><trkpt lat="45.935687106322504" lon="9.235449140478991"><ele>856.0</ele><time>2026-04-12T10:38:17Z</time></trkpt><trkpt lat="45.935742919812085" lon="9.235492055746427"><ele>856.0</ele><time>2026-04-12T10:38:18Z</time></trkpt><trkpt lat="45.93579087899036" lon="9.235570688738223"><ele>855.9999999999999</ele><time>2026-04-12T10:38:19Z</time></trkpt><trkpt lat="45.935826768864715" lon="9.235673965718467"><ele>856.0</ele><time>2026-04-12T10:38:20Z</time></trkpt><trkpt lat="45.93586849906791" lon="9.235792614815457"><ele>850.75</ele><time>2026-04-12T10:38:21Z</time></trkpt><trkpt lat="45.93591571868996" lon="9.23592446791992"><ele>845.5</ele><time>2026-04-12T10:38:22Z</time></trkpt><trkpt lat="45.935970341704476" lon="9.23606783096211"><ele>840.25</ele><time>2026-04-12T10:38:23Z</time></trkpt><trkpt lat="45.936028937845286" lon="9.236225578086573"><ele>835.0</ele><time>2026-04-12T10:38:24Z</time></trkpt><trkpt lat="45.93609246327162" lon="9.236398700545728"><ele>837.0</ele><time>2026-04-12T10:38:25Z</time></trkpt><trkpt lat="45.93615466040439" lon="9.236575447219735"><ele>839.0</ele><time>2026-04-12T10:38:26Z</time></trkpt><trkpt lat="45.93621758104701" lon="9.236741161822232"><ele>841.0</ele><time>2026-04-12T10:38:27Z</time></trkpt><trkpt lat="45.93628262988986" lon="9.236903604292806"><ele>843.0</ele><time>2026-04-12T10:38:28Z</time></trkpt><trkpt lat="45.93634616085604" lon="9.23706679260455"><ele>843.0</ele><time>2026-04-12T10:38:29Z</time></trkpt><trkpt lat="45.936403586528336" lon="9.237221797512566"><ele>843.0</ele><time>2026-04-12T10:38:30Z</time></trkpt><trkpt lat="45.93646355881007" lon="9.237386439645253"><ele>843.0</ele><time>2026-04-12T10:38:31Z</time></trkpt><trkpt lat="45.93652158332537" lon="9.237550104494321"><ele>843.0</ele><time>2026-04-12T10:38:32Z</time></trkpt><trkpt lat="45.936579183188094" lon="9.237716854640796"><ele>844.0</ele><time>2026-04-12T10:38:33Z</time></trkpt><trkpt lat="45.936635328717934" lon="9.237859683531509"><ele>845.0</ele><time>2026-04-12T10:38:34Z</time></trkpt><trkpt lat="45.93670771340741" lon="9.237990261346638"><ele>846.0</ele><time>2026-04-12T10:38:35Z</time></trkpt><trkpt lat="45.936787101340514" lon="9.238118825584419"><ele>847.0</ele><time>2026-04-12T10:38:36Z</time></trkpt><trkpt lat="45.93686827015533" lon="9.238251919789706"><ele>842.0</ele><time>2026-04-12T10:38:37Z</time></trkpt><trkpt lat="45.93694285191072" lon="9.238394382583266"><ele>837.0</ele><time>2026-04-12T10:38:38Z</time></trkpt><trkpt lat="45.937012843562236" lon="9.238541471297195"><ele>832.0</ele><time>2026-04-12T10:38:39Z</time></trkpt><trkpt lat="45.93706610489208" lon="9.238701763365981"><ele>827.0</ele><time>2026-04-12T10:38:40Z</time></trkpt><trkpt lat="45.9371134633507" lon="9.238870093899967"><ele>828.25</ele><time>2026-04-12T10:38:41Z</time></trkpt><trkpt lat="45.93716635818247" lon="9.239036980537481"><ele>829.5</ele><time>2026-04-12T10:38:42Z</time></trkpt><trkpt lat="45.93724090182482" lon="9.239195811030328"><ele>830.75</ele><time>2026-04-12T10:38:43Z</time></trkpt><trkpt lat="45.93731681173136" lon="9.23934202434382"><ele>832.0</ele><time>2026-04-12T10:38:44Z</time></trkpt><trkpt lat="45.937391472164514" lon="9.23947887685012"><ele>832.0</ele><time>2026-04-12T10:38:45Z</time></trkpt><trkpt lat="45.937449565905176" lon="9.239610171652865"><ele>832.0</ele><time>2026-04-12T10:38:46Z</time></trkpt><trkpt lat="45.9374901597971" lon="9.239750514459649"><ele>832.0</ele><time>2026-04-12T10:38:47Z</time></trkpt><trkpt lat="45.93752304174723" lon="9.239899053391957"><ele>832.0</ele><time>2026-04-12T10:38:48Z</time></trkpt><trkpt lat="45.937556083944976" lon="9.240049480192011"><ele>832.0</ele><time>2026-04-12T10:38:49Z</time></trkpt><trkpt lat="45.93759145168461" lon="9.240187749222626"><ele>827.3333333333333</ele><time>2026-04-12T10:38:50Z</time></trkpt><trkpt lat="45.93762465320645" lon="9.240308094228514"><ele>822.6666666666666</ele><time>2026-04-12T10:38:51Z</time></trkpt><trkpt lat="45.93765227175335" lon="9.240406223496143"><ele>818.0</ele><time>2026-04-12T10:38:52Z</time></trkpt><trkpt lat="45.937674449113786" lon="9.240494021136831"><ele>813.3333333333333</ele><time>2026-04-12T10:38:53Z</time></trkpt><trkpt lat="45.937725792321594" lon="9.240584535824377"><ele>808.6666666666666</ele><time>2026-04-12T10:38:55Z</time></trkpt><trkpt lat="45.93780563734223" lon="9.240524793720859"><ele>804.0</ele><time>2026-04-12T10:38:57Z</time></trkpt><trkpt lat="45.93782957324858" lon="9.240433696044885"><ele>804.0</ele><time>2026-04-12T10:38:58Z</time></trkpt><trkpt lat="45.937834887949116" lon="9.240318868370736"><ele>804.0</ele><time>2026-04-12T10:38:59Z</time></trkpt><trkpt lat="45.93783367275208" lon="9.24019122136214"><ele>804.0</ele><time>2026-04-12T10:39:00Z</time></trkpt><trkpt lat="45.9378445419322" lon="9.240051973475568"><ele>804.0</ele><time>2026-04-12T10:39:01Z</time></trkpt><trkpt lat="45.93786336464666" lon="9.239906336549446"><ele>804.0</ele><time>2026-04-12T10:39:02Z</time></trkpt><trkpt lat="45.937889978352025" lon="9.239771273927312"><ele>804.0</ele><time>2026-04-12T10:39:03Z</time></trkpt><trkpt lat="45.93792354110866" lon="9.239648310720488"><ele>804.0</ele><time>2026-04-12T10:39:04Z</time></trkpt><trkpt lat="45.937955985343386" lon="9.239530453994865"><ele>804.0</ele><time>2026-04-12T10:39:05Z</time></trkpt><trkpt lat="45.937985802082785" lon="9.239432549445059"><ele>804.0</ele><time>2026-04-12T10:39:06Z</time></trkpt><trkpt lat="45.93803241922751" lon="9.239329226175798"><ele>804.0</ele><time>2026-04-12T10:39:08Z</time></trkpt><trkpt lat="45.938104364120235" lon="9.239510057314492"><ele>804.0</ele><time>2026-04-12T10:39:12Z</time></trkpt><trkpt lat="45.93812616942757" lon="9.239608488412047"><ele>804.0</ele><time>2026-04-12T10:39:13Z</time></trkpt><trkpt lat="45.93813360046137" lon="9.239728793047098"><ele>804.0</ele><time>2026-04-12T10:39:14Z</time></trkpt><trkpt lat="45.93815324201803" lon="9.239865550073027"><ele>804.0</ele><time>2026-04-12T10:39:15Z</time></trkpt><trkpt lat="45.93817959706693" lon="9.24001657917298"><ele>804.0</ele><time>2026-04-12T10:39:16Z</time></trkpt><trkpt lat="45.93820899491512" lon="9.240183667561046"><ele>804.0</ele><time>2026-04-12T10:39:17Z</time></trkpt><trkpt lat="45.93824620231225" lon="9.240360355666633"><ele>804.0</ele><time>2026-04-12T10:39:18Z</time></trkpt><trkpt lat="45.938288810703504" lon="9.240540924248121"><ele>804.0</ele><time>2026-04-12T10:39:19Z</time></trkpt><trkpt lat="45.9383293681527" lon="9.240714561520212"><ele>804.0</ele><time>2026-04-12T10:39:20Z</time></trkpt><trkpt lat="45.93837157528529" lon="9.240876671883893"><ele>801.3333333333334</ele><time>2026-04-12T10:39:21Z</time></trkpt><trkpt lat="45.93840856363029" lon="9.24102751626948"><ele>798.6666666666667</ele><time>2026-04-12T10:39:22Z</time></trkpt><trkpt lat="45.938437455090835" lon="9.241151964774316"><ele>796.0</ele><time>2026-04-12T10:39:23Z</time></trkpt><trkpt lat="45.938457768805975" lon="9.24124841823219"><ele>793.3333333333334</ele><time>2026-04-12T10:39:24Z</time></trkpt><trkpt lat="45.93847445695286" lon="9.241379925083809"><ele>790.6666666666667</ele><time>2026-04-12T10:39:26Z</time></trkpt><trkpt lat="45.938510368644174" lon="9.241457859151133"><ele>788.0</ele><time>2026-04-12T10:39:28Z</time></trkpt><trkpt lat="45.938600158280806" lon="9.241348525511782"><ele>788.0000000000001</ele><time>2026-04-12T10:39:30Z</time></trkpt><trkpt lat="45.93858071456717" lon="9.241171536937848"><ele>788.0</ele><time>2026-04-12T10:39:32Z</time></trkpt><trkpt lat="45.93857503397009" lon="9.241071906936964"><ele>788.0</ele><time>2026-04-12T10:39:33Z</time></trkpt><trkpt lat="45.93856967368066" lon="9.240965739863336"><ele>788.0</ele><time>2026-04-12T10:39:34Z</time></trkpt><trkpt lat="45.93856515703004" lon="9.240852313344938"><ele>788.0000000000001</ele><time>2026-04-12T10:39:35Z</time></trkpt><trkpt lat="45.938585149887416" lon="9.240742890453847"><ele>788.0</ele><time>2026-04-12T10:39:36Z</time></trkpt><trkpt lat="45.938583513089505" lon="9.240647255988177"><ele>788.0000000000001</ele><time>2026-04-12T10:39:37Z</time></trkpt><trkpt lat="45.93858204208905" lon="9.240505947870476"><ele>788.0</ele><time>2026-04-12T10:39:39Z</time></trkpt><trkpt lat="45.938598684187546" lon="9.240679910901216"><ele>788.0</ele><time>2026-04-12T10:39:45Z</time></trkpt><trkpt lat="45.93860235191505" lon="9.240775306115848"><ele>788.0</ele><time>2026-04-12T10:39:46Z</time></trkpt><trkpt lat="45.93859658895284" lon="9.240878996614871"><ele>788.0000000000001</ele><time>2026-04-12T10:39:47Z</time></trkpt><trkpt lat="45.938592579170844" lon="9.241004081260524"><ele>788.0</ele><time>2026-04-12T10:39:48Z</time></trkpt><trkpt lat="45.938643205679604" lon="9.241145748483158"><ele>788.0</ele><time>2026-04-12T10:39:49Z</time></trkpt><trkpt lat="45.93869750471977" lon="9.241292012048861"><ele>788.0</ele><time>2026-04-12T10:39:50Z</time></trkpt><trkpt lat="45.938723715018604" lon="9.24145444999717"><ele>788.0</ele><time>2026-04-12T10:39:51Z</time></trkpt><trkpt lat="45.938753945489836" lon="9.24162040928355"><ele>788.0</ele><time>2026-04-12T10:39:52Z</time></trkpt><trkpt lat="45.93878370455388" lon="9.241778452577497"><ele>787.75</ele><time>2026-04-12T10:39:53Z</time></trkpt><trkpt lat="45.93880202804958" lon="9.241939548898404"><ele>787.5</ele><time>2026-04-12T10:39:54Z</time></trkpt><trkpt lat="45.93877392529366" lon="9.242093776248742"><ele>787.25</ele><time>2026-04-12T10:39:55Z</time></trkpt><trkpt lat="45.93874700903919" lon="9.242261255695368"><ele>787.0</ele><time>2026-04-12T10:39:56Z</time></trkpt><trkpt lat="45.93871752249193" lon="9.242441398038837"><ele>785.75</ele><time>2026-04-12T10:39:57Z</time></trkpt><trkpt lat="45.93869908161649" lon="9.242628773996689"><ele>784.5</ele><time>2026-04-12T10:39:58Z</time></trkpt><trkpt lat="45.93866514132654" lon="9.242807834563719"><ele>783.25</ele><time>2026-04-12T10:39:59Z</time></trkpt><trkpt lat="45.93860475908746" lon="9.242972359039506"><ele>782.0</ele><time>2026-04-12T10:40:00Z</time></trkpt><trkpt lat="45.93854721281061" lon="9.243129409289603"><ele>780.0</ele><time>2026-04-12T10:40:01Z</time></trkpt><trkpt lat="45.93849052398351" lon="9.24328307561187"><ele>778.0</ele><time>2026-04-12T10:40:02Z</time></trkpt><trkpt lat="45.93844059468749" lon="9.243442254678998"><ele>776.0</ele><time>2026-04-12T10:40:03Z</time></trkpt><trkpt lat="45.938414411110365" lon="9.243611670183698"><ele>774.0</ele><time>2026-04-12T10:40:04Z</time></trkpt><trkpt lat="45.93839768241156" lon="9.24377381992283"><ele>774.0</ele><time>2026-04-12T10:40:05Z</time></trkpt><trkpt lat="45.938386960112986" lon="9.24393038274471"><ele>774.0</ele><time>2026-04-12T10:40:06Z</time></trkpt><trkpt lat="45.93837120379024" lon="9.24408624729811"><ele>774.0</ele><time>2026-04-12T10:40:07Z</time></trkpt><trkpt lat="45.938363026025854" lon="9.244209548136409"><ele>774.0</ele><time>2026-04-12T10:40:08Z</time></trkpt><trkpt lat="45.93834755108134" lon="9.244318227982344"><ele>774.0</ele><time>2026-04-12T10:40:09Z</time></trkpt><trkpt lat="45.93832883800847" lon="9.24441775501731"><ele>772.5</ele><time>2026-04-12T10:40:10Z</time></trkpt><trkpt lat="45.938269884285205" lon="9.244549452405115"><ele>771.0</ele><time>2026-04-12T10:40:12Z</time></trkpt><trkpt lat="45.93828543930902" lon="9.24463820367928"><ele>769.5</ele><time>2026-04-12T10:40:14Z</time></trkpt><trkpt lat="45.9383826534557" lon="9.244651409904236"><ele>768.0</ele><time>2026-04-12T10:40:16Z</time></trkpt><trkpt lat="45.938438228688355" lon="9.244608470415217"><ele>766.5</ele><time>2026-04-12T10:40:17Z</time></trkpt><trkpt lat="45.9385035592424" lon="9.244543053771526"><ele>765.0</ele><time>2026-04-12T10:40:18Z</time></trkpt><trkpt lat="45.93858366960764" lon="9.244478306677903"><ele>765.0</ele><time>2026-04-12T10:40:19Z</time></trkpt><trkpt lat="45.93868243514126" lon="9.244422711175993"><ele>765.0</ele><time>2026-04-12T10:40:20Z</time></trkpt><trkpt lat="45.938786184309514" lon="9.244365278210196"><ele>765.0</ele><time>2026-04-12T10:40:21Z</time></trkpt><trkpt lat="45.93890295574274" lon="9.244309771065453"><ele>765.0</ele><time>2026-04-12T10:40:22Z</time></trkpt><trkpt lat="45.939016613272116" lon="9.244249109517767"><ele>765.0</ele><time>2026-04-12T10:40:23Z</time></trkpt><trkpt lat="45.93911837103454" lon="9.244185978697127"><ele>765.0</ele><time>2026-04-12T10:40:24Z</time></trkpt><trkpt lat="45.93919773242978" lon="9.244107227658677"><ele>765.0</ele><time>2026-04-12T10:40:25Z</time></trkpt><trkpt lat="45.93925703113483" lon="9.243997556590562"><ele>765.0</ele><time>2026-04-12T10:40:26Z</time></trkpt><trkpt lat="45.93929804622444" lon="9.243859942073014"><ele>765.0</ele><time>2026-04-12T10:40:27Z</time></trkpt><trkpt lat="45.939331606974775" lon="9.243722731429028"><ele>762.2</ele><time>2026-04-12T10:40:28Z</time></trkpt><trkpt lat="45.93938251303224" lon="9.243590086222179"><ele>759.4</ele><time>2026-04-12T10:40:29Z</time></trkpt><trkpt lat="45.939409854596654" lon="9.243454496446168"><ele>756.5999999999999</ele><time>2026-04-12T10:40:30Z</time></trkpt><trkpt lat="45.939459347516106" lon="9.243313201563366"><ele>753.8</ele><time>2026-04-12T10:40:31Z</time></trkpt><trkpt lat="45.939500647537436" lon="9.243174590848838"><ele>751.0</ele><time>2026-04-12T10:40:32Z</time></trkpt><trkpt lat="45.9395433565727" lon="9.2430434578656"><ele>751.0</ele><time>2026-04-12T10:40:33Z</time></trkpt><trkpt lat="45.93958617019953" lon="9.242938904047886"><ele>751.0</ele><time>2026-04-12T10:40:34Z</time></trkpt><trkpt lat="45.939635392429224" lon="9.242853393770922"><ele>751.0</ele><time>2026-04-12T10:40:35Z</time></trkpt><trkpt lat="45.93968591671276" lon="9.242763025006223"><ele>751.0</ele><time>2026-04-12T10:40:36Z</time></trkpt><trkpt lat="45.93973272380392" lon="9.242662793262484"><ele>751.0</ele><time>2026-04-12T10:40:37Z</time></trkpt><trkpt lat="45.93978989545943" lon="9.242554463337955"><ele>751.0</ele><time>2026-04-12T10:40:38Z</time></trkpt><trkpt lat="45.939845041414316" lon="9.242439657964438"><ele>751.0</ele><time>2026-04-12T10:40:39Z</time></trkpt><trkpt lat="45.939898307035435" lon="9.242314445974747"><ele>751.0</ele><time>2026-04-12T10:40:40Z</time></trkpt><trkpt lat="45.9399529987213" lon="9.24217586067384"><ele>751.0</ele><time>2026-04-12T10:40:41Z</time></trkpt><trkpt lat="45.940011067877805" lon="9.242037426566366"><ele>751.0</ele><time>2026-04-12T10:40:42Z</time></trkpt><trkpt lat="45.94008056098365" lon="9.241890724362877"><ele>751.0</ele><time>2026-04-12T10:40:43Z</time></trkpt><trkpt lat="45.94016092516119" lon="9.241749743750493"><ele>748.5</ele><time>2026-04-12T10:40:44Z</time></trkpt><trkpt lat="45.940245088685906" lon="9.241609819712709"><ele>746.0</ele><time>2026-04-12T10:40:45Z</time></trkpt><trkpt lat="45.94033192474907" lon="9.241470175950274"><ele>743.5</ele><time>2026-04-12T10:40:46Z</time></trkpt><trkpt lat="45.940421297542606" lon="9.241339753076288"><ele>741.0</ele><time>2026-04-12T10:40:47Z</time></trkpt><trkpt lat="45.940510114664754" lon="9.241227654532997"><ele>741.0</ele><time>2026-04-12T10:40:48Z</time></trkpt><trkpt lat="45.9405982135688" lon="9.241135349778835"><ele>741.0</ele><time>2026-04-12T10:40:49Z</time></trkpt><trkpt lat="45.94067821228061" lon="9.241049681392148"><ele>741.0</ele><time>2026-04-12T10:40:50Z</time></trkpt><trkpt lat="45.9407387872574" lon="9.240960924087135"><ele>741.0</ele><time>2026-04-12T10:40:51Z</time></trkpt><trkpt lat="45.94079704991945" lon="9.240881536739842"><ele>741.0</ele><time>2026-04-12T10:40:52Z</time></trkpt><trkpt lat="45.940843629962814" lon="9.240793516863468"><ele>741.0</ele><time>2026-04-12T10:40:53Z</time></trkpt><trkpt lat="45.940872285047384" lon="9.240690482216893"><ele>741.0</ele><time>2026-04-12T10:40:54Z</time></trkpt><trkpt lat="45.94088939919747" lon="9.240569951518454"><ele>741.0</ele><time>2026-04-12T10:40:55Z</time></trkpt><trkpt lat="45.94089239925754" lon="9.24043970660962"><ele>741.0</ele><time>2026-04-12T10:40:56Z</time></trkpt><trkpt lat="45.94091070811718" lon="9.24031338324444"><ele>741.0</ele><time>2026-04-12T10:40:57Z</time></trkpt><trkpt lat="45.940914599733404" lon="9.240178702782064"><ele>741.0</ele><time>2026-04-12T10:40:58Z</time></trkpt><trkpt lat="45.94089562013123" lon="9.240051558594292"><ele>736.0</ele><time>2026-04-12T10:40:59Z</time></trkpt><trkpt lat="45.940890795452944" lon="9.239940060351943"><ele>731.0</ele><time>2026-04-12T10:41:00Z</time></trkpt><trkpt lat="45.94090751152048" lon="9.239806698618237"><ele>726.0</ele><time>2026-04-12T10:41:02Z</time></trkpt><trkpt lat="45.940996244275134" lon="9.2397695797881"><ele>721.0</ele><time>2026-04-12T10:41:05Z</time></trkpt><trkpt lat="45.94101102582885" lon="9.239864976133799"><ele>716.0</ele><time>2026-04-12T10:41:06Z</time></trkpt><trkpt lat="45.94101789312764" lon="9.240056011136103"><ele>715.0</ele><time>2026-04-12T10:41:08Z</time></trkpt><trkpt lat="45.94103785211981" lon="9.240174601059056"><ele>714.0</ele><time>2026-04-12T10:41:09Z</time></trkpt><trkpt lat="45.94106451687909" lon="9.240304010035196"><ele>713.0</ele><time>2026-04-12T10:41:10Z</time></trkpt><trkpt lat="45.94109613705168" lon="9.240456134243884"><ele>712.0</ele><time>2026-04-12T10:41:11Z</time></trkpt><trkpt lat="45.94113727067453" lon="9.24060965611061"><ele>711.0</ele><time>2026-04-12T10:41:12Z</time></trkpt><trkpt lat="45.94119290126132" lon="9.24075889944007"><ele>711.0</ele><time>2026-04-12T10:41:13Z</time></trkpt><trkpt lat="45.94125496797553" lon="9.240894510350511"><ele>711.0</ele><time>2026-04-12T10:41:14Z</time></trkpt><trkpt lat="45.941317960118866" lon="9.241018361695886"><ele>711.0</ele><time>2026-04-12T10:41:15Z</time></trkpt><trkpt lat="45.94138964183657" lon="9.241130918233951"><ele>711.0</ele><time>2026-04-12T10:41:16Z</time></trkpt><trkpt lat="45.94147669519245" lon="9.24123083535612"><ele>711.0</ele><time>2026-04-12T10:41:17Z</time></trkpt><trkpt lat="45.941570985343105" lon="9.241320422069009"><ele>711.0</ele><time>2026-04-12T10:41:18Z</time></trkpt><trkpt lat="45.94165455510579" lon="9.241408200771374"><ele>711.0</ele><time>2026-04-12T10:41:19Z</time></trkpt><trkpt lat="45.94171940049704" lon="9.241492976117788"><ele>711.0</ele><time>2026-04-12T10:41:20Z</time></trkpt><trkpt lat="45.94174400170236" lon="9.241598158051668"><ele>711.0</ele><time>2026-04-12T10:41:21Z</time></trkpt><trkpt lat="45.941760111697576" lon="9.241712045237865"><ele>711.0</ele><time>2026-04-12T10:41:22Z</time></trkpt><trkpt lat="45.941761057697164" lon="9.241832095140676"><ele>711.0</ele><time>2026-04-12T10:41:23Z</time></trkpt><trkpt lat="45.9417564657438" lon="9.241952850822464"><ele>711.1999999999999</ele><time>2026-04-12T10:41:24Z</time></trkpt><trkpt lat="45.941737968910495" lon="9.242061459056664"><ele>711.4</ele><time>2026-04-12T10:41:25Z</time></trkpt><trkpt lat="45.94170692429843" lon="9.242143503649464"><ele>711.6</ele><time>2026-04-12T10:41:26Z</time></trkpt><trkpt lat="45.941684717637344" lon="9.24231310637063"><ele>711.8</ele><time>2026-04-12T10:41:28Z</time></trkpt><trkpt lat="45.941713216606566" lon="9.242485671118345"><ele>712.0</ele><time>2026-04-12T10:41:30Z</time></trkpt><trkpt lat="45.941754948864" lon="9.242567674693436"><ele>708.5</ele><time>2026-04-12T10:41:31Z</time></trkpt><trkpt lat="45.94180342338097" lon="9.242648651173077"><ele>705.0</ele><time>2026-04-12T10:41:32Z</time></trkpt><trkpt lat="45.94184629945612" lon="9.2427324144324"><ele>701.5</ele><time>2026-04-12T10:41:33Z</time></trkpt><trkpt lat="45.94189549972257" lon="9.24283049792981"><ele>698.0</ele><time>2026-04-12T10:41:34Z</time></trkpt><trkpt lat="45.941947624329536" lon="9.242932788070751"><ele>694.5</ele><time>2026-04-12T10:41:35Z</time></trkpt><trkpt lat="45.94200107710785" lon="9.243032250162155"><ele>691.0</ele><time>2026-04-12T10:41:36Z</time></trkpt><trkpt lat="45.94205829875967" lon="9.2431293458072"><ele>691.1666666666667</ele><time>2026-04-12T10:41:37Z</time></trkpt><trkpt lat="45.94210759557856" lon="9.243226030034748"><ele>691.3333333333334</ele><time>2026-04-12T10:41:38Z</time></trkpt><trkpt lat="45.942149634575856" lon="9.2433178961191"><ele>691.5</ele><time>2026-04-12T10:41:39Z</time></trkpt><trkpt lat="45.94218442184426" lon="9.243408297438581"><ele>691.6666666666666</ele><time>2026-04-12T10:41:40Z</time></trkpt><trkpt lat="45.942196199986846" lon="9.243505121436852"><ele>691.8333333333333</ele><time>2026-04-12T10:41:41Z</time></trkpt><trkpt lat="45.94217463199087" lon="9.243616321359154"><ele>692.0</ele><time>2026-04-12T10:41:42Z</time></trkpt><trkpt lat="45.94215362118324" lon="9.243724397784751"><ele>692.0</ele><time>2026-04-12T10:41:43Z</time></trkpt><trkpt lat="45.942127835517425" lon="9.24384656640713"><ele>692.0</ele><time>2026-04-12T10:41:44Z</time></trkpt><trkpt lat="45.94210044707185" lon="9.243979131917385"><ele>692.0</ele><time>2026-04-12T10:41:45Z</time></trkpt><trkpt lat="45.94207503271583" lon="9.244114419885591"><ele>692.0</ele><time>2026-04-12T10:41:46Z</time></trkpt><trkpt lat="45.94204791417866" lon="9.24425121201408"><ele>692.0</ele><time>2026-04-12T10:41:47Z</time></trkpt><trkpt lat="45.94201882238928" lon="9.244393155097583"><ele>692.0</ele><time>2026-04-12T10:41:48Z</time></trkpt><trkpt lat="45.94202124634653" lon="9.244543949549856"><ele>692.0</ele><time>2026-04-12T10:41:49Z</time></trkpt><trkpt lat="45.94202459155349" lon="9.244687828512848"><ele>692.0</ele><time>2026-04-12T10:41:50Z</time></trkpt><trkpt lat="45.94205062534006" lon="9.244826652124454"><ele>692.0</ele><time>2026-04-12T10:41:51Z</time></trkpt><trkpt lat="45.942100143367" lon="9.244966437249913"><ele>692.0</ele><time>2026-04-12T10:41:52Z</time></trkpt><trkpt lat="45.94215197244139" lon="9.245105870164876"><ele>692.0</ele><time>2026-04-12T10:41:53Z</time></trkpt><trkpt lat="45.942198869087804" lon="9.245253140633588"><ele>692.0</ele><time>2026-04-12T10:41:54Z</time></trkpt><trkpt lat="45.94224413434978" lon="9.245405059999989"><ele>692.0</ele><time>2026-04-12T10:41:55Z</time></trkpt><trkpt lat="45.94229431996498" lon="9.245564475855547"><ele>692.0</ele><time>2026-04-12T10:41:56Z</time></trkpt><trkpt lat="45.942350130527565" lon="9.24573525714692"><ele>691.0</ele><time>2026-04-12T10:41:57Z</time></trkpt><trkpt lat="45.94241331969746" lon="9.24590732815918"><ele>690.0</ele><time>2026-04-12T10:41:58Z</time></trkpt><trkpt lat="45.94249107548599" lon="9.246082946623144"><ele>689.0</ele><time>2026-04-12T10:41:59Z</time></trkpt><trkpt lat="45.94257728898825" lon="9.246253261725029"><ele>688.0</ele><time>2026-04-12T10:42:00Z</time></trkpt><trkpt lat="45.94266330559868" lon="9.246427667220955"><ele>688.0</ele><time>2026-04-12T10:42:01Z</time></trkpt><trkpt lat="45.942745374189585" lon="9.246600341982628"><ele>688.0</ele><time>2026-04-12T10:42:02Z</time></trkpt><trkpt lat="45.942826765929176" lon="9.246771703697652"><ele>688.0</ele><time>2026-04-12T10:42:03Z</time></trkpt><trkpt lat="45.942905911075286" lon="9.24694115692763"><ele>688.0</ele><time>2026-04-12T10:42:04Z</time></trkpt><trkpt lat="45.942983131551664" lon="9.247107487614864"><ele>688.0</ele><time>2026-04-12T10:42:05Z</time></trkpt><trkpt lat="45.94305426015934" lon="9.247259833011"><ele>688.0</ele><time>2026-04-12T10:42:06Z</time></trkpt><trkpt lat="45.9431197490314" lon="9.247401087030248"><ele>688.0</ele><time>2026-04-12T10:42:07Z</time></trkpt><trkpt lat="45.943182493990925" lon="9.247535118419824"><ele>688.0</ele><time>2026-04-12T10:42:08Z</time></trkpt><trkpt lat="45.94323892707784" lon="9.247667285721512"><ele>689.5</ele><time>2026-04-12T10:42:09Z</time></trkpt><trkpt lat="45.94329102282554" lon="9.247806241791004"><ele>691.0</ele><time>2026-04-12T10:42:10Z</time></trkpt><trkpt lat="45.94334293656196" lon="9.247950537241845"><ele>692.5</ele><time>2026-04-12T10:42:11Z</time></trkpt><trkpt lat="45.94339708247205" lon="9.24810475771458"><ele>694.0</ele><time>2026-04-12T10:42:12Z</time></trkpt><trkpt lat="45.94345301283517" lon="9.248261434393577"><ele>690.75</ele><time>2026-04-12T10:42:13Z</time></trkpt><trkpt lat="45.94351340632957" lon="9.248425598347232"><ele>687.5</ele><time>2026-04-12T10:42:14Z</time></trkpt><trkpt lat="45.94357481689284" lon="9.248592027021209"><ele>684.25</ele><time>2026-04-12T10:42:15Z</time></trkpt><trkpt lat="45.94364417959404" lon="9.248763273583688"><ele>681.0</ele><time>2026-04-12T10:42:16Z</time></trkpt><trkpt lat="45.94372223589443" lon="9.248926453271448"><ele>682.25</ele><time>2026-04-12T10:42:17Z</time></trkpt><trkpt lat="45.94381129697385" lon="9.249089205520557"><ele>683.5</ele><time>2026-04-12T10:42:18Z</time></trkpt><trkpt lat="45.943899826306414" lon="9.249257793379284"><ele>684.75</ele><time>2026-04-12T10:42:19Z</time></trkpt><trkpt lat="45.94398644718962" lon="9.249429828440075"><ele>686.0</ele><time>2026-04-12T10:42:20Z</time></trkpt><trkpt lat="45.9440807108352" lon="9.249595141172753"><ele>686.0</ele><time>2026-04-12T10:42:21Z</time></trkpt><trkpt lat="45.944174308258475" lon="9.249753597697834"><ele>686.0</ele><time>2026-04-12T10:42:22Z</time></trkpt><trkpt lat="45.94427147834699" lon="9.249902735148336"><ele>686.0</ele><time>2026-04-12T10:42:23Z</time></trkpt><trkpt lat="45.9443834934086" lon="9.250043626922052"><ele>686.0</ele><time>2026-04-12T10:42:24Z</time></trkpt><trkpt lat="45.94449797809904" lon="9.250182889405764"><ele>687.25</ele><time>2026-04-12T10:42:25Z</time></trkpt><trkpt lat="45.94460896576513" lon="9.250325207707812"><ele>688.5</ele><time>2026-04-12T10:42:26Z</time></trkpt><trkpt lat="45.9447153863038" lon="9.250459789255656"><ele>689.75</ele><time>2026-04-12T10:42:27Z</time></trkpt><trkpt lat="45.94481908693711" lon="9.250591765689503"><ele>691.0</ele><time>2026-04-12T10:42:28Z</time></trkpt><trkpt lat="45.94491842699353" lon="9.250716313939174"><ele>691.0</ele><time>2026-04-12T10:42:29Z</time></trkpt><trkpt lat="45.94500983114904" lon="9.250828430455895"><ele>691.0</ele><time>2026-04-12T10:42:30Z</time></trkpt><trkpt lat="45.94509939024234" lon="9.250938219877959"><ele>691.0</ele><time>2026-04-12T10:42:31Z</time></trkpt><trkpt lat="45.945183768759144" lon="9.25103635747834"><ele>691.0</ele><time>2026-04-12T10:42:32Z</time></trkpt><trkpt lat="45.945277126511776" lon="9.251120275051209"><ele>692.5</ele><time>2026-04-12T10:42:33Z</time></trkpt><trkpt lat="45.94538014391605" lon="9.251189926500281"><ele>694.0</ele><time>2026-04-12T10:42:34Z</time></trkpt><trkpt lat="45.94548776630038" lon="9.251249727322756"><ele>695.5</ele><time>2026-04-12T10:42:35Z</time></trkpt><trkpt lat="45.94559578408921" lon="9.2513169377423"><ele>697.0</ele><time>2026-04-12T10:42:36Z</time></trkpt><trkpt lat="45.94570565670438" lon="9.251389523584974"><ele>698.5</ele><time>2026-04-12T10:42:37Z</time></trkpt><trkpt lat="45.94581277588072" lon="9.251470401323356"><ele>700.0</ele><time>2026-04-12T10:42:38Z</time></trkpt><trkpt lat="45.94592163823702" lon="9.251554714472073"><ele>701.5</ele><time>2026-04-12T10:42:39Z</time></trkpt><trkpt lat="45.946031230077104" lon="9.25163484939926"><ele>703.0</ele><time>2026-04-12T10:42:40Z</time></trkpt><trkpt lat="45.94613119180858" lon="9.25171479335165"><ele>703.8</ele><time>2026-04-12T10:42:41Z</time></trkpt><trkpt lat="45.94622524252249" lon="9.251790912113659"><ele>704.5999999999999</ele><time>2026-04-12T10:42:42Z</time></trkpt><trkpt lat="45.946315226458566" lon="9.251856130995533"><ele>705.4000000000001</ele><time>2026-04-12T10:42:43Z</time></trkpt><trkpt lat="45.946401699595604" lon="9.251911051348669"><ele>706.2</ele><time>2026-04-12T10:42:44Z</time></trkpt><trkpt lat="45.94648937092717" lon="9.251947390664915"><ele>707.0</ele><time>2026-04-12T10:42:44.999Z</time></trkpt><trkpt lat="45.946575838497445" lon="9.251971078476286"><ele>707.0</ele><time>2026-04-12T10:42:45.999Z</time></trkpt><trkpt lat="45.94666295068753" lon="9.251991368402791"><ele>707.0</ele><time>2026-04-12T10:42:46.999Z</time></trkpt><trkpt lat="45.946746755909686" lon="9.252011614090097"><ele>707.0</ele><time>2026-04-12T10:42:47.999Z</time></trkpt><trkpt lat="45.946828142345424" lon="9.252033905583472"><ele>707.0</ele><time>2026-04-12T10:42:48.999Z</time></trkpt><trkpt lat="45.94690500485059" lon="9.25205744668416"><ele>707.0</ele><time>2026-04-12T10:42:49.999Z</time></trkpt><trkpt lat="45.946983331187184" lon="9.252085993598843"><ele>707.0</ele><time>2026-04-12T10:42:50.999Z</time></trkpt><trkpt lat="45.94705319063959" lon="9.252129876690633"><ele>706.2</ele><time>2026-04-12T10:42:51.999Z</time></trkpt><trkpt lat="45.94712411030017" lon="9.25219996337157"><ele>705.4000000000001</ele><time>2026-04-12T10:42:52.999Z</time></trkpt><trkpt lat="45.94719035926444" lon="9.252297040732063"><ele>704.5999999999999</ele><time>2026-04-12T10:42:53.999Z</time></trkpt><trkpt lat="45.947257387389406" lon="9.252402588968982"><ele>703.8</ele><time>2026-04-12T10:42:54.999Z</time></trkpt><trkpt lat="45.94732256873657" lon="9.252510076805718"><ele>703.0</ele><time>2026-04-12T10:42:55.999Z</time></trkpt><trkpt lat="45.947383099227935" lon="9.252622058097096"><ele>703.0</ele><time>2026-04-12T10:42:56.999Z</time></trkpt><trkpt lat="45.94742544286025" lon="9.252748194248118"><ele>703.0</ele><time>2026-04-12T10:42:57.999Z</time></trkpt><trkpt lat="45.947450472708475" lon="9.252886769934472"><ele>703.0</ele><time>2026-04-12T10:42:58.999Z</time></trkpt><trkpt lat="45.94746169359575" lon="9.253038307561823"><ele>703.0</ele><time>2026-04-12T10:42:59.999Z</time></trkpt><trkpt lat="45.94743873444704" lon="9.253192026682745"><ele>703.0</ele><time>2026-04-12T10:43:00.999Z</time></trkpt><trkpt lat="45.947433464060055" lon="9.253359929596408"><ele>702.75</ele><time>2026-04-12T10:43:01.999Z</time></trkpt><trkpt lat="45.94740067556173" lon="9.253531302623607"><ele>702.5</ele><time>2026-04-12T10:43:02.999Z</time></trkpt><trkpt lat="45.947369571041115" lon="9.253713382303363"><ele>702.25</ele><time>2026-04-12T10:43:03.999Z</time></trkpt><trkpt lat="45.94734058241958" lon="9.25389960032414"><ele>702.0</ele><time>2026-04-12T10:43:04.999Z</time></trkpt><trkpt lat="45.947314932584106" lon="9.254089178487863"><ele>702.0</ele><time>2026-04-12T10:43:06Z</time></trkpt><trkpt lat="45.94729554101034" lon="9.254272958273798"><ele>702.0</ele><time>2026-04-12T10:43:07Z</time></trkpt><trkpt lat="45.94728906542599" lon="9.254447152632457"><ele>702.0</ele><time>2026-04-12T10:43:08Z</time></trkpt><trkpt lat="45.947306939531366" lon="9.25462157741334"><ele>702.0</ele><time>2026-04-12T10:43:09Z</time></trkpt><trkpt lat="45.94733279979097" lon="9.254793368684869"><ele>700.6</ele><time>2026-04-12T10:43:10Z</time></trkpt><trkpt lat="45.94735642189476" lon="9.254955903189991"><ele>699.2</ele><time>2026-04-12T10:43:11Z</time></trkpt><trkpt lat="45.94738066716281" lon="9.255111314834815"><ele>697.8</ele><time>2026-04-12T10:43:12Z</time></trkpt><trkpt lat="45.94741956697261" lon="9.255253305722052"><ele>696.4</ele><time>2026-04-12T10:43:13Z</time></trkpt><trkpt lat="45.94747470528682" lon="9.255381320515372"><ele>695.0</ele><time>2026-04-12T10:43:14Z</time></trkpt><trkpt lat="45.947538952535936" lon="9.25550354245666"><ele>694.8</ele><time>2026-04-12T10:43:15Z</time></trkpt><trkpt lat="45.947602291145216" lon="9.255616234884362"><ele>694.6</ele><time>2026-04-12T10:43:16Z</time></trkpt><trkpt lat="45.94766594979282" lon="9.255732527344684"><ele>694.4000000000001</ele><time>2026-04-12T10:43:17Z</time></trkpt><trkpt lat="45.947721215032665" lon="9.255847752410826"><ele>694.2</ele><time>2026-04-12T10:43:18Z</time></trkpt><trkpt lat="45.94777062419826" lon="9.255957794901402"><ele>694.0</ele><time>2026-04-12T10:43:19Z</time></trkpt><trkpt lat="45.94781576330275" lon="9.256053561925112"><ele>694.0</ele><time>2026-04-12T10:43:20Z</time></trkpt><trkpt lat="45.94786476219793" lon="9.256117329762224"><ele>694.0</ele><time>2026-04-12T10:43:21Z</time></trkpt><trkpt lat="45.94792339322452" lon="9.25616092631514"><ele>694.0</ele><time>2026-04-12T10:43:22Z</time></trkpt><trkpt lat="45.94800150823951" lon="9.256180673919653"><ele>694.0</ele><time>2026-04-12T10:43:23Z</time></trkpt><trkpt lat="45.94808852964269" lon="9.256202596063336"><ele>694.0</ele><time>2026-04-12T10:43:24Z</time></trkpt><trkpt lat="45.948181715657796" lon="9.256227401891515"><ele>694.0</ele><time>2026-04-12T10:43:25Z</time></trkpt><trkpt lat="45.94828646168554" lon="9.256254790235838"><ele>691.0</ele><time>2026-04-12T10:43:26Z</time></trkpt><trkpt lat="45.94839487062444" lon="9.256299874307414"><ele>688.0</ele><time>2026-04-12T10:43:27Z</time></trkpt><trkpt lat="45.94851065103961" lon="9.256345387635896"><ele>685.0</ele><time>2026-04-12T10:43:28Z</time></trkpt><trkpt lat="45.94863604353045" lon="9.256395758578153"><ele>682.0</ele><time>2026-04-12T10:43:29Z</time></trkpt><trkpt lat="45.94875119704653" lon="9.256444626601608"><ele>680.2</ele><time>2026-04-12T10:43:30Z</time></trkpt><trkpt lat="45.9488691373403" lon="9.256488861909727"><ele>678.4000000000001</ele><time>2026-04-12T10:43:31Z</time></trkpt><trkpt lat="45.94898601238519" lon="9.256515527763455"><ele>676.5999999999999</ele><time>2026-04-12T10:43:32Z</time></trkpt><trkpt lat="45.94908766449789" lon="9.256515881936513"><ele>674.8</ele><time>2026-04-12T10:43:33Z</time></trkpt><trkpt lat="45.949187762735875" lon="9.256498506079392"><ele>673.0</ele><time>2026-04-12T10:43:34Z</time></trkpt><trkpt lat="45.9492888588218" lon="9.256455081099375"><ele>672.8</ele><time>2026-04-12T10:43:35Z</time></trkpt><trkpt lat="45.949390049916126" lon="9.256406701049213"><ele>672.5999999999999</ele><time>2026-04-12T10:43:36Z</time></trkpt><trkpt lat="45.94948978185637" lon="9.256380635187476"><ele>672.4000000000001</ele><time>2026-04-12T10:43:37Z</time></trkpt><trkpt lat="45.94957160744869" lon="9.256331757650862"><ele>672.2</ele><time>2026-04-12T10:43:38Z</time></trkpt><trkpt lat="45.94964133205332" lon="9.256309133363088"><ele>672.0</ele><time>2026-04-12T10:43:39Z</time></trkpt><trkpt lat="45.949751463210305" lon="9.256342512600778"><ele>672.0</ele><time>2026-04-12T10:43:41Z</time></trkpt><trkpt lat="45.94980523877145" lon="9.256413725491402"><ele>672.0</ele><time>2026-04-12T10:43:42Z</time></trkpt><trkpt lat="45.94983106948141" lon="9.256524623356404"><ele>672.0</ele><time>2026-04-12T10:43:43Z</time></trkpt><trkpt lat="45.94983337706882" lon="9.256659647630986"><ele>672.0</ele><time>2026-04-12T10:43:44Z</time></trkpt><trkpt lat="45.94982487135924" lon="9.256799745204553"><ele>672.0</ele><time>2026-04-12T10:43:45Z</time></trkpt><trkpt lat="45.94981199277576" lon="9.256934554578054"><ele>672.0</ele><time>2026-04-12T10:43:46Z</time></trkpt><trkpt lat="45.94981000151452" lon="9.257072881846087"><ele>670.5</ele><time>2026-04-12T10:43:47Z</time></trkpt><trkpt lat="45.94980352217102" lon="9.257195137769552"><ele>669.0</ele><time>2026-04-12T10:43:48Z</time></trkpt><trkpt lat="45.94980636885712" lon="9.257300731860257"><ele>667.5</ele><time>2026-04-12T10:43:49Z</time></trkpt><trkpt lat="45.9498366511408" lon="9.25738974485326"><ele>666.0</ele><time>2026-04-12T10:43:50Z</time></trkpt><trkpt lat="45.94987176467688" lon="9.257472929580825"><ele>664.5</ele><time>2026-04-12T10:43:51Z</time></trkpt><trkpt lat="45.94999050712717" lon="9.257482997627791"><ele>663.0</ele><time>2026-04-12T10:43:52Z</time></trkpt><trkpt lat="45.95008370616743" lon="9.25748843868684"><ele>660.4</ele><time>2026-04-12T10:43:53Z</time></trkpt><trkpt lat="45.95017630018241" lon="9.257518817677031"><ele>657.8</ele><time>2026-04-12T10:43:54Z</time></trkpt><trkpt lat="45.95027370189913" lon="9.257552156803966"><ele>655.2</ele><time>2026-04-12T10:43:55Z</time></trkpt><trkpt lat="45.95038382939124" lon="9.25758179372368"><ele>652.6</ele><time>2026-04-12T10:43:56Z</time></trkpt><trkpt lat="45.95049550873126" lon="9.257608304172566"><ele>650.0</ele><time>2026-04-12T10:43:57Z</time></trkpt><trkpt lat="45.95060890376977" lon="9.25762699468181"><ele>650.0</ele><time>2026-04-12T10:43:58Z</time></trkpt><trkpt lat="45.95072563982519" lon="9.257631265575375"><ele>650.0</ele><time>2026-04-12T10:43:59Z</time></trkpt><trkpt lat="45.950830790754765" lon="9.257622944966542"><ele>650.0</ele><time>2026-04-12T10:44:00Z</time></trkpt><trkpt lat="45.950919782648945" lon="9.25761852859487"><ele>650.0</ele><time>2026-04-12T10:44:01Z</time></trkpt><trkpt lat="45.95099385737938" lon="9.257618530477888"><ele>650.0</ele><time>2026-04-12T10:44:02Z</time></trkpt><trkpt lat="45.95108631878357" lon="9.257625783017588"><ele>648.8333333333333</ele><time>2026-04-12T10:44:04Z</time></trkpt><trkpt lat="45.95115590080307" lon="9.25764102820816"><ele>647.6666666666666</ele><time>2026-04-12T10:44:07Z</time></trkpt><trkpt lat="45.95121879351988" lon="9.257554117371622"><ele>646.5</ele><time>2026-04-12T10:44:08Z</time></trkpt><trkpt lat="45.95128651162" lon="9.25749940271903"><ele>645.3333333333334</ele><time>2026-04-12T10:44:09Z</time></trkpt><trkpt lat="45.95137734605742" lon="9.257479034797502"><ele>644.1666666666667</ele><time>2026-04-12T10:44:10Z</time></trkpt><trkpt lat="45.95147042552894" lon="9.257470350039675"><ele>643.0</ele><time>2026-04-12T10:44:11Z</time></trkpt><trkpt lat="45.95157178619661" lon="9.257458653898848"><ele>643.0</ele><time>2026-04-12T10:44:12Z</time></trkpt><trkpt lat="45.951688075963645" lon="9.257440613645903"><ele>643.0</ele><time>2026-04-12T10:44:13Z</time></trkpt><trkpt lat="45.95180302382096" lon="9.257418875821909"><ele>643.0</ele><time>2026-04-12T10:44:14Z</time></trkpt><trkpt lat="45.95193021873962" lon="9.257398423720575"><ele>643.0</ele><time>2026-04-12T10:44:15Z</time></trkpt><trkpt lat="45.95206260293034" lon="9.257379805808606"><ele>642.75</ele><time>2026-04-12T10:44:16Z</time></trkpt><trkpt lat="45.95219492810702" lon="9.257362435611562"><ele>642.5</ele><time>2026-04-12T10:44:17Z</time></trkpt><trkpt lat="45.952334598517915" lon="9.25733660901123"><ele>642.25</ele><time>2026-04-12T10:44:18Z</time></trkpt><trkpt lat="45.952475317489416" lon="9.257312785002618"><ele>642.0</ele><time>2026-04-12T10:44:19Z</time></trkpt><trkpt lat="45.95262236326176" lon="9.257291791618329"><ele>643.0</ele><time>2026-04-12T10:44:20Z</time></trkpt><trkpt lat="45.952765121614384" lon="9.257274173553373"><ele>644.0</ele><time>2026-04-12T10:44:21Z</time></trkpt><trkpt lat="45.952909363791306" lon="9.257263751064063"><ele>645.0</ele><time>2026-04-12T10:44:22Z</time></trkpt><trkpt lat="45.95304957164913" lon="9.257258906624289"><ele>646.0</ele><time>2026-04-12T10:44:23Z</time></trkpt><trkpt lat="45.95318144356983" lon="9.257258870474784"><ele>646.0</ele><time>2026-04-12T10:44:24Z</time></trkpt><trkpt lat="45.953310227152095" lon="9.257259431366633"><ele>646.0</ele><time>2026-04-12T10:44:25Z</time></trkpt><trkpt lat="45.9534347969763" lon="9.257258435073615"><ele>646.0</ele><time>2026-04-12T10:44:26Z</time></trkpt><trkpt lat="45.953557728814594" lon="9.257260723496271"><ele>646.0</ele><time>2026-04-12T10:44:27Z</time></trkpt><trkpt lat="45.95367174985971" lon="9.257262656444716"><ele>644.0</ele><time>2026-04-12T10:44:28Z</time></trkpt><trkpt lat="45.95377326534863" lon="9.257257135173795"><ele>642.0</ele><time>2026-04-12T10:44:29Z</time></trkpt><trkpt lat="45.95385763330655" lon="9.257244463614093"><ele>640.0</ele><time>2026-04-12T10:44:30Z</time></trkpt><trkpt lat="45.953933288190164" lon="9.257214949835305"><ele>638.0</ele><time>2026-04-12T10:44:31Z</time></trkpt><trkpt lat="45.954001580403" lon="9.257155306657916"><ele>636.0</ele><time>2026-04-12T10:44:32Z</time></trkpt><trkpt lat="45.954068142500454" lon="9.257069556208517"><ele>634.0</ele><time>2026-04-12T10:44:33Z</time></trkpt><trkpt lat="45.954139513998015" lon="9.256970752587188"><ele>630.75</ele><time>2026-04-12T10:44:34Z</time></trkpt><trkpt lat="45.95421560274883" lon="9.256869225801369"><ele>627.5</ele><time>2026-04-12T10:44:35Z</time></trkpt><trkpt lat="45.95429278573234" lon="9.256755726496367"><ele>624.25</ele><time>2026-04-12T10:44:36Z</time></trkpt><trkpt lat="45.95438765043089" lon="9.256641143167501"><ele>621.0</ele><time>2026-04-12T10:44:37Z</time></trkpt><trkpt lat="45.95447285476067" lon="9.256519899170257"><ele>623.75</ele><time>2026-04-12T10:44:38Z</time></trkpt><trkpt lat="45.95455728112363" lon="9.2564029680436"><ele>626.5</ele><time>2026-04-12T10:44:39Z</time></trkpt><trkpt lat="45.954642671063944" lon="9.25629424982817"><ele>629.25</ele><time>2026-04-12T10:44:39.999Z</time></trkpt><trkpt lat="45.95472402696623" lon="9.256187057189448"><ele>632.0</ele><time>2026-04-12T10:44:41Z</time></trkpt><trkpt lat="45.95480448822067" lon="9.256075971878076"><ele>632.0</ele><time>2026-04-12T10:44:41.999Z</time></trkpt><trkpt lat="45.95487785972866" lon="9.255957113841884"><ele>632.0</ele><time>2026-04-12T10:44:42.999Z</time></trkpt><trkpt lat="45.954948888953254" lon="9.255823162960452"><ele>632.0</ele><time>2026-04-12T10:44:43.999Z</time></trkpt><trkpt lat="45.955004908532366" lon="9.255662668566"><ele>632.0</ele><time>2026-04-12T10:44:44.999Z</time></trkpt><trkpt lat="45.955072410494004" lon="9.25550683201702"><ele>626.5</ele><time>2026-04-12T10:44:45.999Z</time></trkpt><trkpt lat="45.955129803346125" lon="9.255337710960887"><ele>621.0</ele><time>2026-04-12T10:44:46.999Z</time></trkpt><trkpt lat="45.955191807003914" lon="9.255157898201382"><ele>615.5</ele><time>2026-04-12T10:44:47.999Z</time></trkpt><trkpt lat="45.9552534054227" lon="9.254983448700354"><ele>610.0</ele><time>2026-04-12T10:44:48.999Z</time></trkpt><trkpt lat="45.95532330781552" lon="9.254808120096962"><ele>610.0</ele><time>2026-04-12T10:44:49.999Z</time></trkpt><trkpt lat="45.955405374012166" lon="9.254646753267592"><ele>610.0</ele><time>2026-04-12T10:44:50.999Z</time></trkpt><trkpt lat="45.95549965360385" lon="9.254494144773721"><ele>610.0</ele><time>2026-04-12T10:44:51.999Z</time></trkpt><trkpt lat="45.955593300423715" lon="9.254334451865219"><ele>610.0</ele><time>2026-04-12T10:44:52.999Z</time></trkpt><trkpt lat="45.955690187112786" lon="9.254196257658123"><ele>610.0</ele><time>2026-04-12T10:44:53.999Z</time></trkpt><trkpt lat="45.9557906857337" lon="9.254082388613991"><ele>610.0</ele><time>2026-04-12T10:44:54.999Z</time></trkpt><trkpt lat="45.95585563880082" lon="9.253956038786423"><ele>610.0</ele><time>2026-04-12T10:44:55.999Z</time></trkpt><trkpt lat="45.955905636297004" lon="9.253861591827796"><ele>610.0</ele><time>2026-04-12T10:44:56.999Z</time></trkpt><trkpt lat="45.95592632880401" lon="9.25374296045598"><ele>610.0</ele><time>2026-04-12T10:44:57.999Z</time></trkpt><trkpt lat="45.955938040563304" lon="9.253590521070697"><ele>606.8</ele><time>2026-04-12T10:44:58.999Z</time></trkpt><trkpt lat="45.95595616326518" lon="9.2534419980744"><ele>603.6</ele><time>2026-04-12T10:44:59.999Z</time></trkpt><trkpt lat="45.956007369805775" lon="9.253310383997777"><ele>600.4</ele><time>2026-04-12T10:45:00.999Z</time></trkpt><trkpt lat="45.95604277403678" lon="9.253165954049928"><ele>597.2</ele><time>2026-04-12T10:45:01.999Z</time></trkpt><trkpt lat="45.9561349153874" lon="9.253064952623326"><ele>594.0</ele><time>2026-04-12T10:45:02.999Z</time></trkpt><trkpt lat="45.95621949308848" lon="9.25295278614133"><ele>594.0</ele><time>2026-04-12T10:45:03.999Z</time></trkpt><trkpt lat="45.9563158224464" lon="9.252872038575726"><ele>594.0</ele><time>2026-04-12T10:45:04.999Z</time></trkpt><trkpt lat="45.95641040155047" lon="9.252776996904629"><ele>594.0</ele><time>2026-04-12T10:45:05.999Z</time></trkpt><trkpt lat="45.956491073962816" lon="9.252663013611608"><ele>594.0</ele><time>2026-04-12T10:45:06.999Z</time></trkpt><trkpt lat="45.95656280097149" lon="9.252533058427503"><ele>594.0</ele><time>2026-04-12T10:45:07.999Z</time></trkpt><trkpt lat="45.95662632966336" lon="9.25239769789314"><ele>594.0</ele><time>2026-04-12T10:45:08.999Z</time></trkpt><trkpt lat="45.956695787501005" lon="9.252264371232195"><ele>594.0</ele><time>2026-04-12T10:45:09.999Z</time></trkpt><trkpt lat="45.95676751963191" lon="9.252153924454285"><ele>594.0</ele><time>2026-04-12T10:45:10.999Z</time></trkpt><trkpt lat="45.95683606589886" lon="9.252043055103808"><ele>594.0</ele><time>2026-04-12T10:45:12Z</time></trkpt><trkpt lat="45.956889346525934" lon="9.251920451597838"><ele>590.25</ele><time>2026-04-12T10:45:13Z</time></trkpt><trkpt lat="45.95692803254396" lon="9.251770662943859"><ele>586.5</ele><time>2026-04-12T10:45:14Z</time></trkpt><trkpt lat="45.95695543763605" lon="9.251595429037748"><ele>582.75</ele><time>2026-04-12T10:45:15Z</time></trkpt><trkpt lat="45.95698200175009" lon="9.251421641383368"><ele>579.0</ele><time>2026-04-12T10:45:16Z</time></trkpt><trkpt lat="45.95701361607055" lon="9.25124519533828"><ele>578.8</ele><time>2026-04-12T10:45:17Z</time></trkpt><trkpt lat="45.957045499467405" lon="9.251075155101203"><ele>578.5999999999999</ele><time>2026-04-12T10:45:18Z</time></trkpt><trkpt lat="45.95707944672357" lon="9.250918381714817"><ele>578.4</ele><time>2026-04-12T10:45:19Z</time></trkpt><trkpt lat="45.95710310448033" lon="9.250789945701142"><ele>578.1999999999999</ele><time>2026-04-12T10:45:20Z</time></trkpt><trkpt lat="45.95712175721187" lon="9.250691781891643"><ele>578.0</ele><time>2026-04-12T10:45:21Z</time></trkpt><trkpt lat="45.95717796449348" lon="9.250580119246157"><ele>578.0</ele><time>2026-04-12T10:45:23Z</time></trkpt><trkpt lat="45.95727833142837" lon="9.25063664204623"><ele>578.0</ele><time>2026-04-12T10:45:25Z</time></trkpt><trkpt lat="45.95729904461441" lon="9.25073616614999"><ele>578.0</ele><time>2026-04-12T10:45:26Z</time></trkpt><trkpt lat="45.95731362270625" lon="9.250865632736266"><ele>578.0</ele><time>2026-04-12T10:45:27Z</time></trkpt><trkpt lat="45.95731457684869" lon="9.251005874258613"><ele>578.0</ele><time>2026-04-12T10:45:28Z</time></trkpt><trkpt lat="45.95731033355858" lon="9.25116129853863"><ele>578.0</ele><time>2026-04-12T10:45:29Z</time></trkpt><trkpt lat="45.9573070146831" lon="9.251323353497222"><ele>578.0</ele><time>2026-04-12T10:45:30Z</time></trkpt><trkpt lat="45.957317178799904" lon="9.251482948367896"><ele>578.0</ele><time>2026-04-12T10:45:31Z</time></trkpt><trkpt lat="45.95736001989871" lon="9.251629740860064"><ele>578.0</ele><time>2026-04-12T10:45:32Z</time></trkpt><trkpt lat="45.95741743180025" lon="9.251739341499592"><ele>578.0</ele><time>2026-04-12T10:45:33Z</time></trkpt><trkpt lat="45.95743954439855" lon="9.251845395765393"><ele>578.1428571428571</ele><time>2026-04-12T10:45:34Z</time></trkpt><trkpt lat="45.95743771950101" lon="9.251955005545524"><ele>578.2857142857142</ele><time>2026-04-12T10:45:35Z</time></trkpt><trkpt lat="45.957415551732666" lon="9.252062535288747"><ele>578.4285714285713</ele><time>2026-04-12T10:45:36Z</time></trkpt><trkpt lat="45.95741315967109" lon="9.252157781160067"><ele>578.5714285714286</ele><time>2026-04-12T10:45:37Z</time></trkpt><trkpt lat="45.95743779285847" lon="9.252243679028151"><ele>578.7142857142857</ele><time>2026-04-12T10:45:38Z</time></trkpt><trkpt lat="45.95748104591581" lon="9.252326103415182"><ele>578.8571428571428</ele><time>2026-04-12T10:45:39Z</time></trkpt><trkpt lat="45.95753597789602" lon="9.252392088620153"><ele>579.0</ele><time>2026-04-12T10:45:40Z</time></trkpt><trkpt lat="45.95760399567207" lon="9.252432468329115"><ele>581.0</ele><time>2026-04-12T10:45:41Z</time></trkpt><trkpt lat="45.95768051489732" lon="9.252438318105241"><ele>583.0</ele><time>2026-04-12T10:45:42Z</time></trkpt><trkpt lat="45.95775242271228" lon="9.252390173319213"><ele>585.0</ele><time>2026-04-12T10:45:43Z</time></trkpt><trkpt lat="45.957827029185125" lon="9.252301944689112"><ele>587.0</ele><time>2026-04-12T10:45:44Z</time></trkpt><trkpt lat="45.95790142522617" lon="9.25220584323648"><ele>589.0</ele><time>2026-04-12T10:45:45Z</time></trkpt><trkpt lat="45.95798956743592" lon="9.252118521084942"><ele>587.25</ele><time>2026-04-12T10:45:46Z</time></trkpt><trkpt lat="45.9580939037884" lon="9.252055951127787"><ele>585.5</ele><time>2026-04-12T10:45:47Z</time></trkpt><trkpt lat="45.95820504607644" lon="9.252008134142903"><ele>583.75</ele><time>2026-04-12T10:45:48Z</time></trkpt><trkpt lat="45.95832333551743" lon="9.251961587937728"><ele>582.0</ele><time>2026-04-12T10:45:49Z</time></trkpt><trkpt lat="45.95843292374376" lon="9.25191198023336"><ele>582.0</ele><time>2026-04-12T10:45:50Z</time></trkpt><trkpt lat="45.95853843143897" lon="9.25184956610796"><ele>582.0</ele><time>2026-04-12T10:45:51Z</time></trkpt><trkpt lat="45.95863402221476" lon="9.251768243495741"><ele>582.0</ele><time>2026-04-12T10:45:52Z</time></trkpt><trkpt lat="45.95871497385279" lon="9.251655484926609"><ele>582.0</ele><time>2026-04-12T10:45:53Z</time></trkpt><trkpt lat="45.95879200206554" lon="9.251526966415504"><ele>574.25</ele><time>2026-04-12T10:45:54Z</time></trkpt><trkpt lat="45.958871551028295" lon="9.251398653625317"><ele>566.5</ele><time>2026-04-12T10:45:55Z</time></trkpt><trkpt lat="45.958954559037366" lon="9.251260501183765"><ele>558.75</ele><time>2026-04-12T10:45:56Z</time></trkpt><trkpt lat="45.95903831312061" lon="9.251124235633904"><ele>551.0</ele><time>2026-04-12T10:45:57Z</time></trkpt><trkpt lat="45.959117212893055" lon="9.250981203496629"><ele>551.0</ele><time>2026-04-12T10:45:58Z</time></trkpt><trkpt lat="45.959195980894876" lon="9.25083142609232"><ele>551.0</ele><time>2026-04-12T10:45:59Z</time></trkpt><trkpt lat="45.95927616415639" lon="9.250683272018598"><ele>551.0</ele><time>2026-04-12T10:46:00Z</time></trkpt><trkpt lat="45.95936013115012" lon="9.250558408786864"><ele>551.0</ele><time>2026-04-12T10:46:01Z</time></trkpt><trkpt lat="45.95945526055864" lon="9.25045122641389"><ele>548.25</ele><time>2026-04-12T10:46:02Z</time></trkpt><trkpt lat="45.95955701562341" lon="9.250348730891426"><ele>545.5</ele><time>2026-04-12T10:46:03Z</time></trkpt><trkpt lat="45.95966182919008" lon="9.250257367190349"><ele>542.75</ele><time>2026-04-12T10:46:04Z</time></trkpt><trkpt lat="45.95976669083518" lon="9.250176114837602"><ele>540.0</ele><time>2026-04-12T10:46:05Z</time></trkpt><trkpt lat="45.95986268301723" lon="9.250093311821727"><ele>540.0</ele><time>2026-04-12T10:46:06Z</time></trkpt><trkpt lat="45.95996446893264" lon="9.25001707750305"><ele>540.0</ele><time>2026-04-12T10:46:07Z</time></trkpt><trkpt lat="45.96007274169628" lon="9.249953573089574"><ele>540.0</ele><time>2026-04-12T10:46:08Z</time></trkpt><trkpt lat="45.960184917465476" lon="9.249911687227177"><ele>540.0</ele><time>2026-04-12T10:46:09Z</time></trkpt><trkpt lat="45.96030113723596" lon="9.249880609569681"><ele>539.25</ele><time>2026-04-12T10:46:10Z</time></trkpt><trkpt lat="45.96041598187844" lon="9.249850614832914"><ele>538.5</ele><time>2026-04-12T10:46:11Z</time></trkpt><trkpt lat="45.96053438813513" lon="9.249829448796167"><ele>537.75</ele><time>2026-04-12T10:46:12Z</time></trkpt><trkpt lat="45.96065120311899" lon="9.249817926322812"><ele>537.0</ele><time>2026-04-12T10:46:13Z</time></trkpt><trkpt lat="45.96076964303299" lon="9.249816030526254"><ele>532.25</ele><time>2026-04-12T10:46:14Z</time></trkpt><trkpt lat="45.96088469301959" lon="9.249829804935578"><ele>527.5</ele><time>2026-04-12T10:46:15Z</time></trkpt><trkpt lat="45.96099899618564" lon="9.249850631648876"><ele>522.75</ele><time>2026-04-12T10:46:16Z</time></trkpt><trkpt lat="45.961112317892876" lon="9.24987522234499"><ele>518.0</ele><time>2026-04-12T10:46:17Z</time></trkpt><trkpt lat="45.96123284974858" lon="9.249917595863472"><ele>518.0</ele><time>2026-04-12T10:46:18Z</time></trkpt><trkpt lat="45.961343341874716" lon="9.249968433141381"><ele>518.0</ele><time>2026-04-12T10:46:19Z</time></trkpt><trkpt lat="45.96145487287009" lon="9.250016275833639"><ele>518.0</ele><time>2026-04-12T10:46:20Z</time></trkpt><trkpt lat="45.96156410209487" lon="9.250060579645288"><ele>518.0</ele><time>2026-04-12T10:46:21Z</time></trkpt><trkpt lat="45.96167449790447" lon="9.250109399159994"><ele>512.8</ele><time>2026-04-12T10:46:22Z</time></trkpt><trkpt lat="45.96177948948162" lon="9.250154808707723"><ele>507.59999999999997</ele><time>2026-04-12T10:46:23Z</time></trkpt><trkpt lat="45.96187266196962" lon="9.250210910407212"><ele>502.40000000000003</ele><time>2026-04-12T10:46:24Z</time></trkpt><trkpt lat="45.96195550116855" lon="9.250273633108284"><ele>497.20000000000005</ele><time>2026-04-12T10:46:25Z</time></trkpt><trkpt lat="45.96204409277652" lon="9.250359641326726"><ele>492.0</ele><time>2026-04-12T10:46:26Z</time></trkpt><trkpt lat="45.96211604837123" lon="9.250480320353365"><ele>492.0</ele><time>2026-04-12T10:46:27Z</time></trkpt><trkpt lat="45.962180762451545" lon="9.250610886297205"><ele>492.00000000000006</ele><time>2026-04-12T10:46:28Z</time></trkpt><trkpt lat="45.96224435144981" lon="9.250746459748028"><ele>492.00000000000006</ele><time>2026-04-12T10:46:29Z</time></trkpt><trkpt lat="45.962297380676155" lon="9.250869986756763"><ele>492.0</ele><time>2026-04-12T10:46:29.999Z</time></trkpt><trkpt lat="45.96232727949943" lon="9.25099728654783"><ele>492.0</ele><time>2026-04-12T10:46:30.999Z</time></trkpt><trkpt lat="45.96233008793449" lon="9.251140458652522"><ele>494.0</ele><time>2026-04-12T10:46:31.999Z</time></trkpt><trkpt lat="45.96230162040143" lon="9.251290954428297"><ele>496.00000000000006</ele><time>2026-04-12T10:46:32.999Z</time></trkpt><trkpt lat="45.96226694448757" lon="9.251436671785841"><ele>498.00000000000006</ele><time>2026-04-12T10:46:33.999Z</time></trkpt><trkpt lat="45.96224807704301" lon="9.251580754589943"><ele>500.0</ele><time>2026-04-12T10:46:34.999Z</time></trkpt><trkpt lat="45.962272980123736" lon="9.251725005705971"><ele>502.0</ele><time>2026-04-12T10:46:35.999Z</time></trkpt><trkpt lat="45.9623248950397" lon="9.251850705423534"><ele>502.0</ele><time>2026-04-12T10:46:36.999Z</time></trkpt><trkpt lat="45.96238585977955" lon="9.251979517609342"><ele>502.00000000000006</ele><time>2026-04-12T10:46:37.999Z</time></trkpt><trkpt lat="45.96241906689542" lon="9.252115534085922"><ele>502.00000000000006</ele><time>2026-04-12T10:46:38.999Z</time></trkpt><trkpt lat="45.96243128994247" lon="9.252261413296313"><ele>502.0</ele><time>2026-04-12T10:46:39.999Z</time></trkpt><trkpt lat="45.96246242991312" lon="9.252391231749524"><ele>502.0</ele><time>2026-04-12T10:46:40.999Z</time></trkpt><trkpt lat="45.9625170551051" lon="9.252513370162303"><ele>497.33333333333337</ele><time>2026-04-12T10:46:41.999Z</time></trkpt><trkpt lat="45.96258059289429" lon="9.252622005591313"><ele>492.6666666666667</ele><time>2026-04-12T10:46:42.999Z</time></trkpt><trkpt lat="45.96262826660892" lon="9.252740511843655"><ele>488.0</ele><time>2026-04-12T10:46:43.999Z</time></trkpt><trkpt lat="45.96265778916953" lon="9.25284965555603"><ele>483.33333333333337</ele><time>2026-04-12T10:46:44.999Z</time></trkpt><trkpt lat="45.96268150772942" lon="9.252934807747064"><ele>478.6666666666667</ele><time>2026-04-12T10:46:45.999Z</time></trkpt><trkpt lat="45.962756340986495" lon="9.25301325782782"><ele>474.0</ele><time>2026-04-12T10:46:47.999Z</time></trkpt><trkpt lat="45.96282375797077" lon="9.252929001906557"><ele>474.0</ele><time>2026-04-12T10:46:49.999Z</time></trkpt><trkpt lat="45.962791564393754" lon="9.252781180739225"><ele>474.0</ele><time>2026-04-12T10:46:51.999Z</time></trkpt><trkpt lat="45.96275292445011" lon="9.252701284453428"><ele>474.0</ele><time>2026-04-12T10:46:52.999Z</time></trkpt><trkpt lat="45.9627100859493" lon="9.252606212306324"><ele>474.0</ele><time>2026-04-12T10:46:53.999Z</time></trkpt><trkpt lat="45.96268726989499" lon="9.252479325674553"><ele>474.0</ele><time>2026-04-12T10:46:54.999Z</time></trkpt><trkpt lat="45.9626687283898" lon="9.252352334687492"><ele>474.0</ele><time>2026-04-12T10:46:55.999Z</time></trkpt><trkpt lat="45.962652564363346" lon="9.252221172164253"><ele>473.4</ele><time>2026-04-12T10:46:56.999Z</time></trkpt><trkpt lat="45.962655101894555" lon="9.252087871872005"><ele>472.79999999999995</ele><time>2026-04-12T10:46:57.999Z</time></trkpt><trkpt lat="45.96268164195402" lon="9.251960957562297"><ele>472.20000000000005</ele><time>2026-04-12T10:46:58.999Z</time></trkpt><trkpt lat="45.962719578331175" lon="9.251843291450294"><ele>471.6</ele><time>2026-04-12T10:46:59.999Z</time></trkpt><trkpt lat="45.962746288066185" lon="9.251721053001894"><ele>471.0</ele><time>2026-04-12T10:47:00.999Z</time></trkpt><trkpt lat="45.96274562842602" lon="9.251594495598104"><ele>471.0</ele><time>2026-04-12T10:47:01.999Z</time></trkpt><trkpt lat="45.962724182238304" lon="9.2514757933591"><ele>471.0</ele><time>2026-04-12T10:47:02.999Z</time></trkpt><trkpt lat="45.9626852904105" lon="9.251378445678167"><ele>471.0</ele><time>2026-04-12T10:47:03.999Z</time></trkpt><trkpt lat="45.962652167927644" lon="9.251293631112745"><ele>471.0</ele><time>2026-04-12T10:47:04.999Z</time></trkpt><trkpt lat="45.96269084700028" lon="9.251150020098843"><ele>471.0</ele><time>2026-04-12T10:47:06.999Z</time></trkpt><trkpt lat="45.9627358933317" lon="9.251218698775267"><ele>471.0</ele><time>2026-04-12T10:47:09.999Z</time></trkpt><trkpt lat="45.962817902411516" lon="9.251377423061832"><ele>471.0</ele><time>2026-04-12T10:47:10.999Z</time></trkpt><trkpt lat="45.962830936857316" lon="9.251499314348097"><ele>471.0</ele><time>2026-04-12T10:47:11.999Z</time></trkpt><trkpt lat="45.96285123011644" lon="9.251626210943762"><ele>471.0</ele><time>2026-04-12T10:47:12.999Z</time></trkpt><trkpt lat="45.96287753677576" lon="9.251762267799357"><ele>471.0</ele><time>2026-04-12T10:47:13.999Z</time></trkpt><trkpt lat="45.962914868425244" lon="9.251905113640046"><ele>471.0</ele><time>2026-04-12T10:47:14.999Z</time></trkpt><trkpt lat="45.96296192611568" lon="9.252051898564702"><ele>471.0</ele><time>2026-04-12T10:47:15.999Z</time></trkpt><trkpt lat="45.963014925999126" lon="9.252191804377546"><ele>471.0</ele><time>2026-04-12T10:47:16.999Z</time></trkpt><trkpt lat="45.9630670073564" lon="9.252313809521024"><ele>471.0</ele><time>2026-04-12T10:47:18Z</time></trkpt><trkpt lat="45.96311343031711" lon="9.252413261236791"><ele>471.0</ele><time>2026-04-12T10:47:19Z</time></trkpt><trkpt lat="45.963172924347646" lon="9.25248327319728"><ele>471.0</ele><time>2026-04-12T10:47:20Z</time></trkpt><trkpt lat="45.96324486004601" lon="9.252525713373286"><ele>471.0</ele><time>2026-04-12T10:47:21Z</time></trkpt><trkpt lat="45.96331358604545" lon="9.252531513873654"><ele>468.1428571428572</ele><time>2026-04-12T10:47:22Z</time></trkpt><trkpt lat="45.96338538598318" lon="9.2525091781949"><ele>465.28571428571433</ele><time>2026-04-12T10:47:23Z</time></trkpt><trkpt lat="45.9634480658856" lon="9.252490115879976"><ele>462.42857142857144</ele><time>2026-04-12T10:47:24Z</time></trkpt><trkpt lat="45.96353737245218" lon="9.252553130774693"><ele>459.5714285714286</ele><time>2026-04-12T10:47:26Z</time></trkpt><trkpt lat="45.96354072588491" lon="9.252648852451749"><ele>456.7142857142858</ele><time>2026-04-12T10:47:27Z</time></trkpt><trkpt lat="45.96351650385188" lon="9.252736566348274"><ele>453.85714285714283</ele><time>2026-04-12T10:47:28Z</time></trkpt><trkpt lat="45.96346844517351" lon="9.252800430725184"><ele>451.0</ele><time>2026-04-12T10:47:29Z</time></trkpt><trkpt lat="45.96342782721857" lon="9.252890207182926"><ele>451.00000000000006</ele><time>2026-04-12T10:47:30Z</time></trkpt><trkpt lat="45.96341152502144" lon="9.252996001319534"><ele>451.0</ele><time>2026-04-12T10:47:31Z</time></trkpt><trkpt lat="45.963424189399994" lon="9.253102149443066"><ele>451.0</ele><time>2026-04-12T10:47:32Z</time></trkpt><trkpt lat="45.963480944497825" lon="9.25319687409592"><ele>451.0</ele><time>2026-04-12T10:47:33Z</time></trkpt><trkpt lat="45.9635603996168" lon="9.253265119116133"><ele>451.00000000000006</ele><time>2026-04-12T10:47:34Z</time></trkpt><trkpt lat="45.963655715716236" lon="9.253301015913337"><ele>451.0</ele><time>2026-04-12T10:47:35Z</time></trkpt><trkpt lat="45.96375365814051" lon="9.253297705111072"><ele>451.83333333333337</ele><time>2026-04-12T10:47:36Z</time></trkpt><trkpt lat="45.96384594223928" lon="9.253333075053275"><ele>452.6666666666667</ele><time>2026-04-12T10:47:37Z</time></trkpt><trkpt lat="45.9639289381983" lon="9.253343812517539"><ele>453.5</ele><time>2026-04-12T10:47:38Z</time></trkpt><trkpt lat="45.96400146143552" lon="9.253364818846322"><ele>454.33333333333337</ele><time>2026-04-12T10:47:39Z</time></trkpt><trkpt lat="45.96404827921461" lon="9.25344714155679"><ele>455.1666666666667</ele><time>2026-04-12T10:47:40Z</time></trkpt><trkpt lat="45.96407569760844" lon="9.253558469191242"><ele>456.0</ele><time>2026-04-12T10:47:41Z</time></trkpt><trkpt lat="45.964089296812396" lon="9.253674939130825"><ele>456.0</ele><time>2026-04-12T10:47:42Z</time></trkpt><trkpt lat="45.964105072122216" lon="9.253791876595518"><ele>456.0</ele><time>2026-04-12T10:47:43Z</time></trkpt><trkpt lat="45.96414935210946" lon="9.253907924242919"><ele>456.0</ele><time>2026-04-12T10:47:44Z</time></trkpt><trkpt lat="45.964224476534405" lon="9.254005366763717"><ele>456.0</ele><time>2026-04-12T10:47:45Z</time></trkpt><trkpt lat="45.96432091133667" lon="9.254091261018296"><ele>456.0</ele><time>2026-04-12T10:47:46Z</time></trkpt><trkpt lat="45.964428016806764" lon="9.254154269201406"><ele>451.25</ele><time>2026-04-12T10:47:47Z</time></trkpt><trkpt lat="45.964543410254905" lon="9.254199215850077"><ele>446.5</ele><time>2026-04-12T10:47:48Z</time></trkpt><trkpt lat="45.964660648333115" lon="9.254217684127594"><ele>441.75</ele><time>2026-04-12T10:47:49Z</time></trkpt><trkpt lat="45.96477941999276" lon="9.254249731396364"><ele>437.0</ele><time>2026-04-12T10:47:50Z</time></trkpt><trkpt lat="45.96488774075547" lon="9.25428227176857"><ele>437.0</ele><time>2026-04-12T10:47:51Z</time></trkpt><trkpt lat="45.96498081272548" lon="9.254322097664646"><ele>437.00000000000006</ele><time>2026-04-12T10:47:52Z</time></trkpt><trkpt lat="45.96506595254793" lon="9.254361381467021"><ele>437.00000000000006</ele><time>2026-04-12T10:47:53Z</time></trkpt><trkpt lat="45.965139360529236" lon="9.254416579155995"><ele>437.0</ele><time>2026-04-12T10:47:54Z</time></trkpt><trkpt lat="45.965196522717214" lon="9.254508229173105"><ele>437.0</ele><time>2026-04-12T10:47:55Z</time></trkpt><trkpt lat="45.96524486780413" lon="9.254643914566492"><ele>433.8</ele><time>2026-04-12T10:47:56Z</time></trkpt><trkpt lat="45.965276955882025" lon="9.254788764072481"><ele>430.6</ele><time>2026-04-12T10:47:57Z</time></trkpt><trkpt lat="45.9653083365698" lon="9.254933008486663"><ele>427.40000000000003</ele><time>2026-04-12T10:47:58Z</time></trkpt><trkpt lat="45.9653649779786" lon="9.255061145009185"><ele>424.20000000000005</ele><time>2026-04-12T10:47:59Z</time></trkpt><trkpt lat="45.96545625146821" lon="9.255156777027517"><ele>421.0</ele><time>2026-04-12T10:48:00Z</time></trkpt><trkpt lat="45.96555006302595" lon="9.255234638931517"><ele>421.00000000000006</ele><time>2026-04-12T10:48:01Z</time></trkpt><trkpt lat="45.965619033464385" lon="9.255315633832614"><ele>421.0</ele><time>2026-04-12T10:48:02Z</time></trkpt><trkpt lat="45.96565926098596" lon="9.25539767906138"><ele>421.0</ele><time>2026-04-12T10:48:03Z</time></trkpt><trkpt lat="45.96573044231374" lon="9.255473509832804"><ele>421.0</ele><time>2026-04-12T10:48:05Z</time></trkpt><trkpt lat="45.965812973031895" lon="9.255435213192532"><ele>421.00000000000006</ele><time>2026-04-12T10:48:07Z</time></trkpt><trkpt lat="45.96580065035254" lon="9.255289496919143"><ele>421.0</ele><time>2026-04-12T10:48:08Z</time></trkpt><trkpt lat="45.965735421564425" lon="9.255172488950778"><ele>421.0</ele><time>2026-04-12T10:48:09.999Z</time></trkpt><trkpt lat="45.96565354197043" lon="9.25501939848584"><ele>421.0</ele><time>2026-04-12T10:48:11.999Z</time></trkpt><trkpt lat="45.965609475709776" lon="9.254919243939005"><ele>421.0</ele><time>2026-04-12T10:48:12.999Z</time></trkpt><trkpt lat="45.96557629800025" lon="9.25481372809693"><ele>421.0</ele><time>2026-04-12T10:48:13.999Z</time></trkpt><trkpt lat="45.96554927280769" lon="9.254708228143638"><ele>421.0</ele><time>2026-04-12T10:48:14.999Z</time></trkpt><trkpt lat="45.96552567545268" lon="9.254604637495046"><ele>419.6666666666667</ele><time>2026-04-12T10:48:15.999Z</time></trkpt><trkpt lat="45.96550440103613" lon="9.254505005550543"><ele>418.33333333333337</ele><time>2026-04-12T10:48:16.999Z</time></trkpt><trkpt lat="45.96546186820806" lon="9.254351271610492"><ele>417.0</ele><time>2026-04-12T10:48:18.999Z</time></trkpt><trkpt lat="45.965541261307315" lon="9.254246735744736"><ele>415.66666666666663</ele><time>2026-04-12T10:48:20.999Z</time></trkpt><trkpt lat="45.96561014897416" lon="9.254254881458987"><ele>414.3333333333333</ele><time>2026-04-12T10:48:21.999Z</time></trkpt><trkpt lat="45.96568454443207" lon="9.25430362907417"><ele>413.0</ele><time>2026-04-12T10:48:22.999Z</time></trkpt><trkpt lat="45.96574771416445" lon="9.254370801996112"><ele>413.0</ele><time>2026-04-12T10:48:23.999Z</time></trkpt><trkpt lat="45.965775287482494" lon="9.254512074695452"><ele>413.0</ele><time>2026-04-12T10:48:25.999Z</time></trkpt><trkpt lat="45.965757554862165" lon="9.254695198422272"><ele>413.0</ele><time>2026-04-12T10:48:27.999Z</time></trkpt><trkpt lat="45.965775222681664" lon="9.254794274825574"><ele>413.0</ele><time>2026-04-12T10:48:28.999Z</time></trkpt><trkpt lat="45.96581758447926" lon="9.254882832237795"><ele>413.0</ele><time>2026-04-12T10:48:29.999Z</time></trkpt><trkpt lat="45.96587136656128" lon="9.254956958633418"><ele>411.16666666666663</ele><time>2026-04-12T10:48:30.999Z</time></trkpt><trkpt lat="45.96593701110568" lon="9.255032904553365"><ele>409.3333333333333</ele><time>2026-04-12T10:48:31.999Z</time></trkpt><trkpt lat="45.96598495979297" lon="9.255109460491067"><ele>407.5</ele><time>2026-04-12T10:48:32.999Z</time></trkpt><trkpt lat="45.966069746554204" lon="9.255210081509937"><ele>405.66666666666663</ele><time>2026-04-12T10:48:34.999Z</time></trkpt><trkpt lat="45.966142780260206" lon="9.255200030784684"><ele>403.8333333333333</ele><time>2026-04-12T10:48:36.999Z</time></trkpt><trkpt lat="45.966138337553815" lon="9.255055119454079"><ele>402.0</ele><time>2026-04-12T10:48:37.999Z</time></trkpt><trkpt lat="45.96610359124616" lon="9.254979550617202"><ele>402.0</ele><time>2026-04-12T10:48:38.999Z</time></trkpt><trkpt lat="45.966013888078294" lon="9.254859759455728"><ele>402.0</ele><time>2026-04-12T10:48:40.999Z</time></trkpt><trkpt lat="45.96598336955797" lon="9.254765537784671"><ele>402.0</ele><time>2026-04-12T10:48:41.999Z</time></trkpt><trkpt lat="45.96597438738265" lon="9.25466173460972"><ele>402.0</ele><time>2026-04-12T10:48:42.999Z</time></trkpt><trkpt lat="45.965980073085824" lon="9.25456451647556"><ele>402.0</ele><time>2026-04-12T10:48:43.999Z</time></trkpt><trkpt lat="45.966008792421626" lon="9.254482410804465"><ele>402.0</ele><time>2026-04-12T10:48:44.999Z</time></trkpt><trkpt lat="45.966064463996155" lon="9.25441900842603"><ele>402.6666666666667</ele><time>2026-04-12T10:48:45.999Z</time></trkpt><trkpt lat="45.96612518267848" lon="9.254353576961716"><ele>403.33333333333337</ele><time>2026-04-12T10:48:46.999Z</time></trkpt><trkpt lat="45.96617901680645" lon="9.25427722361165"><ele>404.0</ele><time>2026-04-12T10:48:47.999Z</time></trkpt><trkpt lat="45.96622973908604" lon="9.254185739497622"><ele>404.6666666666667</ele><time>2026-04-12T10:48:48.999Z</time></trkpt><trkpt lat="45.96626343085251" lon="9.25409105492202"><ele>405.33333333333337</ele><time>2026-04-12T10:48:49.999Z</time></trkpt><trkpt lat="45.96627465552036" lon="9.253980069919567"><ele>406.0</ele><time>2026-04-12T10:48:50.999Z</time></trkpt><trkpt lat="45.96625631609198" lon="9.253854522753295"><ele>403.1666666666667</ele><time>2026-04-12T10:48:51.999Z</time></trkpt><trkpt lat="45.966222380651324" lon="9.253723535280075"><ele>400.33333333333337</ele><time>2026-04-12T10:48:52.999Z</time></trkpt><trkpt lat="45.96622764579253" lon="9.253589526050616"><ele>397.5</ele><time>2026-04-12T10:48:53.999Z</time></trkpt><trkpt lat="45.96622460684394" lon="9.253455644612433"><ele>394.66666666666663</ele><time>2026-04-12T10:48:54.999Z</time></trkpt><trkpt lat="45.966212988310886" lon="9.253333275439031"><ele>391.8333333333333</ele><time>2026-04-12T10:48:55.999Z</time></trkpt><trkpt lat="45.966203677742165" lon="9.253233483543488"><ele>389.0</ele><time>2026-04-12T10:48:56.999Z</time></trkpt><trkpt lat="45.966160710093384" lon="9.253156550058677"><ele>387.42857142857144</ele><time>2026-04-12T10:48:57.999Z</time></trkpt><trkpt lat="45.9660999342679" lon="9.253096629257538"><ele>385.85714285714283</ele><time>2026-04-12T10:48:58.999Z</time></trkpt><trkpt lat="45.9660271015819" lon="9.253077525680895"><ele>384.2857142857143</ele><time>2026-04-12T10:48:59.999Z</time></trkpt><trkpt lat="45.965950755523224" lon="9.253090372025639"><ele>382.7142857142857</ele><time>2026-04-12T10:49:00.999Z</time></trkpt><trkpt lat="45.96588699663948" lon="9.253111078995692"><ele>381.1428571428571</ele><time>2026-04-12T10:49:01.999Z</time></trkpt><trkpt lat="45.96581345565107" lon="9.25306836507226"><ele>379.57142857142856</ele><time>2026-04-12T10:49:03.999Z</time></trkpt><trkpt lat="45.965836394078906" lon="9.252982448491425"><ele>378.0</ele><time>2026-04-12T10:49:05.999Z</time></trkpt><trkpt lat="45.9659740691688" lon="9.252991195187288"><ele>378.0</ele><time>2026-04-12T10:49:07.999Z</time></trkpt><trkpt lat="45.966040961072636" lon="9.252985774792592"><ele>378.0</ele><time>2026-04-12T10:49:08.999Z</time></trkpt><trkpt lat="45.966113856347796" lon="9.253000673847563"><ele>378.0</ele><time>2026-04-12T10:49:09.999Z</time></trkpt><trkpt lat="45.96619735662667" lon="9.252971153694352"><ele>378.0</ele><time>2026-04-12T10:49:10.999Z</time></trkpt><trkpt lat="45.96628820278529" lon="9.252972251622529"><ele>378.0</ele><time>2026-04-12T10:49:11.999Z</time></trkpt><trkpt lat="45.96638781410588" lon="9.252973946261948"><ele>378.0</ele><time>2026-04-12T10:49:12.999Z</time></trkpt><trkpt lat="45.96648836750746" lon="9.252965617753553"><ele>378.0</ele><time>2026-04-12T10:49:13.999Z</time></trkpt><trkpt lat="45.96658991501521" lon="9.252935980042967"><ele>378.0</ele><time>2026-04-12T10:49:14.999Z</time></trkpt><trkpt lat="45.96668762935175" lon="9.252903580064537"><ele>378.0</ele><time>2026-04-12T10:49:15.999Z</time></trkpt><trkpt lat="45.966788434785755" lon="9.252868246925935"><ele>378.0</ele><time>2026-04-12T10:49:16.999Z</time></trkpt><trkpt lat="45.96689209019324" lon="9.25281976361178"><ele>378.0</ele><time>2026-04-12T10:49:17.999Z</time></trkpt><trkpt lat="45.96698858157222" lon="9.25277501307452"><ele>376.59999999999997</ele><time>2026-04-12T10:49:18.999Z</time></trkpt><trkpt lat="45.967079527569325" lon="9.252746783538507"><ele>375.2</ele><time>2026-04-12T10:49:19.999Z</time></trkpt><trkpt lat="45.96715853520769" lon="9.252730361983005"><ele>373.8</ele><time>2026-04-12T10:49:20.999Z</time></trkpt><trkpt lat="45.96722707157863" lon="9.252717114750798"><ele>372.4</ele><time>2026-04-12T10:49:21.999Z</time></trkpt><trkpt lat="45.967331932870756" lon="9.252690622619214"><ele>371.0</ele><time>2026-04-12T10:49:23.999Z</time></trkpt><trkpt lat="45.96744028831643" lon="9.252722960463036"><ele>371.0</ele><time>2026-04-12T10:49:25.999Z</time></trkpt><trkpt lat="45.967498664660695" lon="9.25277972950524"><ele>371.0</ele><time>2026-04-12T10:49:26.999Z</time></trkpt><trkpt lat="45.96755634737245" lon="9.252856181283335"><ele>371.0</ele><time>2026-04-12T10:49:27.999Z</time></trkpt><trkpt lat="45.96762180839226" lon="9.25295224737156"><ele>371.0</ele><time>2026-04-12T10:49:28.999Z</time></trkpt><trkpt lat="45.96769557247479" lon="9.25304909593771"><ele>371.0</ele><time>2026-04-12T10:49:29.999Z</time></trkpt><trkpt lat="45.96778223141577" lon="9.253142083339359"><ele>366.75</ele><time>2026-04-12T10:49:31Z</time></trkpt><trkpt lat="45.967875662959926" lon="9.25323053500521"><ele>362.5</ele><time>2026-04-12T10:49:32Z</time></trkpt><trkpt lat="45.96797957701447" lon="9.253320844427218"><ele>358.25</ele><time>2026-04-12T10:49:33Z</time></trkpt><trkpt lat="45.968084429960314" lon="9.25341261264162"><ele>354.0</ele><time>2026-04-12T10:49:34Z</time></trkpt><trkpt lat="45.968179193397084" lon="9.253508162005833"><ele>354.0</ele><time>2026-04-12T10:49:35Z</time></trkpt><trkpt lat="45.96825447126331" lon="9.253604661628001"><ele>354.0</ele><time>2026-04-12T10:49:36Z</time></trkpt><trkpt lat="45.96831347160154" lon="9.25369441392704"><ele>354.0</ele><time>2026-04-12T10:49:37Z</time></trkpt><trkpt lat="45.968370456986605" lon="9.253763001450299"><ele>354.0</ele><time>2026-04-12T10:49:38Z</time></trkpt><trkpt lat="45.96844245967223" lon="9.2538063387916"><ele>354.0</ele><time>2026-04-12T10:49:39Z</time></trkpt><trkpt lat="45.96853023598004" lon="9.253813825155005"><ele>354.0</ele><time>2026-04-12T10:49:40Z</time></trkpt><trkpt lat="45.968617766435784" lon="9.253831114985518"><ele>350.6</ele><time>2026-04-12T10:49:41Z</time></trkpt><trkpt lat="45.96870189663951" lon="9.253876247659322"><ele>347.2</ele><time>2026-04-12T10:49:42Z</time></trkpt><trkpt lat="45.968777239555955" lon="9.253949780394153"><ele>343.8</ele><time>2026-04-12T10:49:43Z</time></trkpt><trkpt lat="45.96884410863045" lon="9.254046247510944"><ele>340.40000000000003</ele><time>2026-04-12T10:49:44Z</time></trkpt><trkpt lat="45.96889826990972" lon="9.254157650102057"><ele>337.0</ele><time>2026-04-12T10:49:45Z</time></trkpt><trkpt lat="45.96894079469161" lon="9.254277226901868"><ele>337.0</ele><time>2026-04-12T10:49:46Z</time></trkpt><trkpt lat="45.96896279631319" lon="9.254405408687475"><ele>337.0</ele><time>2026-04-12T10:49:47Z</time></trkpt><trkpt lat="45.96897018758727" lon="9.254537176531446"><ele>337.0</ele><time>2026-04-12T10:49:48Z</time></trkpt><trkpt lat="45.968958967767726" lon="9.254662171523053"><ele>337.0</ele><time>2026-04-12T10:49:49Z</time></trkpt><trkpt lat="45.968944238146065" lon="9.25478042962293"><ele>337.0</ele><time>2026-04-12T10:49:50Z</time></trkpt><trkpt lat="45.968930679290125" lon="9.254885491839886"><ele>337.0</ele><time>2026-04-12T10:49:51Z</time></trkpt><trkpt lat="45.96895228376846" lon="9.255046136607804"><ele>336.66666666666663</ele><time>2026-04-12T10:49:53Z</time></trkpt><trkpt lat="45.969002860324835" lon="9.255100159435491"><ele>336.3333333333333</ele><time>2026-04-12T10:49:54Z</time></trkpt><trkpt lat="45.969073915012544" lon="9.255122259545994"><ele>336.0</ele><time>2026-04-12T10:49:55Z</time></trkpt><trkpt lat="45.969152994247516" lon="9.25510171195487"><ele>335.6666666666667</ele><time>2026-04-12T10:49:56Z</time></trkpt><trkpt lat="45.96923955888338" lon="9.255067375434491"><ele>335.33333333333337</ele><time>2026-04-12T10:49:57Z</time></trkpt><trkpt lat="45.96932646335527" lon="9.255045268716389"><ele>335.0</ele><time>2026-04-12T10:49:58Z</time></trkpt><trkpt lat="45.969424365210486" lon="9.25505054249679"><ele>333.4</ele><time>2026-04-12T10:49:59Z</time></trkpt><trkpt lat="45.96951876865946" lon="9.255071053999577"><ele>331.8</ele><time>2026-04-12T10:50:00Z</time></trkpt><trkpt lat="45.969607686744" lon="9.255106831627018"><ele>330.20000000000005</ele><time>2026-04-12T10:50:01Z</time></trkpt><trkpt lat="45.96968883380681" lon="9.255168078778071"><ele>328.6</ele><time>2026-04-12T10:50:02Z</time></trkpt><trkpt lat="45.96975754736592" lon="9.255254383202598"><ele>327.0</ele><time>2026-04-12T10:50:03Z</time></trkpt><trkpt lat="45.96983493180162" lon="9.255347591903773"><ele>327.0</ele><time>2026-04-12T10:50:04Z</time></trkpt><trkpt lat="45.96992065120646" lon="9.255431983378461"><ele>327.0</ele><time>2026-04-12T10:50:05Z</time></trkpt><trkpt lat="45.970011454822725" lon="9.255519035285069"><ele>327.0</ele><time>2026-04-12T10:50:06Z</time></trkpt><trkpt lat="45.97009875194157" lon="9.255614664799936"><ele>327.0</ele><time>2026-04-12T10:50:07Z</time></trkpt><trkpt lat="45.970177541978686" lon="9.25571752867205"><ele>327.0</ele><time>2026-04-12T10:50:08Z</time></trkpt><trkpt lat="45.97023467071204" lon="9.255836725496975"><ele>324.40000000000003</ele><time>2026-04-12T10:50:09Z</time></trkpt><trkpt lat="45.970272131480016" lon="9.255966658330854"><ele>321.8</ele><time>2026-04-12T10:50:10Z</time></trkpt><trkpt lat="45.97029739334607" lon="9.256104023154029"><ele>319.2</ele><time>2026-04-12T10:50:11Z</time></trkpt><trkpt lat="45.97030992268928" lon="9.256245776210667"><ele>316.6</ele><time>2026-04-12T10:50:12Z</time></trkpt><trkpt lat="45.970304112247454" lon="9.256388878458873"><ele>314.0</ele><time>2026-04-12T10:50:13Z</time></trkpt><trkpt lat="45.97028622285446" lon="9.256537522269312"><ele>313.0</ele><time>2026-04-12T10:50:14Z</time></trkpt><trkpt lat="45.97025893265285" lon="9.256687799429631"><ele>312.0</ele><time>2026-04-12T10:50:15Z</time></trkpt><trkpt lat="45.97023016346205" lon="9.256841437091238"><ele>311.0</ele><time>2026-04-12T10:50:16Z</time></trkpt><trkpt lat="45.970204215023685" lon="9.256998588652092"><ele>310.0</ele><time>2026-04-12T10:50:17Z</time></trkpt><trkpt lat="45.97017945206566" lon="9.257150514585463"><ele>309.0</ele><time>2026-04-12T10:50:18Z</time></trkpt><trkpt lat="45.97015682136045" lon="9.257301160095643"><ele>308.8333333333333</ele><time>2026-04-12T10:50:19Z</time></trkpt><trkpt lat="45.97013559080156" lon="9.25744479000847"><ele>308.6666666666667</ele><time>2026-04-12T10:50:20Z</time></trkpt><trkpt lat="45.97011344950966" lon="9.257579233760845"><ele>308.5</ele><time>2026-04-12T10:50:21Z</time></trkpt><trkpt lat="45.9700906865828" lon="9.257692210922677"><ele>308.33333333333337</ele><time>2026-04-12T10:50:22Z</time></trkpt><trkpt lat="45.97007464207075" lon="9.257783639398294"><ele>308.1666666666667</ele><time>2026-04-12T10:50:23Z</time></trkpt><trkpt lat="45.97006265454656" lon="9.257915298967616"><ele>308.0</ele><time>2026-04-12T10:50:25Z</time></trkpt><trkpt lat="45.970082987138504" lon="9.258006099265385"><ele>307.6666666666667</ele><time>2026-04-12T10:50:41.999Z</time></trkpt><trkpt lat="45.97011616240653" lon="9.258186424350326"><ele>307.33333333333337</ele><time>2026-04-12T10:50:43.999Z</time></trkpt><trkpt lat="45.97015555281394" lon="9.258285414310036"><ele>307.0</ele><time>2026-04-12T10:50:44.999Z</time></trkpt><trkpt lat="45.97020044630895" lon="9.25837905711573"><ele>306.6666666666667</ele><time>2026-04-12T10:50:45.999Z</time></trkpt><trkpt lat="45.97025486461231" lon="9.258459215450829"><ele>306.3333333333333</ele><time>2026-04-12T10:50:46.999Z</time></trkpt><trkpt lat="45.97032341708575" lon="9.258520909282735"><ele>306.0</ele><time>2026-04-12T10:50:47.999Z</time></trkpt><trkpt lat="45.97039937278543" lon="9.25856881488001"><ele>306.0</ele><time>2026-04-12T10:50:48.999Z</time></trkpt><trkpt lat="45.97049881535595" lon="9.258594801297772"><ele>306.0</ele><time>2026-04-12T10:50:49.999Z</time></trkpt><trkpt lat="45.97060917490014" lon="9.258594638033347"><ele>306.0</ele><time>2026-04-12T10:50:50.999Z</time></trkpt><trkpt lat="45.97072287357482" lon="9.258583853273747"><ele>306.0</ele><time>2026-04-12T10:50:51.999Z</time></trkpt><trkpt lat="45.9708397367955" lon="9.258568057183716"><ele>306.0</ele><time>2026-04-12T10:50:52.999Z</time></trkpt><trkpt lat="45.97095832002736" lon="9.258550446060536"><ele>303.75</ele><time>2026-04-12T10:50:53.999Z</time></trkpt><trkpt lat="45.97107556725175" lon="9.25854172570208"><ele>301.5</ele><time>2026-04-12T10:50:54.999Z</time></trkpt><trkpt lat="45.97118915973292" lon="9.258546446253277"><ele>299.25</ele><time>2026-04-12T10:50:55.999Z</time></trkpt><trkpt lat="45.97130224488666" lon="9.258576234495347"><ele>297.0</ele><time>2026-04-12T10:50:56.999Z</time></trkpt><trkpt lat="45.971410483127315" lon="9.258646663006896"><ele>297.0</ele><time>2026-04-12T10:50:57.999Z</time></trkpt><trkpt lat="45.97150555571387" lon="9.25876718211066"><ele>297.0</ele><time>2026-04-12T10:50:58.999Z</time></trkpt><trkpt lat="45.97160327744866" lon="9.258899236856593"><ele>297.0</ele><time>2026-04-12T10:50:59.999Z</time></trkpt><trkpt lat="45.97170316130786" lon="9.259037420521066"><ele>297.0</ele><time>2026-04-12T10:51:00.999Z</time></trkpt><trkpt lat="45.971805673789845" lon="9.259165740451031"><ele>294.5</ele><time>2026-04-12T10:51:01.999Z</time></trkpt><trkpt lat="45.971905898225984" lon="9.259292901987228"><ele>292.0</ele><time>2026-04-12T10:51:02.999Z</time></trkpt><trkpt lat="45.9720112562942" lon="9.259433083626469"><ele>289.5</ele><time>2026-04-12T10:51:03.999Z</time></trkpt><trkpt lat="45.97209622363656" lon="9.259581216802669"><ele>287.0</ele><time>2026-04-12T10:51:04.999Z</time></trkpt><trkpt lat="45.972160228000185" lon="9.259751321960355"><ele>286.6</ele><time>2026-04-12T10:51:05.999Z</time></trkpt><trkpt lat="45.972214071403236" lon="9.25990193796108"><ele>286.2</ele><time>2026-04-12T10:51:06.999Z</time></trkpt><trkpt lat="45.97226597412135" lon="9.260033028090012"><ele>285.8</ele><time>2026-04-12T10:51:07.999Z</time></trkpt><trkpt lat="45.972315477984544" lon="9.26015097936305"><ele>285.4</ele><time>2026-04-12T10:51:08.999Z</time></trkpt><trkpt lat="45.97235757666046" lon="9.260256018659781"><ele>285.0</ele><time>2026-04-12T10:51:09.999Z</time></trkpt><trkpt lat="45.97238764170407" lon="9.260345799128967"><ele>285.0</ele><time>2026-04-12T10:51:10.999Z</time></trkpt><trkpt lat="45.972423076819965" lon="9.260494962585637"><ele>285.0</ele><time>2026-04-12T10:51:12.999Z</time></trkpt><trkpt lat="45.97252097873001" lon="9.260545766524407"><ele>285.0</ele><time>2026-04-12T10:51:14.999Z</time></trkpt><trkpt lat="45.97262880682459" lon="9.26050580623505"><ele>285.0</ele><time>2026-04-12T10:51:16.999Z</time></trkpt><trkpt lat="45.972734332756545" lon="9.260568644636368"><ele>285.0</ele><time>2026-04-12T10:51:18.999Z</time></trkpt><trkpt lat="45.972793487539064" lon="9.260636302475293"><ele>282.5</ele><time>2026-04-12T10:51:19.999Z</time></trkpt><trkpt lat="45.97285329114438" lon="9.260689779497127"><ele>280.0</ele><time>2026-04-12T10:51:20.999Z</time></trkpt><trkpt lat="45.97290724629493" lon="9.260751376739497"><ele>277.5</ele><time>2026-04-12T10:51:21.999Z</time></trkpt><trkpt lat="45.972958009083825" lon="9.26083281187759"><ele>275.0</ele><time>2026-04-12T10:51:22.999Z</time></trkpt><trkpt lat="45.972999598850905" lon="9.260902180292582"><ele>272.5</ele><time>2026-04-12T10:51:23.999Z</time></trkpt><trkpt lat="45.97304401758625" lon="9.260967868978678"><ele>270.0</ele><time>2026-04-12T10:51:24.999Z</time></trkpt><trkpt lat="45.97313923322317" lon="9.261067216112297"><ele>270.0</ele><time>2026-04-12T10:51:26.999Z</time></trkpt><trkpt lat="45.97325060808018" lon="9.261139693544992"><ele>270.0</ele><time>2026-04-12T10:51:28.999Z</time></trkpt><trkpt lat="45.97331526665458" lon="9.261163291272002"><ele>270.0</ele><time>2026-04-12T10:51:30Z</time></trkpt><trkpt lat="45.97338329881846" lon="9.261164561749556"><ele>270.0</ele><time>2026-04-12T10:51:31Z</time></trkpt><trkpt lat="45.97345039785281" lon="9.261158561113772"><ele>270.0</ele><time>2026-04-12T10:51:32Z</time></trkpt><trkpt lat="45.97351695317582" lon="9.261131650165153"><ele>270.0</ele><time>2026-04-12T10:51:33Z</time></trkpt><trkpt lat="45.97358065623551" lon="9.261088655609182"><ele>269.1428571428571</ele><time>2026-04-12T10:51:34Z</time></trkpt><trkpt lat="45.97364135360448" lon="9.26103808875926"><ele>268.2857142857143</ele><time>2026-04-12T10:51:35Z</time></trkpt><trkpt lat="45.973695084919655" lon="9.260969841922446"><ele>267.42857142857144</ele><time>2026-04-12T10:51:36Z</time></trkpt><trkpt lat="45.973743792034654" lon="9.260891739694907"><ele>266.57142857142856</ele><time>2026-04-12T10:51:37Z</time></trkpt><trkpt lat="45.97378390576222" lon="9.260801745915607"><ele>265.7142857142857</ele><time>2026-04-12T10:51:38Z</time></trkpt><trkpt lat="45.97381948988026" lon="9.260706860687518"><ele>264.85714285714283</ele><time>2026-04-12T10:51:39Z</time></trkpt><trkpt lat="45.973851272826806" lon="9.260606021818145"><ele>264.0</ele><time>2026-04-12T10:51:40Z</time></trkpt><trkpt lat="45.97387987652085" lon="9.26050241518734"><ele>264.0</ele><time>2026-04-12T10:51:41Z</time></trkpt><trkpt lat="45.97390741985761" lon="9.260402086694686"><ele>264.0</ele><time>2026-04-12T10:51:42Z</time></trkpt><trkpt lat="45.97393804503417" lon="9.26030444978534"><ele>264.0</ele><time>2026-04-12T10:51:43Z</time></trkpt><trkpt lat="45.97398309256407" lon="9.260157485765234"><ele>264.0</ele><time>2026-04-12T10:51:45Z</time></trkpt><trkpt lat="45.97403548862077" lon="9.260060482978746"><ele>264.0</ele><time>2026-04-12T10:51:47Z</time></trkpt><trkpt lat="45.97412650942435" lon="9.260053775913212"><ele>264.0</ele><time>2026-04-12T10:51:49Z</time></trkpt><trkpt lat="45.974178194726605" lon="9.260186692134532"><ele>264.0</ele><time>2026-04-12T10:51:51Z</time></trkpt><trkpt lat="45.97413019112008" lon="9.26034069797044"><ele>264.0</ele><time>2026-04-12T10:51:53Z</time></trkpt><trkpt lat="45.97409864084107" lon="9.260425742705051"><ele>264.0</ele><time>2026-04-12T10:51:54Z</time></trkpt><trkpt lat="45.97406193517081" lon="9.26052318796682"><ele>264.0</ele><time>2026-04-12T10:51:55Z</time></trkpt><trkpt lat="45.974026465480044" lon="9.260618935222269"><ele>264.0</ele><time>2026-04-12T10:51:56Z</time></trkpt><trkpt lat="45.973993157015464" lon="9.260709346063944"><ele>264.0</ele><time>2026-04-12T10:51:57Z</time></trkpt><trkpt lat="45.97396297765972" lon="9.260793323958993"><ele>261.25</ele><time>2026-04-12T10:51:58Z</time></trkpt><trkpt lat="45.97393018113901" lon="9.260952631185573"><ele>258.5</ele><time>2026-04-12T10:52:00Z</time></trkpt><trkpt lat="45.973948792656934" lon="9.261120337929503"><ele>255.75</ele><time>2026-04-12T10:52:02Z</time></trkpt><trkpt lat="45.97401838241949" lon="9.261257767899878"><ele>253.0</ele><time>2026-04-12T10:52:04Z</time></trkpt><trkpt lat="45.974132005554665" lon="9.261322220157089"><ele>250.60000000000002</ele><time>2026-04-12T10:52:06Z</time></trkpt><trkpt lat="45.97420359370305" lon="9.261319154614345"><ele>248.20000000000002</ele><time>2026-04-12T10:52:07Z</time></trkpt><trkpt lat="45.97428156253074" lon="9.261336870355004"><ele>245.8</ele><time>2026-04-12T10:52:08Z</time></trkpt><trkpt lat="45.97437933749107" lon="9.261315367603714"><ele>243.4</ele><time>2026-04-12T10:52:09Z</time></trkpt><trkpt lat="45.9744862365236" lon="9.261346855836289"><ele>241.0</ele><time>2026-04-12T10:52:10Z</time></trkpt><trkpt lat="45.97459558096934" lon="9.261397803815306"><ele>241.60000000000002</ele><time>2026-04-12T10:52:11Z</time></trkpt><trkpt lat="45.974703165755024" lon="9.261452426029553"><ele>242.20000000000002</ele><time>2026-04-12T10:52:12Z</time></trkpt><trkpt lat="45.97476808677974" lon="9.261522635463715"><ele>242.79999999999998</ele><time>2026-04-12T10:52:13Z</time></trkpt><trkpt lat="45.97485407161247" lon="9.26162138885341"><ele>243.39999999999998</ele><time>2026-04-12T10:52:14Z</time></trkpt><trkpt lat="45.974932268298716" lon="9.261721161725449"><ele>244.0</ele><time>2026-04-12T10:52:15Z</time></trkpt><trkpt lat="45.975005525419654" lon="9.2618281152781"><ele>241.25</ele><time>2026-04-12T10:52:16Z</time></trkpt><trkpt lat="45.975086010586395" lon="9.261944429523565"><ele>238.5</ele><time>2026-04-12T10:52:17Z</time></trkpt><trkpt lat="45.97517097577674" lon="9.26205227676307"><ele>235.75</ele><time>2026-04-12T10:52:18Z</time></trkpt><trkpt lat="45.97526438932267" lon="9.262149518284438"><ele>233.0</ele><time>2026-04-12T10:52:19Z</time></trkpt><trkpt lat="45.97537212640988" lon="9.26222078808895"><ele>233.0</ele><time>2026-04-12T10:52:20Z</time></trkpt><trkpt lat="45.97551076421749" lon="9.262254162251494"><ele>233.0</ele><time>2026-04-12T10:52:21Z</time></trkpt><trkpt lat="45.97565186337193" lon="9.262271467224066"><ele>233.0</ele><time>2026-04-12T10:52:22Z</time></trkpt><trkpt lat="45.975805449115846" lon="9.262282049807972"><ele>233.0</ele><time>2026-04-12T10:52:23Z</time></trkpt><trkpt lat="45.97595919737859" lon="9.262292215266335"><ele>233.33333333333334</ele><time>2026-04-12T10:52:24Z</time></trkpt><trkpt lat="45.97612196316672" lon="9.262326746465398"><ele>233.66666666666669</ele><time>2026-04-12T10:52:25Z</time></trkpt><trkpt lat="45.97628000790099" lon="9.262361841327271"><ele>234.0</ele><time>2026-04-12T10:52:26Z</time></trkpt><trkpt lat="45.976435031825034" lon="9.262398510697363"><ele>234.0</ele><time>2026-04-12T10:52:27Z</time></trkpt><trkpt lat="45.97659004037959" lon="9.262434768395694"><ele>234.0</ele><time>2026-04-12T10:52:28Z</time></trkpt><trkpt lat="45.976737550900154" lon="9.262467496644291"><ele>234.0</ele><time>2026-04-12T10:52:29Z</time></trkpt><trkpt lat="45.9768741259058" lon="9.262497942989846"><ele>234.0</ele><time>2026-04-12T10:52:30Z</time></trkpt><trkpt lat="45.97699875483497" lon="9.262520283664486"><ele>234.2</ele><time>2026-04-12T10:52:31Z</time></trkpt><trkpt lat="45.97711048668667" lon="9.262546828730128"><ele>234.39999999999998</ele><time>2026-04-12T10:52:32Z</time></trkpt><trkpt lat="45.97719221619803" lon="9.262571359071204"><ele>234.6</ele><time>2026-04-12T10:52:33Z</time></trkpt><trkpt lat="45.97725827295979" lon="9.26258788839606"><ele>234.8</ele><time>2026-04-12T10:52:34Z</time></trkpt><trkpt lat="45.97732873211361" lon="9.262583950148253"><ele>235.0</ele><time>2026-04-12T10:52:36Z</time></trkpt><trkpt lat="45.97734108669182" lon="9.262418424738247"><ele>235.49999999999997</ele><time>2026-04-12T10:52:37Z</time></trkpt><trkpt lat="45.97731832297384" lon="9.262240435349662"><ele>236.0</ele><time>2026-04-12T10:52:39Z</time></trkpt><trkpt lat="45.977308034838735" lon="9.262137917089085"><ele>236.5</ele><time>2026-04-12T10:52:40Z</time></trkpt><trkpt lat="45.97731305010301" lon="9.262021484241046"><ele>237.0</ele><time>2026-04-12T10:52:41Z</time></trkpt><trkpt lat="45.97731294738991" lon="9.261905381279226"><ele>237.49999999999997</ele><time>2026-04-12T10:52:42Z</time></trkpt><trkpt lat="45.97730755846781" lon="9.261785360020658"><ele>238.0</ele><time>2026-04-12T10:52:43Z</time></trkpt><trkpt lat="45.97730463665462" lon="9.261649811833024"><ele>238.0</ele><time>2026-04-12T10:52:43.999Z</time></trkpt><trkpt lat="45.97730460488073" lon="9.261505207545705"><ele>238.0</ele><time>2026-04-12T10:52:44.999Z</time></trkpt><trkpt lat="45.977310293636684" lon="9.261367558520405"><ele>238.0</ele><time>2026-04-12T10:52:45.999Z</time></trkpt><trkpt lat="45.977332877254156" lon="9.261232860385162"><ele>238.0</ele><time>2026-04-12T10:52:46.999Z</time></trkpt><trkpt lat="45.97736285889708" lon="9.261103551692557"><ele>238.0</ele><time>2026-04-12T10:52:47.999Z</time></trkpt><trkpt lat="45.977391483411665" lon="9.260984253292019"><ele>238.8</ele><time>2026-04-12T10:52:48.999Z</time></trkpt><trkpt lat="45.977417722968625" lon="9.260864233419511"><ele>239.60000000000002</ele><time>2026-04-12T10:52:49.999Z</time></trkpt><trkpt lat="45.97744021553325" lon="9.260741036161308"><ele>240.39999999999998</ele><time>2026-04-12T10:52:50.999Z</time></trkpt><trkpt lat="45.97747196244968" lon="9.26061956639268"><ele>241.2</ele><time>2026-04-12T10:52:51.999Z</time></trkpt><trkpt lat="45.97752158276144" lon="9.260511341480626"><ele>242.0</ele><time>2026-04-12T10:52:52.999Z</time></trkpt><trkpt lat="45.97758915646832" lon="9.260418780482532"><ele>243.8</ele><time>2026-04-12T10:52:53.999Z</time></trkpt><trkpt lat="45.977665779348804" lon="9.260334404465643"><ele>245.6</ele><time>2026-04-12T10:52:54.999Z</time></trkpt><trkpt lat="45.977739742386696" lon="9.260249933151853"><ele>247.40000000000003</ele><time>2026-04-12T10:52:55.999Z</time></trkpt><trkpt lat="45.97780798184656" lon="9.26016049863629"><ele>249.20000000000002</ele><time>2026-04-12T10:52:56.999Z</time></trkpt><trkpt lat="45.97786793763872" lon="9.260053983928103"><ele>251.0</ele><time>2026-04-12T10:52:57.999Z</time></trkpt><trkpt lat="45.97792728909355" lon="9.259958557556292"><ele>251.0</ele><time>2026-04-12T10:52:58.999Z</time></trkpt><trkpt lat="45.97798093631816" lon="9.259845402785189"><ele>251.00000000000003</ele><time>2026-04-12T10:52:59.999Z</time></trkpt><trkpt lat="45.9780199723954" lon="9.259720349975586"><ele>251.00000000000003</ele><time>2026-04-12T10:53:00.999Z</time></trkpt><trkpt lat="45.97805518057181" lon="9.259592012354593"><ele>251.0</ele><time>2026-04-12T10:53:01.999Z</time></trkpt><trkpt lat="45.978086816170034" lon="9.259459513338903"><ele>251.0</ele><time>2026-04-12T10:53:02.999Z</time></trkpt><trkpt lat="45.97812009176751" lon="9.259323818301082"><ele>250.60000000000002</ele><time>2026-04-12T10:53:03.999Z</time></trkpt><trkpt lat="45.978151600222894" lon="9.259196919282626"><ele>250.20000000000002</ele><time>2026-04-12T10:53:04.999Z</time></trkpt><trkpt lat="45.97818334277839" lon="9.259072722853443"><ele>249.79999999999998</ele><time>2026-04-12T10:53:05.999Z</time></trkpt><trkpt lat="45.978218307579674" lon="9.258942929679742"><ele>249.39999999999998</ele><time>2026-04-12T10:53:06.999Z</time></trkpt><trkpt lat="45.97825388302541" lon="9.258812863443953"><ele>249.0</ele><time>2026-04-12T10:53:07.999Z</time></trkpt><trkpt lat="45.97829015414977" lon="9.25867670025218"><ele>248.39999999999998</ele><time>2026-04-12T10:53:08.999Z</time></trkpt><trkpt lat="45.9783286643464" lon="9.2585383378468"><ele>247.79999999999998</ele><time>2026-04-12T10:53:09.999Z</time></trkpt><trkpt lat="45.97836427785812" lon="9.258405008454133"><ele>247.20000000000002</ele><time>2026-04-12T10:53:10.999Z</time></trkpt><trkpt lat="45.97839907061564" lon="9.258273784752312"><ele>246.60000000000002</ele><time>2026-04-12T10:53:11.999Z</time></trkpt><trkpt lat="45.97842805487163" lon="9.258150184315104"><ele>246.0</ele><time>2026-04-12T10:53:12.999Z</time></trkpt><trkpt lat="45.97845343865112" lon="9.258030558112825"><ele>247.5</ele><time>2026-04-12T10:53:13.999Z</time></trkpt><trkpt lat="45.97847481100351" lon="9.257908367773"><ele>249.0</ele><time>2026-04-12T10:53:14.999Z</time></trkpt><trkpt lat="45.97849451991771" lon="9.257788164733585"><ele>250.5</ele><time>2026-04-12T10:53:15.999Z</time></trkpt><trkpt lat="45.97851547491242" lon="9.257670814744511"><ele>252.0</ele><time>2026-04-12T10:53:16.999Z</time></trkpt><trkpt lat="45.97853617708857" lon="9.257556049984219"><ele>253.5</ele><time>2026-04-12T10:53:17.999Z</time></trkpt><trkpt lat="45.9785568868609" lon="9.25744192349543"><ele>255.0</ele><time>2026-04-12T10:53:18.999Z</time></trkpt><trkpt lat="45.97857827670263" lon="9.25732426816387"><ele>254.66666666666666</ele><time>2026-04-12T10:53:19.999Z</time></trkpt><trkpt lat="45.978598037297076" lon="9.257203191056618"><ele>254.33333333333331</ele><time>2026-04-12T10:53:20.999Z</time></trkpt><trkpt lat="45.9786193527784" lon="9.257084200924654"><ele>254.0</ele><time>2026-04-12T10:53:21.999Z</time></trkpt><trkpt lat="45.97864083096127" lon="9.256971434572202"><ele>253.66666666666666</ele><time>2026-04-12T10:53:22.999Z</time></trkpt><trkpt lat="45.97865972920125" lon="9.256857997825172"><ele>253.33333333333331</ele><time>2026-04-12T10:53:23.999Z</time></trkpt><trkpt lat="45.978675759961334" lon="9.256752122917407"><ele>253.0</ele><time>2026-04-12T10:53:24.999Z</time></trkpt><trkpt lat="45.978687348293114" lon="9.256596460037416"><ele>252.33333333333331</ele><time>2026-04-12T10:53:26.999Z</time></trkpt><trkpt lat="45.97869926546568" lon="9.256431377171614"><ele>251.66666666666666</ele><time>2026-04-12T10:53:28.999Z</time></trkpt><trkpt lat="45.978708956306534" lon="9.256326904439799"><ele>251.0</ele><time>2026-04-12T10:53:29.999Z</time></trkpt><trkpt lat="45.97871451357139" lon="9.256219819883016"><ele>250.33333333333331</ele><time>2026-04-12T10:53:30.999Z</time></trkpt><trkpt lat="45.978721775177235" lon="9.256103039184396"><ele>249.66666666666666</ele><time>2026-04-12T10:53:31.999Z</time></trkpt><trkpt lat="45.978729042723096" lon="9.255985543337033"><ele>249.0</ele><time>2026-04-12T10:53:32.999Z</time></trkpt><trkpt lat="45.978742878664164" lon="9.255864384819183"><ele>249.0</ele><time>2026-04-12T10:53:33.999Z</time></trkpt><trkpt lat="45.9787620424199" lon="9.255750135225615"><ele>249.0</ele><time>2026-04-12T10:53:35Z</time></trkpt><trkpt lat="45.97878284709941" lon="9.255636444246592"><ele>249.0</ele><time>2026-04-12T10:53:36Z</time></trkpt><trkpt lat="45.978801036261196" lon="9.255514922144533"><ele>249.0</ele><time>2026-04-12T10:53:37Z</time></trkpt><trkpt lat="45.97881746904297" lon="9.255394314841757"><ele>249.0</ele><time>2026-04-12T10:53:38Z</time></trkpt><trkpt lat="45.9788367240222" lon="9.255266761229331"><ele>249.0</ele><time>2026-04-12T10:53:39Z</time></trkpt><trkpt lat="45.9788574426954" lon="9.25514252231224"><ele>247.7142857142857</ele><time>2026-04-12T10:53:40Z</time></trkpt><trkpt lat="45.97888129929926" lon="9.255033154493002"><ele>246.4285714285714</ele><time>2026-04-12T10:53:41Z</time></trkpt><trkpt lat="45.97891077304017" lon="9.25493998678224"><ele>245.14285714285714</ele><time>2026-04-12T10:53:42Z</time></trkpt><trkpt lat="45.97894712163914" lon="9.254860561136908"><ele>243.85714285714283</ele><time>2026-04-12T10:53:43Z</time></trkpt><trkpt lat="45.97899480081024" lon="9.25478464287081"><ele>242.57142857142856</ele><time>2026-04-12T10:53:44Z</time></trkpt><trkpt lat="45.979049606217885" lon="9.254717209386651"><ele>241.28571428571428</ele><time>2026-04-12T10:53:45Z</time></trkpt><trkpt lat="45.97910456350022" lon="9.25466463506536"><ele>240.0</ele><time>2026-04-12T10:53:46Z</time></trkpt><trkpt lat="45.97919180979068" lon="9.254602211405423"><ele>235.4</ele><time>2026-04-12T10:53:48Z</time></trkpt><trkpt lat="45.97924978541064" lon="9.254565868777373"><ele>230.8</ele><time>2026-04-12T10:53:51Z</time></trkpt><trkpt lat="45.97933429910703" lon="9.254509568910333"><ele>226.2</ele><time>2026-04-12T10:53:55Z</time></trkpt><trkpt lat="45.97941438465967" lon="9.254473506998366"><ele>221.6</ele><time>2026-04-12T10:53:57Z</time></trkpt><trkpt lat="45.979519110365324" lon="9.25447134441"><ele>217.0</ele><time>2026-04-12T10:53:59Z</time></trkpt><trkpt lat="45.97963662313201" lon="9.254507825502063"><ele>217.0</ele><time>2026-04-12T10:54:01Z</time></trkpt><trkpt lat="45.97970009828803" lon="9.254533522510961"><ele>217.0</ele><time>2026-04-12T10:54:02Z</time></trkpt><trkpt lat="45.97976042263543" lon="9.254564208378438"><ele>217.0</ele><time>2026-04-12T10:54:03Z</time></trkpt><trkpt lat="45.97982367361662" lon="9.25459178109276"><ele>217.0</ele><time>2026-04-12T10:54:04Z</time></trkpt><trkpt lat="45.97988911401769" lon="9.254621542689154"><ele>217.0</ele><time>2026-04-12T10:54:05Z</time></trkpt><trkpt lat="45.97995637689359" lon="9.254649166999377"><ele>217.0</ele><time>2026-04-12T10:54:06Z</time></trkpt><trkpt lat="45.980022503723404" lon="9.254677611823272"><ele>217.0</ele><time>2026-04-12T10:54:07Z</time></trkpt><trkpt lat="45.980087757059785" lon="9.254715160531324"><ele>215.83333333333331</ele><time>2026-04-12T10:54:08Z</time></trkpt><trkpt lat="45.980158011215686" lon="9.254752813426904"><ele>214.66666666666666</ele><time>2026-04-12T10:54:09Z</time></trkpt><trkpt lat="45.98022477747815" lon="9.254799632692325"><ele>213.5</ele><time>2026-04-12T10:54:10Z</time></trkpt><trkpt lat="45.980288704457905" lon="9.254854964478175"><ele>212.33333333333331</ele><time>2026-04-12T10:54:11Z</time></trkpt><trkpt lat="45.980360474370954" lon="9.254904275581861"><ele>211.16666666666666</ele><time>2026-04-12T10:54:12Z</time></trkpt><trkpt lat="45.98042582899873" lon="9.25495595147406"><ele>210.0</ele><time>2026-04-12T10:54:13Z</time></trkpt><trkpt lat="45.98049326442339" lon="9.255001859566622"><ele>209.33333333333334</ele><time>2026-04-12T10:54:14Z</time></trkpt><trkpt lat="45.98056038788079" lon="9.255049910081766"><ele>208.66666666666669</ele><time>2026-04-12T10:54:15Z</time></trkpt><trkpt lat="45.98063565860353" lon="9.255102890740373"><ele>208.0</ele><time>2026-04-12T10:54:16Z</time></trkpt><trkpt lat="45.98071214395611" lon="9.255154550649294"><ele>207.33333333333334</ele><time>2026-04-12T10:54:17Z</time></trkpt><trkpt lat="45.980787158331566" lon="9.255202896766674"><ele>206.66666666666669</ele><time>2026-04-12T10:54:18Z</time></trkpt><trkpt lat="45.98085931162037" lon="9.25525550824018"><ele>206.0</ele><time>2026-04-12T10:54:19Z</time></trkpt><trkpt lat="45.98093135465899" lon="9.255309567765485"><ele>206.00000000000003</ele><time>2026-04-12T10:54:20Z</time></trkpt><trkpt lat="45.98099858284795" lon="9.255359174545454"><ele>206.0</ele><time>2026-04-12T10:54:21Z</time></trkpt><trkpt lat="45.98106578483432" lon="9.255406720440552"><ele>206.0</ele><time>2026-04-12T10:54:22Z</time></trkpt><trkpt lat="45.981129718642315" lon="9.255449867317283"><ele>206.0</ele><time>2026-04-12T10:54:23Z</time></trkpt><trkpt lat="45.98118632511829" lon="9.25548957033959"><ele>206.00000000000003</ele><time>2026-04-12T10:54:24Z</time></trkpt><trkpt lat="45.98128472525442" lon="9.25556295577127"><ele>206.0</ele><time>2026-04-12T10:54:26Z</time></trkpt><trkpt lat="45.98139411768303" lon="9.255642033711485"><ele>205.33333333333334</ele><time>2026-04-12T10:54:28Z</time></trkpt><trkpt lat="45.98149671273295" lon="9.255747369578094"><ele>204.66666666666669</ele><time>2026-04-12T10:54:30Z</time></trkpt><trkpt lat="45.9815500249323" lon="9.25581161170539"><ele>204.0</ele><time>2026-04-12T10:54:31Z</time></trkpt><trkpt lat="45.98160420842314" lon="9.255879723531763"><ele>203.33333333333331</ele><time>2026-04-12T10:54:32Z</time></trkpt><trkpt lat="45.981662112283054" lon="9.255952466690003"><ele>202.66666666666666</ele><time>2026-04-12T10:54:33Z</time></trkpt><trkpt lat="45.981720975322474" lon="9.256031047944491"><ele>202.0</ele><time>2026-04-12T10:54:34Z</time></trkpt><trkpt lat="45.981786534733644" lon="9.256099679959528"><ele>201.99999999999997</ele><time>2026-04-12T10:54:35Z</time></trkpt><trkpt lat="45.981855739452776" lon="9.25614410044601"><ele>202.0</ele><time>2026-04-12T10:54:36Z</time></trkpt><trkpt lat="45.98192332861678" lon="9.256200420767003"><ele>202.0</ele><time>2026-04-12T10:54:37Z</time></trkpt><trkpt lat="45.98198130002684" lon="9.25624768187733"><ele>202.0</ele><time>2026-04-12T10:54:38Z</time></trkpt><trkpt lat="45.98204628891072" lon="9.25627459535494"><ele>201.99999999999997</ele><time>2026-04-12T10:54:39Z</time></trkpt><trkpt lat="45.9821635909586" lon="9.256317566444254"><ele>202.0</ele><time>2026-04-12T10:54:41Z</time></trkpt><trkpt lat="45.98226263755434" lon="9.256331345841684"><ele>201.99999999999997</ele><time>2026-04-12T10:54:43Z</time></trkpt><trkpt lat="45.982353639300406" lon="9.256340540147823"><ele>202.0</ele><time>2026-04-12T10:54:46Z</time></trkpt><trkpt lat="45.98242278454591" lon="9.256368135079848"><ele>202.0</ele><time>2026-04-12T10:54:48Z</time></trkpt><trkpt lat="45.98248696955267" lon="9.256411254977907"><ele>202.0</ele><time>2026-04-12T10:54:50Z</time></trkpt><trkpt lat="45.982557908696286" lon="9.256464190504053"><ele>201.99999999999997</ele><time>2026-04-12T10:54:52Z</time></trkpt><trkpt lat="45.98262076566907" lon="9.256538022879946"><ele>202.0</ele><time>2026-04-12T10:54:54Z</time></trkpt><trkpt lat="45.98267804525966" lon="9.25661511425825"><ele>201.71428571428572</ele><time>2026-04-12T10:54:56Z</time></trkpt><trkpt lat="45.982730708333655" lon="9.256685066720527"><ele>201.42857142857142</ele><time>2026-04-12T10:54:58Z</time></trkpt><trkpt lat="45.98279891758467" lon="9.256767977584575"><ele>201.14285714285717</ele><time>2026-04-12T10:55:01Z</time></trkpt><trkpt lat="45.98285636914599" lon="9.256840043457156"><ele>200.85714285714286</ele><time>2026-04-12T10:55:04Z</time></trkpt><trkpt lat="45.98290881968694" lon="9.256904061196712"><ele>200.57142857142858</ele><time>2026-04-12T10:55:08Z</time></trkpt><trkpt lat="45.9829590899019" lon="9.256963268237838"><ele>200.2857142857143</ele><time>2026-04-12T10:55:14Z</time></trkpt><trkpt lat="45.98301024299924" lon="9.257038200471325"><ele>200.0</ele><time>2026-04-12T10:55:17Z</time></trkpt><trkpt lat="45.98307080435951" lon="9.257131029335582"><ele>200.0</ele><time>2026-04-12T10:55:20Z</time></trkpt><trkpt lat="45.983128815075375" lon="9.257218441956098"><ele>200.0</ele><time>2026-04-12T10:55:21.999Z</time></trkpt><trkpt lat="45.98319435941974" lon="9.257308879611923"><ele>219.0</ele><time>2026-04-12T10:55:23.999Z</time></trkpt><trkpt lat="45.98325104279128" lon="9.257388051635605"><ele>219.0</ele><time>2026-04-12T10:55:25.999Z</time></trkpt><trkpt lat="45.983303778094175" lon="9.257462398875345"><ele>219.0</ele><time>2026-04-12T10:55:27.999Z</time></trkpt><trkpt lat="45.983353172675514" lon="9.25753219867384"><ele>201.0</ele><time>2026-04-12T10:55:29.999Z</time></trkpt></trkseg></trk></gpx>